<?xml version='1.0' encoding='UTF-8'?><gpx version="1.1" creator="JPX - https://github.com/jenetics/jpx" xmlns="http://www.topografix.com/GPX/1/1"><trk><trkseg><trkpt lat="40.7244917" lon="9.6413832"><ele>79.0</ele><time>2026-04-12T07:43:12.987Z</time></trkpt><trkpt lat="40.7245194" lon="9.6414839"><ele>79.0</ele><time>2026-04-12T07:43:15.997Z</time></trkpt><trkpt lat="40.7245232" lon="9.6415673"><ele>79.0</ele><time>2026-04-12T07:43:17.986Z</time></trkpt><trkpt lat="40.7245208" lon="9.6416766"><ele>79.0</ele><time>2026-04-12T07:43:19.993Z</time></trkpt><trkpt lat="40.7245069" lon="9.6417834"><ele>79.0</ele><time>2026-04-12T07:43:21.995Z</time></trkpt><trkpt lat="40.724489" lon="9.6418991"><ele>79.0</ele><time>2026-04-12T07:43:24.974Z</time></trkpt><trkpt lat="40.7244549" lon="9.641976"><ele>78.8</ele><time>2026-04-12T07:43:28.007Z</time></trkpt><trkpt lat="40.7243818" lon="9.6420035"><ele>78.60000000000001</ele><time>2026-04-12T07:43:30.984Z</time></trkpt><trkpt lat="40.7242629" lon="9.6419638"><ele>78.4</ele><time>2026-04-12T07:43:32.977Z</time></trkpt><trkpt lat="40.7241908" lon="9.6419307"><ele>78.2</ele><time>2026-04-12T07:43:33.971Z</time></trkpt><trkpt lat="40.7241171" lon="9.6418727"><ele>78.0</ele><time>2026-04-12T07:43:34.98Z</time></trkpt><trkpt lat="40.724033" lon="9.6418006"><ele>77.6</ele><time>2026-04-12T07:43:35.966Z</time></trkpt><trkpt lat="40.7239538" lon="9.641717"><ele>77.19999999999999</ele><time>2026-04-12T07:43:36.963Z</time></trkpt><trkpt lat="40.7238729" lon="9.6416202"><ele>76.8</ele><time>2026-04-12T07:43:37.971Z</time></trkpt><trkpt lat="40.7237891" lon="9.6415103"><ele>76.39999999999999</ele><time>2026-04-12T07:43:38.974Z</time></trkpt><trkpt lat="40.7237107" lon="9.6414004"><ele>76.0</ele><time>2026-04-12T07:43:39.97Z</time></trkpt><trkpt lat="40.7236435" lon="9.6412879"><ele>76.0</ele><time>2026-04-12T07:43:40.966Z</time></trkpt><trkpt lat="40.7235824" lon="9.6411713"><ele>76.0</ele><time>2026-04-12T07:43:41.961Z</time></trkpt><trkpt lat="40.7235287" lon="9.6410605"><ele>76.0</ele><time>2026-04-12T07:43:42.977Z</time></trkpt><trkpt lat="40.7234813" lon="9.6409523"><ele>76.0</ele><time>2026-04-12T07:43:43.975Z</time></trkpt><trkpt lat="40.7234504" lon="9.6408407"><ele>76.0</ele><time>2026-04-12T07:43:44.987Z</time></trkpt><trkpt lat="40.7234277" lon="9.6407318"><ele>76.5</ele><time>2026-04-12T07:43:45.961Z</time></trkpt><trkpt lat="40.7234045" lon="9.6406249"><ele>77.0</ele><time>2026-04-12T07:43:46.96Z</time></trkpt><trkpt lat="40.7233813" lon="9.6405209"><ele>77.5</ele><time>2026-04-12T07:43:47.958Z</time></trkpt><trkpt lat="40.7233636" lon="9.6404168"><ele>78.0</ele><time>2026-04-12T07:43:48.952Z</time></trkpt><trkpt lat="40.7233403" lon="9.6403166"><ele>78.5</ele><time>2026-04-12T07:43:49.954Z</time></trkpt><trkpt lat="40.7233218" lon="9.6402179"><ele>79.0</ele><time>2026-04-12T07:43:50.954Z</time></trkpt><trkpt lat="40.7233009" lon="9.6401208"><ele>79.42857142857143</ele><time>2026-04-12T07:43:51.955Z</time></trkpt><trkpt lat="40.7232771" lon="9.6400292"><ele>79.85714285714286</ele><time>2026-04-12T07:43:52.955Z</time></trkpt><trkpt lat="40.7232554" lon="9.6399397"><ele>80.28571428571428</ele><time>2026-04-12T07:43:53.964Z</time></trkpt><trkpt lat="40.7232331" lon="9.6398405"><ele>80.71428571428572</ele><time>2026-04-12T07:43:54.979Z</time></trkpt><trkpt lat="40.7232145" lon="9.6397397"><ele>81.14285714285714</ele><time>2026-04-12T07:43:55.955Z</time></trkpt><trkpt lat="40.7231999" lon="9.6396389"><ele>81.57142857142857</ele><time>2026-04-12T07:43:56.946Z</time></trkpt><trkpt lat="40.7231917" lon="9.6395488"><ele>82.0</ele><time>2026-04-12T07:43:57.951Z</time></trkpt><trkpt lat="40.7231834" lon="9.6394005"><ele>82.66666666666666</ele><time>2026-04-12T07:43:59.953Z</time></trkpt><trkpt lat="40.723194" lon="9.6392424"><ele>83.33333333333333</ele><time>2026-04-12T07:44:01.946Z</time></trkpt><trkpt lat="40.7232019" lon="9.6391508"><ele>84.0</ele><time>2026-04-12T07:44:02.946Z</time></trkpt><trkpt lat="40.723222" lon="9.6390576"><ele>84.66666666666667</ele><time>2026-04-12T07:44:03.947Z</time></trkpt><trkpt lat="40.7232512" lon="9.6389706"><ele>85.33333333333334</ele><time>2026-04-12T07:44:04.95Z</time></trkpt><trkpt lat="40.7233001" lon="9.6388972"><ele>86.0</ele><time>2026-04-12T07:44:05.942Z</time></trkpt><trkpt lat="40.723359" lon="9.638828"><ele>86.0</ele><time>2026-04-12T07:44:06.946Z</time></trkpt><trkpt lat="40.7234253" lon="9.6387577"><ele>86.0</ele><time>2026-04-12T07:44:07.942Z</time></trkpt><trkpt lat="40.7234963" lon="9.6386845"><ele>86.0</ele><time>2026-04-12T07:44:08.939Z</time></trkpt><trkpt lat="40.723565" lon="9.6386033"><ele>86.0</ele><time>2026-04-12T07:44:09.939Z</time></trkpt><trkpt lat="40.723632" lon="9.6385138"><ele>86.0</ele><time>2026-04-12T07:44:10.958Z</time></trkpt><trkpt lat="40.7236993" lon="9.6384241"><ele>88.19999999999999</ele><time>2026-04-12T07:44:11.939Z</time></trkpt><trkpt lat="40.7237709" lon="9.6383338"><ele>90.39999999999999</ele><time>2026-04-12T07:44:12.942Z</time></trkpt><trkpt lat="40.7238392" lon="9.6382424"><ele>92.6</ele><time>2026-04-12T07:44:13.944Z</time></trkpt><trkpt lat="40.723892" lon="9.6381443"><ele>94.8</ele><time>2026-04-12T07:44:14.936Z</time></trkpt><trkpt lat="40.7239321" lon="9.6380362"><ele>97.0</ele><time>2026-04-12T07:44:15.937Z</time></trkpt><trkpt lat="40.7239596" lon="9.6379255"><ele>97.0</ele><time>2026-04-12T07:44:16.944Z</time></trkpt><trkpt lat="40.723971" lon="9.6378071"><ele>97.0</ele><time>2026-04-12T07:44:17.932Z</time></trkpt><trkpt lat="40.7239695" lon="9.637675"><ele>97.0</ele><time>2026-04-12T07:44:18.943Z</time></trkpt><trkpt lat="40.7239569" lon="9.6375388"><ele>97.0</ele><time>2026-04-12T07:44:19.936Z</time></trkpt><trkpt lat="40.7239201" lon="9.637425"><ele>97.0</ele><time>2026-04-12T07:44:20.928Z</time></trkpt><trkpt lat="40.7238732" lon="9.6373171"><ele>98.33333333333334</ele><time>2026-04-12T07:44:21.929Z</time></trkpt><trkpt lat="40.7238259" lon="9.6372118"><ele>99.66666666666667</ele><time>2026-04-12T07:44:22.926Z</time></trkpt><trkpt lat="40.7237792" lon="9.6371084"><ele>101.0</ele><time>2026-04-12T07:44:23.93Z</time></trkpt><trkpt lat="40.7237362" lon="9.6370006"><ele>102.33333333333334</ele><time>2026-04-12T07:44:24.927Z</time></trkpt><trkpt lat="40.723702" lon="9.6368974"><ele>103.66666666666667</ele><time>2026-04-12T07:44:25.921Z</time></trkpt><trkpt lat="40.7236728" lon="9.6368015"><ele>105.0</ele><time>2026-04-12T07:44:26.921Z</time></trkpt><trkpt lat="40.7236543" lon="9.6366933"><ele>105.33333333333333</ele><time>2026-04-12T07:44:27.926Z</time></trkpt><trkpt lat="40.7236481" lon="9.6365817"><ele>105.66666666666666</ele><time>2026-04-12T07:44:28.932Z</time></trkpt><trkpt lat="40.7236409" lon="9.6364607"><ele>106.0</ele><time>2026-04-12T07:44:29.92Z</time></trkpt><trkpt lat="40.7236275" lon="9.6363479"><ele>106.33333333333333</ele><time>2026-04-12T07:44:30.921Z</time></trkpt><trkpt lat="40.7235875" lon="9.6362413"><ele>106.66666666666666</ele><time>2026-04-12T07:44:31.92Z</time></trkpt><trkpt lat="40.7235308" lon="9.6361488"><ele>107.0</ele><time>2026-04-12T07:44:32.921Z</time></trkpt><trkpt lat="40.7234644" lon="9.6360627"><ele>108.66666666666666</ele><time>2026-04-12T07:44:34.021Z</time></trkpt><trkpt lat="40.7233988" lon="9.6359792"><ele>110.33333333333333</ele><time>2026-04-12T07:44:35.027Z</time></trkpt><trkpt lat="40.7233424" lon="9.6359052"><ele>112.0</ele><time>2026-04-12T07:44:36.024Z</time></trkpt><trkpt lat="40.7232929" lon="9.6358338"><ele>113.66666666666666</ele><time>2026-04-12T07:44:37.042Z</time></trkpt><trkpt lat="40.7232431" lon="9.6357661"><ele>115.33333333333333</ele><time>2026-04-12T07:44:38.026Z</time></trkpt><trkpt lat="40.7231902" lon="9.635681"><ele>117.0</ele><time>2026-04-12T07:44:40.032Z</time></trkpt><trkpt lat="40.7231301" lon="9.6355931"><ele>117.0</ele><time>2026-04-12T07:44:50.018Z</time></trkpt><trkpt lat="40.7230293" lon="9.6355201"><ele>116.99999999999999</ele><time>2026-04-12T07:44:52.023Z</time></trkpt><trkpt lat="40.7229364" lon="9.6354444"><ele>116.99999999999999</ele><time>2026-04-12T07:44:54.009Z</time></trkpt><trkpt lat="40.7228747" lon="9.635327"><ele>117.0</ele><time>2026-04-12T07:44:56.025Z</time></trkpt><trkpt lat="40.7228573" lon="9.6352414"><ele>117.0</ele><time>2026-04-12T07:44:56.994Z</time></trkpt><trkpt lat="40.722845" lon="9.6351383"><ele>119.39999999999999</ele><time>2026-04-12T07:44:57.996Z</time></trkpt><trkpt lat="40.7228286" lon="9.635013"><ele>121.79999999999998</ele><time>2026-04-12T07:44:59.001Z</time></trkpt><trkpt lat="40.7228087" lon="9.6348819"><ele>124.2</ele><time>2026-04-12T07:45:00.008Z</time></trkpt><trkpt lat="40.7227963" lon="9.6347626"><ele>126.6</ele><time>2026-04-12T07:45:01Z</time></trkpt><trkpt lat="40.7227837" lon="9.6346462"><ele>129.0</ele><time>2026-04-12T07:45:01.995Z</time></trkpt><trkpt lat="40.7227639" lon="9.6345475"><ele>129.99999999999997</ele><time>2026-04-12T07:45:03.004Z</time></trkpt><trkpt lat="40.7227462" lon="9.6344644"><ele>131.0</ele><time>2026-04-12T07:45:03.997Z</time></trkpt><trkpt lat="40.7227216" lon="9.6343748"><ele>132.0</ele><time>2026-04-12T07:45:04.995Z</time></trkpt><trkpt lat="40.7226916" lon="9.6342828"><ele>133.0</ele><time>2026-04-12T07:45:06.023Z</time></trkpt><trkpt lat="40.7226583" lon="9.6341982"><ele>134.0</ele><time>2026-04-12T07:45:06.991Z</time></trkpt><trkpt lat="40.7226169" lon="9.634122"><ele>134.99999999999997</ele><time>2026-04-12T07:45:07.993Z</time></trkpt><trkpt lat="40.7225639" lon="9.6340366"><ele>136.0</ele><time>2026-04-12T07:45:08.986Z</time></trkpt><trkpt lat="40.7225116" lon="9.6339526"><ele>132.33333333333334</ele><time>2026-04-12T07:45:09.988Z</time></trkpt><trkpt lat="40.7224638" lon="9.6338678"><ele>128.66666666666669</ele><time>2026-04-12T07:45:10.978Z</time></trkpt><trkpt lat="40.7224159" lon="9.6337796"><ele>125.0</ele><time>2026-04-12T07:45:11.983Z</time></trkpt><trkpt lat="40.722367" lon="9.633691"><ele>121.33333333333334</ele><time>2026-04-12T07:45:12.982Z</time></trkpt><trkpt lat="40.7223158" lon="9.6336002"><ele>117.66666666666667</ele><time>2026-04-12T07:45:13.985Z</time></trkpt><trkpt lat="40.7222606" lon="9.6335042"><ele>114.0</ele><time>2026-04-12T07:45:14.976Z</time></trkpt><trkpt lat="40.7221992" lon="9.6334041"><ele>114.0</ele><time>2026-04-12T07:45:15.975Z</time></trkpt><trkpt lat="40.7221364" lon="9.6332975"><ele>114.0</ele><time>2026-04-12T07:45:16.981Z</time></trkpt><trkpt lat="40.7220779" lon="9.6331912"><ele>114.0</ele><time>2026-04-12T07:45:17.978Z</time></trkpt><trkpt lat="40.7220295" lon="9.6330945"><ele>114.0</ele><time>2026-04-12T07:45:18.979Z</time></trkpt><trkpt lat="40.7219767" lon="9.6330152"><ele>114.0</ele><time>2026-04-12T07:45:20.007Z</time></trkpt><trkpt lat="40.7219117" lon="9.6329508"><ele>112.5</ele><time>2026-04-12T07:45:20.97Z</time></trkpt><trkpt lat="40.7218523" lon="9.6328789"><ele>111.0</ele><time>2026-04-12T07:45:21.985Z</time></trkpt><trkpt lat="40.721789" lon="9.6327928"><ele>109.5</ele><time>2026-04-12T07:45:22.973Z</time></trkpt><trkpt lat="40.7217274" lon="9.6327026"><ele>108.0</ele><time>2026-04-12T07:45:23.971Z</time></trkpt><trkpt lat="40.7216747" lon="9.6326118"><ele>106.5</ele><time>2026-04-12T07:45:24.966Z</time></trkpt><trkpt lat="40.7216275" lon="9.6325076"><ele>105.0</ele><time>2026-04-12T07:45:25.97Z</time></trkpt><trkpt lat="40.7215808" lon="9.632398"><ele>105.0</ele><time>2026-04-12T07:45:26.969Z</time></trkpt><trkpt lat="40.7215436" lon="9.6322913"><ele>105.0</ele><time>2026-04-12T07:45:27.969Z</time></trkpt><trkpt lat="40.7215145" lon="9.6321906"><ele>105.0</ele><time>2026-04-12T07:45:28.956Z</time></trkpt><trkpt lat="40.7215007" lon="9.632096"><ele>105.0</ele><time>2026-04-12T07:45:29.964Z</time></trkpt><trkpt lat="40.7215051" lon="9.6319905"><ele>105.0</ele><time>2026-04-12T07:45:30.963Z</time></trkpt><trkpt lat="40.7215169" lon="9.6318783"><ele>105.0</ele><time>2026-04-12T07:45:31.964Z</time></trkpt><trkpt lat="40.7215366" lon="9.6317775"><ele>105.0</ele><time>2026-04-12T07:45:32.96Z</time></trkpt><trkpt lat="40.7215607" lon="9.6316971"><ele>105.0</ele><time>2026-04-12T07:45:33.958Z</time></trkpt><trkpt lat="40.7215934" lon="9.6315659"><ele>105.0</ele><time>2026-04-12T07:45:35.964Z</time></trkpt><trkpt lat="40.7216659" lon="9.6314695"><ele>105.0</ele><time>2026-04-12T07:45:37.965Z</time></trkpt><trkpt lat="40.7217221" lon="9.6313859"><ele>105.0</ele><time>2026-04-12T07:45:39.954Z</time></trkpt><trkpt lat="40.7217709" lon="9.631299"><ele>105.0</ele><time>2026-04-12T07:45:41.95Z</time></trkpt><trkpt lat="40.721842" lon="9.6312447"><ele>105.66666666666667</ele><time>2026-04-12T07:45:43.957Z</time></trkpt><trkpt lat="40.721966" lon="9.6311953"><ele>106.33333333333334</ele><time>2026-04-12T07:45:45.949Z</time></trkpt><trkpt lat="40.722042" lon="9.6311624"><ele>107.0</ele><time>2026-04-12T07:45:46.95Z</time></trkpt><trkpt lat="40.7221144" lon="9.6311279"><ele>107.66666666666667</ele><time>2026-04-12T07:45:47.951Z</time></trkpt><trkpt lat="40.722181" lon="9.6310938"><ele>108.33333333333334</ele><time>2026-04-12T07:45:48.942Z</time></trkpt><trkpt lat="40.7222555" lon="9.6310686"><ele>109.0</ele><time>2026-04-12T07:45:49.947Z</time></trkpt><trkpt lat="40.7223349" lon="9.6310507"><ele>109.00000000000001</ele><time>2026-04-12T07:45:50.947Z</time></trkpt><trkpt lat="40.7224135" lon="9.6310415"><ele>109.0</ele><time>2026-04-12T07:45:51.954Z</time></trkpt><trkpt lat="40.7224891" lon="9.6310298"><ele>109.0</ele><time>2026-04-12T07:45:52.946Z</time></trkpt><trkpt lat="40.7225593" lon="9.6309993"><ele>109.0</ele><time>2026-04-12T07:45:53.944Z</time></trkpt><trkpt lat="40.7226205" lon="9.630962"><ele>109.00000000000001</ele><time>2026-04-12T07:45:54.944Z</time></trkpt><trkpt lat="40.7226787" lon="9.6309284"><ele>109.0</ele><time>2026-04-12T07:45:55.945Z</time></trkpt><trkpt lat="40.7227844" lon="9.630888"><ele>109.83333333333334</ele><time>2026-04-12T07:45:57.96Z</time></trkpt><trkpt lat="40.7228964" lon="9.6308415"><ele>110.66666666666667</ele><time>2026-04-12T07:45:59.936Z</time></trkpt><trkpt lat="40.7229743" lon="9.6307144"><ele>111.5</ele><time>2026-04-12T07:46:01.946Z</time></trkpt><trkpt lat="40.7230011" lon="9.6306383"><ele>112.33333333333334</ele><time>2026-04-12T07:46:02.938Z</time></trkpt><trkpt lat="40.7230283" lon="9.6305529"><ele>113.16666666666667</ele><time>2026-04-12T07:46:03.932Z</time></trkpt><trkpt lat="40.7230474" lon="9.6304614"><ele>114.0</ele><time>2026-04-12T07:46:04.934Z</time></trkpt><trkpt lat="40.7230728" lon="9.6303715"><ele>113.5</ele><time>2026-04-12T07:46:05.94Z</time></trkpt><trkpt lat="40.7230848" lon="9.6302709"><ele>113.0</ele><time>2026-04-12T07:46:06.934Z</time></trkpt><trkpt lat="40.7230918" lon="9.630165"><ele>112.5</ele><time>2026-04-12T07:46:07.928Z</time></trkpt><trkpt lat="40.7230905" lon="9.6300613"><ele>112.0</ele><time>2026-04-12T07:46:08.932Z</time></trkpt><trkpt lat="40.7230866" lon="9.6299765"><ele>111.5</ele><time>2026-04-12T07:46:09.954Z</time></trkpt><trkpt lat="40.7230754" lon="9.6298401"><ele>111.0</ele><time>2026-04-12T07:46:11.936Z</time></trkpt><trkpt lat="40.7230687" lon="9.6297258"><ele>111.0</ele><time>2026-04-12T07:46:13.927Z</time></trkpt><trkpt lat="40.7230737" lon="9.6296283"><ele>111.0</ele><time>2026-04-12T07:46:15.933Z</time></trkpt><trkpt lat="40.7230676" lon="9.6295158"><ele>111.0</ele><time>2026-04-12T07:46:17.941Z</time></trkpt><trkpt lat="40.7230561" lon="9.6294027"><ele>111.0</ele><time>2026-04-12T07:46:20.028Z</time></trkpt><trkpt lat="40.723049" lon="9.629263"><ele>111.0</ele><time>2026-04-12T07:46:21.918Z</time></trkpt><trkpt lat="40.7230425" lon="9.6291286"><ele>111.0</ele><time>2026-04-12T07:46:24.023Z</time></trkpt><trkpt lat="40.7230374" lon="9.6290325"><ele>111.0</ele><time>2026-04-12T07:46:26.016Z</time></trkpt><trkpt lat="40.7230529" lon="9.6289162"><ele>111.0</ele><time>2026-04-12T07:46:28.027Z</time></trkpt><trkpt lat="40.7230529" lon="9.6287973"><ele>111.0</ele><time>2026-04-12T07:46:30.026Z</time></trkpt><trkpt lat="40.7230345" lon="9.6286528"><ele>111.0</ele><time>2026-04-12T07:46:32.017Z</time></trkpt><trkpt lat="40.7229951" lon="9.6285185"><ele>111.5</ele><time>2026-04-12T07:46:34.011Z</time></trkpt><trkpt lat="40.7229632" lon="9.6284405"><ele>112.0</ele><time>2026-04-12T07:46:35.008Z</time></trkpt><trkpt lat="40.722926" lon="9.6282865"><ele>112.5</ele><time>2026-04-12T07:46:37.006Z</time></trkpt><trkpt lat="40.7229207" lon="9.6282002"><ele>113.0</ele><time>2026-04-12T07:46:37.999Z</time></trkpt><trkpt lat="40.7229179" lon="9.628107"><ele>113.5</ele><time>2026-04-12T07:46:38.994Z</time></trkpt><trkpt lat="40.7229154" lon="9.6280157"><ele>114.0</ele><time>2026-04-12T07:46:40.005Z</time></trkpt><trkpt lat="40.7229035" lon="9.6279227"><ele>114.0</ele><time>2026-04-12T07:46:40.995Z</time></trkpt><trkpt lat="40.7228913" lon="9.6278358"><ele>114.0</ele><time>2026-04-12T07:46:41.998Z</time></trkpt><trkpt lat="40.7228648" lon="9.6276708"><ele>114.0</ele><time>2026-04-12T07:46:44.002Z</time></trkpt><trkpt lat="40.7228501" lon="9.6275724"><ele>114.0</ele><time>2026-04-12T07:46:44.991Z</time></trkpt><trkpt lat="40.7228392" lon="9.6274776"><ele>114.0</ele><time>2026-04-12T07:46:45.995Z</time></trkpt><trkpt lat="40.7228325" lon="9.6273936"><ele>114.0</ele><time>2026-04-12T07:46:47.01Z</time></trkpt><trkpt lat="40.7228407" lon="9.6272391"><ele>114.4</ele><time>2026-04-12T07:46:48.99Z</time></trkpt><trkpt lat="40.7229066" lon="9.6270772"><ele>114.80000000000001</ele><time>2026-04-12T07:46:50.989Z</time></trkpt><trkpt lat="40.7229642" lon="9.6269936"><ele>115.19999999999999</ele><time>2026-04-12T07:46:51.991Z</time></trkpt><trkpt lat="40.7230213" lon="9.6269242"><ele>115.6</ele><time>2026-04-12T07:46:52.989Z</time></trkpt><trkpt lat="40.7230725" lon="9.6268569"><ele>116.0</ele><time>2026-04-12T07:46:54.015Z</time></trkpt><trkpt lat="40.7231342" lon="9.6267957"><ele>115.99999999999999</ele><time>2026-04-12T07:46:54.991Z</time></trkpt><trkpt lat="40.7232071" lon="9.6267424"><ele>116.0</ele><time>2026-04-12T07:46:55.979Z</time></trkpt><trkpt lat="40.7232823" lon="9.6266911"><ele>116.0</ele><time>2026-04-12T07:46:56.984Z</time></trkpt><trkpt lat="40.7233525" lon="9.6266361"><ele>116.0</ele><time>2026-04-12T07:46:57.985Z</time></trkpt><trkpt lat="40.7234167" lon="9.6265803"><ele>115.99999999999999</ele><time>2026-04-12T07:46:58.983Z</time></trkpt><trkpt lat="40.7234707" lon="9.6265223"><ele>116.0</ele><time>2026-04-12T07:46:59.979Z</time></trkpt><trkpt lat="40.7235589" lon="9.6264184"><ele>120.0</ele><time>2026-04-12T07:47:01.984Z</time></trkpt><trkpt lat="40.7236698" lon="9.6263079"><ele>124.0</ele><time>2026-04-12T07:47:03.993Z</time></trkpt><trkpt lat="40.7237177" lon="9.6262354"><ele>128.0</ele><time>2026-04-12T07:47:04.979Z</time></trkpt><trkpt lat="40.7237465" lon="9.6261604"><ele>132.0</ele><time>2026-04-12T07:47:05.98Z</time></trkpt><trkpt lat="40.7237825" lon="9.6259997"><ele>136.0</ele><time>2026-04-12T07:47:07.974Z</time></trkpt><trkpt lat="40.7237744" lon="9.6258187"><ele>136.16666666666669</ele><time>2026-04-12T07:47:09.995Z</time></trkpt><trkpt lat="40.7237565" lon="9.6257152"><ele>136.33333333333334</ele><time>2026-04-12T07:47:10.973Z</time></trkpt><trkpt lat="40.7237404" lon="9.625609"><ele>136.5</ele><time>2026-04-12T07:47:11.974Z</time></trkpt><trkpt lat="40.7237239" lon="9.6255185"><ele>136.66666666666666</ele><time>2026-04-12T07:47:12.974Z</time></trkpt><trkpt lat="40.7237033" lon="9.6254288"><ele>136.83333333333331</ele><time>2026-04-12T07:47:13.986Z</time></trkpt><trkpt lat="40.7236899" lon="9.6253473"><ele>137.0</ele><time>2026-04-12T07:47:14.987Z</time></trkpt><trkpt lat="40.7236736" lon="9.6251921"><ele>137.79999999999998</ele><time>2026-04-12T07:47:16.965Z</time></trkpt><trkpt lat="40.7236593" lon="9.6250356"><ele>138.6</ele><time>2026-04-12T07:47:18.973Z</time></trkpt><trkpt lat="40.7236167" lon="9.6248965"><ele>139.39999999999998</ele><time>2026-04-12T07:47:20.971Z</time></trkpt><trkpt lat="40.7235958" lon="9.6248045"><ele>140.2</ele><time>2026-04-12T07:47:21.968Z</time></trkpt><trkpt lat="40.7235839" lon="9.6246968"><ele>141.0</ele><time>2026-04-12T07:47:22.968Z</time></trkpt><trkpt lat="40.7235798" lon="9.6245802"><ele>140.33333333333334</ele><time>2026-04-12T07:47:23.973Z</time></trkpt><trkpt lat="40.7235795" lon="9.6244682"><ele>139.66666666666666</ele><time>2026-04-12T07:47:24.96Z</time></trkpt><trkpt lat="40.7235789" lon="9.6243661"><ele>139.0</ele><time>2026-04-12T07:47:25.965Z</time></trkpt><trkpt lat="40.7235964" lon="9.6242296"><ele>138.33333333333331</ele><time>2026-04-12T07:47:27.967Z</time></trkpt><trkpt lat="40.723654" lon="9.62417"><ele>137.66666666666666</ele><time>2026-04-12T07:47:29.962Z</time></trkpt><trkpt lat="40.7237496" lon="9.6241735"><ele>137.0</ele><time>2026-04-12T07:47:31.957Z</time></trkpt><trkpt lat="40.7238659" lon="9.6241984"><ele>137.0</ele><time>2026-04-12T07:47:33.962Z</time></trkpt><trkpt lat="40.7239542" lon="9.6241824"><ele>137.0</ele><time>2026-04-12T07:47:35.948Z</time></trkpt><trkpt lat="40.7240388" lon="9.6241899"><ele>137.0</ele><time>2026-04-12T07:47:37.971Z</time></trkpt><trkpt lat="40.7241358" lon="9.6241834"><ele>137.0</ele><time>2026-04-12T07:47:39.946Z</time></trkpt><trkpt lat="40.7242315" lon="9.624179"><ele>137.0</ele><time>2026-04-12T07:47:41.958Z</time></trkpt><trkpt lat="40.7243086" lon="9.6241912"><ele>137.0</ele><time>2026-04-12T07:47:43.946Z</time></trkpt><trkpt lat="40.7243781" lon="9.6242073"><ele>141.5</ele><time>2026-04-12T07:47:45.94Z</time></trkpt><trkpt lat="40.724443" lon="9.6242157"><ele>146.0</ele><time>2026-04-12T07:50:55.974Z</time></trkpt><trkpt lat="40.7245255" lon="9.6241782"><ele>150.5</ele><time>2026-04-12T07:50:58.966Z</time></trkpt><trkpt lat="40.7245869" lon="9.6241361"><ele>155.0</ele><time>2026-04-12T07:51:00.975Z</time></trkpt><trkpt lat="40.7246454" lon="9.6240669"><ele>159.5</ele><time>2026-04-12T07:51:02.96Z</time></trkpt><trkpt lat="40.7246923" lon="9.6239744"><ele>164.0</ele><time>2026-04-12T07:51:04.954Z</time></trkpt><trkpt lat="40.7247457" lon="9.6238848"><ele>164.0</ele><time>2026-04-12T07:51:06.955Z</time></trkpt><trkpt lat="40.724798" lon="9.6237958"><ele>164.0</ele><time>2026-04-12T07:51:08.942Z</time></trkpt><trkpt lat="40.7248281" lon="9.623719"><ele>164.0</ele><time>2026-04-12T07:51:10.944Z</time></trkpt><trkpt lat="40.7248568" lon="9.6236193"><ele>164.0</ele><time>2026-04-12T07:51:12.961Z</time></trkpt><trkpt lat="40.7249301" lon="9.6235416"><ele>164.0</ele><time>2026-04-12T07:51:14.964Z</time></trkpt><trkpt lat="40.7249985" lon="9.623521"><ele>164.0</ele><time>2026-04-12T07:51:15.945Z</time></trkpt><trkpt lat="40.7250767" lon="9.6234963"><ele>162.79999999999998</ele><time>2026-04-12T07:51:16.937Z</time></trkpt><trkpt lat="40.7251562" lon="9.623479"><ele>161.6</ele><time>2026-04-12T07:51:17.938Z</time></trkpt><trkpt lat="40.7252697" lon="9.6235227"><ele>160.4</ele><time>2026-04-12T07:51:19.943Z</time></trkpt><trkpt lat="40.7253419" lon="9.6235662"><ele>159.2</ele><time>2026-04-12T07:51:20.959Z</time></trkpt><trkpt lat="40.7254536" lon="9.6235958"><ele>158.0</ele><time>2026-04-12T07:51:22.936Z</time></trkpt><trkpt lat="40.7255223" lon="9.6236478"><ele>159.2</ele><time>2026-04-12T07:51:24.945Z</time></trkpt><trkpt lat="40.7255168" lon="9.6237466"><ele>160.4</ele><time>2026-04-12T07:51:26.929Z</time></trkpt><trkpt lat="40.7254339" lon="9.623833"><ele>161.6</ele><time>2026-04-12T07:51:28.931Z</time></trkpt><trkpt lat="40.7253455" lon="9.623868"><ele>162.79999999999998</ele><time>2026-04-12T07:51:29.924Z</time></trkpt><trkpt lat="40.7252662" lon="9.6238989"><ele>164.0</ele><time>2026-04-12T07:51:30.921Z</time></trkpt><trkpt lat="40.7251555" lon="9.6239584"><ele>164.0</ele><time>2026-04-12T07:51:32.923Z</time></trkpt><trkpt lat="40.7250995" lon="9.6240021"><ele>164.0</ele><time>2026-04-12T07:51:33.916Z</time></trkpt><trkpt lat="40.7250257" lon="9.6241202"><ele>164.0</ele><time>2026-04-12T07:51:36.016Z</time></trkpt><trkpt lat="40.7249931" lon="9.6242666"><ele>164.0</ele><time>2026-04-12T07:51:38.019Z</time></trkpt><trkpt lat="40.7249748" lon="9.6244345"><ele>164.0</ele><time>2026-04-12T07:51:40.022Z</time></trkpt><trkpt lat="40.7249744" lon="9.6245269"><ele>165.33333333333331</ele><time>2026-04-12T07:51:41.012Z</time></trkpt><trkpt lat="40.7249755" lon="9.624625"><ele>166.66666666666666</ele><time>2026-04-12T07:51:42.027Z</time></trkpt><trkpt lat="40.7249794" lon="9.624727"><ele>168.0</ele><time>2026-04-12T07:51:43.013Z</time></trkpt><trkpt lat="40.7249867" lon="9.6248201"><ele>169.33333333333334</ele><time>2026-04-12T07:51:44.004Z</time></trkpt><trkpt lat="40.7249909" lon="9.6249147"><ele>170.66666666666669</ele><time>2026-04-12T07:51:45.006Z</time></trkpt><trkpt lat="40.7250047" lon="9.6250162"><ele>172.0</ele><time>2026-04-12T07:51:46.009Z</time></trkpt><trkpt lat="40.7250178" lon="9.6251174"><ele>172.0</ele><time>2026-04-12T07:51:47.001Z</time></trkpt><trkpt lat="40.7250363" lon="9.6252331"><ele>172.0</ele><time>2026-04-12T07:51:48.011Z</time></trkpt><trkpt lat="40.7250528" lon="9.6253334"><ele>172.0</ele><time>2026-04-12T07:51:49.013Z</time></trkpt><trkpt lat="40.7250691" lon="9.6254446"><ele>172.0</ele><time>2026-04-12T07:51:50.003Z</time></trkpt><trkpt lat="40.7250832" lon="9.625551"><ele>172.0</ele><time>2026-04-12T07:51:50.998Z</time></trkpt><trkpt lat="40.7251023" lon="9.62565"><ele>172.0</ele><time>2026-04-12T07:51:52.008Z</time></trkpt><trkpt lat="40.7251205" lon="9.6257467"><ele>171.83333333333334</ele><time>2026-04-12T07:51:53.007Z</time></trkpt><trkpt lat="40.72514" lon="9.6258442"><ele>171.66666666666669</ele><time>2026-04-12T07:51:54.003Z</time></trkpt><trkpt lat="40.7251586" lon="9.6259401"><ele>171.5</ele><time>2026-04-12T07:51:55.004Z</time></trkpt><trkpt lat="40.7251788" lon="9.6260353"><ele>171.33333333333334</ele><time>2026-04-12T07:51:56.01Z</time></trkpt><trkpt lat="40.725199" lon="9.6261343"><ele>171.16666666666666</ele><time>2026-04-12T07:51:56.999Z</time></trkpt><trkpt lat="40.7252191" lon="9.6262285"><ele>171.0</ele><time>2026-04-12T07:51:57.992Z</time></trkpt><trkpt lat="40.7252403" lon="9.6263276"><ele>173.0</ele><time>2026-04-12T07:51:59.002Z</time></trkpt><trkpt lat="40.7252707" lon="9.6264234"><ele>175.0</ele><time>2026-04-12T07:52:00.005Z</time></trkpt><trkpt lat="40.7253005" lon="9.6265045"><ele>177.0</ele><time>2026-04-12T07:52:01.034Z</time></trkpt><trkpt lat="40.7253675" lon="9.6266393"><ele>179.0</ele><time>2026-04-12T07:52:02.985Z</time></trkpt><trkpt lat="40.7254586" lon="9.6267342"><ele>181.0</ele><time>2026-04-12T07:52:04.989Z</time></trkpt><trkpt lat="40.7255212" lon="9.6267832"><ele>181.0</ele><time>2026-04-12T07:52:05.991Z</time></trkpt><trkpt lat="40.725593" lon="9.6268331"><ele>181.0</ele><time>2026-04-12T07:52:06.987Z</time></trkpt><trkpt lat="40.7256634" lon="9.6268786"><ele>181.0</ele><time>2026-04-12T07:52:07.989Z</time></trkpt><trkpt lat="40.7257267" lon="9.6269254"><ele>181.0</ele><time>2026-04-12T07:52:08.995Z</time></trkpt><trkpt lat="40.7257885" lon="9.6269759"><ele>181.0</ele><time>2026-04-12T07:52:09.992Z</time></trkpt><trkpt lat="40.7258912" lon="9.6270581"><ele>181.0</ele><time>2026-04-12T07:52:11.985Z</time></trkpt><trkpt lat="40.7259962" lon="9.6271532"><ele>179.0</ele><time>2026-04-12T07:52:13.977Z</time></trkpt><trkpt lat="40.7260558" lon="9.6271908"><ele>177.0</ele><time>2026-04-12T07:52:14.985Z</time></trkpt><trkpt lat="40.726164" lon="9.6272359"><ele>175.0</ele><time>2026-04-12T07:52:17.005Z</time></trkpt><trkpt lat="40.7262789" lon="9.6272931"><ele>173.0</ele><time>2026-04-12T07:52:18.97Z</time></trkpt><trkpt lat="40.7263415" lon="9.6273238"><ele>171.0</ele><time>2026-04-12T07:52:19.972Z</time></trkpt><trkpt lat="40.7264036" lon="9.6273699"><ele>169.0</ele><time>2026-04-12T07:52:20.976Z</time></trkpt><trkpt lat="40.7264592" lon="9.6274262"><ele>169.0</ele><time>2026-04-12T07:52:21.965Z</time></trkpt><trkpt lat="40.7265637" lon="9.6275178"><ele>169.0</ele><time>2026-04-12T07:52:23.964Z</time></trkpt><trkpt lat="40.7266157" lon="9.6275657"><ele>169.0</ele><time>2026-04-12T07:52:24.964Z</time></trkpt><trkpt lat="40.726713" lon="9.6276521"><ele>169.0</ele><time>2026-04-12T07:52:26.958Z</time></trkpt><trkpt lat="40.7268137" lon="9.6277636"><ele>169.0</ele><time>2026-04-12T07:52:28.956Z</time></trkpt><trkpt lat="40.7268684" lon="9.6278298"><ele>167.71428571428572</ele><time>2026-04-12T07:52:29.965Z</time></trkpt><trkpt lat="40.7269249" lon="9.6278908"><ele>166.42857142857142</ele><time>2026-04-12T07:52:30.954Z</time></trkpt><trkpt lat="40.7269776" lon="9.6279468"><ele>165.14285714285714</ele><time>2026-04-12T07:52:31.964Z</time></trkpt><trkpt lat="40.7270286" lon="9.6280011"><ele>163.85714285714286</ele><time>2026-04-12T07:52:32.952Z</time></trkpt><trkpt lat="40.7270828" lon="9.6280556"><ele>162.57142857142858</ele><time>2026-04-12T07:52:33.952Z</time></trkpt><trkpt lat="40.727138" lon="9.6281094"><ele>161.28571428571428</ele><time>2026-04-12T07:52:34.953Z</time></trkpt><trkpt lat="40.7272046" lon="9.628144"><ele>160.0</ele><time>2026-04-12T07:52:35.961Z</time></trkpt><trkpt lat="40.7272729" lon="9.6281768"><ele>160.0</ele><time>2026-04-12T07:52:36.948Z</time></trkpt><trkpt lat="40.7273471" lon="9.6282063"><ele>160.0</ele><time>2026-04-12T07:52:37.952Z</time></trkpt><trkpt lat="40.7274177" lon="9.6282255"><ele>160.0</ele><time>2026-04-12T07:52:38.954Z</time></trkpt><trkpt lat="40.7274944" lon="9.6282448"><ele>160.0</ele><time>2026-04-12T07:52:39.944Z</time></trkpt><trkpt lat="40.7275691" lon="9.6282573"><ele>160.0</ele><time>2026-04-12T07:52:40.936Z</time></trkpt><trkpt lat="40.7276459" lon="9.6282515"><ele>160.0</ele><time>2026-04-12T07:52:41.933Z</time></trkpt><trkpt lat="40.7277319" lon="9.6282343"><ele>158.83333333333334</ele><time>2026-04-12T07:52:42.937Z</time></trkpt><trkpt lat="40.7278109" lon="9.6282173"><ele>157.66666666666669</ele><time>2026-04-12T07:52:43.941Z</time></trkpt><trkpt lat="40.7278835" lon="9.6281952"><ele>156.5</ele><time>2026-04-12T07:52:44.935Z</time></trkpt><trkpt lat="40.7279548" lon="9.628171"><ele>155.33333333333334</ele><time>2026-04-12T07:52:45.942Z</time></trkpt><trkpt lat="40.7280286" lon="9.6281301"><ele>154.16666666666666</ele><time>2026-04-12T07:52:46.934Z</time></trkpt><trkpt lat="40.7280978" lon="9.6280806"><ele>153.0</ele><time>2026-04-12T07:52:47.93Z</time></trkpt><trkpt lat="40.7281617" lon="9.6280293"><ele>153.0</ele><time>2026-04-12T07:52:48.946Z</time></trkpt><trkpt lat="40.7282712" lon="9.6279323"><ele>153.0</ele><time>2026-04-12T07:52:50.935Z</time></trkpt><trkpt lat="40.7283178" lon="9.6278623"><ele>153.0</ele><time>2026-04-12T07:52:51.936Z</time></trkpt><trkpt lat="40.728358" lon="9.6277838"><ele>153.0</ele><time>2026-04-12T07:52:52.945Z</time></trkpt><trkpt lat="40.728395" lon="9.6276905"><ele>153.0</ele><time>2026-04-12T07:52:53.925Z</time></trkpt><trkpt lat="40.7284313" lon="9.6275961"><ele>153.0</ele><time>2026-04-12T07:52:54.918Z</time></trkpt><trkpt lat="40.728471" lon="9.6275042"><ele>154.5</ele><time>2026-04-12T07:52:55.922Z</time></trkpt><trkpt lat="40.7285107" lon="9.6274091"><ele>156.0</ele><time>2026-04-12T07:52:56.917Z</time></trkpt><trkpt lat="40.7285533" lon="9.627319"><ele>157.5</ele><time>2026-04-12T07:52:58.013Z</time></trkpt><trkpt lat="40.7286015" lon="9.6272331"><ele>159.0</ele><time>2026-04-12T07:52:59.013Z</time></trkpt><trkpt lat="40.7286373" lon="9.6271574"><ele>160.5</ele><time>2026-04-12T07:53:00.017Z</time></trkpt><trkpt lat="40.7286689" lon="9.6270846"><ele>162.0</ele><time>2026-04-12T07:53:01.017Z</time></trkpt><trkpt lat="40.7287182" lon="9.62695"><ele>162.0</ele><time>2026-04-12T07:53:03.023Z</time></trkpt><trkpt lat="40.7287707" lon="9.6267978"><ele>162.0</ele><time>2026-04-12T07:53:05.013Z</time></trkpt><trkpt lat="40.7288013" lon="9.6267243"><ele>162.0</ele><time>2026-04-12T07:53:06.006Z</time></trkpt><trkpt lat="40.7288546" lon="9.6265808"><ele>162.0</ele><time>2026-04-12T07:53:08.01Z</time></trkpt><trkpt lat="40.7289331" lon="9.6264832"><ele>162.0</ele><time>2026-04-12T07:53:10.009Z</time></trkpt><trkpt lat="40.7290493" lon="9.626458"><ele>162.0</ele><time>2026-04-12T07:53:12.012Z</time></trkpt><trkpt lat="40.7291409" lon="9.6265064"><ele>162.0</ele><time>2026-04-12T07:53:13.997Z</time></trkpt><trkpt lat="40.7291908" lon="9.6266264"><ele>162.0</ele><time>2026-04-12T07:53:15.993Z</time></trkpt><trkpt lat="40.7292007" lon="9.626713"><ele>162.0</ele><time>2026-04-12T07:53:16.993Z</time></trkpt><trkpt lat="40.729208" lon="9.6268093"><ele>162.0</ele><time>2026-04-12T07:53:17.994Z</time></trkpt><trkpt lat="40.7292218" lon="9.6269211"><ele>162.0</ele><time>2026-04-12T07:53:18.995Z</time></trkpt><trkpt lat="40.7292316" lon="9.6270435"><ele>162.33333333333334</ele><time>2026-04-12T07:53:20.001Z</time></trkpt><trkpt lat="40.7292431" lon="9.6271733"><ele>162.66666666666666</ele><time>2026-04-12T07:53:20.993Z</time></trkpt><trkpt lat="40.7292555" lon="9.6272941"><ele>163.0</ele><time>2026-04-12T07:53:21.988Z</time></trkpt><trkpt lat="40.7292595" lon="9.6273975"><ele>163.33333333333331</ele><time>2026-04-12T07:53:22.989Z</time></trkpt><trkpt lat="40.7292639" lon="9.6275094"><ele>163.66666666666666</ele><time>2026-04-12T07:53:23.986Z</time></trkpt><trkpt lat="40.7292689" lon="9.6276272"><ele>164.0</ele><time>2026-04-12T07:53:24.998Z</time></trkpt><trkpt lat="40.729268" lon="9.6277462"><ele>164.16666666666666</ele><time>2026-04-12T07:53:25.997Z</time></trkpt><trkpt lat="40.7292686" lon="9.6278468"><ele>164.33333333333331</ele><time>2026-04-12T07:53:26.989Z</time></trkpt><trkpt lat="40.7292666" lon="9.6279549"><ele>164.5</ele><time>2026-04-12T07:53:27.993Z</time></trkpt><trkpt lat="40.729268" lon="9.6280616"><ele>164.66666666666666</ele><time>2026-04-12T07:53:28.98Z</time></trkpt><trkpt lat="40.7292672" lon="9.6281675"><ele>164.83333333333334</ele><time>2026-04-12T07:53:29.997Z</time></trkpt><trkpt lat="40.7292688" lon="9.6282671"><ele>165.0</ele><time>2026-04-12T07:53:30.996Z</time></trkpt><trkpt lat="40.7292716" lon="9.6283586"><ele>165.0</ele><time>2026-04-12T07:53:31.978Z</time></trkpt><trkpt lat="40.7292747" lon="9.6284508"><ele>165.0</ele><time>2026-04-12T07:53:32.992Z</time></trkpt><trkpt lat="40.7292848" lon="9.6285382"><ele>165.0</ele><time>2026-04-12T07:53:33.987Z</time></trkpt><trkpt lat="40.7293218" lon="9.6286686"><ele>165.0</ele><time>2026-04-12T07:53:35.974Z</time></trkpt><trkpt lat="40.7293944" lon="9.6287887"><ele>165.0</ele><time>2026-04-12T07:53:37.976Z</time></trkpt><trkpt lat="40.7294394" lon="9.628848"><ele>165.0</ele><time>2026-04-12T07:53:38.968Z</time></trkpt><trkpt lat="40.7294867" lon="9.6289042"><ele>167.66666666666666</ele><time>2026-04-12T07:53:39.971Z</time></trkpt><trkpt lat="40.7295431" lon="9.6289662"><ele>170.33333333333334</ele><time>2026-04-12T07:53:40.972Z</time></trkpt><trkpt lat="40.7295975" lon="9.6290176"><ele>173.0</ele><time>2026-04-12T07:53:41.979Z</time></trkpt><trkpt lat="40.7296627" lon="9.6290723"><ele>175.66666666666669</ele><time>2026-04-12T07:53:42.964Z</time></trkpt><trkpt lat="40.7297309" lon="9.6291301"><ele>178.33333333333334</ele><time>2026-04-12T07:53:43.974Z</time></trkpt><trkpt lat="40.7297975" lon="9.6291935"><ele>181.0</ele><time>2026-04-12T07:53:44.957Z</time></trkpt><trkpt lat="40.7298551" lon="9.6292505"><ele>181.0</ele><time>2026-04-12T07:53:45.965Z</time></trkpt><trkpt lat="40.7299536" lon="9.6293244"><ele>181.0</ele><time>2026-04-12T07:53:47.956Z</time></trkpt><trkpt lat="40.7300493" lon="9.6294094"><ele>181.0</ele><time>2026-04-12T07:53:49.973Z</time></trkpt><trkpt lat="40.7301375" lon="9.629546"><ele>181.0</ele><time>2026-04-12T07:53:51.953Z</time></trkpt><trkpt lat="40.73018" lon="9.6296384"><ele>181.0</ele><time>2026-04-12T07:53:52.954Z</time></trkpt><trkpt lat="40.7302228" lon="9.6297324"><ele>183.66666666666669</ele><time>2026-04-12T07:53:53.95Z</time></trkpt><trkpt lat="40.7302706" lon="9.6298138"><ele>186.33333333333334</ele><time>2026-04-12T07:53:54.944Z</time></trkpt><trkpt lat="40.7303192" lon="9.629873"><ele>189.0</ele><time>2026-04-12T07:53:55.956Z</time></trkpt><trkpt lat="40.7304392" lon="9.6299603"><ele>191.66666666666669</ele><time>2026-04-12T07:53:57.947Z</time></trkpt><trkpt lat="40.730513" lon="9.629996"><ele>194.33333333333334</ele><time>2026-04-12T07:53:58.951Z</time></trkpt><trkpt lat="40.7305783" lon="9.6300366"><ele>197.0</ele><time>2026-04-12T07:53:59.935Z</time></trkpt><trkpt lat="40.730656" lon="9.6301516"><ele>197.0</ele><time>2026-04-12T07:54:01.95Z</time></trkpt><trkpt lat="40.7306725" lon="9.6302333"><ele>197.0</ele><time>2026-04-12T07:54:02.945Z</time></trkpt><trkpt lat="40.7306888" lon="9.6303251"><ele>197.0</ele><time>2026-04-12T07:54:03.938Z</time></trkpt><trkpt lat="40.7307093" lon="9.6304344"><ele>197.0</ele><time>2026-04-12T07:54:04.944Z</time></trkpt><trkpt lat="40.7307327" lon="9.6305429"><ele>197.0</ele><time>2026-04-12T07:54:05.95Z</time></trkpt><trkpt lat="40.730755" lon="9.6306328"><ele>197.0</ele><time>2026-04-12T07:54:06.941Z</time></trkpt><trkpt lat="40.7307716" lon="9.6307186"><ele>197.0</ele><time>2026-04-12T07:54:07.935Z</time></trkpt><trkpt lat="40.7307989" lon="9.6308053"><ele>196.83333333333334</ele><time>2026-04-12T07:54:08.945Z</time></trkpt><trkpt lat="40.7308319" lon="9.630893"><ele>196.66666666666669</ele><time>2026-04-12T07:54:09.944Z</time></trkpt><trkpt lat="40.7308691" lon="9.6309725"><ele>196.5</ele><time>2026-04-12T07:54:10.936Z</time></trkpt><trkpt lat="40.7309043" lon="9.6310486"><ele>196.33333333333331</ele><time>2026-04-12T07:54:11.932Z</time></trkpt><trkpt lat="40.7309761" lon="9.6311891"><ele>196.16666666666666</ele><time>2026-04-12T07:54:13.944Z</time></trkpt><trkpt lat="40.7310129" lon="9.631268"><ele>196.0</ele><time>2026-04-12T07:54:14.935Z</time></trkpt><trkpt lat="40.7310416" lon="9.6313533"><ele>197.16666666666666</ele><time>2026-04-12T07:54:15.927Z</time></trkpt><trkpt lat="40.7310704" lon="9.6314371"><ele>198.33333333333331</ele><time>2026-04-12T07:54:16.936Z</time></trkpt><trkpt lat="40.7310993" lon="9.6315217"><ele>199.5</ele><time>2026-04-12T07:54:17.929Z</time></trkpt><trkpt lat="40.7311287" lon="9.6316081"><ele>200.66666666666669</ele><time>2026-04-12T07:54:18.927Z</time></trkpt><trkpt lat="40.7311593" lon="9.6316943"><ele>201.83333333333334</ele><time>2026-04-12T07:54:19.928Z</time></trkpt><trkpt lat="40.7311968" lon="9.6317679"><ele>203.0</ele><time>2026-04-12T07:54:20.927Z</time></trkpt><trkpt lat="40.7312726" lon="9.6318633"><ele>203.00000000000003</ele><time>2026-04-12T07:54:22.945Z</time></trkpt><trkpt lat="40.7313487" lon="9.6318997"><ele>203.0</ele><time>2026-04-12T07:54:24.952Z</time></trkpt><trkpt lat="40.7314568" lon="9.6319567"><ele>203.0</ele><time>2026-04-12T07:54:26.923Z</time></trkpt><trkpt lat="40.7315224" lon="9.6319911"><ele>203.0</ele><time>2026-04-12T07:54:27.921Z</time></trkpt><trkpt lat="40.7315933" lon="9.6320254"><ele>203.00000000000003</ele><time>2026-04-12T07:54:28.92Z</time></trkpt><trkpt lat="40.7316692" lon="9.6320614"><ele>203.0</ele><time>2026-04-12T07:54:29.923Z</time></trkpt><trkpt lat="40.7317384" lon="9.6320997"><ele>200.83333333333334</ele><time>2026-04-12T07:54:31.035Z</time></trkpt><trkpt lat="40.731858" lon="9.6321654"><ele>198.66666666666669</ele><time>2026-04-12T07:54:32.921Z</time></trkpt><trkpt lat="40.7319215" lon="9.6321953"><ele>196.5</ele><time>2026-04-12T07:54:33.924Z</time></trkpt><trkpt lat="40.7319829" lon="9.6322289"><ele>194.33333333333334</ele><time>2026-04-12T07:54:35.022Z</time></trkpt><trkpt lat="40.7320411" lon="9.6322612"><ele>192.16666666666669</ele><time>2026-04-12T07:54:36.036Z</time></trkpt><trkpt lat="40.7321309" lon="9.6323482"><ele>190.0</ele><time>2026-04-12T07:54:38.013Z</time></trkpt><trkpt lat="40.7322078" lon="9.6324255"><ele>189.2</ele><time>2026-04-12T07:54:40.034Z</time></trkpt><trkpt lat="40.7322925" lon="9.6324935"><ele>188.4</ele><time>2026-04-12T07:54:42.004Z</time></trkpt><trkpt lat="40.7323761" lon="9.6325991"><ele>187.60000000000002</ele><time>2026-04-12T07:54:44.011Z</time></trkpt><trkpt lat="40.7324243" lon="9.6327144"><ele>186.8</ele><time>2026-04-12T07:54:46.019Z</time></trkpt><trkpt lat="40.7324297" lon="9.6328309"><ele>186.0</ele><time>2026-04-12T07:54:48.011Z</time></trkpt><trkpt lat="40.7323853" lon="9.6329719"><ele>183.60000000000002</ele><time>2026-04-12T07:54:49.998Z</time></trkpt><trkpt lat="40.732355" lon="9.6330461"><ele>181.2</ele><time>2026-04-12T07:54:51.003Z</time></trkpt><trkpt lat="40.7323088" lon="9.6331827"><ele>178.8</ele><time>2026-04-12T07:54:53.004Z</time></trkpt><trkpt lat="40.7323052" lon="9.6333118"><ele>176.39999999999998</ele><time>2026-04-12T07:54:55.004Z</time></trkpt><trkpt lat="40.7323514" lon="9.6334589"><ele>174.0</ele><time>2026-04-12T07:54:57.001Z</time></trkpt><trkpt lat="40.7323946" lon="9.6335881"><ele>172.66666666666666</ele><time>2026-04-12T07:54:58.997Z</time></trkpt><trkpt lat="40.7324532" lon="9.6336631"><ele>171.33333333333334</ele><time>2026-04-12T07:55:01.007Z</time></trkpt><trkpt lat="40.7325457" lon="9.6337028"><ele>170.0</ele><time>2026-04-12T07:55:03.001Z</time></trkpt><trkpt lat="40.7326131" lon="9.6337697"><ele>168.66666666666669</ele><time>2026-04-12T07:55:04.999Z</time></trkpt><trkpt lat="40.732607" lon="9.6338961"><ele>167.33333333333334</ele><time>2026-04-12T07:55:06.988Z</time></trkpt><trkpt lat="40.7325803" lon="9.6339951"><ele>166.0</ele><time>2026-04-12T07:55:07.995Z</time></trkpt><trkpt lat="40.7325572" lon="9.6341049"><ele>166.0</ele><time>2026-04-12T07:55:08.994Z</time></trkpt><trkpt lat="40.7325404" lon="9.6342059"><ele>166.0</ele><time>2026-04-12T07:55:09.984Z</time></trkpt><trkpt lat="40.732521" lon="9.6342909"><ele>166.0</ele><time>2026-04-12T07:55:10.986Z</time></trkpt><trkpt lat="40.7325003" lon="9.6343731"><ele>166.0</ele><time>2026-04-12T07:55:11.99Z</time></trkpt><trkpt lat="40.7324718" lon="9.6344582"><ele>166.0</ele><time>2026-04-12T07:55:12.992Z</time></trkpt><trkpt lat="40.732438" lon="9.6345483"><ele>166.0</ele><time>2026-04-12T07:55:14.023Z</time></trkpt><trkpt lat="40.7324007" lon="9.6346297"><ele>166.0</ele><time>2026-04-12T07:55:15.009Z</time></trkpt><trkpt lat="40.7323634" lon="9.6347098"><ele>165.0</ele><time>2026-04-12T07:55:15.993Z</time></trkpt><trkpt lat="40.7323243" lon="9.6347935"><ele>164.0</ele><time>2026-04-12T07:55:16.987Z</time></trkpt><trkpt lat="40.73228" lon="9.6348685"><ele>163.0</ele><time>2026-04-12T07:55:18.013Z</time></trkpt><trkpt lat="40.73224" lon="9.6349374"><ele>162.0</ele><time>2026-04-12T07:55:18.979Z</time></trkpt><trkpt lat="40.73219" lon="9.635088"><ele>161.0</ele><time>2026-04-12T07:55:20.975Z</time></trkpt><trkpt lat="40.7321561" lon="9.6352388"><ele>160.75</ele><time>2026-04-12T07:55:22.979Z</time></trkpt><trkpt lat="40.7321427" lon="9.6354012"><ele>160.5</ele><time>2026-04-12T07:55:24.988Z</time></trkpt><trkpt lat="40.7321589" lon="9.6355745"><ele>160.25</ele><time>2026-04-12T07:55:26.98Z</time></trkpt><trkpt lat="40.7321974" lon="9.6357314"><ele>160.0</ele><time>2026-04-12T07:55:28.987Z</time></trkpt><trkpt lat="40.732214" lon="9.6358203"><ele>160.0</ele><time>2026-04-12T07:55:29.97Z</time></trkpt><trkpt lat="40.7322178" lon="9.6359082"><ele>160.0</ele><time>2026-04-12T07:55:30.963Z</time></trkpt><trkpt lat="40.7322035" lon="9.6359919"><ele>160.0</ele><time>2026-04-12T07:55:31.957Z</time></trkpt><trkpt lat="40.7321769" lon="9.6360834"><ele>160.0</ele><time>2026-04-12T07:55:32.958Z</time></trkpt><trkpt lat="40.7321432" lon="9.6361934"><ele>160.0</ele><time>2026-04-12T07:55:33.961Z</time></trkpt><trkpt lat="40.732106" lon="9.6362811"><ele>160.0</ele><time>2026-04-12T07:55:34.963Z</time></trkpt><trkpt lat="40.7320615" lon="9.6363512"><ele>160.0</ele><time>2026-04-12T07:55:35.964Z</time></trkpt><trkpt lat="40.7319637" lon="9.6364353"><ele>157.2</ele><time>2026-04-12T07:55:37.956Z</time></trkpt><trkpt lat="40.7318434" lon="9.6364826"><ele>154.4</ele><time>2026-04-12T07:55:39.956Z</time></trkpt><trkpt lat="40.7317801" lon="9.6365027"><ele>151.6</ele><time>2026-04-12T07:55:40.96Z</time></trkpt><trkpt lat="40.731677" lon="9.6365687"><ele>148.8</ele><time>2026-04-12T07:55:42.969Z</time></trkpt><trkpt lat="40.7316064" lon="9.6366804"><ele>146.0</ele><time>2026-04-12T07:55:44.96Z</time></trkpt><trkpt lat="40.7315765" lon="9.6367555"><ele>146.0</ele><time>2026-04-12T07:55:45.954Z</time></trkpt><trkpt lat="40.7315401" lon="9.6368435"><ele>146.0</ele><time>2026-04-12T07:55:46.957Z</time></trkpt><trkpt lat="40.7315093" lon="9.6369277"><ele>146.0</ele><time>2026-04-12T07:55:47.948Z</time></trkpt><trkpt lat="40.7314919" lon="9.6370111"><ele>146.0</ele><time>2026-04-12T07:55:48.952Z</time></trkpt><trkpt lat="40.7314959" lon="9.6371645"><ele>146.0</ele><time>2026-04-12T07:55:50.957Z</time></trkpt><trkpt lat="40.7315142" lon="9.6373249"><ele>146.0</ele><time>2026-04-12T07:55:52.959Z</time></trkpt><trkpt lat="40.7315017" lon="9.6374709"><ele>146.0</ele><time>2026-04-12T07:55:54.95Z</time></trkpt><trkpt lat="40.7314455" lon="9.6375817"><ele>146.0</ele><time>2026-04-12T07:55:56.968Z</time></trkpt><trkpt lat="40.7313662" lon="9.6376973"><ele>146.0</ele><time>2026-04-12T07:55:58.941Z</time></trkpt><trkpt lat="40.7313128" lon="9.6378507"><ele>146.0</ele><time>2026-04-12T07:56:00.949Z</time></trkpt><trkpt lat="40.7312971" lon="9.6379603"><ele>146.0</ele><time>2026-04-12T07:56:01.94Z</time></trkpt><trkpt lat="40.7312853" lon="9.6380635"><ele>146.0</ele><time>2026-04-12T07:56:02.941Z</time></trkpt><trkpt lat="40.7312804" lon="9.638166"><ele>146.0</ele><time>2026-04-12T07:56:03.942Z</time></trkpt><trkpt lat="40.7312717" lon="9.6382681"><ele>146.0</ele><time>2026-04-12T07:56:04.949Z</time></trkpt><trkpt lat="40.7312674" lon="9.6383658"><ele>146.0</ele><time>2026-04-12T07:56:05.937Z</time></trkpt><trkpt lat="40.731269" lon="9.6384826"><ele>146.0</ele><time>2026-04-12T07:56:06.94Z</time></trkpt><trkpt lat="40.731261" lon="9.6385931"><ele>146.0</ele><time>2026-04-12T07:56:07.932Z</time></trkpt><trkpt lat="40.7312529" lon="9.638696"><ele>146.0</ele><time>2026-04-12T07:56:08.94Z</time></trkpt><trkpt lat="40.7312361" lon="9.6387874"><ele>146.0</ele><time>2026-04-12T07:56:09.936Z</time></trkpt><trkpt lat="40.7312079" lon="9.6388817"><ele>146.0</ele><time>2026-04-12T07:56:10.936Z</time></trkpt><trkpt lat="40.7311914" lon="9.6389702"><ele>146.0</ele><time>2026-04-12T07:56:11.943Z</time></trkpt><trkpt lat="40.731183" lon="9.6390571"><ele>146.0</ele><time>2026-04-12T07:56:12.942Z</time></trkpt><trkpt lat="40.7311776" lon="9.6391469"><ele>146.0</ele><time>2026-04-12T07:56:13.932Z</time></trkpt><trkpt lat="40.7311795" lon="9.6392661"><ele>146.0</ele><time>2026-04-12T07:56:14.931Z</time></trkpt><trkpt lat="40.7311711" lon="9.6393782"><ele>146.0</ele><time>2026-04-12T07:56:15.929Z</time></trkpt><trkpt lat="40.73116" lon="9.6394718"><ele>146.0</ele><time>2026-04-12T07:56:16.938Z</time></trkpt><trkpt lat="40.7311485" lon="9.6395914"><ele>146.0</ele><time>2026-04-12T07:56:18.935Z</time></trkpt><trkpt lat="40.7311393" lon="9.6397053"><ele>146.0</ele><time>2026-04-12T07:56:20.948Z</time></trkpt><trkpt lat="40.7311351" lon="9.6398563"><ele>146.0</ele><time>2026-04-12T07:56:22.936Z</time></trkpt><trkpt lat="40.7311398" lon="9.6399441"><ele>146.0</ele><time>2026-04-12T07:56:23.929Z</time></trkpt><trkpt lat="40.731153" lon="9.640036"><ele>146.0</ele><time>2026-04-12T07:56:24.935Z</time></trkpt><trkpt lat="40.7311536" lon="9.6401395"><ele>146.0</ele><time>2026-04-12T07:56:25.922Z</time></trkpt><trkpt lat="40.7311517" lon="9.6402487"><ele>146.0</ele><time>2026-04-12T07:56:26.922Z</time></trkpt><trkpt lat="40.7311379" lon="9.6403631"><ele>146.0</ele><time>2026-04-12T07:56:27.915Z</time></trkpt><trkpt lat="40.7311198" lon="9.6404783"><ele>146.16666666666666</ele><time>2026-04-12T07:56:28.917Z</time></trkpt><trkpt lat="40.7311006" lon="9.6405769"><ele>146.33333333333331</ele><time>2026-04-12T07:56:29.937Z</time></trkpt><trkpt lat="40.7310868" lon="9.6406718"><ele>146.5</ele><time>2026-04-12T07:56:30.921Z</time></trkpt><trkpt lat="40.7310894" lon="9.6407562"><ele>146.66666666666666</ele><time>2026-04-12T07:56:31.918Z</time></trkpt><trkpt lat="40.7311048" lon="9.6408615"><ele>146.83333333333334</ele><time>2026-04-12T07:56:32.921Z</time></trkpt><trkpt lat="40.7311319" lon="9.640978"><ele>147.0</ele><time>2026-04-12T07:56:33.928Z</time></trkpt><trkpt lat="40.7311557" lon="9.6411143"><ele>145.79999999999998</ele><time>2026-04-12T07:56:34.929Z</time></trkpt><trkpt lat="40.7311787" lon="9.6412543"><ele>144.6</ele><time>2026-04-12T07:56:35.92Z</time></trkpt><trkpt lat="40.7312035" lon="9.64138"><ele>143.39999999999998</ele><time>2026-04-12T07:56:37.017Z</time></trkpt><trkpt lat="40.7312233" lon="9.6414903"><ele>142.2</ele><time>2026-04-12T07:56:38.033Z</time></trkpt><trkpt lat="40.7312365" lon="9.6415938"><ele>141.0</ele><time>2026-04-12T07:56:38.934Z</time></trkpt><trkpt lat="40.7312636" lon="9.6416991"><ele>141.0</ele><time>2026-04-12T07:56:39.945Z</time></trkpt><trkpt lat="40.7313069" lon="9.6418018"><ele>141.0</ele><time>2026-04-12T07:56:41.024Z</time></trkpt><trkpt lat="40.7313556" lon="9.6418906"><ele>141.0</ele><time>2026-04-12T07:56:42.017Z</time></trkpt><trkpt lat="40.7314115" lon="9.6419603"><ele>141.0</ele><time>2026-04-12T07:56:43.023Z</time></trkpt><trkpt lat="40.7314697" lon="9.6420229"><ele>141.0</ele><time>2026-04-12T07:56:44.027Z</time></trkpt><trkpt lat="40.7315371" lon="9.6420757"><ele>141.0</ele><time>2026-04-12T07:56:45.022Z</time></trkpt><trkpt lat="40.7316268" lon="9.6421365"><ele>138.83333333333334</ele><time>2026-04-12T07:56:46.01Z</time></trkpt><trkpt lat="40.7317065" lon="9.6422112"><ele>136.66666666666666</ele><time>2026-04-12T07:56:47.013Z</time></trkpt><trkpt lat="40.731775" lon="9.6422838"><ele>134.5</ele><time>2026-04-12T07:56:48.027Z</time></trkpt><trkpt lat="40.7318408" lon="9.642351"><ele>132.33333333333331</ele><time>2026-04-12T07:56:49.033Z</time></trkpt><trkpt lat="40.7319011" lon="9.6424025"><ele>130.16666666666666</ele><time>2026-04-12T07:56:50.017Z</time></trkpt><trkpt lat="40.7319771" lon="9.6424453"><ele>128.0</ele><time>2026-04-12T07:56:51.006Z</time></trkpt><trkpt lat="40.7320634" lon="9.6424664"><ele>127.2</ele><time>2026-04-12T07:56:52.011Z</time></trkpt><trkpt lat="40.7321597" lon="9.6424599"><ele>126.4</ele><time>2026-04-12T07:56:53.01Z</time></trkpt><trkpt lat="40.7322511" lon="9.6424587"><ele>125.60000000000001</ele><time>2026-04-12T07:56:54.011Z</time></trkpt><trkpt lat="40.7323281" lon="9.6424956"><ele>124.80000000000001</ele><time>2026-04-12T07:56:55.017Z</time></trkpt><trkpt lat="40.7324041" lon="9.6425558"><ele>124.0</ele><time>2026-04-12T07:56:56.013Z</time></trkpt><trkpt lat="40.7324757" lon="9.6426339"><ele>124.0</ele><time>2026-04-12T07:56:57.015Z</time></trkpt><trkpt lat="40.7325679" lon="9.6427074"><ele>124.0</ele><time>2026-04-12T07:56:58.022Z</time></trkpt><trkpt lat="40.7326767" lon="9.6427681"><ele>124.0</ele><time>2026-04-12T07:56:59.01Z</time></trkpt><trkpt lat="40.7327782" lon="9.6428033"><ele>124.0</ele><time>2026-04-12T07:57:00.008Z</time></trkpt><trkpt lat="40.7328512" lon="9.6428163"><ele>124.0</ele><time>2026-04-12T07:57:01.01Z</time></trkpt><trkpt lat="40.7329641" lon="9.6428052"><ele>124.33333333333334</ele><time>2026-04-12T07:57:03.011Z</time></trkpt><trkpt lat="40.7330167" lon="9.6427537"><ele>124.66666666666667</ele><time>2026-04-12T07:57:04.005Z</time></trkpt><trkpt lat="40.7330622" lon="9.6426725"><ele>125.0</ele><time>2026-04-12T07:57:05.026Z</time></trkpt><trkpt lat="40.733113" lon="9.6425844"><ele>125.33333333333334</ele><time>2026-04-12T07:57:06.015Z</time></trkpt><trkpt lat="40.7332002" lon="9.642508"><ele>125.66666666666667</ele><time>2026-04-12T07:57:08.016Z</time></trkpt><trkpt lat="40.7332934" lon="9.642521"><ele>126.0</ele><time>2026-04-12T07:57:10.009Z</time></trkpt><trkpt lat="40.7333374" lon="9.6426349"><ele>124.6</ele><time>2026-04-12T07:57:12.006Z</time></trkpt><trkpt lat="40.7333508" lon="9.642803"><ele>123.19999999999999</ele><time>2026-04-12T07:57:14Z</time></trkpt><trkpt lat="40.7333473" lon="9.6428984"><ele>121.80000000000001</ele><time>2026-04-12T07:57:14.996Z</time></trkpt><trkpt lat="40.733336" lon="9.6429992"><ele>120.4</ele><time>2026-04-12T07:57:16.003Z</time></trkpt><trkpt lat="40.7333233" lon="9.6431055"><ele>119.0</ele><time>2026-04-12T07:57:17.003Z</time></trkpt><trkpt lat="40.7333144" lon="9.6432275"><ele>119.0</ele><time>2026-04-12T07:57:18.007Z</time></trkpt><trkpt lat="40.7333049" lon="9.6433626"><ele>119.0</ele><time>2026-04-12T07:57:18.997Z</time></trkpt><trkpt lat="40.7332909" lon="9.6434928"><ele>119.0</ele><time>2026-04-12T07:57:20.013Z</time></trkpt><trkpt lat="40.7332816" lon="9.643618"><ele>119.0</ele><time>2026-04-12T07:57:20.995Z</time></trkpt><trkpt lat="40.7332745" lon="9.6437446"><ele>119.0</ele><time>2026-04-12T07:57:22.015Z</time></trkpt><trkpt lat="40.7332794" lon="9.6438751"><ele>118.16666666666666</ele><time>2026-04-12T07:57:23Z</time></trkpt><trkpt lat="40.7332947" lon="9.6439945"><ele>117.33333333333333</ele><time>2026-04-12T07:57:24.032Z</time></trkpt><trkpt lat="40.7333065" lon="9.6440926"><ele>116.5</ele><time>2026-04-12T07:57:25.015Z</time></trkpt><trkpt lat="40.7333231" lon="9.6442097"><ele>115.66666666666666</ele><time>2026-04-12T07:57:27.01Z</time></trkpt><trkpt lat="40.7333353" lon="9.6442915"><ele>114.83333333333333</ele><time>2026-04-12T07:57:29.998Z</time></trkpt><trkpt lat="40.7333406" lon="9.6444005"><ele>114.0</ele><time>2026-04-12T07:58:11.977Z</time></trkpt><trkpt lat="40.7332901" lon="9.6445138"><ele>114.0</ele><time>2026-04-12T07:58:14.965Z</time></trkpt><trkpt lat="40.7332201" lon="9.6445684"><ele>114.0</ele><time>2026-04-12T07:58:16.992Z</time></trkpt><trkpt lat="40.7331315" lon="9.6445549"><ele>114.0</ele><time>2026-04-12T07:58:18.974Z</time></trkpt><trkpt lat="40.7330351" lon="9.6444973"><ele>114.0</ele><time>2026-04-12T07:58:20.999Z</time></trkpt><trkpt lat="40.7329262" lon="9.6444366"><ele>114.0</ele><time>2026-04-12T07:58:22.966Z</time></trkpt><trkpt lat="40.7328147" lon="9.6444714"><ele>111.6</ele><time>2026-04-12T07:58:24.985Z</time></trkpt><trkpt lat="40.7327739" lon="9.6446183"><ele>109.2</ele><time>2026-04-12T07:58:26.974Z</time></trkpt><trkpt lat="40.7327769" lon="9.6447113"><ele>106.8</ele><time>2026-04-12T07:58:27.975Z</time></trkpt><trkpt lat="40.7328012" lon="9.6448122"><ele>104.39999999999999</ele><time>2026-04-12T07:58:28.981Z</time></trkpt><trkpt lat="40.7328477" lon="9.6449144"><ele>102.0</ele><time>2026-04-12T07:58:29.964Z</time></trkpt><trkpt lat="40.7328979" lon="9.6450203"><ele>102.0</ele><time>2026-04-12T07:58:30.966Z</time></trkpt><trkpt lat="40.7329464" lon="9.6451269"><ele>102.0</ele><time>2026-04-12T07:58:31.969Z</time></trkpt><trkpt lat="40.7329965" lon="9.6452253"><ele>102.0</ele><time>2026-04-12T07:58:32.975Z</time></trkpt><trkpt lat="40.7330521" lon="9.6453105"><ele>102.0</ele><time>2026-04-12T07:58:33.969Z</time></trkpt><trkpt lat="40.7331171" lon="9.6453759"><ele>102.0</ele><time>2026-04-12T07:58:34.983Z</time></trkpt><trkpt lat="40.7331879" lon="9.6454296"><ele>102.0</ele><time>2026-04-12T07:58:35.962Z</time></trkpt><trkpt lat="40.7332654" lon="9.6454652"><ele>99.6</ele><time>2026-04-12T07:58:36.962Z</time></trkpt><trkpt lat="40.7333433" lon="9.6454638"><ele>97.19999999999999</ele><time>2026-04-12T07:58:37.982Z</time></trkpt><trkpt lat="40.7334441" lon="9.6455123"><ele>94.8</ele><time>2026-04-12T07:58:39.957Z</time></trkpt><trkpt lat="40.7334284" lon="9.6456635"><ele>92.4</ele><time>2026-04-12T07:58:41.956Z</time></trkpt><trkpt lat="40.7334035" lon="9.6457675"><ele>90.0</ele><time>2026-04-12T07:58:42.955Z</time></trkpt><trkpt lat="40.7333707" lon="9.6458842"><ele>90.0</ele><time>2026-04-12T07:58:43.971Z</time></trkpt><trkpt lat="40.7333421" lon="9.6460186"><ele>90.0</ele><time>2026-04-12T07:58:44.957Z</time></trkpt><trkpt lat="40.7333095" lon="9.646143"><ele>90.0</ele><time>2026-04-12T07:58:45.954Z</time></trkpt><trkpt lat="40.7332681" lon="9.6462586"><ele>90.0</ele><time>2026-04-12T07:58:46.959Z</time></trkpt><trkpt lat="40.7332391" lon="9.6463721"><ele>90.0</ele><time>2026-04-12T07:58:47.966Z</time></trkpt><trkpt lat="40.7332357" lon="9.6465024"><ele>88.66666666666667</ele><time>2026-04-12T07:58:48.96Z</time></trkpt><trkpt lat="40.7332424" lon="9.6466256"><ele>87.33333333333333</ele><time>2026-04-12T07:58:49.981Z</time></trkpt><trkpt lat="40.733258" lon="9.6467314"><ele>86.0</ele><time>2026-04-12T07:58:50.957Z</time></trkpt><trkpt lat="40.7332656" lon="9.6468356"><ele>84.66666666666666</ele><time>2026-04-12T07:58:51.969Z</time></trkpt><trkpt lat="40.7332699" lon="9.646936"><ele>83.33333333333333</ele><time>2026-04-12T07:58:52.963Z</time></trkpt><trkpt lat="40.733271" lon="9.6470383"><ele>82.0</ele><time>2026-04-12T07:58:53.959Z</time></trkpt><trkpt lat="40.7332678" lon="9.6471386"><ele>81.71428571428571</ele><time>2026-04-12T07:58:54.966Z</time></trkpt><trkpt lat="40.7332639" lon="9.6472319"><ele>81.42857142857143</ele><time>2026-04-12T07:58:55.96Z</time></trkpt><trkpt lat="40.7332574" lon="9.6473254"><ele>81.14285714285714</ele><time>2026-04-12T07:58:56.962Z</time></trkpt><trkpt lat="40.7332518" lon="9.6474119"><ele>80.85714285714286</ele><time>2026-04-12T07:58:57.953Z</time></trkpt><trkpt lat="40.7332512" lon="9.6474992"><ele>80.57142857142857</ele><time>2026-04-12T07:58:58.96Z</time></trkpt><trkpt lat="40.7332578" lon="9.6475964"><ele>80.28571428571428</ele><time>2026-04-12T07:58:59.952Z</time></trkpt><trkpt lat="40.7332836" lon="9.6476934"><ele>80.0</ele><time>2026-04-12T07:59:00.952Z</time></trkpt><trkpt lat="40.7333206" lon="9.6477845"><ele>79.83333333333334</ele><time>2026-04-12T07:59:01.963Z</time></trkpt><trkpt lat="40.7333721" lon="9.6478675"><ele>79.66666666666667</ele><time>2026-04-12T07:59:02.966Z</time></trkpt><trkpt lat="40.7334348" lon="9.6479355"><ele>79.5</ele><time>2026-04-12T07:59:03.965Z</time></trkpt><trkpt lat="40.7334967" lon="9.6479964"><ele>79.33333333333333</ele><time>2026-04-12T07:59:04.955Z</time></trkpt><trkpt lat="40.7335517" lon="9.6480531"><ele>79.16666666666666</ele><time>2026-04-12T07:59:05.956Z</time></trkpt><trkpt lat="40.7336349" lon="9.6481464"><ele>79.0</ele><time>2026-04-12T07:59:07.954Z</time></trkpt><trkpt lat="40.7336836" lon="9.6482139"><ele>80.6</ele><time>2026-04-12T07:59:09.948Z</time></trkpt><trkpt lat="40.7337568" lon="9.6482727"><ele>82.2</ele><time>2026-04-12T07:59:13.954Z</time></trkpt><trkpt lat="40.733858" lon="9.648242"><ele>83.8</ele><time>2026-04-12T07:59:15.94Z</time></trkpt><trkpt lat="40.7339627" lon="9.6481573"><ele>85.39999999999999</ele><time>2026-04-12T07:59:17.94Z</time></trkpt><trkpt lat="40.7340217" lon="9.6481183"><ele>87.0</ele><time>2026-04-12T07:59:18.941Z</time></trkpt><trkpt lat="40.7340863" lon="9.6480694"><ele>87.0</ele><time>2026-04-12T07:59:19.946Z</time></trkpt><trkpt lat="40.7341568" lon="9.6480217"><ele>87.0</ele><time>2026-04-12T07:59:20.947Z</time></trkpt><trkpt lat="40.7342258" lon="9.6479785"><ele>87.0</ele><time>2026-04-12T07:59:21.938Z</time></trkpt><trkpt lat="40.7343033" lon="9.647939"><ele>87.0</ele><time>2026-04-12T07:59:22.955Z</time></trkpt><trkpt lat="40.734381" lon="9.6479075"><ele>87.0</ele><time>2026-04-12T07:59:23.94Z</time></trkpt><trkpt lat="40.7344649" lon="9.6478772"><ele>87.0</ele><time>2026-04-12T07:59:24.962Z</time></trkpt><trkpt lat="40.7345521" lon="9.6478531"><ele>87.19999999999999</ele><time>2026-04-12T07:59:25.942Z</time></trkpt><trkpt lat="40.7346469" lon="9.6478321"><ele>87.4</ele><time>2026-04-12T07:59:26.937Z</time></trkpt><trkpt lat="40.7347443" lon="9.6478127"><ele>87.6</ele><time>2026-04-12T07:59:27.938Z</time></trkpt><trkpt lat="40.7348373" lon="9.6477876"><ele>87.80000000000001</ele><time>2026-04-12T07:59:28.939Z</time></trkpt><trkpt lat="40.7349273" lon="9.6477664"><ele>88.0</ele><time>2026-04-12T07:59:29.944Z</time></trkpt><trkpt lat="40.7350197" lon="9.6477493"><ele>88.0</ele><time>2026-04-12T07:59:30.938Z</time></trkpt><trkpt lat="40.7351117" lon="9.6477331"><ele>88.0</ele><time>2026-04-12T07:59:31.931Z</time></trkpt><trkpt lat="40.7352047" lon="9.6477203"><ele>88.0</ele><time>2026-04-12T07:59:32.938Z</time></trkpt><trkpt lat="40.7353072" lon="9.6477165"><ele>88.0</ele><time>2026-04-12T07:59:33.947Z</time></trkpt><trkpt lat="40.7354168" lon="9.6477182"><ele>88.0</ele><time>2026-04-12T07:59:34.937Z</time></trkpt><trkpt lat="40.73553" lon="9.6477166"><ele>90.0</ele><time>2026-04-12T07:59:35.933Z</time></trkpt><trkpt lat="40.7356476" lon="9.6477173"><ele>92.0</ele><time>2026-04-12T07:59:36.934Z</time></trkpt><trkpt lat="40.7357677" lon="9.6477166"><ele>94.0</ele><time>2026-04-12T07:59:37.937Z</time></trkpt><trkpt lat="40.7358889" lon="9.6477247"><ele>96.0</ele><time>2026-04-12T07:59:38.932Z</time></trkpt><trkpt lat="40.7360107" lon="9.647732"><ele>98.0</ele><time>2026-04-12T07:59:39.94Z</time></trkpt><trkpt lat="40.7361349" lon="9.6477413"><ele>100.0</ele><time>2026-04-12T07:59:40.936Z</time></trkpt><trkpt lat="40.7362597" lon="9.647751"><ele>102.0</ele><time>2026-04-12T07:59:41.926Z</time></trkpt><trkpt lat="40.7363934" lon="9.6477664"><ele>104.0</ele><time>2026-04-12T07:59:42.941Z</time></trkpt><trkpt lat="40.7365287" lon="9.647751"><ele>104.0</ele><time>2026-04-12T07:59:43.929Z</time></trkpt><trkpt lat="40.7366645" lon="9.6477067"><ele>104.0</ele><time>2026-04-12T07:59:44.932Z</time></trkpt><trkpt lat="40.7368009" lon="9.6476374"><ele>104.0</ele><time>2026-04-12T07:59:45.933Z</time></trkpt><trkpt lat="40.7369228" lon="9.6475575"><ele>104.0</ele><time>2026-04-12T07:59:46.945Z</time></trkpt><trkpt lat="40.7370504" lon="9.6474854"><ele>103.75</ele><time>2026-04-12T07:59:47.938Z</time></trkpt><trkpt lat="40.7371777" lon="9.6474054"><ele>103.5</ele><time>2026-04-12T07:59:48.925Z</time></trkpt><trkpt lat="40.7373085" lon="9.6473271"><ele>103.25</ele><time>2026-04-12T07:59:49.932Z</time></trkpt><trkpt lat="40.7374403" lon="9.6472507"><ele>103.0</ele><time>2026-04-12T07:59:50.932Z</time></trkpt><trkpt lat="40.737576" lon="9.6471756"><ele>103.0</ele><time>2026-04-12T07:59:51.926Z</time></trkpt><trkpt lat="40.7377087" lon="9.6471071"><ele>103.0</ele><time>2026-04-12T07:59:52.926Z</time></trkpt><trkpt lat="40.7378421" lon="9.6470424"><ele>103.0</ele><time>2026-04-12T07:59:53.937Z</time></trkpt><trkpt lat="40.737975" lon="9.6469752"><ele>103.0</ele><time>2026-04-12T07:59:54.932Z</time></trkpt><trkpt lat="40.7381091" lon="9.6469109"><ele>100.5</ele><time>2026-04-12T07:59:55.922Z</time></trkpt><trkpt lat="40.738245" lon="9.6468533"><ele>98.0</ele><time>2026-04-12T07:59:56.932Z</time></trkpt><trkpt lat="40.7383825" lon="9.6467998"><ele>95.5</ele><time>2026-04-12T07:59:57.928Z</time></trkpt><trkpt lat="40.7385191" lon="9.6467435"><ele>93.0</ele><time>2026-04-12T07:59:58.955Z</time></trkpt><trkpt lat="40.7386545" lon="9.6466816"><ele>92.25</ele><time>2026-04-12T07:59:59.927Z</time></trkpt><trkpt lat="40.7387922" lon="9.646627"><ele>91.5</ele><time>2026-04-12T08:00:00.93Z</time></trkpt><trkpt lat="40.7389268" lon="9.6465713"><ele>90.75</ele><time>2026-04-12T08:00:01.933Z</time></trkpt><trkpt lat="40.7390617" lon="9.6465163"><ele>90.0</ele><time>2026-04-12T08:00:02.931Z</time></trkpt><trkpt lat="40.7391963" lon="9.6464611"><ele>90.0</ele><time>2026-04-12T08:00:03.925Z</time></trkpt><trkpt lat="40.7393323" lon="9.6464008"><ele>90.0</ele><time>2026-04-12T08:00:04.936Z</time></trkpt><trkpt lat="40.7394733" lon="9.6463412"><ele>90.0</ele><time>2026-04-12T08:00:05.931Z</time></trkpt><trkpt lat="40.7396121" lon="9.6462804"><ele>90.0</ele><time>2026-04-12T08:00:06.933Z</time></trkpt><trkpt lat="40.7397489" lon="9.6462216"><ele>89.25</ele><time>2026-04-12T08:00:07.92Z</time></trkpt><trkpt lat="40.7398804" lon="9.6461636"><ele>88.5</ele><time>2026-04-12T08:00:08.931Z</time></trkpt><trkpt lat="40.7400108" lon="9.6461231"><ele>87.75</ele><time>2026-04-12T08:00:09.946Z</time></trkpt><trkpt lat="40.7401482" lon="9.6461041"><ele>87.0</ele><time>2026-04-12T08:00:10.933Z</time></trkpt><trkpt lat="40.740285" lon="9.6461046"><ele>86.5</ele><time>2026-04-12T08:00:11.93Z</time></trkpt><trkpt lat="40.7404255" lon="9.6461155"><ele>86.0</ele><time>2026-04-12T08:00:12.926Z</time></trkpt><trkpt lat="40.7405676" lon="9.6461329"><ele>85.5</ele><time>2026-04-12T08:00:13.928Z</time></trkpt><trkpt lat="40.7407045" lon="9.6461542"><ele>85.0</ele><time>2026-04-12T08:00:14.925Z</time></trkpt><trkpt lat="40.7408424" lon="9.6461765"><ele>85.0</ele><time>2026-04-12T08:00:15.94Z</time></trkpt><trkpt lat="40.7409898" lon="9.6462032"><ele>85.0</ele><time>2026-04-12T08:00:16.929Z</time></trkpt><trkpt lat="40.7411388" lon="9.6462236"><ele>85.0</ele><time>2026-04-12T08:00:17.924Z</time></trkpt><trkpt lat="40.7412888" lon="9.646247"><ele>84.5</ele><time>2026-04-12T08:00:18.925Z</time></trkpt><trkpt lat="40.7414364" lon="9.6462641"><ele>84.0</ele><time>2026-04-12T08:00:19.919Z</time></trkpt><trkpt lat="40.7415822" lon="9.6462843"><ele>83.5</ele><time>2026-04-12T08:00:20.926Z</time></trkpt><trkpt lat="40.7417281" lon="9.6463055"><ele>83.0</ele><time>2026-04-12T08:00:21.928Z</time></trkpt><trkpt lat="40.7418761" lon="9.6463266"><ele>82.0</ele><time>2026-04-12T08:00:22.925Z</time></trkpt><trkpt lat="40.7420274" lon="9.6463478"><ele>81.0</ele><time>2026-04-12T08:00:23.916Z</time></trkpt><trkpt lat="40.7421836" lon="9.6463698"><ele>80.0</ele><time>2026-04-12T08:00:24.932Z</time></trkpt><trkpt lat="40.7423441" lon="9.6463979"><ele>80.0</ele><time>2026-04-12T08:00:25.936Z</time></trkpt><trkpt lat="40.742509" lon="9.646419"><ele>80.0</ele><time>2026-04-12T08:00:27.02Z</time></trkpt><trkpt lat="40.7426751" lon="9.6464447"><ele>80.0</ele><time>2026-04-12T08:00:28.035Z</time></trkpt><trkpt lat="40.7428428" lon="9.6464642"><ele>77.5</ele><time>2026-04-12T08:00:29.021Z</time></trkpt><trkpt lat="40.7431713" lon="9.646513"><ele>75.0</ele><time>2026-04-12T08:00:30.934Z</time></trkpt><trkpt lat="40.7433298" lon="9.6465353"><ele>75.0</ele><time>2026-04-12T08:00:32.071Z</time></trkpt><trkpt lat="40.7434878" lon="9.6465562"><ele>75.0</ele><time>2026-04-12T08:00:33.022Z</time></trkpt><trkpt lat="40.7436409" lon="9.6465804"><ele>75.0</ele><time>2026-04-12T08:00:34.017Z</time></trkpt><trkpt lat="40.7437922" lon="9.646602"><ele>75.0</ele><time>2026-04-12T08:00:35.014Z</time></trkpt><trkpt lat="40.7439448" lon="9.6466233"><ele>75.0</ele><time>2026-04-12T08:00:36.027Z</time></trkpt><trkpt lat="40.7440942" lon="9.6466465"><ele>75.0</ele><time>2026-04-12T08:00:37.017Z</time></trkpt><trkpt lat="40.7442372" lon="9.6466737"><ele>75.0</ele><time>2026-04-12T08:00:38.006Z</time></trkpt><trkpt lat="40.7443773" lon="9.6467017"><ele>74.5</ele><time>2026-04-12T08:00:39.007Z</time></trkpt><trkpt lat="40.7445162" lon="9.6467356"><ele>74.0</ele><time>2026-04-12T08:00:40.013Z</time></trkpt><trkpt lat="40.7446538" lon="9.6467648"><ele>73.5</ele><time>2026-04-12T08:00:41.025Z</time></trkpt><trkpt lat="40.7447868" lon="9.6467968"><ele>73.0</ele><time>2026-04-12T08:00:42.008Z</time></trkpt><trkpt lat="40.7449165" lon="9.6468337"><ele>73.0</ele><time>2026-04-12T08:00:43.023Z</time></trkpt><trkpt lat="40.745045" lon="9.6468714"><ele>73.0</ele><time>2026-04-12T08:00:44.021Z</time></trkpt><trkpt lat="40.7451776" lon="9.6469096"><ele>73.0</ele><time>2026-04-12T08:00:45.008Z</time></trkpt><trkpt lat="40.7453074" lon="9.6469434"><ele>73.0</ele><time>2026-04-12T08:00:46.014Z</time></trkpt><trkpt lat="40.7454395" lon="9.6469786"><ele>71.5</ele><time>2026-04-12T08:00:47.009Z</time></trkpt><trkpt lat="40.7455746" lon="9.6470116"><ele>70.0</ele><time>2026-04-12T08:00:48.012Z</time></trkpt><trkpt lat="40.7457141" lon="9.6470277"><ele>68.5</ele><time>2026-04-12T08:00:49.034Z</time></trkpt><trkpt lat="40.745857" lon="9.6470406"><ele>67.0</ele><time>2026-04-12T08:00:50.01Z</time></trkpt><trkpt lat="40.7460031" lon="9.6470452"><ele>66.75</ele><time>2026-04-12T08:00:51.004Z</time></trkpt><trkpt lat="40.7461451" lon="9.6470499"><ele>66.5</ele><time>2026-04-12T08:00:52.023Z</time></trkpt><trkpt lat="40.7462834" lon="9.647049"><ele>66.25</ele><time>2026-04-12T08:00:53.013Z</time></trkpt><trkpt lat="40.74642" lon="9.6470493"><ele>66.0</ele><time>2026-04-12T08:00:54.01Z</time></trkpt><trkpt lat="40.7465581" lon="9.6470514"><ele>66.0</ele><time>2026-04-12T08:00:55.011Z</time></trkpt><trkpt lat="40.7466959" lon="9.6470492"><ele>66.0</ele><time>2026-04-12T08:00:56.015Z</time></trkpt><trkpt lat="40.7468312" lon="9.6470588"><ele>66.0</ele><time>2026-04-12T08:00:57.006Z</time></trkpt><trkpt lat="40.746965" lon="9.6470654"><ele>66.0</ele><time>2026-04-12T08:00:58.006Z</time></trkpt><trkpt lat="40.7471027" lon="9.647073"><ele>65.5</ele><time>2026-04-12T08:00:59.009Z</time></trkpt><trkpt lat="40.7472406" lon="9.6470808"><ele>65.0</ele><time>2026-04-12T08:01:00.021Z</time></trkpt><trkpt lat="40.7473747" lon="9.6470813"><ele>64.5</ele><time>2026-04-12T08:01:01.024Z</time></trkpt><trkpt lat="40.747511" lon="9.6470761"><ele>64.0</ele><time>2026-04-12T08:01:02.01Z</time></trkpt><trkpt lat="40.7476448" lon="9.6470797"><ele>63.5</ele><time>2026-04-12T08:01:03.006Z</time></trkpt><trkpt lat="40.7477774" lon="9.647082"><ele>63.0</ele><time>2026-04-12T08:01:04.008Z</time></trkpt><trkpt lat="40.7479059" lon="9.647091"><ele>62.5</ele><time>2026-04-12T08:01:05.01Z</time></trkpt><trkpt lat="40.7480357" lon="9.6470906"><ele>62.0</ele><time>2026-04-12T08:01:06.009Z</time></trkpt><trkpt lat="40.7481617" lon="9.647092"><ele>62.0</ele><time>2026-04-12T08:01:07.009Z</time></trkpt><trkpt lat="40.7482889" lon="9.6470966"><ele>62.0</ele><time>2026-04-12T08:01:08.028Z</time></trkpt><trkpt lat="40.7484164" lon="9.6471035"><ele>62.0</ele><time>2026-04-12T08:01:09.022Z</time></trkpt><trkpt lat="40.7485449" lon="9.6471095"><ele>62.0</ele><time>2026-04-12T08:01:10.001Z</time></trkpt><trkpt lat="40.7486755" lon="9.64711"><ele>61.25</ele><time>2026-04-12T08:01:11.005Z</time></trkpt><trkpt lat="40.7488083" lon="9.6471093"><ele>60.5</ele><time>2026-04-12T08:01:12.016Z</time></trkpt><trkpt lat="40.7489454" lon="9.6471111"><ele>59.75</ele><time>2026-04-12T08:01:13.027Z</time></trkpt><trkpt lat="40.7490833" lon="9.6471178"><ele>59.0</ele><time>2026-04-12T08:01:14.013Z</time></trkpt><trkpt lat="40.7492196" lon="9.6471241"><ele>59.0</ele><time>2026-04-12T08:01:14.999Z</time></trkpt><trkpt lat="40.7493502" lon="9.6471454"><ele>59.00000000000001</ele><time>2026-04-12T08:01:16.013Z</time></trkpt><trkpt lat="40.7494657" lon="9.6471795"><ele>59.00000000000001</ele><time>2026-04-12T08:01:17.012Z</time></trkpt><trkpt lat="40.7495651" lon="9.6472168"><ele>59.0</ele><time>2026-04-12T08:01:18.009Z</time></trkpt><trkpt lat="40.7496408" lon="9.6472463"><ele>59.0</ele><time>2026-04-12T08:01:19.105Z</time></trkpt><trkpt lat="40.7497454" lon="9.6472904"><ele>58.400000000000006</ele><time>2026-04-12T08:01:21.008Z</time></trkpt><trkpt lat="40.7498124" lon="9.6473083"><ele>57.800000000000004</ele><time>2026-04-12T08:01:23.004Z</time></trkpt><trkpt lat="40.749884" lon="9.647328"><ele>57.199999999999996</ele><time>2026-04-12T08:01:25.01Z</time></trkpt><trkpt lat="40.7499788" lon="9.6473419"><ele>56.599999999999994</ele><time>2026-04-12T08:01:26.999Z</time></trkpt><trkpt lat="40.7500761" lon="9.6473307"><ele>56.0</ele><time>2026-04-12T08:01:29.003Z</time></trkpt><trkpt lat="40.7501882" lon="9.6472965"><ele>55.50000000000001</ele><time>2026-04-12T08:01:30.998Z</time></trkpt><trkpt lat="40.7502998" lon="9.6472482"><ele>55.0</ele><time>2026-04-12T08:01:33.005Z</time></trkpt><trkpt lat="40.7503604" lon="9.6472103"><ele>54.5</ele><time>2026-04-12T08:01:34.003Z</time></trkpt><trkpt lat="40.7504235" lon="9.647176"><ele>54.0</ele><time>2026-04-12T08:01:35.013Z</time></trkpt><trkpt lat="40.7504907" lon="9.6471375"><ele>53.50000000000001</ele><time>2026-04-12T08:01:36.009Z</time></trkpt><trkpt lat="40.750556" lon="9.6471033"><ele>53.0</ele><time>2026-04-12T08:01:37.017Z</time></trkpt><trkpt lat="40.7506249" lon="9.6470669"><ele>53.00000000000001</ele><time>2026-04-12T08:01:38.019Z</time></trkpt><trkpt lat="40.750699" lon="9.6470364"><ele>53.0</ele><time>2026-04-12T08:01:39.008Z</time></trkpt><trkpt lat="40.7507744" lon="9.6470204"><ele>53.0</ele><time>2026-04-12T08:01:40.089Z</time></trkpt><trkpt lat="40.7508552" lon="9.6470205"><ele>53.0</ele><time>2026-04-12T08:01:41.022Z</time></trkpt><trkpt lat="40.7509373" lon="9.6470421"><ele>53.00000000000001</ele><time>2026-04-12T08:01:41.996Z</time></trkpt><trkpt lat="40.7510215" lon="9.6470749"><ele>53.0</ele><time>2026-04-12T08:01:43.005Z</time></trkpt><trkpt lat="40.7511007" lon="9.6471197"><ele>53.599999999999994</ele><time>2026-04-12T08:01:44.004Z</time></trkpt><trkpt lat="40.7511813" lon="9.6471703"><ele>54.199999999999996</ele><time>2026-04-12T08:01:44.996Z</time></trkpt><trkpt lat="40.7512674" lon="9.6472266"><ele>54.8</ele><time>2026-04-12T08:01:45.997Z</time></trkpt><trkpt lat="40.7513606" lon="9.6472877"><ele>55.4</ele><time>2026-04-12T08:01:46.992Z</time></trkpt><trkpt lat="40.7514578" lon="9.647349"><ele>56.0</ele><time>2026-04-12T08:01:48.014Z</time></trkpt><trkpt lat="40.75156" lon="9.6474162"><ele>56.0</ele><time>2026-04-12T08:01:48.993Z</time></trkpt><trkpt lat="40.7516644" lon="9.6474822"><ele>56.0</ele><time>2026-04-12T08:01:50.028Z</time></trkpt><trkpt lat="40.7517693" lon="9.6475434"><ele>56.0</ele><time>2026-04-12T08:01:50.996Z</time></trkpt><trkpt lat="40.7518749" lon="9.6476119"><ele>56.0</ele><time>2026-04-12T08:01:51.996Z</time></trkpt><trkpt lat="40.7519806" lon="9.6476814"><ele>55.75</ele><time>2026-04-12T08:01:52.995Z</time></trkpt><trkpt lat="40.752086" lon="9.64775"><ele>55.5</ele><time>2026-04-12T08:01:54.001Z</time></trkpt><trkpt lat="40.7521943" lon="9.6478194"><ele>55.25</ele><time>2026-04-12T08:01:54.988Z</time></trkpt><trkpt lat="40.7523016" lon="9.6478896"><ele>55.0</ele><time>2026-04-12T08:01:56.004Z</time></trkpt><trkpt lat="40.7524101" lon="9.6479626"><ele>54.25</ele><time>2026-04-12T08:01:56.997Z</time></trkpt><trkpt lat="40.7525213" lon="9.6480425"><ele>53.5</ele><time>2026-04-12T08:01:58.004Z</time></trkpt><trkpt lat="40.7526357" lon="9.6481179"><ele>52.75</ele><time>2026-04-12T08:01:58.99Z</time></trkpt><trkpt lat="40.752748" lon="9.6482041"><ele>52.0</ele><time>2026-04-12T08:02:00.014Z</time></trkpt><trkpt lat="40.7528615" lon="9.6482937"><ele>51.5</ele><time>2026-04-12T08:02:00.995Z</time></trkpt><trkpt lat="40.7529797" lon="9.6483878"><ele>51.0</ele><time>2026-04-12T08:02:01.991Z</time></trkpt><trkpt lat="40.7530984" lon="9.6484876"><ele>50.5</ele><time>2026-04-12T08:02:02.984Z</time></trkpt><trkpt lat="40.7532146" lon="9.648591"><ele>50.0</ele><time>2026-04-12T08:02:03.992Z</time></trkpt><trkpt lat="40.7533272" lon="9.6486921"><ele>50.5</ele><time>2026-04-12T08:02:04.983Z</time></trkpt><trkpt lat="40.7534377" lon="9.6487979"><ele>51.0</ele><time>2026-04-12T08:02:06.002Z</time></trkpt><trkpt lat="40.7535506" lon="9.6488977"><ele>51.5</ele><time>2026-04-12T08:02:06.987Z</time></trkpt><trkpt lat="40.7536644" lon="9.6489978"><ele>52.0</ele><time>2026-04-12T08:02:07.997Z</time></trkpt><trkpt lat="40.7537822" lon="9.6491012"><ele>52.0</ele><time>2026-04-12T08:02:08.988Z</time></trkpt><trkpt lat="40.7539011" lon="9.6492051"><ele>52.0</ele><time>2026-04-12T08:02:09.986Z</time></trkpt><trkpt lat="40.754024" lon="9.6493152"><ele>52.0</ele><time>2026-04-12T08:02:10.986Z</time></trkpt><trkpt lat="40.7541455" lon="9.6494246"><ele>52.0</ele><time>2026-04-12T08:02:11.993Z</time></trkpt><trkpt lat="40.7542656" lon="9.6495315"><ele>51.25</ele><time>2026-04-12T08:02:12.995Z</time></trkpt><trkpt lat="40.7543861" lon="9.6496377"><ele>50.5</ele><time>2026-04-12T08:02:13.993Z</time></trkpt><trkpt lat="40.7545075" lon="9.6497436"><ele>49.75</ele><time>2026-04-12T08:02:14.995Z</time></trkpt><trkpt lat="40.7546295" lon="9.6498436"><ele>49.0</ele><time>2026-04-12T08:02:15.989Z</time></trkpt><trkpt lat="40.7547601" lon="9.6499227"><ele>49.0</ele><time>2026-04-12T08:02:16.995Z</time></trkpt><trkpt lat="40.754897" lon="9.6499844"><ele>49.0</ele><time>2026-04-12T08:02:17.992Z</time></trkpt><trkpt lat="40.7550391" lon="9.6500316"><ele>49.0</ele><time>2026-04-12T08:02:18.989Z</time></trkpt><trkpt lat="40.7551816" lon="9.6500765"><ele>49.0</ele><time>2026-04-12T08:02:19.992Z</time></trkpt><trkpt lat="40.7553289" lon="9.6501218"><ele>49.75</ele><time>2026-04-12T08:02:20.991Z</time></trkpt><trkpt lat="40.7554727" lon="9.6501703"><ele>50.5</ele><time>2026-04-12T08:02:21.987Z</time></trkpt><trkpt lat="40.7556168" lon="9.6502146"><ele>51.25</ele><time>2026-04-12T08:02:22.98Z</time></trkpt><trkpt lat="40.7557548" lon="9.6502738"><ele>52.0</ele><time>2026-04-12T08:02:23.985Z</time></trkpt><trkpt lat="40.7558925" lon="9.6503509"><ele>48.666666666666664</ele><time>2026-04-12T08:02:24.993Z</time></trkpt><trkpt lat="40.7560264" lon="9.6504593"><ele>45.33333333333333</ele><time>2026-04-12T08:02:25.991Z</time></trkpt><trkpt lat="40.7561599" lon="9.6505748"><ele>42.0</ele><time>2026-04-12T08:02:26.977Z</time></trkpt><trkpt lat="40.7562876" lon="9.6507007"><ele>42.0</ele><time>2026-04-12T08:02:28.019Z</time></trkpt><trkpt lat="40.7564101" lon="9.6508295"><ele>42.0</ele><time>2026-04-12T08:02:28.994Z</time></trkpt><trkpt lat="40.7565355" lon="9.6509551"><ele>42.0</ele><time>2026-04-12T08:02:29.988Z</time></trkpt><trkpt lat="40.7566612" lon="9.6510796"><ele>41.5</ele><time>2026-04-12T08:02:30.983Z</time></trkpt><trkpt lat="40.7567834" lon="9.6511974"><ele>41.0</ele><time>2026-04-12T08:02:31.986Z</time></trkpt><trkpt lat="40.7569005" lon="9.6513085"><ele>40.5</ele><time>2026-04-12T08:02:32.989Z</time></trkpt><trkpt lat="40.7570226" lon="9.6514115"><ele>40.0</ele><time>2026-04-12T08:02:33.988Z</time></trkpt><trkpt lat="40.7571474" lon="9.6515009"><ele>40.0</ele><time>2026-04-12T08:02:34.974Z</time></trkpt><trkpt lat="40.7572777" lon="9.6515833"><ele>40.0</ele><time>2026-04-12T08:02:35.98Z</time></trkpt><trkpt lat="40.7574099" lon="9.6516577"><ele>40.0</ele><time>2026-04-12T08:02:36.979Z</time></trkpt><trkpt lat="40.7575396" lon="9.651731"><ele>40.0</ele><time>2026-04-12T08:02:37.973Z</time></trkpt><trkpt lat="40.7576709" lon="9.6518079"><ele>40.75</ele><time>2026-04-12T08:02:38.969Z</time></trkpt><trkpt lat="40.7578031" lon="9.6518811"><ele>41.5</ele><time>2026-04-12T08:02:39.969Z</time></trkpt><trkpt lat="40.757933" lon="9.6519587"><ele>42.25</ele><time>2026-04-12T08:02:40.983Z</time></trkpt><trkpt lat="40.7580626" lon="9.6520345"><ele>43.0</ele><time>2026-04-12T08:02:41.974Z</time></trkpt><trkpt lat="40.758191" lon="9.6521106"><ele>41.0</ele><time>2026-04-12T08:02:42.97Z</time></trkpt><trkpt lat="40.7583205" lon="9.6521819"><ele>39.0</ele><time>2026-04-12T08:02:43.97Z</time></trkpt><trkpt lat="40.7584449" lon="9.6522535"><ele>37.0</ele><time>2026-04-12T08:02:44.984Z</time></trkpt><trkpt lat="40.758574" lon="9.6523232"><ele>35.0</ele><time>2026-04-12T08:02:45.973Z</time></trkpt><trkpt lat="40.7587032" lon="9.6523997"><ele>35.0</ele><time>2026-04-12T08:02:46.965Z</time></trkpt><trkpt lat="40.7588344" lon="9.6524749"><ele>35.0</ele><time>2026-04-12T08:02:47.969Z</time></trkpt><trkpt lat="40.7589647" lon="9.6525518"><ele>35.0</ele><time>2026-04-12T08:02:48.975Z</time></trkpt><trkpt lat="40.7590961" lon="9.6526305"><ele>35.0</ele><time>2026-04-12T08:02:49.968Z</time></trkpt><trkpt lat="40.7592234" lon="9.6527015"><ele>35.0</ele><time>2026-04-12T08:02:50.962Z</time></trkpt><trkpt lat="40.7593524" lon="9.652771"><ele>35.0</ele><time>2026-04-12T08:02:51.968Z</time></trkpt><trkpt lat="40.7594782" lon="9.6528475"><ele>35.0</ele><time>2026-04-12T08:02:52.976Z</time></trkpt><trkpt lat="40.7595999" lon="9.6529203"><ele>35.0</ele><time>2026-04-12T08:02:53.956Z</time></trkpt><trkpt lat="40.7597188" lon="9.6529871"><ele>34.5</ele><time>2026-04-12T08:02:54.967Z</time></trkpt><trkpt lat="40.7598368" lon="9.6530544"><ele>34.0</ele><time>2026-04-12T08:02:55.962Z</time></trkpt><trkpt lat="40.7599526" lon="9.6531198"><ele>33.5</ele><time>2026-04-12T08:02:56.972Z</time></trkpt><trkpt lat="40.7600572" lon="9.6531803"><ele>33.0</ele><time>2026-04-12T08:02:57.968Z</time></trkpt><trkpt lat="40.760157" lon="9.6532371"><ele>33.0</ele><time>2026-04-12T08:02:58.963Z</time></trkpt><trkpt lat="40.7602448" lon="9.6532946"><ele>33.0</ele><time>2026-04-12T08:02:59.957Z</time></trkpt><trkpt lat="40.7603162" lon="9.6533446"><ele>33.0</ele><time>2026-04-12T08:03:00.971Z</time></trkpt><trkpt lat="40.7603666" lon="9.6533944"><ele>33.0</ele><time>2026-04-12T08:03:01.987Z</time></trkpt><trkpt lat="40.7604434" lon="9.6534999"><ele>33.0</ele><time>2026-04-12T08:03:03.967Z</time></trkpt><trkpt lat="40.7605504" lon="9.6536014"><ele>32.4</ele><time>2026-04-12T08:03:05.964Z</time></trkpt><trkpt lat="40.7606297" lon="9.6536281"><ele>31.799999999999997</ele><time>2026-04-12T08:03:06.972Z</time></trkpt><trkpt lat="40.7607245" lon="9.6536345"><ele>31.2</ele><time>2026-04-12T08:03:07.964Z</time></trkpt><trkpt lat="40.7608234" lon="9.6536411"><ele>30.6</ele><time>2026-04-12T08:03:08.962Z</time></trkpt><trkpt lat="40.7609273" lon="9.6536656"><ele>30.0</ele><time>2026-04-12T08:03:09.963Z</time></trkpt><trkpt lat="40.7610336" lon="9.6537152"><ele>30.0</ele><time>2026-04-12T08:03:10.96Z</time></trkpt><trkpt lat="40.7611476" lon="9.653767"><ele>30.0</ele><time>2026-04-12T08:03:11.956Z</time></trkpt><trkpt lat="40.7612553" lon="9.653819"><ele>30.0</ele><time>2026-04-12T08:03:12.96Z</time></trkpt><trkpt lat="40.7613506" lon="9.6538578"><ele>30.0</ele><time>2026-04-12T08:03:13.963Z</time></trkpt><trkpt lat="40.7614376" lon="9.6538897"><ele>30.0</ele><time>2026-04-12T08:03:14.961Z</time></trkpt><trkpt lat="40.7615213" lon="9.6539136"><ele>30.0</ele><time>2026-04-12T08:03:15.96Z</time></trkpt><trkpt lat="40.7615983" lon="9.6539379"><ele>30.0</ele><time>2026-04-12T08:03:16.964Z</time></trkpt><trkpt lat="40.7616737" lon="9.6539478"><ele>30.0</ele><time>2026-04-12T08:03:17.955Z</time></trkpt><trkpt lat="40.7617586" lon="9.6539561"><ele>30.0</ele><time>2026-04-12T08:03:19.001Z</time></trkpt><trkpt lat="40.7618428" lon="9.6539638"><ele>30.0</ele><time>2026-04-12T08:03:19.956Z</time></trkpt><trkpt lat="40.7619144" lon="9.65398"><ele>30.0</ele><time>2026-04-12T08:03:20.955Z</time></trkpt><trkpt lat="40.7619813" lon="9.6539985"><ele>29.833333333333332</ele><time>2026-04-12T08:03:21.961Z</time></trkpt><trkpt lat="40.7620438" lon="9.6540174"><ele>29.666666666666664</ele><time>2026-04-12T08:03:22.953Z</time></trkpt><trkpt lat="40.7621582" lon="9.6540314"><ele>29.5</ele><time>2026-04-12T08:03:24.975Z</time></trkpt><trkpt lat="40.7622827" lon="9.6540401"><ele>29.333333333333332</ele><time>2026-04-12T08:03:26.95Z</time></trkpt><trkpt lat="40.7623506" lon="9.6540429"><ele>29.166666666666664</ele><time>2026-04-12T08:03:27.949Z</time></trkpt><trkpt lat="40.7624187" lon="9.6540506"><ele>29.0</ele><time>2026-04-12T08:03:28.956Z</time></trkpt><trkpt lat="40.7624919" lon="9.6540591"><ele>28.999999999999996</ele><time>2026-04-12T08:03:29.991Z</time></trkpt><trkpt lat="40.7625668" lon="9.6540654"><ele>29.0</ele><time>2026-04-12T08:03:30.962Z</time></trkpt><trkpt lat="40.7626466" lon="9.6540739"><ele>29.0</ele><time>2026-04-12T08:03:31.949Z</time></trkpt><trkpt lat="40.7627287" lon="9.6540795"><ele>29.0</ele><time>2026-04-12T08:03:32.945Z</time></trkpt><trkpt lat="40.7628125" lon="9.6540884"><ele>28.999999999999996</ele><time>2026-04-12T08:03:33.971Z</time></trkpt><trkpt lat="40.7629011" lon="9.6541006"><ele>29.0</ele><time>2026-04-12T08:03:34.952Z</time></trkpt><trkpt lat="40.7629939" lon="9.6541151"><ele>28.333333333333332</ele><time>2026-04-12T08:03:35.952Z</time></trkpt><trkpt lat="40.7630887" lon="9.6541275"><ele>27.666666666666664</ele><time>2026-04-12T08:03:36.957Z</time></trkpt><trkpt lat="40.7631795" lon="9.6541362"><ele>27.0</ele><time>2026-04-12T08:03:37.943Z</time></trkpt><trkpt lat="40.763261" lon="9.6541452"><ele>26.333333333333336</ele><time>2026-04-12T08:03:38.947Z</time></trkpt><trkpt lat="40.7633442" lon="9.6541521"><ele>25.666666666666668</ele><time>2026-04-12T08:03:39.95Z</time></trkpt><trkpt lat="40.7634231" lon="9.6541622"><ele>25.0</ele><time>2026-04-12T08:03:40.946Z</time></trkpt><trkpt lat="40.7635059" lon="9.6541677"><ele>25.6</ele><time>2026-04-12T08:03:41.945Z</time></trkpt><trkpt lat="40.76359" lon="9.6541742"><ele>26.2</ele><time>2026-04-12T08:03:42.948Z</time></trkpt><trkpt lat="40.7636772" lon="9.6541849"><ele>26.799999999999997</ele><time>2026-04-12T08:03:43.938Z</time></trkpt><trkpt lat="40.7637718" lon="9.6541944"><ele>27.4</ele><time>2026-04-12T08:03:44.953Z</time></trkpt><trkpt lat="40.7638657" lon="9.6542001"><ele>28.0</ele><time>2026-04-12T08:03:45.948Z</time></trkpt><trkpt lat="40.7639613" lon="9.6542137"><ele>28.0</ele><time>2026-04-12T08:03:46.943Z</time></trkpt><trkpt lat="40.7640547" lon="9.6542249"><ele>27.999999999999996</ele><time>2026-04-12T08:03:47.945Z</time></trkpt><trkpt lat="40.76415" lon="9.6542355"><ele>27.999999999999996</ele><time>2026-04-12T08:03:48.947Z</time></trkpt><trkpt lat="40.7642469" lon="9.6542436"><ele>28.0</ele><time>2026-04-12T08:03:49.939Z</time></trkpt><trkpt lat="40.7643432" lon="9.6542524"><ele>28.0</ele><time>2026-04-12T08:03:50.941Z</time></trkpt><trkpt lat="40.7644393" lon="9.6542616"><ele>28.799999999999997</ele><time>2026-04-12T08:03:51.946Z</time></trkpt><trkpt lat="40.7645406" lon="9.6542689"><ele>29.599999999999998</ele><time>2026-04-12T08:03:52.938Z</time></trkpt><trkpt lat="40.7646473" lon="9.6542797"><ele>30.400000000000002</ele><time>2026-04-12T08:03:53.937Z</time></trkpt><trkpt lat="40.7647596" lon="9.6542897"><ele>31.200000000000003</ele><time>2026-04-12T08:03:54.935Z</time></trkpt><trkpt lat="40.7648755" lon="9.6542987"><ele>32.0</ele><time>2026-04-12T08:03:55.939Z</time></trkpt><trkpt lat="40.7649915" lon="9.6543109"><ele>32.0</ele><time>2026-04-12T08:03:56.936Z</time></trkpt><trkpt lat="40.7651085" lon="9.6543217"><ele>32.0</ele><time>2026-04-12T08:03:57.945Z</time></trkpt><trkpt lat="40.7652267" lon="9.6543412"><ele>32.0</ele><time>2026-04-12T08:03:58.942Z</time></trkpt><trkpt lat="40.7653373" lon="9.6543554"><ele>32.0</ele><time>2026-04-12T08:03:59.935Z</time></trkpt><trkpt lat="40.7654304" lon="9.6543672"><ele>32.0</ele><time>2026-04-12T08:04:00.934Z</time></trkpt><trkpt lat="40.7655017" lon="9.6543819"><ele>32.0</ele><time>2026-04-12T08:04:01.94Z</time></trkpt><trkpt lat="40.7655651" lon="9.6543881"><ele>32.0</ele><time>2026-04-12T08:04:02.935Z</time></trkpt><trkpt lat="40.7656803" lon="9.6544006"><ele>32.0</ele><time>2026-04-12T08:04:04.939Z</time></trkpt><trkpt lat="40.7658027" lon="9.6544173"><ele>32.0</ele><time>2026-04-12T08:04:06.942Z</time></trkpt><trkpt lat="40.765867" lon="9.6544264"><ele>32.0</ele><time>2026-04-12T08:04:07.928Z</time></trkpt><trkpt lat="40.7659932" lon="9.6544394"><ele>31.999999999999996</ele><time>2026-04-12T08:04:09.944Z</time></trkpt><trkpt lat="40.7660604" lon="9.6544464"><ele>32.0</ele><time>2026-04-12T08:04:10.935Z</time></trkpt><trkpt lat="40.7661353" lon="9.6544536"><ele>32.0</ele><time>2026-04-12T08:04:11.937Z</time></trkpt><trkpt lat="40.7662138" lon="9.6544625"><ele>32.0</ele><time>2026-04-12T08:04:12.931Z</time></trkpt><trkpt lat="40.7662923" lon="9.6544692"><ele>31.999999999999996</ele><time>2026-04-12T08:04:13.936Z</time></trkpt><trkpt lat="40.7663723" lon="9.6544752"><ele>32.0</ele><time>2026-04-12T08:04:14.936Z</time></trkpt><trkpt lat="40.7664557" lon="9.6544815"><ele>31.8</ele><time>2026-04-12T08:04:15.927Z</time></trkpt><trkpt lat="40.7665403" lon="9.6544891"><ele>31.6</ele><time>2026-04-12T08:04:16.926Z</time></trkpt><trkpt lat="40.7666276" lon="9.6544972"><ele>31.400000000000002</ele><time>2026-04-12T08:04:17.934Z</time></trkpt><trkpt lat="40.766723" lon="9.6545063"><ele>31.200000000000003</ele><time>2026-04-12T08:04:18.938Z</time></trkpt><trkpt lat="40.7668169" lon="9.6545168"><ele>31.0</ele><time>2026-04-12T08:04:19.927Z</time></trkpt><trkpt lat="40.7669096" lon="9.6545257"><ele>31.0</ele><time>2026-04-12T08:04:20.939Z</time></trkpt><trkpt lat="40.767002" lon="9.6545385"><ele>31.0</ele><time>2026-04-12T08:04:21.921Z</time></trkpt><trkpt lat="40.7670914" lon="9.654547"><ele>31.0</ele><time>2026-04-12T08:04:22.931Z</time></trkpt><trkpt lat="40.7671803" lon="9.6545519"><ele>31.0</ele><time>2026-04-12T08:04:23.92Z</time></trkpt><trkpt lat="40.7672711" lon="9.6545524"><ele>31.0</ele><time>2026-04-12T08:04:24.928Z</time></trkpt><trkpt lat="40.7673605" lon="9.6545508"><ele>31.0</ele><time>2026-04-12T08:04:25.937Z</time></trkpt><trkpt lat="40.7674491" lon="9.6545443"><ele>31.0</ele><time>2026-04-12T08:04:26.934Z</time></trkpt><trkpt lat="40.7675349" lon="9.6545371"><ele>31.0</ele><time>2026-04-12T08:04:27.921Z</time></trkpt><trkpt lat="40.767623" lon="9.6545281"><ele>31.0</ele><time>2026-04-12T08:04:28.917Z</time></trkpt><trkpt lat="40.7677191" lon="9.65452"><ele>31.0</ele><time>2026-04-12T08:04:29.92Z</time></trkpt><trkpt lat="40.7678156" lon="9.6545065"><ele>30.0</ele><time>2026-04-12T08:04:30.922Z</time></trkpt><trkpt lat="40.7679171" lon="9.6544947"><ele>29.0</ele><time>2026-04-12T08:04:31.917Z</time></trkpt><trkpt lat="40.7680275" lon="9.6544824"><ele>28.0</ele><time>2026-04-12T08:04:32.919Z</time></trkpt><trkpt lat="40.7681474" lon="9.6544674"><ele>27.0</ele><time>2026-04-12T08:04:33.923Z</time></trkpt><trkpt lat="40.7682676" lon="9.6544577"><ele>26.75</ele><time>2026-04-12T08:04:34.919Z</time></trkpt><trkpt lat="40.7683894" lon="9.6544488"><ele>26.5</ele><time>2026-04-12T08:04:35.917Z</time></trkpt><trkpt lat="40.7685102" lon="9.654441"><ele>26.25</ele><time>2026-04-12T08:04:36.927Z</time></trkpt><trkpt lat="40.768633" lon="9.6544246"><ele>26.0</ele><time>2026-04-12T08:04:37.93Z</time></trkpt><trkpt lat="40.7687566" lon="9.6544067"><ele>26.0</ele><time>2026-04-12T08:04:39.042Z</time></trkpt><trkpt lat="40.7688849" lon="9.6543902"><ele>26.0</ele><time>2026-04-12T08:04:40.022Z</time></trkpt><trkpt lat="40.7690088" lon="9.6543772"><ele>26.0</ele><time>2026-04-12T08:04:41.012Z</time></trkpt><trkpt lat="40.7691325" lon="9.6543646"><ele>26.0</ele><time>2026-04-12T08:04:41.925Z</time></trkpt><trkpt lat="40.7692563" lon="9.654351"><ele>25.0</ele><time>2026-04-12T08:04:42.922Z</time></trkpt><trkpt lat="40.7693768" lon="9.6543363"><ele>24.0</ele><time>2026-04-12T08:04:44.016Z</time></trkpt><trkpt lat="40.7694944" lon="9.6543259"><ele>23.0</ele><time>2026-04-12T08:04:45.016Z</time></trkpt><trkpt lat="40.7696116" lon="9.6543127"><ele>22.0</ele><time>2026-04-12T08:04:46.011Z</time></trkpt><trkpt lat="40.7697354" lon="9.6543029"><ele>22.0</ele><time>2026-04-12T08:04:47.012Z</time></trkpt><trkpt lat="40.7698552" lon="9.6542923"><ele>22.0</ele><time>2026-04-12T08:04:48.025Z</time></trkpt><trkpt lat="40.7699754" lon="9.6542838"><ele>22.0</ele><time>2026-04-12T08:04:49.013Z</time></trkpt><trkpt lat="40.7700993" lon="9.6542746"><ele>22.0</ele><time>2026-04-12T08:04:50.02Z</time></trkpt><trkpt lat="40.770219" lon="9.6542791"><ele>21.5</ele><time>2026-04-12T08:04:51.021Z</time></trkpt><trkpt lat="40.7703385" lon="9.6543031"><ele>21.0</ele><time>2026-04-12T08:04:52.021Z</time></trkpt><trkpt lat="40.7704581" lon="9.6543446"><ele>20.5</ele><time>2026-04-12T08:04:53.009Z</time></trkpt><trkpt lat="40.770576" lon="9.6544"><ele>20.0</ele><time>2026-04-12T08:04:54.016Z</time></trkpt><trkpt lat="40.7706933" lon="9.6544575"><ele>19.25</ele><time>2026-04-12T08:04:55.005Z</time></trkpt><trkpt lat="40.7708123" lon="9.6545251"><ele>18.5</ele><time>2026-04-12T08:04:56.02Z</time></trkpt><trkpt lat="40.7709319" lon="9.6545854"><ele>17.75</ele><time>2026-04-12T08:04:57.01Z</time></trkpt><trkpt lat="40.7710444" lon="9.6546435"><ele>17.0</ele><time>2026-04-12T08:04:58.009Z</time></trkpt><trkpt lat="40.7711529" lon="9.6546968"><ele>17.0</ele><time>2026-04-12T08:04:59.013Z</time></trkpt><trkpt lat="40.7712608" lon="9.6547502"><ele>17.0</ele><time>2026-04-12T08:05:00.019Z</time></trkpt><trkpt lat="40.7713664" lon="9.6548061"><ele>17.0</ele><time>2026-04-12T08:05:01.008Z</time></trkpt><trkpt lat="40.7714761" lon="9.6548626"><ele>17.0</ele><time>2026-04-12T08:05:02.005Z</time></trkpt><trkpt lat="40.7715905" lon="9.6549216"><ele>17.0</ele><time>2026-04-12T08:05:03.005Z</time></trkpt><trkpt lat="40.7717062" lon="9.6549852"><ele>17.0</ele><time>2026-04-12T08:05:04.016Z</time></trkpt><trkpt lat="40.7718195" lon="9.6550451"><ele>17.0</ele><time>2026-04-12T08:05:05.007Z</time></trkpt><trkpt lat="40.7719356" lon="9.6550999"><ele>17.0</ele><time>2026-04-12T08:05:06.011Z</time></trkpt><trkpt lat="40.7720504" lon="9.6551585"><ele>16.5</ele><time>2026-04-12T08:05:07.016Z</time></trkpt><trkpt lat="40.7721679" lon="9.6552194"><ele>16.0</ele><time>2026-04-12T08:05:08.008Z</time></trkpt><trkpt lat="40.7722858" lon="9.6552797"><ele>15.5</ele><time>2026-04-12T08:05:09.012Z</time></trkpt><trkpt lat="40.772405" lon="9.655341"><ele>15.0</ele><time>2026-04-12T08:05:10.02Z</time></trkpt><trkpt lat="40.7725165" lon="9.6553998"><ele>14.5</ele><time>2026-04-12T08:05:11.005Z</time></trkpt><trkpt lat="40.7726255" lon="9.6554536"><ele>14.0</ele><time>2026-04-12T08:05:12.008Z</time></trkpt><trkpt lat="40.772735" lon="9.6555098"><ele>13.5</ele><time>2026-04-12T08:05:13.001Z</time></trkpt><trkpt lat="40.7728487" lon="9.6555659"><ele>13.0</ele><time>2026-04-12T08:05:14Z</time></trkpt><trkpt lat="40.772963" lon="9.6556251"><ele>13.0</ele><time>2026-04-12T08:05:15.002Z</time></trkpt><trkpt lat="40.7730777" lon="9.6556871"><ele>13.0</ele><time>2026-04-12T08:05:16.011Z</time></trkpt><trkpt lat="40.7731904" lon="9.6557424"><ele>13.0</ele><time>2026-04-12T08:05:17.006Z</time></trkpt><trkpt lat="40.7733055" lon="9.6557991"><ele>13.0</ele><time>2026-04-12T08:05:18.003Z</time></trkpt><trkpt lat="40.7734266" lon="9.6558619"><ele>13.25</ele><time>2026-04-12T08:05:18.997Z</time></trkpt><trkpt lat="40.7735531" lon="9.6559213"><ele>13.5</ele><time>2026-04-12T08:05:20.002Z</time></trkpt><trkpt lat="40.7736798" lon="9.6559784"><ele>13.75</ele><time>2026-04-12T08:05:21.001Z</time></trkpt><trkpt lat="40.7738055" lon="9.6560338"><ele>14.0</ele><time>2026-04-12T08:05:21.994Z</time></trkpt><trkpt lat="40.773932" lon="9.6560806"><ele>13.25</ele><time>2026-04-12T08:05:23.008Z</time></trkpt><trkpt lat="40.774057" lon="9.6561245"><ele>12.5</ele><time>2026-04-12T08:05:24.01Z</time></trkpt><trkpt lat="40.7741879" lon="9.6561669"><ele>11.75</ele><time>2026-04-12T08:05:25.004Z</time></trkpt><trkpt lat="40.7743181" lon="9.6562133"><ele>11.0</ele><time>2026-04-12T08:05:25.997Z</time></trkpt><trkpt lat="40.7744491" lon="9.65626"><ele>10.75</ele><time>2026-04-12T08:05:27.005Z</time></trkpt><trkpt lat="40.7745794" lon="9.6563016"><ele>10.5</ele><time>2026-04-12T08:05:28.015Z</time></trkpt><trkpt lat="40.7747056" lon="9.6563445"><ele>10.25</ele><time>2026-04-12T08:05:29Z</time></trkpt><trkpt lat="40.7748374" lon="9.6563878"><ele>10.0</ele><time>2026-04-12T08:05:29.994Z</time></trkpt><trkpt lat="40.7749666" lon="9.6564304"><ele>10.0</ele><time>2026-04-12T08:05:31Z</time></trkpt><trkpt lat="40.7750995" lon="9.6564718"><ele>10.0</ele><time>2026-04-12T08:05:31.999Z</time></trkpt><trkpt lat="40.7752315" lon="9.6565163"><ele>10.0</ele><time>2026-04-12T08:05:32.991Z</time></trkpt><trkpt lat="40.7753638" lon="9.656559"><ele>10.0</ele><time>2026-04-12T08:05:33.997Z</time></trkpt><trkpt lat="40.7754935" lon="9.6566038"><ele>10.25</ele><time>2026-04-12T08:05:34.996Z</time></trkpt><trkpt lat="40.7756172" lon="9.6566461"><ele>10.5</ele><time>2026-04-12T08:05:35.995Z</time></trkpt><trkpt lat="40.7757445" lon="9.6566834"><ele>10.75</ele><time>2026-04-12T08:05:36.995Z</time></trkpt><trkpt lat="40.7758695" lon="9.6567256"><ele>11.0</ele><time>2026-04-12T08:05:38.003Z</time></trkpt><trkpt lat="40.775991" lon="9.6567645"><ele>10.75</ele><time>2026-04-12T08:05:39.001Z</time></trkpt><trkpt lat="40.7761154" lon="9.656802"><ele>10.5</ele><time>2026-04-12T08:05:39.994Z</time></trkpt><trkpt lat="40.7762423" lon="9.6568431"><ele>10.25</ele><time>2026-04-12T08:05:40.996Z</time></trkpt><trkpt lat="40.7763732" lon="9.6568829"><ele>10.0</ele><time>2026-04-12T08:05:42.008Z</time></trkpt><trkpt lat="40.7765026" lon="9.6569231"><ele>9.5</ele><time>2026-04-12T08:05:42.989Z</time></trkpt><trkpt lat="40.7766306" lon="9.6569609"><ele>9.0</ele><time>2026-04-12T08:05:44.003Z</time></trkpt><trkpt lat="40.7767607" lon="9.6569952"><ele>8.5</ele><time>2026-04-12T08:05:45.007Z</time></trkpt><trkpt lat="40.7768925" lon="9.6570233"><ele>8.0</ele><time>2026-04-12T08:05:45.997Z</time></trkpt><trkpt lat="40.77702" lon="9.6570506"><ele>7.75</ele><time>2026-04-12T08:05:46.989Z</time></trkpt><trkpt lat="40.7771463" lon="9.6570792"><ele>7.5</ele><time>2026-04-12T08:05:48.002Z</time></trkpt><trkpt lat="40.7772729" lon="9.6571066"><ele>7.25</ele><time>2026-04-12T08:05:48.997Z</time></trkpt><trkpt lat="40.7774031" lon="9.6571323"><ele>7.0</ele><time>2026-04-12T08:05:50.009Z</time></trkpt><trkpt lat="40.7775351" lon="9.6571574"><ele>7.0</ele><time>2026-04-12T08:05:50.99Z</time></trkpt><trkpt lat="40.7776695" lon="9.6571822"><ele>7.0</ele><time>2026-04-12T08:05:52.004Z</time></trkpt><trkpt lat="40.7778052" lon="9.6572083"><ele>7.0</ele><time>2026-04-12T08:05:52.989Z</time></trkpt><trkpt lat="40.7779404" lon="9.6572325"><ele>7.0</ele><time>2026-04-12T08:05:53.989Z</time></trkpt><trkpt lat="40.778067" lon="9.6572577"><ele>7.0</ele><time>2026-04-12T08:05:54.985Z</time></trkpt><trkpt lat="40.7781968" lon="9.6572832"><ele>7.0</ele><time>2026-04-12T08:05:55.998Z</time></trkpt><trkpt lat="40.7783258" lon="9.6573089"><ele>7.0</ele><time>2026-04-12T08:05:56.993Z</time></trkpt><trkpt lat="40.7784487" lon="9.657334"><ele>7.0</ele><time>2026-04-12T08:05:57.988Z</time></trkpt><trkpt lat="40.7785673" lon="9.6573602"><ele>7.0</ele><time>2026-04-12T08:05:58.992Z</time></trkpt><trkpt lat="40.7786868" lon="9.6573863"><ele>7.0</ele><time>2026-04-12T08:05:59.993Z</time></trkpt><trkpt lat="40.7788078" lon="9.6574083"><ele>7.0</ele><time>2026-04-12T08:06:00.982Z</time></trkpt><trkpt lat="40.778931" lon="9.6574332"><ele>7.0</ele><time>2026-04-12T08:06:01.985Z</time></trkpt><trkpt lat="40.7790532" lon="9.6574631"><ele>7.0</ele><time>2026-04-12T08:06:02.992Z</time></trkpt><trkpt lat="40.7791792" lon="9.6574866"><ele>7.0</ele><time>2026-04-12T08:06:03.978Z</time></trkpt><trkpt lat="40.7793102" lon="9.6575087"><ele>7.0</ele><time>2026-04-12T08:06:04.982Z</time></trkpt><trkpt lat="40.7794457" lon="9.6575338"><ele>7.0</ele><time>2026-04-12T08:06:05.983Z</time></trkpt><trkpt lat="40.7795802" lon="9.6575625"><ele>7.0</ele><time>2026-04-12T08:06:06.973Z</time></trkpt><trkpt lat="40.7797149" lon="9.6575897"><ele>7.0</ele><time>2026-04-12T08:06:07.986Z</time></trkpt><trkpt lat="40.7798477" lon="9.6576122"><ele>7.0</ele><time>2026-04-12T08:06:08.979Z</time></trkpt><trkpt lat="40.7799741" lon="9.6576377"><ele>7.0</ele><time>2026-04-12T08:06:09.982Z</time></trkpt><trkpt lat="40.7800992" lon="9.6576674"><ele>6.75</ele><time>2026-04-12T08:06:10.989Z</time></trkpt><trkpt lat="40.7802264" lon="9.657693"><ele>6.5</ele><time>2026-04-12T08:06:11.976Z</time></trkpt><trkpt lat="40.7803541" lon="9.6577189"><ele>6.25</ele><time>2026-04-12T08:06:12.982Z</time></trkpt><trkpt lat="40.7804826" lon="9.6577452"><ele>6.0</ele><time>2026-04-12T08:06:13.988Z</time></trkpt><trkpt lat="40.7806131" lon="9.6577707"><ele>5.75</ele><time>2026-04-12T08:06:14.977Z</time></trkpt><trkpt lat="40.7807457" lon="9.6577889"><ele>5.5</ele><time>2026-04-12T08:06:15.984Z</time></trkpt><trkpt lat="40.7808724" lon="9.6578051"><ele>5.25</ele><time>2026-04-12T08:06:16.983Z</time></trkpt><trkpt lat="40.7810012" lon="9.6578192"><ele>5.0</ele><time>2026-04-12T08:06:17.983Z</time></trkpt><trkpt lat="40.7811319" lon="9.6578258"><ele>4.75</ele><time>2026-04-12T08:06:18.981Z</time></trkpt><trkpt lat="40.7812626" lon="9.6578275"><ele>4.5</ele><time>2026-04-12T08:06:19.997Z</time></trkpt><trkpt lat="40.7813922" lon="9.6578246"><ele>4.25</ele><time>2026-04-12T08:06:20.975Z</time></trkpt><trkpt lat="40.7815228" lon="9.6578178"><ele>4.0</ele><time>2026-04-12T08:06:21.975Z</time></trkpt><trkpt lat="40.7816546" lon="9.6578136"><ele>4.0</ele><time>2026-04-12T08:06:22.973Z</time></trkpt><trkpt lat="40.7817922" lon="9.6578045"><ele>4.0</ele><time>2026-04-12T08:06:23.982Z</time></trkpt><trkpt lat="40.7819291" lon="9.6577959"><ele>4.0</ele><time>2026-04-12T08:06:24.974Z</time></trkpt><trkpt lat="40.7820659" lon="9.6577832"><ele>4.0</ele><time>2026-04-12T08:06:25.995Z</time></trkpt><trkpt lat="40.782208" lon="9.6577766"><ele>4.0</ele><time>2026-04-12T08:06:26.971Z</time></trkpt><trkpt lat="40.782351" lon="9.6577645"><ele>4.0</ele><time>2026-04-12T08:06:27.967Z</time></trkpt><trkpt lat="40.7824934" lon="9.6577529"><ele>4.0</ele><time>2026-04-12T08:06:28.977Z</time></trkpt><trkpt lat="40.7826376" lon="9.6577385"><ele>4.0</ele><time>2026-04-12T08:06:29.969Z</time></trkpt><trkpt lat="40.7827818" lon="9.6577243"><ele>4.0</ele><time>2026-04-12T08:06:30.964Z</time></trkpt><trkpt lat="40.7829257" lon="9.6577134"><ele>4.0</ele><time>2026-04-12T08:06:31.978Z</time></trkpt><trkpt lat="40.7830669" lon="9.6577044"><ele>4.0</ele><time>2026-04-12T08:06:32.962Z</time></trkpt><trkpt lat="40.7832045" lon="9.6576961"><ele>4.0</ele><time>2026-04-12T08:06:33.96Z</time></trkpt><trkpt lat="40.78334" lon="9.65769"><ele>4.0</ele><time>2026-04-12T08:06:34.963Z</time></trkpt><trkpt lat="40.7834768" lon="9.6576845"><ele>4.0</ele><time>2026-04-12T08:06:35.974Z</time></trkpt><trkpt lat="40.7836109" lon="9.6576766"><ele>4.0</ele><time>2026-04-12T08:06:36.981Z</time></trkpt><trkpt lat="40.7837447" lon="9.6576682"><ele>4.0</ele><time>2026-04-12T08:06:37.969Z</time></trkpt><trkpt lat="40.7838693" lon="9.6576556"><ele>3.5</ele><time>2026-04-12T08:06:38.966Z</time></trkpt><trkpt lat="40.7839918" lon="9.6576486"><ele>3.0</ele><time>2026-04-12T08:06:39.971Z</time></trkpt><trkpt lat="40.7841058" lon="9.6576408"><ele>2.5</ele><time>2026-04-12T08:06:40.971Z</time></trkpt><trkpt lat="40.7842214" lon="9.6576409"><ele>2.0</ele><time>2026-04-12T08:06:41.97Z</time></trkpt><trkpt lat="40.7843303" lon="9.6576464"><ele>2.0</ele><time>2026-04-12T08:06:42.974Z</time></trkpt><trkpt lat="40.784435" lon="9.6576717"><ele>2.0</ele><time>2026-04-12T08:06:43.965Z</time></trkpt><trkpt lat="40.7845269" lon="9.6577096"><ele>2.0</ele><time>2026-04-12T08:06:44.965Z</time></trkpt><trkpt lat="40.7846173" lon="9.6577438"><ele>2.0</ele><time>2026-04-12T08:06:45.96Z</time></trkpt><trkpt lat="40.7847025" lon="9.657737"><ele>2.0</ele><time>2026-04-12T08:06:46.968Z</time></trkpt><trkpt lat="40.7847896" lon="9.6576887"><ele>2.0</ele><time>2026-04-12T08:06:47.97Z</time></trkpt><trkpt lat="40.7848862" lon="9.6576285"><ele>2.0</ele><time>2026-04-12T08:06:48.973Z</time></trkpt><trkpt lat="40.7850038" lon="9.6576012"><ele>2.0</ele><time>2026-04-12T08:06:49.964Z</time></trkpt><trkpt lat="40.7851327" lon="9.6575832"><ele>2.0</ele><time>2026-04-12T08:06:50.968Z</time></trkpt><trkpt lat="40.7852664" lon="9.6575691"><ele>2.0</ele><time>2026-04-12T08:06:51.966Z</time></trkpt><trkpt lat="40.7854054" lon="9.6575567"><ele>2.0</ele><time>2026-04-12T08:06:52.964Z</time></trkpt><trkpt lat="40.7855484" lon="9.6575455"><ele>2.0</ele><time>2026-04-12T08:06:53.967Z</time></trkpt><trkpt lat="40.7857083" lon="9.6575357"><ele>2.0</ele><time>2026-04-12T08:06:54.962Z</time></trkpt><trkpt lat="40.7858722" lon="9.6575244"><ele>1.3333333333333333</ele><time>2026-04-12T08:06:55.959Z</time></trkpt><trkpt lat="40.786039" lon="9.657506"><ele>0.6666666666666666</ele><time>2026-04-12T08:06:56.972Z</time></trkpt><trkpt lat="40.7862037" lon="9.6574856"><ele>0.0</ele><time>2026-04-12T08:06:57.956Z</time></trkpt><trkpt lat="40.7863673" lon="9.6574677"><ele>0.0</ele><time>2026-04-12T08:06:58.956Z</time></trkpt><trkpt lat="40.7865338" lon="9.6574481"><ele>0.0</ele><time>2026-04-12T08:06:59.96Z</time></trkpt><trkpt lat="40.786694" lon="9.657429"><ele>0.0</ele><time>2026-04-12T08:07:00.975Z</time></trkpt><trkpt lat="40.7868494" lon="9.6574106"><ele>0.0</ele><time>2026-04-12T08:07:01.962Z</time></trkpt><trkpt lat="40.7870023" lon="9.6573914"><ele>0.0</ele><time>2026-04-12T08:07:02.959Z</time></trkpt><trkpt lat="40.7871568" lon="9.6573699"><ele>0.0</ele><time>2026-04-12T08:07:03.957Z</time></trkpt><trkpt lat="40.7873055" lon="9.6573494"><ele>0.0</ele><time>2026-04-12T08:07:04.959Z</time></trkpt><trkpt lat="40.7874508" lon="9.6573286"><ele>0.0</ele><time>2026-04-12T08:07:05.96Z</time></trkpt><trkpt lat="40.7875975" lon="9.6573033"><ele>0.0</ele><time>2026-04-12T08:07:06.961Z</time></trkpt><trkpt lat="40.7877401" lon="9.6572703"><ele>0.0</ele><time>2026-04-12T08:07:07.99Z</time></trkpt><trkpt lat="40.7878815" lon="9.6572329"><ele>0.25</ele><time>2026-04-12T08:07:08.952Z</time></trkpt><trkpt lat="40.7880248" lon="9.6571864"><ele>0.5</ele><time>2026-04-12T08:07:09.956Z</time></trkpt><trkpt lat="40.7881679" lon="9.6571446"><ele>0.75</ele><time>2026-04-12T08:07:10.953Z</time></trkpt><trkpt lat="40.7883091" lon="9.6571036"><ele>1.0</ele><time>2026-04-12T08:07:11.953Z</time></trkpt><trkpt lat="40.7884534" lon="9.657058"><ele>1.0</ele><time>2026-04-12T08:07:12.965Z</time></trkpt><trkpt lat="40.7885986" lon="9.6570117"><ele>1.0</ele><time>2026-04-12T08:07:13.962Z</time></trkpt><trkpt lat="40.7887465" lon="9.6569691"><ele>1.0</ele><time>2026-04-12T08:07:14.95Z</time></trkpt><trkpt lat="40.7888992" lon="9.6569251"><ele>1.0</ele><time>2026-04-12T08:07:15.95Z</time></trkpt><trkpt lat="40.7890471" lon="9.6568783"><ele>1.0</ele><time>2026-04-12T08:07:16.946Z</time></trkpt><trkpt lat="40.7891968" lon="9.6568321"><ele>1.0</ele><time>2026-04-12T08:07:17.948Z</time></trkpt><trkpt lat="40.7893483" lon="9.6567837"><ele>2.3333333333333335</ele><time>2026-04-12T08:07:18.948Z</time></trkpt><trkpt lat="40.7894953" lon="9.6567334"><ele>3.666666666666667</ele><time>2026-04-12T08:07:19.946Z</time></trkpt><trkpt lat="40.7896444" lon="9.6566912"><ele>5.0</ele><time>2026-04-12T08:07:20.975Z</time></trkpt><trkpt lat="40.7897961" lon="9.6566491"><ele>5.0</ele><time>2026-04-12T08:07:21.965Z</time></trkpt><trkpt lat="40.7899429" lon="9.6566034"><ele>5.0</ele><time>2026-04-12T08:07:22.946Z</time></trkpt><trkpt lat="40.7900942" lon="9.6565577"><ele>5.0</ele><time>2026-04-12T08:07:23.953Z</time></trkpt><trkpt lat="40.7902456" lon="9.6565087"><ele>4.666666666666667</ele><time>2026-04-12T08:07:24.959Z</time></trkpt><trkpt lat="40.7903957" lon="9.6564632"><ele>4.333333333333333</ele><time>2026-04-12T08:07:25.949Z</time></trkpt><trkpt lat="40.7905491" lon="9.6564154"><ele>4.0</ele><time>2026-04-12T08:07:26.953Z</time></trkpt><trkpt lat="40.7907007" lon="9.6563752"><ele>4.0</ele><time>2026-04-12T08:07:27.943Z</time></trkpt><trkpt lat="40.7908518" lon="9.6563343"><ele>4.0</ele><time>2026-04-12T08:07:28.94Z</time></trkpt><trkpt lat="40.7910014" lon="9.6562972"><ele>4.0</ele><time>2026-04-12T08:07:29.944Z</time></trkpt><trkpt lat="40.791151" lon="9.65626"><ele>3.333333333333333</ele><time>2026-04-12T08:07:30.951Z</time></trkpt><trkpt lat="40.7913035" lon="9.6562338"><ele>2.6666666666666665</ele><time>2026-04-12T08:07:31.944Z</time></trkpt><trkpt lat="40.7914572" lon="9.6562106"><ele>2.0</ele><time>2026-04-12T08:07:32.942Z</time></trkpt><trkpt lat="40.7916062" lon="9.6561923"><ele>2.0</ele><time>2026-04-12T08:07:33.94Z</time></trkpt><trkpt lat="40.7917462" lon="9.6561754"><ele>2.0</ele><time>2026-04-12T08:07:34.945Z</time></trkpt><trkpt lat="40.791873" lon="9.6561611"><ele>2.0</ele><time>2026-04-12T08:07:35.945Z</time></trkpt><trkpt lat="40.7920004" lon="9.6561453"><ele>2.0</ele><time>2026-04-12T08:07:36.942Z</time></trkpt><trkpt lat="40.7921251" lon="9.6561325"><ele>2.0</ele><time>2026-04-12T08:07:37.945Z</time></trkpt><trkpt lat="40.7922489" lon="9.6561136"><ele>2.0</ele><time>2026-04-12T08:07:38.941Z</time></trkpt><trkpt lat="40.7923704" lon="9.6561015"><ele>2.0</ele><time>2026-04-12T08:07:39.944Z</time></trkpt><trkpt lat="40.7924875" lon="9.6560926"><ele>2.0</ele><time>2026-04-12T08:07:40.943Z</time></trkpt><trkpt lat="40.7926009" lon="9.6560851"><ele>2.2</ele><time>2026-04-12T08:07:41.946Z</time></trkpt><trkpt lat="40.7927087" lon="9.6560732"><ele>2.4000000000000004</ele><time>2026-04-12T08:07:42.945Z</time></trkpt><trkpt lat="40.7928059" lon="9.6560633"><ele>2.5999999999999996</ele><time>2026-04-12T08:07:43.94Z</time></trkpt><trkpt lat="40.792892" lon="9.6560504"><ele>2.8</ele><time>2026-04-12T08:07:44.935Z</time></trkpt><trkpt lat="40.7929658" lon="9.6560298"><ele>3.0</ele><time>2026-04-12T08:07:45.942Z</time></trkpt><trkpt lat="40.793058" lon="9.6559281"><ele>3.0</ele><time>2026-04-12T08:07:47.934Z</time></trkpt><trkpt lat="40.7930678" lon="9.6558348"><ele>3.0</ele><time>2026-04-12T08:07:48.942Z</time></trkpt><trkpt lat="40.7930818" lon="9.6557152"><ele>3.0</ele><time>2026-04-12T08:07:49.941Z</time></trkpt><trkpt lat="40.7931071" lon="9.6555768"><ele>3.0</ele><time>2026-04-12T08:07:50.932Z</time></trkpt><trkpt lat="40.793141" lon="9.6554349"><ele>3.0</ele><time>2026-04-12T08:07:51.931Z</time></trkpt><trkpt lat="40.7931737" lon="9.6552884"><ele>2.75</ele><time>2026-04-12T08:07:52.926Z</time></trkpt><trkpt lat="40.7932082" lon="9.6551329"><ele>2.5</ele><time>2026-04-12T08:07:53.936Z</time></trkpt><trkpt lat="40.7932435" lon="9.6549651"><ele>2.25</ele><time>2026-04-12T08:07:54.936Z</time></trkpt><trkpt lat="40.7932759" lon="9.6548016"><ele>2.0</ele><time>2026-04-12T08:07:55.925Z</time></trkpt><trkpt lat="40.7933101" lon="9.6546405"><ele>2.0</ele><time>2026-04-12T08:07:56.925Z</time></trkpt><trkpt lat="40.7933468" lon="9.6544771"><ele>2.0</ele><time>2026-04-12T08:07:57.932Z</time></trkpt><trkpt lat="40.7933823" lon="9.6543182"><ele>2.0</ele><time>2026-04-12T08:07:58.934Z</time></trkpt><trkpt lat="40.7934162" lon="9.6541589"><ele>2.0</ele><time>2026-04-12T08:07:59.929Z</time></trkpt><trkpt lat="40.7934513" lon="9.654"><ele>2.5</ele><time>2026-04-12T08:08:00.925Z</time></trkpt><trkpt lat="40.7934862" lon="9.6538414"><ele>3.0</ele><time>2026-04-12T08:08:01.926Z</time></trkpt><trkpt lat="40.7935173" lon="9.6536819"><ele>3.5</ele><time>2026-04-12T08:08:02.933Z</time></trkpt><trkpt lat="40.7935555" lon="9.6535207"><ele>4.0</ele><time>2026-04-12T08:08:03.925Z</time></trkpt><trkpt lat="40.793592" lon="9.6533574"><ele>4.0</ele><time>2026-04-12T08:08:04.922Z</time></trkpt><trkpt lat="40.7936252" lon="9.6532001"><ele>4.0</ele><time>2026-04-12T08:08:05.93Z</time></trkpt><trkpt lat="40.7936598" lon="9.6530459"><ele>4.0</ele><time>2026-04-12T08:08:06.922Z</time></trkpt><trkpt lat="40.7936983" lon="9.6528936"><ele>4.0</ele><time>2026-04-12T08:08:07.931Z</time></trkpt><trkpt lat="40.7937359" lon="9.6527403"><ele>4.5</ele><time>2026-04-12T08:08:08.935Z</time></trkpt><trkpt lat="40.7937687" lon="9.6525859"><ele>5.0</ele><time>2026-04-12T08:08:09.925Z</time></trkpt><trkpt lat="40.7938012" lon="9.6524297"><ele>5.5</ele><time>2026-04-12T08:08:10.92Z</time></trkpt><trkpt lat="40.7938361" lon="9.6522762"><ele>6.0</ele><time>2026-04-12T08:08:11.919Z</time></trkpt><trkpt lat="40.7938725" lon="9.652119"><ele>6.0</ele><time>2026-04-12T08:08:12.949Z</time></trkpt><trkpt lat="40.7939091" lon="9.6519556"><ele>6.0</ele><time>2026-04-12T08:08:13.921Z</time></trkpt><trkpt lat="40.7939431" lon="9.6517908"><ele>6.0</ele><time>2026-04-12T08:08:14.92Z</time></trkpt><trkpt lat="40.7939782" lon="9.6516239"><ele>6.0</ele><time>2026-04-12T08:08:15.918Z</time></trkpt><trkpt lat="40.7940164" lon="9.6514556"><ele>6.0</ele><time>2026-04-12T08:08:16.919Z</time></trkpt><trkpt lat="40.7940534" lon="9.6512915"><ele>6.0</ele><time>2026-04-12T08:08:17.933Z</time></trkpt><trkpt lat="40.7940897" lon="9.6511315"><ele>6.0</ele><time>2026-04-12T08:08:18.925Z</time></trkpt><trkpt lat="40.7941233" lon="9.6509853"><ele>6.0</ele><time>2026-04-12T08:08:19.922Z</time></trkpt><trkpt lat="40.7941532" lon="9.6508437"><ele>6.4</ele><time>2026-04-12T08:08:20.929Z</time></trkpt><trkpt lat="40.7941816" lon="9.6507067"><ele>6.8</ele><time>2026-04-12T08:08:21.916Z</time></trkpt><trkpt lat="40.7942102" lon="9.650572"><ele>7.200000000000001</ele><time>2026-04-12T08:08:22.921Z</time></trkpt><trkpt lat="40.7942381" lon="9.6504403"><ele>7.6000000000000005</ele><time>2026-04-12T08:08:23.92Z</time></trkpt><trkpt lat="40.7942741" lon="9.6503129"><ele>8.0</ele><time>2026-04-12T08:08:24.915Z</time></trkpt><trkpt lat="40.79432" lon="9.6501913"><ele>8.25</ele><time>2026-04-12T08:08:25.921Z</time></trkpt><trkpt lat="40.794379" lon="9.6500762"><ele>8.5</ele><time>2026-04-12T08:08:26.923Z</time></trkpt><trkpt lat="40.7944558" lon="9.6499669"><ele>8.75</ele><time>2026-04-12T08:08:27.917Z</time></trkpt><trkpt lat="40.7945517" lon="9.6498635"><ele>9.0</ele><time>2026-04-12T08:08:28.921Z</time></trkpt><trkpt lat="40.7946588" lon="9.6497631"><ele>9.0</ele><time>2026-04-12T08:08:29.926Z</time></trkpt><trkpt lat="40.7947705" lon="9.6496649"><ele>9.0</ele><time>2026-04-12T08:08:30.932Z</time></trkpt><trkpt lat="40.7948851" lon="9.649564"><ele>9.0</ele><time>2026-04-12T08:08:32.026Z</time></trkpt><trkpt lat="40.7951249" lon="9.6493551"><ele>8.666666666666666</ele><time>2026-04-12T08:08:33.915Z</time></trkpt><trkpt lat="40.7952536" lon="9.649237"><ele>8.333333333333332</ele><time>2026-04-12T08:08:34.926Z</time></trkpt><trkpt lat="40.7953868" lon="9.649122"><ele>8.0</ele><time>2026-04-12T08:08:36.038Z</time></trkpt><trkpt lat="40.795521" lon="9.6490049"><ele>8.0</ele><time>2026-04-12T08:08:37.033Z</time></trkpt><trkpt lat="40.7956574" lon="9.6488876"><ele>8.0</ele><time>2026-04-12T08:08:38.009Z</time></trkpt><trkpt lat="40.7957899" lon="9.6487677"><ele>8.0</ele><time>2026-04-12T08:08:39.025Z</time></trkpt><trkpt lat="40.796056" lon="9.6485444"><ele>8.0</ele><time>2026-04-12T08:08:40.911Z</time></trkpt><trkpt lat="40.7961856" lon="9.6484359"><ele>8.0</ele><time>2026-04-12T08:08:42.016Z</time></trkpt><trkpt lat="40.7963124" lon="9.6483311"><ele>8.0</ele><time>2026-04-12T08:08:43.022Z</time></trkpt><trkpt lat="40.796437" lon="9.6482297"><ele>8.0</ele><time>2026-04-12T08:08:44.025Z</time></trkpt><trkpt lat="40.7965587" lon="9.6481301"><ele>8.0</ele><time>2026-04-12T08:08:45.024Z</time></trkpt><trkpt lat="40.7966779" lon="9.6480288"><ele>8.0</ele><time>2026-04-12T08:08:46.016Z</time></trkpt><trkpt lat="40.7969129" lon="9.6478245"><ele>8.0</ele><time>2026-04-12T08:08:47.916Z</time></trkpt><trkpt lat="40.7970238" lon="9.6477269"><ele>8.0</ele><time>2026-04-12T08:08:49.02Z</time></trkpt><trkpt lat="40.797127" lon="9.6476186"><ele>8.0</ele><time>2026-04-12T08:08:50.009Z</time></trkpt><trkpt lat="40.7972143" lon="9.6475018"><ele>8.0</ele><time>2026-04-12T08:08:51.01Z</time></trkpt><trkpt lat="40.7972896" lon="9.647364"><ele>8.0</ele><time>2026-04-12T08:08:52.028Z</time></trkpt><trkpt lat="40.7973632" lon="9.647215"><ele>8.0</ele><time>2026-04-12T08:08:53.017Z</time></trkpt><trkpt lat="40.7974347" lon="9.6470631"><ele>8.0</ele><time>2026-04-12T08:08:54.012Z</time></trkpt><trkpt lat="40.7975108" lon="9.6469134"><ele>8.0</ele><time>2026-04-12T08:08:55.011Z</time></trkpt><trkpt lat="40.7975886" lon="9.6467622"><ele>8.0</ele><time>2026-04-12T08:08:56.008Z</time></trkpt><trkpt lat="40.7976645" lon="9.6466044"><ele>8.0</ele><time>2026-04-12T08:08:57.014Z</time></trkpt><trkpt lat="40.79774" lon="9.6464461"><ele>8.0</ele><time>2026-04-12T08:08:58.009Z</time></trkpt><trkpt lat="40.7978138" lon="9.6462866"><ele>8.0</ele><time>2026-04-12T08:08:59.006Z</time></trkpt><trkpt lat="40.7978906" lon="9.6461315"><ele>8.0</ele><time>2026-04-12T08:09:00.015Z</time></trkpt><trkpt lat="40.7979684" lon="9.6459735"><ele>8.5</ele><time>2026-04-12T08:09:01.013Z</time></trkpt><trkpt lat="40.7980496" lon="9.6458128"><ele>9.0</ele><time>2026-04-12T08:09:02.012Z</time></trkpt><trkpt lat="40.7981286" lon="9.6456501"><ele>9.5</ele><time>2026-04-12T08:09:03.006Z</time></trkpt><trkpt lat="40.7982039" lon="9.6454898"><ele>10.0</ele><time>2026-04-12T08:09:04.012Z</time></trkpt><trkpt lat="40.7982752" lon="9.6453399"><ele>10.25</ele><time>2026-04-12T08:09:05.008Z</time></trkpt><trkpt lat="40.7983387" lon="9.6451955"><ele>10.5</ele><time>2026-04-12T08:09:06.024Z</time></trkpt><trkpt lat="40.7984045" lon="9.6450628"><ele>10.75</ele><time>2026-04-12T08:09:07.004Z</time></trkpt><trkpt lat="40.7984679" lon="9.6449425"><ele>11.0</ele><time>2026-04-12T08:09:08.014Z</time></trkpt><trkpt lat="40.7985333" lon="9.6448325"><ele>11.4</ele><time>2026-04-12T08:09:09.006Z</time></trkpt><trkpt lat="40.7986008" lon="9.6447349"><ele>11.8</ele><time>2026-04-12T08:09:10.016Z</time></trkpt><trkpt lat="40.7986773" lon="9.6446474"><ele>12.200000000000001</ele><time>2026-04-12T08:09:11.005Z</time></trkpt><trkpt lat="40.7987584" lon="9.6445742"><ele>12.600000000000001</ele><time>2026-04-12T08:09:12.01Z</time></trkpt><trkpt lat="40.7988447" lon="9.6445129"><ele>13.0</ele><time>2026-04-12T08:09:13.006Z</time></trkpt><trkpt lat="40.7989371" lon="9.6444737"><ele>13.0</ele><time>2026-04-12T08:09:14.007Z</time></trkpt><trkpt lat="40.7990306" lon="9.6444625"><ele>13.0</ele><time>2026-04-12T08:09:15.012Z</time></trkpt><trkpt lat="40.7991292" lon="9.644477"><ele>13.0</ele><time>2026-04-12T08:09:16.009Z</time></trkpt><trkpt lat="40.7992274" lon="9.64452"><ele>13.0</ele><time>2026-04-12T08:09:17.016Z</time></trkpt><trkpt lat="40.7993269" lon="9.6445848"><ele>13.0</ele><time>2026-04-12T08:09:18.008Z</time></trkpt><trkpt lat="40.7994268" lon="9.6446492"><ele>12.8</ele><time>2026-04-12T08:09:19.002Z</time></trkpt><trkpt lat="40.7995271" lon="9.6447015"><ele>12.600000000000001</ele><time>2026-04-12T08:09:20.005Z</time></trkpt><trkpt lat="40.7996303" lon="9.6447335"><ele>12.399999999999999</ele><time>2026-04-12T08:09:21.021Z</time></trkpt><trkpt lat="40.7997321" lon="9.6447525"><ele>12.2</ele><time>2026-04-12T08:09:22.006Z</time></trkpt><trkpt lat="40.7998313" lon="9.6447677"><ele>12.0</ele><time>2026-04-12T08:09:23.001Z</time></trkpt><trkpt lat="40.7999284" lon="9.6447633"><ele>12.0</ele><time>2026-04-12T08:09:24.015Z</time></trkpt><trkpt lat="40.8000243" lon="9.6447406"><ele>12.0</ele><time>2026-04-12T08:09:25.014Z</time></trkpt><trkpt lat="40.8001214" lon="9.6447057"><ele>12.0</ele><time>2026-04-12T08:09:26.007Z</time></trkpt><trkpt lat="40.8002265" lon="9.6446754"><ele>12.0</ele><time>2026-04-12T08:09:27.015Z</time></trkpt><trkpt lat="40.8003272" lon="9.6446423"><ele>12.0</ele><time>2026-04-12T08:09:28.007Z</time></trkpt><trkpt lat="40.8004344" lon="9.6446086"><ele>13.0</ele><time>2026-04-12T08:09:29.01Z</time></trkpt><trkpt lat="40.8005384" lon="9.6445734"><ele>14.0</ele><time>2026-04-12T08:09:30.003Z</time></trkpt><trkpt lat="40.8006368" lon="9.6445556"><ele>15.0</ele><time>2026-04-12T08:09:31.006Z</time></trkpt><trkpt lat="40.8007325" lon="9.6445676"><ele>16.0</ele><time>2026-04-12T08:09:32.002Z</time></trkpt><trkpt lat="40.8008253" lon="9.644614"><ele>17.0</ele><time>2026-04-12T08:09:33.003Z</time></trkpt><trkpt lat="40.8009099" lon="9.6446918"><ele>17.0</ele><time>2026-04-12T08:09:34.001Z</time></trkpt><trkpt lat="40.8009927" lon="9.6447821"><ele>17.0</ele><time>2026-04-12T08:09:34.999Z</time></trkpt><trkpt lat="40.8010736" lon="9.6448722"><ele>17.0</ele><time>2026-04-12T08:09:36.013Z</time></trkpt><trkpt lat="40.8011605" lon="9.6449399"><ele>17.0</ele><time>2026-04-12T08:09:37.005Z</time></trkpt><trkpt lat="40.8012442" lon="9.6449987"><ele>17.0</ele><time>2026-04-12T08:09:38.03Z</time></trkpt><trkpt lat="40.801329" lon="9.645046"><ele>17.666666666666668</ele><time>2026-04-12T08:09:38.997Z</time></trkpt><trkpt lat="40.8014111" lon="9.6450986"><ele>18.333333333333336</ele><time>2026-04-12T08:09:40.007Z</time></trkpt><trkpt lat="40.8014875" lon="9.6451526"><ele>19.0</ele><time>2026-04-12T08:09:40.997Z</time></trkpt><trkpt lat="40.8015524" lon="9.6451973"><ele>19.666666666666668</ele><time>2026-04-12T08:09:42.006Z</time></trkpt><trkpt lat="40.8016179" lon="9.6452445"><ele>20.333333333333332</ele><time>2026-04-12T08:09:43.002Z</time></trkpt><trkpt lat="40.8016866" lon="9.6453016"><ele>21.0</ele><time>2026-04-12T08:09:44.003Z</time></trkpt><trkpt lat="40.8017593" lon="9.6453546"><ele>21.333333333333332</ele><time>2026-04-12T08:09:45.004Z</time></trkpt><trkpt lat="40.8018354" lon="9.6453939"><ele>21.666666666666668</ele><time>2026-04-12T08:09:46Z</time></trkpt><trkpt lat="40.8019193" lon="9.6454076"><ele>22.0</ele><time>2026-04-12T08:09:46.997Z</time></trkpt><trkpt lat="40.8020122" lon="9.6454051"><ele>22.333333333333336</ele><time>2026-04-12T08:09:48.009Z</time></trkpt><trkpt lat="40.8021053" lon="9.645398"><ele>22.666666666666668</ele><time>2026-04-12T08:09:48.995Z</time></trkpt><trkpt lat="40.8021928" lon="9.6453923"><ele>23.0</ele><time>2026-04-12T08:09:50.013Z</time></trkpt><trkpt lat="40.8022767" lon="9.6453869"><ele>23.0</ele><time>2026-04-12T08:09:50.997Z</time></trkpt><trkpt lat="40.8023523" lon="9.645385"><ele>23.0</ele><time>2026-04-12T08:09:51.997Z</time></trkpt><trkpt lat="40.8024207" lon="9.6453884"><ele>23.0</ele><time>2026-04-12T08:09:53.004Z</time></trkpt><trkpt lat="40.8025303" lon="9.6453966"><ele>23.0</ele><time>2026-04-12T08:09:55.001Z</time></trkpt><trkpt lat="40.8026073" lon="9.6453594"><ele>23.0</ele><time>2026-04-12T08:09:57.012Z</time></trkpt><trkpt lat="40.802665" lon="9.6452565"><ele>23.0</ele><time>2026-04-12T08:09:58.991Z</time></trkpt><trkpt lat="40.8027139" lon="9.6451023"><ele>25.799999999999997</ele><time>2026-04-12T08:10:00.992Z</time></trkpt><trkpt lat="40.8027235" lon="9.645"><ele>28.6</ele><time>2026-04-12T08:10:01.995Z</time></trkpt><trkpt lat="40.8027228" lon="9.6449032"><ele>31.400000000000002</ele><time>2026-04-12T08:10:02.989Z</time></trkpt><trkpt lat="40.8027259" lon="9.6448135"><ele>34.2</ele><time>2026-04-12T08:10:04.002Z</time></trkpt><trkpt lat="40.8027687" lon="9.6446747"><ele>37.0</ele><time>2026-04-12T08:10:05.996Z</time></trkpt><trkpt lat="40.8028668" lon="9.6445462"><ele>37.0</ele><time>2026-04-12T08:10:08Z</time></trkpt><trkpt lat="40.8029424" lon="9.6444806"><ele>37.0</ele><time>2026-04-12T08:10:08.996Z</time></trkpt><trkpt lat="40.8030151" lon="9.6444205"><ele>37.0</ele><time>2026-04-12T08:10:09.993Z</time></trkpt><trkpt lat="40.8030865" lon="9.6443623"><ele>37.0</ele><time>2026-04-12T08:10:10.994Z</time></trkpt><trkpt lat="40.8031534" lon="9.6442997"><ele>37.0</ele><time>2026-04-12T08:10:12.006Z</time></trkpt><trkpt lat="40.8032105" lon="9.6442227"><ele>37.0</ele><time>2026-04-12T08:10:13.007Z</time></trkpt><trkpt lat="40.8032467" lon="9.6441253"><ele>36.833333333333336</ele><time>2026-04-12T08:10:13.997Z</time></trkpt><trkpt lat="40.8032608" lon="9.6440167"><ele>36.66666666666667</ele><time>2026-04-12T08:10:14.989Z</time></trkpt><trkpt lat="40.8032781" lon="9.6439085"><ele>36.5</ele><time>2026-04-12T08:10:15.994Z</time></trkpt><trkpt lat="40.8033016" lon="9.6437998"><ele>36.333333333333336</ele><time>2026-04-12T08:10:16.997Z</time></trkpt><trkpt lat="40.803333" lon="9.6436927"><ele>36.166666666666664</ele><time>2026-04-12T08:10:18.001Z</time></trkpt><trkpt lat="40.8033731" lon="9.6435894"><ele>36.0</ele><time>2026-04-12T08:10:18.981Z</time></trkpt><trkpt lat="40.8034149" lon="9.643482"><ele>35.0</ele><time>2026-04-12T08:10:19.994Z</time></trkpt><trkpt lat="40.8034549" lon="9.6433669"><ele>34.0</ele><time>2026-04-12T08:10:20.993Z</time></trkpt><trkpt lat="40.8034993" lon="9.6432587"><ele>33.0</ele><time>2026-04-12T08:10:21.988Z</time></trkpt><trkpt lat="40.8035478" lon="9.6431568"><ele>32.0</ele><time>2026-04-12T08:10:22.986Z</time></trkpt><trkpt lat="40.8035982" lon="9.6430634"><ele>31.0</ele><time>2026-04-12T08:10:23.997Z</time></trkpt><trkpt lat="40.8036595" lon="9.6429867"><ele>33.833333333333336</ele><time>2026-04-12T08:10:25.004Z</time></trkpt><trkpt lat="40.8037324" lon="9.6429186"><ele>36.66666666666667</ele><time>2026-04-12T08:10:25.993Z</time></trkpt><trkpt lat="40.8038145" lon="9.6428545"><ele>39.5</ele><time>2026-04-12T08:10:26.988Z</time></trkpt><trkpt lat="40.8038842" lon="9.642787"><ele>42.333333333333336</ele><time>2026-04-12T08:10:27.982Z</time></trkpt><trkpt lat="40.8039356" lon="9.6427091"><ele>45.166666666666664</ele><time>2026-04-12T08:10:28.99Z</time></trkpt><trkpt lat="40.8039717" lon="9.6426068"><ele>48.0</ele><time>2026-04-12T08:10:29.989Z</time></trkpt><trkpt lat="40.803995" lon="9.6424826"><ele>48.0</ele><time>2026-04-12T08:10:30.984Z</time></trkpt><trkpt lat="40.8040138" lon="9.6423371"><ele>48.0</ele><time>2026-04-12T08:10:31.979Z</time></trkpt><trkpt lat="40.8040351" lon="9.6421877"><ele>48.0</ele><time>2026-04-12T08:10:32.983Z</time></trkpt><trkpt lat="40.8040639" lon="9.642031"><ele>48.0</ele><time>2026-04-12T08:10:33.982Z</time></trkpt><trkpt lat="40.8040928" lon="9.6418802"><ele>46.75</ele><time>2026-04-12T08:10:34.982Z</time></trkpt><trkpt lat="40.8041233" lon="9.6417312"><ele>45.5</ele><time>2026-04-12T08:10:35.984Z</time></trkpt><trkpt lat="40.8041564" lon="9.6415803"><ele>44.25</ele><time>2026-04-12T08:10:36.981Z</time></trkpt><trkpt lat="40.8041931" lon="9.6414364"><ele>43.0</ele><time>2026-04-12T08:10:37.975Z</time></trkpt><trkpt lat="40.8042302" lon="9.6412955"><ele>43.0</ele><time>2026-04-12T08:10:38.976Z</time></trkpt><trkpt lat="40.804267" lon="9.6411579"><ele>43.0</ele><time>2026-04-12T08:10:39.975Z</time></trkpt><trkpt lat="40.8042999" lon="9.6410203"><ele>43.0</ele><time>2026-04-12T08:10:40.973Z</time></trkpt><trkpt lat="40.8043332" lon="9.6408834"><ele>43.0</ele><time>2026-04-12T08:10:41.978Z</time></trkpt><trkpt lat="40.8043545" lon="9.6407446"><ele>43.0</ele><time>2026-04-12T08:10:42.979Z</time></trkpt><trkpt lat="40.8043615" lon="9.6406031"><ele>43.0</ele><time>2026-04-12T08:10:43.973Z</time></trkpt><trkpt lat="40.8043446" lon="9.6404671"><ele>43.0</ele><time>2026-04-12T08:10:44.972Z</time></trkpt><trkpt lat="40.8043288" lon="9.6403294"><ele>43.0</ele><time>2026-04-12T08:10:45.978Z</time></trkpt><trkpt lat="40.8043115" lon="9.6401692"><ele>43.0</ele><time>2026-04-12T08:10:46.976Z</time></trkpt><trkpt lat="40.8042873" lon="9.6400081"><ele>43.0</ele><time>2026-04-12T08:10:47.994Z</time></trkpt><trkpt lat="40.8042499" lon="9.6398493"><ele>43.0</ele><time>2026-04-12T08:10:48.977Z</time></trkpt><trkpt lat="40.8042114" lon="9.6396937"><ele>43.0</ele><time>2026-04-12T08:10:49.968Z</time></trkpt><trkpt lat="40.8041787" lon="9.6395347"><ele>43.0</ele><time>2026-04-12T08:10:50.97Z</time></trkpt><trkpt lat="40.804155" lon="9.639374"><ele>43.5</ele><time>2026-04-12T08:10:51.979Z</time></trkpt><trkpt lat="40.8041406" lon="9.6392016"><ele>44.0</ele><time>2026-04-12T08:10:52.98Z</time></trkpt><trkpt lat="40.8041274" lon="9.6390279"><ele>44.5</ele><time>2026-04-12T08:10:53.978Z</time></trkpt><trkpt lat="40.8041007" lon="9.6388712"><ele>45.0</ele><time>2026-04-12T08:10:54.97Z</time></trkpt><trkpt lat="40.8040819" lon="9.6387312"><ele>44.2</ele><time>2026-04-12T08:10:55.974Z</time></trkpt><trkpt lat="40.8040774" lon="9.6386006"><ele>43.4</ele><time>2026-04-12T08:10:56.978Z</time></trkpt><trkpt lat="40.8040891" lon="9.6384802"><ele>42.599999999999994</ele><time>2026-04-12T08:10:57.969Z</time></trkpt><trkpt lat="40.804126" lon="9.6383595"><ele>41.8</ele><time>2026-04-12T08:10:58.979Z</time></trkpt><trkpt lat="40.8041562" lon="9.6382288"><ele>41.0</ele><time>2026-04-12T08:10:59.97Z</time></trkpt><trkpt lat="40.804178" lon="9.6380803"><ele>41.0</ele><time>2026-04-12T08:11:00.976Z</time></trkpt><trkpt lat="40.80419" lon="9.63792"><ele>41.0</ele><time>2026-04-12T08:11:01.979Z</time></trkpt><trkpt lat="40.8041989" lon="9.6377498"><ele>41.0</ele><time>2026-04-12T08:11:02.97Z</time></trkpt><trkpt lat="40.804204" lon="9.6375741"><ele>41.0</ele><time>2026-04-12T08:11:03.976Z</time></trkpt><trkpt lat="40.8042142" lon="9.6373928"><ele>40.5</ele><time>2026-04-12T08:11:04.971Z</time></trkpt><trkpt lat="40.8042207" lon="9.6372162"><ele>40.0</ele><time>2026-04-12T08:11:05.976Z</time></trkpt><trkpt lat="40.8042319" lon="9.6370477"><ele>39.5</ele><time>2026-04-12T08:11:06.966Z</time></trkpt><trkpt lat="40.8042416" lon="9.6368809"><ele>39.0</ele><time>2026-04-12T08:11:07.964Z</time></trkpt><trkpt lat="40.8042562" lon="9.6367217"><ele>40.25</ele><time>2026-04-12T08:11:08.982Z</time></trkpt><trkpt lat="40.8042717" lon="9.6365621"><ele>41.5</ele><time>2026-04-12T08:11:09.962Z</time></trkpt><trkpt lat="40.8042947" lon="9.636402"><ele>42.75</ele><time>2026-04-12T08:11:10.98Z</time></trkpt><trkpt lat="40.8043222" lon="9.6362454"><ele>44.0</ele><time>2026-04-12T08:11:11.965Z</time></trkpt><trkpt lat="40.8043466" lon="9.6360908"><ele>44.0</ele><time>2026-04-12T08:11:12.976Z</time></trkpt><trkpt lat="40.8043733" lon="9.6359392"><ele>44.0</ele><time>2026-04-12T08:11:13.963Z</time></trkpt><trkpt lat="40.8044026" lon="9.6357892"><ele>44.0</ele><time>2026-04-12T08:11:14.968Z</time></trkpt><trkpt lat="40.804434" lon="9.6356388"><ele>44.0</ele><time>2026-04-12T08:11:15.961Z</time></trkpt><trkpt lat="40.8044627" lon="9.6354845"><ele>44.0</ele><time>2026-04-12T08:11:16.961Z</time></trkpt><trkpt lat="40.8044925" lon="9.6353326"><ele>44.0</ele><time>2026-04-12T08:11:17.973Z</time></trkpt><trkpt lat="40.8045226" lon="9.6351798"><ele>44.0</ele><time>2026-04-12T08:11:18.961Z</time></trkpt><trkpt lat="40.8045491" lon="9.6350235"><ele>44.0</ele><time>2026-04-12T08:11:19.954Z</time></trkpt><trkpt lat="40.8045697" lon="9.6348655"><ele>43.75</ele><time>2026-04-12T08:11:20.961Z</time></trkpt><trkpt lat="40.8045716" lon="9.6347207"><ele>43.5</ele><time>2026-04-12T08:11:21.96Z</time></trkpt><trkpt lat="40.8045485" lon="9.6345717"><ele>43.25</ele><time>2026-04-12T08:11:22.955Z</time></trkpt><trkpt lat="40.804519" lon="9.6344197"><ele>43.0</ele><time>2026-04-12T08:11:23.954Z</time></trkpt><trkpt lat="40.8044868" lon="9.6342584"><ele>43.0</ele><time>2026-04-12T08:11:24.957Z</time></trkpt><trkpt lat="40.8044664" lon="9.6340891"><ele>43.0</ele><time>2026-04-12T08:11:25.958Z</time></trkpt><trkpt lat="40.8044482" lon="9.6339243"><ele>43.0</ele><time>2026-04-12T08:11:26.951Z</time></trkpt><trkpt lat="40.8044353" lon="9.633775"><ele>43.0</ele><time>2026-04-12T08:11:27.974Z</time></trkpt><trkpt lat="40.8044332" lon="9.6336227"><ele>42.75</ele><time>2026-04-12T08:11:28.953Z</time></trkpt><trkpt lat="40.8044494" lon="9.6334692"><ele>42.5</ele><time>2026-04-12T08:11:29.953Z</time></trkpt><trkpt lat="40.8044644" lon="9.633308"><ele>42.25</ele><time>2026-04-12T08:11:30.954Z</time></trkpt><trkpt lat="40.8044716" lon="9.633143"><ele>42.0</ele><time>2026-04-12T08:11:31.958Z</time></trkpt><trkpt lat="40.8044626" lon="9.6329737"><ele>41.5</ele><time>2026-04-12T08:11:32.963Z</time></trkpt><trkpt lat="40.8044448" lon="9.6328034"><ele>41.0</ele><time>2026-04-12T08:11:33.961Z</time></trkpt><trkpt lat="40.8044162" lon="9.632631"><ele>40.5</ele><time>2026-04-12T08:11:34.955Z</time></trkpt><trkpt lat="40.8043877" lon="9.6324552"><ele>40.0</ele><time>2026-04-12T08:11:35.953Z</time></trkpt><trkpt lat="40.8043593" lon="9.6322751"><ele>40.0</ele><time>2026-04-12T08:11:36.955Z</time></trkpt><trkpt lat="40.8043324" lon="9.6321137"><ele>40.0</ele><time>2026-04-12T08:11:37.96Z</time></trkpt><trkpt lat="40.8043059" lon="9.6319658"><ele>40.0</ele><time>2026-04-12T08:11:38.96Z</time></trkpt><trkpt lat="40.8042792" lon="9.6318264"><ele>40.0</ele><time>2026-04-12T08:11:39.963Z</time></trkpt><trkpt lat="40.8042546" lon="9.6317044"><ele>40.0</ele><time>2026-04-12T08:11:40.955Z</time></trkpt><trkpt lat="40.8042323" lon="9.6315845"><ele>38.2</ele><time>2026-04-12T08:11:41.951Z</time></trkpt><trkpt lat="40.8042101" lon="9.631466"><ele>36.4</ele><time>2026-04-12T08:11:42.981Z</time></trkpt><trkpt lat="40.8041999" lon="9.6313483"><ele>34.6</ele><time>2026-04-12T08:11:43.955Z</time></trkpt><trkpt lat="40.8041975" lon="9.631228"><ele>32.8</ele><time>2026-04-12T08:11:44.949Z</time></trkpt><trkpt lat="40.8042052" lon="9.6311027"><ele>31.0</ele><time>2026-04-12T08:11:45.954Z</time></trkpt><trkpt lat="40.8042197" lon="9.6309709"><ele>31.0</ele><time>2026-04-12T08:11:46.953Z</time></trkpt><trkpt lat="40.8042366" lon="9.6308327"><ele>31.0</ele><time>2026-04-12T08:11:47.949Z</time></trkpt><trkpt lat="40.8042559" lon="9.6306948"><ele>31.0</ele><time>2026-04-12T08:11:48.952Z</time></trkpt><trkpt lat="40.8042701" lon="9.6305754"><ele>31.0</ele><time>2026-04-12T08:11:49.947Z</time></trkpt><trkpt lat="40.8042802" lon="9.6304575"><ele>31.0</ele><time>2026-04-12T08:11:50.96Z</time></trkpt><trkpt lat="40.8042792" lon="9.6303439"><ele>31.0</ele><time>2026-04-12T08:11:51.941Z</time></trkpt><trkpt lat="40.8042649" lon="9.6302257"><ele>31.0</ele><time>2026-04-12T08:11:52.944Z</time></trkpt><trkpt lat="40.8042457" lon="9.6301022"><ele>31.0</ele><time>2026-04-12T08:11:53.945Z</time></trkpt><trkpt lat="40.8042246" lon="9.6299902"><ele>31.0</ele><time>2026-04-12T08:11:54.947Z</time></trkpt><trkpt lat="40.8042017" lon="9.6298762"><ele>31.0</ele><time>2026-04-12T08:11:55.943Z</time></trkpt><trkpt lat="40.804178" lon="9.6297637"><ele>31.000000000000004</ele><time>2026-04-12T08:11:56.95Z</time></trkpt><trkpt lat="40.8041571" lon="9.6296536"><ele>31.0</ele><time>2026-04-12T08:11:57.974Z</time></trkpt><trkpt lat="40.8041333" lon="9.6295469"><ele>31.0</ele><time>2026-04-12T08:11:58.952Z</time></trkpt><trkpt lat="40.8041068" lon="9.6294453"><ele>31.0</ele><time>2026-04-12T08:11:59.96Z</time></trkpt><trkpt lat="40.8040797" lon="9.6293432"><ele>31.000000000000004</ele><time>2026-04-12T08:12:00.948Z</time></trkpt><trkpt lat="40.8040565" lon="9.6292441"><ele>31.0</ele><time>2026-04-12T08:12:01.949Z</time></trkpt><trkpt lat="40.8040285" lon="9.629144"><ele>31.166666666666668</ele><time>2026-04-12T08:12:02.946Z</time></trkpt><trkpt lat="40.8040003" lon="9.6290366"><ele>31.333333333333336</ele><time>2026-04-12T08:12:03.943Z</time></trkpt><trkpt lat="40.8039726" lon="9.6289295"><ele>31.5</ele><time>2026-04-12T08:12:04.947Z</time></trkpt><trkpt lat="40.8039477" lon="9.6288306"><ele>31.666666666666664</ele><time>2026-04-12T08:12:05.949Z</time></trkpt><trkpt lat="40.80392" lon="9.62874"><ele>31.833333333333332</ele><time>2026-04-12T08:12:06.941Z</time></trkpt><trkpt lat="40.8038905" lon="9.6286491"><ele>32.0</ele><time>2026-04-12T08:12:07.936Z</time></trkpt><trkpt lat="40.8038571" lon="9.6285505"><ele>32.5</ele><time>2026-04-12T08:12:08.947Z</time></trkpt><trkpt lat="40.8038193" lon="9.6284482"><ele>33.0</ele><time>2026-04-12T08:12:09.946Z</time></trkpt><trkpt lat="40.803779" lon="9.6283506"><ele>33.5</ele><time>2026-04-12T08:12:10.937Z</time></trkpt><trkpt lat="40.8037436" lon="9.6282481"><ele>34.0</ele><time>2026-04-12T08:12:11.94Z</time></trkpt><trkpt lat="40.8037101" lon="9.6281344"><ele>34.5</ele><time>2026-04-12T08:12:12.939Z</time></trkpt><trkpt lat="40.803672" lon="9.6280236"><ele>35.0</ele><time>2026-04-12T08:12:13.941Z</time></trkpt><trkpt lat="40.8036373" lon="9.6279173"><ele>35.0</ele><time>2026-04-12T08:12:14.938Z</time></trkpt><trkpt lat="40.8036138" lon="9.6278148"><ele>35.0</ele><time>2026-04-12T08:12:15.938Z</time></trkpt><trkpt lat="40.8036014" lon="9.6277111"><ele>35.0</ele><time>2026-04-12T08:12:16.932Z</time></trkpt><trkpt lat="40.8036028" lon="9.6276112"><ele>35.0</ele><time>2026-04-12T08:12:17.932Z</time></trkpt><trkpt lat="40.8036045" lon="9.6275003"><ele>35.0</ele><time>2026-04-12T08:12:18.944Z</time></trkpt><trkpt lat="40.8036028" lon="9.6273837"><ele>35.0</ele><time>2026-04-12T08:12:19.942Z</time></trkpt><trkpt lat="40.8036051" lon="9.6272642"><ele>35.2</ele><time>2026-04-12T08:12:20.94Z</time></trkpt><trkpt lat="40.8036047" lon="9.6271478"><ele>35.4</ele><time>2026-04-12T08:12:21.947Z</time></trkpt><trkpt lat="40.8036017" lon="9.6270279"><ele>35.6</ele><time>2026-04-12T08:12:22.94Z</time></trkpt><trkpt lat="40.8035944" lon="9.6268994"><ele>35.8</ele><time>2026-04-12T08:12:23.937Z</time></trkpt><trkpt lat="40.8035901" lon="9.6267776"><ele>36.0</ele><time>2026-04-12T08:12:24.933Z</time></trkpt><trkpt lat="40.8035982" lon="9.6266555"><ele>36.4</ele><time>2026-04-12T08:12:25.938Z</time></trkpt><trkpt lat="40.803614" lon="9.6265214"><ele>36.8</ele><time>2026-04-12T08:12:26.941Z</time></trkpt><trkpt lat="40.8036303" lon="9.6263819"><ele>37.199999999999996</ele><time>2026-04-12T08:12:27.932Z</time></trkpt><trkpt lat="40.8036502" lon="9.6262412"><ele>37.6</ele><time>2026-04-12T08:12:28.93Z</time></trkpt><trkpt lat="40.8036707" lon="9.6260998"><ele>38.0</ele><time>2026-04-12T08:12:29.937Z</time></trkpt><trkpt lat="40.8036889" lon="9.6259687"><ele>38.199999999999996</ele><time>2026-04-12T08:12:30.933Z</time></trkpt><trkpt lat="40.8037032" lon="9.6258486"><ele>38.4</ele><time>2026-04-12T08:12:31.936Z</time></trkpt><trkpt lat="40.8037167" lon="9.6257287"><ele>38.599999999999994</ele><time>2026-04-12T08:12:32.933Z</time></trkpt><trkpt lat="40.8037329" lon="9.6256066"><ele>38.8</ele><time>2026-04-12T08:12:33.937Z</time></trkpt><trkpt lat="40.8037392" lon="9.6254929"><ele>39.0</ele><time>2026-04-12T08:12:34.928Z</time></trkpt><trkpt lat="40.8037465" lon="9.6253781"><ele>39.0</ele><time>2026-04-12T08:12:35.932Z</time></trkpt><trkpt lat="40.803756" lon="9.6252723"><ele>39.0</ele><time>2026-04-12T08:12:36.929Z</time></trkpt><trkpt lat="40.8037623" lon="9.6251628"><ele>39.0</ele><time>2026-04-12T08:12:37.929Z</time></trkpt><trkpt lat="40.8037651" lon="9.6250545"><ele>39.0</ele><time>2026-04-12T08:12:38.927Z</time></trkpt><trkpt lat="40.8037674" lon="9.6249471"><ele>39.0</ele><time>2026-04-12T08:12:39.945Z</time></trkpt><trkpt lat="40.8037754" lon="9.6248361"><ele>39.0</ele><time>2026-04-12T08:12:40.931Z</time></trkpt><trkpt lat="40.8037833" lon="9.6247151"><ele>39.0</ele><time>2026-04-12T08:12:41.924Z</time></trkpt><trkpt lat="40.8037906" lon="9.6245895"><ele>39.0</ele><time>2026-04-12T08:12:42.936Z</time></trkpt><trkpt lat="40.8037959" lon="9.6244627"><ele>39.0</ele><time>2026-04-12T08:12:43.93Z</time></trkpt><trkpt lat="40.803803" lon="9.6243306"><ele>39.0</ele><time>2026-04-12T08:12:44.927Z</time></trkpt><trkpt lat="40.8038041" lon="9.6241953"><ele>39.0</ele><time>2026-04-12T08:12:45.927Z</time></trkpt><trkpt lat="40.8038105" lon="9.6240514"><ele>39.0</ele><time>2026-04-12T08:12:46.933Z</time></trkpt><trkpt lat="40.8038183" lon="9.6239011"><ele>39.0</ele><time>2026-04-12T08:12:47.927Z</time></trkpt><trkpt lat="40.8038201" lon="9.6237416"><ele>39.0</ele><time>2026-04-12T08:12:48.924Z</time></trkpt><trkpt lat="40.8038224" lon="9.6235901"><ele>39.0</ele><time>2026-04-12T08:12:49.923Z</time></trkpt><trkpt lat="40.8038262" lon="9.6234598"><ele>39.0</ele><time>2026-04-12T08:12:50.933Z</time></trkpt><trkpt lat="40.8038311" lon="9.623341"><ele>39.0</ele><time>2026-04-12T08:12:51.923Z</time></trkpt><trkpt lat="40.8038332" lon="9.6232255"><ele>39.0</ele><time>2026-04-12T08:12:52.922Z</time></trkpt><trkpt lat="40.803834" lon="9.6231147"><ele>39.0</ele><time>2026-04-12T08:12:53.92Z</time></trkpt><trkpt lat="40.8038415" lon="9.6230013"><ele>39.0</ele><time>2026-04-12T08:12:54.934Z</time></trkpt><trkpt lat="40.8038477" lon="9.6228839"><ele>39.0</ele><time>2026-04-12T08:12:55.922Z</time></trkpt><trkpt lat="40.8038499" lon="9.6227689"><ele>39.0</ele><time>2026-04-12T08:12:56.918Z</time></trkpt><trkpt lat="40.8038481" lon="9.622659"><ele>39.6</ele><time>2026-04-12T08:12:57.921Z</time></trkpt><trkpt lat="40.8038438" lon="9.622546"><ele>40.2</ele><time>2026-04-12T08:12:58.921Z</time></trkpt><trkpt lat="40.803844" lon="9.6224182"><ele>40.800000000000004</ele><time>2026-04-12T08:12:59.914Z</time></trkpt><trkpt lat="40.8038461" lon="9.6222776"><ele>41.4</ele><time>2026-04-12T08:13:00.927Z</time></trkpt><trkpt lat="40.8038469" lon="9.6221268"><ele>42.0</ele><time>2026-04-12T08:13:01.924Z</time></trkpt><trkpt lat="40.8038441" lon="9.6219731"><ele>42.6</ele><time>2026-04-12T08:13:02.921Z</time></trkpt><trkpt lat="40.8038436" lon="9.62184"><ele>43.2</ele><time>2026-04-12T08:13:03.912Z</time></trkpt><trkpt lat="40.8038433" lon="9.6217131"><ele>43.8</ele><time>2026-04-12T08:13:04.918Z</time></trkpt><trkpt lat="40.8038426" lon="9.6215851"><ele>44.4</ele><time>2026-04-12T08:13:05.916Z</time></trkpt><trkpt lat="40.8038436" lon="9.6214483"><ele>45.0</ele><time>2026-04-12T08:13:06.92Z</time></trkpt><trkpt lat="40.8038439" lon="9.6213152"><ele>45.0</ele><time>2026-04-12T08:13:07.916Z</time></trkpt><trkpt lat="40.8038463" lon="9.6211821"><ele>45.0</ele><time>2026-04-12T08:13:08.908Z</time></trkpt><trkpt lat="40.8038485" lon="9.6210521"><ele>45.0</ele><time>2026-04-12T08:13:09.915Z</time></trkpt><trkpt lat="40.8038487" lon="9.6209243"><ele>45.0</ele><time>2026-04-12T08:13:10.915Z</time></trkpt><trkpt lat="40.8038409" lon="9.6207856"><ele>45.0</ele><time>2026-04-12T08:13:11.915Z</time></trkpt><trkpt lat="40.8038326" lon="9.6206397"><ele>46.75</ele><time>2026-04-12T08:13:12.917Z</time></trkpt><trkpt lat="40.8038281" lon="9.6204896"><ele>48.5</ele><time>2026-04-12T08:13:13.919Z</time></trkpt><trkpt lat="40.8038235" lon="9.6203275"><ele>50.25</ele><time>2026-04-12T08:13:14.923Z</time></trkpt><trkpt lat="40.8038194" lon="9.6201614"><ele>52.0</ele><time>2026-04-12T08:13:16.02Z</time></trkpt><trkpt lat="40.8038199" lon="9.6200014"><ele>52.0</ele><time>2026-04-12T08:13:17.013Z</time></trkpt><trkpt lat="40.8038226" lon="9.6198582"><ele>52.0</ele><time>2026-04-12T08:13:18.022Z</time></trkpt><trkpt lat="40.8038206" lon="9.6197306"><ele>52.0</ele><time>2026-04-12T08:13:19.008Z</time></trkpt><trkpt lat="40.8038189" lon="9.6195871"><ele>52.0</ele><time>2026-04-12T08:13:19.918Z</time></trkpt><trkpt lat="40.8038137" lon="9.6194441"><ele>52.0</ele><time>2026-04-12T08:13:21.013Z</time></trkpt><trkpt lat="40.8038133" lon="9.6192974"><ele>52.5</ele><time>2026-04-12T08:13:22.012Z</time></trkpt><trkpt lat="40.8038087" lon="9.6191397"><ele>53.0</ele><time>2026-04-12T08:13:23.009Z</time></trkpt><trkpt lat="40.8038002" lon="9.6189842"><ele>53.5</ele><time>2026-04-12T08:13:24.011Z</time></trkpt><trkpt lat="40.8037812" lon="9.6188373"><ele>54.0</ele><time>2026-04-12T08:13:25.013Z</time></trkpt><trkpt lat="40.8037513" lon="9.6186982"><ele>54.800000000000004</ele><time>2026-04-12T08:13:26.007Z</time></trkpt><trkpt lat="40.8037184" lon="9.618565"><ele>55.60000000000001</ele><time>2026-04-12T08:13:27.01Z</time></trkpt><trkpt lat="40.8036842" lon="9.6184296"><ele>56.4</ele><time>2026-04-12T08:13:28.011Z</time></trkpt><trkpt lat="40.8036476" lon="9.6182969"><ele>57.2</ele><time>2026-04-12T08:13:29.007Z</time></trkpt><trkpt lat="40.8036169" lon="9.6181605"><ele>58.0</ele><time>2026-04-12T08:13:30.02Z</time></trkpt><trkpt lat="40.8035975" lon="9.6180269"><ele>58.0</ele><time>2026-04-12T08:13:31.012Z</time></trkpt><trkpt lat="40.8035822" lon="9.6178975"><ele>58.0</ele><time>2026-04-12T08:13:32.009Z</time></trkpt><trkpt lat="40.8035716" lon="9.6177799"><ele>58.0</ele><time>2026-04-12T08:13:33.009Z</time></trkpt><trkpt lat="40.8035725" lon="9.6176601"><ele>58.0</ele><time>2026-04-12T08:13:34.009Z</time></trkpt><trkpt lat="40.8035789" lon="9.6175369"><ele>58.0</ele><time>2026-04-12T08:13:35.007Z</time></trkpt><trkpt lat="40.8035758" lon="9.6174162"><ele>58.166666666666664</ele><time>2026-04-12T08:13:36.01Z</time></trkpt><trkpt lat="40.8035603" lon="9.6173086"><ele>58.33333333333333</ele><time>2026-04-12T08:13:37.017Z</time></trkpt><trkpt lat="40.8035301" lon="9.6172035"><ele>58.5</ele><time>2026-04-12T08:13:38.015Z</time></trkpt><trkpt lat="40.803489" lon="9.6171029"><ele>58.66666666666667</ele><time>2026-04-12T08:13:39.026Z</time></trkpt><trkpt lat="40.8034441" lon="9.6169991"><ele>58.833333333333336</ele><time>2026-04-12T08:13:40.011Z</time></trkpt><trkpt lat="40.8033996" lon="9.6168963"><ele>59.0</ele><time>2026-04-12T08:13:41.005Z</time></trkpt><trkpt lat="40.8033579" lon="9.6167939"><ele>59.0</ele><time>2026-04-12T08:13:42.018Z</time></trkpt><trkpt lat="40.8033143" lon="9.616681"><ele>59.00000000000001</ele><time>2026-04-12T08:13:43.017Z</time></trkpt><trkpt lat="40.8032637" lon="9.6165604"><ele>59.00000000000001</ele><time>2026-04-12T08:13:44.005Z</time></trkpt><trkpt lat="40.8032082" lon="9.6164439"><ele>59.0</ele><time>2026-04-12T08:13:45.009Z</time></trkpt><trkpt lat="40.8031569" lon="9.6163432"><ele>59.0</ele><time>2026-04-12T08:13:46.011Z</time></trkpt><trkpt lat="40.8031087" lon="9.6162649"><ele>59.00000000000001</ele><time>2026-04-12T08:13:47.01Z</time></trkpt><trkpt lat="40.8030502" lon="9.6161921"><ele>59.0</ele><time>2026-04-12T08:13:48.022Z</time></trkpt><trkpt lat="40.802986" lon="9.6161171"><ele>59.0</ele><time>2026-04-12T08:13:49.011Z</time></trkpt><trkpt lat="40.8029199" lon="9.6160305"><ele>59.0</ele><time>2026-04-12T08:13:50.018Z</time></trkpt><trkpt lat="40.8028599" lon="9.6159411"><ele>59.00000000000001</ele><time>2026-04-12T08:13:51.006Z</time></trkpt><trkpt lat="40.8028065" lon="9.6158386"><ele>59.0</ele><time>2026-04-12T08:13:52.009Z</time></trkpt><trkpt lat="40.8027638" lon="9.6157308"><ele>60.333333333333336</ele><time>2026-04-12T08:13:53.02Z</time></trkpt><trkpt lat="40.8027314" lon="9.6156313"><ele>61.66666666666667</ele><time>2026-04-12T08:13:54.018Z</time></trkpt><trkpt lat="40.8027021" lon="9.6155375"><ele>63.0</ele><time>2026-04-12T08:13:55.012Z</time></trkpt><trkpt lat="40.8026629" lon="9.6154482"><ele>64.33333333333333</ele><time>2026-04-12T08:13:56.007Z</time></trkpt><trkpt lat="40.8026121" lon="9.6153648"><ele>65.66666666666666</ele><time>2026-04-12T08:13:57.006Z</time></trkpt><trkpt lat="40.8025628" lon="9.6152924"><ele>67.0</ele><time>2026-04-12T08:13:58Z</time></trkpt><trkpt lat="40.8025043" lon="9.6151682"><ele>68.16666666666666</ele><time>2026-04-12T08:14:00.009Z</time></trkpt><trkpt lat="40.8025077" lon="9.6149943"><ele>69.33333333333333</ele><time>2026-04-12T08:14:02.004Z</time></trkpt><trkpt lat="40.8025156" lon="9.6148928"><ele>70.5</ele><time>2026-04-12T08:14:02.999Z</time></trkpt><trkpt lat="40.8025276" lon="9.614794"><ele>71.66666666666667</ele><time>2026-04-12T08:14:04.004Z</time></trkpt><trkpt lat="40.8025361" lon="9.6147028"><ele>72.83333333333334</ele><time>2026-04-12T08:14:05.017Z</time></trkpt><trkpt lat="40.8025479" lon="9.614606"><ele>74.0</ele><time>2026-04-12T08:14:06.006Z</time></trkpt><trkpt lat="40.8025627" lon="9.6144943"><ele>75.6</ele><time>2026-04-12T08:14:07.01Z</time></trkpt><trkpt lat="40.8025803" lon="9.6143831"><ele>77.2</ele><time>2026-04-12T08:14:08.006Z</time></trkpt><trkpt lat="40.8026063" lon="9.6142684"><ele>78.8</ele><time>2026-04-12T08:14:09.043Z</time></trkpt><trkpt lat="40.8026324" lon="9.6141527"><ele>80.39999999999999</ele><time>2026-04-12T08:14:10.008Z</time></trkpt><trkpt lat="40.8026627" lon="9.6140337"><ele>82.0</ele><time>2026-04-12T08:14:11.009Z</time></trkpt><trkpt lat="40.8026855" lon="9.6139216"><ele>84.83333333333333</ele><time>2026-04-12T08:14:12.021Z</time></trkpt><trkpt lat="40.8027075" lon="9.6138123"><ele>87.66666666666666</ele><time>2026-04-12T08:14:13.008Z</time></trkpt><trkpt lat="40.8027295" lon="9.6137101"><ele>90.5</ele><time>2026-04-12T08:14:14.004Z</time></trkpt><trkpt lat="40.8027471" lon="9.6136175"><ele>93.33333333333333</ele><time>2026-04-12T08:14:15.003Z</time></trkpt><trkpt lat="40.8027576" lon="9.6135259"><ele>96.16666666666667</ele><time>2026-04-12T08:14:15.992Z</time></trkpt><trkpt lat="40.8027572" lon="9.6134315"><ele>99.0</ele><time>2026-04-12T08:14:16.999Z</time></trkpt><trkpt lat="40.8027565" lon="9.6133316"><ele>99.0</ele><time>2026-04-12T08:14:18.008Z</time></trkpt><trkpt lat="40.8027433" lon="9.6132337"><ele>99.0</ele><time>2026-04-12T08:14:19.016Z</time></trkpt><trkpt lat="40.8027138" lon="9.6131477"><ele>99.0</ele><time>2026-04-12T08:14:20.007Z</time></trkpt><trkpt lat="40.802673" lon="9.6130741"><ele>99.0</ele><time>2026-04-12T08:14:20.997Z</time></trkpt><trkpt lat="40.8026265" lon="9.6130134"><ele>99.0</ele><time>2026-04-12T08:14:21.997Z</time></trkpt><trkpt lat="40.8025715" lon="9.6129561"><ele>99.0</ele><time>2026-04-12T08:14:23.001Z</time></trkpt><trkpt lat="40.8025025" lon="9.6129092"><ele>99.0</ele><time>2026-04-12T08:14:24.016Z</time></trkpt><trkpt lat="40.80242" lon="9.612863"><ele>98.0</ele><time>2026-04-12T08:14:25.001Z</time></trkpt><trkpt lat="40.8023262" lon="9.6128265"><ele>97.0</ele><time>2026-04-12T08:14:25.998Z</time></trkpt><trkpt lat="40.8022289" lon="9.6127824"><ele>96.0</ele><time>2026-04-12T08:14:27.003Z</time></trkpt><trkpt lat="40.8021369" lon="9.6127397"><ele>95.0</ele><time>2026-04-12T08:14:27.996Z</time></trkpt><trkpt lat="40.8020543" lon="9.6127017"><ele>94.0</ele><time>2026-04-12T08:14:29Z</time></trkpt><trkpt lat="40.8019711" lon="9.6126745"><ele>94.0</ele><time>2026-04-12T08:14:30.011Z</time></trkpt><trkpt lat="40.8018864" lon="9.6126624"><ele>94.0</ele><time>2026-04-12T08:14:31Z</time></trkpt><trkpt lat="40.8018" lon="9.6126505"><ele>94.0</ele><time>2026-04-12T08:14:32.003Z</time></trkpt><trkpt lat="40.8017128" lon="9.6126238"><ele>94.0</ele><time>2026-04-12T08:14:32.997Z</time></trkpt><trkpt lat="40.8016278" lon="9.6125774"><ele>94.0</ele><time>2026-04-12T08:14:34Z</time></trkpt><trkpt lat="40.8015371" lon="9.6125184"><ele>93.4</ele><time>2026-04-12T08:14:35.005Z</time></trkpt><trkpt lat="40.801449" lon="9.6124676"><ele>92.80000000000001</ele><time>2026-04-12T08:14:36.014Z</time></trkpt><trkpt lat="40.8013661" lon="9.6124273"><ele>92.19999999999999</ele><time>2026-04-12T08:14:36.994Z</time></trkpt><trkpt lat="40.8012828" lon="9.6123846"><ele>91.6</ele><time>2026-04-12T08:14:38.004Z</time></trkpt><trkpt lat="40.8011965" lon="9.6123359"><ele>91.0</ele><time>2026-04-12T08:14:38.994Z</time></trkpt><trkpt lat="40.8011101" lon="9.6122847"><ele>91.0</ele><time>2026-04-12T08:14:39.991Z</time></trkpt><trkpt lat="40.8010258" lon="9.6122239"><ele>91.0</ele><time>2026-04-12T08:14:41Z</time></trkpt><trkpt lat="40.8009385" lon="9.6121494"><ele>91.0</ele><time>2026-04-12T08:14:41.999Z</time></trkpt><trkpt lat="40.8008418" lon="9.6120707"><ele>91.0</ele><time>2026-04-12T08:14:43.001Z</time></trkpt><trkpt lat="40.8007472" lon="9.6119973"><ele>91.0</ele><time>2026-04-12T08:14:44.003Z</time></trkpt><trkpt lat="40.8006635" lon="9.6119343"><ele>93.0</ele><time>2026-04-12T08:14:44.998Z</time></trkpt><trkpt lat="40.80059" lon="9.611881"><ele>95.0</ele><time>2026-04-12T08:14:45.995Z</time></trkpt><trkpt lat="40.8005329" lon="9.6118239"><ele>97.0</ele><time>2026-04-12T08:14:46.997Z</time></trkpt><trkpt lat="40.8004881" lon="9.6117482"><ele>99.0</ele><time>2026-04-12T08:14:47.998Z</time></trkpt><trkpt lat="40.800453" lon="9.6116492"><ele>101.00000000000001</ele><time>2026-04-12T08:14:48.987Z</time></trkpt><trkpt lat="40.8004197" lon="9.6115317"><ele>103.0</ele><time>2026-04-12T08:14:49.995Z</time></trkpt><trkpt lat="40.8003782" lon="9.6114197"><ele>103.0</ele><time>2026-04-12T08:14:50.996Z</time></trkpt><trkpt lat="40.8003319" lon="9.6113185"><ele>103.0</ele><time>2026-04-12T08:14:51.997Z</time></trkpt><trkpt lat="40.8002685" lon="9.6112306"><ele>103.0</ele><time>2026-04-12T08:14:52.988Z</time></trkpt><trkpt lat="40.8001766" lon="9.6111453"><ele>103.0</ele><time>2026-04-12T08:14:54Z</time></trkpt><trkpt lat="40.8000789" lon="9.6110543"><ele>103.0</ele><time>2026-04-12T08:14:54.984Z</time></trkpt><trkpt lat="40.7999955" lon="9.6109592"><ele>100.75</ele><time>2026-04-12T08:14:55.991Z</time></trkpt><trkpt lat="40.7999089" lon="9.610846"><ele>98.5</ele><time>2026-04-12T08:14:56.987Z</time></trkpt><trkpt lat="40.7998245" lon="9.6107116"><ele>96.25</ele><time>2026-04-12T08:14:57.991Z</time></trkpt><trkpt lat="40.7997526" lon="9.6105894"><ele>94.0</ele><time>2026-04-12T08:14:58.982Z</time></trkpt><trkpt lat="40.7996906" lon="9.6104887"><ele>94.0</ele><time>2026-04-12T08:14:59.996Z</time></trkpt><trkpt lat="40.7996424" lon="9.6103918"><ele>94.0</ele><time>2026-04-12T08:15:00.985Z</time></trkpt><trkpt lat="40.7996009" lon="9.6102882"><ele>94.0</ele><time>2026-04-12T08:15:01.995Z</time></trkpt><trkpt lat="40.7995567" lon="9.6101804"><ele>94.0</ele><time>2026-04-12T08:15:02.98Z</time></trkpt><trkpt lat="40.799508" lon="9.6100691"><ele>94.0</ele><time>2026-04-12T08:15:03.987Z</time></trkpt><trkpt lat="40.7994433" lon="9.60996"><ele>94.0</ele><time>2026-04-12T08:15:04.984Z</time></trkpt><trkpt lat="40.7993854" lon="9.6098588"><ele>94.0</ele><time>2026-04-12T08:15:05.991Z</time></trkpt><trkpt lat="40.7993456" lon="9.6097565"><ele>94.0</ele><time>2026-04-12T08:15:06.99Z</time></trkpt><trkpt lat="40.7993187" lon="9.6096381"><ele>94.0</ele><time>2026-04-12T08:15:07.991Z</time></trkpt><trkpt lat="40.7992937" lon="9.6095042"><ele>94.0</ele><time>2026-04-12T08:15:09.005Z</time></trkpt><trkpt lat="40.799276" lon="9.6093663"><ele>94.6</ele><time>2026-04-12T08:15:09.989Z</time></trkpt><trkpt lat="40.7992588" lon="9.6092397"><ele>95.2</ele><time>2026-04-12T08:15:10.982Z</time></trkpt><trkpt lat="40.7992374" lon="9.6091135"><ele>95.8</ele><time>2026-04-12T08:15:11.986Z</time></trkpt><trkpt lat="40.7992053" lon="9.6090012"><ele>96.39999999999999</ele><time>2026-04-12T08:15:12.985Z</time></trkpt><trkpt lat="40.7991719" lon="9.6088926"><ele>97.0</ele><time>2026-04-12T08:15:13.981Z</time></trkpt><trkpt lat="40.7991555" lon="9.6087781"><ele>96.83333333333334</ele><time>2026-04-12T08:15:14.983Z</time></trkpt><trkpt lat="40.7991462" lon="9.608654"><ele>96.66666666666667</ele><time>2026-04-12T08:15:15.985Z</time></trkpt><trkpt lat="40.7991496" lon="9.6085235"><ele>96.5</ele><time>2026-04-12T08:15:16.987Z</time></trkpt><trkpt lat="40.7991525" lon="9.6084019"><ele>96.33333333333334</ele><time>2026-04-12T08:15:17.983Z</time></trkpt><trkpt lat="40.7991509" lon="9.608295"><ele>96.16666666666667</ele><time>2026-04-12T08:15:18.989Z</time></trkpt><trkpt lat="40.7991367" lon="9.6082008"><ele>96.0</ele><time>2026-04-12T08:15:19.982Z</time></trkpt><trkpt lat="40.7991104" lon="9.6081068"><ele>96.0</ele><time>2026-04-12T08:15:20.984Z</time></trkpt><trkpt lat="40.7990747" lon="9.6080182"><ele>96.0</ele><time>2026-04-12T08:15:21.991Z</time></trkpt><trkpt lat="40.7990309" lon="9.6079431"><ele>96.0</ele><time>2026-04-12T08:15:22.995Z</time></trkpt><trkpt lat="40.7989731" lon="9.6078677"><ele>96.0</ele><time>2026-04-12T08:15:23.993Z</time></trkpt><trkpt lat="40.7989045" lon="9.6077909"><ele>96.0</ele><time>2026-04-12T08:15:24.987Z</time></trkpt><trkpt lat="40.798835" lon="9.6077151"><ele>96.0</ele><time>2026-04-12T08:15:25.985Z</time></trkpt><trkpt lat="40.7987773" lon="9.6076431"><ele>96.33333333333333</ele><time>2026-04-12T08:15:26.992Z</time></trkpt><trkpt lat="40.7987362" lon="9.6075683"><ele>96.66666666666666</ele><time>2026-04-12T08:15:27.985Z</time></trkpt><trkpt lat="40.7987099" lon="9.607489"><ele>97.0</ele><time>2026-04-12T08:15:28.981Z</time></trkpt><trkpt lat="40.7986899" lon="9.6073943"><ele>97.33333333333333</ele><time>2026-04-12T08:15:29.985Z</time></trkpt><trkpt lat="40.7986787" lon="9.6072827"><ele>97.66666666666666</ele><time>2026-04-12T08:15:30.992Z</time></trkpt><trkpt lat="40.7986702" lon="9.6071669"><ele>98.0</ele><time>2026-04-12T08:15:31.985Z</time></trkpt><trkpt lat="40.7986573" lon="9.6070493"><ele>98.60000000000001</ele><time>2026-04-12T08:15:32.975Z</time></trkpt><trkpt lat="40.7986434" lon="9.6069497"><ele>99.2</ele><time>2026-04-12T08:15:33.98Z</time></trkpt><trkpt lat="40.7986329" lon="9.606867"><ele>99.8</ele><time>2026-04-12T08:15:35Z</time></trkpt><trkpt lat="40.7986213" lon="9.6066861"><ele>100.4</ele><time>2026-04-12T08:15:36.984Z</time></trkpt><trkpt lat="40.798619" lon="9.6065664"><ele>101.0</ele><time>2026-04-12T08:15:37.98Z</time></trkpt><trkpt lat="40.798615" lon="9.6064319"><ele>100.99999999999999</ele><time>2026-04-12T08:15:38.98Z</time></trkpt><trkpt lat="40.798602" lon="9.6063168"><ele>101.0</ele><time>2026-04-12T08:15:39.979Z</time></trkpt><trkpt lat="40.7985814" lon="9.6062158"><ele>101.0</ele><time>2026-04-12T08:15:40.976Z</time></trkpt><trkpt lat="40.798559" lon="9.6061262"><ele>101.0</ele><time>2026-04-12T08:15:41.987Z</time></trkpt><trkpt lat="40.798531" lon="9.6060251"><ele>100.99999999999999</ele><time>2026-04-12T08:15:42.981Z</time></trkpt><trkpt lat="40.7985014" lon="9.6059023"><ele>101.0</ele><time>2026-04-12T08:15:43.972Z</time></trkpt><trkpt lat="40.7984694" lon="9.6057707"><ele>102.0</ele><time>2026-04-12T08:15:44.983Z</time></trkpt><trkpt lat="40.798436" lon="9.6056326"><ele>103.0</ele><time>2026-04-12T08:15:45.981Z</time></trkpt><trkpt lat="40.7984039" lon="9.6054988"><ele>104.0</ele><time>2026-04-12T08:15:46.97Z</time></trkpt><trkpt lat="40.798372" lon="9.6053746"><ele>105.0</ele><time>2026-04-12T08:15:47.979Z</time></trkpt><trkpt lat="40.7983448" lon="9.6052538"><ele>106.0</ele><time>2026-04-12T08:15:48.983Z</time></trkpt><trkpt lat="40.7983182" lon="9.605133"><ele>107.0</ele><time>2026-04-12T08:15:49.98Z</time></trkpt><trkpt lat="40.7983019" lon="9.6050078"><ele>108.0</ele><time>2026-04-12T08:15:50.976Z</time></trkpt><trkpt lat="40.7982928" lon="9.6048808"><ele>109.0</ele><time>2026-04-12T08:15:51.971Z</time></trkpt><trkpt lat="40.7982858" lon="9.6047477"><ele>110.0</ele><time>2026-04-12T08:15:52.973Z</time></trkpt><trkpt lat="40.7982773" lon="9.6046243"><ele>111.0</ele><time>2026-04-12T08:15:53.982Z</time></trkpt><trkpt lat="40.7982624" lon="9.604516"><ele>112.14285714285714</ele><time>2026-04-12T08:15:54.975Z</time></trkpt><trkpt lat="40.7982477" lon="9.6044079"><ele>113.28571428571429</ele><time>2026-04-12T08:15:55.985Z</time></trkpt><trkpt lat="40.7982298" lon="9.6043111"><ele>114.42857142857143</ele><time>2026-04-12T08:15:56.975Z</time></trkpt><trkpt lat="40.7982033" lon="9.6042276"><ele>115.57142857142857</ele><time>2026-04-12T08:15:57.978Z</time></trkpt><trkpt lat="40.7981638" lon="9.6041385"><ele>116.71428571428572</ele><time>2026-04-12T08:15:58.977Z</time></trkpt><trkpt lat="40.798112" lon="9.6040605"><ele>117.85714285714286</ele><time>2026-04-12T08:15:59.973Z</time></trkpt><trkpt lat="40.7980689" lon="9.6039966"><ele>119.0</ele><time>2026-04-12T08:16:00.976Z</time></trkpt><trkpt lat="40.7980433" lon="9.6038343"><ele>119.0</ele><time>2026-04-12T08:16:02.974Z</time></trkpt><trkpt lat="40.7980528" lon="9.603729"><ele>119.0</ele><time>2026-04-12T08:16:03.985Z</time></trkpt><trkpt lat="40.79807" lon="9.603606"><ele>119.0</ele><time>2026-04-12T08:16:04.974Z</time></trkpt><trkpt lat="40.7980962" lon="9.6034692"><ele>119.0</ele><time>2026-04-12T08:16:05.976Z</time></trkpt><trkpt lat="40.7981203" lon="9.6033299"><ele>119.0</ele><time>2026-04-12T08:16:06.968Z</time></trkpt><trkpt lat="40.7981406" lon="9.6032001"><ele>120.0</ele><time>2026-04-12T08:16:07.974Z</time></trkpt><trkpt lat="40.7981536" lon="9.60308"><ele>121.0</ele><time>2026-04-12T08:16:08.979Z</time></trkpt><trkpt lat="40.7981711" lon="9.6029549"><ele>122.0</ele><time>2026-04-12T08:16:09.974Z</time></trkpt><trkpt lat="40.7981874" lon="9.6028388"><ele>123.0</ele><time>2026-04-12T08:16:10.984Z</time></trkpt><trkpt lat="40.798199" lon="9.6027346"><ele>124.0</ele><time>2026-04-12T08:16:11.978Z</time></trkpt><trkpt lat="40.7981843" lon="9.6026032"><ele>124.6</ele><time>2026-04-12T08:16:13.989Z</time></trkpt><trkpt lat="40.7981055" lon="9.6025216"><ele>125.2</ele><time>2026-04-12T08:16:15.974Z</time></trkpt><trkpt lat="40.7980038" lon="9.602472"><ele>125.79999999999998</ele><time>2026-04-12T08:16:17.976Z</time></trkpt><trkpt lat="40.7979029" lon="9.6024067"><ele>126.39999999999999</ele><time>2026-04-12T08:16:19.975Z</time></trkpt><trkpt lat="40.7978522" lon="9.6023348"><ele>127.0</ele><time>2026-04-12T08:16:21.98Z</time></trkpt><trkpt lat="40.7978426" lon="9.6022096"><ele>127.00000000000001</ele><time>2026-04-12T08:16:23.979Z</time></trkpt><trkpt lat="40.7978814" lon="9.60205"><ele>127.0</ele><time>2026-04-12T08:16:25.974Z</time></trkpt><trkpt lat="40.7979162" lon="9.6019608"><ele>127.0</ele><time>2026-04-12T08:16:26.962Z</time></trkpt><trkpt lat="40.7979517" lon="9.6018748"><ele>127.0</ele><time>2026-04-12T08:16:27.965Z</time></trkpt><trkpt lat="40.7979808" lon="9.6017827"><ele>127.00000000000001</ele><time>2026-04-12T08:16:28.969Z</time></trkpt><trkpt lat="40.7980008" lon="9.6016729"><ele>127.0</ele><time>2026-04-12T08:16:29.971Z</time></trkpt><trkpt lat="40.7980159" lon="9.6015537"><ele>128.16666666666669</ele><time>2026-04-12T08:16:30.972Z</time></trkpt><trkpt lat="40.7980279" lon="9.6014532"><ele>129.33333333333334</ele><time>2026-04-12T08:16:31.972Z</time></trkpt><trkpt lat="40.79804" lon="9.6013514"><ele>130.5</ele><time>2026-04-12T08:16:32.973Z</time></trkpt><trkpt lat="40.7980511" lon="9.6012469"><ele>131.66666666666666</ele><time>2026-04-12T08:16:33.973Z</time></trkpt><trkpt lat="40.798058" lon="9.6011393"><ele>132.83333333333331</ele><time>2026-04-12T08:16:34.961Z</time></trkpt><trkpt lat="40.7980584" lon="9.6010306"><ele>134.0</ele><time>2026-04-12T08:16:35.957Z</time></trkpt><trkpt lat="40.7980633" lon="9.6009124"><ele>134.66666666666666</ele><time>2026-04-12T08:16:36.981Z</time></trkpt><trkpt lat="40.7980823" lon="9.6008108"><ele>135.33333333333331</ele><time>2026-04-12T08:16:37.984Z</time></trkpt><trkpt lat="40.7981104" lon="9.6006767"><ele>136.0</ele><time>2026-04-12T08:16:39.984Z</time></trkpt><trkpt lat="40.7981301" lon="9.6005735"><ele>136.66666666666666</ele><time>2026-04-12T08:16:41.978Z</time></trkpt><trkpt lat="40.7981511" lon="9.6004818"><ele>137.33333333333334</ele><time>2026-04-12T08:16:44.964Z</time></trkpt><trkpt lat="40.798184" lon="9.6004"><ele>138.0</ele><time>2026-04-12T08:18:12.935Z</time></trkpt><trkpt lat="40.7982028" lon="9.6002762"><ele>138.8</ele><time>2026-04-12T08:18:15.924Z</time></trkpt><trkpt lat="40.7981791" lon="9.6001874"><ele>139.60000000000002</ele><time>2026-04-12T08:18:17.922Z</time></trkpt><trkpt lat="40.798149" lon="9.6000493"><ele>140.39999999999998</ele><time>2026-04-12T08:18:19.928Z</time></trkpt><trkpt lat="40.7981281" lon="9.5998949"><ele>141.2</ele><time>2026-04-12T08:18:21.924Z</time></trkpt><trkpt lat="40.7981151" lon="9.5997592"><ele>142.0</ele><time>2026-04-12T08:18:23.953Z</time></trkpt><trkpt lat="40.7980991" lon="9.5996368"><ele>142.0</ele><time>2026-04-12T08:18:25.919Z</time></trkpt><trkpt lat="40.798083" lon="9.5995248"><ele>142.0</ele><time>2026-04-12T08:18:27.933Z</time></trkpt><trkpt lat="40.7980302" lon="9.5994491"><ele>142.0</ele><time>2026-04-12T08:18:29.918Z</time></trkpt><trkpt lat="40.7979531" lon="9.5994061"><ele>142.0</ele><time>2026-04-12T08:18:32.014Z</time></trkpt><trkpt lat="40.7978977" lon="9.5993053"><ele>142.0</ele><time>2026-04-12T08:18:34.009Z</time></trkpt><trkpt lat="40.797854" lon="9.5991832"><ele>142.0</ele><time>2026-04-12T08:18:35.917Z</time></trkpt><trkpt lat="40.7978274" lon="9.5990966"><ele>142.16666666666669</ele><time>2026-04-12T08:18:38.018Z</time></trkpt><trkpt lat="40.7977867" lon="9.598991"><ele>142.33333333333334</ele><time>2026-04-12T08:18:40.006Z</time></trkpt><trkpt lat="40.7977414" lon="9.5988765"><ele>142.5</ele><time>2026-04-12T08:18:42.006Z</time></trkpt><trkpt lat="40.7976767" lon="9.5987331"><ele>142.66666666666666</ele><time>2026-04-12T08:18:44.005Z</time></trkpt><trkpt lat="40.7976337" lon="9.5986613"><ele>142.83333333333331</ele><time>2026-04-12T08:18:45.012Z</time></trkpt><trkpt lat="40.7975926" lon="9.5985974"><ele>143.0</ele><time>2026-04-12T08:18:46.01Z</time></trkpt><trkpt lat="40.797528" lon="9.59848"><ele>143.0</ele><time>2026-04-12T08:18:48.008Z</time></trkpt><trkpt lat="40.7974552" lon="9.5983675"><ele>143.0</ele><time>2026-04-12T08:18:49.998Z</time></trkpt><trkpt lat="40.7973828" lon="9.5982335"><ele>143.0</ele><time>2026-04-12T08:18:52.004Z</time></trkpt><trkpt lat="40.7973381" lon="9.5981686"><ele>143.0</ele><time>2026-04-12T08:18:53.01Z</time></trkpt><trkpt lat="40.7972842" lon="9.5981049"><ele>143.0</ele><time>2026-04-12T08:18:54.007Z</time></trkpt><trkpt lat="40.7972287" lon="9.5980302"><ele>143.0</ele><time>2026-04-12T08:18:55.007Z</time></trkpt><trkpt lat="40.7971774" lon="9.5979482"><ele>143.0</ele><time>2026-04-12T08:18:56.006Z</time></trkpt><trkpt lat="40.7971417" lon="9.5978654"><ele>143.0</ele><time>2026-04-12T08:18:57.005Z</time></trkpt><trkpt lat="40.797099" lon="9.5977155"><ele>143.0</ele><time>2026-04-12T08:18:59.006Z</time></trkpt><trkpt lat="40.7970837" lon="9.5976339"><ele>143.0</ele><time>2026-04-12T08:19:00.007Z</time></trkpt><trkpt lat="40.7970632" lon="9.5975125"><ele>143.0</ele><time>2026-04-12T08:19:02.011Z</time></trkpt><trkpt lat="40.7970333" lon="9.5974179"><ele>145.4</ele><time>2026-04-12T08:19:05.006Z</time></trkpt><trkpt lat="40.797045" lon="9.5972982"><ele>147.8</ele><time>2026-04-12T08:19:08.011Z</time></trkpt><trkpt lat="40.7970645" lon="9.5971847"><ele>150.2</ele><time>2026-04-12T08:20:27.95Z</time></trkpt><trkpt lat="40.7971065" lon="9.5970715"><ele>152.6</ele><time>2026-04-12T08:20:29.951Z</time></trkpt><trkpt lat="40.7971633" lon="9.5969534"><ele>155.0</ele><time>2026-04-12T08:20:31.951Z</time></trkpt><trkpt lat="40.7971886" lon="9.5968564"><ele>156.33333333333331</ele><time>2026-04-12T08:20:33.937Z</time></trkpt><trkpt lat="40.797199" lon="9.5967662"><ele>157.66666666666666</ele><time>2026-04-12T08:20:35.953Z</time></trkpt><trkpt lat="40.7972262" lon="9.5966429"><ele>159.0</ele><time>2026-04-12T08:20:37.933Z</time></trkpt><trkpt lat="40.7972513" lon="9.5965195"><ele>160.33333333333334</ele><time>2026-04-12T08:20:39.939Z</time></trkpt><trkpt lat="40.7972713" lon="9.5964215"><ele>161.66666666666669</ele><time>2026-04-12T08:20:41.942Z</time></trkpt><trkpt lat="40.7973083" lon="9.5963357"><ele>163.0</ele><time>2026-04-12T08:20:43.936Z</time></trkpt><trkpt lat="40.7973646" lon="9.5962324"><ele>163.0</ele><time>2026-04-12T08:20:45.932Z</time></trkpt><trkpt lat="40.797442" lon="9.5962104"><ele>163.0</ele><time>2026-04-12T08:20:47.927Z</time></trkpt><trkpt lat="40.7975404" lon="9.5962537"><ele>163.0</ele><time>2026-04-12T08:20:49.936Z</time></trkpt><trkpt lat="40.7976219" lon="9.596339"><ele>163.0</ele><time>2026-04-12T08:20:51.927Z</time></trkpt><trkpt lat="40.7976849" lon="9.5964533"><ele>163.0</ele><time>2026-04-12T08:20:53.923Z</time></trkpt><trkpt lat="40.7977492" lon="9.5965462"><ele>165.2</ele><time>2026-04-12T08:20:55.927Z</time></trkpt><trkpt lat="40.7978297" lon="9.5966161"><ele>167.4</ele><time>2026-04-12T08:20:57.938Z</time></trkpt><trkpt lat="40.7979176" lon="9.5966506"><ele>169.6</ele><time>2026-04-12T08:20:59.937Z</time></trkpt><trkpt lat="40.7980112" lon="9.5966626"><ele>171.79999999999998</ele><time>2026-04-12T08:21:01.934Z</time></trkpt><trkpt lat="40.7981262" lon="9.5966759"><ele>174.0</ele><time>2026-04-12T08:21:03.942Z</time></trkpt><trkpt lat="40.798244" lon="9.5966704"><ele>174.0</ele><time>2026-04-12T08:21:05.93Z</time></trkpt><trkpt lat="40.7983174" lon="9.5966308"><ele>174.0</ele><time>2026-04-12T08:21:07.934Z</time></trkpt><trkpt lat="40.7983495" lon="9.5965431"><ele>174.0</ele><time>2026-04-12T08:21:09.929Z</time></trkpt><trkpt lat="40.798364" lon="9.5964437"><ele>174.0</ele><time>2026-04-12T08:21:11.932Z</time></trkpt><trkpt lat="40.7983241" lon="9.5963521"><ele>174.0</ele><time>2026-04-12T08:21:13.916Z</time></trkpt><trkpt lat="40.7982403" lon="9.5963011"><ele>174.0</ele><time>2026-04-12T08:21:15.917Z</time></trkpt><trkpt lat="40.7981363" lon="9.596224"><ele>176.6</ele><time>2026-04-12T08:21:17.942Z</time></trkpt><trkpt lat="40.7980872" lon="9.5961685"><ele>179.2</ele><time>2026-04-12T08:21:19.025Z</time></trkpt><trkpt lat="40.7980186" lon="9.5960636"><ele>181.79999999999998</ele><time>2026-04-12T08:21:21.034Z</time></trkpt><trkpt lat="40.7979636" lon="9.5959595"><ele>184.39999999999998</ele><time>2026-04-12T08:21:22.909Z</time></trkpt><trkpt lat="40.7979589" lon="9.5958198"><ele>187.0</ele><time>2026-04-12T08:21:25.022Z</time></trkpt><trkpt lat="40.7979701" lon="9.5957097"><ele>187.0</ele><time>2026-04-12T08:21:27.035Z</time></trkpt><trkpt lat="40.7979444" lon="9.59561"><ele>187.0</ele><time>2026-04-12T08:21:29.004Z</time></trkpt><trkpt lat="40.7979491" lon="9.595497"><ele>187.0</ele><time>2026-04-12T08:21:31.003Z</time></trkpt><trkpt lat="40.7980037" lon="9.5953688"><ele>187.0</ele><time>2026-04-12T08:21:33.017Z</time></trkpt><trkpt lat="40.7980404" lon="9.5952966"><ele>187.0</ele><time>2026-04-12T08:21:34.015Z</time></trkpt><trkpt lat="40.798079" lon="9.5952189"><ele>187.0</ele><time>2026-04-12T08:21:35.001Z</time></trkpt><trkpt lat="40.7981199" lon="9.5951318"><ele>187.16666666666669</ele><time>2026-04-12T08:21:36.006Z</time></trkpt><trkpt lat="40.7981646" lon="9.5950384"><ele>187.33333333333334</ele><time>2026-04-12T08:21:37.013Z</time></trkpt><trkpt lat="40.7982081" lon="9.5949537"><ele>187.5</ele><time>2026-04-12T08:21:38.006Z</time></trkpt><trkpt lat="40.798255" lon="9.5948732"><ele>187.66666666666666</ele><time>2026-04-12T08:21:38.996Z</time></trkpt><trkpt lat="40.7983005" lon="9.5947726"><ele>187.83333333333331</ele><time>2026-04-12T08:21:39.998Z</time></trkpt><trkpt lat="40.79835" lon="9.5946867"><ele>188.0</ele><time>2026-04-12T08:21:40.992Z</time></trkpt><trkpt lat="40.7983949" lon="9.5946011"><ele>188.0</ele><time>2026-04-12T08:21:42.003Z</time></trkpt><trkpt lat="40.7984361" lon="9.5945221"><ele>188.0</ele><time>2026-04-12T08:21:42.993Z</time></trkpt><trkpt lat="40.7984791" lon="9.5944424"><ele>188.0</ele><time>2026-04-12T08:21:43.997Z</time></trkpt><trkpt lat="40.7985449" lon="9.5943174"><ele>188.0</ele><time>2026-04-12T08:21:45.994Z</time></trkpt><trkpt lat="40.7986016" lon="9.5942157"><ele>188.0</ele><time>2026-04-12T08:21:48.009Z</time></trkpt><trkpt lat="40.7986657" lon="9.5940754"><ele>187.33333333333331</ele><time>2026-04-12T08:21:49.991Z</time></trkpt><trkpt lat="40.7987099" lon="9.5940047"><ele>186.66666666666666</ele><time>2026-04-12T08:21:50.983Z</time></trkpt><trkpt lat="40.7987599" lon="9.5939436"><ele>186.0</ele><time>2026-04-12T08:21:51.986Z</time></trkpt><trkpt lat="40.7988211" lon="9.5938826"><ele>185.33333333333334</ele><time>2026-04-12T08:21:52.996Z</time></trkpt><trkpt lat="40.7988814" lon="9.5938173"><ele>184.66666666666669</ele><time>2026-04-12T08:21:53.997Z</time></trkpt><trkpt lat="40.7989429" lon="9.5937518"><ele>184.0</ele><time>2026-04-12T08:21:54.987Z</time></trkpt><trkpt lat="40.7990038" lon="9.5936747"><ele>182.39999999999998</ele><time>2026-04-12T08:21:55.98Z</time></trkpt><trkpt lat="40.7990672" lon="9.5935858"><ele>180.8</ele><time>2026-04-12T08:21:56.985Z</time></trkpt><trkpt lat="40.7991336" lon="9.5934809"><ele>179.2</ele><time>2026-04-12T08:21:57.985Z</time></trkpt><trkpt lat="40.7992018" lon="9.5933763"><ele>177.60000000000002</ele><time>2026-04-12T08:21:58.979Z</time></trkpt><trkpt lat="40.7992635" lon="9.5932784"><ele>176.0</ele><time>2026-04-12T08:21:59.984Z</time></trkpt><trkpt lat="40.79932" lon="9.593191"><ele>176.42857142857144</ele><time>2026-04-12T08:22:00.98Z</time></trkpt><trkpt lat="40.7993738" lon="9.593105"><ele>176.85714285714286</ele><time>2026-04-12T08:22:02Z</time></trkpt><trkpt lat="40.7994311" lon="9.5930215"><ele>177.28571428571428</ele><time>2026-04-12T08:22:02.978Z</time></trkpt><trkpt lat="40.7994825" lon="9.5929474"><ele>177.71428571428572</ele><time>2026-04-12T08:22:03.972Z</time></trkpt><trkpt lat="40.7995248" lon="9.592876"><ele>178.14285714285714</ele><time>2026-04-12T08:22:04.978Z</time></trkpt><trkpt lat="40.7995645" lon="9.5928096"><ele>178.57142857142858</ele><time>2026-04-12T08:22:06.007Z</time></trkpt><trkpt lat="40.7996116" lon="9.5927536"><ele>179.0</ele><time>2026-04-12T08:22:06.979Z</time></trkpt><trkpt lat="40.7997073" lon="9.5927045"><ele>179.0</ele><time>2026-04-12T08:22:08.978Z</time></trkpt><trkpt lat="40.799805" lon="9.5927356"><ele>179.0</ele><time>2026-04-12T08:22:10.988Z</time></trkpt><trkpt lat="40.7999064" lon="9.5927751"><ele>179.0</ele><time>2026-04-12T08:22:12.964Z</time></trkpt><trkpt lat="40.7999748" lon="9.5927957"><ele>179.0</ele><time>2026-04-12T08:22:13.989Z</time></trkpt><trkpt lat="40.8000572" lon="9.5928213"><ele>179.0</ele><time>2026-04-12T08:22:14.978Z</time></trkpt><trkpt lat="40.8001408" lon="9.5928553"><ele>179.0</ele><time>2026-04-12T08:22:15.965Z</time></trkpt><trkpt lat="40.8002143" lon="9.5928874"><ele>178.5</ele><time>2026-04-12T08:22:16.976Z</time></trkpt><trkpt lat="40.8002723" lon="9.5929236"><ele>178.0</ele><time>2026-04-12T08:22:17.972Z</time></trkpt><trkpt lat="40.8003446" lon="9.5929641"><ele>177.5</ele><time>2026-04-12T08:22:19.969Z</time></trkpt><trkpt lat="40.8003996" lon="9.5928973"><ele>177.0</ele><time>2026-04-12T08:22:23.98Z</time></trkpt><trkpt lat="40.8003538" lon="9.5928389"><ele>176.5</ele><time>2026-04-12T08:22:25.959Z</time></trkpt><trkpt lat="40.8002493" lon="9.5927565"><ele>176.0</ele><time>2026-04-12T08:22:27.954Z</time></trkpt><trkpt lat="40.8001754" lon="9.5927031"><ele>175.20000000000002</ele><time>2026-04-12T08:22:28.966Z</time></trkpt><trkpt lat="40.8000961" lon="9.5926417"><ele>174.4</ele><time>2026-04-12T08:22:29.957Z</time></trkpt><trkpt lat="40.8000016" lon="9.5925805"><ele>173.6</ele><time>2026-04-12T08:22:30.951Z</time></trkpt><trkpt lat="40.7999029" lon="9.5925128"><ele>172.8</ele><time>2026-04-12T08:22:31.957Z</time></trkpt><trkpt lat="40.799798" lon="9.5924393"><ele>172.0</ele><time>2026-04-12T08:22:32.956Z</time></trkpt><trkpt lat="40.7996978" lon="9.5923689"><ele>172.0</ele><time>2026-04-12T08:22:33.971Z</time></trkpt><trkpt lat="40.7995964" lon="9.5922969"><ele>172.0</ele><time>2026-04-12T08:22:34.957Z</time></trkpt><trkpt lat="40.7994953" lon="9.5922331"><ele>172.0</ele><time>2026-04-12T08:22:35.956Z</time></trkpt><trkpt lat="40.7993934" lon="9.5921724"><ele>172.0</ele><time>2026-04-12T08:22:36.955Z</time></trkpt><trkpt lat="40.7992946" lon="9.592109"><ele>172.0</ele><time>2026-04-12T08:22:37.955Z</time></trkpt><trkpt lat="40.7991933" lon="9.5920426"><ele>172.8</ele><time>2026-04-12T08:22:38.954Z</time></trkpt><trkpt lat="40.7990917" lon="9.5919777"><ele>173.6</ele><time>2026-04-12T08:22:39.956Z</time></trkpt><trkpt lat="40.7989934" lon="9.5919155"><ele>174.4</ele><time>2026-04-12T08:22:40.957Z</time></trkpt><trkpt lat="40.7988955" lon="9.5918608"><ele>175.20000000000002</ele><time>2026-04-12T08:22:41.953Z</time></trkpt><trkpt lat="40.7987987" lon="9.5918071"><ele>176.0</ele><time>2026-04-12T08:22:42.957Z</time></trkpt><trkpt lat="40.7987053" lon="9.591757"><ele>176.0</ele><time>2026-04-12T08:22:43.952Z</time></trkpt><trkpt lat="40.7986049" lon="9.5917046"><ele>176.0</ele><time>2026-04-12T08:22:44.949Z</time></trkpt><trkpt lat="40.7985041" lon="9.5916554"><ele>176.0</ele><time>2026-04-12T08:22:45.957Z</time></trkpt><trkpt lat="40.7983999" lon="9.5915994"><ele>176.0</ele><time>2026-04-12T08:22:46.953Z</time></trkpt><trkpt lat="40.7982926" lon="9.5915439"><ele>176.0</ele><time>2026-04-12T08:22:47.956Z</time></trkpt><trkpt lat="40.7981817" lon="9.5914954"><ele>177.5</ele><time>2026-04-12T08:22:48.951Z</time></trkpt><trkpt lat="40.7980633" lon="9.5914582"><ele>179.0</ele><time>2026-04-12T08:22:49.953Z</time></trkpt><trkpt lat="40.7979408" lon="9.5914297"><ele>180.5</ele><time>2026-04-12T08:22:50.973Z</time></trkpt><trkpt lat="40.7978123" lon="9.591412"><ele>182.0</ele><time>2026-04-12T08:22:51.959Z</time></trkpt><trkpt lat="40.7976806" lon="9.5914129"><ele>185.5</ele><time>2026-04-12T08:22:52.949Z</time></trkpt><trkpt lat="40.7975523" lon="9.5914307"><ele>189.0</ele><time>2026-04-12T08:22:53.957Z</time></trkpt><trkpt lat="40.7974254" lon="9.5914663"><ele>192.5</ele><time>2026-04-12T08:22:54.946Z</time></trkpt><trkpt lat="40.797302" lon="9.5915154"><ele>196.0</ele><time>2026-04-12T08:22:55.942Z</time></trkpt><trkpt lat="40.7971754" lon="9.5915771"><ele>196.0</ele><time>2026-04-12T08:22:56.945Z</time></trkpt><trkpt lat="40.797047" lon="9.5916377"><ele>196.0</ele><time>2026-04-12T08:22:57.941Z</time></trkpt><trkpt lat="40.7969254" lon="9.5917034"><ele>196.0</ele><time>2026-04-12T08:22:58.961Z</time></trkpt><trkpt lat="40.7968034" lon="9.5917671"><ele>196.0</ele><time>2026-04-12T08:22:59.948Z</time></trkpt><trkpt lat="40.7966856" lon="9.5918204"><ele>196.66666666666666</ele><time>2026-04-12T08:23:00.943Z</time></trkpt><trkpt lat="40.7965754" lon="9.5918575"><ele>197.33333333333331</ele><time>2026-04-12T08:23:01.952Z</time></trkpt><trkpt lat="40.7964752" lon="9.5918756"><ele>198.0</ele><time>2026-04-12T08:23:02.946Z</time></trkpt><trkpt lat="40.7963948" lon="9.5918849"><ele>198.66666666666669</ele><time>2026-04-12T08:23:03.945Z</time></trkpt><trkpt lat="40.7963238" lon="9.5918806"><ele>199.33333333333334</ele><time>2026-04-12T08:23:05.942Z</time></trkpt><trkpt lat="40.7962416" lon="9.5918851"><ele>200.0</ele><time>2026-04-12T08:23:08.946Z</time></trkpt><trkpt lat="40.7961077" lon="9.5918768"><ele>200.0</ele><time>2026-04-12T08:23:10.938Z</time></trkpt><trkpt lat="40.7960238" lon="9.5918664"><ele>200.0</ele><time>2026-04-12T08:23:11.974Z</time></trkpt><trkpt lat="40.7959278" lon="9.5918436"><ele>200.0</ele><time>2026-04-12T08:23:12.933Z</time></trkpt><trkpt lat="40.7958193" lon="9.5918125"><ele>200.0</ele><time>2026-04-12T08:23:13.947Z</time></trkpt><trkpt lat="40.7957092" lon="9.59178"><ele>200.0</ele><time>2026-04-12T08:23:14.941Z</time></trkpt><trkpt lat="40.7955949" lon="9.5917638"><ele>200.25</ele><time>2026-04-12T08:23:15.934Z</time></trkpt><trkpt lat="40.79547" lon="9.5917671"><ele>200.5</ele><time>2026-04-12T08:23:16.935Z</time></trkpt><trkpt lat="40.7953316" lon="9.591776"><ele>200.75</ele><time>2026-04-12T08:23:17.95Z</time></trkpt><trkpt lat="40.7951898" lon="9.5917964"><ele>201.0</ele><time>2026-04-12T08:23:18.933Z</time></trkpt><trkpt lat="40.7950425" lon="9.5918291"><ele>202.33333333333331</ele><time>2026-04-12T08:23:19.936Z</time></trkpt><trkpt lat="40.7948908" lon="9.5918739"><ele>203.66666666666666</ele><time>2026-04-12T08:23:20.935Z</time></trkpt><trkpt lat="40.7947432" lon="9.5919203"><ele>205.0</ele><time>2026-04-12T08:23:21.935Z</time></trkpt><trkpt lat="40.7946028" lon="9.5919525"><ele>205.0</ele><time>2026-04-12T08:23:22.934Z</time></trkpt><trkpt lat="40.794471" lon="9.5919884"><ele>205.0</ele><time>2026-04-12T08:23:23.925Z</time></trkpt><trkpt lat="40.7943468" lon="9.5920025"><ele>205.0</ele><time>2026-04-12T08:23:24.934Z</time></trkpt><trkpt lat="40.7942267" lon="9.5919959"><ele>205.0</ele><time>2026-04-12T08:23:25.922Z</time></trkpt><trkpt lat="40.7941038" lon="9.5919682"><ele>204.0</ele><time>2026-04-12T08:23:26.929Z</time></trkpt><trkpt lat="40.7939798" lon="9.5919099"><ele>203.0</ele><time>2026-04-12T08:23:27.924Z</time></trkpt><trkpt lat="40.793843" lon="9.5918266"><ele>202.0</ele><time>2026-04-12T08:23:28.927Z</time></trkpt><trkpt lat="40.7937124" lon="9.5917306"><ele>201.0</ele><time>2026-04-12T08:23:29.919Z</time></trkpt><trkpt lat="40.7935857" lon="9.5916369"><ele>200.25</ele><time>2026-04-12T08:23:30.923Z</time></trkpt><trkpt lat="40.793479" lon="9.5915364"><ele>199.5</ele><time>2026-04-12T08:23:31.929Z</time></trkpt><trkpt lat="40.7933852" lon="9.591403"><ele>198.75</ele><time>2026-04-12T08:23:32.926Z</time></trkpt><trkpt lat="40.7933126" lon="9.5912323"><ele>198.0</ele><time>2026-04-12T08:23:33.917Z</time></trkpt><trkpt lat="40.7932419" lon="9.5910532"><ele>198.0</ele><time>2026-04-12T08:23:34.918Z</time></trkpt><trkpt lat="40.7931602" lon="9.5908717"><ele>198.0</ele><time>2026-04-12T08:23:35.915Z</time></trkpt><trkpt lat="40.7930684" lon="9.5906884"><ele>198.0</ele><time>2026-04-12T08:23:36.925Z</time></trkpt><trkpt lat="40.7929729" lon="9.5905094"><ele>199.0</ele><time>2026-04-12T08:23:37.921Z</time></trkpt><trkpt lat="40.7928776" lon="9.5903282"><ele>200.0</ele><time>2026-04-12T08:23:38.922Z</time></trkpt><trkpt lat="40.7927802" lon="9.5901593"><ele>201.0</ele><time>2026-04-12T08:23:39.926Z</time></trkpt><trkpt lat="40.7926918" lon="9.5900056"><ele>200.25</ele><time>2026-04-12T08:23:40.92Z</time></trkpt><trkpt lat="40.7926082" lon="9.5898643"><ele>199.5</ele><time>2026-04-12T08:23:41.933Z</time></trkpt><trkpt lat="40.7925279" lon="9.5897292"><ele>198.75</ele><time>2026-04-12T08:23:42.91Z</time></trkpt><trkpt lat="40.7924457" lon="9.5895966"><ele>198.0</ele><time>2026-04-12T08:23:43.913Z</time></trkpt><trkpt lat="40.7923608" lon="9.5894633"><ele>198.0</ele><time>2026-04-12T08:23:44.919Z</time></trkpt><trkpt lat="40.7922701" lon="9.5893255"><ele>198.0</ele><time>2026-04-12T08:23:46.014Z</time></trkpt><trkpt lat="40.7921662" lon="9.5892048"><ele>198.0</ele><time>2026-04-12T08:23:47.01Z</time></trkpt><trkpt lat="40.7920398" lon="9.5890997"><ele>198.0</ele><time>2026-04-12T08:23:48.012Z</time></trkpt><trkpt lat="40.7919015" lon="9.5890256"><ele>196.25</ele><time>2026-04-12T08:23:49.026Z</time></trkpt><trkpt lat="40.7917584" lon="9.5889651"><ele>194.5</ele><time>2026-04-12T08:23:50.008Z</time></trkpt><trkpt lat="40.7916143" lon="9.5889125"><ele>192.75</ele><time>2026-04-12T08:23:51Z</time></trkpt><trkpt lat="40.7914741" lon="9.5888565"><ele>191.0</ele><time>2026-04-12T08:23:52.005Z</time></trkpt><trkpt lat="40.7913531" lon="9.5887663"><ele>194.0</ele><time>2026-04-12T08:23:53.024Z</time></trkpt><trkpt lat="40.7912382" lon="9.5886687"><ele>197.0</ele><time>2026-04-12T08:23:54.011Z</time></trkpt><trkpt lat="40.7911211" lon="9.5885543"><ele>200.0</ele><time>2026-04-12T08:23:55.02Z</time></trkpt><trkpt lat="40.7909948" lon="9.5884429"><ele>203.0</ele><time>2026-04-12T08:23:56.008Z</time></trkpt><trkpt lat="40.7908684" lon="9.5883367"><ele>203.0</ele><time>2026-04-12T08:23:57.005Z</time></trkpt><trkpt lat="40.7907404" lon="9.5882378"><ele>203.0</ele><time>2026-04-12T08:23:57.998Z</time></trkpt><trkpt lat="40.7906154" lon="9.5881342"><ele>203.0</ele><time>2026-04-12T08:23:59Z</time></trkpt><trkpt lat="40.7904947" lon="9.5880232"><ele>203.0</ele><time>2026-04-12T08:24:00.027Z</time></trkpt><trkpt lat="40.7903834" lon="9.5879111"><ele>207.0</ele><time>2026-04-12T08:24:01.003Z</time></trkpt><trkpt lat="40.7902735" lon="9.5878103"><ele>211.0</ele><time>2026-04-12T08:24:02.003Z</time></trkpt><trkpt lat="40.7901647" lon="9.5877477"><ele>215.0</ele><time>2026-04-12T08:24:03.008Z</time></trkpt><trkpt lat="40.7900495" lon="9.5877116"><ele>219.0</ele><time>2026-04-12T08:24:03.997Z</time></trkpt><trkpt lat="40.7899194" lon="9.5877021"><ele>219.0</ele><time>2026-04-12T08:24:05.006Z</time></trkpt><trkpt lat="40.7897999" lon="9.5877039"><ele>218.99999999999997</ele><time>2026-04-12T08:24:05.998Z</time></trkpt><trkpt lat="40.7896916" lon="9.5877013"><ele>218.99999999999997</ele><time>2026-04-12T08:24:07.012Z</time></trkpt><trkpt lat="40.7895937" lon="9.5876712"><ele>219.0</ele><time>2026-04-12T08:24:08.001Z</time></trkpt><trkpt lat="40.789495" lon="9.5876001"><ele>219.0</ele><time>2026-04-12T08:24:08.991Z</time></trkpt><trkpt lat="40.7894153" lon="9.5874975"><ele>219.0</ele><time>2026-04-12T08:24:10.002Z</time></trkpt><trkpt lat="40.7893577" lon="9.5873728"><ele>219.0</ele><time>2026-04-12T08:24:10.993Z</time></trkpt><trkpt lat="40.7893138" lon="9.5872276"><ele>219.0</ele><time>2026-04-12T08:24:11.997Z</time></trkpt><trkpt lat="40.7892789" lon="9.5870691"><ele>219.0</ele><time>2026-04-12T08:24:13.004Z</time></trkpt><trkpt lat="40.7892229" lon="9.5869184"><ele>218.75</ele><time>2026-04-12T08:24:14Z</time></trkpt><trkpt lat="40.7891594" lon="9.5867687"><ele>218.5</ele><time>2026-04-12T08:24:14.989Z</time></trkpt><trkpt lat="40.789076" lon="9.5866198"><ele>218.25</ele><time>2026-04-12T08:24:16.009Z</time></trkpt><trkpt lat="40.7890004" lon="9.586461"><ele>218.0</ele><time>2026-04-12T08:24:17.005Z</time></trkpt><trkpt lat="40.7889325" lon="9.5862898"><ele>221.5</ele><time>2026-04-12T08:24:17.997Z</time></trkpt><trkpt lat="40.7888629" lon="9.5861163"><ele>225.0</ele><time>2026-04-12T08:24:18.995Z</time></trkpt><trkpt lat="40.7887914" lon="9.5859437"><ele>228.5</ele><time>2026-04-12T08:24:20.002Z</time></trkpt><trkpt lat="40.7887253" lon="9.5857819"><ele>232.0</ele><time>2026-04-12T08:24:20.985Z</time></trkpt><trkpt lat="40.7886733" lon="9.585617"><ele>232.0</ele><time>2026-04-12T08:24:21.998Z</time></trkpt><trkpt lat="40.788649" lon="9.5854414"><ele>232.0</ele><time>2026-04-12T08:24:22.989Z</time></trkpt><trkpt lat="40.7886431" lon="9.5852421"><ele>232.0</ele><time>2026-04-12T08:24:23.993Z</time></trkpt><trkpt lat="40.7886224" lon="9.5850437"><ele>232.0</ele><time>2026-04-12T08:24:24.988Z</time></trkpt><trkpt lat="40.7885862" lon="9.5848268"><ele>230.33333333333331</ele><time>2026-04-12T08:24:26.007Z</time></trkpt><trkpt lat="40.7885349" lon="9.584618"><ele>228.66666666666669</ele><time>2026-04-12T08:24:26.989Z</time></trkpt><trkpt lat="40.7884897" lon="9.5844239"><ele>227.0</ele><time>2026-04-12T08:24:27.992Z</time></trkpt><trkpt lat="40.7884514" lon="9.5842521"><ele>227.0</ele><time>2026-04-12T08:24:28.982Z</time></trkpt><trkpt lat="40.7884301" lon="9.5840995"><ele>227.0</ele><time>2026-04-12T08:24:29.989Z</time></trkpt><trkpt lat="40.7884176" lon="9.5839602"><ele>227.0</ele><time>2026-04-12T08:24:30.975Z</time></trkpt><trkpt lat="40.7884426" lon="9.5838217"><ele>227.0</ele><time>2026-04-12T08:24:31.99Z</time></trkpt><trkpt lat="40.7884944" lon="9.5836978"><ele>227.0</ele><time>2026-04-12T08:24:32.984Z</time></trkpt><trkpt lat="40.7885762" lon="9.583586"><ele>227.5</ele><time>2026-04-12T08:24:33.993Z</time></trkpt><trkpt lat="40.7886796" lon="9.5834923"><ele>228.0</ele><time>2026-04-12T08:24:34.992Z</time></trkpt><trkpt lat="40.7888021" lon="9.5834247"><ele>228.5</ele><time>2026-04-12T08:24:35.997Z</time></trkpt><trkpt lat="40.7889441" lon="9.5833739"><ele>229.0</ele><time>2026-04-12T08:24:36.977Z</time></trkpt><trkpt lat="40.7890939" lon="9.583327"><ele>229.0</ele><time>2026-04-12T08:24:37.993Z</time></trkpt><trkpt lat="40.7892382" lon="9.5832655"><ele>229.0</ele><time>2026-04-12T08:24:38.977Z</time></trkpt><trkpt lat="40.7893929" lon="9.5831995"><ele>229.0</ele><time>2026-04-12T08:24:39.998Z</time></trkpt><trkpt lat="40.7895495" lon="9.5831296"><ele>227.66666666666666</ele><time>2026-04-12T08:24:40.991Z</time></trkpt><trkpt lat="40.7897052" lon="9.5830503"><ele>226.33333333333331</ele><time>2026-04-12T08:24:41.99Z</time></trkpt><trkpt lat="40.7898656" lon="9.5829781"><ele>225.0</ele><time>2026-04-12T08:24:42.979Z</time></trkpt><trkpt lat="40.7900316" lon="9.5829099"><ele>222.66666666666669</ele><time>2026-04-12T08:24:43.978Z</time></trkpt><trkpt lat="40.7902022" lon="9.5828348"><ele>220.33333333333334</ele><time>2026-04-12T08:24:44.969Z</time></trkpt><trkpt lat="40.790368" lon="9.5827403"><ele>218.0</ele><time>2026-04-12T08:24:45.982Z</time></trkpt><trkpt lat="40.7905239" lon="9.5826374"><ele>218.0</ele><time>2026-04-12T08:24:46.983Z</time></trkpt><trkpt lat="40.7906752" lon="9.5825379"><ele>218.0</ele><time>2026-04-12T08:24:47.97Z</time></trkpt><trkpt lat="40.7908166" lon="9.5824461"><ele>218.0</ele><time>2026-04-12T08:24:48.969Z</time></trkpt><trkpt lat="40.7909351" lon="9.5823625"><ele>218.75</ele><time>2026-04-12T08:24:49.98Z</time></trkpt><trkpt lat="40.7910267" lon="9.5822681"><ele>219.5</ele><time>2026-04-12T08:24:50.965Z</time></trkpt><trkpt lat="40.7910961" lon="9.5821374"><ele>220.25</ele><time>2026-04-12T08:24:51.972Z</time></trkpt><trkpt lat="40.7911386" lon="9.5819853"><ele>221.0</ele><time>2026-04-12T08:24:52.964Z</time></trkpt><trkpt lat="40.7911662" lon="9.581811"><ele>221.0</ele><time>2026-04-12T08:24:53.971Z</time></trkpt><trkpt lat="40.7911859" lon="9.581622"><ele>221.0</ele><time>2026-04-12T08:24:54.983Z</time></trkpt><trkpt lat="40.7912094" lon="9.5814353"><ele>221.0</ele><time>2026-04-12T08:24:55.981Z</time></trkpt><trkpt lat="40.7912241" lon="9.58124"><ele>221.0</ele><time>2026-04-12T08:24:56.976Z</time></trkpt><trkpt lat="40.7912231" lon="9.5810402"><ele>218.33333333333334</ele><time>2026-04-12T08:24:57.973Z</time></trkpt><trkpt lat="40.7912061" lon="9.5808353"><ele>215.66666666666669</ele><time>2026-04-12T08:24:58.991Z</time></trkpt><trkpt lat="40.7911936" lon="9.5806235"><ele>213.0</ele><time>2026-04-12T08:24:59.966Z</time></trkpt><trkpt lat="40.7911924" lon="9.5804123"><ele>212.66666666666669</ele><time>2026-04-12T08:25:00.972Z</time></trkpt><trkpt lat="40.7911959" lon="9.5801968"><ele>212.33333333333334</ele><time>2026-04-12T08:25:01.981Z</time></trkpt><trkpt lat="40.7912078" lon="9.5799774"><ele>212.0</ele><time>2026-04-12T08:25:02.968Z</time></trkpt><trkpt lat="40.7912214" lon="9.5797528"><ele>212.0</ele><time>2026-04-12T08:25:03.962Z</time></trkpt><trkpt lat="40.7912309" lon="9.5795226"><ele>212.0</ele><time>2026-04-12T08:25:04.961Z</time></trkpt><trkpt lat="40.7912425" lon="9.5792914"><ele>212.0</ele><time>2026-04-12T08:25:05.969Z</time></trkpt><trkpt lat="40.7912641" lon="9.579057"><ele>210.66666666666669</ele><time>2026-04-12T08:25:06.959Z</time></trkpt><trkpt lat="40.791293" lon="9.5788248"><ele>209.33333333333331</ele><time>2026-04-12T08:25:07.958Z</time></trkpt><trkpt lat="40.7913222" lon="9.5786029"><ele>208.0</ele><time>2026-04-12T08:25:08.956Z</time></trkpt><trkpt lat="40.7913497" lon="9.5783933"><ele>206.5</ele><time>2026-04-12T08:25:09.961Z</time></trkpt><trkpt lat="40.7913611" lon="9.578208"><ele>205.0</ele><time>2026-04-12T08:25:10.959Z</time></trkpt><trkpt lat="40.7913583" lon="9.5780438"><ele>203.5</ele><time>2026-04-12T08:25:11.959Z</time></trkpt><trkpt lat="40.7913188" lon="9.5778834"><ele>202.0</ele><time>2026-04-12T08:25:12.959Z</time></trkpt><trkpt lat="40.7912509" lon="9.5777221"><ele>201.0</ele><time>2026-04-12T08:25:13.951Z</time></trkpt><trkpt lat="40.7911699" lon="9.5775568"><ele>200.0</ele><time>2026-04-12T08:25:14.973Z</time></trkpt><trkpt lat="40.7910914" lon="9.5773961"><ele>199.0</ele><time>2026-04-12T08:25:15.952Z</time></trkpt><trkpt lat="40.7910272" lon="9.5772328"><ele>198.0</ele><time>2026-04-12T08:25:16.954Z</time></trkpt><trkpt lat="40.7909863" lon="9.5770633"><ele>197.5</ele><time>2026-04-12T08:25:17.958Z</time></trkpt><trkpt lat="40.790958" lon="9.5768862"><ele>197.0</ele><time>2026-04-12T08:25:18.946Z</time></trkpt><trkpt lat="40.7909505" lon="9.5767039"><ele>196.5</ele><time>2026-04-12T08:25:19.945Z</time></trkpt><trkpt lat="40.7909709" lon="9.5765167"><ele>196.0</ele><time>2026-04-12T08:25:20.955Z</time></trkpt><trkpt lat="40.7910202" lon="9.5763403"><ele>195.5</ele><time>2026-04-12T08:25:21.954Z</time></trkpt><trkpt lat="40.79108" lon="9.5761724"><ele>195.0</ele><time>2026-04-12T08:25:22.958Z</time></trkpt><trkpt lat="40.7911271" lon="9.5759994"><ele>194.5</ele><time>2026-04-12T08:25:23.946Z</time></trkpt><trkpt lat="40.7911334" lon="9.5758334"><ele>194.0</ele><time>2026-04-12T08:25:24.941Z</time></trkpt><trkpt lat="40.791116" lon="9.5756491"><ele>194.0</ele><time>2026-04-12T08:25:25.955Z</time></trkpt><trkpt lat="40.7910894" lon="9.5754553"><ele>194.0</ele><time>2026-04-12T08:25:26.946Z</time></trkpt><trkpt lat="40.7910597" lon="9.5752547"><ele>194.0</ele><time>2026-04-12T08:25:27.95Z</time></trkpt><trkpt lat="40.7910191" lon="9.5750549"><ele>186.66666666666669</ele><time>2026-04-12T08:25:28.938Z</time></trkpt><trkpt lat="40.7909647" lon="9.5748547"><ele>179.33333333333334</ele><time>2026-04-12T08:25:29.951Z</time></trkpt><trkpt lat="40.7909063" lon="9.5746584"><ele>172.0</ele><time>2026-04-12T08:25:30.941Z</time></trkpt><trkpt lat="40.7908491" lon="9.5744777"><ele>171.25</ele><time>2026-04-12T08:25:31.939Z</time></trkpt><trkpt lat="40.7907985" lon="9.5742985"><ele>170.5</ele><time>2026-04-12T08:25:32.941Z</time></trkpt><trkpt lat="40.7907582" lon="9.5741117"><ele>169.75</ele><time>2026-04-12T08:25:33.946Z</time></trkpt><trkpt lat="40.7907339" lon="9.5739195"><ele>169.0</ele><time>2026-04-12T08:25:34.942Z</time></trkpt><trkpt lat="40.7907314" lon="9.5737122"><ele>168.66666666666669</ele><time>2026-04-12T08:25:35.951Z</time></trkpt><trkpt lat="40.7907477" lon="9.5734962"><ele>168.33333333333334</ele><time>2026-04-12T08:25:36.938Z</time></trkpt><trkpt lat="40.7907619" lon="9.5732651"><ele>168.0</ele><time>2026-04-12T08:25:37.937Z</time></trkpt><trkpt lat="40.7907777" lon="9.5730391"><ele>166.33333333333334</ele><time>2026-04-12T08:25:38.946Z</time></trkpt><trkpt lat="40.790791" lon="9.5728118"><ele>164.66666666666669</ele><time>2026-04-12T08:25:39.937Z</time></trkpt><trkpt lat="40.7907998" lon="9.5725918"><ele>163.0</ele><time>2026-04-12T08:25:40.928Z</time></trkpt><trkpt lat="40.7908053" lon="9.5723898"><ele>163.0</ele><time>2026-04-12T08:25:41.935Z</time></trkpt><trkpt lat="40.7908248" lon="9.5722065"><ele>163.0</ele><time>2026-04-12T08:25:42.939Z</time></trkpt><trkpt lat="40.7908619" lon="9.5720464"><ele>163.0</ele><time>2026-04-12T08:25:43.933Z</time></trkpt><trkpt lat="40.7909257" lon="9.5719022"><ele>163.0</ele><time>2026-04-12T08:25:44.934Z</time></trkpt><trkpt lat="40.7910097" lon="9.5717824"><ele>161.75</ele><time>2026-04-12T08:25:45.943Z</time></trkpt><trkpt lat="40.7911075" lon="9.5716796"><ele>160.5</ele><time>2026-04-12T08:25:46.929Z</time></trkpt><trkpt lat="40.7911909" lon="9.5715783"><ele>159.25</ele><time>2026-04-12T08:25:47.931Z</time></trkpt><trkpt lat="40.7912479" lon="9.5714576"><ele>158.0</ele><time>2026-04-12T08:25:48.927Z</time></trkpt><trkpt lat="40.791278" lon="9.5713221"><ele>156.5</ele><time>2026-04-12T08:25:49.925Z</time></trkpt><trkpt lat="40.7912878" lon="9.5711807"><ele>155.0</ele><time>2026-04-12T08:25:50.932Z</time></trkpt><trkpt lat="40.7912642" lon="9.5710241"><ele>153.5</ele><time>2026-04-12T08:25:51.941Z</time></trkpt><trkpt lat="40.7912224" lon="9.5708559"><ele>152.0</ele><time>2026-04-12T08:25:52.927Z</time></trkpt><trkpt lat="40.7911767" lon="9.5706631"><ele>152.0</ele><time>2026-04-12T08:25:53.93Z</time></trkpt><trkpt lat="40.7911319" lon="9.570459"><ele>152.0</ele><time>2026-04-12T08:25:54.933Z</time></trkpt><trkpt lat="40.7910844" lon="9.5702427"><ele>152.0</ele><time>2026-04-12T08:25:55.926Z</time></trkpt><trkpt lat="40.791034" lon="9.5700167"><ele>148.66666666666666</ele><time>2026-04-12T08:25:56.919Z</time></trkpt><trkpt lat="40.7909697" lon="9.5697898"><ele>145.33333333333334</ele><time>2026-04-12T08:25:57.94Z</time></trkpt><trkpt lat="40.7909055" lon="9.5695622"><ele>142.0</ele><time>2026-04-12T08:25:58.933Z</time></trkpt><trkpt lat="40.7908375" lon="9.5693365"><ele>142.0</ele><time>2026-04-12T08:25:59.928Z</time></trkpt><trkpt lat="40.790772" lon="9.5691174"><ele>142.0</ele><time>2026-04-12T08:26:00.924Z</time></trkpt><trkpt lat="40.7907056" lon="9.5689037"><ele>142.0</ele><time>2026-04-12T08:26:01.919Z</time></trkpt><trkpt lat="40.790643" lon="9.5686895"><ele>142.66666666666669</ele><time>2026-04-12T08:26:02.922Z</time></trkpt><trkpt lat="40.79058" lon="9.5684817"><ele>143.33333333333334</ele><time>2026-04-12T08:26:03.934Z</time></trkpt><trkpt lat="40.7905165" lon="9.568278"><ele>144.0</ele><time>2026-04-12T08:26:04.92Z</time></trkpt><trkpt lat="40.7904552" lon="9.5680795"><ele>144.0</ele><time>2026-04-12T08:26:05.934Z</time></trkpt><trkpt lat="40.7903923" lon="9.5678882"><ele>144.0</ele><time>2026-04-12T08:26:06.92Z</time></trkpt><trkpt lat="40.7903154" lon="9.5677102"><ele>144.0</ele><time>2026-04-12T08:26:07.927Z</time></trkpt><trkpt lat="40.7902267" lon="9.5675375"><ele>142.33333333333334</ele><time>2026-04-12T08:26:08.919Z</time></trkpt><trkpt lat="40.7901274" lon="9.5673643"><ele>140.66666666666669</ele><time>2026-04-12T08:26:09.913Z</time></trkpt><trkpt lat="40.7900265" lon="9.5671909"><ele>139.0</ele><time>2026-04-12T08:26:10.917Z</time></trkpt><trkpt lat="40.7899277" lon="9.5670192"><ele>139.0</ele><time>2026-04-12T08:26:11.913Z</time></trkpt><trkpt lat="40.7898224" lon="9.5668469"><ele>139.0</ele><time>2026-04-12T08:26:12.922Z</time></trkpt><trkpt lat="40.7897187" lon="9.5666729"><ele>139.0</ele><time>2026-04-12T08:26:13.918Z</time></trkpt><trkpt lat="40.7896172" lon="9.5664979"><ele>139.0</ele><time>2026-04-12T08:26:15.008Z</time></trkpt><trkpt lat="40.7895145" lon="9.5663278"><ele>139.0</ele><time>2026-04-12T08:26:16.014Z</time></trkpt><trkpt lat="40.7893127" lon="9.5660297"><ele>137.75</ele><time>2026-04-12T08:26:17.923Z</time></trkpt><trkpt lat="40.7892043" lon="9.5659135"><ele>136.5</ele><time>2026-04-12T08:26:19.008Z</time></trkpt><trkpt lat="40.7890887" lon="9.5658231"><ele>135.25</ele><time>2026-04-12T08:26:20.01Z</time></trkpt><trkpt lat="40.7889616" lon="9.5657487"><ele>134.0</ele><time>2026-04-12T08:26:21.007Z</time></trkpt><trkpt lat="40.7888199" lon="9.56569"><ele>134.0</ele><time>2026-04-12T08:26:22.009Z</time></trkpt><trkpt lat="40.7886732" lon="9.5656438"><ele>134.0</ele><time>2026-04-12T08:26:23.011Z</time></trkpt><trkpt lat="40.7885273" lon="9.5655911"><ele>134.0</ele><time>2026-04-12T08:26:24.017Z</time></trkpt><trkpt lat="40.7883853" lon="9.5655301"><ele>133.75</ele><time>2026-04-12T08:26:25.021Z</time></trkpt><trkpt lat="40.7882436" lon="9.5654542"><ele>133.5</ele><time>2026-04-12T08:26:26.008Z</time></trkpt><trkpt lat="40.7881105" lon="9.5653671"><ele>133.25</ele><time>2026-04-12T08:26:27.004Z</time></trkpt><trkpt lat="40.7880112" lon="9.565223"><ele>133.0</ele><time>2026-04-12T08:26:28.005Z</time></trkpt><trkpt lat="40.7879165" lon="9.5650625"><ele>132.75</ele><time>2026-04-12T08:26:29.008Z</time></trkpt><trkpt lat="40.7878277" lon="9.5649112"><ele>132.5</ele><time>2026-04-12T08:26:30.011Z</time></trkpt><trkpt lat="40.787731" lon="9.5647613"><ele>132.25</ele><time>2026-04-12T08:26:31.009Z</time></trkpt><trkpt lat="40.7876345" lon="9.5646164"><ele>132.0</ele><time>2026-04-12T08:26:32.001Z</time></trkpt><trkpt lat="40.7875386" lon="9.5644683"><ele>131.75</ele><time>2026-04-12T08:26:33.005Z</time></trkpt><trkpt lat="40.7874391" lon="9.5643233"><ele>131.5</ele><time>2026-04-12T08:26:34.003Z</time></trkpt><trkpt lat="40.7873423" lon="9.5641789"><ele>131.25</ele><time>2026-04-12T08:26:35Z</time></trkpt><trkpt lat="40.78724" lon="9.5640492"><ele>131.0</ele><time>2026-04-12T08:26:35.995Z</time></trkpt><trkpt lat="40.7871437" lon="9.5639285"><ele>131.0</ele><time>2026-04-12T08:26:37.001Z</time></trkpt><trkpt lat="40.7870557" lon="9.5638135"><ele>131.0</ele><time>2026-04-12T08:26:38.008Z</time></trkpt><trkpt lat="40.7869611" lon="9.563699"><ele>131.0</ele><time>2026-04-12T08:26:38.996Z</time></trkpt><trkpt lat="40.7868659" lon="9.5635879"><ele>131.0</ele><time>2026-04-12T08:26:40.003Z</time></trkpt><trkpt lat="40.7867668" lon="9.5634719"><ele>131.25</ele><time>2026-04-12T08:26:41.001Z</time></trkpt><trkpt lat="40.7866664" lon="9.5633478"><ele>131.5</ele><time>2026-04-12T08:26:42.007Z</time></trkpt><trkpt lat="40.7865647" lon="9.5632266"><ele>131.75</ele><time>2026-04-12T08:26:42.995Z</time></trkpt><trkpt lat="40.7864601" lon="9.5631037"><ele>132.0</ele><time>2026-04-12T08:26:43.997Z</time></trkpt><trkpt lat="40.7863557" lon="9.56298"><ele>131.75</ele><time>2026-04-12T08:26:44.991Z</time></trkpt><trkpt lat="40.7862488" lon="9.5628552"><ele>131.5</ele><time>2026-04-12T08:26:45.999Z</time></trkpt><trkpt lat="40.7861423" lon="9.5627262"><ele>131.25</ele><time>2026-04-12T08:26:46.994Z</time></trkpt><trkpt lat="40.7860328" lon="9.5625961"><ele>131.0</ele><time>2026-04-12T08:26:47.997Z</time></trkpt><trkpt lat="40.7859222" lon="9.5624676"><ele>132.0</ele><time>2026-04-12T08:26:48.996Z</time></trkpt><trkpt lat="40.7858141" lon="9.5623362"><ele>133.0</ele><time>2026-04-12T08:26:50.005Z</time></trkpt><trkpt lat="40.7857118" lon="9.5622098"><ele>134.0</ele><time>2026-04-12T08:26:51.002Z</time></trkpt><trkpt lat="40.7856063" lon="9.562087"><ele>135.0</ele><time>2026-04-12T08:26:51.996Z</time></trkpt><trkpt lat="40.785503" lon="9.5619686"><ele>135.0</ele><time>2026-04-12T08:26:52.988Z</time></trkpt><trkpt lat="40.7854016" lon="9.5618519"><ele>135.0</ele><time>2026-04-12T08:26:53.99Z</time></trkpt><trkpt lat="40.7853064" lon="9.5617359"><ele>135.0</ele><time>2026-04-12T08:26:54.994Z</time></trkpt><trkpt lat="40.7852081" lon="9.5616197"><ele>135.0</ele><time>2026-04-12T08:26:56Z</time></trkpt><trkpt lat="40.7851062" lon="9.5615053"><ele>137.0</ele><time>2026-04-12T08:26:56.996Z</time></trkpt><trkpt lat="40.7849984" lon="9.5613908"><ele>139.0</ele><time>2026-04-12T08:26:58.011Z</time></trkpt><trkpt lat="40.7848897" lon="9.5612819"><ele>141.0</ele><time>2026-04-12T08:26:58.993Z</time></trkpt><trkpt lat="40.7847776" lon="9.5611752"><ele>143.0</ele><time>2026-04-12T08:26:59.984Z</time></trkpt><trkpt lat="40.7846657" lon="9.5610655"><ele>143.0</ele><time>2026-04-12T08:27:00.984Z</time></trkpt><trkpt lat="40.7845565" lon="9.5609638"><ele>143.0</ele><time>2026-04-12T08:27:01.981Z</time></trkpt><trkpt lat="40.7844486" lon="9.5608567"><ele>143.0</ele><time>2026-04-12T08:27:02.976Z</time></trkpt><trkpt lat="40.7843404" lon="9.5607532"><ele>143.0</ele><time>2026-04-12T08:27:03.986Z</time></trkpt><trkpt lat="40.7842349" lon="9.5606468"><ele>142.5</ele><time>2026-04-12T08:27:04.986Z</time></trkpt><trkpt lat="40.7841305" lon="9.5605375"><ele>142.0</ele><time>2026-04-12T08:27:05.989Z</time></trkpt><trkpt lat="40.7840278" lon="9.5604261"><ele>141.5</ele><time>2026-04-12T08:27:06.979Z</time></trkpt><trkpt lat="40.7839239" lon="9.5603153"><ele>141.0</ele><time>2026-04-12T08:27:07.982Z</time></trkpt><trkpt lat="40.7838255" lon="9.5601901"><ele>141.0</ele><time>2026-04-12T08:27:08.985Z</time></trkpt><trkpt lat="40.7837352" lon="9.5600429"><ele>141.0</ele><time>2026-04-12T08:27:09.983Z</time></trkpt><trkpt lat="40.7836508" lon="9.5598854"><ele>141.0</ele><time>2026-04-12T08:27:10.976Z</time></trkpt><trkpt lat="40.7835618" lon="9.5597223"><ele>141.0</ele><time>2026-04-12T08:27:11.991Z</time></trkpt><trkpt lat="40.7834727" lon="9.5595641"><ele>141.75</ele><time>2026-04-12T08:27:12.979Z</time></trkpt><trkpt lat="40.7833834" lon="9.5594037"><ele>142.5</ele><time>2026-04-12T08:27:13.982Z</time></trkpt><trkpt lat="40.7832965" lon="9.5592504"><ele>143.25</ele><time>2026-04-12T08:27:14.978Z</time></trkpt><trkpt lat="40.783213" lon="9.5590949"><ele>144.0</ele><time>2026-04-12T08:27:15.975Z</time></trkpt><trkpt lat="40.7831255" lon="9.5589414"><ele>144.0</ele><time>2026-04-12T08:27:16.978Z</time></trkpt><trkpt lat="40.7830374" lon="9.5587852"><ele>144.0</ele><time>2026-04-12T08:27:17.989Z</time></trkpt><trkpt lat="40.7829466" lon="9.5586285"><ele>144.0</ele><time>2026-04-12T08:27:18.974Z</time></trkpt><trkpt lat="40.7828528" lon="9.5584678"><ele>144.33333333333334</ele><time>2026-04-12T08:27:19.972Z</time></trkpt><trkpt lat="40.7827543" lon="9.5583078"><ele>144.66666666666669</ele><time>2026-04-12T08:27:20.973Z</time></trkpt><trkpt lat="40.7826552" lon="9.5581473"><ele>145.0</ele><time>2026-04-12T08:27:21.981Z</time></trkpt><trkpt lat="40.7825548" lon="9.5579856"><ele>144.33333333333334</ele><time>2026-04-12T08:27:22.971Z</time></trkpt><trkpt lat="40.7824528" lon="9.5578196"><ele>143.66666666666666</ele><time>2026-04-12T08:27:24.007Z</time></trkpt><trkpt lat="40.7823482" lon="9.5576502"><ele>143.0</ele><time>2026-04-12T08:27:24.977Z</time></trkpt><trkpt lat="40.7822438" lon="9.5574814"><ele>143.0</ele><time>2026-04-12T08:27:25.975Z</time></trkpt><trkpt lat="40.7821405" lon="9.5573095"><ele>143.0</ele><time>2026-04-12T08:27:26.969Z</time></trkpt><trkpt lat="40.7820374" lon="9.5571418"><ele>143.0</ele><time>2026-04-12T08:27:27.969Z</time></trkpt><trkpt lat="40.7819361" lon="9.5569742"><ele>145.66666666666666</ele><time>2026-04-12T08:27:28.976Z</time></trkpt><trkpt lat="40.7818354" lon="9.5568114"><ele>148.33333333333334</ele><time>2026-04-12T08:27:29.974Z</time></trkpt><trkpt lat="40.7817385" lon="9.5566479"><ele>151.0</ele><time>2026-04-12T08:27:30.978Z</time></trkpt><trkpt lat="40.7816427" lon="9.5564895"><ele>151.0</ele><time>2026-04-12T08:27:31.967Z</time></trkpt><trkpt lat="40.7815489" lon="9.5563335"><ele>151.0</ele><time>2026-04-12T08:27:32.975Z</time></trkpt><trkpt lat="40.7814562" lon="9.5561817"><ele>151.0</ele><time>2026-04-12T08:27:33.968Z</time></trkpt><trkpt lat="40.7813615" lon="9.5560284"><ele>151.0</ele><time>2026-04-12T08:27:34.968Z</time></trkpt><trkpt lat="40.7812685" lon="9.5558797"><ele>151.25</ele><time>2026-04-12T08:27:35.965Z</time></trkpt><trkpt lat="40.7811715" lon="9.5557361"><ele>151.5</ele><time>2026-04-12T08:27:36.962Z</time></trkpt><trkpt lat="40.7810719" lon="9.5555948"><ele>151.75</ele><time>2026-04-12T08:27:37.976Z</time></trkpt><trkpt lat="40.7809648" lon="9.5554637"><ele>152.0</ele><time>2026-04-12T08:27:38.964Z</time></trkpt><trkpt lat="40.7808495" lon="9.5553408"><ele>153.25</ele><time>2026-04-12T08:27:39.957Z</time></trkpt><trkpt lat="40.7807367" lon="9.5552247"><ele>154.5</ele><time>2026-04-12T08:27:40.959Z</time></trkpt><trkpt lat="40.7806217" lon="9.5551101"><ele>155.75</ele><time>2026-04-12T08:27:41.957Z</time></trkpt><trkpt lat="40.7805155" lon="9.5549942"><ele>157.0</ele><time>2026-04-12T08:27:42.954Z</time></trkpt><trkpt lat="40.7804005" lon="9.5548835"><ele>157.0</ele><time>2026-04-12T08:27:43.974Z</time></trkpt><trkpt lat="40.7802822" lon="9.5547838"><ele>157.0</ele><time>2026-04-12T08:27:44.953Z</time></trkpt><trkpt lat="40.7801513" lon="9.5547079"><ele>157.0</ele><time>2026-04-12T08:27:45.954Z</time></trkpt><trkpt lat="40.780013" lon="9.554641"><ele>157.0</ele><time>2026-04-12T08:27:46.957Z</time></trkpt><trkpt lat="40.7798703" lon="9.55458"><ele>158.25</ele><time>2026-04-12T08:27:47.952Z</time></trkpt><trkpt lat="40.7797284" lon="9.5545239"><ele>159.5</ele><time>2026-04-12T08:27:48.952Z</time></trkpt><trkpt lat="40.7795865" lon="9.5544645"><ele>160.75</ele><time>2026-04-12T08:27:49.949Z</time></trkpt><trkpt lat="40.7794411" lon="9.5544093"><ele>162.0</ele><time>2026-04-12T08:27:50.955Z</time></trkpt><trkpt lat="40.7792931" lon="9.5543614"><ele>164.0</ele><time>2026-04-12T08:27:51.955Z</time></trkpt><trkpt lat="40.7791401" lon="9.5543285"><ele>166.0</ele><time>2026-04-12T08:27:52.956Z</time></trkpt><trkpt lat="40.7789881" lon="9.5542982"><ele>168.0</ele><time>2026-04-12T08:27:53.947Z</time></trkpt><trkpt lat="40.7788395" lon="9.5542707"><ele>168.0</ele><time>2026-04-12T08:27:54.952Z</time></trkpt><trkpt lat="40.7786893" lon="9.5542406"><ele>168.0</ele><time>2026-04-12T08:27:55.946Z</time></trkpt><trkpt lat="40.778543" lon="9.5542145"><ele>168.0</ele><time>2026-04-12T08:27:56.952Z</time></trkpt><trkpt lat="40.7784055" lon="9.5541961"><ele>168.0</ele><time>2026-04-12T08:27:57.947Z</time></trkpt><trkpt lat="40.7782752" lon="9.554191"><ele>167.5</ele><time>2026-04-12T08:27:58.947Z</time></trkpt><trkpt lat="40.7781476" lon="9.5541921"><ele>167.0</ele><time>2026-04-12T08:27:59.951Z</time></trkpt><trkpt lat="40.7780245" lon="9.55422"><ele>166.5</ele><time>2026-04-12T08:28:00.943Z</time></trkpt><trkpt lat="40.777898" lon="9.5542769"><ele>166.0</ele><time>2026-04-12T08:28:01.964Z</time></trkpt><trkpt lat="40.777762" lon="9.5543562"><ele>164.33333333333334</ele><time>2026-04-12T08:28:02.936Z</time></trkpt><trkpt lat="40.7776203" lon="9.5544458"><ele>162.66666666666666</ele><time>2026-04-12T08:28:03.944Z</time></trkpt><trkpt lat="40.7774689" lon="9.5545387"><ele>161.0</ele><time>2026-04-12T08:28:04.948Z</time></trkpt><trkpt lat="40.7773176" lon="9.5546342"><ele>160.0</ele><time>2026-04-12T08:28:05.942Z</time></trkpt><trkpt lat="40.7771659" lon="9.5547311"><ele>159.0</ele><time>2026-04-12T08:28:06.937Z</time></trkpt><trkpt lat="40.7770236" lon="9.5548203"><ele>158.0</ele><time>2026-04-12T08:28:07.945Z</time></trkpt><trkpt lat="40.7768874" lon="9.5549138"><ele>157.25</ele><time>2026-04-12T08:28:08.938Z</time></trkpt><trkpt lat="40.7767561" lon="9.554996"><ele>156.5</ele><time>2026-04-12T08:28:09.934Z</time></trkpt><trkpt lat="40.7766265" lon="9.5550808"><ele>155.75</ele><time>2026-04-12T08:28:10.943Z</time></trkpt><trkpt lat="40.7764955" lon="9.5551641"><ele>155.0</ele><time>2026-04-12T08:28:11.935Z</time></trkpt><trkpt lat="40.7763659" lon="9.5552482"><ele>155.0</ele><time>2026-04-12T08:28:12.936Z</time></trkpt><trkpt lat="40.7762406" lon="9.5553267"><ele>155.0</ele><time>2026-04-12T08:28:13.938Z</time></trkpt><trkpt lat="40.77612" lon="9.5553981"><ele>155.0</ele><time>2026-04-12T08:28:14.93Z</time></trkpt><trkpt lat="40.776" lon="9.5554602"><ele>155.0</ele><time>2026-04-12T08:28:15.929Z</time></trkpt><trkpt lat="40.7758828" lon="9.5554963"><ele>154.0</ele><time>2026-04-12T08:28:16.933Z</time></trkpt><trkpt lat="40.7757643" lon="9.5554983"><ele>153.0</ele><time>2026-04-12T08:28:17.94Z</time></trkpt><trkpt lat="40.7756494" lon="9.5554626"><ele>152.0</ele><time>2026-04-12T08:28:18.94Z</time></trkpt><trkpt lat="40.775533" lon="9.5553948"><ele>151.0</ele><time>2026-04-12T08:28:19.927Z</time></trkpt><trkpt lat="40.775416" lon="9.5553123"><ele>151.0</ele><time>2026-04-12T08:28:20.926Z</time></trkpt><trkpt lat="40.7753071" lon="9.5552175"><ele>151.0</ele><time>2026-04-12T08:28:21.93Z</time></trkpt><trkpt lat="40.7752132" lon="9.5551005"><ele>151.0</ele><time>2026-04-12T08:28:22.925Z</time></trkpt><trkpt lat="40.7751409" lon="9.5549556"><ele>151.0</ele><time>2026-04-12T08:28:23.936Z</time></trkpt><trkpt lat="40.775087" lon="9.5547973"><ele>150.5</ele><time>2026-04-12T08:28:24.923Z</time></trkpt><trkpt lat="40.7750531" lon="9.5546192"><ele>150.0</ele><time>2026-04-12T08:28:25.929Z</time></trkpt><trkpt lat="40.7750142" lon="9.5544541"><ele>149.5</ele><time>2026-04-12T08:28:26.925Z</time></trkpt><trkpt lat="40.7749772" lon="9.5542956"><ele>149.0</ele><time>2026-04-12T08:28:27.931Z</time></trkpt><trkpt lat="40.7749278" lon="9.5541531"><ele>148.25</ele><time>2026-04-12T08:28:28.931Z</time></trkpt><trkpt lat="40.7748568" lon="9.5540332"><ele>147.5</ele><time>2026-04-12T08:28:29.921Z</time></trkpt><trkpt lat="40.7747735" lon="9.5539242"><ele>146.75</ele><time>2026-04-12T08:28:30.924Z</time></trkpt><trkpt lat="40.7746759" lon="9.5538351"><ele>146.0</ele><time>2026-04-12T08:28:31.931Z</time></trkpt><trkpt lat="40.774562" lon="9.5537662"><ele>146.0</ele><time>2026-04-12T08:28:32.93Z</time></trkpt><trkpt lat="40.7744331" lon="9.5537108"><ele>146.0</ele><time>2026-04-12T08:28:33.922Z</time></trkpt><trkpt lat="40.7742936" lon="9.5536553"><ele>146.0</ele><time>2026-04-12T08:28:34.924Z</time></trkpt><trkpt lat="40.7741517" lon="9.5535966"><ele>146.0</ele><time>2026-04-12T08:28:35.931Z</time></trkpt><trkpt lat="40.7740041" lon="9.5535339"><ele>143.66666666666666</ele><time>2026-04-12T08:28:36.928Z</time></trkpt><trkpt lat="40.7738498" lon="9.5534682"><ele>141.33333333333334</ele><time>2026-04-12T08:28:37.921Z</time></trkpt><trkpt lat="40.773693" lon="9.5534056"><ele>139.0</ele><time>2026-04-12T08:28:38.916Z</time></trkpt><trkpt lat="40.7735444" lon="9.5533382"><ele>139.5</ele><time>2026-04-12T08:28:39.924Z</time></trkpt><trkpt lat="40.7734027" lon="9.5532739"><ele>140.0</ele><time>2026-04-12T08:28:40.921Z</time></trkpt><trkpt lat="40.773273" lon="9.5532087"><ele>140.5</ele><time>2026-04-12T08:28:41.92Z</time></trkpt><trkpt lat="40.773161" lon="9.5531302"><ele>141.0</ele><time>2026-04-12T08:28:42.909Z</time></trkpt><trkpt lat="40.773067" lon="9.553014"><ele>141.0</ele><time>2026-04-12T08:28:43.916Z</time></trkpt><trkpt lat="40.7729927" lon="9.552883"><ele>141.0</ele><time>2026-04-12T08:28:44.909Z</time></trkpt><trkpt lat="40.7729325" lon="9.5527342"><ele>141.0</ele><time>2026-04-12T08:28:45.911Z</time></trkpt><trkpt lat="40.7728793" lon="9.5525613"><ele>141.0</ele><time>2026-04-12T08:28:46.918Z</time></trkpt><trkpt lat="40.7728287" lon="9.5523795"><ele>140.66666666666666</ele><time>2026-04-12T08:28:48.01Z</time></trkpt><trkpt lat="40.772772" lon="9.5521894"><ele>140.33333333333331</ele><time>2026-04-12T08:28:49.019Z</time></trkpt><trkpt lat="40.7727158" lon="9.5520022"><ele>140.0</ele><time>2026-04-12T08:28:50.009Z</time></trkpt><trkpt lat="40.7726609" lon="9.5518288"><ele>140.4</ele><time>2026-04-12T08:28:50.919Z</time></trkpt><trkpt lat="40.7726101" lon="9.5516719"><ele>140.8</ele><time>2026-04-12T08:28:52.018Z</time></trkpt><trkpt lat="40.7725619" lon="9.5515224"><ele>141.2</ele><time>2026-04-12T08:28:53.025Z</time></trkpt><trkpt lat="40.7725197" lon="9.5513994"><ele>141.6</ele><time>2026-04-12T08:28:54.001Z</time></trkpt><trkpt lat="40.772491" lon="9.5512917"><ele>142.0</ele><time>2026-04-12T08:28:55.01Z</time></trkpt><trkpt lat="40.7724665" lon="9.5512119"><ele>142.0</ele><time>2026-04-12T08:28:56.01Z</time></trkpt><trkpt lat="40.7724157" lon="9.5510725"><ele>142.0</ele><time>2026-04-12T08:28:58.023Z</time></trkpt><trkpt lat="40.7723595" lon="9.5509669"><ele>142.0</ele><time>2026-04-12T08:29:00.018Z</time></trkpt><trkpt lat="40.7723024" lon="9.5508614"><ele>142.0</ele><time>2026-04-12T08:29:01.997Z</time></trkpt><trkpt lat="40.7722454" lon="9.550726"><ele>142.0</ele><time>2026-04-12T08:29:04.005Z</time></trkpt><trkpt lat="40.7721928" lon="9.5505736"><ele>142.0</ele><time>2026-04-12T08:29:06.006Z</time></trkpt><trkpt lat="40.7721594" lon="9.5505004"><ele>142.0</ele><time>2026-04-12T08:29:06.998Z</time></trkpt><trkpt lat="40.7721213" lon="9.550425"><ele>142.0</ele><time>2026-04-12T08:29:08.014Z</time></trkpt><trkpt lat="40.7720845" lon="9.5503488"><ele>142.0</ele><time>2026-04-12T08:29:09.003Z</time></trkpt><trkpt lat="40.771998" lon="9.5502427"><ele>142.0</ele><time>2026-04-12T08:29:11.024Z</time></trkpt><trkpt lat="40.7718982" lon="9.5501569"><ele>142.0</ele><time>2026-04-12T08:29:13Z</time></trkpt><trkpt lat="40.7718373" lon="9.5501292"><ele>141.66666666666669</ele><time>2026-04-12T08:29:14.015Z</time></trkpt><trkpt lat="40.771772" lon="9.550108"><ele>141.33333333333334</ele><time>2026-04-12T08:29:15.002Z</time></trkpt><trkpt lat="40.7717041" lon="9.5500839"><ele>141.0</ele><time>2026-04-12T08:29:15.995Z</time></trkpt><trkpt lat="40.7716263" lon="9.5500502"><ele>140.66666666666666</ele><time>2026-04-12T08:29:17.007Z</time></trkpt><trkpt lat="40.7715502" lon="9.5500151"><ele>140.33333333333331</ele><time>2026-04-12T08:29:18.002Z</time></trkpt><trkpt lat="40.7714805" lon="9.5499776"><ele>140.0</ele><time>2026-04-12T08:29:18.994Z</time></trkpt><trkpt lat="40.7714027" lon="9.5499457"><ele>140.0</ele><time>2026-04-12T08:29:20.008Z</time></trkpt><trkpt lat="40.7713288" lon="9.5499197"><ele>140.0</ele><time>2026-04-12T08:29:20.991Z</time></trkpt><trkpt lat="40.7712626" lon="9.5499013"><ele>140.0</ele><time>2026-04-12T08:29:22.001Z</time></trkpt><trkpt lat="40.7711957" lon="9.5498791"><ele>140.0</ele><time>2026-04-12T08:29:22.997Z</time></trkpt><trkpt lat="40.7711315" lon="9.5498529"><ele>140.0</ele><time>2026-04-12T08:29:24.004Z</time></trkpt><trkpt lat="40.7710364" lon="9.5497709"><ele>140.0</ele><time>2026-04-12T08:29:25.992Z</time></trkpt><trkpt lat="40.7709919" lon="9.5496981"><ele>139.33333333333331</ele><time>2026-04-12T08:29:27.003Z</time></trkpt><trkpt lat="40.7709529" lon="9.5496034"><ele>138.66666666666666</ele><time>2026-04-12T08:29:27.983Z</time></trkpt><trkpt lat="40.7709066" lon="9.5495097"><ele>138.0</ele><time>2026-04-12T08:29:28.995Z</time></trkpt><trkpt lat="40.7708609" lon="9.5494071"><ele>137.33333333333334</ele><time>2026-04-12T08:29:29.991Z</time></trkpt><trkpt lat="40.7708121" lon="9.5492989"><ele>136.66666666666669</ele><time>2026-04-12T08:29:30.988Z</time></trkpt><trkpt lat="40.770763" lon="9.5491906"><ele>136.0</ele><time>2026-04-12T08:29:31.998Z</time></trkpt><trkpt lat="40.7707222" lon="9.5490914"><ele>135.83333333333334</ele><time>2026-04-12T08:29:32.985Z</time></trkpt><trkpt lat="40.7706922" lon="9.548987"><ele>135.66666666666669</ele><time>2026-04-12T08:29:33.979Z</time></trkpt><trkpt lat="40.770667" lon="9.5488828"><ele>135.5</ele><time>2026-04-12T08:29:34.98Z</time></trkpt><trkpt lat="40.7706384" lon="9.5487789"><ele>135.33333333333334</ele><time>2026-04-12T08:29:35.993Z</time></trkpt><trkpt lat="40.7706059" lon="9.548669"><ele>135.16666666666666</ele><time>2026-04-12T08:29:36.984Z</time></trkpt><trkpt lat="40.7705695" lon="9.5485633"><ele>135.0</ele><time>2026-04-12T08:29:37.982Z</time></trkpt><trkpt lat="40.7705333" lon="9.5484653"><ele>134.83333333333334</ele><time>2026-04-12T08:29:38.982Z</time></trkpt><trkpt lat="40.7705028" lon="9.5483615"><ele>134.66666666666666</ele><time>2026-04-12T08:29:39.994Z</time></trkpt><trkpt lat="40.7704718" lon="9.5482554"><ele>134.5</ele><time>2026-04-12T08:29:40.98Z</time></trkpt><trkpt lat="40.7704362" lon="9.5481468"><ele>134.33333333333331</ele><time>2026-04-12T08:29:41.981Z</time></trkpt><trkpt lat="40.770402" lon="9.5480399"><ele>134.16666666666666</ele><time>2026-04-12T08:29:42.981Z</time></trkpt><trkpt lat="40.7703674" lon="9.5479392"><ele>134.0</ele><time>2026-04-12T08:29:43.989Z</time></trkpt><trkpt lat="40.7703379" lon="9.5478341"><ele>133.8</ele><time>2026-04-12T08:29:44.974Z</time></trkpt><trkpt lat="40.7703141" lon="9.5477298"><ele>133.60000000000002</ele><time>2026-04-12T08:29:45.979Z</time></trkpt><trkpt lat="40.7702855" lon="9.5476205"><ele>133.4</ele><time>2026-04-12T08:29:46.984Z</time></trkpt><trkpt lat="40.770256" lon="9.5475115"><ele>133.20000000000002</ele><time>2026-04-12T08:29:47.987Z</time></trkpt><trkpt lat="40.7702265" lon="9.5473884"><ele>133.0</ele><time>2026-04-12T08:29:48.975Z</time></trkpt><trkpt lat="40.7701846" lon="9.5472502"><ele>133.6</ele><time>2026-04-12T08:29:49.985Z</time></trkpt><trkpt lat="40.7701465" lon="9.5471048"><ele>134.20000000000002</ele><time>2026-04-12T08:29:50.976Z</time></trkpt><trkpt lat="40.7701102" lon="9.5469718"><ele>134.8</ele><time>2026-04-12T08:29:51.98Z</time></trkpt><trkpt lat="40.7700808" lon="9.5468493"><ele>135.4</ele><time>2026-04-12T08:29:52.974Z</time></trkpt><trkpt lat="40.7700571" lon="9.546721"><ele>136.0</ele><time>2026-04-12T08:29:53.983Z</time></trkpt><trkpt lat="40.7700379" lon="9.5465787"><ele>136.0</ele><time>2026-04-12T08:29:54.977Z</time></trkpt><trkpt lat="40.7700185" lon="9.54643"><ele>136.0</ele><time>2026-04-12T08:29:55.982Z</time></trkpt><trkpt lat="40.7699971" lon="9.5462768"><ele>136.0</ele><time>2026-04-12T08:29:56.978Z</time></trkpt><trkpt lat="40.769979" lon="9.5461233"><ele>136.0</ele><time>2026-04-12T08:29:57.981Z</time></trkpt><trkpt lat="40.7699658" lon="9.5459758"><ele>136.0</ele><time>2026-04-12T08:29:58.978Z</time></trkpt><trkpt lat="40.7699527" lon="9.545847"><ele>136.0</ele><time>2026-04-12T08:29:59.975Z</time></trkpt><trkpt lat="40.7699305" lon="9.5457274"><ele>136.0</ele><time>2026-04-12T08:30:00.969Z</time></trkpt><trkpt lat="40.7699024" lon="9.5455972"><ele>136.0</ele><time>2026-04-12T08:30:01.979Z</time></trkpt><trkpt lat="40.7698718" lon="9.545468"><ele>136.0</ele><time>2026-04-12T08:30:02.973Z</time></trkpt><trkpt lat="40.7698369" lon="9.5453428"><ele>136.0</ele><time>2026-04-12T08:30:03.97Z</time></trkpt><trkpt lat="40.7698015" lon="9.5452193"><ele>136.0</ele><time>2026-04-12T08:30:04.968Z</time></trkpt><trkpt lat="40.7697628" lon="9.5450838"><ele>136.0</ele><time>2026-04-12T08:30:05.976Z</time></trkpt><trkpt lat="40.7697236" lon="9.5449435"><ele>136.0</ele><time>2026-04-12T08:30:06.967Z</time></trkpt><trkpt lat="40.7696852" lon="9.5447959"><ele>136.0</ele><time>2026-04-12T08:30:07.979Z</time></trkpt><trkpt lat="40.7696446" lon="9.5446508"><ele>135.25</ele><time>2026-04-12T08:30:08.978Z</time></trkpt><trkpt lat="40.7696035" lon="9.5445057"><ele>134.5</ele><time>2026-04-12T08:30:09.971Z</time></trkpt><trkpt lat="40.7695646" lon="9.5443651"><ele>133.75</ele><time>2026-04-12T08:30:10.962Z</time></trkpt><trkpt lat="40.7695212" lon="9.5442293"><ele>133.0</ele><time>2026-04-12T08:30:11.965Z</time></trkpt><trkpt lat="40.7694682" lon="9.5440796"><ele>133.0</ele><time>2026-04-12T08:30:12.968Z</time></trkpt><trkpt lat="40.7694117" lon="9.5439125"><ele>133.0</ele><time>2026-04-12T08:30:13.984Z</time></trkpt><trkpt lat="40.769354" lon="9.5437374"><ele>133.0</ele><time>2026-04-12T08:30:14.966Z</time></trkpt><trkpt lat="40.7692935" lon="9.5435679"><ele>133.0</ele><time>2026-04-12T08:30:15.967Z</time></trkpt><trkpt lat="40.7692484" lon="9.5434084"><ele>133.0</ele><time>2026-04-12T08:30:16.972Z</time></trkpt><trkpt lat="40.7692059" lon="9.5432451"><ele>133.0</ele><time>2026-04-12T08:30:17.974Z</time></trkpt><trkpt lat="40.7691654" lon="9.5430884"><ele>133.0</ele><time>2026-04-12T08:30:18.964Z</time></trkpt><trkpt lat="40.7691324" lon="9.5429458"><ele>133.0</ele><time>2026-04-12T08:30:19.974Z</time></trkpt><trkpt lat="40.7691039" lon="9.5428095"><ele>133.0</ele><time>2026-04-12T08:30:20.981Z</time></trkpt><trkpt lat="40.7690747" lon="9.5426701"><ele>133.0</ele><time>2026-04-12T08:30:21.964Z</time></trkpt><trkpt lat="40.7690436" lon="9.5425298"><ele>133.0</ele><time>2026-04-12T08:30:22.959Z</time></trkpt><trkpt lat="40.7690083" lon="9.5423849"><ele>133.0</ele><time>2026-04-12T08:30:23.957Z</time></trkpt><trkpt lat="40.7689792" lon="9.5422446"><ele>133.0</ele><time>2026-04-12T08:30:24.962Z</time></trkpt><trkpt lat="40.7689483" lon="9.5421117"><ele>132.4</ele><time>2026-04-12T08:30:25.966Z</time></trkpt><trkpt lat="40.7689162" lon="9.5419791"><ele>131.8</ele><time>2026-04-12T08:30:26.963Z</time></trkpt><trkpt lat="40.7688776" lon="9.5418446"><ele>131.2</ele><time>2026-04-12T08:30:27.974Z</time></trkpt><trkpt lat="40.7688387" lon="9.5417087"><ele>130.6</ele><time>2026-04-12T08:30:28.967Z</time></trkpt><trkpt lat="40.7688056" lon="9.5415716"><ele>130.0</ele><time>2026-04-12T08:30:29.967Z</time></trkpt><trkpt lat="40.7687795" lon="9.5414266"><ele>130.0</ele><time>2026-04-12T08:30:30.961Z</time></trkpt><trkpt lat="40.768752" lon="9.5412889"><ele>130.0</ele><time>2026-04-12T08:30:31.964Z</time></trkpt><trkpt lat="40.7687231" lon="9.5411588"><ele>130.0</ele><time>2026-04-12T08:30:32.964Z</time></trkpt><trkpt lat="40.7686863" lon="9.541031"><ele>130.0</ele><time>2026-04-12T08:30:33.966Z</time></trkpt><trkpt lat="40.7686494" lon="9.5409071"><ele>130.0</ele><time>2026-04-12T08:30:34.958Z</time></trkpt><trkpt lat="40.7686051" lon="9.5407843"><ele>129.83333333333334</ele><time>2026-04-12T08:30:35.958Z</time></trkpt><trkpt lat="40.7685658" lon="9.5406611"><ele>129.66666666666669</ele><time>2026-04-12T08:30:36.96Z</time></trkpt><trkpt lat="40.7685254" lon="9.5405424"><ele>129.5</ele><time>2026-04-12T08:30:37.961Z</time></trkpt><trkpt lat="40.7684904" lon="9.5404305"><ele>129.33333333333334</ele><time>2026-04-12T08:30:38.964Z</time></trkpt><trkpt lat="40.7684599" lon="9.5403343"><ele>129.16666666666666</ele><time>2026-04-12T08:30:39.956Z</time></trkpt><trkpt lat="40.768429" lon="9.5402514"><ele>129.0</ele><time>2026-04-12T08:30:40.953Z</time></trkpt><trkpt lat="40.768351" lon="9.540127"><ele>129.5</ele><time>2026-04-12T08:30:42.961Z</time></trkpt><trkpt lat="40.7682881" lon="9.5399995"><ele>130.0</ele><time>2026-04-12T08:30:44.957Z</time></trkpt><trkpt lat="40.7682708" lon="9.5399167"><ele>130.5</ele><time>2026-04-12T08:30:45.954Z</time></trkpt><trkpt lat="40.7682679" lon="9.5398272"><ele>131.0</ele><time>2026-04-12T08:30:46.953Z</time></trkpt><trkpt lat="40.7682908" lon="9.5397275"><ele>131.5</ele><time>2026-04-12T08:30:47.948Z</time></trkpt><trkpt lat="40.7683286" lon="9.5396427"><ele>132.0</ele><time>2026-04-12T08:30:48.954Z</time></trkpt><trkpt lat="40.768379" lon="9.5395693"><ele>131.66666666666666</ele><time>2026-04-12T08:30:49.951Z</time></trkpt><trkpt lat="40.7684402" lon="9.5395132"><ele>131.33333333333334</ele><time>2026-04-12T08:30:50.959Z</time></trkpt><trkpt lat="40.7685019" lon="9.5394675"><ele>131.0</ele><time>2026-04-12T08:30:51.954Z</time></trkpt><trkpt lat="40.7685893" lon="9.5393624"><ele>130.66666666666669</ele><time>2026-04-12T08:30:53.957Z</time></trkpt><trkpt lat="40.7686031" lon="9.5392728"><ele>130.33333333333334</ele><time>2026-04-12T08:30:54.941Z</time></trkpt><trkpt lat="40.7686122" lon="9.5391659"><ele>130.0</ele><time>2026-04-12T08:30:55.942Z</time></trkpt><trkpt lat="40.7686232" lon="9.5390676"><ele>129.5</ele><time>2026-04-12T08:30:56.95Z</time></trkpt><trkpt lat="40.7686271" lon="9.5389704"><ele>129.0</ele><time>2026-04-12T08:30:57.971Z</time></trkpt><trkpt lat="40.7686172" lon="9.5388637"><ele>128.5</ele><time>2026-04-12T08:30:58.95Z</time></trkpt><trkpt lat="40.7686023" lon="9.538757"><ele>128.0</ele><time>2026-04-12T08:30:59.949Z</time></trkpt><trkpt lat="40.7685917" lon="9.538653"><ele>127.50000000000001</ele><time>2026-04-12T08:31:00.947Z</time></trkpt><trkpt lat="40.7686033" lon="9.538559"><ele>127.0</ele><time>2026-04-12T08:31:01.944Z</time></trkpt><trkpt lat="40.768627" lon="9.5384775"><ele>127.00000000000001</ele><time>2026-04-12T08:31:02.945Z</time></trkpt><trkpt lat="40.7686583" lon="9.538384"><ele>127.0</ele><time>2026-04-12T08:31:03.938Z</time></trkpt><trkpt lat="40.7686885" lon="9.5382813"><ele>127.0</ele><time>2026-04-12T08:31:04.939Z</time></trkpt><trkpt lat="40.7687082" lon="9.5381742"><ele>127.0</ele><time>2026-04-12T08:31:05.942Z</time></trkpt><trkpt lat="40.7687374" lon="9.5380627"><ele>127.00000000000001</ele><time>2026-04-12T08:31:06.935Z</time></trkpt><trkpt lat="40.7687755" lon="9.5379514"><ele>127.0</ele><time>2026-04-12T08:31:07.943Z</time></trkpt><trkpt lat="40.7688162" lon="9.5378253"><ele>127.0</ele><time>2026-04-12T08:31:08.944Z</time></trkpt><trkpt lat="40.7688551" lon="9.5376892"><ele>127.0</ele><time>2026-04-12T08:31:09.943Z</time></trkpt><trkpt lat="40.7688969" lon="9.5375462"><ele>127.0</ele><time>2026-04-12T08:31:10.933Z</time></trkpt><trkpt lat="40.7689423" lon="9.5373896"><ele>127.0</ele><time>2026-04-12T08:31:11.942Z</time></trkpt><trkpt lat="40.7689866" lon="9.5372309"><ele>127.0</ele><time>2026-04-12T08:31:12.94Z</time></trkpt><trkpt lat="40.7690317" lon="9.5370684"><ele>127.0</ele><time>2026-04-12T08:31:13.937Z</time></trkpt><trkpt lat="40.7690748" lon="9.5369016"><ele>127.0</ele><time>2026-04-12T08:31:14.935Z</time></trkpt><trkpt lat="40.7691178" lon="9.5367356"><ele>127.0</ele><time>2026-04-12T08:31:15.929Z</time></trkpt><trkpt lat="40.7691614" lon="9.5365739"><ele>127.25</ele><time>2026-04-12T08:31:16.934Z</time></trkpt><trkpt lat="40.7692037" lon="9.5364143"><ele>127.5</ele><time>2026-04-12T08:31:17.932Z</time></trkpt><trkpt lat="40.7692428" lon="9.5362644"><ele>127.75</ele><time>2026-04-12T08:31:18.936Z</time></trkpt><trkpt lat="40.7692792" lon="9.5361311"><ele>128.0</ele><time>2026-04-12T08:31:19.937Z</time></trkpt><trkpt lat="40.7693114" lon="9.5359974"><ele>128.25</ele><time>2026-04-12T08:31:20.936Z</time></trkpt><trkpt lat="40.7693514" lon="9.5358559"><ele>128.5</ele><time>2026-04-12T08:31:21.933Z</time></trkpt><trkpt lat="40.7693919" lon="9.5357076"><ele>128.75</ele><time>2026-04-12T08:31:22.93Z</time></trkpt><trkpt lat="40.7694352" lon="9.5355546"><ele>129.0</ele><time>2026-04-12T08:31:23.955Z</time></trkpt><trkpt lat="40.7694691" lon="9.5354162"><ele>129.66666666666666</ele><time>2026-04-12T08:31:24.93Z</time></trkpt><trkpt lat="40.7694973" lon="9.5352957"><ele>130.33333333333334</ele><time>2026-04-12T08:31:25.93Z</time></trkpt><trkpt lat="40.7695215" lon="9.5352087"><ele>131.0</ele><time>2026-04-12T08:31:26.94Z</time></trkpt><trkpt lat="40.7695416" lon="9.5351235"><ele>131.66666666666669</ele><time>2026-04-12T08:31:27.929Z</time></trkpt><trkpt lat="40.7695678" lon="9.5349817"><ele>132.33333333333334</ele><time>2026-04-12T08:31:29.936Z</time></trkpt><trkpt lat="40.7695669" lon="9.5348602"><ele>133.0</ele><time>2026-04-12T08:31:31.93Z</time></trkpt><trkpt lat="40.7695629" lon="9.534706"><ele>133.0</ele><time>2026-04-12T08:31:33.932Z</time></trkpt><trkpt lat="40.7695577" lon="9.5346014"><ele>133.0</ele><time>2026-04-12T08:31:34.926Z</time></trkpt><trkpt lat="40.7695487" lon="9.5344822"><ele>133.0</ele><time>2026-04-12T08:31:35.936Z</time></trkpt><trkpt lat="40.769527" lon="9.5343453"><ele>133.0</ele><time>2026-04-12T08:31:36.93Z</time></trkpt><trkpt lat="40.7694998" lon="9.5341901"><ele>133.0</ele><time>2026-04-12T08:31:37.932Z</time></trkpt><trkpt lat="40.7694744" lon="9.5340269"><ele>134.0</ele><time>2026-04-12T08:31:38.926Z</time></trkpt><trkpt lat="40.7694458" lon="9.5338592"><ele>135.0</ele><time>2026-04-12T08:31:39.925Z</time></trkpt><trkpt lat="40.7694228" lon="9.5336866"><ele>136.0</ele><time>2026-04-12T08:31:40.924Z</time></trkpt><trkpt lat="40.7694027" lon="9.533526"><ele>137.0</ele><time>2026-04-12T08:31:41.923Z</time></trkpt><trkpt lat="40.7693786" lon="9.5333709"><ele>138.0</ele><time>2026-04-12T08:31:42.921Z</time></trkpt><trkpt lat="40.7693562" lon="9.5332189"><ele>139.0</ele><time>2026-04-12T08:31:43.931Z</time></trkpt><trkpt lat="40.769335" lon="9.533065"><ele>140.0</ele><time>2026-04-12T08:31:44.931Z</time></trkpt><trkpt lat="40.7693186" lon="9.5329145"><ele>141.0</ele><time>2026-04-12T08:31:45.916Z</time></trkpt><trkpt lat="40.7693118" lon="9.5327663"><ele>141.0</ele><time>2026-04-12T08:31:46.918Z</time></trkpt><trkpt lat="40.7693157" lon="9.5326139"><ele>141.0</ele><time>2026-04-12T08:31:47.924Z</time></trkpt><trkpt lat="40.76932" lon="9.5324645"><ele>141.0</ele><time>2026-04-12T08:31:48.922Z</time></trkpt><trkpt lat="40.769327" lon="9.5323122"><ele>141.0</ele><time>2026-04-12T08:31:49.919Z</time></trkpt><trkpt lat="40.7693353" lon="9.5321596"><ele>141.2</ele><time>2026-04-12T08:31:50.916Z</time></trkpt><trkpt lat="40.769343" lon="9.5320031"><ele>141.39999999999998</ele><time>2026-04-12T08:31:51.92Z</time></trkpt><trkpt lat="40.7693515" lon="9.5318559"><ele>141.6</ele><time>2026-04-12T08:31:52.917Z</time></trkpt><trkpt lat="40.7693581" lon="9.5317213"><ele>141.79999999999998</ele><time>2026-04-12T08:31:53.926Z</time></trkpt><trkpt lat="40.7693649" lon="9.5316035"><ele>142.0</ele><time>2026-04-12T08:31:54.93Z</time></trkpt><trkpt lat="40.7693756" lon="9.5314835"><ele>142.2</ele><time>2026-04-12T08:31:55.93Z</time></trkpt><trkpt lat="40.7693825" lon="9.5313623"><ele>142.39999999999998</ele><time>2026-04-12T08:31:56.925Z</time></trkpt><trkpt lat="40.7693849" lon="9.5312388"><ele>142.60000000000002</ele><time>2026-04-12T08:31:57.911Z</time></trkpt><trkpt lat="40.7693963" lon="9.5311042"><ele>142.8</ele><time>2026-04-12T08:31:58.92Z</time></trkpt><trkpt lat="40.7694061" lon="9.5309589"><ele>143.0</ele><time>2026-04-12T08:31:59.928Z</time></trkpt><trkpt lat="40.7694139" lon="9.5308086"><ele>144.0</ele><time>2026-04-12T08:32:00.919Z</time></trkpt><trkpt lat="40.7694208" lon="9.5306516"><ele>145.0</ele><time>2026-04-12T08:32:01.913Z</time></trkpt><trkpt lat="40.7694288" lon="9.5304929"><ele>146.0</ele><time>2026-04-12T08:32:02.923Z</time></trkpt><trkpt lat="40.769438" lon="9.5303288"><ele>147.0</ele><time>2026-04-12T08:32:03.92Z</time></trkpt><trkpt lat="40.7694468" lon="9.5301623"><ele>147.75</ele><time>2026-04-12T08:32:04.913Z</time></trkpt><trkpt lat="40.7694553" lon="9.5299995"><ele>148.5</ele><time>2026-04-12T08:32:05.91Z</time></trkpt><trkpt lat="40.769465" lon="9.5298319"><ele>149.25</ele><time>2026-04-12T08:32:06.913Z</time></trkpt><trkpt lat="40.7694733" lon="9.5296605"><ele>150.0</ele><time>2026-04-12T08:32:07.914Z</time></trkpt><trkpt lat="40.7694795" lon="9.5294908"><ele>150.5</ele><time>2026-04-12T08:32:08.911Z</time></trkpt><trkpt lat="40.7694837" lon="9.529323"><ele>151.0</ele><time>2026-04-12T08:32:09.918Z</time></trkpt><trkpt lat="40.7694837" lon="9.5291586"><ele>151.5</ele><time>2026-04-12T08:32:11.015Z</time></trkpt><trkpt lat="40.7694743" lon="9.5289976"><ele>152.0</ele><time>2026-04-12T08:32:12.014Z</time></trkpt><trkpt lat="40.769451" lon="9.5288426"><ele>152.0</ele><time>2026-04-12T08:32:13.009Z</time></trkpt><trkpt lat="40.769407" lon="9.5286957"><ele>152.0</ele><time>2026-04-12T08:32:13.91Z</time></trkpt><trkpt lat="40.7693501" lon="9.5285599"><ele>152.0</ele><time>2026-04-12T08:32:15.004Z</time></trkpt><trkpt lat="40.7692832" lon="9.5284267"><ele>152.0</ele><time>2026-04-12T08:32:16.016Z</time></trkpt><trkpt lat="40.7692104" lon="9.5282938"><ele>151.0</ele><time>2026-04-12T08:32:17.015Z</time></trkpt><trkpt lat="40.7691417" lon="9.5281651"><ele>150.0</ele><time>2026-04-12T08:32:18.008Z</time></trkpt><trkpt lat="40.7690696" lon="9.5280367"><ele>149.0</ele><time>2026-04-12T08:32:19.006Z</time></trkpt><trkpt lat="40.7689999" lon="9.5279033"><ele>148.0</ele><time>2026-04-12T08:32:20.002Z</time></trkpt><trkpt lat="40.768928" lon="9.5277717"><ele>148.0</ele><time>2026-04-12T08:32:21.01Z</time></trkpt><trkpt lat="40.7688548" lon="9.5276357"><ele>148.0</ele><time>2026-04-12T08:32:22.001Z</time></trkpt><trkpt lat="40.7687795" lon="9.5274946"><ele>148.0</ele><time>2026-04-12T08:32:23.002Z</time></trkpt><trkpt lat="40.768702" lon="9.5273575"><ele>148.0</ele><time>2026-04-12T08:32:23.994Z</time></trkpt><trkpt lat="40.7686274" lon="9.5272123"><ele>148.0</ele><time>2026-04-12T08:32:25Z</time></trkpt><trkpt lat="40.7685514" lon="9.5270709"><ele>148.0</ele><time>2026-04-12T08:32:26.006Z</time></trkpt><trkpt lat="40.7684751" lon="9.5269312"><ele>148.0</ele><time>2026-04-12T08:32:27.011Z</time></trkpt><trkpt lat="40.7683997" lon="9.5267941"><ele>148.0</ele><time>2026-04-12T08:32:28.004Z</time></trkpt><trkpt lat="40.7683223" lon="9.5266559"><ele>148.0</ele><time>2026-04-12T08:32:28.996Z</time></trkpt><trkpt lat="40.7682436" lon="9.5265134"><ele>148.0</ele><time>2026-04-12T08:32:30.004Z</time></trkpt><trkpt lat="40.7681676" lon="9.526369"><ele>148.0</ele><time>2026-04-12T08:32:30.995Z</time></trkpt><trkpt lat="40.7680882" lon="9.5262325"><ele>148.0</ele><time>2026-04-12T08:32:32.004Z</time></trkpt><trkpt lat="40.7680115" lon="9.5260963"><ele>148.0</ele><time>2026-04-12T08:32:32.996Z</time></trkpt><trkpt lat="40.7679319" lon="9.5259592"><ele>148.0</ele><time>2026-04-12T08:32:33.993Z</time></trkpt><trkpt lat="40.7678497" lon="9.5258218"><ele>148.0</ele><time>2026-04-12T08:32:34.99Z</time></trkpt><trkpt lat="40.7677688" lon="9.5256811"><ele>148.0</ele><time>2026-04-12T08:32:35.999Z</time></trkpt><trkpt lat="40.7676898" lon="9.5255353"><ele>148.75</ele><time>2026-04-12T08:32:36.992Z</time></trkpt><trkpt lat="40.7676103" lon="9.5253867"><ele>149.5</ele><time>2026-04-12T08:32:37.998Z</time></trkpt><trkpt lat="40.7675304" lon="9.5252399"><ele>150.25</ele><time>2026-04-12T08:32:38.993Z</time></trkpt><trkpt lat="40.7674461" lon="9.525096"><ele>151.0</ele><time>2026-04-12T08:32:39.99Z</time></trkpt><trkpt lat="40.7673614" lon="9.5249495"><ele>151.0</ele><time>2026-04-12T08:32:40.989Z</time></trkpt><trkpt lat="40.7672796" lon="9.5248002"><ele>151.0</ele><time>2026-04-12T08:32:41.999Z</time></trkpt><trkpt lat="40.7671997" lon="9.5246532"><ele>151.0</ele><time>2026-04-12T08:32:42.991Z</time></trkpt><trkpt lat="40.7671223" lon="9.5245094"><ele>151.0</ele><time>2026-04-12T08:32:43.998Z</time></trkpt><trkpt lat="40.7670548" lon="9.5243671"><ele>151.4</ele><time>2026-04-12T08:32:44.986Z</time></trkpt><trkpt lat="40.7670063" lon="9.524227"><ele>151.8</ele><time>2026-04-12T08:32:45.998Z</time></trkpt><trkpt lat="40.7669727" lon="9.5240907"><ele>152.20000000000002</ele><time>2026-04-12T08:32:46.987Z</time></trkpt><trkpt lat="40.7669632" lon="9.5239549"><ele>152.6</ele><time>2026-04-12T08:32:47.987Z</time></trkpt><trkpt lat="40.7669651" lon="9.5238154"><ele>153.0</ele><time>2026-04-12T08:32:48.989Z</time></trkpt><trkpt lat="40.7669715" lon="9.5236742"><ele>153.33333333333334</ele><time>2026-04-12T08:32:49.998Z</time></trkpt><trkpt lat="40.7669727" lon="9.523537"><ele>153.66666666666666</ele><time>2026-04-12T08:32:50.986Z</time></trkpt><trkpt lat="40.7669779" lon="9.5234093"><ele>154.0</ele><time>2026-04-12T08:32:51.999Z</time></trkpt><trkpt lat="40.7669876" lon="9.5232912"><ele>154.33333333333331</ele><time>2026-04-12T08:32:52.991Z</time></trkpt><trkpt lat="40.7670107" lon="9.5231827"><ele>154.66666666666666</ele><time>2026-04-12T08:32:53.983Z</time></trkpt><trkpt lat="40.76702" lon="9.5230951"><ele>155.0</ele><time>2026-04-12T08:32:54.989Z</time></trkpt><trkpt lat="40.7669464" lon="9.5229739"><ele>155.0</ele><time>2026-04-12T08:32:56.985Z</time></trkpt><trkpt lat="40.7668874" lon="9.522912"><ele>155.0</ele><time>2026-04-12T08:32:57.986Z</time></trkpt><trkpt lat="40.766838" lon="9.5228288"><ele>155.0</ele><time>2026-04-12T08:32:58.977Z</time></trkpt><trkpt lat="40.7667954" lon="9.5227371"><ele>155.0</ele><time>2026-04-12T08:32:59.976Z</time></trkpt><trkpt lat="40.7667538" lon="9.5226391"><ele>155.0</ele><time>2026-04-12T08:33:00.981Z</time></trkpt><trkpt lat="40.7667151" lon="9.5225457"><ele>155.0</ele><time>2026-04-12T08:33:01.993Z</time></trkpt><trkpt lat="40.7666766" lon="9.5224508"><ele>155.0</ele><time>2026-04-12T08:33:02.973Z</time></trkpt><trkpt lat="40.7666323" lon="9.5223546"><ele>155.0</ele><time>2026-04-12T08:33:04.001Z</time></trkpt><trkpt lat="40.7665844" lon="9.5222601"><ele>155.0</ele><time>2026-04-12T08:33:04.985Z</time></trkpt><trkpt lat="40.7665304" lon="9.5221648"><ele>155.0</ele><time>2026-04-12T08:33:05.972Z</time></trkpt><trkpt lat="40.7664773" lon="9.5220713"><ele>155.0</ele><time>2026-04-12T08:33:06.969Z</time></trkpt><trkpt lat="40.7664217" lon="9.5219757"><ele>155.0</ele><time>2026-04-12T08:33:07.982Z</time></trkpt><trkpt lat="40.7663649" lon="9.5218868"><ele>155.33333333333331</ele><time>2026-04-12T08:33:08.98Z</time></trkpt><trkpt lat="40.7663094" lon="9.5218027"><ele>155.66666666666666</ele><time>2026-04-12T08:33:09.973Z</time></trkpt><trkpt lat="40.7662523" lon="9.5217195"><ele>156.0</ele><time>2026-04-12T08:33:10.979Z</time></trkpt><trkpt lat="40.7661933" lon="9.5216394"><ele>156.33333333333334</ele><time>2026-04-12T08:33:12.009Z</time></trkpt><trkpt lat="40.7661375" lon="9.5215579"><ele>156.66666666666669</ele><time>2026-04-12T08:33:12.972Z</time></trkpt><trkpt lat="40.7660866" lon="9.5214838"><ele>157.0</ele><time>2026-04-12T08:33:13.974Z</time></trkpt><trkpt lat="40.7660309" lon="9.5213654"><ele>157.5</ele><time>2026-04-12T08:33:15.964Z</time></trkpt><trkpt lat="40.7660112" lon="9.5212619"><ele>158.0</ele><time>2026-04-12T08:33:17.972Z</time></trkpt><trkpt lat="40.7659995" lon="9.5211717"><ele>158.5</ele><time>2026-04-12T08:33:20.98Z</time></trkpt><trkpt lat="40.7659921" lon="9.5210745"><ele>159.0</ele><time>2026-04-12T08:33:27.976Z</time></trkpt><trkpt lat="40.7659778" lon="9.5209437"><ele>159.5</ele><time>2026-04-12T08:33:29.979Z</time></trkpt><trkpt lat="40.7659688" lon="9.5208265"><ele>160.0</ele><time>2026-04-12T08:33:31.953Z</time></trkpt><trkpt lat="40.7659949" lon="9.5207496"><ele>160.2</ele><time>2026-04-12T08:33:33.963Z</time></trkpt><trkpt lat="40.7660852" lon="9.5207337"><ele>160.4</ele><time>2026-04-12T08:33:36.965Z</time></trkpt><trkpt lat="40.7661927" lon="9.5207188"><ele>160.60000000000002</ele><time>2026-04-12T08:33:38.955Z</time></trkpt><trkpt lat="40.7662991" lon="9.5206588"><ele>160.8</ele><time>2026-04-12T08:33:40.969Z</time></trkpt><trkpt lat="40.766388" lon="9.5205657"><ele>161.0</ele><time>2026-04-12T08:33:42.953Z</time></trkpt><trkpt lat="40.7664352" lon="9.5204743"><ele>161.33333333333331</ele><time>2026-04-12T08:33:44.956Z</time></trkpt><trkpt lat="40.7664162" lon="9.5203867"><ele>161.66666666666666</ele><time>2026-04-12T08:33:46.953Z</time></trkpt><trkpt lat="40.7663832" lon="9.5203118"><ele>162.0</ele><time>2026-04-12T08:33:48.951Z</time></trkpt><trkpt lat="40.7663399" lon="9.5202182"><ele>162.33333333333334</ele><time>2026-04-12T08:33:50.948Z</time></trkpt><trkpt lat="40.7662881" lon="9.5201178"><ele>162.66666666666669</ele><time>2026-04-12T08:33:52.945Z</time></trkpt><trkpt lat="40.7662492" lon="9.5200203"><ele>163.0</ele><time>2026-04-12T08:33:54.959Z</time></trkpt><trkpt lat="40.7662541" lon="9.519931"><ele>163.0</ele><time>2026-04-12T08:33:56.951Z</time></trkpt><trkpt lat="40.7663185" lon="9.5198654"><ele>163.0</ele><time>2026-04-12T08:33:58.95Z</time></trkpt><trkpt lat="40.7663891" lon="9.5197966"><ele>163.0</ele><time>2026-04-12T08:34:00.965Z</time></trkpt><trkpt lat="40.7664422" lon="9.5196931"><ele>163.0</ele><time>2026-04-12T08:34:02.938Z</time></trkpt><trkpt lat="40.7664821" lon="9.5195581"><ele>163.0</ele><time>2026-04-12T08:34:04.948Z</time></trkpt><trkpt lat="40.7665141" lon="9.519402"><ele>163.8</ele><time>2026-04-12T08:34:06.953Z</time></trkpt><trkpt lat="40.7665275" lon="9.5193161"><ele>164.60000000000002</ele><time>2026-04-12T08:34:07.927Z</time></trkpt><trkpt lat="40.7665351" lon="9.5192295"><ele>165.39999999999998</ele><time>2026-04-12T08:34:08.936Z</time></trkpt><trkpt lat="40.7665336" lon="9.519087"><ele>166.2</ele><time>2026-04-12T08:34:10.931Z</time></trkpt><trkpt lat="40.7665303" lon="9.5189364"><ele>167.0</ele><time>2026-04-12T08:34:12.936Z</time></trkpt><trkpt lat="40.7665336" lon="9.5187772"><ele>167.39999999999998</ele><time>2026-04-12T08:34:14.931Z</time></trkpt><trkpt lat="40.7665231" lon="9.5186356"><ele>167.79999999999998</ele><time>2026-04-12T08:34:16.926Z</time></trkpt><trkpt lat="40.7665227" lon="9.5185152"><ele>168.2</ele><time>2026-04-12T08:34:18.925Z</time></trkpt><trkpt lat="40.7665165" lon="9.5183996"><ele>168.6</ele><time>2026-04-12T08:34:20.946Z</time></trkpt><trkpt lat="40.7665086" lon="9.5183005"><ele>169.0</ele><time>2026-04-12T08:34:22.928Z</time></trkpt><trkpt lat="40.7664742" lon="9.5181932"><ele>169.0</ele><time>2026-04-12T08:34:24.933Z</time></trkpt><trkpt lat="40.766416" lon="9.5181144"><ele>169.0</ele><time>2026-04-12T08:34:26.932Z</time></trkpt><trkpt lat="40.7663663" lon="9.5180101"><ele>169.0</ele><time>2026-04-12T08:34:28.926Z</time></trkpt><trkpt lat="40.7663501" lon="9.5178655"><ele>169.0</ele><time>2026-04-12T08:34:30.919Z</time></trkpt><trkpt lat="40.766353" lon="9.5177824"><ele>169.0</ele><time>2026-04-12T08:34:31.923Z</time></trkpt><trkpt lat="40.7663521" lon="9.5176956"><ele>169.0</ele><time>2026-04-12T08:34:32.925Z</time></trkpt><trkpt lat="40.7663486" lon="9.5176008"><ele>169.66666666666669</ele><time>2026-04-12T08:34:33.924Z</time></trkpt><trkpt lat="40.7663414" lon="9.5174935"><ele>170.33333333333334</ele><time>2026-04-12T08:34:34.911Z</time></trkpt><trkpt lat="40.7663353" lon="9.5173823"><ele>171.0</ele><time>2026-04-12T08:34:35.923Z</time></trkpt><trkpt lat="40.7663287" lon="9.5172687"><ele>171.66666666666666</ele><time>2026-04-12T08:34:36.908Z</time></trkpt><trkpt lat="40.7663254" lon="9.517163"><ele>172.33333333333331</ele><time>2026-04-12T08:34:37.916Z</time></trkpt><trkpt lat="40.7663304" lon="9.517073"><ele>173.0</ele><time>2026-04-12T08:34:38.913Z</time></trkpt><trkpt lat="40.7663932" lon="9.5169308"><ele>173.16666666666666</ele><time>2026-04-12T08:34:40.917Z</time></trkpt><trkpt lat="40.7664486" lon="9.5168671"><ele>173.33333333333331</ele><time>2026-04-12T08:34:41.911Z</time></trkpt><trkpt lat="40.766494" lon="9.5168093"><ele>173.5</ele><time>2026-04-12T08:34:42.934Z</time></trkpt><trkpt lat="40.7665442" lon="9.516676"><ele>173.66666666666666</ele><time>2026-04-12T08:34:45.006Z</time></trkpt><trkpt lat="40.7665547" lon="9.5165925"><ele>173.83333333333334</ele><time>2026-04-12T08:34:46.006Z</time></trkpt><trkpt lat="40.7665501" lon="9.5164819"><ele>174.0</ele><time>2026-04-12T08:34:47.004Z</time></trkpt><trkpt lat="40.7665404" lon="9.5163598"><ele>174.0</ele><time>2026-04-12T08:34:48.003Z</time></trkpt><trkpt lat="40.7665331" lon="9.5162433"><ele>174.0</ele><time>2026-04-12T08:34:49.008Z</time></trkpt><trkpt lat="40.7665298" lon="9.5161332"><ele>174.0</ele><time>2026-04-12T08:34:50.009Z</time></trkpt><trkpt lat="40.7665382" lon="9.5160358"><ele>174.0</ele><time>2026-04-12T08:34:51.007Z</time></trkpt><trkpt lat="40.7665556" lon="9.5159471"><ele>174.0</ele><time>2026-04-12T08:34:52.012Z</time></trkpt><trkpt lat="40.7665714" lon="9.5158467"><ele>174.0</ele><time>2026-04-12T08:34:53.008Z</time></trkpt><trkpt lat="40.7665849" lon="9.5157375"><ele>174.66666666666666</ele><time>2026-04-12T08:34:53.996Z</time></trkpt><trkpt lat="40.7666033" lon="9.5156293"><ele>175.33333333333334</ele><time>2026-04-12T08:34:55.002Z</time></trkpt><trkpt lat="40.7666278" lon="9.5155265"><ele>176.0</ele><time>2026-04-12T08:34:56.003Z</time></trkpt><trkpt lat="40.7666595" lon="9.5154298"><ele>176.66666666666669</ele><time>2026-04-12T08:34:56.998Z</time></trkpt><trkpt lat="40.7667054" lon="9.5153359"><ele>177.33333333333334</ele><time>2026-04-12T08:34:57.997Z</time></trkpt><trkpt lat="40.7667536" lon="9.5152425"><ele>178.0</ele><time>2026-04-12T08:34:58.996Z</time></trkpt><trkpt lat="40.7667922" lon="9.5151574"><ele>178.7142857142857</ele><time>2026-04-12T08:35:00.003Z</time></trkpt><trkpt lat="40.7668226" lon="9.5150783"><ele>179.42857142857142</ele><time>2026-04-12T08:35:01.008Z</time></trkpt><trkpt lat="40.7668395" lon="9.5149975"><ele>180.14285714285714</ele><time>2026-04-12T08:35:01.997Z</time></trkpt><trkpt lat="40.7668479" lon="9.5149051"><ele>180.85714285714283</ele><time>2026-04-12T08:35:02.995Z</time></trkpt><trkpt lat="40.7668449" lon="9.5148122"><ele>181.57142857142858</ele><time>2026-04-12T08:35:03.994Z</time></trkpt><trkpt lat="40.7668335" lon="9.5147123"><ele>182.28571428571428</ele><time>2026-04-12T08:35:05.002Z</time></trkpt><trkpt lat="40.7668179" lon="9.5145971"><ele>183.0</ele><time>2026-04-12T08:35:05.994Z</time></trkpt><trkpt lat="40.7668017" lon="9.5144715"><ele>183.33333333333334</ele><time>2026-04-12T08:35:06.995Z</time></trkpt><trkpt lat="40.7667917" lon="9.5143426"><ele>183.66666666666666</ele><time>2026-04-12T08:35:08.001Z</time></trkpt><trkpt lat="40.7667786" lon="9.5142277"><ele>184.0</ele><time>2026-04-12T08:35:08.988Z</time></trkpt><trkpt lat="40.7667645" lon="9.5141229"><ele>184.33333333333331</ele><time>2026-04-12T08:35:09.994Z</time></trkpt><trkpt lat="40.7667519" lon="9.5140267"><ele>184.66666666666666</ele><time>2026-04-12T08:35:10.993Z</time></trkpt><trkpt lat="40.7667398" lon="9.5139305"><ele>185.0</ele><time>2026-04-12T08:35:11.985Z</time></trkpt><trkpt lat="40.766737" lon="9.5138324"><ele>185.16666666666666</ele><time>2026-04-12T08:35:12.981Z</time></trkpt><trkpt lat="40.766752" lon="9.5137259"><ele>185.33333333333331</ele><time>2026-04-12T08:35:13.992Z</time></trkpt><trkpt lat="40.7667682" lon="9.5136289"><ele>185.5</ele><time>2026-04-12T08:35:15.015Z</time></trkpt><trkpt lat="40.7667917" lon="9.5135417"><ele>185.66666666666666</ele><time>2026-04-12T08:35:15.991Z</time></trkpt><trkpt lat="40.7668234" lon="9.5134526"><ele>185.83333333333334</ele><time>2026-04-12T08:35:16.991Z</time></trkpt><trkpt lat="40.7668565" lon="9.5133555"><ele>186.0</ele><time>2026-04-12T08:35:17.987Z</time></trkpt><trkpt lat="40.7668804" lon="9.5132633"><ele>185.83333333333334</ele><time>2026-04-12T08:35:18.97Z</time></trkpt><trkpt lat="40.7669011" lon="9.5131636"><ele>185.66666666666666</ele><time>2026-04-12T08:35:19.979Z</time></trkpt><trkpt lat="40.7669245" lon="9.5130601"><ele>185.5</ele><time>2026-04-12T08:35:20.982Z</time></trkpt><trkpt lat="40.7669436" lon="9.5129551"><ele>185.33333333333331</ele><time>2026-04-12T08:35:22.015Z</time></trkpt><trkpt lat="40.7669659" lon="9.5128524"><ele>185.16666666666666</ele><time>2026-04-12T08:35:22.996Z</time></trkpt><trkpt lat="40.7669936" lon="9.5127563"><ele>185.0</ele><time>2026-04-12T08:35:23.981Z</time></trkpt><trkpt lat="40.7670211" lon="9.5126637"><ele>185.0</ele><time>2026-04-12T08:35:24.995Z</time></trkpt><trkpt lat="40.7670477" lon="9.5125742"><ele>185.0</ele><time>2026-04-12T08:35:25.99Z</time></trkpt><trkpt lat="40.7670773" lon="9.5124787"><ele>185.0</ele><time>2026-04-12T08:35:27.011Z</time></trkpt><trkpt lat="40.7671086" lon="9.5123691"><ele>185.0</ele><time>2026-04-12T08:35:27.978Z</time></trkpt><trkpt lat="40.7671364" lon="9.5122593"><ele>185.0</ele><time>2026-04-12T08:35:28.973Z</time></trkpt><trkpt lat="40.7671662" lon="9.5121474"><ele>185.0</ele><time>2026-04-12T08:35:29.974Z</time></trkpt><trkpt lat="40.7671954" lon="9.5120327"><ele>186.8</ele><time>2026-04-12T08:35:30.984Z</time></trkpt><trkpt lat="40.7672225" lon="9.5119226"><ele>188.6</ele><time>2026-04-12T08:35:31.976Z</time></trkpt><trkpt lat="40.7672539" lon="9.5118097"><ele>190.39999999999998</ele><time>2026-04-12T08:35:32.978Z</time></trkpt><trkpt lat="40.7672819" lon="9.5116872"><ele>192.2</ele><time>2026-04-12T08:35:33.989Z</time></trkpt><trkpt lat="40.7673057" lon="9.5115608"><ele>194.0</ele><time>2026-04-12T08:35:34.974Z</time></trkpt><trkpt lat="40.7673213" lon="9.5114458"><ele>194.00000000000003</ele><time>2026-04-12T08:35:35.986Z</time></trkpt><trkpt lat="40.7673333" lon="9.5113249"><ele>194.0</ele><time>2026-04-12T08:35:36.964Z</time></trkpt><trkpt lat="40.7673434" lon="9.5112071"><ele>194.0</ele><time>2026-04-12T08:35:37.967Z</time></trkpt><trkpt lat="40.767346" lon="9.5110931"><ele>194.0</ele><time>2026-04-12T08:35:38.969Z</time></trkpt><trkpt lat="40.7673493" lon="9.5109807"><ele>194.00000000000003</ele><time>2026-04-12T08:35:39.965Z</time></trkpt><trkpt lat="40.7673498" lon="9.5108704"><ele>194.0</ele><time>2026-04-12T08:35:40.962Z</time></trkpt><trkpt lat="40.7673545" lon="9.5107616"><ele>195.16666666666669</ele><time>2026-04-12T08:35:41.969Z</time></trkpt><trkpt lat="40.7673606" lon="9.5106538"><ele>196.33333333333334</ele><time>2026-04-12T08:35:42.982Z</time></trkpt><trkpt lat="40.7673725" lon="9.5105476"><ele>197.5</ele><time>2026-04-12T08:35:43.958Z</time></trkpt><trkpt lat="40.7673913" lon="9.5104367"><ele>198.66666666666669</ele><time>2026-04-12T08:35:44.962Z</time></trkpt><trkpt lat="40.767402" lon="9.51033"><ele>199.83333333333334</ele><time>2026-04-12T08:35:45.97Z</time></trkpt><trkpt lat="40.7674017" lon="9.5102274"><ele>201.0</ele><time>2026-04-12T08:35:46.956Z</time></trkpt><trkpt lat="40.7674019" lon="9.510132"><ele>201.83333333333334</ele><time>2026-04-12T08:35:47.968Z</time></trkpt><trkpt lat="40.7674124" lon="9.5100425"><ele>202.66666666666669</ele><time>2026-04-12T08:35:48.968Z</time></trkpt><trkpt lat="40.7675054" lon="9.5099356"><ele>203.5</ele><time>2026-04-12T08:35:50.968Z</time></trkpt><trkpt lat="40.7675765" lon="9.509892"><ele>204.33333333333334</ele><time>2026-04-12T08:35:51.956Z</time></trkpt><trkpt lat="40.7676564" lon="9.5098434"><ele>205.16666666666669</ele><time>2026-04-12T08:35:52.966Z</time></trkpt><trkpt lat="40.7677354" lon="9.5098186"><ele>206.0</ele><time>2026-04-12T08:35:53.956Z</time></trkpt><trkpt lat="40.7678146" lon="9.5098068"><ele>206.00000000000003</ele><time>2026-04-12T08:35:54.964Z</time></trkpt><trkpt lat="40.7678978" lon="9.5098058"><ele>206.0</ele><time>2026-04-12T08:35:55.958Z</time></trkpt><trkpt lat="40.767985" lon="9.5098025"><ele>206.0</ele><time>2026-04-12T08:35:56.986Z</time></trkpt><trkpt lat="40.7680708" lon="9.5097916"><ele>206.0</ele><time>2026-04-12T08:35:57.956Z</time></trkpt><trkpt lat="40.7681473" lon="9.5097853"><ele>206.00000000000003</ele><time>2026-04-12T08:35:58.973Z</time></trkpt><trkpt lat="40.7682151" lon="9.5097803"><ele>206.0</ele><time>2026-04-12T08:35:59.954Z</time></trkpt><trkpt lat="40.7682791" lon="9.5097678"><ele>206.0</ele><time>2026-04-12T08:36:00.952Z</time></trkpt><trkpt lat="40.7683956" lon="9.5097139"><ele>206.0</ele><time>2026-04-12T08:36:02.975Z</time></trkpt><trkpt lat="40.7684617" lon="9.5095642"><ele>206.0</ele><time>2026-04-12T08:36:04.957Z</time></trkpt><trkpt lat="40.7684857" lon="9.509466"><ele>206.0</ele><time>2026-04-12T08:36:05.957Z</time></trkpt><trkpt lat="40.7685147" lon="9.5093627"><ele>206.0</ele><time>2026-04-12T08:36:06.963Z</time></trkpt><trkpt lat="40.7685519" lon="9.5092613"><ele>208.00000000000003</ele><time>2026-04-12T08:36:07.946Z</time></trkpt><trkpt lat="40.768589" lon="9.5091882"><ele>210.0</ele><time>2026-04-12T08:36:08.948Z</time></trkpt><trkpt lat="40.7686372" lon="9.5090917"><ele>212.0</ele><time>2026-04-12T08:36:10.962Z</time></trkpt><trkpt lat="40.7685924" lon="9.5090039"><ele>214.0</ele><time>2026-04-12T08:36:12.964Z</time></trkpt><trkpt lat="40.7685171" lon="9.5090091"><ele>216.00000000000003</ele><time>2026-04-12T08:36:14.94Z</time></trkpt><trkpt lat="40.7684491" lon="9.5091029"><ele>218.0</ele><time>2026-04-12T08:36:16.958Z</time></trkpt><trkpt lat="40.7684022" lon="9.5091669"><ele>218.0</ele><time>2026-04-12T08:36:17.934Z</time></trkpt><trkpt lat="40.7683439" lon="9.5092163"><ele>218.0</ele><time>2026-04-12T08:36:18.945Z</time></trkpt><trkpt lat="40.7682808" lon="9.5092461"><ele>218.0</ele><time>2026-04-12T08:36:19.939Z</time></trkpt><trkpt lat="40.7681672" lon="9.5092048"><ele>218.0</ele><time>2026-04-12T08:36:21.94Z</time></trkpt><trkpt lat="40.7680891" lon="9.509125"><ele>218.0</ele><time>2026-04-12T08:36:23.94Z</time></trkpt><trkpt lat="40.7680174" lon="9.5090164"><ele>218.0</ele><time>2026-04-12T08:36:25.959Z</time></trkpt><trkpt lat="40.7679452" lon="9.5088627"><ele>218.0</ele><time>2026-04-12T08:36:27.933Z</time></trkpt><trkpt lat="40.7679084" lon="9.5087606"><ele>218.0</ele><time>2026-04-12T08:36:28.928Z</time></trkpt><trkpt lat="40.7678708" lon="9.5086558"><ele>218.0</ele><time>2026-04-12T08:36:29.928Z</time></trkpt><trkpt lat="40.7678394" lon="9.5085455"><ele>218.0</ele><time>2026-04-12T08:36:30.924Z</time></trkpt><trkpt lat="40.7678145" lon="9.5084419"><ele>219.50000000000003</ele><time>2026-04-12T08:36:31.94Z</time></trkpt><trkpt lat="40.7677973" lon="9.5083367"><ele>221.0</ele><time>2026-04-12T08:36:32.925Z</time></trkpt><trkpt lat="40.7677899" lon="9.5082203"><ele>222.5</ele><time>2026-04-12T08:36:33.922Z</time></trkpt><trkpt lat="40.767786" lon="9.5080987"><ele>224.0</ele><time>2026-04-12T08:36:34.918Z</time></trkpt><trkpt lat="40.7677877" lon="9.5079788"><ele>225.50000000000003</ele><time>2026-04-12T08:36:35.919Z</time></trkpt><trkpt lat="40.767796" lon="9.5078684"><ele>227.0</ele><time>2026-04-12T08:36:36.917Z</time></trkpt><trkpt lat="40.7678096" lon="9.5077668"><ele>229.33333333333334</ele><time>2026-04-12T08:36:37.914Z</time></trkpt><trkpt lat="40.7678296" lon="9.507669"><ele>231.66666666666669</ele><time>2026-04-12T08:36:38.919Z</time></trkpt><trkpt lat="40.7678574" lon="9.5075649"><ele>234.0</ele><time>2026-04-12T08:36:39.912Z</time></trkpt><trkpt lat="40.7678936" lon="9.5074794"><ele>236.33333333333331</ele><time>2026-04-12T08:36:40.92Z</time></trkpt><trkpt lat="40.7679388" lon="9.5073948"><ele>238.66666666666666</ele><time>2026-04-12T08:36:41.933Z</time></trkpt><trkpt lat="40.7679819" lon="9.5073119"><ele>241.0</ele><time>2026-04-12T08:36:42.922Z</time></trkpt><trkpt lat="40.7680223" lon="9.5072287"><ele>240.99999999999997</ele><time>2026-04-12T08:36:43.911Z</time></trkpt><trkpt lat="40.7680657" lon="9.5071435"><ele>241.0</ele><time>2026-04-12T08:36:44.912Z</time></trkpt><trkpt lat="40.7681146" lon="9.507064"><ele>241.0</ele><time>2026-04-12T08:36:45.912Z</time></trkpt><trkpt lat="40.7681686" lon="9.5070006"><ele>241.0</ele><time>2026-04-12T08:36:46.907Z</time></trkpt><trkpt lat="40.7682171" lon="9.5069349"><ele>240.99999999999997</ele><time>2026-04-12T08:36:47.912Z</time></trkpt><trkpt lat="40.7682732" lon="9.5068586"><ele>241.0</ele><time>2026-04-12T08:36:48.908Z</time></trkpt><trkpt lat="40.768322" lon="9.5067548"><ele>241.8</ele><time>2026-04-12T08:36:50.007Z</time></trkpt><trkpt lat="40.7683725" lon="9.5066874"><ele>242.60000000000002</ele><time>2026-04-12T08:36:51.006Z</time></trkpt><trkpt lat="40.7684261" lon="9.5066304"><ele>243.4</ele><time>2026-04-12T08:36:52.015Z</time></trkpt><trkpt lat="40.7684953" lon="9.5066235"><ele>244.2</ele><time>2026-04-12T08:36:53.011Z</time></trkpt><trkpt lat="40.7686312" lon="9.5065656"><ele>245.0</ele><time>2026-04-12T08:36:55.009Z</time></trkpt><trkpt lat="40.7687187" lon="9.5064836"><ele>245.00000000000003</ele><time>2026-04-12T08:36:57.015Z</time></trkpt><trkpt lat="40.7687464" lon="9.5063379"><ele>245.0</ele><time>2026-04-12T08:36:59.016Z</time></trkpt><trkpt lat="40.7687555" lon="9.5062449"><ele>245.0</ele><time>2026-04-12T08:37:00.002Z</time></trkpt><trkpt lat="40.7687693" lon="9.5061405"><ele>245.0</ele><time>2026-04-12T08:37:01.009Z</time></trkpt><trkpt lat="40.7687886" lon="9.5060423"><ele>245.00000000000003</ele><time>2026-04-12T08:37:02.012Z</time></trkpt><trkpt lat="40.7688255" lon="9.5059489"><ele>245.0</ele><time>2026-04-12T08:37:02.997Z</time></trkpt><trkpt lat="40.768878" lon="9.5058627"><ele>248.16666666666669</ele><time>2026-04-12T08:37:03.994Z</time></trkpt><trkpt lat="40.7689286" lon="9.5057774"><ele>251.33333333333334</ele><time>2026-04-12T08:37:04.998Z</time></trkpt><trkpt lat="40.7689685" lon="9.5056809"><ele>254.5</ele><time>2026-04-12T08:37:06.009Z</time></trkpt><trkpt lat="40.7690137" lon="9.5055835"><ele>257.6666666666667</ele><time>2026-04-12T08:37:06.993Z</time></trkpt><trkpt lat="40.7690589" lon="9.5054851"><ele>260.8333333333333</ele><time>2026-04-12T08:37:08.006Z</time></trkpt><trkpt lat="40.7691169" lon="9.5053936"><ele>264.0</ele><time>2026-04-12T08:37:08.994Z</time></trkpt><trkpt lat="40.7691927" lon="9.5053206"><ele>267.8</ele><time>2026-04-12T08:37:09.993Z</time></trkpt><trkpt lat="40.7692511" lon="9.5052022"><ele>271.59999999999997</ele><time>2026-04-12T08:37:10.999Z</time></trkpt><trkpt lat="40.7693221" lon="9.5051266"><ele>275.4</ele><time>2026-04-12T08:37:12Z</time></trkpt><trkpt lat="40.7694029" lon="9.5050556"><ele>279.2</ele><time>2026-04-12T08:37:13.006Z</time></trkpt><trkpt lat="40.7694867" lon="9.504993"><ele>283.0</ele><time>2026-04-12T08:37:13.999Z</time></trkpt><trkpt lat="40.7695629" lon="9.5049389"><ele>283.0</ele><time>2026-04-12T08:37:15.001Z</time></trkpt><trkpt lat="40.7696422" lon="9.5049048"><ele>283.0</ele><time>2026-04-12T08:37:15.997Z</time></trkpt><trkpt lat="40.7697269" lon="9.504893"><ele>283.0</ele><time>2026-04-12T08:37:16.987Z</time></trkpt><trkpt lat="40.7698111" lon="9.5048779"><ele>283.0</ele><time>2026-04-12T08:37:17.996Z</time></trkpt><trkpt lat="40.7698931" lon="9.5048362"><ele>283.0</ele><time>2026-04-12T08:37:18.997Z</time></trkpt><trkpt lat="40.7699821" lon="9.5048011"><ele>283.0</ele><time>2026-04-12T08:37:19.99Z</time></trkpt><trkpt lat="40.7700602" lon="9.504774"><ele>283.0</ele><time>2026-04-12T08:37:20.983Z</time></trkpt><trkpt lat="40.7701252" lon="9.5047441"><ele>283.0</ele><time>2026-04-12T08:37:21.997Z</time></trkpt><trkpt lat="40.7701923" lon="9.5046599"><ele>283.0</ele><time>2026-04-12T08:37:23.987Z</time></trkpt><trkpt lat="40.7701037" lon="9.5045928"><ele>283.0</ele><time>2026-04-12T08:37:26.981Z</time></trkpt><trkpt lat="40.770041" lon="9.5046027"><ele>283.0</ele><time>2026-04-12T08:37:27.991Z</time></trkpt><trkpt lat="40.7699601" lon="9.5046131"><ele>283.0</ele><time>2026-04-12T08:37:28.976Z</time></trkpt><trkpt lat="40.7698695" lon="9.5046202"><ele>283.0</ele><time>2026-04-12T08:37:29.986Z</time></trkpt><trkpt lat="40.7697801" lon="9.5046099"><ele>283.0</ele><time>2026-04-12T08:37:30.976Z</time></trkpt><trkpt lat="40.7696976" lon="9.5045771"><ele>283.0</ele><time>2026-04-12T08:37:31.98Z</time></trkpt><trkpt lat="40.7696095" lon="9.5045565"><ele>283.0</ele><time>2026-04-12T08:37:32.974Z</time></trkpt><trkpt lat="40.769518" lon="9.504547"><ele>283.0</ele><time>2026-04-12T08:37:33.979Z</time></trkpt><trkpt lat="40.7694252" lon="9.504548"><ele>289.6</ele><time>2026-04-12T08:37:34.977Z</time></trkpt><trkpt lat="40.7693276" lon="9.5045559"><ele>296.20000000000005</ele><time>2026-04-12T08:37:35.978Z</time></trkpt><trkpt lat="40.7692309" lon="9.5045543"><ele>302.8</ele><time>2026-04-12T08:37:36.968Z</time></trkpt><trkpt lat="40.7691383" lon="9.5045542"><ele>309.40000000000003</ele><time>2026-04-12T08:37:37.969Z</time></trkpt><trkpt lat="40.7690524" lon="9.504548"><ele>316.0</ele><time>2026-04-12T08:37:38.976Z</time></trkpt><trkpt lat="40.7689688" lon="9.5045376"><ele>316.0</ele><time>2026-04-12T08:37:39.968Z</time></trkpt><trkpt lat="40.7688848" lon="9.5045273"><ele>316.0</ele><time>2026-04-12T08:37:41.02Z</time></trkpt><trkpt lat="40.7687991" lon="9.5045111"><ele>316.0</ele><time>2026-04-12T08:37:41.968Z</time></trkpt><trkpt lat="40.7687276" lon="9.5045042"><ele>316.0</ele><time>2026-04-12T08:37:42.961Z</time></trkpt><trkpt lat="40.7686195" lon="9.5045076"><ele>316.0</ele><time>2026-04-12T08:37:44.976Z</time></trkpt><trkpt lat="40.7685666" lon="9.5044206"><ele>316.0</ele><time>2026-04-12T08:37:48Z</time></trkpt><trkpt lat="40.7686268" lon="9.5043548"><ele>316.0</ele><time>2026-04-12T08:37:49.987Z</time></trkpt><trkpt lat="40.7686938" lon="9.5043391"><ele>316.0</ele><time>2026-04-12T08:37:50.967Z</time></trkpt><trkpt lat="40.7688289" lon="9.5043474"><ele>316.0</ele><time>2026-04-12T08:37:52.964Z</time></trkpt><trkpt lat="40.7689059" lon="9.5043392"><ele>316.0</ele><time>2026-04-12T08:37:53.986Z</time></trkpt><trkpt lat="40.7689833" lon="9.5043161"><ele>316.0</ele><time>2026-04-12T08:37:54.959Z</time></trkpt><trkpt lat="40.7690623" lon="9.5042719"><ele>316.0</ele><time>2026-04-12T08:37:55.963Z</time></trkpt><trkpt lat="40.7691504" lon="9.5042077"><ele>316.0</ele><time>2026-04-12T08:37:56.959Z</time></trkpt><trkpt lat="40.7692428" lon="9.5041278"><ele>316.0</ele><time>2026-04-12T08:37:57.955Z</time></trkpt><trkpt lat="40.7693444" lon="9.5040536"><ele>316.0</ele><time>2026-04-12T08:37:58.96Z</time></trkpt><trkpt lat="40.7694387" lon="9.5039713"><ele>316.0</ele><time>2026-04-12T08:37:59.957Z</time></trkpt><trkpt lat="40.7695339" lon="9.503896"><ele>314.16666666666663</ele><time>2026-04-12T08:38:00.956Z</time></trkpt><trkpt lat="40.7696231" lon="9.5038404"><ele>312.3333333333333</ele><time>2026-04-12T08:38:01.948Z</time></trkpt><trkpt lat="40.7697074" lon="9.5037989"><ele>310.5</ele><time>2026-04-12T08:38:02.965Z</time></trkpt><trkpt lat="40.7697821" lon="9.5037932"><ele>308.6666666666667</ele><time>2026-04-12T08:38:03.958Z</time></trkpt><trkpt lat="40.7698566" lon="9.5038267"><ele>306.83333333333337</ele><time>2026-04-12T08:38:04.955Z</time></trkpt><trkpt lat="40.7699232" lon="9.5038773"><ele>305.0</ele><time>2026-04-12T08:38:05.953Z</time></trkpt><trkpt lat="40.7699864" lon="9.5038942"><ele>305.0</ele><time>2026-04-12T08:38:06.959Z</time></trkpt><trkpt lat="40.7700349" lon="9.5038177"><ele>305.0</ele><time>2026-04-12T08:38:08.948Z</time></trkpt><trkpt lat="40.7700195" lon="9.5036995"><ele>305.0</ele><time>2026-04-12T08:38:10.96Z</time></trkpt><trkpt lat="40.7699852" lon="9.5035755"><ele>305.0</ele><time>2026-04-12T08:38:12.955Z</time></trkpt><trkpt lat="40.7699534" lon="9.5034212"><ele>305.0</ele><time>2026-04-12T08:38:14.973Z</time></trkpt><trkpt lat="40.7699541" lon="9.503325"><ele>307.0</ele><time>2026-04-12T08:38:15.956Z</time></trkpt><trkpt lat="40.7699733" lon="9.5032353"><ele>309.0</ele><time>2026-04-12T08:38:16.952Z</time></trkpt><trkpt lat="40.7699929" lon="9.5031515"><ele>311.0</ele><time>2026-04-12T08:38:17.957Z</time></trkpt><trkpt lat="40.7700115" lon="9.5030645"><ele>313.0</ele><time>2026-04-12T08:38:18.951Z</time></trkpt><trkpt lat="40.7700333" lon="9.5029758"><ele>315.0</ele><time>2026-04-12T08:38:19.937Z</time></trkpt><trkpt lat="40.7700417" lon="9.5028908"><ele>317.0</ele><time>2026-04-12T08:38:20.95Z</time></trkpt><trkpt lat="40.7700354" lon="9.5027981"><ele>319.0</ele><time>2026-04-12T08:38:21.936Z</time></trkpt><trkpt lat="40.7700185" lon="9.5026997"><ele>319.2857142857143</ele><time>2026-04-12T08:38:22.94Z</time></trkpt><trkpt lat="40.7699914" lon="9.5026011"><ele>319.57142857142856</ele><time>2026-04-12T08:38:23.948Z</time></trkpt><trkpt lat="40.7699543" lon="9.5025176"><ele>319.85714285714283</ele><time>2026-04-12T08:38:24.96Z</time></trkpt><trkpt lat="40.7699059" lon="9.5024584"><ele>320.1428571428571</ele><time>2026-04-12T08:38:25.937Z</time></trkpt><trkpt lat="40.7698422" lon="9.5024216"><ele>320.42857142857144</ele><time>2026-04-12T08:38:26.932Z</time></trkpt><trkpt lat="40.7697752" lon="9.5023858"><ele>320.71428571428567</ele><time>2026-04-12T08:38:27.936Z</time></trkpt><trkpt lat="40.7697108" lon="9.5023358"><ele>321.0</ele><time>2026-04-12T08:38:28.936Z</time></trkpt><trkpt lat="40.769653" lon="9.5022556"><ele>321.0</ele><time>2026-04-12T08:38:29.929Z</time></trkpt><trkpt lat="40.7696098" lon="9.5021631"><ele>321.0</ele><time>2026-04-12T08:38:30.939Z</time></trkpt><trkpt lat="40.769565" lon="9.5020558"><ele>321.0</ele><time>2026-04-12T08:38:31.954Z</time></trkpt><trkpt lat="40.7695231" lon="9.5019443"><ele>321.0</ele><time>2026-04-12T08:38:32.961Z</time></trkpt><trkpt lat="40.7694794" lon="9.5018303"><ele>321.0</ele><time>2026-04-12T08:38:34.036Z</time></trkpt><trkpt lat="40.7694098" lon="9.5015831"><ele>323.6</ele><time>2026-04-12T08:38:35.929Z</time></trkpt><trkpt lat="40.7693825" lon="9.5014555"><ele>326.20000000000005</ele><time>2026-04-12T08:38:36.939Z</time></trkpt><trkpt lat="40.7693564" lon="9.5013314"><ele>328.79999999999995</ele><time>2026-04-12T08:38:37.919Z</time></trkpt><trkpt lat="40.7693218" lon="9.5011957"><ele>331.4</ele><time>2026-04-12T08:38:38.942Z</time></trkpt><trkpt lat="40.7692772" lon="9.5010887"><ele>334.0</ele><time>2026-04-12T08:38:39.921Z</time></trkpt><trkpt lat="40.7692329" lon="9.5009942"><ele>337.5</ele><time>2026-04-12T08:38:40.934Z</time></trkpt><trkpt lat="40.7691944" lon="9.5009134"><ele>341.0</ele><time>2026-04-12T08:38:41.922Z</time></trkpt><trkpt lat="40.7692106" lon="9.5008056"><ele>344.5</ele><time>2026-04-12T08:38:43.938Z</time></trkpt><trkpt lat="40.7693202" lon="9.5007659"><ele>348.0</ele><time>2026-04-12T08:38:45.929Z</time></trkpt><trkpt lat="40.7693898" lon="9.5007925"><ele>351.5</ele><time>2026-04-12T08:38:46.922Z</time></trkpt><trkpt lat="40.7694689" lon="9.5008321"><ele>355.0</ele><time>2026-04-12T08:38:47.912Z</time></trkpt><trkpt lat="40.7695422" lon="9.5008702"><ele>355.0</ele><time>2026-04-12T08:38:48.909Z</time></trkpt><trkpt lat="40.769611" lon="9.500901"><ele>355.0</ele><time>2026-04-12T08:38:49.911Z</time></trkpt><trkpt lat="40.7696708" lon="9.5009371"><ele>355.0</ele><time>2026-04-12T08:38:50.91Z</time></trkpt><trkpt lat="40.7697362" lon="9.5009779"><ele>355.0</ele><time>2026-04-12T08:38:51.907Z</time></trkpt><trkpt lat="40.7698051" lon="9.5010187"><ele>355.0</ele><time>2026-04-12T08:38:52.91Z</time></trkpt><trkpt lat="40.7699188" lon="9.5010306"><ele>355.0</ele><time>2026-04-12T08:38:54.908Z</time></trkpt><trkpt lat="40.7700271" lon="9.5009862"><ele>355.0</ele><time>2026-04-12T08:38:57.016Z</time></trkpt><trkpt lat="40.770116" lon="9.5009423"><ele>355.0</ele><time>2026-04-12T08:38:59.006Z</time></trkpt><trkpt lat="40.770165" lon="9.5008406"><ele>355.0</ele><time>2026-04-12T08:39:01.005Z</time></trkpt><trkpt lat="40.7701854" lon="9.5007204"><ele>355.0</ele><time>2026-04-12T08:39:03.003Z</time></trkpt><trkpt lat="40.7701899" lon="9.5005498"><ele>355.0</ele><time>2026-04-12T08:39:05.007Z</time></trkpt><trkpt lat="40.770204" lon="9.5004608"><ele>353.0</ele><time>2026-04-12T08:39:06.012Z</time></trkpt><trkpt lat="40.770238" lon="9.5003906"><ele>351.0</ele><time>2026-04-12T08:39:07.004Z</time></trkpt><trkpt lat="40.7702939" lon="9.5002687"><ele>349.0</ele><time>2026-04-12T08:39:08.996Z</time></trkpt><trkpt lat="40.7703156" lon="9.5001904"><ele>347.0</ele><time>2026-04-12T08:39:10Z</time></trkpt><trkpt lat="40.7703357" lon="9.5001048"><ele>345.0</ele><time>2026-04-12T08:39:11.005Z</time></trkpt><trkpt lat="40.7703586" lon="9.5000068"><ele>343.0</ele><time>2026-04-12T08:39:12Z</time></trkpt><trkpt lat="40.7704434" lon="9.4998015"><ele>343.0</ele><time>2026-04-12T08:39:13.996Z</time></trkpt><trkpt lat="40.7704666" lon="9.4996049"><ele>343.0</ele><time>2026-04-12T08:39:16.001Z</time></trkpt><trkpt lat="40.7704617" lon="9.4995057"><ele>343.0</ele><time>2026-04-12T08:39:17.001Z</time></trkpt><trkpt lat="40.7704407" lon="9.4993728"><ele>343.0</ele><time>2026-04-12T08:39:17.989Z</time></trkpt><trkpt lat="40.7704115" lon="9.499221"><ele>343.0</ele><time>2026-04-12T08:39:18.988Z</time></trkpt><trkpt lat="40.7703975" lon="9.4990937"><ele>346.5</ele><time>2026-04-12T08:39:19.986Z</time></trkpt><trkpt lat="40.7703704" lon="9.4989649"><ele>350.0</ele><time>2026-04-12T08:39:20.989Z</time></trkpt><trkpt lat="40.7703591" lon="9.4988571"><ele>353.5</ele><time>2026-04-12T08:39:21.997Z</time></trkpt><trkpt lat="40.7703534" lon="9.4987661"><ele>357.0</ele><time>2026-04-12T08:39:23.001Z</time></trkpt><trkpt lat="40.7703623" lon="9.4986644"><ele>360.5</ele><time>2026-04-12T08:39:23.991Z</time></trkpt><trkpt lat="40.7703869" lon="9.4985722"><ele>364.0</ele><time>2026-04-12T08:39:24.985Z</time></trkpt><trkpt lat="40.7704316" lon="9.4984811"><ele>367.5</ele><time>2026-04-12T08:39:25.992Z</time></trkpt><trkpt lat="40.7704699" lon="9.4983868"><ele>371.0</ele><time>2026-04-12T08:39:26.982Z</time></trkpt><trkpt lat="40.7705008" lon="9.498292"><ele>374.5</ele><time>2026-04-12T08:39:27.981Z</time></trkpt><trkpt lat="40.770525" lon="9.498193"><ele>378.0</ele><time>2026-04-12T08:39:28.986Z</time></trkpt><trkpt lat="40.7705422" lon="9.4980938"><ele>381.50000000000006</ele><time>2026-04-12T08:39:30.003Z</time></trkpt><trkpt lat="40.7705465" lon="9.4979899"><ele>385.0</ele><time>2026-04-12T08:39:30.986Z</time></trkpt><trkpt lat="40.7705467" lon="9.4979016"><ele>387.8</ele><time>2026-04-12T08:39:31.983Z</time></trkpt><trkpt lat="40.770543" lon="9.497757"><ele>390.6</ele><time>2026-04-12T08:39:33.982Z</time></trkpt><trkpt lat="40.7705883" lon="9.4976391"><ele>393.4</ele><time>2026-04-12T08:39:35.985Z</time></trkpt><trkpt lat="40.7706752" lon="9.4976072"><ele>396.2</ele><time>2026-04-12T08:39:37.999Z</time></trkpt><trkpt lat="40.7707461" lon="9.4977327"><ele>399.0</ele><time>2026-04-12T08:39:39.972Z</time></trkpt><trkpt lat="40.7707804" lon="9.4978331"><ele>396.2</ele><time>2026-04-12T08:39:40.97Z</time></trkpt><trkpt lat="40.7708219" lon="9.4979556"><ele>393.4</ele><time>2026-04-12T08:39:41.973Z</time></trkpt><trkpt lat="40.7708707" lon="9.4980915"><ele>390.6</ele><time>2026-04-12T08:39:42.972Z</time></trkpt><trkpt lat="40.7709157" lon="9.4982175"><ele>387.8</ele><time>2026-04-12T08:39:43.969Z</time></trkpt><trkpt lat="40.770955" lon="9.4983115"><ele>385.0</ele><time>2026-04-12T08:39:44.972Z</time></trkpt><trkpt lat="40.7710014" lon="9.4983765"><ele>387.6666666666667</ele><time>2026-04-12T08:39:45.977Z</time></trkpt><trkpt lat="40.7710607" lon="9.4984193"><ele>390.33333333333337</ele><time>2026-04-12T08:39:46.963Z</time></trkpt><trkpt lat="40.7711807" lon="9.498462"><ele>393.0</ele><time>2026-04-12T08:39:48.972Z</time></trkpt><trkpt lat="40.771249" lon="9.4984495"><ele>395.66666666666663</ele><time>2026-04-12T08:39:49.969Z</time></trkpt><trkpt lat="40.7713187" lon="9.4984295"><ele>398.3333333333333</ele><time>2026-04-12T08:39:50.987Z</time></trkpt><trkpt lat="40.7713913" lon="9.4984118"><ele>401.0</ele><time>2026-04-12T08:39:51.976Z</time></trkpt><trkpt lat="40.7714609" lon="9.4983894"><ele>401.0</ele><time>2026-04-12T08:39:52.962Z</time></trkpt><trkpt lat="40.7715865" lon="9.4983733"><ele>401.0</ele><time>2026-04-12T08:39:54.978Z</time></trkpt><trkpt lat="40.7716977" lon="9.498421"><ele>401.0</ele><time>2026-04-12T08:39:56.961Z</time></trkpt><trkpt lat="40.7717648" lon="9.4985522"><ele>401.0</ele><time>2026-04-12T08:39:58.958Z</time></trkpt><trkpt lat="40.7719113" lon="9.4986931"><ele>403.8333333333333</ele><time>2026-04-12T08:40:01.958Z</time></trkpt><trkpt lat="40.7719777" lon="9.4987067"><ele>406.66666666666663</ele><time>2026-04-12T08:40:02.974Z</time></trkpt><trkpt lat="40.7720451" lon="9.4987104"><ele>409.5</ele><time>2026-04-12T08:40:03.952Z</time></trkpt><trkpt lat="40.7721216" lon="9.4987087"><ele>412.33333333333337</ele><time>2026-04-12T08:40:04.96Z</time></trkpt><trkpt lat="40.7722052" lon="9.4987081"><ele>415.1666666666667</ele><time>2026-04-12T08:40:06.015Z</time></trkpt><trkpt lat="40.7722886" lon="9.4987178"><ele>418.0</ele><time>2026-04-12T08:40:06.96Z</time></trkpt><trkpt lat="40.772369" lon="9.4987397"><ele>418.79999999999995</ele><time>2026-04-12T08:40:07.959Z</time></trkpt><trkpt lat="40.7724521" lon="9.4987626"><ele>419.6</ele><time>2026-04-12T08:40:08.973Z</time></trkpt><trkpt lat="40.7725245" lon="9.4987877"><ele>420.4</ele><time>2026-04-12T08:40:09.952Z</time></trkpt><trkpt lat="40.7726264" lon="9.4987992"><ele>421.20000000000005</ele><time>2026-04-12T08:40:11.948Z</time></trkpt><trkpt lat="40.7727418" lon="9.4987295"><ele>422.0</ele><time>2026-04-12T08:40:13.953Z</time></trkpt><trkpt lat="40.772823" lon="9.4987105"><ele>421.99999999999994</ele><time>2026-04-12T08:40:14.959Z</time></trkpt><trkpt lat="40.7729089" lon="9.4987231"><ele>422.0</ele><time>2026-04-12T08:40:15.947Z</time></trkpt><trkpt lat="40.7729993" lon="9.4987538"><ele>422.0</ele><time>2026-04-12T08:40:16.963Z</time></trkpt><trkpt lat="40.7730928" lon="9.4987596"><ele>422.0</ele><time>2026-04-12T08:40:18.002Z</time></trkpt><trkpt lat="40.7731791" lon="9.4987393"><ele>421.99999999999994</ele><time>2026-04-12T08:40:18.95Z</time></trkpt><trkpt lat="40.7732524" lon="9.4987079"><ele>422.0</ele><time>2026-04-12T08:40:19.943Z</time></trkpt><trkpt lat="40.7733204" lon="9.4986566"><ele>422.0</ele><time>2026-04-12T08:40:20.945Z</time></trkpt><trkpt lat="40.7733926" lon="9.4985978"><ele>422.0</ele><time>2026-04-12T08:40:21.954Z</time></trkpt><trkpt lat="40.7734707" lon="9.4985305"><ele>422.0</ele><time>2026-04-12T08:40:22.947Z</time></trkpt><trkpt lat="40.7735477" lon="9.4984528"><ele>422.0</ele><time>2026-04-12T08:40:23.938Z</time></trkpt><trkpt lat="40.7736149" lon="9.4983489"><ele>422.0</ele><time>2026-04-12T08:40:24.958Z</time></trkpt><trkpt lat="40.7736827" lon="9.4982399"><ele>422.8</ele><time>2026-04-12T08:40:25.955Z</time></trkpt><trkpt lat="40.7737512" lon="9.4981321"><ele>423.6</ele><time>2026-04-12T08:40:26.944Z</time></trkpt><trkpt lat="40.7738027" lon="9.4980313"><ele>424.40000000000003</ele><time>2026-04-12T08:40:27.942Z</time></trkpt><trkpt lat="40.7738499" lon="9.4979311"><ele>425.20000000000005</ele><time>2026-04-12T08:40:28.94Z</time></trkpt><trkpt lat="40.7738879" lon="9.4978175"><ele>426.0</ele><time>2026-04-12T08:40:29.945Z</time></trkpt><trkpt lat="40.7739452" lon="9.4977501"><ele>428.0</ele><time>2026-04-12T08:40:30.949Z</time></trkpt><trkpt lat="40.7740126" lon="9.4977074"><ele>430.0</ele><time>2026-04-12T08:40:31.93Z</time></trkpt><trkpt lat="40.7740916" lon="9.4976518"><ele>432.0</ele><time>2026-04-12T08:40:32.935Z</time></trkpt><trkpt lat="40.7741654" lon="9.4976149"><ele>434.0</ele><time>2026-04-12T08:40:33.935Z</time></trkpt><trkpt lat="40.7742292" lon="9.4975912"><ele>436.0</ele><time>2026-04-12T08:40:34.949Z</time></trkpt><trkpt lat="40.7742558" lon="9.4977062"><ele>438.0</ele><time>2026-04-12T08:40:36.942Z</time></trkpt><trkpt lat="40.7742909" lon="9.4978757"><ele>437.79999999999995</ele><time>2026-04-12T08:40:38.947Z</time></trkpt><trkpt lat="40.7743034" lon="9.4979929"><ele>437.59999999999997</ele><time>2026-04-12T08:40:39.936Z</time></trkpt><trkpt lat="40.7743334" lon="9.4981191"><ele>437.40000000000003</ele><time>2026-04-12T08:40:40.931Z</time></trkpt><trkpt lat="40.7743693" lon="9.4982446"><ele>437.20000000000005</ele><time>2026-04-12T08:40:41.939Z</time></trkpt><trkpt lat="40.7744013" lon="9.4983611"><ele>437.0</ele><time>2026-04-12T08:40:42.934Z</time></trkpt><trkpt lat="40.7744489" lon="9.4984603"><ele>437.0</ele><time>2026-04-12T08:40:43.929Z</time></trkpt><trkpt lat="40.7745059" lon="9.4985345"><ele>437.0</ele><time>2026-04-12T08:40:44.93Z</time></trkpt><trkpt lat="40.7745665" lon="9.4985974"><ele>437.0</ele><time>2026-04-12T08:40:45.936Z</time></trkpt><trkpt lat="40.7746241" lon="9.4986454"><ele>437.0</ele><time>2026-04-12T08:40:46.926Z</time></trkpt><trkpt lat="40.7746873" lon="9.4986696"><ele>437.0</ele><time>2026-04-12T08:40:47.924Z</time></trkpt><trkpt lat="40.7747542" lon="9.4986676"><ele>437.0</ele><time>2026-04-12T08:40:48.947Z</time></trkpt><trkpt lat="40.7748164" lon="9.4986493"><ele>437.0</ele><time>2026-04-12T08:40:49.927Z</time></trkpt><trkpt lat="40.774875" lon="9.4986172"><ele>436.99999999999994</ele><time>2026-04-12T08:40:50.944Z</time></trkpt><trkpt lat="40.7749271" lon="9.4984915"><ele>437.0</ele><time>2026-04-12T08:40:52.953Z</time></trkpt><trkpt lat="40.7749339" lon="9.4984026"><ele>437.0</ele><time>2026-04-12T08:40:53.926Z</time></trkpt><trkpt lat="40.7749324" lon="9.498306"><ele>437.0</ele><time>2026-04-12T08:40:54.931Z</time></trkpt><trkpt lat="40.7749293" lon="9.4982064"><ele>436.99999999999994</ele><time>2026-04-12T08:40:55.932Z</time></trkpt><trkpt lat="40.7749264" lon="9.4981182"><ele>437.0</ele><time>2026-04-12T08:40:56.936Z</time></trkpt><trkpt lat="40.7749168" lon="9.4979865"><ele>439.0</ele><time>2026-04-12T08:40:58.931Z</time></trkpt><trkpt lat="40.7749219" lon="9.4978504"><ele>441.0</ele><time>2026-04-12T08:41:00.925Z</time></trkpt><trkpt lat="40.774926" lon="9.4977004"><ele>443.0</ele><time>2026-04-12T08:41:02.924Z</time></trkpt><trkpt lat="40.7749312" lon="9.4975353"><ele>445.0</ele><time>2026-04-12T08:41:04.913Z</time></trkpt><trkpt lat="40.7749304" lon="9.4973712"><ele>445.00000000000006</ele><time>2026-04-12T08:41:06.925Z</time></trkpt><trkpt lat="40.7749258" lon="9.4972839"><ele>445.0</ele><time>2026-04-12T08:41:07.926Z</time></trkpt><trkpt lat="40.7749131" lon="9.4971965"><ele>445.0</ele><time>2026-04-12T08:41:08.922Z</time></trkpt><trkpt lat="40.7749105" lon="9.4971111"><ele>445.0</ele><time>2026-04-12T08:41:09.92Z</time></trkpt><trkpt lat="40.7749285" lon="9.4969472"><ele>445.00000000000006</ele><time>2026-04-12T08:41:11.918Z</time></trkpt><trkpt lat="40.7749525" lon="9.4968683"><ele>445.0</ele><time>2026-04-12T08:41:12.917Z</time></trkpt><trkpt lat="40.7749912" lon="9.4967867"><ele>446.75</ele><time>2026-04-12T08:41:14.909Z</time></trkpt><trkpt lat="40.7750763" lon="9.4967165"><ele>448.5</ele><time>2026-04-12T08:41:17.905Z</time></trkpt><trkpt lat="40.775231" lon="9.4966603"><ele>450.25</ele><time>2026-04-12T08:41:20.919Z</time></trkpt><trkpt lat="40.7753242" lon="9.4965606"><ele>452.0</ele><time>2026-04-12T08:41:23.029Z</time></trkpt><trkpt lat="40.7754035" lon="9.4964497"><ele>454.66666666666663</ele><time>2026-04-12T08:41:25.034Z</time></trkpt><trkpt lat="40.7754753" lon="9.4963171"><ele>457.3333333333333</ele><time>2026-04-12T08:41:27.005Z</time></trkpt><trkpt lat="40.775507" lon="9.4962401"><ele>460.0</ele><time>2026-04-12T08:41:28.002Z</time></trkpt><trkpt lat="40.7755337" lon="9.4961546"><ele>462.66666666666663</ele><time>2026-04-12T08:41:29.008Z</time></trkpt><trkpt lat="40.7755612" lon="9.4960706"><ele>465.3333333333333</ele><time>2026-04-12T08:41:30.012Z</time></trkpt><trkpt lat="40.7755926" lon="9.4959837"><ele>468.0</ele><time>2026-04-12T08:41:31.004Z</time></trkpt><trkpt lat="40.7756291" lon="9.4959009"><ele>468.0</ele><time>2026-04-12T08:41:32.016Z</time></trkpt><trkpt lat="40.7756621" lon="9.4958189"><ele>468.00000000000006</ele><time>2026-04-12T08:41:33Z</time></trkpt><trkpt lat="40.7756997" lon="9.4957372"><ele>468.0</ele><time>2026-04-12T08:41:34.004Z</time></trkpt><trkpt lat="40.775734" lon="9.4956444"><ele>468.0</ele><time>2026-04-12T08:41:34.995Z</time></trkpt><trkpt lat="40.7757603" lon="9.4955485"><ele>468.00000000000006</ele><time>2026-04-12T08:41:35.998Z</time></trkpt><trkpt lat="40.7757752" lon="9.4954521"><ele>468.0</ele><time>2026-04-12T08:41:36.991Z</time></trkpt><trkpt lat="40.7757719" lon="9.495358"><ele>468.0</ele><time>2026-04-12T08:41:37.997Z</time></trkpt><trkpt lat="40.7757633" lon="9.4952622"><ele>468.0</ele><time>2026-04-12T08:41:39.008Z</time></trkpt><trkpt lat="40.7757554" lon="9.495171"><ele>468.00000000000006</ele><time>2026-04-12T08:41:39.994Z</time></trkpt><trkpt lat="40.7757523" lon="9.4950795"><ele>468.0</ele><time>2026-04-12T08:41:41.009Z</time></trkpt><trkpt lat="40.7757533" lon="9.4949872"><ele>468.0</ele><time>2026-04-12T08:41:41.994Z</time></trkpt><trkpt lat="40.7757557" lon="9.4948886"><ele>468.00000000000006</ele><time>2026-04-12T08:41:42.989Z</time></trkpt><trkpt lat="40.775735" lon="9.4947971"><ele>468.0</ele><time>2026-04-12T08:41:43.999Z</time></trkpt><trkpt lat="40.7757208" lon="9.4947121"><ele>468.0</ele><time>2026-04-12T08:41:44.995Z</time></trkpt><trkpt lat="40.7757314" lon="9.4945469"><ele>468.8333333333333</ele><time>2026-04-12T08:41:46.993Z</time></trkpt><trkpt lat="40.7757395" lon="9.494455"><ele>469.66666666666663</ele><time>2026-04-12T08:41:47.994Z</time></trkpt><trkpt lat="40.7757547" lon="9.4943557"><ele>470.5</ele><time>2026-04-12T08:41:48.991Z</time></trkpt><trkpt lat="40.7757722" lon="9.4942383"><ele>471.3333333333333</ele><time>2026-04-12T08:41:49.998Z</time></trkpt><trkpt lat="40.7757886" lon="9.4941241"><ele>472.16666666666663</ele><time>2026-04-12T08:41:50.989Z</time></trkpt><trkpt lat="40.7758025" lon="9.4940409"><ele>473.0</ele><time>2026-04-12T08:41:51.993Z</time></trkpt><trkpt lat="40.7758145" lon="9.4939451"><ele>472.99999999999994</ele><time>2026-04-12T08:41:52.983Z</time></trkpt><trkpt lat="40.7758259" lon="9.4937937"><ele>473.0</ele><time>2026-04-12T08:41:54.998Z</time></trkpt><trkpt lat="40.7758389" lon="9.4937062"><ele>473.0</ele><time>2026-04-12T08:41:56.979Z</time></trkpt><trkpt lat="40.7758839" lon="9.4936419"><ele>473.0</ele><time>2026-04-12T08:42:07.993Z</time></trkpt><trkpt lat="40.7759486" lon="9.4936251"><ele>472.99999999999994</ele><time>2026-04-12T08:42:10.98Z</time></trkpt><trkpt lat="40.7758778" lon="9.4936226"><ele>473.0</ele><time>2026-04-12T08:42:17.991Z</time></trkpt><trkpt lat="40.7758015" lon="9.4936022"><ele>473.28571428571433</ele><time>2026-04-12T08:42:20.973Z</time></trkpt><trkpt lat="40.7757663" lon="9.4935276"><ele>473.57142857142856</ele><time>2026-04-12T08:42:23.972Z</time></trkpt><trkpt lat="40.7757241" lon="9.4934364"><ele>473.8571428571429</ele><time>2026-04-12T08:53:15.978Z</time></trkpt><trkpt lat="40.7756573" lon="9.4934047"><ele>474.14285714285717</ele><time>2026-04-12T08:53:18.96Z</time></trkpt><trkpt lat="40.775593" lon="9.4934187"><ele>474.42857142857144</ele><time>2026-04-12T08:53:20.963Z</time></trkpt><trkpt lat="40.7755295" lon="9.4934506"><ele>474.7142857142857</ele><time>2026-04-12T08:53:22.958Z</time></trkpt><trkpt lat="40.7754687" lon="9.493507"><ele>475.0</ele><time>2026-04-12T08:53:24.953Z</time></trkpt><trkpt lat="40.7754069" lon="9.4935842"><ele>475.0</ele><time>2026-04-12T08:53:26.957Z</time></trkpt><trkpt lat="40.7753574" lon="9.4936845"><ele>475.0</ele><time>2026-04-12T08:53:28.959Z</time></trkpt><trkpt lat="40.7752945" lon="9.4937888"><ele>475.0</ele><time>2026-04-12T08:53:30.946Z</time></trkpt><trkpt lat="40.7752272" lon="9.4938959"><ele>475.0</ele><time>2026-04-12T08:53:32.938Z</time></trkpt><trkpt lat="40.7751405" lon="9.4940011"><ele>475.0</ele><time>2026-04-12T08:53:34.935Z</time></trkpt><trkpt lat="40.7750421" lon="9.4940641"><ele>476.33333333333337</ele><time>2026-04-12T08:53:36.951Z</time></trkpt><trkpt lat="40.7749372" lon="9.4941217"><ele>477.6666666666667</ele><time>2026-04-12T08:53:38.942Z</time></trkpt><trkpt lat="40.7748761" lon="9.494156"><ele>479.0</ele><time>2026-04-12T08:53:39.934Z</time></trkpt><trkpt lat="40.7748132" lon="9.4941884"><ele>480.33333333333337</ele><time>2026-04-12T08:53:40.936Z</time></trkpt><trkpt lat="40.7747425" lon="9.4942178"><ele>481.6666666666667</ele><time>2026-04-12T08:53:41.925Z</time></trkpt><trkpt lat="40.7746631" lon="9.4942351"><ele>483.0</ele><time>2026-04-12T08:53:42.934Z</time></trkpt><trkpt lat="40.7745828" lon="9.4942507"><ele>483.0</ele><time>2026-04-12T08:53:43.964Z</time></trkpt><trkpt lat="40.7745115" lon="9.4942653"><ele>483.0</ele><time>2026-04-12T08:53:44.934Z</time></trkpt><trkpt lat="40.7744388" lon="9.4942849"><ele>483.0</ele><time>2026-04-12T08:53:45.941Z</time></trkpt><trkpt lat="40.7743677" lon="9.4943094"><ele>483.0</ele><time>2026-04-12T08:53:46.938Z</time></trkpt><trkpt lat="40.7742945" lon="9.4943411"><ele>483.0</ele><time>2026-04-12T08:53:47.958Z</time></trkpt><trkpt lat="40.7742231" lon="9.4943769"><ele>483.0</ele><time>2026-04-12T08:53:48.927Z</time></trkpt><trkpt lat="40.7741463" lon="9.494409"><ele>481.6666666666667</ele><time>2026-04-12T08:53:49.925Z</time></trkpt><trkpt lat="40.7740706" lon="9.4944417"><ele>480.33333333333337</ele><time>2026-04-12T08:53:50.927Z</time></trkpt><trkpt lat="40.7739946" lon="9.4944759"><ele>479.0</ele><time>2026-04-12T08:53:51.923Z</time></trkpt><trkpt lat="40.7739194" lon="9.4945063"><ele>477.6666666666667</ele><time>2026-04-12T08:53:52.928Z</time></trkpt><trkpt lat="40.7738536" lon="9.4945343"><ele>476.33333333333337</ele><time>2026-04-12T08:53:53.924Z</time></trkpt><trkpt lat="40.7737802" lon="9.4945629"><ele>475.0</ele><time>2026-04-12T08:53:54.92Z</time></trkpt><trkpt lat="40.7737069" lon="9.4945939"><ele>475.00000000000006</ele><time>2026-04-12T08:53:55.922Z</time></trkpt><trkpt lat="40.7736283" lon="9.4946297"><ele>475.0</ele><time>2026-04-12T08:53:56.918Z</time></trkpt><trkpt lat="40.7735477" lon="9.4946662"><ele>475.0</ele><time>2026-04-12T08:53:57.933Z</time></trkpt><trkpt lat="40.7734774" lon="9.4946988"><ele>475.0</ele><time>2026-04-12T08:53:58.924Z</time></trkpt><trkpt lat="40.7734051" lon="9.4947306"><ele>475.00000000000006</ele><time>2026-04-12T08:53:59.916Z</time></trkpt><trkpt lat="40.7733386" lon="9.494766"><ele>475.0</ele><time>2026-04-12T08:54:00.913Z</time></trkpt><trkpt lat="40.7732724" lon="9.4948001"><ele>478.33333333333337</ele><time>2026-04-12T08:54:01.941Z</time></trkpt><trkpt lat="40.7732006" lon="9.4948283"><ele>481.6666666666667</ele><time>2026-04-12T08:54:02.918Z</time></trkpt><trkpt lat="40.773123" lon="9.4948541"><ele>485.0</ele><time>2026-04-12T08:54:03.908Z</time></trkpt><trkpt lat="40.7730465" lon="9.4948764"><ele>488.33333333333337</ele><time>2026-04-12T08:54:04.914Z</time></trkpt><trkpt lat="40.7729734" lon="9.4948983"><ele>491.6666666666667</ele><time>2026-04-12T08:54:05.912Z</time></trkpt><trkpt lat="40.7729073" lon="9.4949274"><ele>495.0</ele><time>2026-04-12T08:54:06.921Z</time></trkpt><trkpt lat="40.772836" lon="9.4949622"><ele>495.0</ele><time>2026-04-12T08:54:07.911Z</time></trkpt><trkpt lat="40.7727765" lon="9.4949963"><ele>495.0</ele><time>2026-04-12T08:54:08.909Z</time></trkpt><trkpt lat="40.7726797" lon="9.4950662"><ele>495.0</ele><time>2026-04-12T08:54:10.921Z</time></trkpt><trkpt lat="40.7726049" lon="9.4951016"><ele>495.0</ele><time>2026-04-12T08:54:13.013Z</time></trkpt><trkpt lat="40.7725184" lon="9.4949763"><ele>495.0</ele><time>2026-04-12T08:54:17.032Z</time></trkpt><trkpt lat="40.7724452" lon="9.494842"><ele>496.8333333333333</ele><time>2026-04-12T08:54:19.002Z</time></trkpt><trkpt lat="40.7723923" lon="9.4947558"><ele>498.66666666666663</ele><time>2026-04-12T08:54:20.009Z</time></trkpt><trkpt lat="40.7723379" lon="9.4946833"><ele>500.5</ele><time>2026-04-12T08:54:20.992Z</time></trkpt><trkpt lat="40.7722868" lon="9.4946218"><ele>502.3333333333333</ele><time>2026-04-12T08:54:22Z</time></trkpt><trkpt lat="40.772166" lon="9.4945733"><ele>504.16666666666663</ele><time>2026-04-12T08:54:24.007Z</time></trkpt><trkpt lat="40.7720934" lon="9.4945734"><ele>506.0</ele><time>2026-04-12T08:54:24.998Z</time></trkpt><trkpt lat="40.7720105" lon="9.4945735"><ele>508.20000000000005</ele><time>2026-04-12T08:54:26.008Z</time></trkpt><trkpt lat="40.7719294" lon="9.4945597"><ele>510.40000000000003</ele><time>2026-04-12T08:54:26.988Z</time></trkpt><trkpt lat="40.7718442" lon="9.4945352"><ele>512.6</ele><time>2026-04-12T08:54:27.99Z</time></trkpt><trkpt lat="40.7717469" lon="9.4945165"><ele>514.8000000000001</ele><time>2026-04-12T08:54:28.998Z</time></trkpt><trkpt lat="40.7716375" lon="9.4944854"><ele>517.0</ele><time>2026-04-12T08:54:29.988Z</time></trkpt><trkpt lat="40.7715336" lon="9.4944546"><ele>517.1666666666667</ele><time>2026-04-12T08:54:30.992Z</time></trkpt><trkpt lat="40.7714406" lon="9.4944307"><ele>517.3333333333334</ele><time>2026-04-12T08:54:31.993Z</time></trkpt><trkpt lat="40.7713575" lon="9.4944156"><ele>517.5</ele><time>2026-04-12T08:54:32.981Z</time></trkpt><trkpt lat="40.7712744" lon="9.4944153"><ele>517.6666666666666</ele><time>2026-04-12T08:54:33.988Z</time></trkpt><trkpt lat="40.7711933" lon="9.4944148"><ele>517.8333333333333</ele><time>2026-04-12T08:54:34.996Z</time></trkpt><trkpt lat="40.7711135" lon="9.4944118"><ele>518.0</ele><time>2026-04-12T08:54:35.99Z</time></trkpt><trkpt lat="40.7710364" lon="9.4943983"><ele>517.6</ele><time>2026-04-12T08:54:36.979Z</time></trkpt><trkpt lat="40.7709569" lon="9.4943723"><ele>517.1999999999999</ele><time>2026-04-12T08:54:37.99Z</time></trkpt><trkpt lat="40.7708653" lon="9.494323"><ele>516.8</ele><time>2026-04-12T08:54:38.977Z</time></trkpt><trkpt lat="40.7707727" lon="9.4942654"><ele>516.4</ele><time>2026-04-12T08:54:39.988Z</time></trkpt><trkpt lat="40.7706763" lon="9.4942156"><ele>516.0</ele><time>2026-04-12T08:54:40.977Z</time></trkpt><trkpt lat="40.7705803" lon="9.494166"><ele>516.0</ele><time>2026-04-12T08:54:41.975Z</time></trkpt><trkpt lat="40.7704953" lon="9.4941282"><ele>516.0</ele><time>2026-04-12T08:54:42.981Z</time></trkpt><trkpt lat="40.7704201" lon="9.494109"><ele>516.0</ele><time>2026-04-12T08:54:43.978Z</time></trkpt><trkpt lat="40.7703478" lon="9.4941"><ele>516.0</ele><time>2026-04-12T08:54:44.991Z</time></trkpt><trkpt lat="40.770281" lon="9.4940946"><ele>516.0</ele><time>2026-04-12T08:54:45.987Z</time></trkpt><trkpt lat="40.7701872" lon="9.4940695"><ele>516.0</ele><time>2026-04-12T08:54:47.976Z</time></trkpt><trkpt lat="40.7701388" lon="9.4940134"><ele>515.0</ele><time>2026-04-12T08:54:49.98Z</time></trkpt><trkpt lat="40.7700898" lon="9.4939474"><ele>514.0</ele><time>2026-04-12T08:54:51.97Z</time></trkpt><trkpt lat="40.7700313" lon="9.4939096"><ele>513.0</ele><time>2026-04-12T08:54:53.979Z</time></trkpt><trkpt lat="40.7699696" lon="9.4939394"><ele>512.0</ele><time>2026-04-12T08:54:55.985Z</time></trkpt><trkpt lat="40.7698669" lon="9.4939911"><ele>511.0</ele><time>2026-04-12T08:54:57.967Z</time></trkpt><trkpt lat="40.7697974" lon="9.4940177"><ele>510.0</ele><time>2026-04-12T08:54:58.968Z</time></trkpt><trkpt lat="40.769724" lon="9.494034"><ele>510.0</ele><time>2026-04-12T08:54:59.971Z</time></trkpt><trkpt lat="40.7696492" lon="9.4940467"><ele>510.0</ele><time>2026-04-12T08:55:00.959Z</time></trkpt><trkpt lat="40.7695763" lon="9.4940592"><ele>510.0</ele><time>2026-04-12T08:55:01.959Z</time></trkpt><trkpt lat="40.7695142" lon="9.4940798"><ele>510.0</ele><time>2026-04-12T08:55:02.956Z</time></trkpt><trkpt lat="40.769416" lon="9.4941603"><ele>510.0</ele><time>2026-04-12T08:55:04.961Z</time></trkpt><trkpt lat="40.76937" lon="9.4942272"><ele>510.0</ele><time>2026-04-12T08:55:05.959Z</time></trkpt><trkpt lat="40.769318" lon="9.4943001"><ele>510.6</ele><time>2026-04-12T08:55:06.949Z</time></trkpt><trkpt lat="40.7692651" lon="9.4943707"><ele>511.2</ele><time>2026-04-12T08:55:07.947Z</time></trkpt><trkpt lat="40.7692027" lon="9.4944459"><ele>511.79999999999995</ele><time>2026-04-12T08:55:08.951Z</time></trkpt><trkpt lat="40.7691379" lon="9.4945326"><ele>512.4</ele><time>2026-04-12T08:55:09.957Z</time></trkpt><trkpt lat="40.7690793" lon="9.4946283"><ele>513.0</ele><time>2026-04-12T08:55:10.958Z</time></trkpt><trkpt lat="40.7690143" lon="9.4947404"><ele>511.0</ele><time>2026-04-12T08:55:11.946Z</time></trkpt><trkpt lat="40.7689674" lon="9.4948285"><ele>509.0</ele><time>2026-04-12T08:55:12.947Z</time></trkpt><trkpt lat="40.7689326" lon="9.4949027"><ele>507.0</ele><time>2026-04-12T08:55:13.952Z</time></trkpt><trkpt lat="40.768903" lon="9.4949955"><ele>505.0</ele><time>2026-04-12T08:55:14.955Z</time></trkpt><trkpt lat="40.7688792" lon="9.4951144"><ele>503.0</ele><time>2026-04-12T08:55:15.953Z</time></trkpt><trkpt lat="40.7688569" lon="9.4952353"><ele>501.0</ele><time>2026-04-12T08:55:16.956Z</time></trkpt><trkpt lat="40.7688385" lon="9.4953571"><ele>498.0</ele><time>2026-04-12T08:55:17.95Z</time></trkpt><trkpt lat="40.7688213" lon="9.4954876"><ele>495.0</ele><time>2026-04-12T08:55:18.941Z</time></trkpt><trkpt lat="40.7688188" lon="9.4956062"><ele>492.0</ele><time>2026-04-12T08:55:19.939Z</time></trkpt><trkpt lat="40.7688277" lon="9.4957282"><ele>489.0</ele><time>2026-04-12T08:55:20.981Z</time></trkpt><trkpt lat="40.7688385" lon="9.4958562"><ele>486.0</ele><time>2026-04-12T08:55:21.944Z</time></trkpt><trkpt lat="40.7688324" lon="9.4959795"><ele>486.0</ele><time>2026-04-12T08:55:22.952Z</time></trkpt><trkpt lat="40.7688253" lon="9.4960884"><ele>486.0</ele><time>2026-04-12T08:55:23.938Z</time></trkpt><trkpt lat="40.7688156" lon="9.4961795"><ele>486.0</ele><time>2026-04-12T08:55:24.93Z</time></trkpt><trkpt lat="40.7688007" lon="9.4962658"><ele>486.0</ele><time>2026-04-12T08:55:25.939Z</time></trkpt><trkpt lat="40.7687738" lon="9.4963474"><ele>486.0</ele><time>2026-04-12T08:55:26.964Z</time></trkpt><trkpt lat="40.7687436" lon="9.4964272"><ele>486.0</ele><time>2026-04-12T08:55:27.933Z</time></trkpt><trkpt lat="40.7687039" lon="9.4965024"><ele>486.0</ele><time>2026-04-12T08:55:28.94Z</time></trkpt><trkpt lat="40.7686453" lon="9.496573"><ele>484.1666666666667</ele><time>2026-04-12T08:55:29.936Z</time></trkpt><trkpt lat="40.7685816" lon="9.4966366"><ele>482.33333333333337</ele><time>2026-04-12T08:55:30.934Z</time></trkpt><trkpt lat="40.7685216" lon="9.4967027"><ele>480.5</ele><time>2026-04-12T08:55:31.94Z</time></trkpt><trkpt lat="40.7684635" lon="9.4967784"><ele>478.6666666666667</ele><time>2026-04-12T08:55:32.927Z</time></trkpt><trkpt lat="40.7684072" lon="9.4968627"><ele>476.83333333333337</ele><time>2026-04-12T08:55:33.958Z</time></trkpt><trkpt lat="40.7683459" lon="9.496945"><ele>475.0</ele><time>2026-04-12T08:55:34.926Z</time></trkpt><trkpt lat="40.7682919" lon="9.4970202"><ele>475.2</ele><time>2026-04-12T08:55:35.924Z</time></trkpt><trkpt lat="40.7682414" lon="9.4970821"><ele>475.4</ele><time>2026-04-12T08:55:36.926Z</time></trkpt><trkpt lat="40.7681389" lon="9.4971392"><ele>475.6</ele><time>2026-04-12T08:55:38.938Z</time></trkpt><trkpt lat="40.7680228" lon="9.4970901"><ele>475.8</ele><time>2026-04-12T08:55:40.925Z</time></trkpt><trkpt lat="40.7679613" lon="9.4970697"><ele>476.0</ele><time>2026-04-12T08:55:41.927Z</time></trkpt><trkpt lat="40.7678405" lon="9.4970778"><ele>475.99999999999994</ele><time>2026-04-12T08:55:43.914Z</time></trkpt><trkpt lat="40.7677749" lon="9.4971112"><ele>476.0</ele><time>2026-04-12T08:55:44.916Z</time></trkpt><trkpt lat="40.7677151" lon="9.4971656"><ele>476.0</ele><time>2026-04-12T08:55:45.913Z</time></trkpt><trkpt lat="40.7676587" lon="9.4972319"><ele>476.0</ele><time>2026-04-12T08:55:46.91Z</time></trkpt><trkpt lat="40.7676002" lon="9.4972895"><ele>475.99999999999994</ele><time>2026-04-12T08:55:47.918Z</time></trkpt><trkpt lat="40.7674792" lon="9.4973093"><ele>476.0</ele><time>2026-04-12T08:55:49.913Z</time></trkpt><trkpt lat="40.7674139" lon="9.4972911"><ele>478.6</ele><time>2026-04-12T08:55:50.92Z</time></trkpt><trkpt lat="40.7673353" lon="9.49726"><ele>481.20000000000005</ele><time>2026-04-12T08:55:51.922Z</time></trkpt><trkpt lat="40.7672432" lon="9.4972429"><ele>483.79999999999995</ele><time>2026-04-12T08:55:52.922Z</time></trkpt><trkpt lat="40.7671464" lon="9.49723"><ele>486.4</ele><time>2026-04-12T08:55:53.933Z</time></trkpt><trkpt lat="40.7670588" lon="9.4972179"><ele>489.0</ele><time>2026-04-12T08:55:54.914Z</time></trkpt><trkpt lat="40.7669687" lon="9.4972135"><ele>489.0</ele><time>2026-04-12T08:55:55.924Z</time></trkpt><trkpt lat="40.7668808" lon="9.4972303"><ele>489.0</ele><time>2026-04-12T08:55:56.919Z</time></trkpt><trkpt lat="40.7668085" lon="9.4972638"><ele>489.0</ele><time>2026-04-12T08:55:57.929Z</time></trkpt><trkpt lat="40.7667506" lon="9.4973084"><ele>489.0</ele><time>2026-04-12T08:55:58.903Z</time></trkpt><trkpt lat="40.7666894" lon="9.4974279"><ele>489.0</ele><time>2026-04-12T08:56:00.905Z</time></trkpt><trkpt lat="40.7666858" lon="9.4976073"><ele>489.1666666666667</ele><time>2026-04-12T08:56:02.898Z</time></trkpt><trkpt lat="40.7666994" lon="9.4977127"><ele>489.33333333333337</ele><time>2026-04-12T08:56:04.003Z</time></trkpt><trkpt lat="40.7667138" lon="9.4978283"><ele>489.5</ele><time>2026-04-12T08:56:05.011Z</time></trkpt><trkpt lat="40.766718" lon="9.4979442"><ele>489.6666666666667</ele><time>2026-04-12T08:56:06.003Z</time></trkpt><trkpt lat="40.7667157" lon="9.498033"><ele>489.83333333333337</ele><time>2026-04-12T08:56:07.02Z</time></trkpt><trkpt lat="40.7666668" lon="9.4981624"><ele>490.0</ele><time>2026-04-12T08:56:09.03Z</time></trkpt><trkpt lat="40.7665993" lon="9.4982396"><ele>490.0</ele><time>2026-04-12T08:56:11.01Z</time></trkpt><trkpt lat="40.7664945" lon="9.4983236"><ele>490.0</ele><time>2026-04-12T08:56:12.995Z</time></trkpt><trkpt lat="40.7663884" lon="9.4983646"><ele>490.0</ele><time>2026-04-12T08:56:14.995Z</time></trkpt><trkpt lat="40.7662935" lon="9.4983498"><ele>490.0</ele><time>2026-04-12T08:56:17Z</time></trkpt><trkpt lat="40.7662047" lon="9.4982858"><ele>490.0</ele><time>2026-04-12T08:56:18.997Z</time></trkpt><trkpt lat="40.766144" lon="9.4982245"><ele>490.00000000000006</ele><time>2026-04-12T08:56:19.99Z</time></trkpt><trkpt lat="40.7660663" lon="9.4981725"><ele>490.0</ele><time>2026-04-12T08:56:21.016Z</time></trkpt><trkpt lat="40.7659907" lon="9.4981324"><ele>490.0</ele><time>2026-04-12T08:56:21.992Z</time></trkpt><trkpt lat="40.7659173" lon="9.4981069"><ele>490.0</ele><time>2026-04-12T08:56:22.98Z</time></trkpt><trkpt lat="40.7658436" lon="9.4980965"><ele>490.00000000000006</ele><time>2026-04-12T08:56:23.986Z</time></trkpt><trkpt lat="40.7657675" lon="9.4980964"><ele>490.0</ele><time>2026-04-12T08:56:24.995Z</time></trkpt><trkpt lat="40.7657012" lon="9.4981024"><ele>490.8571428571429</ele><time>2026-04-12T08:56:25.98Z</time></trkpt><trkpt lat="40.7656333" lon="9.4981242"><ele>491.7142857142857</ele><time>2026-04-12T08:56:27.007Z</time></trkpt><trkpt lat="40.765566" lon="9.4981511"><ele>492.57142857142856</ele><time>2026-04-12T08:56:27.997Z</time></trkpt><trkpt lat="40.7655041" lon="9.4981997"><ele>493.42857142857144</ele><time>2026-04-12T08:56:28.982Z</time></trkpt><trkpt lat="40.7654456" lon="9.4982567"><ele>494.28571428571433</ele><time>2026-04-12T08:56:29.987Z</time></trkpt><trkpt lat="40.7653814" lon="9.4983106"><ele>495.14285714285717</ele><time>2026-04-12T08:56:30.988Z</time></trkpt><trkpt lat="40.7653175" lon="9.4983625"><ele>496.0</ele><time>2026-04-12T08:56:31.975Z</time></trkpt><trkpt lat="40.7652533" lon="9.4984189"><ele>497.8571428571429</ele><time>2026-04-12T08:56:32.983Z</time></trkpt><trkpt lat="40.7651898" lon="9.4984757"><ele>499.7142857142858</ele><time>2026-04-12T08:56:33.975Z</time></trkpt><trkpt lat="40.7651258" lon="9.4985253"><ele>501.57142857142856</ele><time>2026-04-12T08:56:34.969Z</time></trkpt><trkpt lat="40.7650625" lon="9.498566"><ele>503.42857142857144</ele><time>2026-04-12T08:56:35.979Z</time></trkpt><trkpt lat="40.7650013" lon="9.4985922"><ele>505.2857142857143</ele><time>2026-04-12T08:56:36.976Z</time></trkpt><trkpt lat="40.7649348" lon="9.4986075"><ele>507.1428571428571</ele><time>2026-04-12T08:56:37.985Z</time></trkpt><trkpt lat="40.7648581" lon="9.4986116"><ele>508.99999999999994</ele><time>2026-04-12T08:56:38.982Z</time></trkpt><trkpt lat="40.7647854" lon="9.4986135"><ele>508.99999999999994</ele><time>2026-04-12T08:56:39.975Z</time></trkpt><trkpt lat="40.76472" lon="9.4986061"><ele>509.0</ele><time>2026-04-12T08:56:40.972Z</time></trkpt><trkpt lat="40.7646514" lon="9.4985796"><ele>508.99999999999994</ele><time>2026-04-12T08:56:41.98Z</time></trkpt><trkpt lat="40.7645862" lon="9.4985479"><ele>508.99999999999994</ele><time>2026-04-12T08:56:42.98Z</time></trkpt><trkpt lat="40.7645239" lon="9.498508"><ele>509.0</ele><time>2026-04-12T08:56:43.965Z</time></trkpt><trkpt lat="40.7644699" lon="9.4984481"><ele>508.99999999999994</ele><time>2026-04-12T08:56:44.963Z</time></trkpt><trkpt lat="40.7644174" lon="9.4983609"><ele>508.99999999999994</ele><time>2026-04-12T08:56:45.966Z</time></trkpt><trkpt lat="40.7643662" lon="9.4982596"><ele>510.8333333333333</ele><time>2026-04-12T08:56:46.965Z</time></trkpt><trkpt lat="40.764316" lon="9.4981621"><ele>512.6666666666666</ele><time>2026-04-12T08:56:47.997Z</time></trkpt><trkpt lat="40.7642704" lon="9.4980575"><ele>514.5</ele><time>2026-04-12T08:56:48.97Z</time></trkpt><trkpt lat="40.764229" lon="9.497967"><ele>516.3333333333334</ele><time>2026-04-12T08:56:49.969Z</time></trkpt><trkpt lat="40.764185" lon="9.4978927"><ele>518.1666666666667</ele><time>2026-04-12T08:56:50.962Z</time></trkpt><trkpt lat="40.7641389" lon="9.497817"><ele>520.0</ele><time>2026-04-12T08:56:51.959Z</time></trkpt><trkpt lat="40.7640891" lon="9.4977335"><ele>520.0</ele><time>2026-04-12T08:56:52.958Z</time></trkpt><trkpt lat="40.7640365" lon="9.4976579"><ele>520.0</ele><time>2026-04-12T08:56:53.99Z</time></trkpt><trkpt lat="40.7639894" lon="9.4975847"><ele>520.0</ele><time>2026-04-12T08:56:54.979Z</time></trkpt><trkpt lat="40.763952" lon="9.4975074"><ele>520.0</ele><time>2026-04-12T08:56:55.968Z</time></trkpt><trkpt lat="40.7639169" lon="9.4974232"><ele>520.0</ele><time>2026-04-12T08:56:56.959Z</time></trkpt><trkpt lat="40.7638848" lon="9.4973201"><ele>520.0</ele><time>2026-04-12T08:56:57.966Z</time></trkpt><trkpt lat="40.7638552" lon="9.4972114"><ele>520.0</ele><time>2026-04-12T08:56:58.955Z</time></trkpt><trkpt lat="40.7638122" lon="9.4971038"><ele>520.0</ele><time>2026-04-12T08:56:59.949Z</time></trkpt><trkpt lat="40.7637683" lon="9.4969868"><ele>520.0</ele><time>2026-04-12T08:57:00.961Z</time></trkpt><trkpt lat="40.7637209" lon="9.4968775"><ele>520.0</ele><time>2026-04-12T08:57:01.99Z</time></trkpt><trkpt lat="40.7636733" lon="9.4967738"><ele>520.0</ele><time>2026-04-12T08:57:02.965Z</time></trkpt><trkpt lat="40.7636283" lon="9.496683"><ele>519.1666666666667</ele><time>2026-04-12T08:57:03.951Z</time></trkpt><trkpt lat="40.7635857" lon="9.4965985"><ele>518.3333333333334</ele><time>2026-04-12T08:57:04.955Z</time></trkpt><trkpt lat="40.7635452" lon="9.4965122"><ele>517.5</ele><time>2026-04-12T08:57:05.968Z</time></trkpt><trkpt lat="40.7635074" lon="9.4964196"><ele>516.6666666666666</ele><time>2026-04-12T08:57:06.958Z</time></trkpt><trkpt lat="40.7634714" lon="9.4963179"><ele>515.8333333333333</ele><time>2026-04-12T08:57:07.968Z</time></trkpt><trkpt lat="40.7634391" lon="9.4962222"><ele>515.0</ele><time>2026-04-12T08:57:08.959Z</time></trkpt><trkpt lat="40.7634115" lon="9.4961288"><ele>515.0</ele><time>2026-04-12T08:57:09.959Z</time></trkpt><trkpt lat="40.7633919" lon="9.4960366"><ele>515.0</ele><time>2026-04-12T08:57:10.951Z</time></trkpt><trkpt lat="40.7633779" lon="9.4959433"><ele>515.0</ele><time>2026-04-12T08:57:11.954Z</time></trkpt><trkpt lat="40.7633768" lon="9.495846"><ele>515.0</ele><time>2026-04-12T08:57:12.958Z</time></trkpt><trkpt lat="40.763395" lon="9.4957387"><ele>515.0</ele><time>2026-04-12T08:57:13.95Z</time></trkpt><trkpt lat="40.7634123" lon="9.4956225"><ele>515.0</ele><time>2026-04-12T08:57:14.976Z</time></trkpt><trkpt lat="40.7634188" lon="9.4954984"><ele>515.5</ele><time>2026-04-12T08:57:15.962Z</time></trkpt><trkpt lat="40.7634253" lon="9.4953863"><ele>516.0</ele><time>2026-04-12T08:57:16.947Z</time></trkpt><trkpt lat="40.7634393" lon="9.4952852"><ele>516.5</ele><time>2026-04-12T08:57:17.953Z</time></trkpt><trkpt lat="40.7634687" lon="9.4951962"><ele>517.0</ele><time>2026-04-12T08:57:18.954Z</time></trkpt><trkpt lat="40.7635189" lon="9.495114"><ele>517.5</ele><time>2026-04-12T08:57:19.943Z</time></trkpt><trkpt lat="40.7635758" lon="9.4950233"><ele>518.0</ele><time>2026-04-12T08:57:20.962Z</time></trkpt><trkpt lat="40.7636216" lon="9.4949229"><ele>518.6666666666666</ele><time>2026-04-12T08:57:21.949Z</time></trkpt><trkpt lat="40.7636427" lon="9.4948219"><ele>519.3333333333333</ele><time>2026-04-12T08:57:22.943Z</time></trkpt><trkpt lat="40.7636542" lon="9.4947257"><ele>520.0</ele><time>2026-04-12T08:57:23.953Z</time></trkpt><trkpt lat="40.7636418" lon="9.4946321"><ele>520.6666666666666</ele><time>2026-04-12T08:57:24.943Z</time></trkpt><trkpt lat="40.7636088" lon="9.4945514"><ele>521.3333333333334</ele><time>2026-04-12T08:57:25.939Z</time></trkpt><trkpt lat="40.7635669" lon="9.4944603"><ele>522.0</ele><time>2026-04-12T08:57:26.962Z</time></trkpt><trkpt lat="40.7635194" lon="9.4943738"><ele>522.0</ele><time>2026-04-12T08:57:27.935Z</time></trkpt><trkpt lat="40.7634717" lon="9.4942752"><ele>522.0</ele><time>2026-04-12T08:57:28.946Z</time></trkpt><trkpt lat="40.7634361" lon="9.4941764"><ele>522.0</ele><time>2026-04-12T08:57:29.944Z</time></trkpt><trkpt lat="40.7634188" lon="9.4940862"><ele>522.0</ele><time>2026-04-12T08:57:30.941Z</time></trkpt><trkpt lat="40.7634156" lon="9.4940023"><ele>522.0</ele><time>2026-04-12T08:57:31.944Z</time></trkpt><trkpt lat="40.763434" lon="9.4938932"><ele>522.0</ele><time>2026-04-12T08:57:32.94Z</time></trkpt><trkpt lat="40.76346" lon="9.4937682"><ele>523.3333333333334</ele><time>2026-04-12T08:57:33.944Z</time></trkpt><trkpt lat="40.7634745" lon="9.4936518"><ele>524.6666666666666</ele><time>2026-04-12T08:57:34.946Z</time></trkpt><trkpt lat="40.7634574" lon="9.4935434"><ele>526.0</ele><time>2026-04-12T08:57:35.936Z</time></trkpt><trkpt lat="40.7634162" lon="9.4934414"><ele>527.3333333333333</ele><time>2026-04-12T08:57:36.943Z</time></trkpt><trkpt lat="40.7633578" lon="9.49335"><ele>528.6666666666666</ele><time>2026-04-12T08:57:37.944Z</time></trkpt><trkpt lat="40.7632925" lon="9.4932609"><ele>530.0</ele><time>2026-04-12T08:57:38.94Z</time></trkpt><trkpt lat="40.763214" lon="9.493189"><ele>530.0</ele><time>2026-04-12T08:57:39.942Z</time></trkpt><trkpt lat="40.7631342" lon="9.4931216"><ele>530.0</ele><time>2026-04-12T08:57:40.939Z</time></trkpt><trkpt lat="40.7630721" lon="9.4930523"><ele>530.0</ele><time>2026-04-12T08:57:41.937Z</time></trkpt><trkpt lat="40.7630125" lon="9.4929676"><ele>530.0</ele><time>2026-04-12T08:57:42.948Z</time></trkpt><trkpt lat="40.7629668" lon="9.4928714"><ele>530.0</ele><time>2026-04-12T08:57:43.933Z</time></trkpt><trkpt lat="40.7629227" lon="9.4927739"><ele>530.0</ele><time>2026-04-12T08:57:44.93Z</time></trkpt><trkpt lat="40.7628793" lon="9.4926841"><ele>531.6666666666666</ele><time>2026-04-12T08:57:45.94Z</time></trkpt><trkpt lat="40.7628409" lon="9.4925968"><ele>533.3333333333333</ele><time>2026-04-12T08:57:46.931Z</time></trkpt><trkpt lat="40.7628015" lon="9.4925162"><ele>535.0</ele><time>2026-04-12T08:57:47.929Z</time></trkpt><trkpt lat="40.7627524" lon="9.4924363"><ele>536.6666666666666</ele><time>2026-04-12T08:57:48.933Z</time></trkpt><trkpt lat="40.7626776" lon="9.4923591"><ele>538.3333333333334</ele><time>2026-04-12T08:57:49.938Z</time></trkpt><trkpt lat="40.7626035" lon="9.4922758"><ele>540.0</ele><time>2026-04-12T08:57:50.939Z</time></trkpt><trkpt lat="40.7625299" lon="9.4921767"><ele>537.5</ele><time>2026-04-12T08:57:51.932Z</time></trkpt><trkpt lat="40.7624612" lon="9.4920761"><ele>535.0</ele><time>2026-04-12T08:57:52.929Z</time></trkpt><trkpt lat="40.7624017" lon="9.4919966"><ele>532.5</ele><time>2026-04-12T08:57:53.931Z</time></trkpt><trkpt lat="40.7623342" lon="9.4919337"><ele>530.0</ele><time>2026-04-12T08:57:54.939Z</time></trkpt><trkpt lat="40.7622623" lon="9.4918952"><ele>527.5</ele><time>2026-04-12T08:57:55.931Z</time></trkpt><trkpt lat="40.7621836" lon="9.491879"><ele>525.0</ele><time>2026-04-12T08:57:56.923Z</time></trkpt><trkpt lat="40.7621019" lon="9.4918837"><ele>525.0</ele><time>2026-04-12T08:57:57.931Z</time></trkpt><trkpt lat="40.7620098" lon="9.4919158"><ele>525.0</ele><time>2026-04-12T08:57:59.934Z</time></trkpt><trkpt lat="40.7619417" lon="9.4919627"><ele>525.0</ele><time>2026-04-12T08:58:05.938Z</time></trkpt><trkpt lat="40.7618772" lon="9.4920266"><ele>525.0</ele><time>2026-04-12T08:58:09.95Z</time></trkpt><trkpt lat="40.7617992" lon="9.4920963"><ele>525.0</ele><time>2026-04-12T08:58:11.928Z</time></trkpt><trkpt lat="40.7617486" lon="9.4921466"><ele>525.0</ele><time>2026-04-12T08:58:12.931Z</time></trkpt><trkpt lat="40.7616623" lon="9.4922437"><ele>521.2</ele><time>2026-04-12T08:58:14.924Z</time></trkpt><trkpt lat="40.7615905" lon="9.4923302"><ele>517.4</ele><time>2026-04-12T08:58:16.927Z</time></trkpt><trkpt lat="40.7615141" lon="9.4924196"><ele>513.6</ele><time>2026-04-12T08:58:18.921Z</time></trkpt><trkpt lat="40.7614186" lon="9.4925225"><ele>509.8</ele><time>2026-04-12T08:58:20.943Z</time></trkpt><trkpt lat="40.7613194" lon="9.4926252"><ele>506.0</ele><time>2026-04-12T08:58:22.918Z</time></trkpt><trkpt lat="40.7612108" lon="9.4927195"><ele>506.00000000000006</ele><time>2026-04-12T08:58:24.931Z</time></trkpt><trkpt lat="40.7611494" lon="9.4927669"><ele>506.0</ele><time>2026-04-12T08:58:25.913Z</time></trkpt><trkpt lat="40.7610919" lon="9.4928191"><ele>506.00000000000006</ele><time>2026-04-12T08:58:26.93Z</time></trkpt><trkpt lat="40.7610467" lon="9.4928898"><ele>506.00000000000006</ele><time>2026-04-12T08:58:27.934Z</time></trkpt><trkpt lat="40.7610048" lon="9.4929564"><ele>506.0</ele><time>2026-04-12T08:58:28.931Z</time></trkpt><trkpt lat="40.7609576" lon="9.493014"><ele>506.00000000000006</ele><time>2026-04-12T08:58:29.917Z</time></trkpt><trkpt lat="40.7609143" lon="9.4930749"><ele>506.00000000000006</ele><time>2026-04-12T08:58:30.926Z</time></trkpt><trkpt lat="40.7608703" lon="9.4931388"><ele>503.99999999999994</ele><time>2026-04-12T08:58:31.915Z</time></trkpt><trkpt lat="40.7608342" lon="9.4932102"><ele>502.0</ele><time>2026-04-12T08:58:32.924Z</time></trkpt><trkpt lat="40.7607965" lon="9.4932862"><ele>500.0</ele><time>2026-04-12T08:58:33.919Z</time></trkpt><trkpt lat="40.7607526" lon="9.4933628"><ele>498.0</ele><time>2026-04-12T08:58:34.923Z</time></trkpt><trkpt lat="40.7607109" lon="9.4934312"><ele>495.99999999999994</ele><time>2026-04-12T08:58:35.934Z</time></trkpt><trkpt lat="40.7605988" lon="9.4935301"><ele>494.0</ele><time>2026-04-12T08:58:37.911Z</time></trkpt><trkpt lat="40.7605111" lon="9.4935536"><ele>493.99999999999994</ele><time>2026-04-12T08:58:38.909Z</time></trkpt><trkpt lat="40.7604327" lon="9.4935763"><ele>494.0</ele><time>2026-04-12T08:58:39.915Z</time></trkpt><trkpt lat="40.760358" lon="9.493617"><ele>494.0</ele><time>2026-04-12T08:58:40.913Z</time></trkpt><trkpt lat="40.7602962" lon="9.4936637"><ele>494.0</ele><time>2026-04-12T08:58:41.914Z</time></trkpt><trkpt lat="40.7602336" lon="9.4937138"><ele>493.99999999999994</ele><time>2026-04-12T08:58:42.914Z</time></trkpt><trkpt lat="40.7601603" lon="9.4937547"><ele>494.0</ele><time>2026-04-12T08:58:43.93Z</time></trkpt><trkpt lat="40.7600711" lon="9.49379"><ele>487.79999999999995</ele><time>2026-04-12T08:58:44.92Z</time></trkpt><trkpt lat="40.7599743" lon="9.4938164"><ele>481.59999999999997</ele><time>2026-04-12T08:58:45.915Z</time></trkpt><trkpt lat="40.7598762" lon="9.4938476"><ele>475.4</ele><time>2026-04-12T08:58:46.915Z</time></trkpt><trkpt lat="40.759782" lon="9.4938736"><ele>469.2</ele><time>2026-04-12T08:58:47.909Z</time></trkpt><trkpt lat="40.7596808" lon="9.4939019"><ele>463.0</ele><time>2026-04-12T08:58:48.91Z</time></trkpt><trkpt lat="40.7595806" lon="9.4939263"><ele>463.0</ele><time>2026-04-12T08:58:49.919Z</time></trkpt><trkpt lat="40.7594759" lon="9.4939407"><ele>462.99999999999994</ele><time>2026-04-12T08:58:50.912Z</time></trkpt><trkpt lat="40.7593823" lon="9.4939331"><ele>462.99999999999994</ele><time>2026-04-12T08:58:51.906Z</time></trkpt><trkpt lat="40.7592881" lon="9.4939115"><ele>463.0</ele><time>2026-04-12T08:58:52.911Z</time></trkpt><trkpt lat="40.7591947" lon="9.4938962"><ele>463.0</ele><time>2026-04-12T08:58:53.913Z</time></trkpt><trkpt lat="40.7590972" lon="9.4938728"><ele>463.00000000000006</ele><time>2026-04-12T08:58:54.913Z</time></trkpt><trkpt lat="40.7590125" lon="9.4938552"><ele>463.0</ele><time>2026-04-12T08:58:55.905Z</time></trkpt><trkpt lat="40.7589297" lon="9.4938395"><ele>463.0</ele><time>2026-04-12T08:58:56.927Z</time></trkpt><trkpt lat="40.7588535" lon="9.4938216"><ele>463.0</ele><time>2026-04-12T08:58:57.915Z</time></trkpt><trkpt lat="40.7587742" lon="9.4937999"><ele>463.00000000000006</ele><time>2026-04-12T08:58:58.908Z</time></trkpt><trkpt lat="40.7586941" lon="9.4937915"><ele>463.0</ele><time>2026-04-12T08:58:59.906Z</time></trkpt><trkpt lat="40.7586165" lon="9.4937808"><ele>461.00000000000006</ele><time>2026-04-12T08:59:00.91Z</time></trkpt><trkpt lat="40.7585323" lon="9.4937818"><ele>459.0</ele><time>2026-04-12T08:59:01.939Z</time></trkpt><trkpt lat="40.7584546" lon="9.4937866"><ele>457.0</ele><time>2026-04-12T08:59:02.905Z</time></trkpt><trkpt lat="40.7583726" lon="9.4937892"><ele>455.0</ele><time>2026-04-12T08:59:03.906Z</time></trkpt><trkpt lat="40.7582878" lon="9.4937872"><ele>453.00000000000006</ele><time>2026-04-12T08:59:04.916Z</time></trkpt><trkpt lat="40.7582129" lon="9.4937913"><ele>451.0</ele><time>2026-04-12T08:59:05.921Z</time></trkpt><trkpt lat="40.758143" lon="9.4938036"><ele>451.00000000000006</ele><time>2026-04-12T08:59:06.906Z</time></trkpt><trkpt lat="40.7580706" lon="9.4938112"><ele>451.0</ele><time>2026-04-12T08:59:07.927Z</time></trkpt><trkpt lat="40.7579965" lon="9.4938282"><ele>451.0</ele><time>2026-04-12T08:59:08.905Z</time></trkpt><trkpt lat="40.7579239" lon="9.4938526"><ele>451.0</ele><time>2026-04-12T08:59:09.912Z</time></trkpt><trkpt lat="40.7578556" lon="9.493878"><ele>451.00000000000006</ele><time>2026-04-12T08:59:10.906Z</time></trkpt><trkpt lat="40.757776" lon="9.4938876"><ele>451.0</ele><time>2026-04-12T08:59:11.936Z</time></trkpt><trkpt lat="40.7576925" lon="9.4938974"><ele>449.4</ele><time>2026-04-12T08:59:12.909Z</time></trkpt><trkpt lat="40.7576164" lon="9.4939055"><ele>447.8</ele><time>2026-04-12T08:59:13.911Z</time></trkpt><trkpt lat="40.7575404" lon="9.4939133"><ele>446.19999999999993</ele><time>2026-04-12T08:59:15.022Z</time></trkpt><trkpt lat="40.7574611" lon="9.4939205"><ele>444.59999999999997</ele><time>2026-04-12T08:59:16.02Z</time></trkpt><trkpt lat="40.7573825" lon="9.4939386"><ele>443.0</ele><time>2026-04-12T08:59:17.011Z</time></trkpt><trkpt lat="40.7572356" lon="9.4939597"><ele>443.0</ele><time>2026-04-12T08:59:18.903Z</time></trkpt><trkpt lat="40.7571721" lon="9.4939442"><ele>442.99999999999994</ele><time>2026-04-12T08:59:19.903Z</time></trkpt><trkpt lat="40.7570638" lon="9.4939702"><ele>442.99999999999994</ele><time>2026-04-12T08:59:21.998Z</time></trkpt><trkpt lat="40.75701" lon="9.4940203"><ele>443.0</ele><time>2026-04-12T08:59:23.007Z</time></trkpt><trkpt lat="40.7569594" lon="9.4940966"><ele>443.0</ele><time>2026-04-12T08:59:23.999Z</time></trkpt><trkpt lat="40.7568671" lon="9.494265"><ele>445.49999999999994</ele><time>2026-04-12T08:59:26.01Z</time></trkpt><trkpt lat="40.7568352" lon="9.4943546"><ele>448.0</ele><time>2026-04-12T08:59:26.996Z</time></trkpt><trkpt lat="40.7568158" lon="9.4944595"><ele>450.5</ele><time>2026-04-12T08:59:28Z</time></trkpt><trkpt lat="40.7567984" lon="9.4945758"><ele>453.0</ele><time>2026-04-12T08:59:29.015Z</time></trkpt><trkpt lat="40.7567704" lon="9.4946836"><ele>455.49999999999994</ele><time>2026-04-12T08:59:30.003Z</time></trkpt><trkpt lat="40.7567369" lon="9.4947835"><ele>458.0</ele><time>2026-04-12T08:59:31.009Z</time></trkpt><trkpt lat="40.7567079" lon="9.4948679"><ele>458.0</ele><time>2026-04-12T08:59:32.004Z</time></trkpt><trkpt lat="40.7566652" lon="9.4950078"><ele>457.99999999999994</ele><time>2026-04-12T08:59:34.005Z</time></trkpt><trkpt lat="40.7566651" lon="9.4951604"><ele>457.99999999999994</ele><time>2026-04-12T08:59:36.004Z</time></trkpt><trkpt lat="40.7566857" lon="9.4952439"><ele>458.0</ele><time>2026-04-12T08:59:36.998Z</time></trkpt><trkpt lat="40.7567274" lon="9.4953167"><ele>458.0</ele><time>2026-04-12T08:59:38Z</time></trkpt><trkpt lat="40.75679" lon="9.4953989"><ele>461.4</ele><time>2026-04-12T08:59:38.997Z</time></trkpt><trkpt lat="40.7568554" lon="9.4954925"><ele>464.79999999999995</ele><time>2026-04-12T08:59:39.993Z</time></trkpt><trkpt lat="40.7569129" lon="9.4955931"><ele>468.2</ele><time>2026-04-12T08:59:40.998Z</time></trkpt><trkpt lat="40.7569615" lon="9.4956944"><ele>471.6</ele><time>2026-04-12T08:59:41.994Z</time></trkpt><trkpt lat="40.7570116" lon="9.4957918"><ele>475.0</ele><time>2026-04-12T08:59:43.001Z</time></trkpt><trkpt lat="40.7570534" lon="9.495886"><ele>469.50000000000006</ele><time>2026-04-12T08:59:43.997Z</time></trkpt><trkpt lat="40.7570949" lon="9.4959851"><ele>464.0</ele><time>2026-04-12T08:59:44.998Z</time></trkpt><trkpt lat="40.7571262" lon="9.4960833"><ele>458.5</ele><time>2026-04-12T08:59:45.998Z</time></trkpt><trkpt lat="40.7571556" lon="9.4961862"><ele>453.0</ele><time>2026-04-12T08:59:46.999Z</time></trkpt><trkpt lat="40.7571758" lon="9.4962927"><ele>447.50000000000006</ele><time>2026-04-12T08:59:47.997Z</time></trkpt><trkpt lat="40.7571761" lon="9.496393"><ele>442.0</ele><time>2026-04-12T08:59:49.004Z</time></trkpt><trkpt lat="40.7571722" lon="9.4964927"><ele>442.00000000000006</ele><time>2026-04-12T08:59:49.995Z</time></trkpt><trkpt lat="40.7571616" lon="9.4966015"><ele>442.0</ele><time>2026-04-12T08:59:50.986Z</time></trkpt><trkpt lat="40.7571511" lon="9.496709"><ele>442.0</ele><time>2026-04-12T08:59:52.005Z</time></trkpt><trkpt lat="40.7571298" lon="9.4968102"><ele>442.0</ele><time>2026-04-12T08:59:53.003Z</time></trkpt><trkpt lat="40.7570843" lon="9.4969006"><ele>442.00000000000006</ele><time>2026-04-12T08:59:53.997Z</time></trkpt><trkpt lat="40.7570124" lon="9.4969945"><ele>442.0</ele><time>2026-04-12T08:59:54.995Z</time></trkpt><trkpt lat="40.7569289" lon="9.4970847"><ele>449.6</ele><time>2026-04-12T08:59:56.002Z</time></trkpt><trkpt lat="40.7568579" lon="9.4971825"><ele>457.20000000000005</ele><time>2026-04-12T08:59:56.99Z</time></trkpt><trkpt lat="40.756816" lon="9.4972847"><ele>464.8</ele><time>2026-04-12T08:59:58.008Z</time></trkpt><trkpt lat="40.7567886" lon="9.4973975"><ele>472.4</ele><time>2026-04-12T08:59:58.983Z</time></trkpt><trkpt lat="40.7567667" lon="9.4975238"><ele>480.0</ele><time>2026-04-12T09:00:00Z</time></trkpt><trkpt lat="40.7567565" lon="9.4976602"><ele>480.0</ele><time>2026-04-12T09:00:00.993Z</time></trkpt><trkpt lat="40.7567594" lon="9.4977917"><ele>480.0</ele><time>2026-04-12T09:00:01.99Z</time></trkpt><trkpt lat="40.7567697" lon="9.497911"><ele>480.0</ele><time>2026-04-12T09:00:02.993Z</time></trkpt><trkpt lat="40.7567763" lon="9.4980213"><ele>480.0</ele><time>2026-04-12T09:00:04.004Z</time></trkpt><trkpt lat="40.7567727" lon="9.498128"><ele>480.0</ele><time>2026-04-12T09:00:05.004Z</time></trkpt><trkpt lat="40.7567609" lon="9.4982366"><ele>480.0</ele><time>2026-04-12T09:00:05.99Z</time></trkpt><trkpt lat="40.7567349" lon="9.4983454"><ele>479.5</ele><time>2026-04-12T09:00:07.008Z</time></trkpt><trkpt lat="40.7567013" lon="9.4984505"><ele>479.0</ele><time>2026-04-12T09:00:07.989Z</time></trkpt><trkpt lat="40.7566694" lon="9.4985512"><ele>478.5</ele><time>2026-04-12T09:00:08.989Z</time></trkpt><trkpt lat="40.7566368" lon="9.4986585"><ele>478.0</ele><time>2026-04-12T09:00:09.998Z</time></trkpt><trkpt lat="40.7566129" lon="9.498765"><ele>477.5</ele><time>2026-04-12T09:00:10.982Z</time></trkpt><trkpt lat="40.7565928" lon="9.4988707"><ele>477.0</ele><time>2026-04-12T09:00:11.994Z</time></trkpt><trkpt lat="40.7565671" lon="9.4989769"><ele>476.3333333333333</ele><time>2026-04-12T09:00:13.002Z</time></trkpt><trkpt lat="40.7565468" lon="9.4990772"><ele>475.66666666666663</ele><time>2026-04-12T09:00:13.996Z</time></trkpt><trkpt lat="40.7565347" lon="9.4991741"><ele>475.0</ele><time>2026-04-12T09:00:14.992Z</time></trkpt><trkpt lat="40.75653" lon="9.4992808"><ele>474.3333333333333</ele><time>2026-04-12T09:00:15.995Z</time></trkpt><trkpt lat="40.7565458" lon="9.4993927"><ele>473.66666666666663</ele><time>2026-04-12T09:00:16.992Z</time></trkpt><trkpt lat="40.75657" lon="9.4995157"><ele>473.0</ele><time>2026-04-12T09:00:17.986Z</time></trkpt><trkpt lat="40.756599" lon="9.4996458"><ele>474.59999999999997</ele><time>2026-04-12T09:00:18.989Z</time></trkpt><trkpt lat="40.7566391" lon="9.499789"><ele>476.19999999999993</ele><time>2026-04-12T09:00:19.996Z</time></trkpt><trkpt lat="40.756692" lon="9.4999319"><ele>477.8</ele><time>2026-04-12T09:00:20.979Z</time></trkpt><trkpt lat="40.7567498" lon="9.5000558"><ele>479.4</ele><time>2026-04-12T09:00:21.991Z</time></trkpt><trkpt lat="40.7568038" lon="9.5001465"><ele>481.0</ele><time>2026-04-12T09:00:22.98Z</time></trkpt><trkpt lat="40.7568424" lon="9.5002255"><ele>481.33333333333337</ele><time>2026-04-12T09:00:23.981Z</time></trkpt><trkpt lat="40.7568798" lon="9.5003661"><ele>481.6666666666667</ele><time>2026-04-12T09:00:25.991Z</time></trkpt><trkpt lat="40.7568633" lon="9.500452"><ele>482.0</ele><time>2026-04-12T09:00:26.995Z</time></trkpt><trkpt lat="40.7568261" lon="9.5005444"><ele>482.33333333333337</ele><time>2026-04-12T09:00:27.996Z</time></trkpt><trkpt lat="40.7567809" lon="9.5006437"><ele>482.6666666666667</ele><time>2026-04-12T09:00:28.997Z</time></trkpt><trkpt lat="40.7567334" lon="9.5007278"><ele>483.0</ele><time>2026-04-12T09:00:29.988Z</time></trkpt><trkpt lat="40.7566705" lon="9.5007957"><ele>483.0</ele><time>2026-04-12T09:00:31.006Z</time></trkpt><trkpt lat="40.7566011" lon="9.5008586"><ele>483.0</ele><time>2026-04-12T09:00:31.981Z</time></trkpt><trkpt lat="40.7565304" lon="9.500923"><ele>483.0</ele><time>2026-04-12T09:00:33.013Z</time></trkpt><trkpt lat="40.7564592" lon="9.5009813"><ele>483.0</ele><time>2026-04-12T09:00:33.995Z</time></trkpt><trkpt lat="40.7563918" lon="9.5010207"><ele>483.0</ele><time>2026-04-12T09:00:34.993Z</time></trkpt><trkpt lat="40.7563213" lon="9.5010265"><ele>483.0</ele><time>2026-04-12T09:00:35.988Z</time></trkpt><trkpt lat="40.7562496" lon="9.5010175"><ele>483.0</ele><time>2026-04-12T09:00:36.984Z</time></trkpt><trkpt lat="40.7561727" lon="9.5009503"><ele>483.0</ele><time>2026-04-12T09:00:38.99Z</time></trkpt><trkpt lat="40.7561727" lon="9.5008406"><ele>483.0</ele><time>2026-04-12T09:10:05.005Z</time></trkpt><trkpt lat="40.7561453" lon="9.5007505"><ele>483.0</ele><time>2026-04-12T09:10:06.997Z</time></trkpt><trkpt lat="40.7561268" lon="9.5006702"><ele>483.0</ele><time>2026-04-12T09:10:09.011Z</time></trkpt><trkpt lat="40.7561188" lon="9.5005711"><ele>483.0</ele><time>2026-04-12T09:10:10.99Z</time></trkpt><trkpt lat="40.7561098" lon="9.50046"><ele>482.59999999999997</ele><time>2026-04-12T09:10:12.987Z</time></trkpt><trkpt lat="40.756113" lon="9.5003142"><ele>482.19999999999993</ele><time>2026-04-12T09:10:14.987Z</time></trkpt><trkpt lat="40.7560844" lon="9.5001736"><ele>481.8</ele><time>2026-04-12T09:10:16.995Z</time></trkpt><trkpt lat="40.7560015" lon="9.5000487"><ele>481.4</ele><time>2026-04-12T09:10:18.985Z</time></trkpt><trkpt lat="40.7559522" lon="9.4999919"><ele>481.0</ele><time>2026-04-12T09:10:19.993Z</time></trkpt><trkpt lat="40.7558987" lon="9.4999321"><ele>484.00000000000006</ele><time>2026-04-12T09:10:20.984Z</time></trkpt><trkpt lat="40.7558628" lon="9.4998531"><ele>487.0</ele><time>2026-04-12T09:10:21.983Z</time></trkpt><trkpt lat="40.7558328" lon="9.4997571"><ele>490.0</ele><time>2026-04-12T09:10:22.982Z</time></trkpt><trkpt lat="40.7557999" lon="9.4996511"><ele>493.0</ele><time>2026-04-12T09:10:23.996Z</time></trkpt><trkpt lat="40.7557674" lon="9.4995435"><ele>496.00000000000006</ele><time>2026-04-12T09:10:24.983Z</time></trkpt><trkpt lat="40.755737" lon="9.4994307"><ele>499.0</ele><time>2026-04-12T09:10:25.978Z</time></trkpt><trkpt lat="40.7557067" lon="9.4993186"><ele>502.2</ele><time>2026-04-12T09:10:26.978Z</time></trkpt><trkpt lat="40.7556783" lon="9.4992021"><ele>505.4</ele><time>2026-04-12T09:10:27.989Z</time></trkpt><trkpt lat="40.7556517" lon="9.4990851"><ele>508.6</ele><time>2026-04-12T09:10:28.982Z</time></trkpt><trkpt lat="40.7556271" lon="9.4989686"><ele>511.8</ele><time>2026-04-12T09:10:29.984Z</time></trkpt><trkpt lat="40.7556113" lon="9.4988563"><ele>515.0</ele><time>2026-04-12T09:10:30.98Z</time></trkpt><trkpt lat="40.755598" lon="9.4987432"><ele>516.3333333333333</ele><time>2026-04-12T09:10:31.974Z</time></trkpt><trkpt lat="40.7555883" lon="9.4986276"><ele>517.6666666666666</ele><time>2026-04-12T09:10:32.978Z</time></trkpt><trkpt lat="40.7555794" lon="9.4985128"><ele>519.0</ele><time>2026-04-12T09:10:33.972Z</time></trkpt><trkpt lat="40.7555728" lon="9.4983982"><ele>520.3333333333334</ele><time>2026-04-12T09:10:34.968Z</time></trkpt><trkpt lat="40.7555705" lon="9.498297"><ele>521.6666666666667</ele><time>2026-04-12T09:10:35.978Z</time></trkpt><trkpt lat="40.7555696" lon="9.4982088"><ele>523.0</ele><time>2026-04-12T09:10:36.965Z</time></trkpt><trkpt lat="40.7555566" lon="9.4980589"><ele>522.4</ele><time>2026-04-12T09:10:38.967Z</time></trkpt><trkpt lat="40.7555274" lon="9.4979144"><ele>521.8</ele><time>2026-04-12T09:10:40.97Z</time></trkpt><trkpt lat="40.7555108" lon="9.4978317"><ele>521.2</ele><time>2026-04-12T09:10:41.965Z</time></trkpt><trkpt lat="40.7554923" lon="9.4977433"><ele>520.6</ele><time>2026-04-12T09:10:42.978Z</time></trkpt><trkpt lat="40.7554692" lon="9.4975914"><ele>520.0</ele><time>2026-04-12T09:10:44.978Z</time></trkpt><trkpt lat="40.7554481" lon="9.4974578"><ele>520.0</ele><time>2026-04-12T09:10:46.962Z</time></trkpt><trkpt lat="40.7553827" lon="9.4973199"><ele>520.0</ele><time>2026-04-12T09:10:48.968Z</time></trkpt><trkpt lat="40.7553363" lon="9.4972544"><ele>520.0</ele><time>2026-04-12T09:10:49.969Z</time></trkpt><trkpt lat="40.7552811" lon="9.4971912"><ele>520.0</ele><time>2026-04-12T09:10:50.97Z</time></trkpt><trkpt lat="40.7552177" lon="9.4971363"><ele>520.0</ele><time>2026-04-12T09:10:51.959Z</time></trkpt><trkpt lat="40.7551586" lon="9.4970721"><ele>520.0</ele><time>2026-04-12T09:10:52.983Z</time></trkpt><trkpt lat="40.7551071" lon="9.4970084"><ele>523.5</ele><time>2026-04-12T09:10:53.98Z</time></trkpt><trkpt lat="40.7550574" lon="9.4968588"><ele>527.0</ele><time>2026-04-12T09:10:55.981Z</time></trkpt><trkpt lat="40.7550717" lon="9.4967591"><ele>530.5</ele><time>2026-04-12T09:10:56.964Z</time></trkpt><trkpt lat="40.7550865" lon="9.4966546"><ele>534.0</ele><time>2026-04-12T09:10:57.972Z</time></trkpt><trkpt lat="40.7551008" lon="9.4965466"><ele>537.5</ele><time>2026-04-12T09:10:58.96Z</time></trkpt><trkpt lat="40.7551186" lon="9.4964562"><ele>541.0</ele><time>2026-04-12T09:10:59.968Z</time></trkpt><trkpt lat="40.7551262" lon="9.496322"><ele>541.0</ele><time>2026-04-12T09:11:01.982Z</time></trkpt><trkpt lat="40.755052" lon="9.4962484"><ele>541.0</ele><time>2026-04-12T09:11:03.964Z</time></trkpt><trkpt lat="40.7549879" lon="9.4962159"><ele>541.0</ele><time>2026-04-12T09:11:04.953Z</time></trkpt><trkpt lat="40.7549109" lon="9.4961999"><ele>541.0</ele><time>2026-04-12T09:11:05.956Z</time></trkpt><trkpt lat="40.7548404" lon="9.4962111"><ele>541.0</ele><time>2026-04-12T09:11:06.967Z</time></trkpt><trkpt lat="40.7547877" lon="9.4962573"><ele>541.0</ele><time>2026-04-12T09:11:07.974Z</time></trkpt><trkpt lat="40.754668" lon="9.4963403"><ele>541.0</ele><time>2026-04-12T09:11:09.938Z</time></trkpt><trkpt lat="40.7546039" lon="9.4963945"><ele>541.0</ele><time>2026-04-12T09:11:10.948Z</time></trkpt><trkpt lat="40.7545377" lon="9.4964451"><ele>541.0</ele><time>2026-04-12T09:11:11.961Z</time></trkpt><trkpt lat="40.754474" lon="9.4964987"><ele>541.0</ele><time>2026-04-12T09:11:12.937Z</time></trkpt><trkpt lat="40.7544109" lon="9.4965499"><ele>541.0</ele><time>2026-04-12T09:11:13.952Z</time></trkpt><trkpt lat="40.7543547" lon="9.4965969"><ele>541.0</ele><time>2026-04-12T09:11:14.949Z</time></trkpt><trkpt lat="40.754245" lon="9.4966488"><ele>542.6666666666667</ele><time>2026-04-12T09:11:16.96Z</time></trkpt><trkpt lat="40.7541792" lon="9.4966572"><ele>544.3333333333334</ele><time>2026-04-12T09:11:17.939Z</time></trkpt><trkpt lat="40.7541043" lon="9.4966496"><ele>546.0</ele><time>2026-04-12T09:11:18.939Z</time></trkpt><trkpt lat="40.7540303" lon="9.496623"><ele>547.6666666666666</ele><time>2026-04-12T09:11:19.962Z</time></trkpt><trkpt lat="40.7539566" lon="9.4965915"><ele>549.3333333333333</ele><time>2026-04-12T09:11:20.937Z</time></trkpt><trkpt lat="40.7538823" lon="9.496562"><ele>551.0</ele><time>2026-04-12T09:11:21.974Z</time></trkpt><trkpt lat="40.7538041" lon="9.4965349"><ele>551.0</ele><time>2026-04-12T09:11:22.939Z</time></trkpt><trkpt lat="40.7537324" lon="9.4965116"><ele>551.0</ele><time>2026-04-12T09:11:23.942Z</time></trkpt><trkpt lat="40.7536301" lon="9.4964583"><ele>551.0</ele><time>2026-04-12T09:11:25.942Z</time></trkpt><trkpt lat="40.7535978" lon="9.496383"><ele>551.0</ele><time>2026-04-12T09:11:27.944Z</time></trkpt><trkpt lat="40.7536629" lon="9.4963094"><ele>551.0</ele><time>2026-04-12T09:11:29.934Z</time></trkpt><trkpt lat="40.7537711" lon="9.4962192"><ele>553.0</ele><time>2026-04-12T09:11:31.925Z</time></trkpt><trkpt lat="40.7538143" lon="9.4961515"><ele>555.0</ele><time>2026-04-12T09:11:32.929Z</time></trkpt><trkpt lat="40.7538567" lon="9.4960741"><ele>557.0</ele><time>2026-04-12T09:11:33.937Z</time></trkpt><trkpt lat="40.7539028" lon="9.4959892"><ele>559.0</ele><time>2026-04-12T09:11:34.925Z</time></trkpt><trkpt lat="40.7539405" lon="9.49589"><ele>561.0</ele><time>2026-04-12T09:11:35.915Z</time></trkpt><trkpt lat="40.7539685" lon="9.495782"><ele>563.0</ele><time>2026-04-12T09:11:36.918Z</time></trkpt><trkpt lat="40.7540007" lon="9.4956714"><ele>563.0</ele><time>2026-04-12T09:11:37.92Z</time></trkpt><trkpt lat="40.7540383" lon="9.4955634"><ele>563.0</ele><time>2026-04-12T09:11:38.924Z</time></trkpt><trkpt lat="40.7540718" lon="9.4954579"><ele>563.0</ele><time>2026-04-12T09:11:39.925Z</time></trkpt><trkpt lat="40.7541003" lon="9.4953507"><ele>563.0</ele><time>2026-04-12T09:11:40.918Z</time></trkpt><trkpt lat="40.7541338" lon="9.495249"><ele>563.0</ele><time>2026-04-12T09:11:41.912Z</time></trkpt><trkpt lat="40.7541634" lon="9.4951447"><ele>563.0</ele><time>2026-04-12T09:11:42.927Z</time></trkpt><trkpt lat="40.7541925" lon="9.4950543"><ele>566.3333333333333</ele><time>2026-04-12T09:11:43.914Z</time></trkpt><trkpt lat="40.7542288" lon="9.4949208"><ele>569.6666666666666</ele><time>2026-04-12T09:11:45.924Z</time></trkpt><trkpt lat="40.7541906" lon="9.494831"><ele>573.0</ele><time>2026-04-12T09:11:47.93Z</time></trkpt><trkpt lat="40.7541159" lon="9.4948834"><ele>576.3333333333334</ele><time>2026-04-12T09:11:49.912Z</time></trkpt><trkpt lat="40.754064" lon="9.4949391"><ele>579.6666666666667</ele><time>2026-04-12T09:11:50.911Z</time></trkpt><trkpt lat="40.7540013" lon="9.4950063"><ele>583.0</ele><time>2026-04-12T09:11:51.909Z</time></trkpt><trkpt lat="40.7539304" lon="9.4950745"><ele>583.0</ele><time>2026-04-12T09:11:52.916Z</time></trkpt><trkpt lat="40.7538601" lon="9.4951405"><ele>583.0</ele><time>2026-04-12T09:11:53.9Z</time></trkpt><trkpt lat="40.7537815" lon="9.4952109"><ele>583.0</ele><time>2026-04-12T09:11:54.903Z</time></trkpt><trkpt lat="40.7536968" lon="9.4952791"><ele>583.0</ele><time>2026-04-12T09:11:55.904Z</time></trkpt><trkpt lat="40.7536038" lon="9.4953398"><ele>583.0</ele><time>2026-04-12T09:11:56.909Z</time></trkpt><trkpt lat="40.753502" lon="9.4954006"><ele>583.4</ele><time>2026-04-12T09:11:58.004Z</time></trkpt><trkpt lat="40.7533979" lon="9.4954609"><ele>583.8</ele><time>2026-04-12T09:11:58.999Z</time></trkpt><trkpt lat="40.753296" lon="9.4955151"><ele>584.2</ele><time>2026-04-12T09:12:00.004Z</time></trkpt><trkpt lat="40.753199" lon="9.4955684"><ele>584.6</ele><time>2026-04-12T09:12:01.015Z</time></trkpt><trkpt lat="40.7531056" lon="9.4956205"><ele>585.0</ele><time>2026-04-12T09:12:01.996Z</time></trkpt><trkpt lat="40.7530185" lon="9.4956767"><ele>585.0</ele><time>2026-04-12T09:12:03Z</time></trkpt><trkpt lat="40.752938" lon="9.495735"><ele>585.0</ele><time>2026-04-12T09:12:03.992Z</time></trkpt><trkpt lat="40.7528566" lon="9.4957926"><ele>585.0</ele><time>2026-04-12T09:12:04.989Z</time></trkpt><trkpt lat="40.7527793" lon="9.4958518"><ele>585.0</ele><time>2026-04-12T09:12:05.99Z</time></trkpt><trkpt lat="40.7527017" lon="9.4959071"><ele>585.0</ele><time>2026-04-12T09:12:06.99Z</time></trkpt><trkpt lat="40.7526298" lon="9.4959531"><ele>585.0</ele><time>2026-04-12T09:12:07.991Z</time></trkpt><trkpt lat="40.7525559" lon="9.4959828"><ele>588.2</ele><time>2026-04-12T09:12:09.011Z</time></trkpt><trkpt lat="40.7524371" lon="9.4959884"><ele>591.4</ele><time>2026-04-12T09:12:10.996Z</time></trkpt><trkpt lat="40.7523341" lon="9.4958965"><ele>594.6</ele><time>2026-04-12T09:12:12.999Z</time></trkpt><trkpt lat="40.7522777" lon="9.4958146"><ele>597.8</ele><time>2026-04-12T09:12:13.987Z</time></trkpt><trkpt lat="40.7522164" lon="9.4957264"><ele>601.0</ele><time>2026-04-12T09:12:14.992Z</time></trkpt><trkpt lat="40.7521567" lon="9.4956406"><ele>601.0</ele><time>2026-04-12T09:12:15.991Z</time></trkpt><trkpt lat="40.7520998" lon="9.4955603"><ele>601.0</ele><time>2026-04-12T09:12:16.979Z</time></trkpt><trkpt lat="40.752043" lon="9.4954784"><ele>601.0</ele><time>2026-04-12T09:12:17.99Z</time></trkpt><trkpt lat="40.7519856" lon="9.4954025"><ele>601.0</ele><time>2026-04-12T09:12:18.981Z</time></trkpt><trkpt lat="40.7519326" lon="9.4953316"><ele>601.0</ele><time>2026-04-12T09:12:19.988Z</time></trkpt><trkpt lat="40.7518794" lon="9.4952612"><ele>601.0</ele><time>2026-04-12T09:12:20.987Z</time></trkpt><trkpt lat="40.7518308" lon="9.4951816"><ele>601.8333333333334</ele><time>2026-04-12T09:12:21.982Z</time></trkpt><trkpt lat="40.7518024" lon="9.4950872"><ele>602.6666666666667</ele><time>2026-04-12T09:12:22.995Z</time></trkpt><trkpt lat="40.751791" lon="9.4949808"><ele>603.5</ele><time>2026-04-12T09:12:24.003Z</time></trkpt><trkpt lat="40.7517984" lon="9.4948937"><ele>604.3333333333334</ele><time>2026-04-12T09:12:24.976Z</time></trkpt><trkpt lat="40.7518434" lon="9.4947509"><ele>605.1666666666666</ele><time>2026-04-12T09:12:26.987Z</time></trkpt><trkpt lat="40.7519018" lon="9.4946725"><ele>606.0</ele><time>2026-04-12T09:12:29.982Z</time></trkpt><trkpt lat="40.7519695" lon="9.4945727"><ele>608.6666666666666</ele><time>2026-04-12T09:12:31.978Z</time></trkpt><trkpt lat="40.752019" lon="9.4945027"><ele>611.3333333333334</ele><time>2026-04-12T09:12:32.987Z</time></trkpt><trkpt lat="40.7520731" lon="9.4944287"><ele>614.0</ele><time>2026-04-12T09:12:33.972Z</time></trkpt><trkpt lat="40.7521328" lon="9.4943503"><ele>616.6666666666667</ele><time>2026-04-12T09:12:34.976Z</time></trkpt><trkpt lat="40.7521974" lon="9.4942739"><ele>619.3333333333334</ele><time>2026-04-12T09:12:35.989Z</time></trkpt><trkpt lat="40.7522621" lon="9.4942002"><ele>622.0</ele><time>2026-04-12T09:12:36.974Z</time></trkpt><trkpt lat="40.7523267" lon="9.4941179"><ele>622.0</ele><time>2026-04-12T09:12:38.017Z</time></trkpt><trkpt lat="40.7523904" lon="9.4940267"><ele>622.0</ele><time>2026-04-12T09:12:38.977Z</time></trkpt><trkpt lat="40.752454" lon="9.4939347"><ele>622.0</ele><time>2026-04-12T09:12:39.985Z</time></trkpt><trkpt lat="40.7525243" lon="9.4938409"><ele>622.0</ele><time>2026-04-12T09:12:40.968Z</time></trkpt><trkpt lat="40.7525937" lon="9.4937477"><ele>622.0</ele><time>2026-04-12T09:12:41.971Z</time></trkpt><trkpt lat="40.7526672" lon="9.4936572"><ele>624.0</ele><time>2026-04-12T09:12:42.972Z</time></trkpt><trkpt lat="40.7527455" lon="9.4935642"><ele>626.0</ele><time>2026-04-12T09:12:43.979Z</time></trkpt><trkpt lat="40.7528234" lon="9.4934704"><ele>628.0</ele><time>2026-04-12T09:12:44.967Z</time></trkpt><trkpt lat="40.7529009" lon="9.4933721"><ele>630.0</ele><time>2026-04-12T09:12:45.975Z</time></trkpt><trkpt lat="40.7529764" lon="9.4932756"><ele>632.0</ele><time>2026-04-12T09:12:46.966Z</time></trkpt><trkpt lat="40.7530489" lon="9.4931789"><ele>632.0</ele><time>2026-04-12T09:12:47.98Z</time></trkpt><trkpt lat="40.7531228" lon="9.4930812"><ele>632.0</ele><time>2026-04-12T09:12:48.972Z</time></trkpt><trkpt lat="40.7532001" lon="9.4929858"><ele>632.0</ele><time>2026-04-12T09:12:49.964Z</time></trkpt><trkpt lat="40.7532676" lon="9.4928846"><ele>632.0</ele><time>2026-04-12T09:12:50.968Z</time></trkpt><trkpt lat="40.7533205" lon="9.4927867"><ele>632.0</ele><time>2026-04-12T09:12:51.972Z</time></trkpt><trkpt lat="40.7533572" lon="9.4926715"><ele>634.2</ele><time>2026-04-12T09:12:52.968Z</time></trkpt><trkpt lat="40.7533862" lon="9.4925471"><ele>636.4000000000001</ele><time>2026-04-12T09:12:53.972Z</time></trkpt><trkpt lat="40.7534075" lon="9.4924167"><ele>638.5999999999999</ele><time>2026-04-12T09:12:54.968Z</time></trkpt><trkpt lat="40.7534235" lon="9.4922831"><ele>640.8</ele><time>2026-04-12T09:12:55.966Z</time></trkpt><trkpt lat="40.7534342" lon="9.4921483"><ele>643.0</ele><time>2026-04-12T09:12:56.968Z</time></trkpt><trkpt lat="40.7534468" lon="9.4920168"><ele>644.5999999999999</ele><time>2026-04-12T09:12:57.96Z</time></trkpt><trkpt lat="40.7534499" lon="9.4918916"><ele>646.1999999999999</ele><time>2026-04-12T09:12:58.975Z</time></trkpt><trkpt lat="40.7534432" lon="9.4917659"><ele>647.8</ele><time>2026-04-12T09:12:59.967Z</time></trkpt><trkpt lat="40.7534281" lon="9.4916417"><ele>649.4</ele><time>2026-04-12T09:13:00.958Z</time></trkpt><trkpt lat="40.7534084" lon="9.491516"><ele>651.0</ele><time>2026-04-12T09:13:01.967Z</time></trkpt><trkpt lat="40.7533831" lon="9.4913829"><ele>651.0</ele><time>2026-04-12T09:13:02.959Z</time></trkpt><trkpt lat="40.7533551" lon="9.4912675"><ele>651.0</ele><time>2026-04-12T09:13:03.961Z</time></trkpt><trkpt lat="40.7533265" lon="9.4911779"><ele>651.0</ele><time>2026-04-12T09:13:04.955Z</time></trkpt><trkpt lat="40.7532419" lon="9.4910774"><ele>651.0</ele><time>2026-04-12T09:13:06.962Z</time></trkpt><trkpt lat="40.7531803" lon="9.4910602"><ele>651.0</ele><time>2026-04-12T09:13:07.959Z</time></trkpt><trkpt lat="40.7530617" lon="9.4910736"><ele>651.6666666666666</ele><time>2026-04-12T09:13:09.957Z</time></trkpt><trkpt lat="40.7529947" lon="9.4910882"><ele>652.3333333333334</ele><time>2026-04-12T09:13:10.966Z</time></trkpt><trkpt lat="40.7529184" lon="9.4911024"><ele>653.0</ele><time>2026-04-12T09:13:11.961Z</time></trkpt><trkpt lat="40.7528313" lon="9.4911121"><ele>653.6666666666667</ele><time>2026-04-12T09:13:12.954Z</time></trkpt><trkpt lat="40.7527318" lon="9.4911189"><ele>654.3333333333334</ele><time>2026-04-12T09:13:13.97Z</time></trkpt><trkpt lat="40.7526271" lon="9.4911167"><ele>655.0</ele><time>2026-04-12T09:13:14.956Z</time></trkpt><trkpt lat="40.7525364" lon="9.4910928"><ele>656.5714285714286</ele><time>2026-04-12T09:13:15.967Z</time></trkpt><trkpt lat="40.7524717" lon="9.4910622"><ele>658.1428571428571</ele><time>2026-04-12T09:13:16.963Z</time></trkpt><trkpt lat="40.7524199" lon="9.4910059"><ele>659.7142857142858</ele><time>2026-04-12T09:13:17.946Z</time></trkpt><trkpt lat="40.7524209" lon="9.4909138"><ele>661.2857142857142</ele><time>2026-04-12T09:13:18.953Z</time></trkpt><trkpt lat="40.7524422" lon="9.4908201"><ele>662.8571428571428</ele><time>2026-04-12T09:13:19.957Z</time></trkpt><trkpt lat="40.7524771" lon="9.4907265"><ele>664.4285714285714</ele><time>2026-04-12T09:13:20.947Z</time></trkpt><trkpt lat="40.7525243" lon="9.4906261"><ele>666.0</ele><time>2026-04-12T09:13:21.957Z</time></trkpt><trkpt lat="40.7525764" lon="9.4905029"><ele>666.75</ele><time>2026-04-12T09:13:22.945Z</time></trkpt><trkpt lat="40.7526303" lon="9.4903614"><ele>667.5</ele><time>2026-04-12T09:13:23.965Z</time></trkpt><trkpt lat="40.7526819" lon="9.4902135"><ele>668.25</ele><time>2026-04-12T09:13:24.946Z</time></trkpt><trkpt lat="40.7527328" lon="9.4900631"><ele>669.0</ele><time>2026-04-12T09:13:25.943Z</time></trkpt><trkpt lat="40.7527732" lon="9.4899094"><ele>669.0</ele><time>2026-04-12T09:13:26.959Z</time></trkpt><trkpt lat="40.7528031" lon="9.4897628"><ele>669.0</ele><time>2026-04-12T09:13:27.952Z</time></trkpt><trkpt lat="40.7528298" lon="9.4896154"><ele>669.0</ele><time>2026-04-12T09:13:28.943Z</time></trkpt><trkpt lat="40.7528517" lon="9.4894659"><ele>669.0</ele><time>2026-04-12T09:13:29.968Z</time></trkpt><trkpt lat="40.7528678" lon="9.4893144"><ele>671.6</ele><time>2026-04-12T09:13:30.95Z</time></trkpt><trkpt lat="40.7528841" lon="9.4891642"><ele>674.2</ele><time>2026-04-12T09:13:31.941Z</time></trkpt><trkpt lat="40.7529071" lon="9.4890225"><ele>676.8000000000001</ele><time>2026-04-12T09:13:32.961Z</time></trkpt><trkpt lat="40.7529303" lon="9.4888999"><ele>679.4000000000001</ele><time>2026-04-12T09:13:33.947Z</time></trkpt><trkpt lat="40.7529503" lon="9.4887848"><ele>682.0</ele><time>2026-04-12T09:13:34.955Z</time></trkpt><trkpt lat="40.7529663" lon="9.488669"><ele>683.2</ele><time>2026-04-12T09:13:35.955Z</time></trkpt><trkpt lat="40.7529849" lon="9.4885459"><ele>684.4000000000001</ele><time>2026-04-12T09:13:36.961Z</time></trkpt><trkpt lat="40.7530048" lon="9.4884202"><ele>685.5999999999999</ele><time>2026-04-12T09:13:37.953Z</time></trkpt><trkpt lat="40.7530179" lon="9.4882965"><ele>686.8</ele><time>2026-04-12T09:13:38.943Z</time></trkpt><trkpt lat="40.7530107" lon="9.4881754"><ele>688.0</ele><time>2026-04-12T09:13:39.941Z</time></trkpt><trkpt lat="40.7529889" lon="9.4880629"><ele>688.0</ele><time>2026-04-12T09:13:40.937Z</time></trkpt><trkpt lat="40.7529602" lon="9.4879575"><ele>688.0</ele><time>2026-04-12T09:13:41.943Z</time></trkpt><trkpt lat="40.7529233" lon="9.4878441"><ele>688.0</ele><time>2026-04-12T09:13:42.941Z</time></trkpt><trkpt lat="40.7528928" lon="9.4877317"><ele>688.0</ele><time>2026-04-12T09:13:43.954Z</time></trkpt><trkpt lat="40.7528696" lon="9.48762"><ele>688.0</ele><time>2026-04-12T09:13:44.94Z</time></trkpt><trkpt lat="40.7528481" lon="9.4875087"><ele>688.0</ele><time>2026-04-12T09:13:45.937Z</time></trkpt><trkpt lat="40.7528222" lon="9.4874058"><ele>689.3333333333334</ele><time>2026-04-12T09:13:46.944Z</time></trkpt><trkpt lat="40.7527822" lon="9.4872798"><ele>690.6666666666667</ele><time>2026-04-12T09:13:48.933Z</time></trkpt><trkpt lat="40.7527526" lon="9.4871973"><ele>692.0</ele><time>2026-04-12T09:13:51.936Z</time></trkpt><trkpt lat="40.7527369" lon="9.4870819"><ele>693.3333333333334</ele><time>2026-04-12T09:15:48.991Z</time></trkpt><trkpt lat="40.7527269" lon="9.4869362"><ele>694.6666666666666</ele><time>2026-04-12T09:15:50.987Z</time></trkpt><trkpt lat="40.7527154" lon="9.4868378"><ele>696.0</ele><time>2026-04-12T09:15:52.011Z</time></trkpt><trkpt lat="40.752704" lon="9.4867349"><ele>696.0</ele><time>2026-04-12T09:15:53.013Z</time></trkpt><trkpt lat="40.752698" lon="9.4866235"><ele>696.0</ele><time>2026-04-12T09:15:53.983Z</time></trkpt><trkpt lat="40.7527015" lon="9.4865017"><ele>696.0</ele><time>2026-04-12T09:15:54.979Z</time></trkpt><trkpt lat="40.7527121" lon="9.4863725"><ele>696.0</ele><time>2026-04-12T09:15:55.991Z</time></trkpt><trkpt lat="40.7527306" lon="9.4862359"><ele>696.0</ele><time>2026-04-12T09:15:56.985Z</time></trkpt><trkpt lat="40.7527521" lon="9.4860966"><ele>700.4</ele><time>2026-04-12T09:15:58.026Z</time></trkpt><trkpt lat="40.7527735" lon="9.4859611"><ele>704.8</ele><time>2026-04-12T09:15:58.98Z</time></trkpt><trkpt lat="40.7527996" lon="9.4858266"><ele>709.1999999999999</ele><time>2026-04-12T09:15:59.986Z</time></trkpt><trkpt lat="40.7528275" lon="9.4856989"><ele>713.5999999999999</ele><time>2026-04-12T09:16:00.986Z</time></trkpt><trkpt lat="40.7528568" lon="9.4855702"><ele>718.0</ele><time>2026-04-12T09:16:01.989Z</time></trkpt><trkpt lat="40.7528804" lon="9.4854423"><ele>719.3333333333334</ele><time>2026-04-12T09:16:02.977Z</time></trkpt><trkpt lat="40.7529008" lon="9.4853177"><ele>720.6666666666667</ele><time>2026-04-12T09:16:03.973Z</time></trkpt><trkpt lat="40.7529156" lon="9.4852018"><ele>722.0</ele><time>2026-04-12T09:16:04.978Z</time></trkpt><trkpt lat="40.7529146" lon="9.4850898"><ele>723.3333333333334</ele><time>2026-04-12T09:16:05.978Z</time></trkpt><trkpt lat="40.7529066" lon="9.4849864"><ele>724.6666666666666</ele><time>2026-04-12T09:16:06.977Z</time></trkpt><trkpt lat="40.7528805" lon="9.4848795"><ele>726.0</ele><time>2026-04-12T09:16:07.976Z</time></trkpt><trkpt lat="40.7528415" lon="9.4847634"><ele>726.0</ele><time>2026-04-12T09:16:08.977Z</time></trkpt><trkpt lat="40.75279" lon="9.4846435"><ele>726.0</ele><time>2026-04-12T09:16:09.973Z</time></trkpt><trkpt lat="40.7527335" lon="9.4845321"><ele>726.0</ele><time>2026-04-12T09:16:10.984Z</time></trkpt><trkpt lat="40.752669" lon="9.484423"><ele>726.0</ele><time>2026-04-12T09:16:11.974Z</time></trkpt><trkpt lat="40.7525995" lon="9.4843241"><ele>726.0</ele><time>2026-04-12T09:16:12.992Z</time></trkpt><trkpt lat="40.752522" lon="9.4842371"><ele>724.0</ele><time>2026-04-12T09:16:13.974Z</time></trkpt><trkpt lat="40.7524442" lon="9.4841496"><ele>722.0</ele><time>2026-04-12T09:16:14.973Z</time></trkpt><trkpt lat="40.7523606" lon="9.484048"><ele>720.0</ele><time>2026-04-12T09:16:15.976Z</time></trkpt><trkpt lat="40.7522755" lon="9.4839378"><ele>718.0</ele><time>2026-04-12T09:16:16.977Z</time></trkpt><trkpt lat="40.7521849" lon="9.4838157"><ele>716.5</ele><time>2026-04-12T09:16:17.979Z</time></trkpt><trkpt lat="40.7520884" lon="9.4836784"><ele>715.0</ele><time>2026-04-12T09:16:18.973Z</time></trkpt><trkpt lat="40.7519942" lon="9.483542"><ele>713.5</ele><time>2026-04-12T09:16:19.973Z</time></trkpt><trkpt lat="40.7519095" lon="9.483424"><ele>712.0</ele><time>2026-04-12T09:16:20.976Z</time></trkpt><trkpt lat="40.7518432" lon="9.4833266"><ele>712.0</ele><time>2026-04-12T09:16:21.98Z</time></trkpt><trkpt lat="40.7517864" lon="9.4832373"><ele>712.0</ele><time>2026-04-12T09:16:22.983Z</time></trkpt><trkpt lat="40.7517298" lon="9.4831502"><ele>712.0</ele><time>2026-04-12T09:16:23.97Z</time></trkpt><trkpt lat="40.7516658" lon="9.4830728"><ele>712.0</ele><time>2026-04-12T09:16:24.975Z</time></trkpt><trkpt lat="40.7515917" lon="9.4829881"><ele>712.0</ele><time>2026-04-12T09:16:25.977Z</time></trkpt><trkpt lat="40.7515156" lon="9.4829045"><ele>711.4000000000001</ele><time>2026-04-12T09:16:26.966Z</time></trkpt><trkpt lat="40.7514341" lon="9.4828319"><ele>710.8000000000001</ele><time>2026-04-12T09:16:27.974Z</time></trkpt><trkpt lat="40.7513582" lon="9.4827576"><ele>710.2</ele><time>2026-04-12T09:16:28.978Z</time></trkpt><trkpt lat="40.7512782" lon="9.4826791"><ele>709.6</ele><time>2026-04-12T09:16:29.974Z</time></trkpt><trkpt lat="40.7512064" lon="9.4826112"><ele>709.0</ele><time>2026-04-12T09:16:30.971Z</time></trkpt><trkpt lat="40.7511377" lon="9.482561"><ele>709.0</ele><time>2026-04-12T09:16:31.969Z</time></trkpt><trkpt lat="40.7510603" lon="9.4825192"><ele>709.0</ele><time>2026-04-12T09:16:32.97Z</time></trkpt><trkpt lat="40.7509756" lon="9.4824812"><ele>709.0</ele><time>2026-04-12T09:16:33.968Z</time></trkpt><trkpt lat="40.7508817" lon="9.4824462"><ele>709.0</ele><time>2026-04-12T09:16:34.966Z</time></trkpt><trkpt lat="40.7507898" lon="9.4824087"><ele>709.0</ele><time>2026-04-12T09:16:35.964Z</time></trkpt><trkpt lat="40.7507017" lon="9.4823742"><ele>709.1666666666667</ele><time>2026-04-12T09:16:36.965Z</time></trkpt><trkpt lat="40.7506144" lon="9.4823467"><ele>709.3333333333334</ele><time>2026-04-12T09:16:37.963Z</time></trkpt><trkpt lat="40.7505307" lon="9.4823137"><ele>709.5</ele><time>2026-04-12T09:16:38.968Z</time></trkpt><trkpt lat="40.7504523" lon="9.4822853"><ele>709.6666666666666</ele><time>2026-04-12T09:16:39.973Z</time></trkpt><trkpt lat="40.7503829" lon="9.482257"><ele>709.8333333333333</ele><time>2026-04-12T09:16:40.963Z</time></trkpt><trkpt lat="40.7502908" lon="9.4822011"><ele>710.0</ele><time>2026-04-12T09:16:42.965Z</time></trkpt><trkpt lat="40.7502576" lon="9.482128"><ele>709.0</ele><time>2026-04-12T09:16:44.974Z</time></trkpt><trkpt lat="40.7502426" lon="9.4820342"><ele>708.0</ele><time>2026-04-12T09:16:46.97Z</time></trkpt><trkpt lat="40.7502348" lon="9.4818917"><ele>707.0</ele><time>2026-04-12T09:16:48.958Z</time></trkpt><trkpt lat="40.7502148" lon="9.4817271"><ele>706.0</ele><time>2026-04-12T09:16:50.959Z</time></trkpt><trkpt lat="40.7502047" lon="9.4816331"><ele>705.0</ele><time>2026-04-12T09:16:51.961Z</time></trkpt><trkpt lat="40.7501961" lon="9.4815375"><ele>705.0</ele><time>2026-04-12T09:16:52.96Z</time></trkpt><trkpt lat="40.7501891" lon="9.4814308"><ele>705.0</ele><time>2026-04-12T09:16:53.973Z</time></trkpt><trkpt lat="40.7501829" lon="9.4813339"><ele>705.0</ele><time>2026-04-12T09:16:54.965Z</time></trkpt><trkpt lat="40.7501747" lon="9.4812365"><ele>705.0</ele><time>2026-04-12T09:16:55.971Z</time></trkpt><trkpt lat="40.750171" lon="9.4811384"><ele>705.0</ele><time>2026-04-12T09:16:56.96Z</time></trkpt><trkpt lat="40.7501725" lon="9.4810425"><ele>705.0</ele><time>2026-04-12T09:16:57.975Z</time></trkpt><trkpt lat="40.7501719" lon="9.4809414"><ele>704.5</ele><time>2026-04-12T09:16:58.959Z</time></trkpt><trkpt lat="40.7501666" lon="9.4808343"><ele>704.0</ele><time>2026-04-12T09:16:59.957Z</time></trkpt><trkpt lat="40.7501602" lon="9.4807153"><ele>703.5</ele><time>2026-04-12T09:17:00.96Z</time></trkpt><trkpt lat="40.7501516" lon="9.4806011"><ele>703.0</ele><time>2026-04-12T09:17:01.953Z</time></trkpt><trkpt lat="40.7501422" lon="9.4804872"><ele>702.5</ele><time>2026-04-12T09:17:02.953Z</time></trkpt><trkpt lat="40.750135" lon="9.4803823"><ele>702.0</ele><time>2026-04-12T09:17:03.961Z</time></trkpt><trkpt lat="40.7501287" lon="9.4802766"><ele>700.6666666666666</ele><time>2026-04-12T09:17:04.955Z</time></trkpt><trkpt lat="40.7501185" lon="9.4801816"><ele>699.3333333333334</ele><time>2026-04-12T09:17:05.985Z</time></trkpt><trkpt lat="40.7501062" lon="9.4800922"><ele>698.0</ele><time>2026-04-12T09:17:06.952Z</time></trkpt><trkpt lat="40.7500789" lon="9.4799399"><ele>696.6666666666667</ele><time>2026-04-12T09:17:08.956Z</time></trkpt><trkpt lat="40.750058" lon="9.4798192"><ele>695.3333333333334</ele><time>2026-04-12T09:17:10.957Z</time></trkpt><trkpt lat="40.7500838" lon="9.4797388"><ele>694.0</ele><time>2026-04-12T09:17:12.961Z</time></trkpt><trkpt lat="40.7501657" lon="9.4797921"><ele>689.6</ele><time>2026-04-12T09:17:15.957Z</time></trkpt><trkpt lat="40.7502194" lon="9.4798913"><ele>685.2</ele><time>2026-04-12T09:17:17.942Z</time></trkpt><trkpt lat="40.7502759" lon="9.4800122"><ele>680.8000000000001</ele><time>2026-04-12T09:17:19.952Z</time></trkpt><trkpt lat="40.7503694" lon="9.4801233"><ele>676.4000000000001</ele><time>2026-04-12T09:17:21.942Z</time></trkpt><trkpt lat="40.7504352" lon="9.4801698"><ele>672.0</ele><time>2026-04-12T09:17:22.952Z</time></trkpt><trkpt lat="40.750503" lon="9.4802185"><ele>672.0</ele><time>2026-04-12T09:17:23.956Z</time></trkpt><trkpt lat="40.7505699" lon="9.4802616"><ele>672.0</ele><time>2026-04-12T09:17:24.964Z</time></trkpt><trkpt lat="40.7506358" lon="9.4803019"><ele>672.0</ele><time>2026-04-12T09:17:25.963Z</time></trkpt><trkpt lat="40.7507033" lon="9.4803312"><ele>672.0</ele><time>2026-04-12T09:17:26.947Z</time></trkpt><trkpt lat="40.7507713" lon="9.4803699"><ele>672.0</ele><time>2026-04-12T09:17:27.944Z</time></trkpt><trkpt lat="40.7508408" lon="9.4804102"><ele>672.0</ele><time>2026-04-12T09:17:28.944Z</time></trkpt><trkpt lat="40.7509005" lon="9.4804492"><ele>672.0</ele><time>2026-04-12T09:17:29.949Z</time></trkpt><trkpt lat="40.7509628" lon="9.480483"><ele>674.4000000000001</ele><time>2026-04-12T09:17:30.948Z</time></trkpt><trkpt lat="40.7510734" lon="9.4805266"><ele>676.8000000000001</ele><time>2026-04-12T09:17:32.947Z</time></trkpt><trkpt lat="40.7511783" lon="9.4805182"><ele>679.2</ele><time>2026-04-12T09:17:34.966Z</time></trkpt><trkpt lat="40.7512636" lon="9.4804985"><ele>681.6</ele><time>2026-04-12T09:17:36.936Z</time></trkpt><trkpt lat="40.7512753" lon="9.4804093"><ele>684.0</ele><time>2026-04-12T09:17:38.93Z</time></trkpt><trkpt lat="40.7512114" lon="9.4803086"><ele>684.0</ele><time>2026-04-12T09:17:40.934Z</time></trkpt><trkpt lat="40.7511269" lon="9.480189"><ele>684.0</ele><time>2026-04-12T09:17:42.952Z</time></trkpt><trkpt lat="40.7510812" lon="9.4801306"><ele>684.0</ele><time>2026-04-12T09:17:43.944Z</time></trkpt><trkpt lat="40.751036" lon="9.4800633"><ele>684.0</ele><time>2026-04-12T09:17:44.927Z</time></trkpt><trkpt lat="40.7509946" lon="9.4799945"><ele>684.0</ele><time>2026-04-12T09:17:45.933Z</time></trkpt><trkpt lat="40.7509562" lon="9.4799211"><ele>684.0</ele><time>2026-04-12T09:17:46.927Z</time></trkpt><trkpt lat="40.7509164" lon="9.4798467"><ele>682.0</ele><time>2026-04-12T09:17:47.921Z</time></trkpt><trkpt lat="40.750879" lon="9.4797731"><ele>680.0</ele><time>2026-04-12T09:17:48.934Z</time></trkpt><trkpt lat="40.7508423" lon="9.4796995"><ele>678.0</ele><time>2026-04-12T09:17:49.924Z</time></trkpt><trkpt lat="40.7508111" lon="9.4796219"><ele>676.0</ele><time>2026-04-12T09:17:50.961Z</time></trkpt><trkpt lat="40.7507736" lon="9.479476"><ele>674.0</ele><time>2026-04-12T09:17:52.916Z</time></trkpt><trkpt lat="40.7507538" lon="9.4793377"><ele>672.0</ele><time>2026-04-12T09:17:54.918Z</time></trkpt><trkpt lat="40.7507349" lon="9.4791916"><ele>670.8</ele><time>2026-04-12T09:17:56.913Z</time></trkpt><trkpt lat="40.750715" lon="9.4790154"><ele>669.6</ele><time>2026-04-12T09:17:58.917Z</time></trkpt><trkpt lat="40.7507027" lon="9.4789132"><ele>668.4</ele><time>2026-04-12T09:17:59.922Z</time></trkpt><trkpt lat="40.7506886" lon="9.4788234"><ele>667.1999999999999</ele><time>2026-04-12T09:18:00.919Z</time></trkpt><trkpt lat="40.7506734" lon="9.4787391"><ele>666.0</ele><time>2026-04-12T09:18:01.928Z</time></trkpt><trkpt lat="40.7506358" lon="9.4785928"><ele>665.8</ele><time>2026-04-12T09:18:03.93Z</time></trkpt><trkpt lat="40.7506224" lon="9.478453"><ele>665.5999999999999</ele><time>2026-04-12T09:18:05.934Z</time></trkpt><trkpt lat="40.7506154" lon="9.4783668"><ele>665.4</ele><time>2026-04-12T09:18:06.906Z</time></trkpt><trkpt lat="40.7506152" lon="9.4782673"><ele>665.2</ele><time>2026-04-12T09:18:07.917Z</time></trkpt><trkpt lat="40.7506109" lon="9.4781466"><ele>665.0</ele><time>2026-04-12T09:18:08.91Z</time></trkpt><trkpt lat="40.7505921" lon="9.4779949"><ele>663.75</ele><time>2026-04-12T09:18:09.907Z</time></trkpt><trkpt lat="40.7505895" lon="9.4778155"><ele>662.5</ele><time>2026-04-12T09:18:10.91Z</time></trkpt><trkpt lat="40.7505916" lon="9.4776222"><ele>661.25</ele><time>2026-04-12T09:18:11.918Z</time></trkpt><trkpt lat="40.7505919" lon="9.4774271"><ele>660.0</ele><time>2026-04-12T09:18:12.906Z</time></trkpt><trkpt lat="40.7505979" lon="9.4772442"><ele>658.5</ele><time>2026-04-12T09:18:13.902Z</time></trkpt><trkpt lat="40.7506021" lon="9.477078"><ele>657.0</ele><time>2026-04-12T09:18:14.929Z</time></trkpt><trkpt lat="40.7506103" lon="9.4769205"><ele>655.5</ele><time>2026-04-12T09:18:15.907Z</time></trkpt><trkpt lat="40.750617" lon="9.476777"><ele>654.0</ele><time>2026-04-12T09:18:17.013Z</time></trkpt><trkpt lat="40.7505989" lon="9.4765286"><ele>654.0</ele><time>2026-04-12T09:18:18.899Z</time></trkpt><trkpt lat="40.7505771" lon="9.4764254"><ele>654.0</ele><time>2026-04-12T09:18:19.907Z</time></trkpt><trkpt lat="40.7505387" lon="9.4763269"><ele>654.0</ele><time>2026-04-12T09:18:20.997Z</time></trkpt><trkpt lat="40.7504994" lon="9.4762349"><ele>654.0</ele><time>2026-04-12T09:18:21.999Z</time></trkpt><trkpt lat="40.7504701" lon="9.4761349"><ele>654.0</ele><time>2026-04-12T09:18:22.998Z</time></trkpt><trkpt lat="40.7504582" lon="9.4760101"><ele>654.0</ele><time>2026-04-12T09:18:23.998Z</time></trkpt><trkpt lat="40.7504546" lon="9.4758598"><ele>653.75</ele><time>2026-04-12T09:18:24.994Z</time></trkpt><trkpt lat="40.7504562" lon="9.4756886"><ele>653.5</ele><time>2026-04-12T09:18:25.993Z</time></trkpt><trkpt lat="40.7504655" lon="9.4755027"><ele>653.25</ele><time>2026-04-12T09:18:26.989Z</time></trkpt><trkpt lat="40.7504893" lon="9.4753084"><ele>653.0</ele><time>2026-04-12T09:18:27.996Z</time></trkpt><trkpt lat="40.7505219" lon="9.4751063"><ele>652.0</ele><time>2026-04-12T09:18:29.006Z</time></trkpt><trkpt lat="40.7505566" lon="9.4749111"><ele>651.0</ele><time>2026-04-12T09:18:30.007Z</time></trkpt><trkpt lat="40.750588" lon="9.4747226"><ele>650.0</ele><time>2026-04-12T09:18:30.988Z</time></trkpt><trkpt lat="40.750616" lon="9.4745484"><ele>649.0</ele><time>2026-04-12T09:18:31.987Z</time></trkpt><trkpt lat="40.7506431" lon="9.4743887"><ele>646.8000000000001</ele><time>2026-04-12T09:18:32.988Z</time></trkpt><trkpt lat="40.7506618" lon="9.4742324"><ele>644.6</ele><time>2026-04-12T09:18:33.99Z</time></trkpt><trkpt lat="40.7506739" lon="9.4740808"><ele>642.4</ele><time>2026-04-12T09:18:34.983Z</time></trkpt><trkpt lat="40.7506802" lon="9.4739544"><ele>640.2</ele><time>2026-04-12T09:18:35.997Z</time></trkpt><trkpt lat="40.7506859" lon="9.4738419"><ele>638.0</ele><time>2026-04-12T09:18:37.008Z</time></trkpt><trkpt lat="40.7506881" lon="9.4737491"><ele>637.1999999999999</ele><time>2026-04-12T09:18:38Z</time></trkpt><trkpt lat="40.7506828" lon="9.4736649"><ele>636.4</ele><time>2026-04-12T09:18:39.004Z</time></trkpt><trkpt lat="40.7506707" lon="9.4735811"><ele>635.5999999999999</ele><time>2026-04-12T09:18:39.984Z</time></trkpt><trkpt lat="40.7506262" lon="9.4734268"><ele>634.8</ele><time>2026-04-12T09:18:41.998Z</time></trkpt><trkpt lat="40.7505991" lon="9.4732749"><ele>634.0</ele><time>2026-04-12T09:18:43.987Z</time></trkpt><trkpt lat="40.7505536" lon="9.4731154"><ele>634.0</ele><time>2026-04-12T09:18:45.984Z</time></trkpt><trkpt lat="40.7505158" lon="9.4730167"><ele>634.0</ele><time>2026-04-12T09:18:46.972Z</time></trkpt><trkpt lat="40.750479" lon="9.4729019"><ele>634.0</ele><time>2026-04-12T09:18:47.984Z</time></trkpt><trkpt lat="40.7504469" lon="9.4727835"><ele>634.0</ele><time>2026-04-12T09:18:48.974Z</time></trkpt><trkpt lat="40.7504293" lon="9.4726666"><ele>634.0</ele><time>2026-04-12T09:18:49.982Z</time></trkpt><trkpt lat="40.7504261" lon="9.4725438"><ele>634.0</ele><time>2026-04-12T09:18:50.977Z</time></trkpt><trkpt lat="40.7504341" lon="9.4724163"><ele>634.0</ele><time>2026-04-12T09:18:51.977Z</time></trkpt><trkpt lat="40.7504474" lon="9.4722998"><ele>634.0</ele><time>2026-04-12T09:18:52.98Z</time></trkpt><trkpt lat="40.7504605" lon="9.4722019"><ele>634.0</ele><time>2026-04-12T09:18:53.983Z</time></trkpt><trkpt lat="40.7504688" lon="9.4720497"><ele>634.0</ele><time>2026-04-12T09:18:55.971Z</time></trkpt><trkpt lat="40.750441" lon="9.4719312"><ele>634.5</ele><time>2026-04-12T09:18:57.988Z</time></trkpt><trkpt lat="40.750348" lon="9.4718528"><ele>635.0</ele><time>2026-04-12T09:19:00.007Z</time></trkpt><trkpt lat="40.7502867" lon="9.4718227"><ele>635.5</ele><time>2026-04-12T09:19:00.963Z</time></trkpt><trkpt lat="40.75022" lon="9.4717825"><ele>636.0</ele><time>2026-04-12T09:19:01.971Z</time></trkpt><trkpt lat="40.7501516" lon="9.4717232"><ele>636.5</ele><time>2026-04-12T09:19:02.968Z</time></trkpt><trkpt lat="40.7500888" lon="9.471643"><ele>637.0</ele><time>2026-04-12T09:19:03.971Z</time></trkpt><trkpt lat="40.7500277" lon="9.4715512"><ele>633.2</ele><time>2026-04-12T09:19:04.957Z</time></trkpt><trkpt lat="40.749971" lon="9.4714485"><ele>629.4000000000001</ele><time>2026-04-12T09:19:05.957Z</time></trkpt><trkpt lat="40.7499156" lon="9.4713473"><ele>625.5999999999999</ele><time>2026-04-12T09:19:06.959Z</time></trkpt><trkpt lat="40.749868" lon="9.4712407"><ele>621.8</ele><time>2026-04-12T09:19:07.955Z</time></trkpt><trkpt lat="40.7498091" lon="9.4711276"><ele>618.0</ele><time>2026-04-12T09:19:08.967Z</time></trkpt><trkpt lat="40.7497402" lon="9.4710005"><ele>618.0</ele><time>2026-04-12T09:19:09.959Z</time></trkpt><trkpt lat="40.7496699" lon="9.470865"><ele>618.0</ele><time>2026-04-12T09:19:10.954Z</time></trkpt><trkpt lat="40.7496029" lon="9.4707258"><ele>618.0</ele><time>2026-04-12T09:19:11.947Z</time></trkpt><trkpt lat="40.7495389" lon="9.4705924"><ele>618.0</ele><time>2026-04-12T09:19:12.948Z</time></trkpt><trkpt lat="40.7494114" lon="9.4703467"><ele>615.3333333333334</ele><time>2026-04-12T09:19:14.284Z</time></trkpt><trkpt lat="40.749353" lon="9.4702371"><ele>612.6666666666666</ele><time>2026-04-12T09:19:15.299Z</time></trkpt><trkpt lat="40.7493088" lon="9.4701416"><ele>610.0</ele><time>2026-04-12T09:19:16.281Z</time></trkpt><trkpt lat="40.7492775" lon="9.4700468"><ele>607.3333333333333</ele><time>2026-04-12T09:19:17.302Z</time></trkpt><trkpt lat="40.7492431" lon="9.4699536"><ele>604.6666666666666</ele><time>2026-04-12T09:19:18.28Z</time></trkpt><trkpt lat="40.7491987" lon="9.4698631"><ele>602.0</ele><time>2026-04-12T09:19:19.278Z</time></trkpt><trkpt lat="40.7491471" lon="9.4697561"><ele>602.0</ele><time>2026-04-12T09:19:20.285Z</time></trkpt><trkpt lat="40.7490761" lon="9.4696398"><ele>602.0</ele><time>2026-04-12T09:19:21.279Z</time></trkpt><trkpt lat="40.7489955" lon="9.4695183"><ele>602.0</ele><time>2026-04-12T09:19:22.281Z</time></trkpt><trkpt lat="40.7489116" lon="9.4693878"><ele>602.0</ele><time>2026-04-12T09:19:23.269Z</time></trkpt><trkpt lat="40.7488295" lon="9.4692689"><ele>602.8000000000001</ele><time>2026-04-12T09:19:24.287Z</time></trkpt><trkpt lat="40.7487567" lon="9.469162"><ele>603.6</ele><time>2026-04-12T09:19:25.284Z</time></trkpt><trkpt lat="40.7486907" lon="9.4690581"><ele>604.4000000000001</ele><time>2026-04-12T09:19:26.262Z</time></trkpt><trkpt lat="40.7486316" lon="9.4689462"><ele>605.2</ele><time>2026-04-12T09:19:27.267Z</time></trkpt><trkpt lat="40.748582" lon="9.4688208"><ele>606.0</ele><time>2026-04-12T09:19:28.297Z</time></trkpt><trkpt lat="40.7485406" lon="9.4686877"><ele>603.6</ele><time>2026-04-12T09:19:29.273Z</time></trkpt><trkpt lat="40.7485045" lon="9.4685576"><ele>601.2</ele><time>2026-04-12T09:19:30.268Z</time></trkpt><trkpt lat="40.7484634" lon="9.4684255"><ele>598.8</ele><time>2026-04-12T09:19:31.262Z</time></trkpt><trkpt lat="40.7484294" lon="9.4682918"><ele>596.4</ele><time>2026-04-12T09:19:32.27Z</time></trkpt><trkpt lat="40.7484067" lon="9.4681558"><ele>594.0</ele><time>2026-04-12T09:19:33.259Z</time></trkpt><trkpt lat="40.7483876" lon="9.4680009"><ele>594.0</ele><time>2026-04-12T09:19:34.265Z</time></trkpt><trkpt lat="40.7483696" lon="9.467827"><ele>594.0</ele><time>2026-04-12T09:19:35.258Z</time></trkpt><trkpt lat="40.7483537" lon="9.4676653"><ele>594.0</ele><time>2026-04-12T09:19:36.256Z</time></trkpt><trkpt lat="40.7483317" lon="9.4675274"><ele>594.0</ele><time>2026-04-12T09:19:37.257Z</time></trkpt><trkpt lat="40.7483002" lon="9.4674191"><ele>594.0</ele><time>2026-04-12T09:19:38.264Z</time></trkpt><trkpt lat="40.748246" lon="9.4673141"><ele>594.0</ele><time>2026-04-12T09:19:39.256Z</time></trkpt><trkpt lat="40.7481901" lon="9.4672123"><ele>594.0</ele><time>2026-04-12T09:19:40.254Z</time></trkpt><trkpt lat="40.7481295" lon="9.4671089"><ele>594.0</ele><time>2026-04-12T09:19:41.252Z</time></trkpt><trkpt lat="40.7480604" lon="9.4669959"><ele>594.0</ele><time>2026-04-12T09:19:42.268Z</time></trkpt><trkpt lat="40.7479849" lon="9.466882"><ele>593.0</ele><time>2026-04-12T09:19:43.251Z</time></trkpt><trkpt lat="40.7479126" lon="9.4667739"><ele>592.0</ele><time>2026-04-12T09:19:44.242Z</time></trkpt><trkpt lat="40.7478489" lon="9.4666758"><ele>591.0</ele><time>2026-04-12T09:19:45.243Z</time></trkpt><trkpt lat="40.7477899" lon="9.4665862"><ele>590.0</ele><time>2026-04-12T09:19:46.251Z</time></trkpt><trkpt lat="40.7477171" lon="9.4665038"><ele>589.0</ele><time>2026-04-12T09:19:47.244Z</time></trkpt><trkpt lat="40.7476338" lon="9.4664287"><ele>589.0</ele><time>2026-04-12T09:19:48.241Z</time></trkpt><trkpt lat="40.7475423" lon="9.466366"><ele>589.0</ele><time>2026-04-12T09:19:49.251Z</time></trkpt><trkpt lat="40.7474431" lon="9.4663111"><ele>589.0</ele><time>2026-04-12T09:19:50.252Z</time></trkpt><trkpt lat="40.7473408" lon="9.4662579"><ele>589.0</ele><time>2026-04-12T09:19:51.337Z</time></trkpt><trkpt lat="40.7472432" lon="9.466198"><ele>589.0</ele><time>2026-04-12T09:19:52.34Z</time></trkpt><trkpt lat="40.7471621" lon="9.4661339"><ele>590.2</ele><time>2026-04-12T09:19:53.346Z</time></trkpt><trkpt lat="40.7470879" lon="9.4660632"><ele>591.4</ele><time>2026-04-12T09:19:54.336Z</time></trkpt><trkpt lat="40.7470165" lon="9.465981"><ele>592.6</ele><time>2026-04-12T09:19:55.348Z</time></trkpt><trkpt lat="40.7469546" lon="9.4658813"><ele>593.8</ele><time>2026-04-12T09:19:56.336Z</time></trkpt><trkpt lat="40.7469143" lon="9.4657787"><ele>595.0</ele><time>2026-04-12T09:19:57.328Z</time></trkpt><trkpt lat="40.7468891" lon="9.4656808"><ele>595.6</ele><time>2026-04-12T09:19:58.331Z</time></trkpt><trkpt lat="40.7468772" lon="9.4655828"><ele>596.2</ele><time>2026-04-12T09:19:59.325Z</time></trkpt><trkpt lat="40.746872" lon="9.4654617"><ele>596.8</ele><time>2026-04-12T09:20:00.322Z</time></trkpt><trkpt lat="40.7468812" lon="9.4653305"><ele>597.4</ele><time>2026-04-12T09:20:01.33Z</time></trkpt><trkpt lat="40.7468976" lon="9.4651768"><ele>598.0</ele><time>2026-04-12T09:20:02.323Z</time></trkpt><trkpt lat="40.7469147" lon="9.4650042"><ele>598.0</ele><time>2026-04-12T09:20:03.325Z</time></trkpt><trkpt lat="40.7469259" lon="9.4648156"><ele>598.0</ele><time>2026-04-12T09:20:04.317Z</time></trkpt><trkpt lat="40.7469275" lon="9.4646353"><ele>598.0</ele><time>2026-04-12T09:20:05.335Z</time></trkpt><trkpt lat="40.7469195" lon="9.4644576"><ele>598.0</ele><time>2026-04-12T09:20:06.316Z</time></trkpt><trkpt lat="40.746903" lon="9.4642937"><ele>596.0</ele><time>2026-04-12T09:20:07.31Z</time></trkpt><trkpt lat="40.7468776" lon="9.4641293"><ele>594.0</ele><time>2026-04-12T09:20:08.307Z</time></trkpt><trkpt lat="40.7468477" lon="9.4639706"><ele>592.0</ele><time>2026-04-12T09:20:09.326Z</time></trkpt><trkpt lat="40.7468202" lon="9.463824"><ele>590.0</ele><time>2026-04-12T09:20:10.313Z</time></trkpt><trkpt lat="40.7468016" lon="9.4636776"><ele>590.0</ele><time>2026-04-12T09:20:11.324Z</time></trkpt><trkpt lat="40.7467983" lon="9.46352"><ele>590.0</ele><time>2026-04-12T09:20:12.309Z</time></trkpt><trkpt lat="40.7468013" lon="9.4633745"><ele>590.0</ele><time>2026-04-12T09:20:13.3Z</time></trkpt><trkpt lat="40.7467997" lon="9.4632551"><ele>590.0</ele><time>2026-04-12T09:20:14.306Z</time></trkpt><trkpt lat="40.7468184" lon="9.4631549"><ele>590.0</ele><time>2026-04-12T09:20:15.305Z</time></trkpt><trkpt lat="40.7468597" lon="9.4630746"><ele>590.4</ele><time>2026-04-12T09:20:16.297Z</time></trkpt><trkpt lat="40.7469186" lon="9.4629996"><ele>590.8</ele><time>2026-04-12T09:20:17.306Z</time></trkpt><trkpt lat="40.7469946" lon="9.4629403"><ele>591.2</ele><time>2026-04-12T09:20:18.306Z</time></trkpt><trkpt lat="40.7470822" lon="9.4628881"><ele>591.6</ele><time>2026-04-12T09:20:19.303Z</time></trkpt><trkpt lat="40.7471895" lon="9.4628305"><ele>592.0</ele><time>2026-04-12T09:20:20.292Z</time></trkpt><trkpt lat="40.747301" lon="9.4627741"><ele>591.3333333333334</ele><time>2026-04-12T09:20:21.295Z</time></trkpt><trkpt lat="40.7473988" lon="9.4627224"><ele>590.6666666666667</ele><time>2026-04-12T09:20:22.288Z</time></trkpt><trkpt lat="40.747484" lon="9.4626664"><ele>590.0</ele><time>2026-04-12T09:20:23.289Z</time></trkpt><trkpt lat="40.7475557" lon="9.4626069"><ele>589.3333333333334</ele><time>2026-04-12T09:20:24.301Z</time></trkpt><trkpt lat="40.7476163" lon="9.4625477"><ele>588.6666666666666</ele><time>2026-04-12T09:20:25.291Z</time></trkpt><trkpt lat="40.747666" lon="9.4624856"><ele>588.0</ele><time>2026-04-12T09:20:26.295Z</time></trkpt><trkpt lat="40.7477045" lon="9.4624131"><ele>587.5</ele><time>2026-04-12T09:20:27.304Z</time></trkpt><trkpt lat="40.7477389" lon="9.4623335"><ele>587.0</ele><time>2026-04-12T09:20:28.283Z</time></trkpt><trkpt lat="40.747785" lon="9.4622478"><ele>586.5</ele><time>2026-04-12T09:20:29.308Z</time></trkpt><trkpt lat="40.7478446" lon="9.4621453"><ele>586.0</ele><time>2026-04-12T09:20:30.279Z</time></trkpt><trkpt lat="40.747901" lon="9.4620418"><ele>585.5</ele><time>2026-04-12T09:20:31.276Z</time></trkpt><trkpt lat="40.747944" lon="9.4619454"><ele>585.0</ele><time>2026-04-12T09:20:32.281Z</time></trkpt><trkpt lat="40.7479653" lon="9.4618567"><ele>585.0</ele><time>2026-04-12T09:20:33.296Z</time></trkpt><trkpt lat="40.7479689" lon="9.4617562"><ele>585.0</ele><time>2026-04-12T09:20:34.276Z</time></trkpt><trkpt lat="40.747976" lon="9.4616399"><ele>585.0</ele><time>2026-04-12T09:20:35.282Z</time></trkpt><trkpt lat="40.7479903" lon="9.4615174"><ele>585.0</ele><time>2026-04-12T09:20:36.276Z</time></trkpt><trkpt lat="40.7480039" lon="9.4613801"><ele>585.0</ele><time>2026-04-12T09:20:37.273Z</time></trkpt><trkpt lat="40.7480205" lon="9.4612301"><ele>584.4</ele><time>2026-04-12T09:20:38.279Z</time></trkpt><trkpt lat="40.7480419" lon="9.4610838"><ele>583.8</ele><time>2026-04-12T09:20:39.274Z</time></trkpt><trkpt lat="40.7480677" lon="9.4609446"><ele>583.2</ele><time>2026-04-12T09:20:40.267Z</time></trkpt><trkpt lat="40.7480878" lon="9.460811"><ele>582.6</ele><time>2026-04-12T09:20:41.273Z</time></trkpt><trkpt lat="40.748103" lon="9.4606859"><ele>582.0</ele><time>2026-04-12T09:20:42.266Z</time></trkpt><trkpt lat="40.7481155" lon="9.4605722"><ele>582.0</ele><time>2026-04-12T09:20:43.258Z</time></trkpt><trkpt lat="40.7481269" lon="9.4604617"><ele>582.0</ele><time>2026-04-12T09:20:44.265Z</time></trkpt><trkpt lat="40.7481354" lon="9.4603408"><ele>582.0</ele><time>2026-04-12T09:20:45.28Z</time></trkpt><trkpt lat="40.748138" lon="9.4602164"><ele>582.0</ele><time>2026-04-12T09:20:46.267Z</time></trkpt><trkpt lat="40.748134" lon="9.4600936"><ele>582.0</ele><time>2026-04-12T09:20:47.272Z</time></trkpt><trkpt lat="40.748128" lon="9.4599846"><ele>582.0</ele><time>2026-04-12T09:20:48.262Z</time></trkpt><trkpt lat="40.748122" lon="9.4598367"><ele>580.8000000000001</ele><time>2026-04-12T09:20:50.272Z</time></trkpt><trkpt lat="40.7481143" lon="9.4597367"><ele>579.6</ele><time>2026-04-12T09:20:52.26Z</time></trkpt><trkpt lat="40.7480976" lon="9.4596393"><ele>578.4000000000001</ele><time>2026-04-12T09:20:54.27Z</time></trkpt><trkpt lat="40.7480972" lon="9.4594935"><ele>577.2</ele><time>2026-04-12T09:20:56.264Z</time></trkpt><trkpt lat="40.7480939" lon="9.4593361"><ele>576.0</ele><time>2026-04-12T09:20:58.27Z</time></trkpt><trkpt lat="40.7480816" lon="9.4591769"><ele>575.0</ele><time>2026-04-12T09:21:00.259Z</time></trkpt><trkpt lat="40.7480748" lon="9.4590882"><ele>574.0</ele><time>2026-04-12T09:21:01.262Z</time></trkpt><trkpt lat="40.7480719" lon="9.4589279"><ele>573.0</ele><time>2026-04-12T09:21:03.27Z</time></trkpt><trkpt lat="40.7480632" lon="9.4587942"><ele>572.0</ele><time>2026-04-12T09:21:05.277Z</time></trkpt><trkpt lat="40.7480602" lon="9.4586508"><ele>571.0</ele><time>2026-04-12T09:21:07.272Z</time></trkpt><trkpt lat="40.7480557" lon="9.4585673"><ele>570.8</ele><time>2026-04-12T09:21:08.267Z</time></trkpt><trkpt lat="40.7480627" lon="9.4584006"><ele>570.6</ele><time>2026-04-12T09:21:10.273Z</time></trkpt><trkpt lat="40.7480799" lon="9.4582583"><ele>570.4</ele><time>2026-04-12T09:21:12.264Z</time></trkpt><trkpt lat="40.7480929" lon="9.4581374"><ele>570.2</ele><time>2026-04-12T09:21:14.28Z</time></trkpt><trkpt lat="40.7481056" lon="9.4580317"><ele>570.0</ele><time>2026-04-12T09:21:16.256Z</time></trkpt><trkpt lat="40.7481198" lon="9.4579288"><ele>569.3333333333334</ele><time>2026-04-12T09:21:18.269Z</time></trkpt><trkpt lat="40.7481264" lon="9.4578266"><ele>568.6666666666666</ele><time>2026-04-12T09:21:20.267Z</time></trkpt><trkpt lat="40.7481196" lon="9.4577224"><ele>568.0</ele><time>2026-04-12T09:21:22.262Z</time></trkpt><trkpt lat="40.7480814" lon="9.4575812"><ele>567.3333333333333</ele><time>2026-04-12T09:21:24.254Z</time></trkpt><trkpt lat="40.7480525" lon="9.4575023"><ele>566.6666666666666</ele><time>2026-04-12T09:21:25.268Z</time></trkpt><trkpt lat="40.7480165" lon="9.4574181"><ele>566.0</ele><time>2026-04-12T09:21:26.266Z</time></trkpt><trkpt lat="40.7479786" lon="9.4573264"><ele>566.0</ele><time>2026-04-12T09:21:27.259Z</time></trkpt><trkpt lat="40.7479404" lon="9.4572342"><ele>566.0</ele><time>2026-04-12T09:21:28.26Z</time></trkpt><trkpt lat="40.7479026" lon="9.4571556"><ele>566.0</ele><time>2026-04-12T09:21:29.271Z</time></trkpt><trkpt lat="40.7478127" lon="9.4570538"><ele>566.0</ele><time>2026-04-12T09:21:31.295Z</time></trkpt><trkpt lat="40.7477053" lon="9.4569771"><ele>566.0</ele><time>2026-04-12T09:21:33.256Z</time></trkpt><trkpt lat="40.7476284" lon="9.4569702"><ele>565.8333333333333</ele><time>2026-04-12T09:21:34.26Z</time></trkpt><trkpt lat="40.7475367" lon="9.4569842"><ele>565.6666666666666</ele><time>2026-04-12T09:21:35.254Z</time></trkpt><trkpt lat="40.7474569" lon="9.4569909"><ele>565.5</ele><time>2026-04-12T09:21:36.257Z</time></trkpt><trkpt lat="40.7473931" lon="9.4569802"><ele>565.3333333333334</ele><time>2026-04-12T09:21:37.262Z</time></trkpt><trkpt lat="40.7472693" lon="9.4569077"><ele>565.1666666666667</ele><time>2026-04-12T09:21:39.275Z</time></trkpt><trkpt lat="40.7472114" lon="9.4568435"><ele>565.0</ele><time>2026-04-12T09:21:40.246Z</time></trkpt><trkpt lat="40.7471574" lon="9.4567786"><ele>565.0</ele><time>2026-04-12T09:21:41.247Z</time></trkpt><trkpt lat="40.7471071" lon="9.4567046"><ele>565.0</ele><time>2026-04-12T09:21:42.251Z</time></trkpt><trkpt lat="40.747067" lon="9.4566217"><ele>565.0</ele><time>2026-04-12T09:21:43.246Z</time></trkpt><trkpt lat="40.7470342" lon="9.4565189"><ele>565.0</ele><time>2026-04-12T09:21:44.248Z</time></trkpt><trkpt lat="40.7470034" lon="9.4564152"><ele>565.0</ele><time>2026-04-12T09:21:45.279Z</time></trkpt><trkpt lat="40.7469747" lon="9.4563083"><ele>565.0</ele><time>2026-04-12T09:21:46.364Z</time></trkpt><trkpt lat="40.7468776" lon="9.4560887"><ele>565.2</ele><time>2026-04-12T09:21:48.253Z</time></trkpt><trkpt lat="40.7468151" lon="9.4559734"><ele>565.4</ele><time>2026-04-12T09:21:49.247Z</time></trkpt><trkpt lat="40.7467529" lon="9.455854"><ele>565.6</ele><time>2026-04-12T09:21:50.242Z</time></trkpt><trkpt lat="40.7467073" lon="9.455755"><ele>565.8</ele><time>2026-04-12T09:21:51.344Z</time></trkpt><trkpt lat="40.7466557" lon="9.4556767"><ele>566.0</ele><time>2026-04-12T09:21:52.366Z</time></trkpt><trkpt lat="40.7466034" lon="9.4556066"><ele>566.0</ele><time>2026-04-12T09:21:53.341Z</time></trkpt><trkpt lat="40.7465433" lon="9.45554"><ele>566.0</ele><time>2026-04-12T09:21:54.244Z</time></trkpt><trkpt lat="40.7464679" lon="9.4554733"><ele>566.0</ele><time>2026-04-12T09:21:55.242Z</time></trkpt><trkpt lat="40.7463779" lon="9.4554184"><ele>566.0</ele><time>2026-04-12T09:21:56.257Z</time></trkpt><trkpt lat="40.7462839" lon="9.4553684"><ele>566.0</ele><time>2026-04-12T09:21:57.24Z</time></trkpt><trkpt lat="40.7461817" lon="9.455331"><ele>565.8</ele><time>2026-04-12T09:21:58.247Z</time></trkpt><trkpt lat="40.7460727" lon="9.4552873"><ele>565.6</ele><time>2026-04-12T09:21:59.343Z</time></trkpt><trkpt lat="40.7459727" lon="9.4552527"><ele>565.4</ele><time>2026-04-12T09:22:00.338Z</time></trkpt><trkpt lat="40.7458787" lon="9.4552164"><ele>565.2</ele><time>2026-04-12T09:22:01.245Z</time></trkpt><trkpt lat="40.7457944" lon="9.4551734"><ele>565.0</ele><time>2026-04-12T09:22:02.238Z</time></trkpt><trkpt lat="40.7457157" lon="9.4551205"><ele>565.0</ele><time>2026-04-12T09:22:03.236Z</time></trkpt><trkpt lat="40.7456314" lon="9.4550618"><ele>565.0</ele><time>2026-04-12T09:22:04.234Z</time></trkpt><trkpt lat="40.7455338" lon="9.4549972"><ele>565.0</ele><time>2026-04-12T09:22:05.337Z</time></trkpt><trkpt lat="40.7454276" lon="9.4549283"><ele>565.0</ele><time>2026-04-12T09:22:06.335Z</time></trkpt><trkpt lat="40.7453164" lon="9.4548532"><ele>565.0</ele><time>2026-04-12T09:22:07.327Z</time></trkpt><trkpt lat="40.7452169" lon="9.4547855"><ele>564.75</ele><time>2026-04-12T09:22:08.331Z</time></trkpt><trkpt lat="40.745126" lon="9.4547127"><ele>564.5</ele><time>2026-04-12T09:22:09.327Z</time></trkpt><trkpt lat="40.745027" lon="9.4546346"><ele>564.25</ele><time>2026-04-12T09:22:10.329Z</time></trkpt><trkpt lat="40.7449188" lon="9.4545468"><ele>564.0</ele><time>2026-04-12T09:22:11.328Z</time></trkpt><trkpt lat="40.744813" lon="9.4544579"><ele>564.0</ele><time>2026-04-12T09:22:12.332Z</time></trkpt><trkpt lat="40.7447205" lon="9.4543761"><ele>564.0</ele><time>2026-04-12T09:22:13.336Z</time></trkpt><trkpt lat="40.7446535" lon="9.4543155"><ele>564.0</ele><time>2026-04-12T09:22:14.324Z</time></trkpt><trkpt lat="40.744605" lon="9.4542575"><ele>564.0</ele><time>2026-04-12T09:22:15.336Z</time></trkpt><trkpt lat="40.744516" lon="9.4541736"><ele>564.0</ele><time>2026-04-12T09:22:17.378Z</time></trkpt><trkpt lat="40.744463" lon="9.4540901"><ele>564.0</ele><time>2026-04-12T09:22:19.348Z</time></trkpt><trkpt lat="40.7443914" lon="9.453992"><ele>564.0</ele><time>2026-04-12T09:22:22.33Z</time></trkpt><trkpt lat="40.7442885" lon="9.4539477"><ele>564.0</ele><time>2026-04-12T09:22:24.341Z</time></trkpt><trkpt lat="40.7441789" lon="9.4539803"><ele>564.0</ele><time>2026-04-12T09:22:26.323Z</time></trkpt><trkpt lat="40.7440559" lon="9.4539928"><ele>564.0</ele><time>2026-04-12T09:22:28.328Z</time></trkpt><trkpt lat="40.7439543" lon="9.4539967"><ele>565.6</ele><time>2026-04-12T09:22:30.316Z</time></trkpt><trkpt lat="40.7438457" lon="9.453984"><ele>567.2</ele><time>2026-04-12T09:22:32.33Z</time></trkpt><trkpt lat="40.7437308" lon="9.4539603"><ele>568.8000000000001</ele><time>2026-04-12T09:22:34.336Z</time></trkpt><trkpt lat="40.7436149" lon="9.4539208"><ele>570.4</ele><time>2026-04-12T09:22:36.324Z</time></trkpt><trkpt lat="40.7435398" lon="9.4539013"><ele>572.0</ele><time>2026-04-12T09:22:37.321Z</time></trkpt><trkpt lat="40.7434555" lon="9.4538893"><ele>572.5714285714286</ele><time>2026-04-12T09:22:38.344Z</time></trkpt><trkpt lat="40.7433781" lon="9.4538884"><ele>573.1428571428571</ele><time>2026-04-12T09:22:39.317Z</time></trkpt><trkpt lat="40.7433105" lon="9.4538839"><ele>573.7142857142858</ele><time>2026-04-12T09:22:40.312Z</time></trkpt><trkpt lat="40.7432372" lon="9.4538795"><ele>574.2857142857142</ele><time>2026-04-12T09:22:41.316Z</time></trkpt><trkpt lat="40.7431668" lon="9.4538819"><ele>574.8571428571429</ele><time>2026-04-12T09:22:42.311Z</time></trkpt><trkpt lat="40.7430991" lon="9.4538851"><ele>575.4285714285714</ele><time>2026-04-12T09:22:43.314Z</time></trkpt><trkpt lat="40.7430352" lon="9.4538929"><ele>576.0</ele><time>2026-04-12T09:22:44.331Z</time></trkpt><trkpt lat="40.7429713" lon="9.4538951"><ele>576.0</ele><time>2026-04-12T09:22:45.306Z</time></trkpt><trkpt lat="40.7429039" lon="9.4538902"><ele>576.0</ele><time>2026-04-12T09:22:46.309Z</time></trkpt><trkpt lat="40.7428339" lon="9.4538795"><ele>576.0</ele><time>2026-04-12T09:22:47.313Z</time></trkpt><trkpt lat="40.7427611" lon="9.4538685"><ele>576.0</ele><time>2026-04-12T09:22:48.314Z</time></trkpt><trkpt lat="40.7426809" lon="9.4538526"><ele>576.0</ele><time>2026-04-12T09:22:49.317Z</time></trkpt><trkpt lat="40.7425975" lon="9.4538374"><ele>576.0</ele><time>2026-04-12T09:22:50.313Z</time></trkpt><trkpt lat="40.7425127" lon="9.4538319"><ele>576.1666666666666</ele><time>2026-04-12T09:22:51.302Z</time></trkpt><trkpt lat="40.7424304" lon="9.4538251"><ele>576.3333333333334</ele><time>2026-04-12T09:22:52.307Z</time></trkpt><trkpt lat="40.7423521" lon="9.4538144"><ele>576.5</ele><time>2026-04-12T09:22:53.319Z</time></trkpt><trkpt lat="40.7422716" lon="9.4537934"><ele>576.6666666666667</ele><time>2026-04-12T09:22:54.3Z</time></trkpt><trkpt lat="40.7421906" lon="9.4537675"><ele>576.8333333333334</ele><time>2026-04-12T09:22:55.31Z</time></trkpt><trkpt lat="40.7421171" lon="9.4537411"><ele>577.0</ele><time>2026-04-12T09:22:56.306Z</time></trkpt><trkpt lat="40.7420537" lon="9.4537129"><ele>577.0</ele><time>2026-04-12T09:22:57.3Z</time></trkpt><trkpt lat="40.7419873" lon="9.4536861"><ele>577.0</ele><time>2026-04-12T09:22:58.315Z</time></trkpt><trkpt lat="40.7419228" lon="9.4536568"><ele>577.0</ele><time>2026-04-12T09:22:59.334Z</time></trkpt><trkpt lat="40.7418143" lon="9.453624"><ele>577.0</ele><time>2026-04-12T09:23:01.315Z</time></trkpt><trkpt lat="40.7417399" lon="9.4536174"><ele>577.0</ele><time>2026-04-12T09:23:03.32Z</time></trkpt><trkpt lat="40.7416657" lon="9.4536018"><ele>577.0</ele><time>2026-04-12T09:23:05.318Z</time></trkpt><trkpt lat="40.7415659" lon="9.4535851"><ele>576.8333333333334</ele><time>2026-04-12T09:23:07.308Z</time></trkpt><trkpt lat="40.7414914" lon="9.4535904"><ele>576.6666666666667</ele><time>2026-04-12T09:23:08.298Z</time></trkpt><trkpt lat="40.741414" lon="9.4536001"><ele>576.5</ele><time>2026-04-12T09:23:09.307Z</time></trkpt><trkpt lat="40.7413499" lon="9.4536052"><ele>576.3333333333334</ele><time>2026-04-12T09:23:10.296Z</time></trkpt><trkpt lat="40.7412452" lon="9.4536183"><ele>576.1666666666666</ele><time>2026-04-12T09:23:12.295Z</time></trkpt><trkpt lat="40.7411766" lon="9.4536223"><ele>576.0</ele><time>2026-04-12T09:23:13.303Z</time></trkpt><trkpt lat="40.7411074" lon="9.4536298"><ele>577.0</ele><time>2026-04-12T09:23:14.295Z</time></trkpt><trkpt lat="40.7410411" lon="9.4536383"><ele>578.0</ele><time>2026-04-12T09:23:15.308Z</time></trkpt><trkpt lat="40.7409295" lon="9.4536411"><ele>579.0</ele><time>2026-04-12T09:23:17.31Z</time></trkpt><trkpt lat="40.7408378" lon="9.4536472"><ele>580.0</ele><time>2026-04-12T09:23:19.309Z</time></trkpt><trkpt lat="40.7407147" lon="9.4536603"><ele>581.0</ele><time>2026-04-12T09:23:21.289Z</time></trkpt><trkpt lat="40.7406394" lon="9.4536684"><ele>581.0</ele><time>2026-04-12T09:23:22.304Z</time></trkpt><trkpt lat="40.740555" lon="9.4536844"><ele>581.0</ele><time>2026-04-12T09:23:23.286Z</time></trkpt><trkpt lat="40.7404696" lon="9.4537017"><ele>581.0</ele><time>2026-04-12T09:23:24.3Z</time></trkpt><trkpt lat="40.7403886" lon="9.4537147"><ele>581.0</ele><time>2026-04-12T09:23:25.288Z</time></trkpt><trkpt lat="40.7403133" lon="9.4537178"><ele>581.0</ele><time>2026-04-12T09:23:26.286Z</time></trkpt><trkpt lat="40.7402469" lon="9.4537148"><ele>581.0</ele><time>2026-04-12T09:23:27.287Z</time></trkpt><trkpt lat="40.7401829" lon="9.453718"><ele>580.8333333333333</ele><time>2026-04-12T09:23:28.284Z</time></trkpt><trkpt lat="40.7401163" lon="9.4537256"><ele>580.6666666666666</ele><time>2026-04-12T09:23:29.288Z</time></trkpt><trkpt lat="40.740051" lon="9.4537364"><ele>580.5</ele><time>2026-04-12T09:23:30.298Z</time></trkpt><trkpt lat="40.7399882" lon="9.4537427"><ele>580.3333333333334</ele><time>2026-04-12T09:23:31.285Z</time></trkpt><trkpt lat="40.7399235" lon="9.4537557"><ele>580.1666666666667</ele><time>2026-04-12T09:23:32.294Z</time></trkpt><trkpt lat="40.7398014" lon="9.4537737"><ele>580.0</ele><time>2026-04-12T09:23:34.285Z</time></trkpt><trkpt lat="40.7396862" lon="9.4538163"><ele>580.0</ele><time>2026-04-12T09:23:36.279Z</time></trkpt><trkpt lat="40.7395888" lon="9.4538446"><ele>580.0</ele><time>2026-04-12T09:23:38.283Z</time></trkpt><trkpt lat="40.739498" lon="9.4538524"><ele>580.0</ele><time>2026-04-12T09:23:40.279Z</time></trkpt><trkpt lat="40.7394062" lon="9.453852"><ele>580.0</ele><time>2026-04-12T09:23:42.275Z</time></trkpt><trkpt lat="40.7392915" lon="9.4538932"><ele>580.0</ele><time>2026-04-12T09:23:44.275Z</time></trkpt><trkpt lat="40.7391796" lon="9.4539218"><ele>578.6</ele><time>2026-04-12T09:23:46.275Z</time></trkpt><trkpt lat="40.7390755" lon="9.4539377"><ele>577.2</ele><time>2026-04-12T09:23:48.267Z</time></trkpt><trkpt lat="40.7389775" lon="9.4539527"><ele>575.8</ele><time>2026-04-12T09:23:50.263Z</time></trkpt><trkpt lat="40.7388561" lon="9.453984"><ele>574.4</ele><time>2026-04-12T09:23:52.269Z</time></trkpt><trkpt lat="40.7387414" lon="9.4540013"><ele>573.0</ele><time>2026-04-12T09:23:54.274Z</time></trkpt><trkpt lat="40.7386313" lon="9.4540168"><ele>571.8333333333334</ele><time>2026-04-12T09:23:56.274Z</time></trkpt><trkpt lat="40.7385363" lon="9.4540288"><ele>570.6666666666666</ele><time>2026-04-12T09:23:58.259Z</time></trkpt><trkpt lat="40.7384415" lon="9.4540453"><ele>569.5</ele><time>2026-04-12T09:24:00.266Z</time></trkpt><trkpt lat="40.7383513" lon="9.454057"><ele>568.3333333333333</ele><time>2026-04-12T09:24:02.249Z</time></trkpt><trkpt lat="40.7382736" lon="9.4540668"><ele>567.1666666666666</ele><time>2026-04-12T09:24:04.25Z</time></trkpt><trkpt lat="40.73821" lon="9.45408"><ele>566.0</ele><time>2026-04-12T09:24:06.246Z</time></trkpt><trkpt lat="40.7381493" lon="9.4541139"><ele>566.0</ele><time>2026-04-12T09:24:09.254Z</time></trkpt><trkpt lat="40.7380884" lon="9.4541752"><ele>566.0</ele><time>2026-04-12T09:25:38.263Z</time></trkpt><trkpt lat="40.7380072" lon="9.4542855"><ele>566.0</ele><time>2026-04-12T09:25:40.246Z</time></trkpt><trkpt lat="40.7379575" lon="9.4543541"><ele>566.0</ele><time>2026-04-12T09:25:41.243Z</time></trkpt><trkpt lat="40.7379006" lon="9.4544227"><ele>566.0</ele><time>2026-04-12T09:25:42.257Z</time></trkpt><trkpt lat="40.7378466" lon="9.4544917"><ele>566.0</ele><time>2026-04-12T09:25:43.251Z</time></trkpt><trkpt lat="40.7377918" lon="9.4545576"><ele>566.0</ele><time>2026-04-12T09:25:44.241Z</time></trkpt><trkpt lat="40.7377313" lon="9.4546142"><ele>566.0</ele><time>2026-04-12T09:25:45.241Z</time></trkpt><trkpt lat="40.7376615" lon="9.4546709"><ele>566.0</ele><time>2026-04-12T09:25:46.249Z</time></trkpt><trkpt lat="40.7375859" lon="9.4547316"><ele>566.0</ele><time>2026-04-12T09:25:47.241Z</time></trkpt><trkpt lat="40.7375123" lon="9.4547917"><ele>566.0</ele><time>2026-04-12T09:25:48.344Z</time></trkpt><trkpt lat="40.737437" lon="9.4548533"><ele>566.0</ele><time>2026-04-12T09:25:49.339Z</time></trkpt><trkpt lat="40.7373616" lon="9.4549002"><ele>565.0</ele><time>2026-04-12T09:25:50.328Z</time></trkpt><trkpt lat="40.7372895" lon="9.4549288"><ele>564.0</ele><time>2026-04-12T09:25:51.333Z</time></trkpt><trkpt lat="40.7372216" lon="9.454947"><ele>563.0</ele><time>2026-04-12T09:25:52.334Z</time></trkpt><trkpt lat="40.7371539" lon="9.4549638"><ele>562.0</ele><time>2026-04-12T09:25:53.339Z</time></trkpt><trkpt lat="40.7370859" lon="9.4549707"><ele>561.0</ele><time>2026-04-12T09:25:54.329Z</time></trkpt><trkpt lat="40.736962" lon="9.4549562"><ele>560.0</ele><time>2026-04-12T09:25:56.328Z</time></trkpt><trkpt lat="40.7368548" lon="9.4549471"><ele>559.8</ele><time>2026-04-12T09:25:58.329Z</time></trkpt><trkpt lat="40.7367551" lon="9.4549436"><ele>559.6</ele><time>2026-04-12T09:26:00.33Z</time></trkpt><trkpt lat="40.7366242" lon="9.4549599"><ele>559.4</ele><time>2026-04-12T09:26:02.332Z</time></trkpt><trkpt lat="40.736536" lon="9.4549737"><ele>559.2</ele><time>2026-04-12T09:26:03.329Z</time></trkpt><trkpt lat="40.7364393" lon="9.4549738"><ele>559.0</ele><time>2026-04-12T09:26:04.33Z</time></trkpt><trkpt lat="40.7363456" lon="9.4549715"><ele>559.0</ele><time>2026-04-12T09:26:05.32Z</time></trkpt><trkpt lat="40.7362408" lon="9.4549762"><ele>559.0</ele><time>2026-04-12T09:26:06.317Z</time></trkpt><trkpt lat="40.736139" lon="9.4549793"><ele>559.0</ele><time>2026-04-12T09:26:07.324Z</time></trkpt><trkpt lat="40.7360439" lon="9.4549785"><ele>559.0</ele><time>2026-04-12T09:26:08.32Z</time></trkpt><trkpt lat="40.735948" lon="9.4549805"><ele>559.0</ele><time>2026-04-12T09:26:09.332Z</time></trkpt><trkpt lat="40.7358599" lon="9.4549672"><ele>559.4</ele><time>2026-04-12T09:26:10.321Z</time></trkpt><trkpt lat="40.7357768" lon="9.4549397"><ele>559.8</ele><time>2026-04-12T09:26:11.321Z</time></trkpt><trkpt lat="40.7356885" lon="9.4549058"><ele>560.2</ele><time>2026-04-12T09:26:12.327Z</time></trkpt><trkpt lat="40.7356" lon="9.4548727"><ele>560.6</ele><time>2026-04-12T09:26:13.318Z</time></trkpt><trkpt lat="40.7355069" lon="9.4548429"><ele>561.0</ele><time>2026-04-12T09:26:14.313Z</time></trkpt><trkpt lat="40.7354116" lon="9.4548203"><ele>561.0</ele><time>2026-04-12T09:26:15.314Z</time></trkpt><trkpt lat="40.7353204" lon="9.4548013"><ele>561.0</ele><time>2026-04-12T09:26:16.313Z</time></trkpt><trkpt lat="40.7352323" lon="9.454788"><ele>561.0</ele><time>2026-04-12T09:26:17.315Z</time></trkpt><trkpt lat="40.735147" lon="9.4547942"><ele>561.0</ele><time>2026-04-12T09:26:18.305Z</time></trkpt><trkpt lat="40.7350572" lon="9.4548289"><ele>561.0</ele><time>2026-04-12T09:26:19.318Z</time></trkpt><trkpt lat="40.7349627" lon="9.4548841"><ele>560.8</ele><time>2026-04-12T09:26:20.318Z</time></trkpt><trkpt lat="40.7348676" lon="9.4549374"><ele>560.6</ele><time>2026-04-12T09:26:21.323Z</time></trkpt><trkpt lat="40.7347738" lon="9.4549816"><ele>560.4</ele><time>2026-04-12T09:26:22.305Z</time></trkpt><trkpt lat="40.7346846" lon="9.4550195"><ele>560.2</ele><time>2026-04-12T09:26:23.305Z</time></trkpt><trkpt lat="40.7345899" lon="9.4550561"><ele>560.0</ele><time>2026-04-12T09:26:24.299Z</time></trkpt><trkpt lat="40.7344887" lon="9.4550802"><ele>560.8</ele><time>2026-04-12T09:26:25.308Z</time></trkpt><trkpt lat="40.734386" lon="9.4551049"><ele>561.6</ele><time>2026-04-12T09:26:26.297Z</time></trkpt><trkpt lat="40.7342815" lon="9.4551335"><ele>562.4</ele><time>2026-04-12T09:26:27.3Z</time></trkpt><trkpt lat="40.7341735" lon="9.4551645"><ele>563.2</ele><time>2026-04-12T09:26:28.299Z</time></trkpt><trkpt lat="40.7340598" lon="9.455197"><ele>564.0</ele><time>2026-04-12T09:26:29.307Z</time></trkpt><trkpt lat="40.7339505" lon="9.4552325"><ele>564.0</ele><time>2026-04-12T09:26:30.293Z</time></trkpt><trkpt lat="40.7338435" lon="9.4552713"><ele>564.0</ele><time>2026-04-12T09:26:31.302Z</time></trkpt><trkpt lat="40.7337553" lon="9.4553117"><ele>564.0</ele><time>2026-04-12T09:26:32.292Z</time></trkpt><trkpt lat="40.7336688" lon="9.4553469"><ele>564.0</ele><time>2026-04-12T09:26:33.294Z</time></trkpt><trkpt lat="40.733573" lon="9.4553886"><ele>564.0</ele><time>2026-04-12T09:26:34.294Z</time></trkpt><trkpt lat="40.7334686" lon="9.4554357"><ele>565.4</ele><time>2026-04-12T09:26:35.291Z</time></trkpt><trkpt lat="40.7333687" lon="9.4554649"><ele>566.8</ele><time>2026-04-12T09:26:36.289Z</time></trkpt><trkpt lat="40.7332735" lon="9.4554852"><ele>568.2</ele><time>2026-04-12T09:26:37.298Z</time></trkpt><trkpt lat="40.7331754" lon="9.455487"><ele>569.6</ele><time>2026-04-12T09:26:38.287Z</time></trkpt><trkpt lat="40.7330737" lon="9.4554771"><ele>571.0</ele><time>2026-04-12T09:26:39.281Z</time></trkpt><trkpt lat="40.7329731" lon="9.4554638"><ele>571.0</ele><time>2026-04-12T09:26:40.283Z</time></trkpt><trkpt lat="40.7328776" lon="9.4554628"><ele>571.0</ele><time>2026-04-12T09:26:41.281Z</time></trkpt><trkpt lat="40.7327944" lon="9.4554621"><ele>571.0</ele><time>2026-04-12T09:26:42.29Z</time></trkpt><trkpt lat="40.7327143" lon="9.4554625"><ele>571.0</ele><time>2026-04-12T09:26:43.286Z</time></trkpt><trkpt lat="40.7326335" lon="9.4554627"><ele>571.0</ele><time>2026-04-12T09:26:44.278Z</time></trkpt><trkpt lat="40.732545" lon="9.4554535"><ele>571.0</ele><time>2026-04-12T09:26:45.298Z</time></trkpt><trkpt lat="40.7324465" lon="9.4554306"><ele>570.2</ele><time>2026-04-12T09:26:46.279Z</time></trkpt><trkpt lat="40.7323417" lon="9.4554054"><ele>569.4000000000001</ele><time>2026-04-12T09:26:47.275Z</time></trkpt><trkpt lat="40.7322459" lon="9.4553793"><ele>568.6</ele><time>2026-04-12T09:26:48.282Z</time></trkpt><trkpt lat="40.7321613" lon="9.4553548"><ele>567.8000000000001</ele><time>2026-04-12T09:26:49.283Z</time></trkpt><trkpt lat="40.7320761" lon="9.4553292"><ele>567.0</ele><time>2026-04-12T09:26:50.279Z</time></trkpt><trkpt lat="40.7319897" lon="9.4553029"><ele>567.0</ele><time>2026-04-12T09:26:51.268Z</time></trkpt><trkpt lat="40.7319001" lon="9.4552718"><ele>567.0</ele><time>2026-04-12T09:26:52.274Z</time></trkpt><trkpt lat="40.7318132" lon="9.4552309"><ele>567.0</ele><time>2026-04-12T09:26:53.27Z</time></trkpt><trkpt lat="40.7317267" lon="9.4551787"><ele>567.0</ele><time>2026-04-12T09:26:54.263Z</time></trkpt><trkpt lat="40.7316456" lon="9.4551252"><ele>567.0</ele><time>2026-04-12T09:26:55.264Z</time></trkpt><trkpt lat="40.7315603" lon="9.4550692"><ele>567.6</ele><time>2026-04-12T09:26:56.272Z</time></trkpt><trkpt lat="40.731465" lon="9.455005"><ele>568.2</ele><time>2026-04-12T09:26:57.275Z</time></trkpt><trkpt lat="40.7313694" lon="9.4549478"><ele>568.8</ele><time>2026-04-12T09:26:58.272Z</time></trkpt><trkpt lat="40.731283" lon="9.45489"><ele>569.4</ele><time>2026-04-12T09:26:59.257Z</time></trkpt><trkpt lat="40.7312096" lon="9.4548314"><ele>570.0</ele><time>2026-04-12T09:27:00.269Z</time></trkpt><trkpt lat="40.731139" lon="9.4547697"><ele>570.0</ele><time>2026-04-12T09:27:01.267Z</time></trkpt><trkpt lat="40.7310763" lon="9.454715"><ele>570.0</ele><time>2026-04-12T09:27:02.279Z</time></trkpt><trkpt lat="40.7310114" lon="9.4546586"><ele>570.0</ele><time>2026-04-12T09:27:03.282Z</time></trkpt><trkpt lat="40.7309347" lon="9.4545969"><ele>570.0</ele><time>2026-04-12T09:27:04.262Z</time></trkpt><trkpt lat="40.7308448" lon="9.4545246"><ele>570.0</ele><time>2026-04-12T09:27:05.253Z</time></trkpt><trkpt lat="40.7307559" lon="9.4544516"><ele>569.2</ele><time>2026-04-12T09:27:06.257Z</time></trkpt><trkpt lat="40.7306738" lon="9.4543851"><ele>568.4</ele><time>2026-04-12T09:27:07.261Z</time></trkpt><trkpt lat="40.7305959" lon="9.4543285"><ele>567.6</ele><time>2026-04-12T09:27:08.26Z</time></trkpt><trkpt lat="40.7305109" lon="9.4542705"><ele>566.8</ele><time>2026-04-12T09:27:09.259Z</time></trkpt><trkpt lat="40.7304265" lon="9.454214"><ele>566.0</ele><time>2026-04-12T09:27:10.265Z</time></trkpt><trkpt lat="40.7303349" lon="9.4541775"><ele>566.0</ele><time>2026-04-12T09:27:11.25Z</time></trkpt><trkpt lat="40.7302398" lon="9.4541541"><ele>566.0</ele><time>2026-04-12T09:27:12.247Z</time></trkpt><trkpt lat="40.7301359" lon="9.4541427"><ele>566.0</ele><time>2026-04-12T09:27:13.249Z</time></trkpt><trkpt lat="40.7300307" lon="9.4541322"><ele>566.0</ele><time>2026-04-12T09:27:14.255Z</time></trkpt><trkpt lat="40.7299344" lon="9.4541121"><ele>566.0</ele><time>2026-04-12T09:27:15.246Z</time></trkpt><trkpt lat="40.7298305" lon="9.4540967"><ele>567.25</ele><time>2026-04-12T09:27:16.238Z</time></trkpt><trkpt lat="40.7297158" lon="9.4540873"><ele>568.5</ele><time>2026-04-12T09:27:17.258Z</time></trkpt><trkpt lat="40.729593" lon="9.4540714"><ele>569.75</ele><time>2026-04-12T09:27:18.252Z</time></trkpt><trkpt lat="40.7294729" lon="9.4540498"><ele>571.0</ele><time>2026-04-12T09:27:19.24Z</time></trkpt><trkpt lat="40.7293599" lon="9.4540239"><ele>571.25</ele><time>2026-04-12T09:27:20.242Z</time></trkpt><trkpt lat="40.7292514" lon="9.4540052"><ele>571.5</ele><time>2026-04-12T09:27:21.34Z</time></trkpt><trkpt lat="40.7291382" lon="9.453992"><ele>571.75</ele><time>2026-04-12T09:27:22.333Z</time></trkpt><trkpt lat="40.7290209" lon="9.4539915"><ele>572.0</ele><time>2026-04-12T09:27:23.356Z</time></trkpt><trkpt lat="40.7289008" lon="9.4540021"><ele>572.0</ele><time>2026-04-12T09:27:24.331Z</time></trkpt><trkpt lat="40.7287683" lon="9.4540165"><ele>572.0</ele><time>2026-04-12T09:27:25.337Z</time></trkpt><trkpt lat="40.7286286" lon="9.4540264"><ele>572.0</ele><time>2026-04-12T09:27:26.332Z</time></trkpt><trkpt lat="40.7284918" lon="9.4540436"><ele>572.0</ele><time>2026-04-12T09:27:27.333Z</time></trkpt><trkpt lat="40.7283689" lon="9.454062"><ele>572.0</ele><time>2026-04-12T09:27:28.33Z</time></trkpt><trkpt lat="40.7282491" lon="9.454084"><ele>572.0</ele><time>2026-04-12T09:27:29.329Z</time></trkpt><trkpt lat="40.7281282" lon="9.4540942"><ele>572.0</ele><time>2026-04-12T09:27:30.326Z</time></trkpt><trkpt lat="40.7279918" lon="9.4541014"><ele>572.0</ele><time>2026-04-12T09:27:31.326Z</time></trkpt><trkpt lat="40.7278481" lon="9.4541015"><ele>572.25</ele><time>2026-04-12T09:27:32.324Z</time></trkpt><trkpt lat="40.7277103" lon="9.454098"><ele>572.5</ele><time>2026-04-12T09:27:33.32Z</time></trkpt><trkpt lat="40.7275877" lon="9.4540929"><ele>572.75</ele><time>2026-04-12T09:27:34.317Z</time></trkpt><trkpt lat="40.7274721" lon="9.4540989"><ele>573.0</ele><time>2026-04-12T09:27:35.323Z</time></trkpt><trkpt lat="40.7273534" lon="9.4541037"><ele>573.0</ele><time>2026-04-12T09:27:36.322Z</time></trkpt><trkpt lat="40.7272258" lon="9.4541035"><ele>573.0</ele><time>2026-04-12T09:27:37.317Z</time></trkpt><trkpt lat="40.7271049" lon="9.4541056"><ele>573.0</ele><time>2026-04-12T09:27:38.323Z</time></trkpt><trkpt lat="40.7269935" lon="9.454104"><ele>573.0</ele><time>2026-04-12T09:27:39.319Z</time></trkpt><trkpt lat="40.7268821" lon="9.454099"><ele>574.0</ele><time>2026-04-12T09:27:40.314Z</time></trkpt><trkpt lat="40.7267673" lon="9.4540895"><ele>575.0</ele><time>2026-04-12T09:27:41.313Z</time></trkpt><trkpt lat="40.7266533" lon="9.4540744"><ele>576.0</ele><time>2026-04-12T09:27:42.314Z</time></trkpt><trkpt lat="40.7265335" lon="9.4540586"><ele>577.0</ele><time>2026-04-12T09:27:43.321Z</time></trkpt><trkpt lat="40.7264093" lon="9.454042"><ele>577.0</ele><time>2026-04-12T09:27:44.316Z</time></trkpt><trkpt lat="40.726279" lon="9.4540384"><ele>577.0</ele><time>2026-04-12T09:27:45.323Z</time></trkpt><trkpt lat="40.7261534" lon="9.4540361"><ele>577.0</ele><time>2026-04-12T09:27:46.308Z</time></trkpt><trkpt lat="40.7260437" lon="9.4540354"><ele>577.0</ele><time>2026-04-12T09:27:47.313Z</time></trkpt><trkpt lat="40.7259342" lon="9.4540406"><ele>577.5</ele><time>2026-04-12T09:27:48.33Z</time></trkpt><trkpt lat="40.7258204" lon="9.454057"><ele>578.0</ele><time>2026-04-12T09:27:49.317Z</time></trkpt><trkpt lat="40.7257048" lon="9.4540685"><ele>578.5</ele><time>2026-04-12T09:27:50.308Z</time></trkpt><trkpt lat="40.7255902" lon="9.4540867"><ele>579.0</ele><time>2026-04-12T09:27:51.313Z</time></trkpt><trkpt lat="40.7254777" lon="9.4541034"><ele>579.0</ele><time>2026-04-12T09:27:52.307Z</time></trkpt><trkpt lat="40.7253694" lon="9.4541172"><ele>579.0</ele><time>2026-04-12T09:27:53.305Z</time></trkpt><trkpt lat="40.7252617" lon="9.4541347"><ele>579.0</ele><time>2026-04-12T09:27:54.315Z</time></trkpt><trkpt lat="40.7251508" lon="9.4541575"><ele>579.0</ele><time>2026-04-12T09:27:55.299Z</time></trkpt><trkpt lat="40.7250329" lon="9.4541855"><ele>579.0</ele><time>2026-04-12T09:27:56.299Z</time></trkpt><trkpt lat="40.7249099" lon="9.4542158"><ele>579.5</ele><time>2026-04-12T09:27:57.308Z</time></trkpt><trkpt lat="40.7247817" lon="9.4542401"><ele>580.0</ele><time>2026-04-12T09:27:58.314Z</time></trkpt><trkpt lat="40.7246526" lon="9.454266"><ele>580.5</ele><time>2026-04-12T09:27:59.308Z</time></trkpt><trkpt lat="40.724523" lon="9.4542876"><ele>581.0</ele><time>2026-04-12T09:28:00.312Z</time></trkpt><trkpt lat="40.7243862" lon="9.4543003"><ele>582.25</ele><time>2026-04-12T09:28:01.298Z</time></trkpt><trkpt lat="40.7242489" lon="9.4543122"><ele>583.5</ele><time>2026-04-12T09:28:02.305Z</time></trkpt><trkpt lat="40.7241285" lon="9.454325"><ele>584.75</ele><time>2026-04-12T09:28:03.373Z</time></trkpt><trkpt lat="40.7240146" lon="9.4543337"><ele>586.0</ele><time>2026-04-12T09:28:04.294Z</time></trkpt><trkpt lat="40.7239069" lon="9.4543408"><ele>586.0</ele><time>2026-04-12T09:28:05.31Z</time></trkpt><trkpt lat="40.7238001" lon="9.4543573"><ele>586.0</ele><time>2026-04-12T09:28:06.298Z</time></trkpt><trkpt lat="40.7236931" lon="9.4543736"><ele>586.0</ele><time>2026-04-12T09:28:07.295Z</time></trkpt><trkpt lat="40.7235787" lon="9.4543869"><ele>586.0</ele><time>2026-04-12T09:28:08.292Z</time></trkpt><trkpt lat="40.7234694" lon="9.4544034"><ele>586.0</ele><time>2026-04-12T09:28:09.302Z</time></trkpt><trkpt lat="40.7233645" lon="9.4544212"><ele>586.75</ele><time>2026-04-12T09:28:10.287Z</time></trkpt><trkpt lat="40.7232517" lon="9.4544286"><ele>587.5</ele><time>2026-04-12T09:28:11.286Z</time></trkpt><trkpt lat="40.7231334" lon="9.454421"><ele>588.25</ele><time>2026-04-12T09:28:12.289Z</time></trkpt><trkpt lat="40.7230128" lon="9.4544132"><ele>589.0</ele><time>2026-04-12T09:28:13.286Z</time></trkpt><trkpt lat="40.7228905" lon="9.4544103"><ele>589.0</ele><time>2026-04-12T09:28:14.294Z</time></trkpt><trkpt lat="40.7227836" lon="9.4544108"><ele>589.0</ele><time>2026-04-12T09:28:15.287Z</time></trkpt><trkpt lat="40.7226783" lon="9.4544263"><ele>589.0</ele><time>2026-04-12T09:28:16.298Z</time></trkpt><trkpt lat="40.7225631" lon="9.4544609"><ele>589.0</ele><time>2026-04-12T09:28:17.318Z</time></trkpt><trkpt lat="40.7224457" lon="9.4544975"><ele>590.0</ele><time>2026-04-12T09:28:18.28Z</time></trkpt><trkpt lat="40.7223338" lon="9.4545171"><ele>591.0</ele><time>2026-04-12T09:28:19.279Z</time></trkpt><trkpt lat="40.7222248" lon="9.4545223"><ele>592.0</ele><time>2026-04-12T09:28:20.28Z</time></trkpt><trkpt lat="40.7221114" lon="9.4545343"><ele>593.0</ele><time>2026-04-12T09:28:21.288Z</time></trkpt><trkpt lat="40.7219952" lon="9.4545493"><ele>593.5</ele><time>2026-04-12T09:28:22.277Z</time></trkpt><trkpt lat="40.7218857" lon="9.4545649"><ele>594.0</ele><time>2026-04-12T09:28:23.286Z</time></trkpt><trkpt lat="40.721774" lon="9.4545945"><ele>594.5</ele><time>2026-04-12T09:28:24.279Z</time></trkpt><trkpt lat="40.7216581" lon="9.4546354"><ele>595.0</ele><time>2026-04-12T09:28:25.277Z</time></trkpt><trkpt lat="40.7215333" lon="9.454684"><ele>595.5</ele><time>2026-04-12T09:28:26.281Z</time></trkpt><trkpt lat="40.7214007" lon="9.4547299"><ele>596.0</ele><time>2026-04-12T09:28:27.286Z</time></trkpt><trkpt lat="40.7212685" lon="9.4547854"><ele>596.5</ele><time>2026-04-12T09:28:28.281Z</time></trkpt><trkpt lat="40.7211391" lon="9.4548567"><ele>597.0</ele><time>2026-04-12T09:28:29.282Z</time></trkpt><trkpt lat="40.7210091" lon="9.4549162"><ele>596.0</ele><time>2026-04-12T09:28:30.278Z</time></trkpt><trkpt lat="40.7208798" lon="9.4549581"><ele>595.0</ele><time>2026-04-12T09:28:31.28Z</time></trkpt><trkpt lat="40.7207491" lon="9.4549898"><ele>594.0</ele><time>2026-04-12T09:28:32.274Z</time></trkpt><trkpt lat="40.7206314" lon="9.4550071"><ele>593.0</ele><time>2026-04-12T09:28:33.297Z</time></trkpt><trkpt lat="40.7205182" lon="9.4550159"><ele>593.0</ele><time>2026-04-12T09:28:34.271Z</time></trkpt><trkpt lat="40.7203903" lon="9.4550074"><ele>593.0</ele><time>2026-04-12T09:28:35.278Z</time></trkpt><trkpt lat="40.7202544" lon="9.4549879"><ele>593.0</ele><time>2026-04-12T09:28:36.267Z</time></trkpt><trkpt lat="40.7201235" lon="9.4549703"><ele>593.0</ele><time>2026-04-12T09:28:37.266Z</time></trkpt><trkpt lat="40.7199948" lon="9.4549696"><ele>593.3333333333333</ele><time>2026-04-12T09:28:38.272Z</time></trkpt><trkpt lat="40.7198619" lon="9.4549798"><ele>593.6666666666666</ele><time>2026-04-12T09:28:39.271Z</time></trkpt><trkpt lat="40.7197107" lon="9.4549911"><ele>594.0</ele><time>2026-04-12T09:28:40.264Z</time></trkpt><trkpt lat="40.7195433" lon="9.4550047"><ele>593.0</ele><time>2026-04-12T09:28:41.267Z</time></trkpt><trkpt lat="40.7193776" lon="9.4550154"><ele>592.0</ele><time>2026-04-12T09:28:42.277Z</time></trkpt><trkpt lat="40.7192242" lon="9.4550175"><ele>591.0</ele><time>2026-04-12T09:28:43.279Z</time></trkpt><trkpt lat="40.7190919" lon="9.4550099"><ele>591.0</ele><time>2026-04-12T09:28:44.295Z</time></trkpt><trkpt lat="40.7189724" lon="9.4550091"><ele>591.0</ele><time>2026-04-12T09:28:45.269Z</time></trkpt><trkpt lat="40.7188702" lon="9.4550003"><ele>591.0</ele><time>2026-04-12T09:28:46.279Z</time></trkpt><trkpt lat="40.7187773" lon="9.4549908"><ele>591.0</ele><time>2026-04-12T09:28:47.264Z</time></trkpt><trkpt lat="40.71869" lon="9.4549938"><ele>591.0</ele><time>2026-04-12T09:28:48.261Z</time></trkpt><trkpt lat="40.7186163" lon="9.4550092"><ele>589.8333333333334</ele><time>2026-04-12T09:28:49.26Z</time></trkpt><trkpt lat="40.7185499" lon="9.4550373"><ele>588.6666666666666</ele><time>2026-04-12T09:28:50.268Z</time></trkpt><trkpt lat="40.7184879" lon="9.4550815"><ele>587.5</ele><time>2026-04-12T09:28:51.263Z</time></trkpt><trkpt lat="40.718418" lon="9.4551453"><ele>586.3333333333333</ele><time>2026-04-12T09:28:52.256Z</time></trkpt><trkpt lat="40.7183357" lon="9.4552264"><ele>585.1666666666666</ele><time>2026-04-12T09:28:53.261Z</time></trkpt><trkpt lat="40.718252" lon="9.4553198"><ele>584.0</ele><time>2026-04-12T09:28:54.256Z</time></trkpt><trkpt lat="40.7181737" lon="9.4554142"><ele>585.0</ele><time>2026-04-12T09:28:55.263Z</time></trkpt><trkpt lat="40.7181086" lon="9.4555224"><ele>586.0</ele><time>2026-04-12T09:28:56.259Z</time></trkpt><trkpt lat="40.7180349" lon="9.4556317"><ele>587.0</ele><time>2026-04-12T09:28:57.254Z</time></trkpt><trkpt lat="40.7179555" lon="9.4557354"><ele>588.0</ele><time>2026-04-12T09:28:58.265Z</time></trkpt><trkpt lat="40.7178686" lon="9.4558319"><ele>589.0</ele><time>2026-04-12T09:28:59.256Z</time></trkpt><trkpt lat="40.7177907" lon="9.455911"><ele>589.0</ele><time>2026-04-12T09:29:00.249Z</time></trkpt><trkpt lat="40.71774" lon="9.4559768"><ele>589.0</ele><time>2026-04-12T09:29:01.268Z</time></trkpt><trkpt lat="40.7176739" lon="9.4561103"><ele>589.0</ele><time>2026-04-12T09:29:03.254Z</time></trkpt><trkpt lat="40.7175684" lon="9.4561861"><ele>589.0</ele><time>2026-04-12T09:29:05.256Z</time></trkpt><trkpt lat="40.7175063" lon="9.4562002"><ele>589.0</ele><time>2026-04-12T09:29:06.256Z</time></trkpt><trkpt lat="40.717414" lon="9.4562772"><ele>586.2</ele><time>2026-04-12T09:29:08.259Z</time></trkpt><trkpt lat="40.7174084" lon="9.4564058"><ele>583.4</ele><time>2026-04-12T09:29:10.25Z</time></trkpt><trkpt lat="40.7174287" lon="9.4565807"><ele>580.6</ele><time>2026-04-12T09:29:12.256Z</time></trkpt><trkpt lat="40.7174454" lon="9.4566766"><ele>577.8</ele><time>2026-04-12T09:29:13.244Z</time></trkpt><trkpt lat="40.7174528" lon="9.4568206"><ele>575.0</ele><time>2026-04-12T09:29:15.25Z</time></trkpt><trkpt lat="40.7173837" lon="9.4569025"><ele>575.0</ele><time>2026-04-12T09:29:17.245Z</time></trkpt><trkpt lat="40.7172644" lon="9.4568904"><ele>575.0</ele><time>2026-04-12T09:29:19.243Z</time></trkpt><trkpt lat="40.7171939" lon="9.4568589"><ele>575.0</ele><time>2026-04-12T09:29:20.244Z</time></trkpt><trkpt lat="40.7171172" lon="9.4568327"><ele>575.0</ele><time>2026-04-12T09:29:21.24Z</time></trkpt><trkpt lat="40.7170415" lon="9.4568125"><ele>575.0</ele><time>2026-04-12T09:29:22.245Z</time></trkpt><trkpt lat="40.7169652" lon="9.4567913"><ele>575.0</ele><time>2026-04-12T09:29:23.258Z</time></trkpt><trkpt lat="40.7168819" lon="9.456785"><ele>572.5</ele><time>2026-04-12T09:29:24.238Z</time></trkpt><trkpt lat="40.7167965" lon="9.4567797"><ele>570.0</ele><time>2026-04-12T09:29:25.233Z</time></trkpt><trkpt lat="40.7167124" lon="9.4567693"><ele>567.5</ele><time>2026-04-12T09:29:26.339Z</time></trkpt><trkpt lat="40.7166362" lon="9.4567458"><ele>565.0</ele><time>2026-04-12T09:29:27.337Z</time></trkpt><trkpt lat="40.7165702" lon="9.456701"><ele>562.5</ele><time>2026-04-12T09:29:28.339Z</time></trkpt><trkpt lat="40.7165172" lon="9.4566532"><ele>560.0</ele><time>2026-04-12T09:29:29.333Z</time></trkpt><trkpt lat="40.7164501" lon="9.4565541"><ele>560.0</ele><time>2026-04-12T09:29:31.327Z</time></trkpt><trkpt lat="40.7164004" lon="9.4564851"><ele>560.0</ele><time>2026-04-12T09:29:33.36Z</time></trkpt><trkpt lat="40.7163285" lon="9.4564301"><ele>560.0</ele><time>2026-04-12T09:29:35.335Z</time></trkpt><trkpt lat="40.7162328" lon="9.4563995"><ele>560.0</ele><time>2026-04-12T09:29:37.337Z</time></trkpt><trkpt lat="40.7161701" lon="9.4563753"><ele>560.0</ele><time>2026-04-12T09:29:38.327Z</time></trkpt><trkpt lat="40.7160984" lon="9.4563425"><ele>560.0</ele><time>2026-04-12T09:29:39.34Z</time></trkpt><trkpt lat="40.7160315" lon="9.4563103"><ele>559.3333333333333</ele><time>2026-04-12T09:29:40.316Z</time></trkpt><trkpt lat="40.7159193" lon="9.456232"><ele>558.6666666666666</ele><time>2026-04-12T09:29:42.323Z</time></trkpt><trkpt lat="40.7158608" lon="9.4561725"><ele>558.0</ele><time>2026-04-12T09:29:43.328Z</time></trkpt><trkpt lat="40.7158028" lon="9.4561079"><ele>557.3333333333334</ele><time>2026-04-12T09:29:44.325Z</time></trkpt><trkpt lat="40.715744" lon="9.4560462"><ele>556.6666666666667</ele><time>2026-04-12T09:29:45.343Z</time></trkpt><trkpt lat="40.7156874" lon="9.4559944"><ele>556.0</ele><time>2026-04-12T09:29:46.323Z</time></trkpt><trkpt lat="40.7156211" lon="9.4559519"><ele>556.0</ele><time>2026-04-12T09:29:47.343Z</time></trkpt><trkpt lat="40.7155444" lon="9.4559105"><ele>556.0</ele><time>2026-04-12T09:29:48.32Z</time></trkpt><trkpt lat="40.7154678" lon="9.4558784"><ele>556.0</ele><time>2026-04-12T09:29:49.32Z</time></trkpt><trkpt lat="40.7153983" lon="9.4558514"><ele>556.0</ele><time>2026-04-12T09:29:50.312Z</time></trkpt><trkpt lat="40.7153394" lon="9.4558216"><ele>556.0</ele><time>2026-04-12T09:29:51.325Z</time></trkpt><trkpt lat="40.7152478" lon="9.4557346"><ele>556.0</ele><time>2026-04-12T09:29:53.308Z</time></trkpt><trkpt lat="40.7152142" lon="9.4556545"><ele>554.7142857142857</ele><time>2026-04-12T09:29:54.31Z</time></trkpt><trkpt lat="40.7151796" lon="9.4555766"><ele>553.4285714285714</ele><time>2026-04-12T09:29:55.313Z</time></trkpt><trkpt lat="40.7151373" lon="9.4555012"><ele>552.1428571428571</ele><time>2026-04-12T09:29:56.334Z</time></trkpt><trkpt lat="40.7150793" lon="9.4554368"><ele>550.8571428571429</ele><time>2026-04-12T09:29:57.331Z</time></trkpt><trkpt lat="40.7150139" lon="9.4553913"><ele>549.5714285714286</ele><time>2026-04-12T09:29:58.324Z</time></trkpt><trkpt lat="40.7149427" lon="9.4553742"><ele>548.2857142857142</ele><time>2026-04-12T09:29:59.314Z</time></trkpt><trkpt lat="40.714871" lon="9.4553847"><ele>547.0</ele><time>2026-04-12T09:30:00.308Z</time></trkpt><trkpt lat="40.7147873" lon="9.4554051"><ele>547.0</ele><time>2026-04-12T09:30:01.302Z</time></trkpt><trkpt lat="40.7147064" lon="9.4554158"><ele>547.0</ele><time>2026-04-12T09:30:02.305Z</time></trkpt><trkpt lat="40.7146337" lon="9.4553908"><ele>547.0</ele><time>2026-04-12T09:30:03.305Z</time></trkpt><trkpt lat="40.7145599" lon="9.4553553"><ele>547.0</ele><time>2026-04-12T09:30:04.305Z</time></trkpt><trkpt lat="40.7144876" lon="9.4553238"><ele>547.0</ele><time>2026-04-12T09:30:05.321Z</time></trkpt><trkpt lat="40.7144137" lon="9.4553123"><ele>547.0</ele><time>2026-04-12T09:30:06.303Z</time></trkpt><trkpt lat="40.7143317" lon="9.4553199"><ele>545.4</ele><time>2026-04-12T09:30:07.316Z</time></trkpt><trkpt lat="40.7142426" lon="9.455322"><ele>543.8000000000001</ele><time>2026-04-12T09:30:08.315Z</time></trkpt><trkpt lat="40.7141537" lon="9.4553111"><ele>542.2</ele><time>2026-04-12T09:30:09.306Z</time></trkpt><trkpt lat="40.7140597" lon="9.4552962"><ele>540.6</ele><time>2026-04-12T09:30:10.324Z</time></trkpt><trkpt lat="40.7139709" lon="9.4552722"><ele>539.0</ele><time>2026-04-12T09:30:11.308Z</time></trkpt><trkpt lat="40.7138805" lon="9.4552417"><ele>539.0</ele><time>2026-04-12T09:30:12.309Z</time></trkpt><trkpt lat="40.7137908" lon="9.4552132"><ele>539.0</ele><time>2026-04-12T09:30:13.304Z</time></trkpt><trkpt lat="40.7137063" lon="9.4551961"><ele>539.0</ele><time>2026-04-12T09:30:14.301Z</time></trkpt><trkpt lat="40.7136254" lon="9.4552062"><ele>539.0</ele><time>2026-04-12T09:30:15.326Z</time></trkpt><trkpt lat="40.7135473" lon="9.4552462"><ele>539.0</ele><time>2026-04-12T09:30:16.313Z</time></trkpt><trkpt lat="40.7134705" lon="9.4553034"><ele>539.0</ele><time>2026-04-12T09:30:17.314Z</time></trkpt><trkpt lat="40.7134" lon="9.4553545"><ele>538.8333333333333</ele><time>2026-04-12T09:30:18.294Z</time></trkpt><trkpt lat="40.7133234" lon="9.4554021"><ele>538.6666666666666</ele><time>2026-04-12T09:30:19.302Z</time></trkpt><trkpt lat="40.7132458" lon="9.4554421"><ele>538.5</ele><time>2026-04-12T09:30:20.297Z</time></trkpt><trkpt lat="40.7131692" lon="9.4554723"><ele>538.3333333333334</ele><time>2026-04-12T09:30:21.293Z</time></trkpt><trkpt lat="40.713099" lon="9.455515"><ele>538.1666666666667</ele><time>2026-04-12T09:30:22.292Z</time></trkpt><trkpt lat="40.7130299" lon="9.455576"><ele>538.0</ele><time>2026-04-12T09:30:23.289Z</time></trkpt><trkpt lat="40.7129563" lon="9.4556338"><ele>533.6</ele><time>2026-04-12T09:30:24.311Z</time></trkpt><trkpt lat="40.7128776" lon="9.45568"><ele>529.1999999999999</ele><time>2026-04-12T09:30:25.295Z</time></trkpt><trkpt lat="40.7127849" lon="9.4557116"><ele>524.8</ele><time>2026-04-12T09:30:26.3Z</time></trkpt><trkpt lat="40.712687" lon="9.4557271"><ele>520.4</ele><time>2026-04-12T09:30:27.289Z</time></trkpt><trkpt lat="40.7125924" lon="9.4557381"><ele>516.0</ele><time>2026-04-12T09:30:28.29Z</time></trkpt><trkpt lat="40.7125014" lon="9.4557416"><ele>515.1666666666666</ele><time>2026-04-12T09:30:29.295Z</time></trkpt><trkpt lat="40.7124096" lon="9.4557467"><ele>514.3333333333334</ele><time>2026-04-12T09:30:30.306Z</time></trkpt><trkpt lat="40.7123232" lon="9.4557675"><ele>513.5</ele><time>2026-04-12T09:30:31.281Z</time></trkpt><trkpt lat="40.7122452" lon="9.4558079"><ele>512.6666666666667</ele><time>2026-04-12T09:30:32.278Z</time></trkpt><trkpt lat="40.7121773" lon="9.4558649"><ele>511.83333333333337</ele><time>2026-04-12T09:30:33.278Z</time></trkpt><trkpt lat="40.7121173" lon="9.4559471"><ele>511.0</ele><time>2026-04-12T09:30:34.279Z</time></trkpt><trkpt lat="40.7120591" lon="9.4560268"><ele>511.0</ele><time>2026-04-12T09:30:35.285Z</time></trkpt><trkpt lat="40.7119859" lon="9.4561003"><ele>511.0</ele><time>2026-04-12T09:30:36.284Z</time></trkpt><trkpt lat="40.7119024" lon="9.4561526"><ele>511.0</ele><time>2026-04-12T09:30:37.281Z</time></trkpt><trkpt lat="40.7118082" lon="9.4561988"><ele>511.0</ele><time>2026-04-12T09:30:38.279Z</time></trkpt><trkpt lat="40.7117087" lon="9.4562402"><ele>511.0</ele><time>2026-04-12T09:30:39.283Z</time></trkpt><trkpt lat="40.7116099" lon="9.4562878"><ele>507.6</ele><time>2026-04-12T09:30:40.27Z</time></trkpt><trkpt lat="40.7115118" lon="9.4563327"><ele>504.20000000000005</ele><time>2026-04-12T09:30:41.296Z</time></trkpt><trkpt lat="40.7114044" lon="9.4563789"><ele>500.79999999999995</ele><time>2026-04-12T09:30:42.283Z</time></trkpt><trkpt lat="40.7112869" lon="9.4564285"><ele>497.4</ele><time>2026-04-12T09:30:43.268Z</time></trkpt><trkpt lat="40.7111849" lon="9.456476"><ele>494.0</ele><time>2026-04-12T09:30:44.263Z</time></trkpt><trkpt lat="40.7110906" lon="9.45652"><ele>493.6</ele><time>2026-04-12T09:30:45.272Z</time></trkpt><trkpt lat="40.7109997" lon="9.4565676"><ele>493.2</ele><time>2026-04-12T09:30:46.269Z</time></trkpt><trkpt lat="40.7109102" lon="9.4566113"><ele>492.80000000000007</ele><time>2026-04-12T09:30:47.269Z</time></trkpt><trkpt lat="40.7108172" lon="9.456648"><ele>492.40000000000003</ele><time>2026-04-12T09:30:48.286Z</time></trkpt><trkpt lat="40.7107261" lon="9.4566774"><ele>492.0</ele><time>2026-04-12T09:30:49.266Z</time></trkpt><trkpt lat="40.7106375" lon="9.456702"><ele>492.0</ele><time>2026-04-12T09:30:50.279Z</time></trkpt><trkpt lat="40.7105499" lon="9.4567239"><ele>492.0</ele><time>2026-04-12T09:30:51.272Z</time></trkpt><trkpt lat="40.7104618" lon="9.456743"><ele>492.0</ele><time>2026-04-12T09:30:52.272Z</time></trkpt><trkpt lat="40.7103773" lon="9.4567603"><ele>492.0</ele><time>2026-04-12T09:30:53.259Z</time></trkpt><trkpt lat="40.7102945" lon="9.456775"><ele>492.0</ele><time>2026-04-12T09:30:54.258Z</time></trkpt><trkpt lat="40.7102106" lon="9.4567927"><ele>492.0</ele><time>2026-04-12T09:30:55.274Z</time></trkpt><trkpt lat="40.7101265" lon="9.4568067"><ele>491.3333333333333</ele><time>2026-04-12T09:30:56.251Z</time></trkpt><trkpt lat="40.71004" lon="9.4568205"><ele>490.66666666666663</ele><time>2026-04-12T09:30:57.267Z</time></trkpt><trkpt lat="40.7099519" lon="9.4568398"><ele>490.0</ele><time>2026-04-12T09:30:58.256Z</time></trkpt><trkpt lat="40.7098781" lon="9.4568712"><ele>489.3333333333333</ele><time>2026-04-12T09:30:59.249Z</time></trkpt><trkpt lat="40.7098168" lon="9.4569203"><ele>488.66666666666663</ele><time>2026-04-12T09:31:00.251Z</time></trkpt><trkpt lat="40.7097789" lon="9.4569895"><ele>488.0</ele><time>2026-04-12T09:31:01.268Z</time></trkpt><trkpt lat="40.7097643" lon="9.4570827"><ele>486.66666666666663</ele><time>2026-04-12T09:31:02.249Z</time></trkpt><trkpt lat="40.7097443" lon="9.4571836"><ele>485.3333333333333</ele><time>2026-04-12T09:31:03.255Z</time></trkpt><trkpt lat="40.7097128" lon="9.4572872"><ele>484.0</ele><time>2026-04-12T09:31:04.239Z</time></trkpt><trkpt lat="40.7096683" lon="9.4573907"><ele>482.66666666666663</ele><time>2026-04-12T09:31:05.255Z</time></trkpt><trkpt lat="40.7096092" lon="9.45749"><ele>481.3333333333333</ele><time>2026-04-12T09:31:06.243Z</time></trkpt><trkpt lat="40.7095444" lon="9.4575833"><ele>480.0</ele><time>2026-04-12T09:31:07.248Z</time></trkpt><trkpt lat="40.7094656" lon="9.4576671"><ele>480.4</ele><time>2026-04-12T09:31:08.237Z</time></trkpt><trkpt lat="40.7093851" lon="9.4577507"><ele>480.8</ele><time>2026-04-12T09:31:09.234Z</time></trkpt><trkpt lat="40.7093014" lon="9.457836"><ele>481.20000000000005</ele><time>2026-04-12T09:31:10.238Z</time></trkpt><trkpt lat="40.7092247" lon="9.4579125"><ele>481.6</ele><time>2026-04-12T09:31:11.347Z</time></trkpt><trkpt lat="40.709151" lon="9.4579824"><ele>482.0</ele><time>2026-04-12T09:31:12.333Z</time></trkpt><trkpt lat="40.7090909" lon="9.4580429"><ele>482.0</ele><time>2026-04-12T09:31:13.336Z</time></trkpt><trkpt lat="40.7090304" lon="9.4580874"><ele>482.00000000000006</ele><time>2026-04-12T09:31:14.346Z</time></trkpt><trkpt lat="40.7089626" lon="9.4581297"><ele>482.0</ele><time>2026-04-12T09:31:15.348Z</time></trkpt><trkpt lat="40.7088977" lon="9.4581672"><ele>482.0</ele><time>2026-04-12T09:31:16.339Z</time></trkpt><trkpt lat="40.7088353" lon="9.4582088"><ele>482.00000000000006</ele><time>2026-04-12T09:31:17.33Z</time></trkpt><trkpt lat="40.7087694" lon="9.4582595"><ele>482.0</ele><time>2026-04-12T09:31:18.335Z</time></trkpt><trkpt lat="40.7087011" lon="9.4583246"><ele>482.0</ele><time>2026-04-12T09:31:19.333Z</time></trkpt><trkpt lat="40.7086258" lon="9.4583905"><ele>482.20000000000005</ele><time>2026-04-12T09:31:20.329Z</time></trkpt><trkpt lat="40.7085443" lon="9.4584511"><ele>482.40000000000003</ele><time>2026-04-12T09:31:21.337Z</time></trkpt><trkpt lat="40.7084573" lon="9.4585016"><ele>482.59999999999997</ele><time>2026-04-12T09:31:22.342Z</time></trkpt><trkpt lat="40.7083676" lon="9.4585518"><ele>482.79999999999995</ele><time>2026-04-12T09:31:23.329Z</time></trkpt><trkpt lat="40.7082811" lon="9.4585999"><ele>483.0</ele><time>2026-04-12T09:31:24.321Z</time></trkpt><trkpt lat="40.7081888" lon="9.458659"><ele>483.0</ele><time>2026-04-12T09:31:25.324Z</time></trkpt><trkpt lat="40.7080904" lon="9.4587352"><ele>482.99999999999994</ele><time>2026-04-12T09:31:26.324Z</time></trkpt><trkpt lat="40.7079968" lon="9.458816"><ele>482.99999999999994</ele><time>2026-04-12T09:31:27.329Z</time></trkpt><trkpt lat="40.7079053" lon="9.4588987"><ele>483.0</ele><time>2026-04-12T09:31:28.339Z</time></trkpt><trkpt lat="40.7078182" lon="9.4589774"><ele>483.0</ele><time>2026-04-12T09:31:29.33Z</time></trkpt><trkpt lat="40.7077399" lon="9.4590467"><ele>477.2</ele><time>2026-04-12T09:31:30.314Z</time></trkpt><trkpt lat="40.7076589" lon="9.4591135"><ele>471.4</ele><time>2026-04-12T09:31:31.325Z</time></trkpt><trkpt lat="40.7075689" lon="9.4591738"><ele>465.59999999999997</ele><time>2026-04-12T09:31:32.317Z</time></trkpt><trkpt lat="40.7074691" lon="9.4592226"><ele>459.79999999999995</ele><time>2026-04-12T09:31:33.327Z</time></trkpt><trkpt lat="40.7073701" lon="9.4592654"><ele>454.0</ele><time>2026-04-12T09:31:34.326Z</time></trkpt><trkpt lat="40.7072708" lon="9.4593123"><ele>454.0</ele><time>2026-04-12T09:31:35.325Z</time></trkpt><trkpt lat="40.7071706" lon="9.459362"><ele>454.0</ele><time>2026-04-12T09:31:36.318Z</time></trkpt><trkpt lat="40.7070745" lon="9.4594271"><ele>454.0</ele><time>2026-04-12T09:31:37.317Z</time></trkpt><trkpt lat="40.7069832" lon="9.4595025"><ele>454.0</ele><time>2026-04-12T09:31:38.318Z</time></trkpt><trkpt lat="40.7068977" lon="9.4595666"><ele>454.0</ele><time>2026-04-12T09:31:39.319Z</time></trkpt><trkpt lat="40.7068275" lon="9.4596257"><ele>452.0</ele><time>2026-04-12T09:31:40.326Z</time></trkpt><trkpt lat="40.7067695" lon="9.4596835"><ele>450.0</ele><time>2026-04-12T09:31:41.325Z</time></trkpt><trkpt lat="40.706707" lon="9.4597454"><ele>448.0</ele><time>2026-04-12T09:31:42.366Z</time></trkpt><trkpt lat="40.7066351" lon="9.4598232"><ele>446.0</ele><time>2026-04-12T09:31:43.308Z</time></trkpt><trkpt lat="40.7065542" lon="9.4599269"><ele>444.0</ele><time>2026-04-12T09:31:44.301Z</time></trkpt><trkpt lat="40.7064681" lon="9.4600445"><ele>444.0</ele><time>2026-04-12T09:31:45.307Z</time></trkpt><trkpt lat="40.7063766" lon="9.4601712"><ele>444.0</ele><time>2026-04-12T09:31:46.304Z</time></trkpt><trkpt lat="40.7062877" lon="9.4602923"><ele>444.0</ele><time>2026-04-12T09:31:47.299Z</time></trkpt><trkpt lat="40.7062063" lon="9.4603965"><ele>444.0</ele><time>2026-04-12T09:31:48.31Z</time></trkpt><trkpt lat="40.7061156" lon="9.4605047"><ele>442.5</ele><time>2026-04-12T09:31:49.299Z</time></trkpt><trkpt lat="40.7060288" lon="9.4606101"><ele>441.0</ele><time>2026-04-12T09:31:50.297Z</time></trkpt><trkpt lat="40.7059363" lon="9.4607124"><ele>439.5</ele><time>2026-04-12T09:31:51.311Z</time></trkpt><trkpt lat="40.7058469" lon="9.4607975"><ele>438.0</ele><time>2026-04-12T09:31:52.295Z</time></trkpt><trkpt lat="40.7057649" lon="9.4608763"><ele>438.0</ele><time>2026-04-12T09:31:53.298Z</time></trkpt><trkpt lat="40.7056883" lon="9.4609668"><ele>438.0</ele><time>2026-04-12T09:31:54.3Z</time></trkpt><trkpt lat="40.7056207" lon="9.4610507"><ele>438.0</ele><time>2026-04-12T09:31:55.302Z</time></trkpt><trkpt lat="40.7055556" lon="9.4611245"><ele>438.0</ele><time>2026-04-12T09:31:56.315Z</time></trkpt><trkpt lat="40.7054956" lon="9.4612023"><ele>438.0</ele><time>2026-04-12T09:31:57.292Z</time></trkpt><trkpt lat="40.7054427" lon="9.461274"><ele>438.0</ele><time>2026-04-12T09:31:58.292Z</time></trkpt><trkpt lat="40.7053804" lon="9.461361"><ele>437.4</ele><time>2026-04-12T09:32:00.306Z</time></trkpt><trkpt lat="40.7053751" lon="9.4614561"><ele>436.79999999999995</ele><time>2026-04-12T09:33:43.356Z</time></trkpt><trkpt lat="40.7053533" lon="9.4616153"><ele>436.2</ele><time>2026-04-12T09:33:45.34Z</time></trkpt><trkpt lat="40.7053479" lon="9.4617325"><ele>435.6</ele><time>2026-04-12T09:33:46.331Z</time></trkpt><trkpt lat="40.705354" lon="9.4618618"><ele>435.0</ele><time>2026-04-12T09:33:47.333Z</time></trkpt><trkpt lat="40.7053631" lon="9.4619894"><ele>435.0</ele><time>2026-04-12T09:33:48.338Z</time></trkpt><trkpt lat="40.7053719" lon="9.4621049"><ele>435.0</ele><time>2026-04-12T09:33:49.331Z</time></trkpt><trkpt lat="40.7053833" lon="9.4622118"><ele>435.0</ele><time>2026-04-12T09:33:50.332Z</time></trkpt><trkpt lat="40.7053927" lon="9.4623136"><ele>435.0</ele><time>2026-04-12T09:33:51.329Z</time></trkpt><trkpt lat="40.7053921" lon="9.4624219"><ele>435.0</ele><time>2026-04-12T09:33:52.33Z</time></trkpt><trkpt lat="40.7053815" lon="9.4625386"><ele>435.0</ele><time>2026-04-12T09:33:53.335Z</time></trkpt><trkpt lat="40.7053785" lon="9.4626569"><ele>434.6666666666667</ele><time>2026-04-12T09:33:54.33Z</time></trkpt><trkpt lat="40.7053736" lon="9.4627793"><ele>434.33333333333337</ele><time>2026-04-12T09:33:55.339Z</time></trkpt><trkpt lat="40.7053622" lon="9.4629065"><ele>434.0</ele><time>2026-04-12T09:33:56.327Z</time></trkpt><trkpt lat="40.7053467" lon="9.4630259"><ele>433.6666666666667</ele><time>2026-04-12T09:33:57.33Z</time></trkpt><trkpt lat="40.70533" lon="9.4631377"><ele>433.33333333333337</ele><time>2026-04-12T09:33:58.333Z</time></trkpt><trkpt lat="40.705304" lon="9.4632183"><ele>433.0</ele><time>2026-04-12T09:33:59.345Z</time></trkpt><trkpt lat="40.7052486" lon="9.4633096"><ele>432.2</ele><time>2026-04-12T09:34:01.333Z</time></trkpt><trkpt lat="40.7051546" lon="9.4633259"><ele>431.4</ele><time>2026-04-12T09:34:04.328Z</time></trkpt><trkpt lat="40.7050473" lon="9.4632292"><ele>430.59999999999997</ele><time>2026-04-12T09:34:06.343Z</time></trkpt><trkpt lat="40.7049754" lon="9.4631559"><ele>429.79999999999995</ele><time>2026-04-12T09:34:07.33Z</time></trkpt><trkpt lat="40.7049002" lon="9.4630803"><ele>429.0</ele><time>2026-04-12T09:34:08.324Z</time></trkpt><trkpt lat="40.7048275" lon="9.4630027"><ele>428.8333333333333</ele><time>2026-04-12T09:34:09.324Z</time></trkpt><trkpt lat="40.7047614" lon="9.4629302"><ele>428.66666666666663</ele><time>2026-04-12T09:34:10.314Z</time></trkpt><trkpt lat="40.7046892" lon="9.4628615"><ele>428.5</ele><time>2026-04-12T09:34:11.323Z</time></trkpt><trkpt lat="40.704619" lon="9.4627886"><ele>428.3333333333333</ele><time>2026-04-12T09:34:12.333Z</time></trkpt><trkpt lat="40.7045477" lon="9.4627182"><ele>428.16666666666663</ele><time>2026-04-12T09:34:13.337Z</time></trkpt><trkpt lat="40.7044717" lon="9.4626441"><ele>428.0</ele><time>2026-04-12T09:34:14.341Z</time></trkpt><trkpt lat="40.7043931" lon="9.4625715"><ele>428.59999999999997</ele><time>2026-04-12T09:34:15.322Z</time></trkpt><trkpt lat="40.7043088" lon="9.4624937"><ele>429.19999999999993</ele><time>2026-04-12T09:34:16.317Z</time></trkpt><trkpt lat="40.7042225" lon="9.4624149"><ele>429.8</ele><time>2026-04-12T09:34:17.318Z</time></trkpt><trkpt lat="40.7041342" lon="9.4623281"><ele>430.4</ele><time>2026-04-12T09:34:18.32Z</time></trkpt><trkpt lat="40.704047" lon="9.4622296"><ele>431.0</ele><time>2026-04-12T09:34:19.308Z</time></trkpt><trkpt lat="40.7039567" lon="9.4621214"><ele>432.0</ele><time>2026-04-12T09:34:20.321Z</time></trkpt><trkpt lat="40.7038642" lon="9.4620056"><ele>433.0</ele><time>2026-04-12T09:34:21.313Z</time></trkpt><trkpt lat="40.7037779" lon="9.461881"><ele>434.0</ele><time>2026-04-12T09:34:22.304Z</time></trkpt><trkpt lat="40.7036924" lon="9.4617528"><ele>435.0</ele><time>2026-04-12T09:34:23.314Z</time></trkpt><trkpt lat="40.7036079" lon="9.4616238"><ele>435.5</ele><time>2026-04-12T09:34:24.325Z</time></trkpt><trkpt lat="40.7035244" lon="9.4614972"><ele>436.0</ele><time>2026-04-12T09:34:25.318Z</time></trkpt><trkpt lat="40.7034353" lon="9.4613677"><ele>436.5</ele><time>2026-04-12T09:34:26.301Z</time></trkpt><trkpt lat="40.7033449" lon="9.4612347"><ele>437.0</ele><time>2026-04-12T09:34:27.313Z</time></trkpt><trkpt lat="40.7032534" lon="9.4610944"><ele>437.5</ele><time>2026-04-12T09:34:28.312Z</time></trkpt><trkpt lat="40.7031597" lon="9.4609536"><ele>438.0</ele><time>2026-04-12T09:34:29.3Z</time></trkpt><trkpt lat="40.7030595" lon="9.4608088"><ele>438.5</ele><time>2026-04-12T09:34:30.303Z</time></trkpt><trkpt lat="40.7029579" lon="9.460661"><ele>439.0</ele><time>2026-04-12T09:34:31.312Z</time></trkpt><trkpt lat="40.7028559" lon="9.4605074"><ele>439.0</ele><time>2026-04-12T09:34:32.309Z</time></trkpt><trkpt lat="40.7027507" lon="9.4603545"><ele>439.0</ele><time>2026-04-12T09:34:33.311Z</time></trkpt><trkpt lat="40.7026482" lon="9.4602001"><ele>439.0</ele><time>2026-04-12T09:34:34.312Z</time></trkpt><trkpt lat="40.7025452" lon="9.460043"><ele>439.0</ele><time>2026-04-12T09:34:35.3Z</time></trkpt><trkpt lat="40.7024391" lon="9.4598853"><ele>439.0</ele><time>2026-04-12T09:34:36.31Z</time></trkpt><trkpt lat="40.7023298" lon="9.459722"><ele>439.0</ele><time>2026-04-12T09:34:37.295Z</time></trkpt><trkpt lat="40.7022278" lon="9.4595542"><ele>439.6666666666667</ele><time>2026-04-12T09:34:38.301Z</time></trkpt><trkpt lat="40.7021229" lon="9.4593965"><ele>440.33333333333337</ele><time>2026-04-12T09:34:39.299Z</time></trkpt><trkpt lat="40.7020216" lon="9.4592349"><ele>441.0</ele><time>2026-04-12T09:34:40.295Z</time></trkpt><trkpt lat="40.7019243" lon="9.4590823"><ele>439.5</ele><time>2026-04-12T09:34:41.298Z</time></trkpt><trkpt lat="40.7018294" lon="9.4589407"><ele>438.0</ele><time>2026-04-12T09:34:42.288Z</time></trkpt><trkpt lat="40.7017426" lon="9.4588095"><ele>436.5</ele><time>2026-04-12T09:34:43.293Z</time></trkpt><trkpt lat="40.7016604" lon="9.4586845"><ele>435.0</ele><time>2026-04-12T09:34:44.301Z</time></trkpt><trkpt lat="40.7015801" lon="9.4585756"><ele>435.0</ele><time>2026-04-12T09:34:45.297Z</time></trkpt><trkpt lat="40.7014925" lon="9.4584746"><ele>435.0</ele><time>2026-04-12T09:34:46.292Z</time></trkpt><trkpt lat="40.701399" lon="9.4583868"><ele>435.0</ele><time>2026-04-12T09:34:47.296Z</time></trkpt><trkpt lat="40.7012947" lon="9.4583143"><ele>435.0</ele><time>2026-04-12T09:34:48.291Z</time></trkpt><trkpt lat="40.7011752" lon="9.4582645"><ele>434.75</ele><time>2026-04-12T09:34:49.294Z</time></trkpt><trkpt lat="40.7010457" lon="9.4582441"><ele>434.5</ele><time>2026-04-12T09:34:50.297Z</time></trkpt><trkpt lat="40.7009061" lon="9.4582439"><ele>434.25</ele><time>2026-04-12T09:34:51.336Z</time></trkpt><trkpt lat="40.7007599" lon="9.4582594"><ele>434.0</ele><time>2026-04-12T09:34:52.297Z</time></trkpt><trkpt lat="40.7006079" lon="9.4582879"><ele>434.0</ele><time>2026-04-12T09:34:53.294Z</time></trkpt><trkpt lat="40.7004501" lon="9.4583181"><ele>434.0</ele><time>2026-04-12T09:34:54.286Z</time></trkpt><trkpt lat="40.7002896" lon="9.4583499"><ele>434.0</ele><time>2026-04-12T09:34:55.288Z</time></trkpt><trkpt lat="40.700123" lon="9.458383"><ele>435.0</ele><time>2026-04-12T09:34:56.305Z</time></trkpt><trkpt lat="40.6999538" lon="9.458414"><ele>436.0</ele><time>2026-04-12T09:34:57.29Z</time></trkpt><trkpt lat="40.6997833" lon="9.4584287"><ele>437.0</ele><time>2026-04-12T09:34:58.306Z</time></trkpt><trkpt lat="40.6996109" lon="9.4584267"><ele>437.0</ele><time>2026-04-12T09:34:59.283Z</time></trkpt><trkpt lat="40.6994337" lon="9.4584057"><ele>437.0</ele><time>2026-04-12T09:35:00.286Z</time></trkpt><trkpt lat="40.6992611" lon="9.458371"><ele>437.0</ele><time>2026-04-12T09:35:01.293Z</time></trkpt><trkpt lat="40.6990833" lon="9.4583233"><ele>438.3333333333333</ele><time>2026-04-12T09:35:02.29Z</time></trkpt><trkpt lat="40.6989151" lon="9.4582731"><ele>439.66666666666663</ele><time>2026-04-12T09:35:03.286Z</time></trkpt><trkpt lat="40.6987548" lon="9.4582236"><ele>441.0</ele><time>2026-04-12T09:35:04.288Z</time></trkpt><trkpt lat="40.6986052" lon="9.4581719"><ele>440.0</ele><time>2026-04-12T09:35:05.29Z</time></trkpt><trkpt lat="40.698456" lon="9.4580996"><ele>439.0</ele><time>2026-04-12T09:35:06.28Z</time></trkpt><trkpt lat="40.6983077" lon="9.4579995"><ele>438.0</ele><time>2026-04-12T09:35:07.295Z</time></trkpt><trkpt lat="40.6981674" lon="9.4578854"><ele>438.0</ele><time>2026-04-12T09:35:08.285Z</time></trkpt><trkpt lat="40.6980325" lon="9.4577494"><ele>438.0</ele><time>2026-04-12T09:35:09.278Z</time></trkpt><trkpt lat="40.6979021" lon="9.4575994"><ele>438.0</ele><time>2026-04-12T09:35:10.283Z</time></trkpt><trkpt lat="40.6977807" lon="9.4574408"><ele>435.33333333333337</ele><time>2026-04-12T09:35:11.28Z</time></trkpt><trkpt lat="40.6976653" lon="9.4572748"><ele>432.6666666666667</ele><time>2026-04-12T09:35:12.281Z</time></trkpt><trkpt lat="40.6975624" lon="9.4570981"><ele>430.0</ele><time>2026-04-12T09:35:13.276Z</time></trkpt><trkpt lat="40.6974728" lon="9.4569144"><ele>430.0</ele><time>2026-04-12T09:35:14.274Z</time></trkpt><trkpt lat="40.6974008" lon="9.4567202"><ele>430.0</ele><time>2026-04-12T09:35:15.288Z</time></trkpt><trkpt lat="40.6973427" lon="9.4565183"><ele>430.0</ele><time>2026-04-12T09:35:16.282Z</time></trkpt><trkpt lat="40.6972894" lon="9.4563081"><ele>432.0</ele><time>2026-04-12T09:35:17.295Z</time></trkpt><trkpt lat="40.6972403" lon="9.4560961"><ele>434.0</ele><time>2026-04-12T09:35:18.279Z</time></trkpt><trkpt lat="40.6971903" lon="9.4558883"><ele>436.0</ele><time>2026-04-12T09:35:19.267Z</time></trkpt><trkpt lat="40.697146" lon="9.4556892"><ele>436.0</ele><time>2026-04-12T09:35:20.277Z</time></trkpt><trkpt lat="40.6971113" lon="9.4555013"><ele>436.0</ele><time>2026-04-12T09:35:21.271Z</time></trkpt><trkpt lat="40.6970793" lon="9.4553334"><ele>436.0</ele><time>2026-04-12T09:35:22.278Z</time></trkpt><trkpt lat="40.6970519" lon="9.4551744"><ele>436.0</ele><time>2026-04-12T09:35:23.279Z</time></trkpt><trkpt lat="40.6970337" lon="9.4550243"><ele>436.20000000000005</ele><time>2026-04-12T09:35:24.267Z</time></trkpt><trkpt lat="40.6970269" lon="9.4548802"><ele>436.40000000000003</ele><time>2026-04-12T09:35:25.269Z</time></trkpt><trkpt lat="40.697041" lon="9.4547413"><ele>436.6</ele><time>2026-04-12T09:35:26.278Z</time></trkpt><trkpt lat="40.6970634" lon="9.454607"><ele>436.8</ele><time>2026-04-12T09:35:27.269Z</time></trkpt><trkpt lat="40.697101" lon="9.4545003"><ele>437.0</ele><time>2026-04-12T09:35:28.268Z</time></trkpt><trkpt lat="40.6971348" lon="9.4544144"><ele>437.0</ele><time>2026-04-12T09:35:29.273Z</time></trkpt><trkpt lat="40.6971389" lon="9.4543119"><ele>437.0</ele><time>2026-04-12T09:35:31.287Z</time></trkpt><trkpt lat="40.6970646" lon="9.4542686"><ele>437.0</ele><time>2026-04-12T09:35:35.273Z</time></trkpt><trkpt lat="40.6970153" lon="9.4543417"><ele>437.0</ele><time>2026-04-12T09:35:38.266Z</time></trkpt><trkpt lat="40.6969541" lon="9.4543638"><ele>437.0</ele><time>2026-04-12T09:35:43.279Z</time></trkpt><trkpt lat="40.6969645" lon="9.4544538"><ele>437.0</ele><time>2026-04-12T09:59:16.255Z</time></trkpt><trkpt lat="40.6969493" lon="9.454546"><ele>437.0</ele><time>2026-04-12T09:59:18.253Z</time></trkpt><trkpt lat="40.6969444" lon="9.454654"><ele>437.0</ele><time>2026-04-12T09:59:20.25Z</time></trkpt><trkpt lat="40.6969426" lon="9.4547821"><ele>437.00000000000006</ele><time>2026-04-12T09:59:22.254Z</time></trkpt><trkpt lat="40.696945" lon="9.4548908"><ele>437.00000000000006</ele><time>2026-04-12T09:59:24.264Z</time></trkpt><trkpt lat="40.6969524" lon="9.4550138"><ele>437.0</ele><time>2026-04-12T09:59:26.257Z</time></trkpt><trkpt lat="40.6969377" lon="9.4551565"><ele>437.0</ele><time>2026-04-12T09:59:28.237Z</time></trkpt><trkpt lat="40.6968836" lon="9.4552811"><ele>434.20000000000005</ele><time>2026-04-12T09:59:30.241Z</time></trkpt><trkpt lat="40.6967955" lon="9.4553888"><ele>431.40000000000003</ele><time>2026-04-12T09:59:32.24Z</time></trkpt><trkpt lat="40.6967103" lon="9.4554815"><ele>428.6</ele><time>2026-04-12T09:59:34.355Z</time></trkpt><trkpt lat="40.6966173" lon="9.4555793"><ele>425.79999999999995</ele><time>2026-04-12T09:59:36.335Z</time></trkpt><trkpt lat="40.696569" lon="9.4556417"><ele>423.0</ele><time>2026-04-12T09:59:37.332Z</time></trkpt><trkpt lat="40.6965233" lon="9.4557037"><ele>422.4</ele><time>2026-04-12T09:59:38.342Z</time></trkpt><trkpt lat="40.6964772" lon="9.4557605"><ele>421.79999999999995</ele><time>2026-04-12T09:59:39.329Z</time></trkpt><trkpt lat="40.6963923" lon="9.4558749"><ele>421.2</ele><time>2026-04-12T09:59:41.339Z</time></trkpt><trkpt lat="40.6963176" lon="9.455983"><ele>420.6</ele><time>2026-04-12T09:59:43.332Z</time></trkpt><trkpt lat="40.6962375" lon="9.4560635"><ele>420.0</ele><time>2026-04-12T09:59:45.319Z</time></trkpt><trkpt lat="40.6961424" lon="9.4560672"><ele>419.0</ele><time>2026-04-12T09:59:47.34Z</time></trkpt><trkpt lat="40.6960398" lon="9.4559874"><ele>418.0</ele><time>2026-04-12T09:59:49.318Z</time></trkpt><trkpt lat="40.6959893" lon="9.4559257"><ele>417.0</ele><time>2026-04-12T09:59:50.321Z</time></trkpt><trkpt lat="40.6959441" lon="9.4558593"><ele>416.0</ele><time>2026-04-12T09:59:51.326Z</time></trkpt><trkpt lat="40.6959023" lon="9.4557965"><ele>415.0</ele><time>2026-04-12T09:59:52.317Z</time></trkpt><trkpt lat="40.6958553" lon="9.4557395"><ele>414.0</ele><time>2026-04-12T09:59:53.305Z</time></trkpt><trkpt lat="40.6958076" lon="9.455685"><ele>413.0</ele><time>2026-04-12T09:59:54.299Z</time></trkpt><trkpt lat="40.6957234" lon="9.4555908"><ele>412.99999999999994</ele><time>2026-04-12T09:59:56.304Z</time></trkpt><trkpt lat="40.6956343" lon="9.4555109"><ele>413.0</ele><time>2026-04-12T09:59:58.301Z</time></trkpt><trkpt lat="40.6955272" lon="9.455424"><ele>413.0</ele><time>2026-04-12T10:00:00.318Z</time></trkpt><trkpt lat="40.6954671" lon="9.4553806"><ele>413.0</ele><time>2026-04-12T10:00:01.318Z</time></trkpt><trkpt lat="40.6954033" lon="9.4553435"><ele>412.99999999999994</ele><time>2026-04-12T10:00:02.297Z</time></trkpt><trkpt lat="40.695336" lon="9.4553083"><ele>413.0</ele><time>2026-04-12T10:00:03.298Z</time></trkpt><trkpt lat="40.6952753" lon="9.4552629"><ele>410.8333333333333</ele><time>2026-04-12T10:00:04.299Z</time></trkpt><trkpt lat="40.6952194" lon="9.4552112"><ele>408.66666666666663</ele><time>2026-04-12T10:00:05.302Z</time></trkpt><trkpt lat="40.6951601" lon="9.4551651"><ele>406.5</ele><time>2026-04-12T10:00:06.294Z</time></trkpt><trkpt lat="40.6950974" lon="9.4551194"><ele>404.33333333333337</ele><time>2026-04-12T10:00:07.289Z</time></trkpt><trkpt lat="40.6950327" lon="9.4550874"><ele>402.1666666666667</ele><time>2026-04-12T10:00:08.299Z</time></trkpt><trkpt lat="40.6949734" lon="9.4550471"><ele>400.0</ele><time>2026-04-12T10:00:09.296Z</time></trkpt><trkpt lat="40.6948679" lon="9.4549734"><ele>400.0</ele><time>2026-04-12T10:00:11.293Z</time></trkpt><trkpt lat="40.6947701" lon="9.4549173"><ele>400.0</ele><time>2026-04-12T10:00:13.283Z</time></trkpt><trkpt lat="40.6946686" lon="9.4548903"><ele>400.0</ele><time>2026-04-12T10:00:15.281Z</time></trkpt><trkpt lat="40.6945631" lon="9.4548934"><ele>400.0</ele><time>2026-04-12T10:00:17.291Z</time></trkpt><trkpt lat="40.6944657" lon="9.4549278"><ele>400.0</ele><time>2026-04-12T10:00:19.291Z</time></trkpt><trkpt lat="40.694366" lon="9.4549551"><ele>397.6</ele><time>2026-04-12T10:00:21.283Z</time></trkpt><trkpt lat="40.6942625" lon="9.4549492"><ele>395.2</ele><time>2026-04-12T10:00:23.274Z</time></trkpt><trkpt lat="40.694162" lon="9.4549095"><ele>392.79999999999995</ele><time>2026-04-12T10:00:25.277Z</time></trkpt><trkpt lat="40.6940733" lon="9.4548643"><ele>390.4</ele><time>2026-04-12T10:00:27.276Z</time></trkpt><trkpt lat="40.6939751" lon="9.4548698"><ele>388.0</ele><time>2026-04-12T10:00:29.277Z</time></trkpt><trkpt lat="40.6939285" lon="9.454973"><ele>388.0</ele><time>2026-04-12T10:00:31.293Z</time></trkpt><trkpt lat="40.6939205" lon="9.4551019"><ele>388.0</ele><time>2026-04-12T10:00:33.28Z</time></trkpt><trkpt lat="40.6939144" lon="9.4552384"><ele>388.0</ele><time>2026-04-12T10:00:35.279Z</time></trkpt><trkpt lat="40.6938419" lon="9.4553651"><ele>388.0</ele><time>2026-04-12T10:00:37.262Z</time></trkpt><trkpt lat="40.6937871" lon="9.4554222"><ele>388.0</ele><time>2026-04-12T10:00:38.276Z</time></trkpt><trkpt lat="40.6937294" lon="9.4554674"><ele>387.00000000000006</ele><time>2026-04-12T10:00:39.262Z</time></trkpt><trkpt lat="40.6936706" lon="9.4555042"><ele>386.0</ele><time>2026-04-12T10:00:40.269Z</time></trkpt><trkpt lat="40.6936066" lon="9.4555242"><ele>385.0</ele><time>2026-04-12T10:00:41.26Z</time></trkpt><trkpt lat="40.6934793" lon="9.4555172"><ele>384.0</ele><time>2026-04-12T10:00:43.258Z</time></trkpt><trkpt lat="40.6934118" lon="9.4555017"><ele>383.0</ele><time>2026-04-12T10:00:44.257Z</time></trkpt><trkpt lat="40.6933444" lon="9.4554896"><ele>382.0</ele><time>2026-04-12T10:00:45.269Z</time></trkpt><trkpt lat="40.6932805" lon="9.4554802"><ele>380.16666666666663</ele><time>2026-04-12T10:00:46.261Z</time></trkpt><trkpt lat="40.6932146" lon="9.4554754"><ele>378.3333333333333</ele><time>2026-04-12T10:00:47.253Z</time></trkpt><trkpt lat="40.6931489" lon="9.4554713"><ele>376.5</ele><time>2026-04-12T10:00:48.265Z</time></trkpt><trkpt lat="40.6930263" lon="9.4554993"><ele>374.6666666666667</ele><time>2026-04-12T10:00:50.249Z</time></trkpt><trkpt lat="40.6929707" lon="9.4555495"><ele>372.83333333333337</ele><time>2026-04-12T10:00:51.255Z</time></trkpt><trkpt lat="40.6929172" lon="9.4556209"><ele>371.0</ele><time>2026-04-12T10:00:52.249Z</time></trkpt><trkpt lat="40.6928807" lon="9.4556989"><ele>371.0</ele><time>2026-04-12T10:00:53.249Z</time></trkpt><trkpt lat="40.6928148" lon="9.455806"><ele>371.0</ele><time>2026-04-12T10:00:55.254Z</time></trkpt><trkpt lat="40.6927315" lon="9.4558413"><ele>371.0</ele><time>2026-04-12T10:00:57.245Z</time></trkpt><trkpt lat="40.6926198" lon="9.4558063"><ele>371.0</ele><time>2026-04-12T10:00:59.235Z</time></trkpt><trkpt lat="40.6925537" lon="9.4557693"><ele>371.0</ele><time>2026-04-12T10:01:00.236Z</time></trkpt><trkpt lat="40.6924881" lon="9.455736"><ele>371.0</ele><time>2026-04-12T10:01:01.238Z</time></trkpt><trkpt lat="40.6924265" lon="9.4557185"><ele>370.4</ele><time>2026-04-12T10:01:02.239Z</time></trkpt><trkpt lat="40.6923101" lon="9.4557243"><ele>369.8</ele><time>2026-04-12T10:01:04.239Z</time></trkpt><trkpt lat="40.6922451" lon="9.4557401"><ele>369.2</ele><time>2026-04-12T10:01:05.233Z</time></trkpt><trkpt lat="40.6921126" lon="9.4557652"><ele>368.59999999999997</ele><time>2026-04-12T10:01:07.24Z</time></trkpt><trkpt lat="40.692043" lon="9.4557845"><ele>368.0</ele><time>2026-04-12T10:01:08.232Z</time></trkpt><trkpt lat="40.6919684" lon="9.4558024"><ele>368.0</ele><time>2026-04-12T10:01:09.242Z</time></trkpt><trkpt lat="40.6918901" lon="9.4558177"><ele>368.0</ele><time>2026-04-12T10:01:10.246Z</time></trkpt><trkpt lat="40.6918155" lon="9.455828"><ele>368.0</ele><time>2026-04-12T10:01:11.237Z</time></trkpt><trkpt lat="40.6916949" lon="9.4558335"><ele>368.0</ele><time>2026-04-12T10:01:13.244Z</time></trkpt><trkpt lat="40.6915885" lon="9.4558449"><ele>368.0</ele><time>2026-04-12T10:01:15.228Z</time></trkpt><trkpt lat="40.691482" lon="9.4558613"><ele>368.0</ele><time>2026-04-12T10:01:17.328Z</time></trkpt><trkpt lat="40.6913672" lon="9.4558924"><ele>368.0</ele><time>2026-04-12T10:01:19.329Z</time></trkpt><trkpt lat="40.6913054" lon="9.4559158"><ele>368.0</ele><time>2026-04-12T10:01:20.335Z</time></trkpt><trkpt lat="40.6912469" lon="9.4559515"><ele>368.0</ele><time>2026-04-12T10:01:21.321Z</time></trkpt><trkpt lat="40.6911923" lon="9.4559951"><ele>368.0</ele><time>2026-04-12T10:01:22.319Z</time></trkpt><trkpt lat="40.6911409" lon="9.4560645"><ele>368.0</ele><time>2026-04-12T10:01:23.325Z</time></trkpt><trkpt lat="40.691088" lon="9.4561578"><ele>366.6666666666667</ele><time>2026-04-12T10:01:24.312Z</time></trkpt><trkpt lat="40.6910401" lon="9.4562494"><ele>365.33333333333337</ele><time>2026-04-12T10:01:25.315Z</time></trkpt><trkpt lat="40.6909965" lon="9.4563441"><ele>364.0</ele><time>2026-04-12T10:01:26.306Z</time></trkpt><trkpt lat="40.6909524" lon="9.4564389"><ele>362.6666666666667</ele><time>2026-04-12T10:01:27.307Z</time></trkpt><trkpt lat="40.6909115" lon="9.4565411"><ele>361.3333333333333</ele><time>2026-04-12T10:01:28.309Z</time></trkpt><trkpt lat="40.6908793" lon="9.4566395"><ele>360.0</ele><time>2026-04-12T10:01:29.348Z</time></trkpt><trkpt lat="40.6908617" lon="9.4567341"><ele>360.0</ele><time>2026-04-12T10:01:30.303Z</time></trkpt><trkpt lat="40.6908513" lon="9.4568277"><ele>360.0</ele><time>2026-04-12T10:01:31.319Z</time></trkpt><trkpt lat="40.6908486" lon="9.4569199"><ele>360.0</ele><time>2026-04-12T10:01:32.312Z</time></trkpt><trkpt lat="40.6908499" lon="9.4570085"><ele>360.0</ele><time>2026-04-12T10:01:33.305Z</time></trkpt><trkpt lat="40.6908442" lon="9.4571682"><ele>360.0</ele><time>2026-04-12T10:01:35.319Z</time></trkpt><trkpt lat="40.6908356" lon="9.4572532"><ele>360.0</ele><time>2026-04-12T10:01:36.3Z</time></trkpt><trkpt lat="40.6908261" lon="9.4573436"><ele>360.6666666666667</ele><time>2026-04-12T10:01:37.313Z</time></trkpt><trkpt lat="40.6908175" lon="9.4574403"><ele>361.3333333333333</ele><time>2026-04-12T10:01:38.307Z</time></trkpt><trkpt lat="40.6908038" lon="9.4575364"><ele>362.0</ele><time>2026-04-12T10:01:39.301Z</time></trkpt><trkpt lat="40.6907963" lon="9.4576355"><ele>362.66666666666663</ele><time>2026-04-12T10:01:40.296Z</time></trkpt><trkpt lat="40.6907943" lon="9.4577297"><ele>363.3333333333333</ele><time>2026-04-12T10:01:41.31Z</time></trkpt><trkpt lat="40.6907935" lon="9.4578132"><ele>364.0</ele><time>2026-04-12T10:01:42.303Z</time></trkpt><trkpt lat="40.6907772" lon="9.45795"><ele>363.4</ele><time>2026-04-12T10:01:44.31Z</time></trkpt><trkpt lat="40.6907435" lon="9.4580725"><ele>362.79999999999995</ele><time>2026-04-12T10:01:46.297Z</time></trkpt><trkpt lat="40.6906505" lon="9.4581842"><ele>362.20000000000005</ele><time>2026-04-12T10:01:48.3Z</time></trkpt><trkpt lat="40.6905818" lon="9.4582218"><ele>361.6</ele><time>2026-04-12T10:01:49.311Z</time></trkpt><trkpt lat="40.6905163" lon="9.4582575"><ele>361.0</ele><time>2026-04-12T10:01:50.294Z</time></trkpt><trkpt lat="40.6904048" lon="9.4583209"><ele>361.0</ele><time>2026-04-12T10:01:52.3Z</time></trkpt><trkpt lat="40.6903355" lon="9.4584105"><ele>361.0</ele><time>2026-04-12T10:01:54.315Z</time></trkpt><trkpt lat="40.690326" lon="9.4585488"><ele>361.0</ele><time>2026-04-12T10:01:56.294Z</time></trkpt><trkpt lat="40.6903206" lon="9.4587138"><ele>361.0</ele><time>2026-04-12T10:01:58.306Z</time></trkpt><trkpt lat="40.6903131" lon="9.458802"><ele>361.0</ele><time>2026-04-12T10:01:59.3Z</time></trkpt><trkpt lat="40.690295" lon="9.4588914"><ele>358.5714285714286</ele><time>2026-04-12T10:02:00.299Z</time></trkpt><trkpt lat="40.6902599" lon="9.4589761"><ele>356.1428571428571</ele><time>2026-04-12T10:02:01.298Z</time></trkpt><trkpt lat="40.690209" lon="9.459054"><ele>353.7142857142857</ele><time>2026-04-12T10:02:02.3Z</time></trkpt><trkpt lat="40.6901563" lon="9.459133"><ele>351.28571428571433</ele><time>2026-04-12T10:02:03.292Z</time></trkpt><trkpt lat="40.690112" lon="9.4592113"><ele>348.8571428571429</ele><time>2026-04-12T10:02:04.285Z</time></trkpt><trkpt lat="40.6900678" lon="9.4592846"><ele>346.42857142857144</ele><time>2026-04-12T10:02:05.286Z</time></trkpt><trkpt lat="40.6900238" lon="9.45936"><ele>344.0</ele><time>2026-04-12T10:02:06.284Z</time></trkpt><trkpt lat="40.6899784" lon="9.4594336"><ele>342.0</ele><time>2026-04-12T10:02:07.282Z</time></trkpt><trkpt lat="40.6899319" lon="9.459503"><ele>340.0</ele><time>2026-04-12T10:02:08.283Z</time></trkpt><trkpt lat="40.6898782" lon="9.4595769"><ele>338.0</ele><time>2026-04-12T10:02:09.302Z</time></trkpt><trkpt lat="40.6898166" lon="9.4596462"><ele>336.0</ele><time>2026-04-12T10:02:10.268Z</time></trkpt><trkpt lat="40.689748" lon="9.4597065"><ele>334.0</ele><time>2026-04-12T10:02:11.274Z</time></trkpt><trkpt lat="40.6896838" lon="9.4597777"><ele>332.0</ele><time>2026-04-12T10:02:12.288Z</time></trkpt><trkpt lat="40.6896203" lon="9.4598506"><ele>330.5</ele><time>2026-04-12T10:02:13.299Z</time></trkpt><trkpt lat="40.6895618" lon="9.4599256"><ele>329.0</ele><time>2026-04-12T10:02:14.284Z</time></trkpt><trkpt lat="40.6895045" lon="9.459996"><ele>327.5</ele><time>2026-04-12T10:02:15.263Z</time></trkpt><trkpt lat="40.689453" lon="9.4600694"><ele>326.0</ele><time>2026-04-12T10:02:16.271Z</time></trkpt><trkpt lat="40.6894013" lon="9.4601398"><ele>324.5</ele><time>2026-04-12T10:02:17.288Z</time></trkpt><trkpt lat="40.6893454" lon="9.4602156"><ele>323.0</ele><time>2026-04-12T10:02:18.285Z</time></trkpt><trkpt lat="40.6892903" lon="9.4602874"><ele>321.0</ele><time>2026-04-12T10:02:19.274Z</time></trkpt><trkpt lat="40.6892343" lon="9.4603561"><ele>319.0</ele><time>2026-04-12T10:02:20.267Z</time></trkpt><trkpt lat="40.6891817" lon="9.4604314"><ele>317.0</ele><time>2026-04-12T10:02:21.289Z</time></trkpt><trkpt lat="40.6891395" lon="9.4605127"><ele>315.0</ele><time>2026-04-12T10:02:22.269Z</time></trkpt><trkpt lat="40.6891182" lon="9.4606042"><ele>313.0</ele><time>2026-04-12T10:02:23.28Z</time></trkpt><trkpt lat="40.6891118" lon="9.4607006"><ele>311.0</ele><time>2026-04-12T10:02:24.253Z</time></trkpt><trkpt lat="40.6891129" lon="9.4608029"><ele>310.1666666666667</ele><time>2026-04-12T10:02:25.261Z</time></trkpt><trkpt lat="40.6891142" lon="9.4608964"><ele>309.33333333333337</ele><time>2026-04-12T10:02:26.265Z</time></trkpt><trkpt lat="40.6891142" lon="9.4609941"><ele>308.5</ele><time>2026-04-12T10:02:27.26Z</time></trkpt><trkpt lat="40.689113" lon="9.4611017"><ele>307.6666666666667</ele><time>2026-04-12T10:02:28.259Z</time></trkpt><trkpt lat="40.6891103" lon="9.4612155"><ele>306.8333333333333</ele><time>2026-04-12T10:02:29.263Z</time></trkpt><trkpt lat="40.6891104" lon="9.4613413"><ele>306.0</ele><time>2026-04-12T10:02:30.262Z</time></trkpt><trkpt lat="40.6891144" lon="9.4614699"><ele>305.6666666666667</ele><time>2026-04-12T10:02:31.257Z</time></trkpt><trkpt lat="40.6891172" lon="9.4615873"><ele>305.3333333333333</ele><time>2026-04-12T10:02:32.259Z</time></trkpt><trkpt lat="40.6891153" lon="9.4616951"><ele>305.0</ele><time>2026-04-12T10:02:33.252Z</time></trkpt><trkpt lat="40.6891132" lon="9.4617994"><ele>304.66666666666663</ele><time>2026-04-12T10:02:34.254Z</time></trkpt><trkpt lat="40.689098" lon="9.4618966"><ele>304.3333333333333</ele><time>2026-04-12T10:02:35.259Z</time></trkpt><trkpt lat="40.6890695" lon="9.4619856"><ele>304.0</ele><time>2026-04-12T10:02:36.254Z</time></trkpt><trkpt lat="40.688969" lon="9.462096"><ele>304.66666666666663</ele><time>2026-04-12T10:02:38.245Z</time></trkpt><trkpt lat="40.6888942" lon="9.4621375"><ele>305.3333333333333</ele><time>2026-04-12T10:02:39.242Z</time></trkpt><trkpt lat="40.6888207" lon="9.4621661"><ele>306.0</ele><time>2026-04-12T10:02:40.241Z</time></trkpt><trkpt lat="40.6887503" lon="9.4621848"><ele>306.6666666666667</ele><time>2026-04-12T10:02:41.261Z</time></trkpt><trkpt lat="40.6886829" lon="9.4622005"><ele>307.33333333333337</ele><time>2026-04-12T10:02:42.244Z</time></trkpt><trkpt lat="40.6886101" lon="9.4622144"><ele>308.0</ele><time>2026-04-12T10:02:43.239Z</time></trkpt><trkpt lat="40.6885334" lon="9.4622334"><ele>308.0</ele><time>2026-04-12T10:02:44.248Z</time></trkpt><trkpt lat="40.6884461" lon="9.4622552"><ele>308.0</ele><time>2026-04-12T10:02:45.239Z</time></trkpt><trkpt lat="40.6883629" lon="9.462267"><ele>308.0</ele><time>2026-04-12T10:02:46.238Z</time></trkpt><trkpt lat="40.6882887" lon="9.462269"><ele>308.0</ele><time>2026-04-12T10:02:47.228Z</time></trkpt><trkpt lat="40.6882187" lon="9.4622786"><ele>308.0</ele><time>2026-04-12T10:02:48.225Z</time></trkpt><trkpt lat="40.6881112" lon="9.4623136"><ele>308.0</ele><time>2026-04-12T10:02:50.247Z</time></trkpt><trkpt lat="40.6880483" lon="9.4624336"><ele>308.0</ele><time>2026-04-12T10:02:52.252Z</time></trkpt><trkpt lat="40.688025" lon="9.4625229"><ele>308.0</ele><time>2026-04-12T10:02:53.234Z</time></trkpt><trkpt lat="40.6879976" lon="9.4626109"><ele>308.0</ele><time>2026-04-12T10:02:54.33Z</time></trkpt><trkpt lat="40.6879585" lon="9.4626884"><ele>308.0</ele><time>2026-04-12T10:02:55.324Z</time></trkpt><trkpt lat="40.6879124" lon="9.4627529"><ele>308.0</ele><time>2026-04-12T10:02:56.324Z</time></trkpt><trkpt lat="40.6878668" lon="9.4628263"><ele>308.0</ele><time>2026-04-12T10:02:57.339Z</time></trkpt><trkpt lat="40.6878227" lon="9.4628917"><ele>308.0</ele><time>2026-04-12T10:02:58.321Z</time></trkpt><trkpt lat="40.6877778" lon="9.4629594"><ele>307.0</ele><time>2026-04-12T10:02:59.334Z</time></trkpt><trkpt lat="40.6877301" lon="9.4630313"><ele>306.0</ele><time>2026-04-12T10:03:00.32Z</time></trkpt><trkpt lat="40.6876928" lon="9.4631129"><ele>305.0</ele><time>2026-04-12T10:03:01.329Z</time></trkpt><trkpt lat="40.6876704" lon="9.4632004"><ele>304.0</ele><time>2026-04-12T10:03:02.322Z</time></trkpt><trkpt lat="40.6876482" lon="9.4632842"><ele>303.0</ele><time>2026-04-12T10:03:03.322Z</time></trkpt><trkpt lat="40.687624" lon="9.4633633"><ele>302.0</ele><time>2026-04-12T10:03:04.325Z</time></trkpt><trkpt lat="40.6875979" lon="9.4634897"><ele>301.0</ele><time>2026-04-12T10:03:06.327Z</time></trkpt><trkpt lat="40.6876019" lon="9.4635858"><ele>301.0</ele><time>2026-04-12T10:03:09.322Z</time></trkpt><trkpt lat="40.6876627" lon="9.463663"><ele>301.0</ele><time>2026-04-12T10:03:36.291Z</time></trkpt><trkpt lat="40.687729" lon="9.4637338"><ele>301.0</ele><time>2026-04-12T10:03:38.279Z</time></trkpt><trkpt lat="40.6877821" lon="9.463793"><ele>301.0</ele><time>2026-04-12T10:03:39.282Z</time></trkpt><trkpt lat="40.6878303" lon="9.4638533"><ele>301.0</ele><time>2026-04-12T10:03:40.274Z</time></trkpt><trkpt lat="40.6878727" lon="9.4639179"><ele>301.0</ele><time>2026-04-12T10:03:41.274Z</time></trkpt><trkpt lat="40.6879124" lon="9.463985"><ele>301.0</ele><time>2026-04-12T10:03:42.284Z</time></trkpt><trkpt lat="40.687946" lon="9.4640589"><ele>302.3333333333333</ele><time>2026-04-12T10:03:43.279Z</time></trkpt><trkpt lat="40.6879601" lon="9.4641414"><ele>303.66666666666663</ele><time>2026-04-12T10:03:44.284Z</time></trkpt><trkpt lat="40.6879458" lon="9.464242"><ele>305.0</ele><time>2026-04-12T10:03:45.275Z</time></trkpt><trkpt lat="40.687929" lon="9.4643461"><ele>306.3333333333333</ele><time>2026-04-12T10:03:46.282Z</time></trkpt><trkpt lat="40.6879118" lon="9.4644458"><ele>307.6666666666667</ele><time>2026-04-12T10:03:47.279Z</time></trkpt><trkpt lat="40.687887" lon="9.464534"><ele>309.0</ele><time>2026-04-12T10:03:48.289Z</time></trkpt><trkpt lat="40.6878094" lon="9.464656"><ele>308.3333333333333</ele><time>2026-04-12T10:03:50.279Z</time></trkpt><trkpt lat="40.6876939" lon="9.4646955"><ele>307.6666666666667</ele><time>2026-04-12T10:03:52.27Z</time></trkpt><trkpt lat="40.6876232" lon="9.4647194"><ele>307.0</ele><time>2026-04-12T10:03:53.284Z</time></trkpt><trkpt lat="40.6875519" lon="9.4647379"><ele>306.33333333333337</ele><time>2026-04-12T10:03:54.267Z</time></trkpt><trkpt lat="40.687484" lon="9.4647394"><ele>305.6666666666667</ele><time>2026-04-12T10:03:55.283Z</time></trkpt><trkpt lat="40.6874179" lon="9.4647254"><ele>305.0</ele><time>2026-04-12T10:03:56.263Z</time></trkpt><trkpt lat="40.6873505" lon="9.4647092"><ele>305.0</ele><time>2026-04-12T10:03:57.264Z</time></trkpt><trkpt lat="40.6872858" lon="9.4646954"><ele>305.0</ele><time>2026-04-12T10:03:58.264Z</time></trkpt><trkpt lat="40.6871706" lon="9.4646748"><ele>305.0</ele><time>2026-04-12T10:04:00.271Z</time></trkpt><trkpt lat="40.6870444" lon="9.4646494"><ele>305.0</ele><time>2026-04-12T10:04:02.258Z</time></trkpt><trkpt lat="40.6869374" lon="9.4645994"><ele>305.0</ele><time>2026-04-12T10:04:04.291Z</time></trkpt><trkpt lat="40.6868209" lon="9.4645207"><ele>304.4</ele><time>2026-04-12T10:04:06.253Z</time></trkpt><trkpt lat="40.6867597" lon="9.4644766"><ele>303.8</ele><time>2026-04-12T10:04:07.257Z</time></trkpt><trkpt lat="40.6866558" lon="9.4644038"><ele>303.2</ele><time>2026-04-12T10:04:09.272Z</time></trkpt><trkpt lat="40.686543" lon="9.4643364"><ele>302.6</ele><time>2026-04-12T10:04:11.26Z</time></trkpt><trkpt lat="40.6864304" lon="9.4642981"><ele>302.0</ele><time>2026-04-12T10:04:13.255Z</time></trkpt><trkpt lat="40.68634" lon="9.4642844"><ele>302.0</ele><time>2026-04-12T10:04:15.267Z</time></trkpt><trkpt lat="40.6862398" lon="9.4642847"><ele>302.0</ele><time>2026-04-12T10:04:17.242Z</time></trkpt><trkpt lat="40.6861145" lon="9.4643193"><ele>302.0</ele><time>2026-04-12T10:04:19.243Z</time></trkpt><trkpt lat="40.6860459" lon="9.4643192"><ele>302.0</ele><time>2026-04-12T10:04:20.247Z</time></trkpt><trkpt lat="40.6859771" lon="9.4643111"><ele>302.0</ele><time>2026-04-12T10:04:21.239Z</time></trkpt><trkpt lat="40.6859" lon="9.4642869"><ele>302.0</ele><time>2026-04-12T10:04:22.234Z</time></trkpt><trkpt lat="40.6858248" lon="9.4642481"><ele>303.5714285714286</ele><time>2026-04-12T10:04:23.24Z</time></trkpt><trkpt lat="40.6857503" lon="9.4642038"><ele>305.14285714285717</ele><time>2026-04-12T10:04:24.259Z</time></trkpt><trkpt lat="40.6856821" lon="9.4641437"><ele>306.7142857142857</ele><time>2026-04-12T10:04:25.235Z</time></trkpt><trkpt lat="40.6856222" lon="9.4640824"><ele>308.28571428571433</ele><time>2026-04-12T10:04:26.248Z</time></trkpt><trkpt lat="40.6855663" lon="9.4640335"><ele>309.8571428571429</ele><time>2026-04-12T10:04:27.233Z</time></trkpt><trkpt lat="40.6855008" lon="9.4640106"><ele>311.42857142857144</ele><time>2026-04-12T10:04:28.23Z</time></trkpt><trkpt lat="40.6854301" lon="9.4640013"><ele>313.0</ele><time>2026-04-12T10:04:29.229Z</time></trkpt><trkpt lat="40.6853611" lon="9.4640095"><ele>313.0</ele><time>2026-04-12T10:04:30.238Z</time></trkpt><trkpt lat="40.6852861" lon="9.4640262"><ele>313.0</ele><time>2026-04-12T10:04:31.229Z</time></trkpt><trkpt lat="40.6852088" lon="9.4640398"><ele>313.0</ele><time>2026-04-12T10:04:32.226Z</time></trkpt><trkpt lat="40.6851265" lon="9.4640439"><ele>313.0</ele><time>2026-04-12T10:04:33.222Z</time></trkpt><trkpt lat="40.6850415" lon="9.4640449"><ele>313.0</ele><time>2026-04-12T10:04:34.331Z</time></trkpt><trkpt lat="40.6849639" lon="9.4640568"><ele>313.0</ele><time>2026-04-12T10:04:35.325Z</time></trkpt><trkpt lat="40.6848887" lon="9.4640681"><ele>315.8333333333333</ele><time>2026-04-12T10:04:36.333Z</time></trkpt><trkpt lat="40.6848148" lon="9.4640689"><ele>318.66666666666663</ele><time>2026-04-12T10:04:37.326Z</time></trkpt><trkpt lat="40.6847459" lon="9.4640597"><ele>321.5</ele><time>2026-04-12T10:04:38.317Z</time></trkpt><trkpt lat="40.6846686" lon="9.4640556"><ele>324.3333333333333</ele><time>2026-04-12T10:04:39.323Z</time></trkpt><trkpt lat="40.6845734" lon="9.4640539"><ele>327.1666666666667</ele><time>2026-04-12T10:04:40.363Z</time></trkpt><trkpt lat="40.6844738" lon="9.4640469"><ele>330.0</ele><time>2026-04-12T10:04:41.316Z</time></trkpt><trkpt lat="40.6843766" lon="9.4640385"><ele>331.0</ele><time>2026-04-12T10:04:42.327Z</time></trkpt><trkpt lat="40.6842842" lon="9.4640389"><ele>332.0</ele><time>2026-04-12T10:04:43.314Z</time></trkpt><trkpt lat="40.6842056" lon="9.464039"><ele>333.0</ele><time>2026-04-12T10:04:44.313Z</time></trkpt><trkpt lat="40.6841276" lon="9.4640531"><ele>334.0</ele><time>2026-04-12T10:04:45.312Z</time></trkpt><trkpt lat="40.6840446" lon="9.4640852"><ele>335.0</ele><time>2026-04-12T10:04:46.327Z</time></trkpt><trkpt lat="40.6839667" lon="9.4641119"><ele>336.0</ele><time>2026-04-12T10:04:47.321Z</time></trkpt><trkpt lat="40.6838819" lon="9.4641297"><ele>336.0</ele><time>2026-04-12T10:04:48.342Z</time></trkpt><trkpt lat="40.6837938" lon="9.464137"><ele>336.0</ele><time>2026-04-12T10:04:49.317Z</time></trkpt><trkpt lat="40.6837065" lon="9.46416"><ele>336.0</ele><time>2026-04-12T10:04:50.319Z</time></trkpt><trkpt lat="40.6836191" lon="9.4641981"><ele>336.0</ele><time>2026-04-12T10:04:51.309Z</time></trkpt><trkpt lat="40.6835342" lon="9.4642375"><ele>336.0</ele><time>2026-04-12T10:04:52.303Z</time></trkpt><trkpt lat="40.6834534" lon="9.4642701"><ele>336.0</ele><time>2026-04-12T10:04:53.309Z</time></trkpt><trkpt lat="40.6833719" lon="9.4642867"><ele>334.85714285714283</ele><time>2026-04-12T10:04:54.31Z</time></trkpt><trkpt lat="40.6833019" lon="9.464301"><ele>333.7142857142857</ele><time>2026-04-12T10:04:55.287Z</time></trkpt><trkpt lat="40.6832365" lon="9.4643087"><ele>332.57142857142856</ele><time>2026-04-12T10:04:56.289Z</time></trkpt><trkpt lat="40.6831672" lon="9.4643223"><ele>331.42857142857144</ele><time>2026-04-12T10:04:57.271Z</time></trkpt><trkpt lat="40.6830978" lon="9.4643317"><ele>330.2857142857143</ele><time>2026-04-12T10:04:58.285Z</time></trkpt><trkpt lat="40.68303" lon="9.4643381"><ele>329.1428571428571</ele><time>2026-04-12T10:04:59.283Z</time></trkpt><trkpt lat="40.6829634" lon="9.4643466"><ele>328.0</ele><time>2026-04-12T10:05:00.267Z</time></trkpt><trkpt lat="40.6829003" lon="9.4643627"><ele>328.0</ele><time>2026-04-12T10:05:01.28Z</time></trkpt><trkpt lat="40.6828138" lon="9.4644463"><ele>328.0</ele><time>2026-04-12T10:05:03.278Z</time></trkpt><trkpt lat="40.682779" lon="9.464516"><ele>328.0</ele><time>2026-04-12T10:05:04.261Z</time></trkpt><trkpt lat="40.6827314" lon="9.4646081"><ele>328.0</ele><time>2026-04-12T10:05:05.274Z</time></trkpt><trkpt lat="40.6826749" lon="9.4647151"><ele>328.0</ele><time>2026-04-12T10:05:06.257Z</time></trkpt><trkpt lat="40.6826195" lon="9.4648189"><ele>326.0</ele><time>2026-04-12T10:05:07.263Z</time></trkpt><trkpt lat="40.6825691" lon="9.4649156"><ele>324.0</ele><time>2026-04-12T10:05:08.258Z</time></trkpt><trkpt lat="40.6825299" lon="9.4649972"><ele>322.0</ele><time>2026-04-12T10:05:09.259Z</time></trkpt><trkpt lat="40.6824974" lon="9.4650736"><ele>320.0</ele><time>2026-04-12T10:05:10.252Z</time></trkpt><trkpt lat="40.6824676" lon="9.4651484"><ele>318.0</ele><time>2026-04-12T10:05:11.26Z</time></trkpt><trkpt lat="40.6823986" lon="9.4652906"><ele>316.0</ele><time>2026-04-12T10:05:13.278Z</time></trkpt><trkpt lat="40.68235" lon="9.4653587"><ele>316.00000000000006</ele><time>2026-04-12T10:05:14.252Z</time></trkpt><trkpt lat="40.6822948" lon="9.4654222"><ele>316.0</ele><time>2026-04-12T10:05:15.26Z</time></trkpt><trkpt lat="40.6822412" lon="9.4654794"><ele>316.0</ele><time>2026-04-12T10:05:16.251Z</time></trkpt><trkpt lat="40.6821936" lon="9.4655377"><ele>316.0</ele><time>2026-04-12T10:05:17.254Z</time></trkpt><trkpt lat="40.682143" lon="9.4655962"><ele>316.0</ele><time>2026-04-12T10:05:18.243Z</time></trkpt><trkpt lat="40.6820938" lon="9.4656552"><ele>316.00000000000006</ele><time>2026-04-12T10:05:19.255Z</time></trkpt><trkpt lat="40.6820439" lon="9.4657142"><ele>316.0</ele><time>2026-04-12T10:05:20.245Z</time></trkpt><trkpt lat="40.6819847" lon="9.4657721"><ele>314.8333333333333</ele><time>2026-04-12T10:05:21.24Z</time></trkpt><trkpt lat="40.681911" lon="9.4658227"><ele>313.66666666666663</ele><time>2026-04-12T10:05:22.237Z</time></trkpt><trkpt lat="40.6818197" lon="9.465864"><ele>312.5</ele><time>2026-04-12T10:05:23.255Z</time></trkpt><trkpt lat="40.6817375" lon="9.4659074"><ele>311.3333333333333</ele><time>2026-04-12T10:05:24.235Z</time></trkpt><trkpt lat="40.6816596" lon="9.465941"><ele>310.1666666666667</ele><time>2026-04-12T10:05:25.239Z</time></trkpt><trkpt lat="40.68158" lon="9.4659639"><ele>309.0</ele><time>2026-04-12T10:05:26.236Z</time></trkpt><trkpt lat="40.6814935" lon="9.4659667"><ele>309.0</ele><time>2026-04-12T10:05:27.248Z</time></trkpt><trkpt lat="40.6814096" lon="9.4659588"><ele>309.0</ele><time>2026-04-12T10:05:28.231Z</time></trkpt><trkpt lat="40.6813215" lon="9.4659348"><ele>309.0</ele><time>2026-04-12T10:05:29.23Z</time></trkpt><trkpt lat="40.6812364" lon="9.4659046"><ele>309.0</ele><time>2026-04-12T10:05:30.226Z</time></trkpt><trkpt lat="40.6811568" lon="9.465878"><ele>309.0</ele><time>2026-04-12T10:05:31.235Z</time></trkpt><trkpt lat="40.6810872" lon="9.4658361"><ele>309.0</ele><time>2026-04-12T10:05:32.229Z</time></trkpt><trkpt lat="40.6810262" lon="9.4657813"><ele>308.28571428571433</ele><time>2026-04-12T10:05:33.243Z</time></trkpt><trkpt lat="40.6809692" lon="9.4657268"><ele>307.57142857142856</ele><time>2026-04-12T10:05:34.22Z</time></trkpt><trkpt lat="40.6809107" lon="9.4656904"><ele>306.8571428571429</ele><time>2026-04-12T10:05:35.217Z</time></trkpt><trkpt lat="40.6808435" lon="9.4656605"><ele>306.14285714285717</ele><time>2026-04-12T10:05:36.226Z</time></trkpt><trkpt lat="40.6807675" lon="9.4656349"><ele>305.42857142857144</ele><time>2026-04-12T10:05:37.219Z</time></trkpt><trkpt lat="40.680691" lon="9.4656164"><ele>304.7142857142857</ele><time>2026-04-12T10:05:38.231Z</time></trkpt><trkpt lat="40.6806085" lon="9.4656092"><ele>304.0</ele><time>2026-04-12T10:05:39.223Z</time></trkpt><trkpt lat="40.6805203" lon="9.4656025"><ele>304.0</ele><time>2026-04-12T10:05:40.233Z</time></trkpt><trkpt lat="40.6804423" lon="9.4655876"><ele>304.0</ele><time>2026-04-12T10:05:41.24Z</time></trkpt><trkpt lat="40.6803751" lon="9.4655678"><ele>304.0</ele><time>2026-04-12T10:05:42.216Z</time></trkpt><trkpt lat="40.6803124" lon="9.4655506"><ele>304.0</ele><time>2026-04-12T10:05:43.225Z</time></trkpt><trkpt lat="40.6802089" lon="9.465531"><ele>304.0</ele><time>2026-04-12T10:05:45.235Z</time></trkpt><trkpt lat="40.6801028" lon="9.465571"><ele>304.0</ele><time>2026-04-12T10:05:47.217Z</time></trkpt><trkpt lat="40.6800026" lon="9.4656619"><ele>303.3333333333333</ele><time>2026-04-12T10:05:49.226Z</time></trkpt><trkpt lat="40.6798949" lon="9.4657196"><ele>302.66666666666663</ele><time>2026-04-12T10:05:51.22Z</time></trkpt><trkpt lat="40.6798022" lon="9.4658016"><ele>302.0</ele><time>2026-04-12T10:05:53.21Z</time></trkpt><trkpt lat="40.6797442" lon="9.465845"><ele>301.3333333333333</ele><time>2026-04-12T10:05:54.24Z</time></trkpt><trkpt lat="40.6796791" lon="9.4658848"><ele>300.6666666666667</ele><time>2026-04-12T10:05:55.224Z</time></trkpt><trkpt lat="40.6796177" lon="9.4659238"><ele>300.0</ele><time>2026-04-12T10:05:56.21Z</time></trkpt><trkpt lat="40.679558" lon="9.4659711"><ele>299.99999999999994</ele><time>2026-04-12T10:05:57.215Z</time></trkpt><trkpt lat="40.679493" lon="9.4660138"><ele>300.0</ele><time>2026-04-12T10:05:58.216Z</time></trkpt><trkpt lat="40.6794309" lon="9.4660543"><ele>300.0</ele><time>2026-04-12T10:05:59.223Z</time></trkpt><trkpt lat="40.6793666" lon="9.466094"><ele>300.0</ele><time>2026-04-12T10:06:00.209Z</time></trkpt><trkpt lat="40.6793002" lon="9.4661334"><ele>300.0</ele><time>2026-04-12T10:06:01.217Z</time></trkpt><trkpt lat="40.679234" lon="9.4661732"><ele>299.99999999999994</ele><time>2026-04-12T10:06:02.255Z</time></trkpt><trkpt lat="40.6791665" lon="9.4662143"><ele>300.0</ele><time>2026-04-12T10:06:03.207Z</time></trkpt><trkpt lat="40.6791025" lon="9.4662554"><ele>299.5</ele><time>2026-04-12T10:06:04.239Z</time></trkpt><trkpt lat="40.6790418" lon="9.4662931"><ele>299.0</ele><time>2026-04-12T10:06:05.207Z</time></trkpt><trkpt lat="40.678985" lon="9.4663341"><ele>298.5</ele><time>2026-04-12T10:06:06.213Z</time></trkpt><trkpt lat="40.6789267" lon="9.4663761"><ele>298.0</ele><time>2026-04-12T10:06:07.224Z</time></trkpt><trkpt lat="40.6788648" lon="9.4664194"><ele>297.5</ele><time>2026-04-12T10:06:08.205Z</time></trkpt><trkpt lat="40.6788076" lon="9.4664571"><ele>297.0</ele><time>2026-04-12T10:06:09.206Z</time></trkpt><trkpt lat="40.6787005" lon="9.4665255"><ele>297.0</ele><time>2026-04-12T10:06:11.209Z</time></trkpt><trkpt lat="40.6786357" lon="9.4666383"><ele>297.0</ele><time>2026-04-12T10:06:13.223Z</time></trkpt><trkpt lat="40.6786121" lon="9.4667918"><ele>297.0</ele><time>2026-04-12T10:06:15.216Z</time></trkpt><trkpt lat="40.6786003" lon="9.4668753"><ele>297.0</ele><time>2026-04-12T10:06:16.203Z</time></trkpt><trkpt lat="40.6785784" lon="9.4669535"><ele>297.0</ele><time>2026-04-12T10:06:17.212Z</time></trkpt><trkpt lat="40.6785056" lon="9.4670991"><ele>294.1666666666667</ele><time>2026-04-12T10:06:19.196Z</time></trkpt><trkpt lat="40.6784656" lon="9.4671779"><ele>291.3333333333333</ele><time>2026-04-12T10:06:20.2Z</time></trkpt><trkpt lat="40.6784159" lon="9.4672623"><ele>288.5</ele><time>2026-04-12T10:06:21.201Z</time></trkpt><trkpt lat="40.6783651" lon="9.4673326"><ele>285.66666666666663</ele><time>2026-04-12T10:06:22.206Z</time></trkpt><trkpt lat="40.6783091" lon="9.4674061"><ele>282.8333333333333</ele><time>2026-04-12T10:06:23.323Z</time></trkpt><trkpt lat="40.6782533" lon="9.4674773"><ele>280.0</ele><time>2026-04-12T10:06:24.288Z</time></trkpt><trkpt lat="40.6781981" lon="9.4675451"><ele>280.0</ele><time>2026-04-12T10:06:25.285Z</time></trkpt><trkpt lat="40.6781507" lon="9.4676114"><ele>280.0</ele><time>2026-04-12T10:06:26.294Z</time></trkpt><trkpt lat="40.6780922" lon="9.4677523"><ele>280.0</ele><time>2026-04-12T10:06:28.3Z</time></trkpt><trkpt lat="40.6780838" lon="9.4678434"><ele>280.0</ele><time>2026-04-12T10:06:29.302Z</time></trkpt><trkpt lat="40.6780873" lon="9.4679414"><ele>280.0</ele><time>2026-04-12T10:06:30.303Z</time></trkpt><trkpt lat="40.6780959" lon="9.4680465"><ele>280.0</ele><time>2026-04-12T10:06:31.282Z</time></trkpt><trkpt lat="40.6781058" lon="9.46815"><ele>279.2857142857143</ele><time>2026-04-12T10:06:32.281Z</time></trkpt><trkpt lat="40.6781173" lon="9.4682462"><ele>278.57142857142856</ele><time>2026-04-12T10:06:33.292Z</time></trkpt><trkpt lat="40.6781334" lon="9.468348"><ele>277.8571428571429</ele><time>2026-04-12T10:06:34.285Z</time></trkpt><trkpt lat="40.678159" lon="9.4684506"><ele>277.1428571428571</ele><time>2026-04-12T10:06:35.288Z</time></trkpt><trkpt lat="40.6781944" lon="9.4685354"><ele>276.42857142857144</ele><time>2026-04-12T10:06:36.284Z</time></trkpt><trkpt lat="40.6782426" lon="9.4685998"><ele>275.7142857142857</ele><time>2026-04-12T10:06:37.291Z</time></trkpt><trkpt lat="40.6783048" lon="9.4686459"><ele>275.0</ele><time>2026-04-12T10:06:38.277Z</time></trkpt><trkpt lat="40.6783887" lon="9.4686813"><ele>275.0</ele><time>2026-04-12T10:06:39.273Z</time></trkpt><trkpt lat="40.6784744" lon="9.4687303"><ele>275.0</ele><time>2026-04-12T10:06:40.282Z</time></trkpt><trkpt lat="40.6785494" lon="9.4687771"><ele>275.0</ele><time>2026-04-12T10:06:41.275Z</time></trkpt><trkpt lat="40.6786079" lon="9.4688167"><ele>275.0</ele><time>2026-04-12T10:06:42.301Z</time></trkpt><trkpt lat="40.6787061" lon="9.4688998"><ele>275.0</ele><time>2026-04-12T10:06:44.291Z</time></trkpt><trkpt lat="40.6788006" lon="9.4690047"><ele>276.6666666666667</ele><time>2026-04-12T10:06:46.275Z</time></trkpt><trkpt lat="40.6788488" lon="9.4690584"><ele>278.33333333333337</ele><time>2026-04-12T10:06:47.281Z</time></trkpt><trkpt lat="40.6788972" lon="9.4691233"><ele>280.0</ele><time>2026-04-12T10:06:48.282Z</time></trkpt><trkpt lat="40.678946" lon="9.4691871"><ele>281.6666666666667</ele><time>2026-04-12T10:06:49.294Z</time></trkpt><trkpt lat="40.6790345" lon="9.4692946"><ele>283.3333333333333</ele><time>2026-04-12T10:06:51.272Z</time></trkpt><trkpt lat="40.6791139" lon="9.469407"><ele>285.0</ele><time>2026-04-12T10:06:53.276Z</time></trkpt><trkpt lat="40.6791149" lon="9.4694962"><ele>285.0</ele><time>2026-04-12T10:06:55.278Z</time></trkpt><trkpt lat="40.6790469" lon="9.4695254"><ele>285.0</ele><time>2026-04-12T10:06:57.273Z</time></trkpt><trkpt lat="40.6789377" lon="9.4694797"><ele>285.0</ele><time>2026-04-12T10:06:59.275Z</time></trkpt><trkpt lat="40.6788144" lon="9.4694219"><ele>285.0</ele><time>2026-04-12T10:07:01.27Z</time></trkpt><trkpt lat="40.6787501" lon="9.4693862"><ele>285.0</ele><time>2026-04-12T10:07:02.271Z</time></trkpt><trkpt lat="40.6786875" lon="9.4693521"><ele>281.0</ele><time>2026-04-12T10:07:03.267Z</time></trkpt><trkpt lat="40.6785734" lon="9.4693074"><ele>277.0</ele><time>2026-04-12T10:07:05.274Z</time></trkpt><trkpt lat="40.6784691" lon="9.4693"><ele>273.0</ele><time>2026-04-12T10:07:07.262Z</time></trkpt><trkpt lat="40.6783456" lon="9.4693088"><ele>269.0</ele><time>2026-04-12T10:07:09.27Z</time></trkpt><trkpt lat="40.6782165" lon="9.4693003"><ele>269.0</ele><time>2026-04-12T10:07:11.263Z</time></trkpt><trkpt lat="40.6781496" lon="9.4692961"><ele>269.0</ele><time>2026-04-12T10:07:12.267Z</time></trkpt><trkpt lat="40.6780827" lon="9.4692953"><ele>269.0</ele><time>2026-04-12T10:07:13.284Z</time></trkpt><trkpt lat="40.678019" lon="9.4692919"><ele>269.0</ele><time>2026-04-12T10:07:14.265Z</time></trkpt><trkpt lat="40.6778935" lon="9.4692659"><ele>269.0</ele><time>2026-04-12T10:07:16.316Z</time></trkpt><trkpt lat="40.6778236" lon="9.4692389"><ele>269.0</ele><time>2026-04-12T10:07:17.265Z</time></trkpt><trkpt lat="40.677755" lon="9.4691932"><ele>271.1666666666667</ele><time>2026-04-12T10:07:18.26Z</time></trkpt><trkpt lat="40.6776855" lon="9.4691327"><ele>273.33333333333337</ele><time>2026-04-12T10:07:19.283Z</time></trkpt><trkpt lat="40.6776203" lon="9.4690786"><ele>275.5</ele><time>2026-04-12T10:07:20.268Z</time></trkpt><trkpt lat="40.6775566" lon="9.4690348"><ele>277.6666666666667</ele><time>2026-04-12T10:07:21.257Z</time></trkpt><trkpt lat="40.6774677" lon="9.46899"><ele>279.8333333333333</ele><time>2026-04-12T10:07:23.399Z</time></trkpt><trkpt lat="40.6774123" lon="9.4690585"><ele>282.0</ele><time>2026-04-12T10:07:25.255Z</time></trkpt><trkpt lat="40.6773843" lon="9.4691348"><ele>282.0</ele><time>2026-04-12T10:07:26.264Z</time></trkpt><trkpt lat="40.6773452" lon="9.4692047"><ele>282.0</ele><time>2026-04-12T10:07:27.254Z</time></trkpt><trkpt lat="40.6772655" lon="9.4693238"><ele>282.0</ele><time>2026-04-12T10:07:29.258Z</time></trkpt><trkpt lat="40.6771748" lon="9.4694278"><ele>282.0</ele><time>2026-04-12T10:07:31.275Z</time></trkpt><trkpt lat="40.6770909" lon="9.4694829"><ele>282.0</ele><time>2026-04-12T10:07:33.258Z</time></trkpt><trkpt lat="40.6770056" lon="9.4694816"><ele>284.6</ele><time>2026-04-12T10:07:35.272Z</time></trkpt><trkpt lat="40.6769301" lon="9.4694095"><ele>287.2</ele><time>2026-04-12T10:07:37.267Z</time></trkpt><trkpt lat="40.6768513" lon="9.4693003"><ele>289.8</ele><time>2026-04-12T10:07:39.264Z</time></trkpt><trkpt lat="40.6767716" lon="9.469167"><ele>292.4</ele><time>2026-04-12T10:07:41.262Z</time></trkpt><trkpt lat="40.6767306" lon="9.4690768"><ele>295.0</ele><time>2026-04-12T10:07:42.256Z</time></trkpt><trkpt lat="40.6766925" lon="9.4689685"><ele>295.0</ele><time>2026-04-12T10:07:43.256Z</time></trkpt><trkpt lat="40.6766567" lon="9.4688673"><ele>295.0</ele><time>2026-04-12T10:07:44.266Z</time></trkpt><trkpt lat="40.6766237" lon="9.468793"><ele>295.0</ele><time>2026-04-12T10:07:45.253Z</time></trkpt><trkpt lat="40.6765772" lon="9.4686634"><ele>295.0</ele><time>2026-04-12T10:07:47.26Z</time></trkpt><trkpt lat="40.6765497" lon="9.468569"><ele>295.0</ele><time>2026-04-12T10:07:49.247Z</time></trkpt><trkpt lat="40.6765295" lon="9.4684756"><ele>295.0</ele><time>2026-04-12T10:07:51.259Z</time></trkpt><trkpt lat="40.6765008" lon="9.4683345"><ele>293.2</ele><time>2026-04-12T10:07:53.263Z</time></trkpt><trkpt lat="40.6764629" lon="9.4682259"><ele>291.4</ele><time>2026-04-12T10:07:55.244Z</time></trkpt><trkpt lat="40.6763824" lon="9.4681668"><ele>289.6</ele><time>2026-04-12T10:07:57.236Z</time></trkpt><trkpt lat="40.6762816" lon="9.4681036"><ele>287.8</ele><time>2026-04-12T10:07:59.258Z</time></trkpt><trkpt lat="40.6762028" lon="9.468084"><ele>286.0</ele><time>2026-04-12T10:08:01.248Z</time></trkpt><trkpt lat="40.676146" lon="9.4681692"><ele>288.6</ele><time>2026-04-12T10:08:03.268Z</time></trkpt><trkpt lat="40.6760836" lon="9.4682896"><ele>291.20000000000005</ele><time>2026-04-12T10:08:05.258Z</time></trkpt><trkpt lat="40.676014" lon="9.4683645"><ele>293.79999999999995</ele><time>2026-04-12T10:08:07.243Z</time></trkpt><trkpt lat="40.675915" lon="9.4683636"><ele>296.4</ele><time>2026-04-12T10:08:09.245Z</time></trkpt><trkpt lat="40.6758192" lon="9.4683462"><ele>299.0</ele><time>2026-04-12T10:08:11.26Z</time></trkpt><trkpt lat="40.6756987" lon="9.4683583"><ele>299.0</ele><time>2026-04-12T10:08:13.229Z</time></trkpt><trkpt lat="40.6756373" lon="9.4683799"><ele>299.0</ele><time>2026-04-12T10:08:14.243Z</time></trkpt><trkpt lat="40.6755255" lon="9.4684234"><ele>299.0</ele><time>2026-04-12T10:08:16.229Z</time></trkpt><trkpt lat="40.6754229" lon="9.4684815"><ele>299.0</ele><time>2026-04-12T10:08:18.249Z</time></trkpt><trkpt lat="40.6753409" lon="9.4685505"><ele>299.0</ele><time>2026-04-12T10:08:20.243Z</time></trkpt><trkpt lat="40.6752613" lon="9.4686223"><ele>301.8</ele><time>2026-04-12T10:08:22.29Z</time></trkpt><trkpt lat="40.6751855" lon="9.4686401"><ele>304.59999999999997</ele><time>2026-04-12T10:08:24.225Z</time></trkpt><trkpt lat="40.6750913" lon="9.4685879"><ele>307.4</ele><time>2026-04-12T10:08:26.244Z</time></trkpt><trkpt lat="40.6750135" lon="9.4684911"><ele>310.2</ele><time>2026-04-12T10:08:28.224Z</time></trkpt><trkpt lat="40.6749468" lon="9.4684187"><ele>313.0</ele><time>2026-04-12T10:08:30.233Z</time></trkpt><trkpt lat="40.6748568" lon="9.4683949"><ele>313.0</ele><time>2026-04-12T10:08:32.234Z</time></trkpt><trkpt lat="40.6747782" lon="9.4684537"><ele>313.0</ele><time>2026-04-12T10:08:34.215Z</time></trkpt><trkpt lat="40.6747075" lon="9.4685529"><ele>313.0</ele><time>2026-04-12T10:08:36.223Z</time></trkpt><trkpt lat="40.6746555" lon="9.4686115"><ele>313.0</ele><time>2026-04-12T10:08:37.226Z</time></trkpt><trkpt lat="40.6745947" lon="9.4686587"><ele>313.0</ele><time>2026-04-12T10:08:38.24Z</time></trkpt><trkpt lat="40.6744941" lon="9.4687083"><ele>313.0</ele><time>2026-04-12T10:08:40.245Z</time></trkpt><trkpt lat="40.674444" lon="9.4687605"><ele>314.0</ele><time>2026-04-12T10:08:41.282Z</time></trkpt><trkpt lat="40.6744034" lon="9.468832"><ele>315.0</ele><time>2026-04-12T10:08:42.215Z</time></trkpt><trkpt lat="40.6743654" lon="9.4689138"><ele>316.0</ele><time>2026-04-12T10:08:43.222Z</time></trkpt><trkpt lat="40.6743239" lon="9.4689908"><ele>317.0</ele><time>2026-04-12T10:08:44.221Z</time></trkpt><trkpt lat="40.6742698" lon="9.4690622"><ele>318.0</ele><time>2026-04-12T10:08:45.211Z</time></trkpt><trkpt lat="40.6742074" lon="9.4691359"><ele>319.0</ele><time>2026-04-12T10:08:46.216Z</time></trkpt><trkpt lat="40.674139" lon="9.4692049"><ele>319.0</ele><time>2026-04-12T10:08:47.208Z</time></trkpt><trkpt lat="40.6740736" lon="9.4692782"><ele>319.0</ele><time>2026-04-12T10:08:48.224Z</time></trkpt><trkpt lat="40.6740132" lon="9.4693409"><ele>319.0</ele><time>2026-04-12T10:08:49.223Z</time></trkpt><trkpt lat="40.6739548" lon="9.4694038"><ele>319.0</ele><time>2026-04-12T10:08:50.208Z</time></trkpt><trkpt lat="40.6738927" lon="9.4694701"><ele>319.0</ele><time>2026-04-12T10:08:51.225Z</time></trkpt><trkpt lat="40.6738426" lon="9.4695351"><ele>319.0</ele><time>2026-04-12T10:08:52.221Z</time></trkpt><trkpt lat="40.6737544" lon="9.4696507"><ele>318.14285714285717</ele><time>2026-04-12T10:08:54.24Z</time></trkpt><trkpt lat="40.6737024" lon="9.469709"><ele>317.2857142857143</ele><time>2026-04-12T10:08:55.227Z</time></trkpt><trkpt lat="40.6736381" lon="9.4697763"><ele>316.42857142857144</ele><time>2026-04-12T10:08:56.217Z</time></trkpt><trkpt lat="40.6735794" lon="9.4698382"><ele>315.57142857142856</ele><time>2026-04-12T10:08:57.217Z</time></trkpt><trkpt lat="40.6735271" lon="9.4698982"><ele>314.7142857142857</ele><time>2026-04-12T10:08:58.227Z</time></trkpt><trkpt lat="40.6734771" lon="9.4699554"><ele>313.85714285714283</ele><time>2026-04-12T10:08:59.211Z</time></trkpt><trkpt lat="40.6734276" lon="9.4700167"><ele>313.0</ele><time>2026-04-12T10:09:00.215Z</time></trkpt><trkpt lat="40.6733743" lon="9.4700874"><ele>313.0</ele><time>2026-04-12T10:09:01.211Z</time></trkpt><trkpt lat="40.6733317" lon="9.4701719"><ele>313.0</ele><time>2026-04-12T10:09:02.233Z</time></trkpt><trkpt lat="40.6732848" lon="9.470264"><ele>313.0</ele><time>2026-04-12T10:09:03.213Z</time></trkpt><trkpt lat="40.6732408" lon="9.4703457"><ele>313.0</ele><time>2026-04-12T10:09:04.216Z</time></trkpt><trkpt lat="40.6731967" lon="9.470418"><ele>313.0</ele><time>2026-04-12T10:09:05.22Z</time></trkpt><trkpt lat="40.6731469" lon="9.4705603"><ele>313.0</ele><time>2026-04-12T10:09:07.233Z</time></trkpt><trkpt lat="40.6731432" lon="9.4706472"><ele>314.8333333333333</ele><time>2026-04-12T10:09:08.21Z</time></trkpt><trkpt lat="40.6731361" lon="9.4707379"><ele>316.66666666666663</ele><time>2026-04-12T10:09:09.222Z</time></trkpt><trkpt lat="40.6731201" lon="9.470825"><ele>318.5</ele><time>2026-04-12T10:09:10.213Z</time></trkpt><trkpt lat="40.6730974" lon="9.4709074"><ele>320.3333333333333</ele><time>2026-04-12T10:09:11.212Z</time></trkpt><trkpt lat="40.6730705" lon="9.4709872"><ele>322.1666666666667</ele><time>2026-04-12T10:09:12.215Z</time></trkpt><trkpt lat="40.6730431" lon="9.4710659"><ele>324.0</ele><time>2026-04-12T10:09:13.2Z</time></trkpt><trkpt lat="40.6729978" lon="9.4712203"><ele>324.79999999999995</ele><time>2026-04-12T10:09:15.21Z</time></trkpt><trkpt lat="40.6729481" lon="9.4713496"><ele>325.59999999999997</ele><time>2026-04-12T10:09:17.209Z</time></trkpt><trkpt lat="40.6728863" lon="9.4714111"><ele>326.4</ele><time>2026-04-12T10:09:19.2Z</time></trkpt><trkpt lat="40.6728154" lon="9.4713988"><ele>327.2</ele><time>2026-04-12T10:09:21.219Z</time></trkpt><trkpt lat="40.6726957" lon="9.4713146"><ele>328.0</ele><time>2026-04-12T10:09:23.189Z</time></trkpt><trkpt lat="40.6726309" lon="9.4712631"><ele>325.16666666666663</ele><time>2026-04-12T10:09:24.204Z</time></trkpt><trkpt lat="40.6725702" lon="9.4712147"><ele>322.3333333333333</ele><time>2026-04-12T10:09:25.307Z</time></trkpt><trkpt lat="40.6725073" lon="9.4711554"><ele>319.5</ele><time>2026-04-12T10:09:26.307Z</time></trkpt><trkpt lat="40.6724507" lon="9.4710882"><ele>316.6666666666667</ele><time>2026-04-12T10:09:27.302Z</time></trkpt><trkpt lat="40.6724004" lon="9.4710159"><ele>313.83333333333337</ele><time>2026-04-12T10:09:28.306Z</time></trkpt><trkpt lat="40.672361" lon="9.4709483"><ele>311.0</ele><time>2026-04-12T10:09:29.288Z</time></trkpt><trkpt lat="40.672275" lon="9.47084"><ele>311.0</ele><time>2026-04-12T10:09:31.281Z</time></trkpt><trkpt lat="40.6722103" lon="9.4707209"><ele>311.0</ele><time>2026-04-12T10:09:33.283Z</time></trkpt><trkpt lat="40.6721395" lon="9.4706133"><ele>311.0</ele><time>2026-04-12T10:09:35.289Z</time></trkpt><trkpt lat="40.6720581" lon="9.4705466"><ele>311.0</ele><time>2026-04-12T10:09:37.29Z</time></trkpt><trkpt lat="40.6719708" lon="9.4704916"><ele>311.0</ele><time>2026-04-12T10:09:39.298Z</time></trkpt><trkpt lat="40.6718711" lon="9.4704679"><ele>310.8</ele><time>2026-04-12T10:09:41.279Z</time></trkpt><trkpt lat="40.6717763" lon="9.4705036"><ele>310.6</ele><time>2026-04-12T10:09:43.286Z</time></trkpt><trkpt lat="40.6717054" lon="9.4705923"><ele>310.4</ele><time>2026-04-12T10:09:45.286Z</time></trkpt><trkpt lat="40.6716401" lon="9.4706804"><ele>310.2</ele><time>2026-04-12T10:09:47.282Z</time></trkpt><trkpt lat="40.671564" lon="9.4707826"><ele>310.0</ele><time>2026-04-12T10:09:49.31Z</time></trkpt><trkpt lat="40.6714651" lon="9.4708587"><ele>310.0</ele><time>2026-04-12T10:09:51.272Z</time></trkpt><trkpt lat="40.6713789" lon="9.4709158"><ele>310.0</ele><time>2026-04-12T10:09:53.279Z</time></trkpt><trkpt lat="40.6712897" lon="9.4709385"><ele>310.0</ele><time>2026-04-12T10:09:55.293Z</time></trkpt><trkpt lat="40.6711999" lon="9.470931"><ele>310.0</ele><time>2026-04-12T10:09:57.27Z</time></trkpt><trkpt lat="40.6711115" lon="9.4709399"><ele>310.0</ele><time>2026-04-12T10:09:59.278Z</time></trkpt><trkpt lat="40.6710391" lon="9.4709597"><ele>310.0</ele><time>2026-04-12T10:10:01.284Z</time></trkpt><trkpt lat="40.6709667" lon="9.4710132"><ele>309.0</ele><time>2026-04-12T10:10:04.284Z</time></trkpt><trkpt lat="40.6709102" lon="9.4710735"><ele>308.0</ele><time>2026-04-12T10:10:06.264Z</time></trkpt><trkpt lat="40.6708231" lon="9.4711084"><ele>307.0</ele><time>2026-04-12T10:10:08.267Z</time></trkpt><trkpt lat="40.6707308" lon="9.4710695"><ele>306.0</ele><time>2026-04-12T10:10:10.268Z</time></trkpt><trkpt lat="40.6706706" lon="9.4710379"><ele>305.0</ele><time>2026-04-12T10:10:11.287Z</time></trkpt><trkpt lat="40.6705972" lon="9.4710019"><ele>304.0</ele><time>2026-04-12T10:10:12.248Z</time></trkpt><trkpt lat="40.6705303" lon="9.4709768"><ele>304.0</ele><time>2026-04-12T10:10:13.247Z</time></trkpt><trkpt lat="40.6704136" lon="9.4709234"><ele>304.0</ele><time>2026-04-12T10:10:15.25Z</time></trkpt><trkpt lat="40.670319" lon="9.4708778"><ele>304.0</ele><time>2026-04-12T10:10:17.264Z</time></trkpt><trkpt lat="40.6702164" lon="9.4708474"><ele>304.0</ele><time>2026-04-12T10:10:19.25Z</time></trkpt><trkpt lat="40.6700981" lon="9.470844"><ele>304.0</ele><time>2026-04-12T10:10:21.238Z</time></trkpt><trkpt lat="40.6699803" lon="9.4708423"><ele>302.59999999999997</ele><time>2026-04-12T10:10:23.239Z</time></trkpt><trkpt lat="40.6698814" lon="9.4708813"><ele>301.2</ele><time>2026-04-12T10:10:25.231Z</time></trkpt><trkpt lat="40.6698266" lon="9.4709768"><ele>299.79999999999995</ele><time>2026-04-12T10:10:27.249Z</time></trkpt><trkpt lat="40.6697829" lon="9.4711272"><ele>298.4</ele><time>2026-04-12T10:10:29.252Z</time></trkpt><trkpt lat="40.6697211" lon="9.4712306"><ele>297.0</ele><time>2026-04-12T10:10:31.23Z</time></trkpt><trkpt lat="40.6696377" lon="9.4712519"><ele>297.0</ele><time>2026-04-12T10:10:33.23Z</time></trkpt><trkpt lat="40.6695744" lon="9.471247"><ele>297.0</ele><time>2026-04-12T10:10:35.231Z</time></trkpt><trkpt lat="40.6694976" lon="9.4712498"><ele>297.0</ele><time>2026-04-12T10:10:37.236Z</time></trkpt><trkpt lat="40.6694098" lon="9.4712524"><ele>297.0</ele><time>2026-04-12T10:10:39.241Z</time></trkpt><trkpt lat="40.6693123" lon="9.4712483"><ele>297.0</ele><time>2026-04-12T10:10:41.224Z</time></trkpt><trkpt lat="40.6692129" lon="9.4712311"><ele>297.0</ele><time>2026-04-12T10:10:43.224Z</time></trkpt><trkpt lat="40.6690843" lon="9.4712096"><ele>295.6</ele><time>2026-04-12T10:10:45.245Z</time></trkpt><trkpt lat="40.6689713" lon="9.4711912"><ele>294.2</ele><time>2026-04-12T10:10:47.217Z</time></trkpt><trkpt lat="40.6688637" lon="9.4711757"><ele>292.8</ele><time>2026-04-12T10:10:49.216Z</time></trkpt><trkpt lat="40.668752" lon="9.471168"><ele>291.4</ele><time>2026-04-12T10:10:51.245Z</time></trkpt><trkpt lat="40.6686424" lon="9.471132"><ele>290.0</ele><time>2026-04-12T10:10:53.203Z</time></trkpt><trkpt lat="40.6685571" lon="9.4710581"><ele>289.2</ele><time>2026-04-12T10:10:55.206Z</time></trkpt><trkpt lat="40.6684943" lon="9.4709772"><ele>288.4</ele><time>2026-04-12T10:10:57.212Z</time></trkpt><trkpt lat="40.668423" lon="9.4709031"><ele>287.6</ele><time>2026-04-12T10:10:59.21Z</time></trkpt><trkpt lat="40.6683254" lon="9.4708463"><ele>286.8</ele><time>2026-04-12T10:11:01.221Z</time></trkpt><trkpt lat="40.6682003" lon="9.4708105"><ele>286.0</ele><time>2026-04-12T10:11:03.2Z</time></trkpt><trkpt lat="40.6681292" lon="9.470804"><ele>286.0</ele><time>2026-04-12T10:11:04.209Z</time></trkpt><trkpt lat="40.6680566" lon="9.4708048"><ele>286.0</ele><time>2026-04-12T10:11:05.21Z</time></trkpt><trkpt lat="40.6679845" lon="9.4708085"><ele>286.0</ele><time>2026-04-12T10:11:06.211Z</time></trkpt><trkpt lat="40.6679139" lon="9.470823"><ele>286.0</ele><time>2026-04-12T10:11:07.205Z</time></trkpt><trkpt lat="40.6677901" lon="9.4708811"><ele>286.0</ele><time>2026-04-12T10:11:09.208Z</time></trkpt><trkpt lat="40.667728" lon="9.4709198"><ele>286.0</ele><time>2026-04-12T10:11:10.212Z</time></trkpt><trkpt lat="40.6676683" lon="9.4709615"><ele>285.6</ele><time>2026-04-12T10:11:11.212Z</time></trkpt><trkpt lat="40.6675657" lon="9.471046"><ele>285.20000000000005</ele><time>2026-04-12T10:11:13.201Z</time></trkpt><trkpt lat="40.667452" lon="9.471101"><ele>284.79999999999995</ele><time>2026-04-12T10:11:15.201Z</time></trkpt><trkpt lat="40.6673836" lon="9.4711032"><ele>284.4</ele><time>2026-04-12T10:11:16.195Z</time></trkpt><trkpt lat="40.6673196" lon="9.471111"><ele>284.0</ele><time>2026-04-12T10:11:17.19Z</time></trkpt><trkpt lat="40.6672048" lon="9.4711543"><ele>284.0</ele><time>2026-04-12T10:11:19.293Z</time></trkpt><trkpt lat="40.6670827" lon="9.4711861"><ele>284.0</ele><time>2026-04-12T10:11:21.326Z</time></trkpt><trkpt lat="40.6670123" lon="9.4711913"><ele>284.0</ele><time>2026-04-12T10:11:22.297Z</time></trkpt><trkpt lat="40.6668863" lon="9.4712128"><ele>284.0</ele><time>2026-04-12T10:11:24.304Z</time></trkpt><trkpt lat="40.6668146" lon="9.4712475"><ele>284.0</ele><time>2026-04-12T10:11:25.292Z</time></trkpt><trkpt lat="40.6667422" lon="9.4712958"><ele>284.33333333333337</ele><time>2026-04-12T10:11:26.289Z</time></trkpt><trkpt lat="40.6666659" lon="9.4713588"><ele>284.6666666666667</ele><time>2026-04-12T10:11:27.303Z</time></trkpt><trkpt lat="40.6665967" lon="9.4714137"><ele>285.0</ele><time>2026-04-12T10:11:28.298Z</time></trkpt><trkpt lat="40.6665325" lon="9.4714648"><ele>285.3333333333333</ele><time>2026-04-12T10:11:29.288Z</time></trkpt><trkpt lat="40.6664759" lon="9.4715119"><ele>285.66666666666663</ele><time>2026-04-12T10:11:30.306Z</time></trkpt><trkpt lat="40.6663853" lon="9.4716048"><ele>286.0</ele><time>2026-04-12T10:11:32.289Z</time></trkpt><trkpt lat="40.6662975" lon="9.4716528"><ele>286.0</ele><time>2026-04-12T10:11:34.291Z</time></trkpt><trkpt lat="40.6661887" lon="9.4716709"><ele>286.0</ele><time>2026-04-12T10:11:36.298Z</time></trkpt><trkpt lat="40.666074" lon="9.4716839"><ele>286.0</ele><time>2026-04-12T10:11:38.284Z</time></trkpt><trkpt lat="40.6659731" lon="9.4717036"><ele>286.0</ele><time>2026-04-12T10:11:40.282Z</time></trkpt><trkpt lat="40.6659068" lon="9.4717129"><ele>286.0</ele><time>2026-04-12T10:11:41.281Z</time></trkpt><trkpt lat="40.6658352" lon="9.4717196"><ele>284.8333333333333</ele><time>2026-04-12T10:11:42.289Z</time></trkpt><trkpt lat="40.6657599" lon="9.4717271"><ele>283.66666666666663</ele><time>2026-04-12T10:11:43.288Z</time></trkpt><trkpt lat="40.6656874" lon="9.4717337"><ele>282.5</ele><time>2026-04-12T10:11:44.286Z</time></trkpt><trkpt lat="40.6655851" lon="9.471719"><ele>281.3333333333333</ele><time>2026-04-12T10:11:46.298Z</time></trkpt><trkpt lat="40.6655487" lon="9.471645"><ele>280.1666666666667</ele><time>2026-04-12T10:11:48.28Z</time></trkpt><trkpt lat="40.6655248" lon="9.4715511"><ele>279.0</ele><time>2026-04-12T10:11:50.277Z</time></trkpt><trkpt lat="40.6654963" lon="9.4714666"><ele>279.0</ele><time>2026-04-12T10:11:54.264Z</time></trkpt><trkpt lat="40.66545" lon="9.4713607"><ele>279.0</ele><time>2026-04-12T10:14:48.291Z</time></trkpt><trkpt lat="40.6654153" lon="9.4712596"><ele>279.0</ele><time>2026-04-12T10:14:51.288Z</time></trkpt><trkpt lat="40.6653967" lon="9.471155"><ele>279.0</ele><time>2026-04-12T10:15:53.225Z</time></trkpt><trkpt lat="40.6653919" lon="9.4710646"><ele>279.0</ele><time>2026-04-12T10:15:55.214Z</time></trkpt><trkpt lat="40.665373" lon="9.4709569"><ele>279.0</ele><time>2026-04-12T10:15:58.226Z</time></trkpt><trkpt lat="40.6653408" lon="9.4708601"><ele>276.3333333333333</ele><time>2026-04-12T10:16:01.214Z</time></trkpt><trkpt lat="40.6652779" lon="9.4708513"><ele>273.6666666666667</ele><time>2026-04-12T10:16:04.217Z</time></trkpt><trkpt lat="40.6652443" lon="9.4709334"><ele>271.0</ele><time>2026-04-12T10:16:07.217Z</time></trkpt><trkpt lat="40.6652376" lon="9.4710418"><ele>268.33333333333337</ele><time>2026-04-12T10:16:10.208Z</time></trkpt><trkpt lat="40.6651943" lon="9.4711352"><ele>265.6666666666667</ele><time>2026-04-12T10:16:12.234Z</time></trkpt><trkpt lat="40.6651164" lon="9.4711917"><ele>263.0</ele><time>2026-04-12T10:16:15.208Z</time></trkpt><trkpt lat="40.6650347" lon="9.4711679"><ele>263.0</ele><time>2026-04-12T10:16:17.223Z</time></trkpt><trkpt lat="40.6649423" lon="9.4711324"><ele>263.0</ele><time>2026-04-12T10:16:19.21Z</time></trkpt><trkpt lat="40.6648414" lon="9.4710819"><ele>263.0</ele><time>2026-04-12T10:16:21.21Z</time></trkpt><trkpt lat="40.6647756" lon="9.4710143"><ele>263.0</ele><time>2026-04-12T10:16:23.202Z</time></trkpt><trkpt lat="40.6647266" lon="9.4709476"><ele>263.0</ele><time>2026-04-12T10:16:25.222Z</time></trkpt><trkpt lat="40.6646703" lon="9.4708779"><ele>263.0</ele><time>2026-04-12T10:16:28.308Z</time></trkpt><trkpt lat="40.6646254" lon="9.4708038"><ele>263.0</ele><time>2026-04-12T10:16:31.303Z</time></trkpt><trkpt lat="40.6645861" lon="9.4706932"><ele>263.0</ele><time>2026-04-12T10:16:34.285Z</time></trkpt><trkpt lat="40.6645664" lon="9.4705971"><ele>263.0</ele><time>2026-04-12T10:16:36.286Z</time></trkpt><trkpt lat="40.6645508" lon="9.4704882"><ele>263.0</ele><time>2026-04-12T10:16:39.305Z</time></trkpt><trkpt lat="40.6645368" lon="9.4703794"><ele>263.0</ele><time>2026-04-12T10:16:41.292Z</time></trkpt><trkpt lat="40.6645034" lon="9.4702883"><ele>263.0</ele><time>2026-04-12T10:16:43.28Z</time></trkpt><trkpt lat="40.6644191" lon="9.4702191"><ele>263.5</ele><time>2026-04-12T10:16:46.288Z</time></trkpt><trkpt lat="40.6643724" lon="9.4701573"><ele>264.0</ele><time>2026-04-12T10:16:48.274Z</time></trkpt><trkpt lat="40.6643253" lon="9.4700533"><ele>264.5</ele><time>2026-04-12T10:16:51.277Z</time></trkpt><trkpt lat="40.6643128" lon="9.4699535"><ele>265.0</ele><time>2026-04-12T10:16:53.28Z</time></trkpt><trkpt lat="40.6643155" lon="9.4698359"><ele>265.5</ele><time>2026-04-12T10:16:55.278Z</time></trkpt><trkpt lat="40.6643281" lon="9.4697087"><ele>266.0</ele><time>2026-04-12T10:16:57.281Z</time></trkpt><trkpt lat="40.6643285" lon="9.469591"><ele>264.8</ele><time>2026-04-12T10:16:59.261Z</time></trkpt><trkpt lat="40.6643" lon="9.4694661"><ele>263.6</ele><time>2026-04-12T10:17:01.26Z</time></trkpt><trkpt lat="40.6642987" lon="9.4693414"><ele>262.4</ele><time>2026-04-12T10:17:03.251Z</time></trkpt><trkpt lat="40.6643355" lon="9.4692373"><ele>261.2</ele><time>2026-04-12T10:17:05.252Z</time></trkpt><trkpt lat="40.6643957" lon="9.4691361"><ele>260.0</ele><time>2026-04-12T10:17:07.253Z</time></trkpt><trkpt lat="40.6644522" lon="9.4690281"><ele>257.2</ele><time>2026-04-12T10:17:09.251Z</time></trkpt><trkpt lat="40.664496" lon="9.4689109"><ele>254.4</ele><time>2026-04-12T10:17:11.244Z</time></trkpt><trkpt lat="40.6645298" lon="9.4687767"><ele>251.60000000000002</ele><time>2026-04-12T10:17:13.241Z</time></trkpt><trkpt lat="40.6645423" lon="9.4686234"><ele>248.8</ele><time>2026-04-12T10:17:15.262Z</time></trkpt><trkpt lat="40.6645582" lon="9.4684666"><ele>246.0</ele><time>2026-04-12T10:17:17.241Z</time></trkpt><trkpt lat="40.6645711" lon="9.468308"><ele>244.75</ele><time>2026-04-12T10:17:19.237Z</time></trkpt><trkpt lat="40.6645551" lon="9.4681513"><ele>243.5</ele><time>2026-04-12T10:17:21.237Z</time></trkpt><trkpt lat="40.6645211" lon="9.4680078"><ele>242.25</ele><time>2026-04-12T10:17:23.236Z</time></trkpt><trkpt lat="40.6644846" lon="9.4678744"><ele>241.0</ele><time>2026-04-12T10:17:25.247Z</time></trkpt><trkpt lat="40.6644341" lon="9.4677447"><ele>243.4</ele><time>2026-04-12T10:17:27.234Z</time></trkpt><trkpt lat="40.6643632" lon="9.4676264"><ele>245.8</ele><time>2026-04-12T10:17:29.231Z</time></trkpt><trkpt lat="40.6642902" lon="9.4675161"><ele>248.20000000000002</ele><time>2026-04-12T10:17:31.23Z</time></trkpt><trkpt lat="40.6642282" lon="9.467411"><ele>250.60000000000002</ele><time>2026-04-12T10:17:33.248Z</time></trkpt><trkpt lat="40.6641432" lon="9.4673364"><ele>253.0</ele><time>2026-04-12T10:17:35.229Z</time></trkpt><trkpt lat="40.664048" lon="9.4672971"><ele>253.0</ele><time>2026-04-12T10:17:37.231Z</time></trkpt><trkpt lat="40.6639374" lon="9.4672425"><ele>253.0</ele><time>2026-04-12T10:17:39.228Z</time></trkpt><trkpt lat="40.6638431" lon="9.4671689"><ele>253.0</ele><time>2026-04-12T10:17:41.218Z</time></trkpt><trkpt lat="40.6637569" lon="9.4671094"><ele>253.0</ele><time>2026-04-12T10:17:43.237Z</time></trkpt><trkpt lat="40.6636902" lon="9.4670782"><ele>253.0</ele><time>2026-04-12T10:17:45.232Z</time></trkpt><trkpt lat="40.6636049" lon="9.467067"><ele>253.0</ele><time>2026-04-12T10:17:47.228Z</time></trkpt><trkpt lat="40.6635116" lon="9.4670255"><ele>253.0</ele><time>2026-04-12T10:17:49.21Z</time></trkpt><trkpt lat="40.6634274" lon="9.4669159"><ele>253.0</ele><time>2026-04-12T10:17:51.211Z</time></trkpt><trkpt lat="40.663352" lon="9.4668082"><ele>253.0</ele><time>2026-04-12T10:17:53.216Z</time></trkpt><trkpt lat="40.6632697" lon="9.4667108"><ele>253.0</ele><time>2026-04-12T10:17:55.231Z</time></trkpt><trkpt lat="40.6631904" lon="9.4666118"><ele>253.0</ele><time>2026-04-12T10:17:57.213Z</time></trkpt><trkpt lat="40.6630984" lon="9.4665389"><ele>253.0</ele><time>2026-04-12T10:17:59.202Z</time></trkpt><trkpt lat="40.6630142" lon="9.4664713"><ele>253.0</ele><time>2026-04-12T10:18:01.205Z</time></trkpt><trkpt lat="40.6629318" lon="9.4663838"><ele>253.0</ele><time>2026-04-12T10:18:03.217Z</time></trkpt><trkpt lat="40.6628482" lon="9.4662907"><ele>253.0</ele><time>2026-04-12T10:18:05.211Z</time></trkpt><trkpt lat="40.6627988" lon="9.4661816"><ele>254.00000000000003</ele><time>2026-04-12T10:18:07.207Z</time></trkpt><trkpt lat="40.6627535" lon="9.4661012"><ele>255.0</ele><time>2026-04-12T10:18:09.196Z</time></trkpt><trkpt lat="40.6626953" lon="9.4660661"><ele>256.0</ele><time>2026-04-12T10:18:11.2Z</time></trkpt><trkpt lat="40.6626245" lon="9.4660955"><ele>257.0</ele><time>2026-04-12T10:18:14.307Z</time></trkpt><trkpt lat="40.662573" lon="9.4661569"><ele>258.0</ele><time>2026-04-12T10:18:16.199Z</time></trkpt><trkpt lat="40.6625355" lon="9.4662347"><ele>259.00000000000006</ele><time>2026-04-12T10:18:18.29Z</time></trkpt><trkpt lat="40.6624837" lon="9.4663116"><ele>260.0</ele><time>2026-04-12T10:18:20.287Z</time></trkpt><trkpt lat="40.6624288" lon="9.4663643"><ele>260.00000000000006</ele><time>2026-04-12T10:18:22.297Z</time></trkpt><trkpt lat="40.6623676" lon="9.4663997"><ele>260.0</ele><time>2026-04-12T10:18:24.308Z</time></trkpt><trkpt lat="40.6623045" lon="9.46644"><ele>260.0</ele><time>2026-04-12T10:18:26.291Z</time></trkpt><trkpt lat="40.6622347" lon="9.4664824"><ele>260.0</ele><time>2026-04-12T10:18:28.287Z</time></trkpt><trkpt lat="40.662162" lon="9.4665088"><ele>260.0</ele><time>2026-04-12T10:18:30.289Z</time></trkpt><trkpt lat="40.6620731" lon="9.4665174"><ele>260.00000000000006</ele><time>2026-04-12T10:18:32.278Z</time></trkpt><trkpt lat="40.6620041" lon="9.4665199"><ele>260.0</ele><time>2026-04-12T10:18:34.282Z</time></trkpt><trkpt lat="40.6619317" lon="9.4665214"><ele>256.0</ele><time>2026-04-12T10:18:36.289Z</time></trkpt><trkpt lat="40.6618493" lon="9.4665308"><ele>252.0</ele><time>2026-04-12T10:18:39.291Z</time></trkpt><trkpt lat="40.6617866" lon="9.4665956"><ele>248.0</ele><time>2026-04-12T10:18:42.294Z</time></trkpt><trkpt lat="40.6617374" lon="9.4666795"><ele>244.0</ele><time>2026-04-12T10:18:45.267Z</time></trkpt><trkpt lat="40.6616915" lon="9.4667667"><ele>240.00000000000003</ele><time>2026-04-12T10:18:47.274Z</time></trkpt><trkpt lat="40.6616295" lon="9.4668617"><ele>236.0</ele><time>2026-04-12T10:18:49.287Z</time></trkpt><trkpt lat="40.6615762" lon="9.4669519"><ele>236.0</ele><time>2026-04-12T10:18:51.263Z</time></trkpt><trkpt lat="40.6615259" lon="9.4670513"><ele>236.00000000000003</ele><time>2026-04-12T10:18:53.272Z</time></trkpt><trkpt lat="40.6614736" lon="9.4671588"><ele>236.00000000000003</ele><time>2026-04-12T10:18:55.255Z</time></trkpt><trkpt lat="40.6614053" lon="9.4672683"><ele>236.0</ele><time>2026-04-12T10:18:57.249Z</time></trkpt><trkpt lat="40.6613482" lon="9.4673895"><ele>236.0</ele><time>2026-04-12T10:18:59.248Z</time></trkpt><trkpt lat="40.661297" lon="9.4675107"><ele>239.0</ele><time>2026-04-12T10:19:01.247Z</time></trkpt><trkpt lat="40.6612531" lon="9.467629"><ele>242.00000000000003</ele><time>2026-04-12T10:19:03.262Z</time></trkpt><trkpt lat="40.6612081" lon="9.4677405"><ele>245.00000000000003</ele><time>2026-04-12T10:19:05.256Z</time></trkpt><trkpt lat="40.6611614" lon="9.4678543"><ele>248.0</ele><time>2026-04-12T10:19:07.248Z</time></trkpt><trkpt lat="40.6611043" lon="9.4679642"><ele>251.0</ele><time>2026-04-12T10:19:09.237Z</time></trkpt><trkpt lat="40.6610508" lon="9.4680629"><ele>245.0</ele><time>2026-04-12T10:19:11.227Z</time></trkpt><trkpt lat="40.6610061" lon="9.4681554"><ele>239.00000000000003</ele><time>2026-04-12T10:19:13.257Z</time></trkpt><trkpt lat="40.6609911" lon="9.4682631"><ele>233.00000000000003</ele><time>2026-04-12T10:19:15.237Z</time></trkpt><trkpt lat="40.6609753" lon="9.468411"><ele>227.0</ele><time>2026-04-12T10:19:17.225Z</time></trkpt><trkpt lat="40.6609365" lon="9.4685463"><ele>221.0</ele><time>2026-04-12T10:19:19.218Z</time></trkpt><trkpt lat="40.6609068" lon="9.4686307"><ele>221.00000000000003</ele><time>2026-04-12T10:19:21.235Z</time></trkpt><trkpt lat="40.6608982" lon="9.4687141"><ele>221.0</ele><time>2026-04-12T10:19:23.064Z</time></trkpt><trkpt lat="40.6608842" lon="9.4688066"><ele>221.0</ele><time>2026-04-12T10:19:25.054Z</time></trkpt><trkpt lat="40.6608575" lon="9.468908"><ele>221.0</ele><time>2026-04-12T10:19:28.067Z</time></trkpt><trkpt lat="40.6608172" lon="9.4690122"><ele>221.00000000000003</ele><time>2026-04-12T10:19:31.044Z</time></trkpt><trkpt lat="40.660748" lon="9.4690638"><ele>221.0</ele><time>2026-04-12T10:19:33.043Z</time></trkpt><trkpt lat="40.6606604" lon="9.469104"><ele>220.0</ele><time>2026-04-12T10:19:35.158Z</time></trkpt><trkpt lat="40.660569" lon="9.4691458"><ele>219.00000000000003</ele><time>2026-04-12T10:19:37.143Z</time></trkpt><trkpt lat="40.6604822" lon="9.4691892"><ele>218.00000000000003</ele><time>2026-04-12T10:19:39.141Z</time></trkpt><trkpt lat="40.6603945" lon="9.4692363"><ele>217.0</ele><time>2026-04-12T10:19:41.147Z</time></trkpt><trkpt lat="40.6602965" lon="9.469304"><ele>216.0</ele><time>2026-04-12T10:19:43.131Z</time></trkpt><trkpt lat="40.6601814" lon="9.4693497"><ele>216.0</ele><time>2026-04-12T10:19:45.137Z</time></trkpt><trkpt lat="40.66008" lon="9.4693869"><ele>216.0</ele><time>2026-04-12T10:19:47.152Z</time></trkpt><trkpt lat="40.6600152" lon="9.4694262"><ele>216.0</ele><time>2026-04-12T10:19:49.137Z</time></trkpt><trkpt lat="40.6599444" lon="9.4694566"><ele>216.0</ele><time>2026-04-12T10:19:52.112Z</time></trkpt><trkpt lat="40.6598758" lon="9.4694319"><ele>216.0</ele><time>2026-04-12T10:19:54.11Z</time></trkpt><trkpt lat="40.6597941" lon="9.4693696"><ele>216.0</ele><time>2026-04-12T10:19:56.13Z</time></trkpt><trkpt lat="40.6597224" lon="9.4692967"><ele>216.0</ele><time>2026-04-12T10:19:58.113Z</time></trkpt><trkpt lat="40.6596599" lon="9.469224"><ele>216.00000000000003</ele><time>2026-04-12T10:20:00.119Z</time></trkpt><trkpt lat="40.6595837" lon="9.469144"><ele>216.00000000000003</ele><time>2026-04-12T10:20:02.104Z</time></trkpt><trkpt lat="40.6594994" lon="9.4690671"><ele>216.0</ele><time>2026-04-12T10:20:04.097Z</time></trkpt><trkpt lat="40.6594121" lon="9.4689942"><ele>216.0</ele><time>2026-04-12T10:20:06.095Z</time></trkpt><trkpt lat="40.6593309" lon="9.4689206"><ele>214.8</ele><time>2026-04-12T10:20:08.092Z</time></trkpt><trkpt lat="40.6592426" lon="9.4688522"><ele>213.60000000000002</ele><time>2026-04-12T10:20:10.103Z</time></trkpt><trkpt lat="40.6591685" lon="9.4687779"><ele>212.4</ele><time>2026-04-12T10:20:12.093Z</time></trkpt><trkpt lat="40.6590919" lon="9.4687001"><ele>211.2</ele><time>2026-04-12T10:20:14.091Z</time></trkpt><trkpt lat="40.6589968" lon="9.468611"><ele>210.0</ele><time>2026-04-12T10:20:16.086Z</time></trkpt><trkpt lat="40.6589413" lon="9.4685644"><ele>210.0</ele><time>2026-04-12T10:20:17.085Z</time></trkpt><trkpt lat="40.6588794" lon="9.4685168"><ele>210.0</ele><time>2026-04-12T10:20:18.083Z</time></trkpt><trkpt lat="40.6588201" lon="9.4684638"><ele>210.0</ele><time>2026-04-12T10:20:19.08Z</time></trkpt><trkpt lat="40.658723" lon="9.4684034"><ele>210.0</ele><time>2026-04-12T10:20:21.115Z</time></trkpt><trkpt lat="40.6586475" lon="9.4684546"><ele>210.0</ele><time>2026-04-12T10:20:23.08Z</time></trkpt><trkpt lat="40.6586204" lon="9.4685468"><ele>210.0</ele><time>2026-04-12T10:20:25.094Z</time></trkpt><trkpt lat="40.6585835" lon="9.4686234"><ele>209.0</ele><time>2026-04-12T10:20:28.087Z</time></trkpt><trkpt lat="40.658521" lon="9.4685673"><ele>208.0</ele><time>2026-04-12T10:20:32.071Z</time></trkpt><trkpt lat="40.6585161" lon="9.4684815"><ele>207.0</ele><time>2026-04-12T10:20:36.093Z</time></trkpt><trkpt lat="40.6584815" lon="9.4683768"><ele>206.0</ele><time>2026-04-12T10:21:35.125Z</time></trkpt><trkpt lat="40.6584525" lon="9.4682346"><ele>205.0</ele><time>2026-04-12T10:21:37.136Z</time></trkpt><trkpt lat="40.6584361" lon="9.468145"><ele>204.0</ele><time>2026-04-12T10:21:38.134Z</time></trkpt><trkpt lat="40.6584234" lon="9.4680486"><ele>204.0</ele><time>2026-04-12T10:21:39.128Z</time></trkpt><trkpt lat="40.6584073" lon="9.4679462"><ele>204.0</ele><time>2026-04-12T10:21:40.122Z</time></trkpt><trkpt lat="40.6583869" lon="9.4678382"><ele>204.0</ele><time>2026-04-12T10:21:41.145Z</time></trkpt><trkpt lat="40.6583666" lon="9.4677241"><ele>204.0</ele><time>2026-04-12T10:21:42.124Z</time></trkpt><trkpt lat="40.6583477" lon="9.4676082"><ele>204.0</ele><time>2026-04-12T10:21:43.175Z</time></trkpt><trkpt lat="40.6583262" lon="9.4674918"><ele>204.0</ele><time>2026-04-12T10:21:44.13Z</time></trkpt><trkpt lat="40.6583078" lon="9.4673699"><ele>203.2</ele><time>2026-04-12T10:21:45.127Z</time></trkpt><trkpt lat="40.658285" lon="9.4672444"><ele>202.39999999999998</ele><time>2026-04-12T10:21:46.136Z</time></trkpt><trkpt lat="40.6582645" lon="9.4671095"><ele>201.6</ele><time>2026-04-12T10:21:47.135Z</time></trkpt><trkpt lat="40.6582413" lon="9.4669713"><ele>200.8</ele><time>2026-04-12T10:21:48.129Z</time></trkpt><trkpt lat="40.6582161" lon="9.46684"><ele>200.0</ele><time>2026-04-12T10:21:49.222Z</time></trkpt><trkpt lat="40.6581952" lon="9.466712"><ele>199.66666666666669</ele><time>2026-04-12T10:21:50.133Z</time></trkpt><trkpt lat="40.6581771" lon="9.466593"><ele>199.33333333333334</ele><time>2026-04-12T10:21:51.121Z</time></trkpt><trkpt lat="40.6581612" lon="9.4664786"><ele>199.0</ele><time>2026-04-12T10:21:52.131Z</time></trkpt><trkpt lat="40.6581498" lon="9.4663701"><ele>198.66666666666669</ele><time>2026-04-12T10:21:53.176Z</time></trkpt><trkpt lat="40.6581473" lon="9.4662596"><ele>198.33333333333334</ele><time>2026-04-12T10:21:54.138Z</time></trkpt><trkpt lat="40.6581576" lon="9.4661475"><ele>198.0</ele><time>2026-04-12T10:21:55.123Z</time></trkpt><trkpt lat="40.658183" lon="9.4660277"><ele>196.8</ele><time>2026-04-12T10:21:56.132Z</time></trkpt><trkpt lat="40.6582219" lon="9.4658975"><ele>195.60000000000002</ele><time>2026-04-12T10:21:57.124Z</time></trkpt><trkpt lat="40.6582691" lon="9.4657677"><ele>194.39999999999998</ele><time>2026-04-12T10:21:58.142Z</time></trkpt><trkpt lat="40.6583371" lon="9.4656519"><ele>193.2</ele><time>2026-04-12T10:21:59.124Z</time></trkpt><trkpt lat="40.6584333" lon="9.4655657"><ele>192.0</ele><time>2026-04-12T10:22:00.126Z</time></trkpt><trkpt lat="40.6585392" lon="9.4654947"><ele>190.5</ele><time>2026-04-12T10:22:01.12Z</time></trkpt><trkpt lat="40.6586563" lon="9.4654299"><ele>189.0</ele><time>2026-04-12T10:22:02.116Z</time></trkpt><trkpt lat="40.6587693" lon="9.465365"><ele>187.5</ele><time>2026-04-12T10:22:03.12Z</time></trkpt><trkpt lat="40.6588822" lon="9.4652997"><ele>186.0</ele><time>2026-04-12T10:22:04.114Z</time></trkpt><trkpt lat="40.6589911" lon="9.4652368"><ele>186.0</ele><time>2026-04-12T10:22:05.125Z</time></trkpt><trkpt lat="40.6590987" lon="9.4651703"><ele>186.0</ele><time>2026-04-12T10:22:06.114Z</time></trkpt><trkpt lat="40.659207" lon="9.465104"><ele>186.0</ele><time>2026-04-12T10:22:07.106Z</time></trkpt><trkpt lat="40.65932" lon="9.465036"><ele>186.0</ele><time>2026-04-12T10:22:08.108Z</time></trkpt><trkpt lat="40.6594358" lon="9.4649609"><ele>184.75</ele><time>2026-04-12T10:22:09.102Z</time></trkpt><trkpt lat="40.6595533" lon="9.4648795"><ele>183.5</ele><time>2026-04-12T10:22:10.113Z</time></trkpt><trkpt lat="40.6596682" lon="9.4647888"><ele>182.25</ele><time>2026-04-12T10:22:11.113Z</time></trkpt><trkpt lat="40.6597795" lon="9.4646838"><ele>181.0</ele><time>2026-04-12T10:22:12.112Z</time></trkpt><trkpt lat="40.6598885" lon="9.4645696"><ele>179.25</ele><time>2026-04-12T10:22:13.116Z</time></trkpt><trkpt lat="40.6599977" lon="9.4644521"><ele>177.5</ele><time>2026-04-12T10:22:14.095Z</time></trkpt><trkpt lat="40.6601026" lon="9.4643325"><ele>175.75</ele><time>2026-04-12T10:22:15.097Z</time></trkpt><trkpt lat="40.6602158" lon="9.4642162"><ele>174.0</ele><time>2026-04-12T10:22:16.095Z</time></trkpt><trkpt lat="40.6603286" lon="9.4640992"><ele>173.25</ele><time>2026-04-12T10:22:17.105Z</time></trkpt><trkpt lat="40.6604378" lon="9.4639797"><ele>172.5</ele><time>2026-04-12T10:22:18.094Z</time></trkpt><trkpt lat="40.6605516" lon="9.4638661"><ele>171.75</ele><time>2026-04-12T10:22:19.094Z</time></trkpt><trkpt lat="40.6606631" lon="9.4637566"><ele>171.0</ele><time>2026-04-12T10:22:20.134Z</time></trkpt><trkpt lat="40.6607718" lon="9.4636472"><ele>171.0</ele><time>2026-04-12T10:22:21.107Z</time></trkpt><trkpt lat="40.6608766" lon="9.4635391"><ele>171.0</ele><time>2026-04-12T10:22:22.093Z</time></trkpt><trkpt lat="40.6609756" lon="9.463434"><ele>171.0</ele><time>2026-04-12T10:22:23.092Z</time></trkpt><trkpt lat="40.6610654" lon="9.4633237"><ele>171.0</ele><time>2026-04-12T10:22:24.096Z</time></trkpt><trkpt lat="40.6611469" lon="9.4632054"><ele>173.60000000000002</ele><time>2026-04-12T10:22:25.105Z</time></trkpt><trkpt lat="40.6612038" lon="9.4630817"><ele>176.2</ele><time>2026-04-12T10:22:26.09Z</time></trkpt><trkpt lat="40.6612371" lon="9.4629466"><ele>178.8</ele><time>2026-04-12T10:22:27.103Z</time></trkpt><trkpt lat="40.6612395" lon="9.4627974"><ele>181.39999999999998</ele><time>2026-04-12T10:22:28.106Z</time></trkpt><trkpt lat="40.6612356" lon="9.4626433"><ele>184.0</ele><time>2026-04-12T10:22:29.103Z</time></trkpt><trkpt lat="40.661226" lon="9.4624898"><ele>185.5</ele><time>2026-04-12T10:22:30.103Z</time></trkpt><trkpt lat="40.6612276" lon="9.4623422"><ele>187.0</ele><time>2026-04-12T10:22:31.091Z</time></trkpt><trkpt lat="40.6612431" lon="9.4621976"><ele>188.5</ele><time>2026-04-12T10:22:32.092Z</time></trkpt><trkpt lat="40.6612735" lon="9.4620445"><ele>190.0</ele><time>2026-04-12T10:22:33.092Z</time></trkpt><trkpt lat="40.6613069" lon="9.4618876"><ele>190.5</ele><time>2026-04-12T10:22:34.095Z</time></trkpt><trkpt lat="40.661346" lon="9.4617253"><ele>191.0</ele><time>2026-04-12T10:22:35.107Z</time></trkpt><trkpt lat="40.6613871" lon="9.4615628"><ele>191.5</ele><time>2026-04-12T10:22:36.098Z</time></trkpt><trkpt lat="40.6614291" lon="9.4613959"><ele>192.0</ele><time>2026-04-12T10:22:37.093Z</time></trkpt><trkpt lat="40.6614701" lon="9.4612256"><ele>192.0</ele><time>2026-04-12T10:22:38.095Z</time></trkpt><trkpt lat="40.6615097" lon="9.4610523"><ele>192.0</ele><time>2026-04-12T10:22:39.108Z</time></trkpt><trkpt lat="40.6615531" lon="9.4608736"><ele>192.0</ele><time>2026-04-12T10:22:40.086Z</time></trkpt><trkpt lat="40.6616009" lon="9.4606926"><ele>192.0</ele><time>2026-04-12T10:22:41.077Z</time></trkpt><trkpt lat="40.6616467" lon="9.4605021"><ele>191.33333333333334</ele><time>2026-04-12T10:22:42.098Z</time></trkpt><trkpt lat="40.661694" lon="9.4603089"><ele>190.66666666666669</ele><time>2026-04-12T10:22:43.092Z</time></trkpt><trkpt lat="40.6617434" lon="9.4601028"><ele>190.0</ele><time>2026-04-12T10:22:44.077Z</time></trkpt><trkpt lat="40.6617915" lon="9.4598844"><ele>194.5</ele><time>2026-04-12T10:22:45.198Z</time></trkpt><trkpt lat="40.6618906" lon="9.4594352"><ele>199.0</ele><time>2026-04-12T10:22:47.07Z</time></trkpt><trkpt lat="40.6619458" lon="9.4592059"><ele>207.0</ele><time>2026-04-12T10:22:48.071Z</time></trkpt><trkpt lat="40.6620001" lon="9.458975"><ele>215.0</ele><time>2026-04-12T10:22:49.141Z</time></trkpt><trkpt lat="40.6620499" lon="9.4587528"><ele>223.0</ele><time>2026-04-12T10:22:50.117Z</time></trkpt><trkpt lat="40.6621036" lon="9.4585342"><ele>223.0</ele><time>2026-04-12T10:22:51.065Z</time></trkpt><trkpt lat="40.6621587" lon="9.4583161"><ele>223.0</ele><time>2026-04-12T10:22:52.079Z</time></trkpt><trkpt lat="40.6622004" lon="9.4581055"><ele>223.0</ele><time>2026-04-12T10:22:53.081Z</time></trkpt><trkpt lat="40.6622256" lon="9.4578928"><ele>222.0</ele><time>2026-04-12T10:22:54.086Z</time></trkpt><trkpt lat="40.6622332" lon="9.4576798"><ele>221.0</ele><time>2026-04-12T10:22:55.075Z</time></trkpt><trkpt lat="40.66223" lon="9.4574676"><ele>220.0</ele><time>2026-04-12T10:22:56.075Z</time></trkpt><trkpt lat="40.6622239" lon="9.4572518"><ele>220.0</ele><time>2026-04-12T10:22:57.07Z</time></trkpt><trkpt lat="40.662225" lon="9.457033"><ele>220.0</ele><time>2026-04-12T10:22:58.077Z</time></trkpt><trkpt lat="40.6622297" lon="9.4568124"><ele>220.0</ele><time>2026-04-12T10:22:59.074Z</time></trkpt><trkpt lat="40.6622279" lon="9.456602"><ele>220.0</ele><time>2026-04-12T10:23:00.074Z</time></trkpt><trkpt lat="40.6622324" lon="9.4564118"><ele>220.0</ele><time>2026-04-12T10:23:01.07Z</time></trkpt><trkpt lat="40.6622526" lon="9.4562427"><ele>220.0</ele><time>2026-04-12T10:23:02.078Z</time></trkpt><trkpt lat="40.6622955" lon="9.4560925"><ele>220.0</ele><time>2026-04-12T10:23:03.068Z</time></trkpt><trkpt lat="40.6623589" lon="9.4559426"><ele>220.25</ele><time>2026-04-12T10:23:04.08Z</time></trkpt><trkpt lat="40.6624467" lon="9.4557989"><ele>220.5</ele><time>2026-04-12T10:23:05.068Z</time></trkpt><trkpt lat="40.66255" lon="9.4556542"><ele>220.75</ele><time>2026-04-12T10:23:06.066Z</time></trkpt><trkpt lat="40.6626478" lon="9.4555066"><ele>221.0</ele><time>2026-04-12T10:23:07.061Z</time></trkpt><trkpt lat="40.662741" lon="9.4553557"><ele>218.75</ele><time>2026-04-12T10:23:08.065Z</time></trkpt><trkpt lat="40.6628257" lon="9.4551998"><ele>216.5</ele><time>2026-04-12T10:23:09.066Z</time></trkpt><trkpt lat="40.6628909" lon="9.455032"><ele>214.25</ele><time>2026-04-12T10:23:10.063Z</time></trkpt><trkpt lat="40.6629268" lon="9.4548493"><ele>212.0</ele><time>2026-04-12T10:23:11.056Z</time></trkpt><trkpt lat="40.6629556" lon="9.4546568"><ele>212.66666666666669</ele><time>2026-04-12T10:23:12.063Z</time></trkpt><trkpt lat="40.6629901" lon="9.4544633"><ele>213.33333333333331</ele><time>2026-04-12T10:23:13.063Z</time></trkpt><trkpt lat="40.6630252" lon="9.4542667"><ele>214.0</ele><time>2026-04-12T10:23:14.061Z</time></trkpt><trkpt lat="40.6630541" lon="9.4540772"><ele>214.0</ele><time>2026-04-12T10:23:15.061Z</time></trkpt><trkpt lat="40.6630605" lon="9.453902"><ele>214.0</ele><time>2026-04-12T10:23:16.063Z</time></trkpt><trkpt lat="40.6630426" lon="9.4537431"><ele>214.0</ele><time>2026-04-12T10:23:17.065Z</time></trkpt><trkpt lat="40.6630005" lon="9.4535955"><ele>214.0</ele><time>2026-04-12T10:23:18.057Z</time></trkpt><trkpt lat="40.662934" lon="9.453469"><ele>213.0</ele><time>2026-04-12T10:23:19.049Z</time></trkpt><trkpt lat="40.6628578" lon="9.4533552"><ele>212.0</ele><time>2026-04-12T10:23:20.045Z</time></trkpt><trkpt lat="40.6627876" lon="9.453235"><ele>211.0</ele><time>2026-04-12T10:23:21.047Z</time></trkpt><trkpt lat="40.6627495" lon="9.4530956"><ele>210.0</ele><time>2026-04-12T10:23:22.052Z</time></trkpt><trkpt lat="40.6627376" lon="9.4529449"><ele>211.25</ele><time>2026-04-12T10:23:23.044Z</time></trkpt><trkpt lat="40.6627467" lon="9.4527962"><ele>212.5</ele><time>2026-04-12T10:23:24.047Z</time></trkpt><trkpt lat="40.6627854" lon="9.4526521"><ele>213.75</ele><time>2026-04-12T10:23:25.053Z</time></trkpt><trkpt lat="40.6628539" lon="9.4525153"><ele>215.0</ele><time>2026-04-12T10:23:26.037Z</time></trkpt><trkpt lat="40.6629338" lon="9.4523818"><ele>215.0</ele><time>2026-04-12T10:23:27.054Z</time></trkpt><trkpt lat="40.663016" lon="9.4522424"><ele>215.0</ele><time>2026-04-12T10:23:28.043Z</time></trkpt><trkpt lat="40.6630994" lon="9.4520993"><ele>215.0</ele><time>2026-04-12T10:23:29.045Z</time></trkpt><trkpt lat="40.6631857" lon="9.4519531"><ele>215.0</ele><time>2026-04-12T10:23:30.047Z</time></trkpt><trkpt lat="40.6632696" lon="9.451804"><ele>218.5</ele><time>2026-04-12T10:23:31.049Z</time></trkpt><trkpt lat="40.6633521" lon="9.4516551"><ele>222.0</ele><time>2026-04-12T10:23:32.043Z</time></trkpt><trkpt lat="40.6634214" lon="9.4515074"><ele>225.5</ele><time>2026-04-12T10:23:33.041Z</time></trkpt><trkpt lat="40.6634612" lon="9.4513597"><ele>229.0</ele><time>2026-04-12T10:23:34.032Z</time></trkpt><trkpt lat="40.6634665" lon="9.4512116"><ele>230.66666666666666</ele><time>2026-04-12T10:23:35.141Z</time></trkpt><trkpt lat="40.6634362" lon="9.4510621"><ele>232.33333333333331</ele><time>2026-04-12T10:23:36.139Z</time></trkpt><trkpt lat="40.6632877" lon="9.4508034"><ele>234.0</ele><time>2026-04-12T10:23:38.059Z</time></trkpt><trkpt lat="40.6632019" lon="9.4506782"><ele>234.0</ele><time>2026-04-12T10:23:39.137Z</time></trkpt><trkpt lat="40.6631105" lon="9.4505532"><ele>234.0</ele><time>2026-04-12T10:23:40.134Z</time></trkpt><trkpt lat="40.6630178" lon="9.4504163"><ele>234.0</ele><time>2026-04-12T10:23:41.141Z</time></trkpt><trkpt lat="40.6629186" lon="9.45028"><ele>234.0</ele><time>2026-04-12T10:23:42.151Z</time></trkpt><trkpt lat="40.6628278" lon="9.4501554"><ele>237.2</ele><time>2026-04-12T10:23:43.134Z</time></trkpt><trkpt lat="40.6627543" lon="9.4500379"><ele>240.39999999999998</ele><time>2026-04-12T10:23:44.133Z</time></trkpt><trkpt lat="40.6627078" lon="9.4499078"><ele>243.6</ele><time>2026-04-12T10:23:45.139Z</time></trkpt><trkpt lat="40.6626989" lon="9.449769"><ele>246.8</ele><time>2026-04-12T10:23:46.133Z</time></trkpt><trkpt lat="40.662722" lon="9.4496275"><ele>250.0</ele><time>2026-04-12T10:23:47.126Z</time></trkpt><trkpt lat="40.6627744" lon="9.4494869"><ele>249.0</ele><time>2026-04-12T10:23:48.127Z</time></trkpt><trkpt lat="40.6628533" lon="9.4493597"><ele>248.0</ele><time>2026-04-12T10:23:49.126Z</time></trkpt><trkpt lat="40.6629473" lon="9.4492451"><ele>247.0</ele><time>2026-04-12T10:23:50.134Z</time></trkpt><trkpt lat="40.6630615" lon="9.449152"><ele>246.0</ele><time>2026-04-12T10:23:51.136Z</time></trkpt><trkpt lat="40.6631946" lon="9.4490789"><ele>246.0</ele><time>2026-04-12T10:23:52.133Z</time></trkpt><trkpt lat="40.6633329" lon="9.4490062"><ele>246.0</ele><time>2026-04-12T10:23:53.135Z</time></trkpt><trkpt lat="40.6634788" lon="9.4489253"><ele>246.0</ele><time>2026-04-12T10:23:54.128Z</time></trkpt><trkpt lat="40.6636301" lon="9.4488395"><ele>248.33333333333331</ele><time>2026-04-12T10:23:55.138Z</time></trkpt><trkpt lat="40.6637867" lon="9.4487552"><ele>250.66666666666666</ele><time>2026-04-12T10:23:56.13Z</time></trkpt><trkpt lat="40.6639278" lon="9.4486718"><ele>253.0</ele><time>2026-04-12T10:23:57.127Z</time></trkpt><trkpt lat="40.6640427" lon="9.4485812"><ele>253.0</ele><time>2026-04-12T10:23:58.126Z</time></trkpt><trkpt lat="40.6641337" lon="9.4484761"><ele>253.0</ele><time>2026-04-12T10:23:59.121Z</time></trkpt><trkpt lat="40.6641975" lon="9.4483487"><ele>253.0</ele><time>2026-04-12T10:24:00.13Z</time></trkpt><trkpt lat="40.6642347" lon="9.4481969"><ele>253.0</ele><time>2026-04-12T10:24:01.126Z</time></trkpt><trkpt lat="40.6642723" lon="9.448028"><ele>255.0</ele><time>2026-04-12T10:24:02.122Z</time></trkpt><trkpt lat="40.6643213" lon="9.4478581"><ele>257.0</ele><time>2026-04-12T10:24:03.134Z</time></trkpt><trkpt lat="40.6643683" lon="9.4476807"><ele>259.0</ele><time>2026-04-12T10:24:04.126Z</time></trkpt><trkpt lat="40.6644116" lon="9.4474955"><ele>261.0</ele><time>2026-04-12T10:24:05.124Z</time></trkpt><trkpt lat="40.6644568" lon="9.4473063"><ele>254.0</ele><time>2026-04-12T10:24:06.118Z</time></trkpt><trkpt lat="40.6645034" lon="9.4471121"><ele>247.0</ele><time>2026-04-12T10:24:07.121Z</time></trkpt><trkpt lat="40.6645497" lon="9.4469182"><ele>240.0</ele><time>2026-04-12T10:24:08.12Z</time></trkpt><trkpt lat="40.6645911" lon="9.4467158"><ele>240.0</ele><time>2026-04-12T10:24:09.117Z</time></trkpt><trkpt lat="40.6646328" lon="9.4465101"><ele>240.0</ele><time>2026-04-12T10:24:10.133Z</time></trkpt><trkpt lat="40.6646924" lon="9.446306"><ele>240.0</ele><time>2026-04-12T10:24:11.12Z</time></trkpt><trkpt lat="40.664763" lon="9.446102"><ele>246.0</ele><time>2026-04-12T10:24:12.12Z</time></trkpt><trkpt lat="40.664839" lon="9.4459012"><ele>252.0</ele><time>2026-04-12T10:24:13.115Z</time></trkpt><trkpt lat="40.6649142" lon="9.445701"><ele>258.0</ele><time>2026-04-12T10:24:14.115Z</time></trkpt><trkpt lat="40.664979" lon="9.4455167"><ele>259.5</ele><time>2026-04-12T10:24:15.118Z</time></trkpt><trkpt lat="40.6650279" lon="9.4453413"><ele>261.0</ele><time>2026-04-12T10:24:16.121Z</time></trkpt><trkpt lat="40.6650484" lon="9.4451715"><ele>262.5</ele><time>2026-04-12T10:24:17.14Z</time></trkpt><trkpt lat="40.6650326" lon="9.445002"><ele>264.0</ele><time>2026-04-12T10:24:18.126Z</time></trkpt><trkpt lat="40.665" lon="9.4448276"><ele>264.0</ele><time>2026-04-12T10:24:19.116Z</time></trkpt><trkpt lat="40.6649471" lon="9.444666"><ele>264.0</ele><time>2026-04-12T10:24:20.121Z</time></trkpt><trkpt lat="40.6648731" lon="9.4445106"><ele>264.0</ele><time>2026-04-12T10:24:21.116Z</time></trkpt><trkpt lat="40.6647819" lon="9.4443609"><ele>264.0</ele><time>2026-04-12T10:24:22.126Z</time></trkpt><trkpt lat="40.6646847" lon="9.4442128"><ele>265.0</ele><time>2026-04-12T10:24:23.116Z</time></trkpt><trkpt lat="40.6645846" lon="9.4440612"><ele>266.0</ele><time>2026-04-12T10:24:24.131Z</time></trkpt><trkpt lat="40.6644778" lon="9.4439103"><ele>267.0</ele><time>2026-04-12T10:24:25.121Z</time></trkpt><trkpt lat="40.6643607" lon="9.4437671"><ele>267.0</ele><time>2026-04-12T10:24:26.12Z</time></trkpt><trkpt lat="40.6642383" lon="9.4436362"><ele>267.0</ele><time>2026-04-12T10:24:27.134Z</time></trkpt><trkpt lat="40.6641198" lon="9.4435206"><ele>267.0</ele><time>2026-04-12T10:24:28.126Z</time></trkpt><trkpt lat="40.6640227" lon="9.4433976"><ele>267.0</ele><time>2026-04-12T10:24:29.122Z</time></trkpt><trkpt lat="40.6639447" lon="9.4432665"><ele>267.0</ele><time>2026-04-12T10:24:30.117Z</time></trkpt><trkpt lat="40.6638856" lon="9.4431196"><ele>267.0</ele><time>2026-04-12T10:24:31.124Z</time></trkpt><trkpt lat="40.6638433" lon="9.4429544"><ele>267.0</ele><time>2026-04-12T10:24:32.115Z</time></trkpt><trkpt lat="40.6638075" lon="9.4427758"><ele>267.0</ele><time>2026-04-12T10:24:33.117Z</time></trkpt><trkpt lat="40.6637811" lon="9.4425931"><ele>267.75</ele><time>2026-04-12T10:24:34.132Z</time></trkpt><trkpt lat="40.6637685" lon="9.4424327"><ele>268.5</ele><time>2026-04-12T10:24:35.127Z</time></trkpt><trkpt lat="40.6637807" lon="9.4422806"><ele>269.25</ele><time>2026-04-12T10:24:36.111Z</time></trkpt><trkpt lat="40.6638206" lon="9.442136"><ele>270.0</ele><time>2026-04-12T10:24:37.124Z</time></trkpt><trkpt lat="40.6638886" lon="9.4420194"><ele>274.0</ele><time>2026-04-12T10:24:38.117Z</time></trkpt><trkpt lat="40.663972" lon="9.441917"><ele>278.0</ele><time>2026-04-12T10:24:39.114Z</time></trkpt><trkpt lat="40.6640731" lon="9.4418197"><ele>282.0</ele><time>2026-04-12T10:24:40.117Z</time></trkpt><trkpt lat="40.6641772" lon="9.4417098"><ele>286.0</ele><time>2026-04-12T10:24:41.123Z</time></trkpt><trkpt lat="40.6642833" lon="9.4415881"><ele>286.0</ele><time>2026-04-12T10:24:42.123Z</time></trkpt><trkpt lat="40.664393" lon="9.4414686"><ele>286.0</ele><time>2026-04-12T10:24:43.125Z</time></trkpt><trkpt lat="40.6645097" lon="9.4413477"><ele>286.0</ele><time>2026-04-12T10:24:44.126Z</time></trkpt><trkpt lat="40.664627" lon="9.4412224"><ele>286.0</ele><time>2026-04-12T10:24:45.122Z</time></trkpt><trkpt lat="40.6647524" lon="9.4411004"><ele>288.66666666666663</ele><time>2026-04-12T10:24:46.117Z</time></trkpt><trkpt lat="40.6648819" lon="9.4409719"><ele>291.3333333333333</ele><time>2026-04-12T10:24:47.127Z</time></trkpt><trkpt lat="40.6650106" lon="9.4408431"><ele>294.0</ele><time>2026-04-12T10:24:48.117Z</time></trkpt><trkpt lat="40.6651337" lon="9.4407139"><ele>294.0</ele><time>2026-04-12T10:24:49.123Z</time></trkpt><trkpt lat="40.6652613" lon="9.4405881"><ele>294.0</ele><time>2026-04-12T10:24:50.111Z</time></trkpt><trkpt lat="40.6653894" lon="9.4404623"><ele>294.0</ele><time>2026-04-12T10:24:51.117Z</time></trkpt><trkpt lat="40.6655036" lon="9.4403465"><ele>294.5</ele><time>2026-04-12T10:24:52.117Z</time></trkpt><trkpt lat="40.665601" lon="9.4402301"><ele>295.0</ele><time>2026-04-12T10:24:53.122Z</time></trkpt><trkpt lat="40.6656688" lon="9.4401034"><ele>295.5</ele><time>2026-04-12T10:24:54.104Z</time></trkpt><trkpt lat="40.6657211" lon="9.4399515"><ele>296.0</ele><time>2026-04-12T10:24:55.114Z</time></trkpt><trkpt lat="40.665735" lon="9.4397918"><ele>294.75</ele><time>2026-04-12T10:24:56.106Z</time></trkpt><trkpt lat="40.6657184" lon="9.4396276"><ele>293.5</ele><time>2026-04-12T10:24:57.108Z</time></trkpt><trkpt lat="40.6656746" lon="9.4394723"><ele>292.25</ele><time>2026-04-12T10:24:58.116Z</time></trkpt><trkpt lat="40.6656067" lon="9.4393197"><ele>291.0</ele><time>2026-04-12T10:24:59.104Z</time></trkpt><trkpt lat="40.6655223" lon="9.4391687"><ele>291.0</ele><time>2026-04-12T10:25:00.104Z</time></trkpt><trkpt lat="40.6654343" lon="9.4390233"><ele>291.0</ele><time>2026-04-12T10:25:01.108Z</time></trkpt><trkpt lat="40.6653494" lon="9.4388705"><ele>291.0</ele><time>2026-04-12T10:25:02.103Z</time></trkpt><trkpt lat="40.6652692" lon="9.4387095"><ele>291.0</ele><time>2026-04-12T10:25:03.12Z</time></trkpt><trkpt lat="40.6652059" lon="9.4385549"><ele>296.5</ele><time>2026-04-12T10:25:04.107Z</time></trkpt><trkpt lat="40.6651642" lon="9.4384061"><ele>302.0</ele><time>2026-04-12T10:25:05.1Z</time></trkpt><trkpt lat="40.6651451" lon="9.4382635"><ele>307.5</ele><time>2026-04-12T10:25:06.098Z</time></trkpt><trkpt lat="40.6651717" lon="9.4381048"><ele>313.0</ele><time>2026-04-12T10:25:07.12Z</time></trkpt><trkpt lat="40.6652159" lon="9.4379421"><ele>315.0</ele><time>2026-04-12T10:25:08.096Z</time></trkpt><trkpt lat="40.6652678" lon="9.4377698"><ele>317.0</ele><time>2026-04-12T10:25:09.093Z</time></trkpt><trkpt lat="40.6653289" lon="9.4375918"><ele>319.0</ele><time>2026-04-12T10:25:10.101Z</time></trkpt><trkpt lat="40.6653985" lon="9.437427"><ele>321.0</ele><time>2026-04-12T10:25:11.099Z</time></trkpt><trkpt lat="40.6654845" lon="9.4372626"><ele>318.6666666666667</ele><time>2026-04-12T10:25:12.103Z</time></trkpt><trkpt lat="40.6655783" lon="9.4371022"><ele>316.33333333333337</ele><time>2026-04-12T10:25:13.116Z</time></trkpt><trkpt lat="40.6656742" lon="9.4369347"><ele>314.0</ele><time>2026-04-12T10:25:14.093Z</time></trkpt><trkpt lat="40.665773" lon="9.436765"><ele>314.0</ele><time>2026-04-12T10:25:15.086Z</time></trkpt><trkpt lat="40.6658781" lon="9.4365907"><ele>314.0</ele><time>2026-04-12T10:25:16.096Z</time></trkpt><trkpt lat="40.665982" lon="9.4364189"><ele>314.0</ele><time>2026-04-12T10:25:17.102Z</time></trkpt><trkpt lat="40.6660786" lon="9.4362531"><ele>310.0</ele><time>2026-04-12T10:25:18.088Z</time></trkpt><trkpt lat="40.6661635" lon="9.4360913"><ele>306.0</ele><time>2026-04-12T10:25:19.083Z</time></trkpt><trkpt lat="40.6662253" lon="9.4359178"><ele>302.0</ele><time>2026-04-12T10:25:20.093Z</time></trkpt><trkpt lat="40.6662679" lon="9.4357254"><ele>298.0</ele><time>2026-04-12T10:25:21.091Z</time></trkpt><trkpt lat="40.6662975" lon="9.4355216"><ele>300.66666666666663</ele><time>2026-04-12T10:25:22.1Z</time></trkpt><trkpt lat="40.6663241" lon="9.4353092"><ele>303.3333333333333</ele><time>2026-04-12T10:25:23.092Z</time></trkpt><trkpt lat="40.6663445" lon="9.4351056"><ele>306.0</ele><time>2026-04-12T10:25:24.095Z</time></trkpt><trkpt lat="40.6663648" lon="9.4349189"><ele>306.0</ele><time>2026-04-12T10:25:25.101Z</time></trkpt><trkpt lat="40.6663753" lon="9.4347414"><ele>306.0</ele><time>2026-04-12T10:25:26.115Z</time></trkpt><trkpt lat="40.6663584" lon="9.4345762"><ele>306.0</ele><time>2026-04-12T10:25:27.086Z</time></trkpt><trkpt lat="40.6663219" lon="9.4344111"><ele>306.0</ele><time>2026-04-12T10:25:28.098Z</time></trkpt><trkpt lat="40.666268" lon="9.434255"><ele>308.75</ele><time>2026-04-12T10:25:29.081Z</time></trkpt><trkpt lat="40.6662177" lon="9.4340945"><ele>311.5</ele><time>2026-04-12T10:25:30.083Z</time></trkpt><trkpt lat="40.6661836" lon="9.4339306"><ele>314.25</ele><time>2026-04-12T10:25:31.084Z</time></trkpt><trkpt lat="40.6661766" lon="9.4337625"><ele>317.0</ele><time>2026-04-12T10:25:32.083Z</time></trkpt><trkpt lat="40.6661891" lon="9.4335948"><ele>320.75</ele><time>2026-04-12T10:25:33.081Z</time></trkpt><trkpt lat="40.6662264" lon="9.4334314"><ele>324.5</ele><time>2026-04-12T10:25:34.08Z</time></trkpt><trkpt lat="40.6662868" lon="9.433274"><ele>328.25</ele><time>2026-04-12T10:25:35.082Z</time></trkpt><trkpt lat="40.6663731" lon="9.43313"><ele>332.0</ele><time>2026-04-12T10:25:36.082Z</time></trkpt><trkpt lat="40.6664784" lon="9.4329984"><ele>335.75</ele><time>2026-04-12T10:25:37.072Z</time></trkpt><trkpt lat="40.6665851" lon="9.4328672"><ele>339.5</ele><time>2026-04-12T10:25:38.081Z</time></trkpt><trkpt lat="40.6666767" lon="9.4327326"><ele>343.25</ele><time>2026-04-12T10:25:39.077Z</time></trkpt><trkpt lat="40.6667496" lon="9.4326033"><ele>347.0</ele><time>2026-04-12T10:25:40.076Z</time></trkpt><trkpt lat="40.6667912" lon="9.4324598"><ele>347.0</ele><time>2026-04-12T10:25:41.088Z</time></trkpt><trkpt lat="40.6667942" lon="9.4323026"><ele>347.0</ele><time>2026-04-12T10:25:42.079Z</time></trkpt><trkpt lat="40.6667759" lon="9.4321297"><ele>347.0</ele><time>2026-04-12T10:25:43.071Z</time></trkpt><trkpt lat="40.666742" lon="9.4319582"><ele>347.0</ele><time>2026-04-12T10:25:44.079Z</time></trkpt><trkpt lat="40.6667058" lon="9.4317747"><ele>348.5</ele><time>2026-04-12T10:25:45.082Z</time></trkpt><trkpt lat="40.6666759" lon="9.4315946"><ele>350.0</ele><time>2026-04-12T10:25:46.081Z</time></trkpt><trkpt lat="40.6666589" lon="9.4314167"><ele>351.5</ele><time>2026-04-12T10:25:47.089Z</time></trkpt><trkpt lat="40.666668" lon="9.4312377"><ele>353.0</ele><time>2026-04-12T10:25:48.08Z</time></trkpt><trkpt lat="40.6666979" lon="9.4310622"><ele>354.25</ele><time>2026-04-12T10:25:49.077Z</time></trkpt><trkpt lat="40.6667527" lon="9.4308865"><ele>355.5</ele><time>2026-04-12T10:25:50.078Z</time></trkpt><trkpt lat="40.6668206" lon="9.4307047"><ele>356.75</ele><time>2026-04-12T10:25:51.073Z</time></trkpt><trkpt lat="40.6668815" lon="9.4305235"><ele>358.0</ele><time>2026-04-12T10:25:52.079Z</time></trkpt><trkpt lat="40.6669261" lon="9.4303343"><ele>349.3333333333333</ele><time>2026-04-12T10:25:53.089Z</time></trkpt><trkpt lat="40.6669509" lon="9.430141"><ele>340.6666666666667</ele><time>2026-04-12T10:25:54.076Z</time></trkpt><trkpt lat="40.666959" lon="9.4299411"><ele>332.0</ele><time>2026-04-12T10:25:55.075Z</time></trkpt><trkpt lat="40.6669577" lon="9.4297378"><ele>331.0</ele><time>2026-04-12T10:25:56.079Z</time></trkpt><trkpt lat="40.6669478" lon="9.4295245"><ele>330.0</ele><time>2026-04-12T10:25:57.081Z</time></trkpt><trkpt lat="40.6669206" lon="9.4293031"><ele>329.0</ele><time>2026-04-12T10:25:58.083Z</time></trkpt><trkpt lat="40.666876" lon="9.429076"><ele>338.6666666666667</ele><time>2026-04-12T10:25:59.081Z</time></trkpt><trkpt lat="40.6668272" lon="9.4288553"><ele>348.3333333333333</ele><time>2026-04-12T10:26:00.072Z</time></trkpt><trkpt lat="40.6667736" lon="9.4286438"><ele>358.0</ele><time>2026-04-12T10:26:01.073Z</time></trkpt><trkpt lat="40.6666993" lon="9.428443"><ele>358.0</ele><time>2026-04-12T10:26:02.076Z</time></trkpt><trkpt lat="40.6666107" lon="9.4282485"><ele>358.0</ele><time>2026-04-12T10:26:03.074Z</time></trkpt><trkpt lat="40.6665191" lon="9.4280677"><ele>358.0</ele><time>2026-04-12T10:26:04.077Z</time></trkpt><trkpt lat="40.6664308" lon="9.4278967"><ele>356.5</ele><time>2026-04-12T10:26:05.083Z</time></trkpt><trkpt lat="40.6663539" lon="9.4277351"><ele>355.0</ele><time>2026-04-12T10:26:06.078Z</time></trkpt><trkpt lat="40.6663066" lon="9.427567"><ele>353.5</ele><time>2026-04-12T10:26:07.072Z</time></trkpt><trkpt lat="40.6662902" lon="9.4273805"><ele>352.0</ele><time>2026-04-12T10:26:08.071Z</time></trkpt><trkpt lat="40.6663093" lon="9.4271837"><ele>356.0</ele><time>2026-04-12T10:26:09.071Z</time></trkpt><trkpt lat="40.6663566" lon="9.4269889"><ele>360.0</ele><time>2026-04-12T10:26:10.077Z</time></trkpt><trkpt lat="40.666412" lon="9.4267978"><ele>364.0</ele><time>2026-04-12T10:26:11.073Z</time></trkpt><trkpt lat="40.6664629" lon="9.4266082"><ele>364.0</ele><time>2026-04-12T10:26:12.096Z</time></trkpt><trkpt lat="40.6664944" lon="9.4264204"><ele>364.0</ele><time>2026-04-12T10:26:13.069Z</time></trkpt><trkpt lat="40.666496" lon="9.4262396"><ele>364.0</ele><time>2026-04-12T10:26:14.075Z</time></trkpt><trkpt lat="40.6664735" lon="9.4260592"><ele>364.0</ele><time>2026-04-12T10:26:15.071Z</time></trkpt><trkpt lat="40.6664373" lon="9.4258794"><ele>365.3333333333333</ele><time>2026-04-12T10:26:16.06Z</time></trkpt><trkpt lat="40.6663834" lon="9.4256887"><ele>366.6666666666667</ele><time>2026-04-12T10:26:17.086Z</time></trkpt><trkpt lat="40.6663282" lon="9.4254997"><ele>368.0</ele><time>2026-04-12T10:26:18.076Z</time></trkpt><trkpt lat="40.6662895" lon="9.4253153"><ele>368.0</ele><time>2026-04-12T10:26:19.055Z</time></trkpt><trkpt lat="40.6662677" lon="9.4251243"><ele>368.0</ele><time>2026-04-12T10:26:20.062Z</time></trkpt><trkpt lat="40.6662709" lon="9.4249183"><ele>368.0</ele><time>2026-04-12T10:26:21.067Z</time></trkpt><trkpt lat="40.6662821" lon="9.4247044"><ele>368.33333333333337</ele><time>2026-04-12T10:26:22.055Z</time></trkpt><trkpt lat="40.6662969" lon="9.4244778"><ele>368.6666666666667</ele><time>2026-04-12T10:26:23.063Z</time></trkpt><trkpt lat="40.6663097" lon="9.4242413"><ele>369.0</ele><time>2026-04-12T10:26:24.057Z</time></trkpt><trkpt lat="40.6663211" lon="9.4240048"><ele>371.3333333333333</ele><time>2026-04-12T10:26:25.067Z</time></trkpt><trkpt lat="40.6663307" lon="9.4237717"><ele>373.66666666666663</ele><time>2026-04-12T10:26:26.059Z</time></trkpt><trkpt lat="40.6663405" lon="9.4235391"><ele>376.0</ele><time>2026-04-12T10:26:27.064Z</time></trkpt><trkpt lat="40.6663511" lon="9.4233078"><ele>376.0</ele><time>2026-04-12T10:26:28.054Z</time></trkpt><trkpt lat="40.6663703" lon="9.4230896"><ele>376.0</ele><time>2026-04-12T10:26:29.056Z</time></trkpt><trkpt lat="40.6664207" lon="9.4228986"><ele>376.0</ele><time>2026-04-12T10:26:30.056Z</time></trkpt><trkpt lat="40.6664985" lon="9.4227251"><ele>380.66666666666663</ele><time>2026-04-12T10:26:31.055Z</time></trkpt><trkpt lat="40.6665949" lon="9.4225637"><ele>385.3333333333333</ele><time>2026-04-12T10:26:32.053Z</time></trkpt><trkpt lat="40.666705" lon="9.4224066"><ele>390.0</ele><time>2026-04-12T10:26:33.09Z</time></trkpt><trkpt lat="40.6668166" lon="9.4222527"><ele>394.33333333333337</ele><time>2026-04-12T10:26:34.077Z</time></trkpt><trkpt lat="40.6669149" lon="9.4220868"><ele>398.6666666666667</ele><time>2026-04-12T10:26:35.057Z</time></trkpt><trkpt lat="40.6669936" lon="9.4219093"><ele>403.0</ele><time>2026-04-12T10:26:36.055Z</time></trkpt><trkpt lat="40.6670506" lon="9.4217101"><ele>394.33333333333337</ele><time>2026-04-12T10:26:37.054Z</time></trkpt><trkpt lat="40.6670835" lon="9.4214944"><ele>385.6666666666667</ele><time>2026-04-12T10:26:38.061Z</time></trkpt><trkpt lat="40.6671055" lon="9.4212729"><ele>377.0</ele><time>2026-04-12T10:26:39.054Z</time></trkpt><trkpt lat="40.6671327" lon="9.4210434"><ele>377.0</ele><time>2026-04-12T10:26:40.077Z</time></trkpt><trkpt lat="40.66716" lon="9.4208095"><ele>377.0</ele><time>2026-04-12T10:26:41.062Z</time></trkpt><trkpt lat="40.6672028" lon="9.4205792"><ele>377.0</ele><time>2026-04-12T10:26:42.06Z</time></trkpt><trkpt lat="40.6672609" lon="9.4203472"><ele>381.6666666666667</ele><time>2026-04-12T10:26:43.07Z</time></trkpt><trkpt lat="40.6673257" lon="9.4201214"><ele>386.33333333333337</ele><time>2026-04-12T10:26:44.062Z</time></trkpt><trkpt lat="40.6673898" lon="9.4198896"><ele>391.0</ele><time>2026-04-12T10:26:45.063Z</time></trkpt><trkpt lat="40.6674558" lon="9.4196562"><ele>397.33333333333337</ele><time>2026-04-12T10:26:46.057Z</time></trkpt><trkpt lat="40.6675182" lon="9.4194223"><ele>403.66666666666663</ele><time>2026-04-12T10:26:47.062Z</time></trkpt><trkpt lat="40.6675803" lon="9.4191845"><ele>410.0</ele><time>2026-04-12T10:26:48.056Z</time></trkpt><trkpt lat="40.6676478" lon="9.4189461"><ele>413.3333333333333</ele><time>2026-04-12T10:26:49.059Z</time></trkpt><trkpt lat="40.6677158" lon="9.4187042"><ele>416.66666666666663</ele><time>2026-04-12T10:26:50.058Z</time></trkpt><trkpt lat="40.6677862" lon="9.4184566"><ele>420.0</ele><time>2026-04-12T10:26:51.054Z</time></trkpt><trkpt lat="40.6678565" lon="9.4182072"><ele>413.33333333333337</ele><time>2026-04-12T10:26:52.061Z</time></trkpt><trkpt lat="40.6679286" lon="9.4179606"><ele>406.6666666666667</ele><time>2026-04-12T10:26:53.065Z</time></trkpt><trkpt lat="40.6679955" lon="9.4177149"><ele>400.0</ele><time>2026-04-12T10:26:54.055Z</time></trkpt><trkpt lat="40.6680645" lon="9.4174752"><ele>400.0</ele><time>2026-04-12T10:26:55.057Z</time></trkpt><trkpt lat="40.6681222" lon="9.4172289"><ele>400.0</ele><time>2026-04-12T10:26:56.049Z</time></trkpt><trkpt lat="40.6681727" lon="9.4169793"><ele>400.0</ele><time>2026-04-12T10:26:57.059Z</time></trkpt><trkpt lat="40.6682169" lon="9.4167259"><ele>404.0</ele><time>2026-04-12T10:26:58.057Z</time></trkpt><trkpt lat="40.6682577" lon="9.4164735"><ele>408.0</ele><time>2026-04-12T10:26:59.051Z</time></trkpt><trkpt lat="40.6683003" lon="9.4162226"><ele>412.0</ele><time>2026-04-12T10:27:00.073Z</time></trkpt><trkpt lat="40.6683474" lon="9.4159735"><ele>414.0</ele><time>2026-04-12T10:27:01.044Z</time></trkpt><trkpt lat="40.6683927" lon="9.4157228"><ele>416.0</ele><time>2026-04-12T10:27:02.047Z</time></trkpt><trkpt lat="40.6684344" lon="9.4154752"><ele>418.0</ele><time>2026-04-12T10:27:03.036Z</time></trkpt><trkpt lat="40.668472" lon="9.4152311"><ele>420.33333333333337</ele><time>2026-04-12T10:27:04.051Z</time></trkpt><trkpt lat="40.6685062" lon="9.4149927"><ele>422.66666666666663</ele><time>2026-04-12T10:27:05.136Z</time></trkpt><trkpt lat="40.668544" lon="9.4147567"><ele>425.0</ele><time>2026-04-12T10:27:06.131Z</time></trkpt><trkpt lat="40.6685816" lon="9.4145246"><ele>420.0</ele><time>2026-04-12T10:27:07.033Z</time></trkpt><trkpt lat="40.6686161" lon="9.4143132"><ele>415.0</ele><time>2026-04-12T10:27:08.038Z</time></trkpt><trkpt lat="40.6686426" lon="9.4141179"><ele>410.0</ele><time>2026-04-12T10:27:09.132Z</time></trkpt><trkpt lat="40.6686452" lon="9.4139491"><ele>405.0</ele><time>2026-04-12T10:27:10.131Z</time></trkpt><trkpt lat="40.6686224" lon="9.4137872"><ele>410.5</ele><time>2026-04-12T10:27:11.137Z</time></trkpt><trkpt lat="40.6685811" lon="9.4136328"><ele>416.0</ele><time>2026-04-12T10:27:12.135Z</time></trkpt><trkpt lat="40.6685135" lon="9.4134845"><ele>421.5</ele><time>2026-04-12T10:27:13.138Z</time></trkpt><trkpt lat="40.6684256" lon="9.4133451"><ele>427.0</ele><time>2026-04-12T10:27:14.136Z</time></trkpt><trkpt lat="40.6683293" lon="9.4132024"><ele>427.0</ele><time>2026-04-12T10:27:15.139Z</time></trkpt><trkpt lat="40.6682213" lon="9.4130572"><ele>427.0</ele><time>2026-04-12T10:27:16.128Z</time></trkpt><trkpt lat="40.6681132" lon="9.4128989"><ele>427.0</ele><time>2026-04-12T10:27:17.131Z</time></trkpt><trkpt lat="40.6680007" lon="9.4127445"><ele>425.33333333333337</ele><time>2026-04-12T10:27:18.132Z</time></trkpt><trkpt lat="40.6678876" lon="9.4125862"><ele>423.66666666666663</ele><time>2026-04-12T10:27:19.125Z</time></trkpt><trkpt lat="40.6677802" lon="9.4124405"><ele>422.0</ele><time>2026-04-12T10:27:20.137Z</time></trkpt><trkpt lat="40.667674" lon="9.4123128"><ele>424.0</ele><time>2026-04-12T10:27:21.139Z</time></trkpt><trkpt lat="40.6675573" lon="9.4122086"><ele>426.0</ele><time>2026-04-12T10:27:22.129Z</time></trkpt><trkpt lat="40.6674451" lon="9.4121262"><ele>428.0</ele><time>2026-04-12T10:27:23.15Z</time></trkpt><trkpt lat="40.667347" lon="9.4120326"><ele>430.0</ele><time>2026-04-12T10:27:24.122Z</time></trkpt><trkpt lat="40.6672732" lon="9.4119232"><ele>430.0</ele><time>2026-04-12T10:27:25.129Z</time></trkpt><trkpt lat="40.6672294" lon="9.4117911"><ele>430.0</ele><time>2026-04-12T10:27:26.139Z</time></trkpt><trkpt lat="40.6672115" lon="9.4116321"><ele>430.0</ele><time>2026-04-12T10:27:27.126Z</time></trkpt><trkpt lat="40.6672097" lon="9.4114611"><ele>430.0</ele><time>2026-04-12T10:27:28.128Z</time></trkpt><trkpt lat="40.6672019" lon="9.4112799"><ele>431.75</ele><time>2026-04-12T10:27:29.13Z</time></trkpt><trkpt lat="40.6671919" lon="9.4110993"><ele>433.5</ele><time>2026-04-12T10:27:30.121Z</time></trkpt><trkpt lat="40.6671904" lon="9.4109095"><ele>435.25</ele><time>2026-04-12T10:27:31.134Z</time></trkpt><trkpt lat="40.6672025" lon="9.4107131"><ele>437.0</ele><time>2026-04-12T10:27:32.125Z</time></trkpt><trkpt lat="40.6672273" lon="9.4105199"><ele>441.0</ele><time>2026-04-12T10:27:33.13Z</time></trkpt><trkpt lat="40.6672603" lon="9.4103223"><ele>445.0</ele><time>2026-04-12T10:27:34.116Z</time></trkpt><trkpt lat="40.6672882" lon="9.4101151"><ele>449.0</ele><time>2026-04-12T10:27:35.128Z</time></trkpt><trkpt lat="40.6673023" lon="9.4098967"><ele>449.0</ele><time>2026-04-12T10:27:36.117Z</time></trkpt><trkpt lat="40.6673048" lon="9.4097066"><ele>449.0</ele><time>2026-04-12T10:27:37.128Z</time></trkpt><trkpt lat="40.6673032" lon="9.4095584"><ele>449.0</ele><time>2026-04-12T10:27:38.12Z</time></trkpt><trkpt lat="40.6673044" lon="9.4094514"><ele>449.0</ele><time>2026-04-12T10:27:39.127Z</time></trkpt><trkpt lat="40.6673043" lon="9.4093641"><ele>449.0</ele><time>2026-04-12T10:27:40.127Z</time></trkpt><trkpt lat="40.6672575" lon="9.4092895"><ele>450.66666666666663</ele><time>2026-04-12T10:27:42.131Z</time></trkpt><trkpt lat="40.6671633" lon="9.4092887"><ele>452.3333333333333</ele><time>2026-04-12T10:27:44.132Z</time></trkpt><trkpt lat="40.6671011" lon="9.4093091"><ele>454.0</ele><time>2026-04-12T10:27:45.13Z</time></trkpt><trkpt lat="40.6670273" lon="9.4093177"><ele>455.66666666666663</ele><time>2026-04-12T10:27:46.136Z</time></trkpt><trkpt lat="40.6669534" lon="9.4093011"><ele>457.3333333333333</ele><time>2026-04-12T10:27:47.123Z</time></trkpt><trkpt lat="40.6668796" lon="9.4092783"><ele>459.0</ele><time>2026-04-12T10:27:48.118Z</time></trkpt><trkpt lat="40.666801" lon="9.4092546"><ele>459.8333333333333</ele><time>2026-04-12T10:27:49.124Z</time></trkpt><trkpt lat="40.6667064" lon="9.4092156"><ele>460.66666666666663</ele><time>2026-04-12T10:27:50.122Z</time></trkpt><trkpt lat="40.6666193" lon="9.4091776"><ele>461.5</ele><time>2026-04-12T10:27:51.128Z</time></trkpt><trkpt lat="40.6665384" lon="9.4091538"><ele>462.3333333333333</ele><time>2026-04-12T10:27:52.124Z</time></trkpt><trkpt lat="40.6664634" lon="9.4091528"><ele>463.16666666666663</ele><time>2026-04-12T10:27:53.122Z</time></trkpt><trkpt lat="40.6663883" lon="9.4091814"><ele>464.0</ele><time>2026-04-12T10:27:54.111Z</time></trkpt><trkpt lat="40.6663067" lon="9.4092178"><ele>464.0</ele><time>2026-04-12T10:27:55.126Z</time></trkpt><trkpt lat="40.6662319" lon="9.4092686"><ele>464.0</ele><time>2026-04-12T10:27:56.123Z</time></trkpt><trkpt lat="40.6661576" lon="9.4093318"><ele>464.0</ele><time>2026-04-12T10:27:57.115Z</time></trkpt><trkpt lat="40.6660733" lon="9.4094112"><ele>464.0</ele><time>2026-04-12T10:27:58.108Z</time></trkpt><trkpt lat="40.6659889" lon="9.4094962"><ele>464.0</ele><time>2026-04-12T10:27:59.122Z</time></trkpt><trkpt lat="40.6659096" lon="9.4095887"><ele>467.79999999999995</ele><time>2026-04-12T10:28:00.105Z</time></trkpt><trkpt lat="40.6658553" lon="9.4096935"><ele>471.59999999999997</ele><time>2026-04-12T10:28:01.114Z</time></trkpt><trkpt lat="40.6658157" lon="9.4098019"><ele>475.4</ele><time>2026-04-12T10:28:02.102Z</time></trkpt><trkpt lat="40.6658021" lon="9.4099053"><ele>479.2</ele><time>2026-04-12T10:28:03.109Z</time></trkpt><trkpt lat="40.6658374" lon="9.410057"><ele>483.0</ele><time>2026-04-12T10:28:05.1Z</time></trkpt><trkpt lat="40.6658786" lon="9.4101388"><ele>483.0</ele><time>2026-04-12T10:28:06.096Z</time></trkpt><trkpt lat="40.6659191" lon="9.4102303"><ele>482.99999999999994</ele><time>2026-04-12T10:28:07.107Z</time></trkpt><trkpt lat="40.6659379" lon="9.4103344"><ele>482.99999999999994</ele><time>2026-04-12T10:28:08.105Z</time></trkpt><trkpt lat="40.6659307" lon="9.410453"><ele>483.0</ele><time>2026-04-12T10:28:09.096Z</time></trkpt><trkpt lat="40.6659171" lon="9.4105838"><ele>483.0</ele><time>2026-04-12T10:28:10.097Z</time></trkpt><trkpt lat="40.6658902" lon="9.4107149"><ele>483.79999999999995</ele><time>2026-04-12T10:28:11.103Z</time></trkpt><trkpt lat="40.6658583" lon="9.4108317"><ele>484.59999999999997</ele><time>2026-04-12T10:28:12.098Z</time></trkpt><trkpt lat="40.6658145" lon="9.4109546"><ele>485.40000000000003</ele><time>2026-04-12T10:28:13.096Z</time></trkpt><trkpt lat="40.6657708" lon="9.4110763"><ele>486.20000000000005</ele><time>2026-04-12T10:28:14.099Z</time></trkpt><trkpt lat="40.6657309" lon="9.4111959"><ele>487.0</ele><time>2026-04-12T10:28:15.099Z</time></trkpt><trkpt lat="40.6656887" lon="9.4113262"><ele>487.25</ele><time>2026-04-12T10:28:16.092Z</time></trkpt><trkpt lat="40.6656434" lon="9.4114753"><ele>487.5</ele><time>2026-04-12T10:28:17.112Z</time></trkpt><trkpt lat="40.665586" lon="9.4116022"><ele>487.75</ele><time>2026-04-12T10:28:18.098Z</time></trkpt><trkpt lat="40.6655192" lon="9.4117131"><ele>488.0</ele><time>2026-04-12T10:28:19.106Z</time></trkpt><trkpt lat="40.6654325" lon="9.4118214"><ele>488.0</ele><time>2026-04-12T10:28:20.09Z</time></trkpt><trkpt lat="40.6653366" lon="9.4119426"><ele>488.0</ele><time>2026-04-12T10:28:21.099Z</time></trkpt><trkpt lat="40.6652512" lon="9.4120529"><ele>488.0</ele><time>2026-04-12T10:28:22.093Z</time></trkpt><trkpt lat="40.6651865" lon="9.4121662"><ele>488.0</ele><time>2026-04-12T10:28:23.097Z</time></trkpt><trkpt lat="40.6651315" lon="9.4122874"><ele>490.0</ele><time>2026-04-12T10:28:24.089Z</time></trkpt><trkpt lat="40.665074" lon="9.4124232"><ele>492.0</ele><time>2026-04-12T10:28:25.098Z</time></trkpt><trkpt lat="40.6650137" lon="9.4125612"><ele>494.0</ele><time>2026-04-12T10:28:26.097Z</time></trkpt><trkpt lat="40.6649442" lon="9.4126998"><ele>496.0</ele><time>2026-04-12T10:28:27.119Z</time></trkpt><trkpt lat="40.6648811" lon="9.4128337"><ele>496.0</ele><time>2026-04-12T10:28:28.109Z</time></trkpt><trkpt lat="40.6648299" lon="9.4129707"><ele>496.0</ele><time>2026-04-12T10:28:29.114Z</time></trkpt><trkpt lat="40.6647715" lon="9.4131155"><ele>496.0</ele><time>2026-04-12T10:28:30.109Z</time></trkpt><trkpt lat="40.664707" lon="9.4132565"><ele>496.0</ele><time>2026-04-12T10:28:31.096Z</time></trkpt><trkpt lat="40.6646415" lon="9.4133792"><ele>495.6</ele><time>2026-04-12T10:28:32.093Z</time></trkpt><trkpt lat="40.6645646" lon="9.4134868"><ele>495.20000000000005</ele><time>2026-04-12T10:28:33.096Z</time></trkpt><trkpt lat="40.6644777" lon="9.4135773"><ele>494.79999999999995</ele><time>2026-04-12T10:28:34.101Z</time></trkpt><trkpt lat="40.6644037" lon="9.4136573"><ele>494.4</ele><time>2026-04-12T10:28:35.087Z</time></trkpt><trkpt lat="40.6643289" lon="9.4137817"><ele>494.0</ele><time>2026-04-12T10:28:37.097Z</time></trkpt><trkpt lat="40.6642973" lon="9.4138689"><ele>494.99999999999994</ele><time>2026-04-12T10:28:38.09Z</time></trkpt><trkpt lat="40.6642751" lon="9.4139719"><ele>496.0</ele><time>2026-04-12T10:28:39.117Z</time></trkpt><trkpt lat="40.6642594" lon="9.4140871"><ele>497.0</ele><time>2026-04-12T10:28:40.088Z</time></trkpt><trkpt lat="40.6642357" lon="9.4142005"><ele>498.0</ele><time>2026-04-12T10:28:41.089Z</time></trkpt><trkpt lat="40.6642103" lon="9.4143088"><ele>498.99999999999994</ele><time>2026-04-12T10:28:42.087Z</time></trkpt><trkpt lat="40.6641747" lon="9.4144221"><ele>500.0</ele><time>2026-04-12T10:28:43.082Z</time></trkpt><trkpt lat="40.6641169" lon="9.4145452"><ele>500.2</ele><time>2026-04-12T10:28:44.08Z</time></trkpt><trkpt lat="40.6640472" lon="9.4146685"><ele>500.4</ele><time>2026-04-12T10:28:45.08Z</time></trkpt><trkpt lat="40.6639733" lon="9.4147789"><ele>500.6</ele><time>2026-04-12T10:28:46.102Z</time></trkpt><trkpt lat="40.6639109" lon="9.4148842"><ele>500.8</ele><time>2026-04-12T10:28:47.088Z</time></trkpt><trkpt lat="40.6638556" lon="9.4149951"><ele>501.0</ele><time>2026-04-12T10:28:48.081Z</time></trkpt><trkpt lat="40.6637976" lon="9.4151077"><ele>501.0</ele><time>2026-04-12T10:28:49.081Z</time></trkpt><trkpt lat="40.6637434" lon="9.4152073"><ele>501.0</ele><time>2026-04-12T10:28:50.207Z</time></trkpt><trkpt lat="40.6636428" lon="9.4154287"><ele>501.0</ele><time>2026-04-12T10:28:52.077Z</time></trkpt><trkpt lat="40.6635947" lon="9.4155316"><ele>501.0</ele><time>2026-04-12T10:28:53.073Z</time></trkpt><trkpt lat="40.6635656" lon="9.415612"><ele>501.0</ele><time>2026-04-12T10:28:54.078Z</time></trkpt><trkpt lat="40.6635775" lon="9.4157567"><ele>500.25</ele><time>2026-04-12T10:28:56.064Z</time></trkpt><trkpt lat="40.6636215" lon="9.4159038"><ele>499.5</ele><time>2026-04-12T10:28:58.067Z</time></trkpt><trkpt lat="40.6636203" lon="9.4160633"><ele>498.75</ele><time>2026-04-12T10:29:00.09Z</time></trkpt><trkpt lat="40.6636338" lon="9.4161979"><ele>498.0</ele><time>2026-04-12T10:29:02.082Z</time></trkpt><trkpt lat="40.6637068" lon="9.4163251"><ele>497.4</ele><time>2026-04-12T10:29:04.066Z</time></trkpt><trkpt lat="40.6637757" lon="9.416444"><ele>496.79999999999995</ele><time>2026-04-12T10:29:06.083Z</time></trkpt><trkpt lat="40.6637783" lon="9.4165499"><ele>496.2</ele><time>2026-04-12T10:29:08.065Z</time></trkpt><trkpt lat="40.6636971" lon="9.4166253"><ele>495.6</ele><time>2026-04-12T10:29:10.068Z</time></trkpt><trkpt lat="40.6635861" lon="9.416636"><ele>495.0</ele><time>2026-04-12T10:29:12.077Z</time></trkpt><trkpt lat="40.663523" lon="9.4166386"><ele>492.8571428571428</ele><time>2026-04-12T10:29:13.086Z</time></trkpt><trkpt lat="40.6634526" lon="9.4166365"><ele>490.71428571428567</ele><time>2026-04-12T10:29:14.077Z</time></trkpt><trkpt lat="40.6633866" lon="9.416636"><ele>488.57142857142856</ele><time>2026-04-12T10:29:15.061Z</time></trkpt><trkpt lat="40.6633216" lon="9.4166213"><ele>486.4285714285714</ele><time>2026-04-12T10:29:16.066Z</time></trkpt><trkpt lat="40.6632585" lon="9.4165912"><ele>484.2857142857142</ele><time>2026-04-12T10:29:17.062Z</time></trkpt><trkpt lat="40.6631899" lon="9.4165621"><ele>482.14285714285717</ele><time>2026-04-12T10:29:18.063Z</time></trkpt><trkpt lat="40.6631175" lon="9.4165488"><ele>480.0</ele><time>2026-04-12T10:29:19.085Z</time></trkpt><trkpt lat="40.6630455" lon="9.4165542"><ele>480.0</ele><time>2026-04-12T10:29:20.06Z</time></trkpt><trkpt lat="40.6629703" lon="9.4165694"><ele>480.0</ele><time>2026-04-12T10:29:21.057Z</time></trkpt><trkpt lat="40.6628636" lon="9.4166289"><ele>480.0</ele><time>2026-04-12T10:29:23.072Z</time></trkpt><trkpt lat="40.6627916" lon="9.4167659"><ele>480.0</ele><time>2026-04-12T10:29:25.055Z</time></trkpt><trkpt lat="40.6627677" lon="9.4168559"><ele>480.0</ele><time>2026-04-12T10:29:26.066Z</time></trkpt><trkpt lat="40.6627448" lon="9.4169401"><ele>477.8333333333333</ele><time>2026-04-12T10:29:27.066Z</time></trkpt><trkpt lat="40.662709" lon="9.4170168"><ele>475.66666666666663</ele><time>2026-04-12T10:29:28.063Z</time></trkpt><trkpt lat="40.662656" lon="9.4170862"><ele>473.5</ele><time>2026-04-12T10:29:29.087Z</time></trkpt><trkpt lat="40.6625976" lon="9.4171649"><ele>471.3333333333333</ele><time>2026-04-12T10:29:30.068Z</time></trkpt><trkpt lat="40.6625391" lon="9.4172488"><ele>469.16666666666663</ele><time>2026-04-12T10:29:31.062Z</time></trkpt><trkpt lat="40.662482" lon="9.4173328"><ele>467.0</ele><time>2026-04-12T10:29:32.06Z</time></trkpt><trkpt lat="40.6624316" lon="9.4174146"><ele>466.99999999999994</ele><time>2026-04-12T10:29:33.069Z</time></trkpt><trkpt lat="40.66239" lon="9.4174887"><ele>467.0</ele><time>2026-04-12T10:29:34.059Z</time></trkpt><trkpt lat="40.6623263" lon="9.4176042"><ele>467.0</ele><time>2026-04-12T10:29:36.056Z</time></trkpt><trkpt lat="40.6622588" lon="9.4176633"><ele>467.0</ele><time>2026-04-12T10:29:38.063Z</time></trkpt><trkpt lat="40.6621972" lon="9.4176451"><ele>466.99999999999994</ele><time>2026-04-12T10:29:40.057Z</time></trkpt><trkpt lat="40.6621869" lon="9.417554"><ele>467.0</ele><time>2026-04-12T10:29:42.054Z</time></trkpt><trkpt lat="40.662243" lon="9.41744"><ele>466.99999999999994</ele><time>2026-04-12T10:29:44.069Z</time></trkpt><trkpt lat="40.6622978" lon="9.4172969"><ele>467.0</ele><time>2026-04-12T10:29:46.057Z</time></trkpt><trkpt lat="40.6623131" lon="9.4172091"><ele>467.0</ele><time>2026-04-12T10:29:47.071Z</time></trkpt><trkpt lat="40.6623134" lon="9.4171163"><ele>467.0</ele><time>2026-04-12T10:29:48.069Z</time></trkpt><trkpt lat="40.6622954" lon="9.4170298"><ele>466.99999999999994</ele><time>2026-04-12T10:29:49.04Z</time></trkpt><trkpt lat="40.6622799" lon="9.4168871"><ele>467.0</ele><time>2026-04-12T10:29:51.059Z</time></trkpt><trkpt lat="40.6623193" lon="9.4167346"><ele>465.16666666666663</ele><time>2026-04-12T10:29:53.046Z</time></trkpt><trkpt lat="40.6623633" lon="9.4166487"><ele>463.3333333333333</ele><time>2026-04-12T10:29:54.042Z</time></trkpt><trkpt lat="40.6624043" lon="9.4165585"><ele>461.5</ele><time>2026-04-12T10:29:55.043Z</time></trkpt><trkpt lat="40.6624294" lon="9.4164736"><ele>459.66666666666663</ele><time>2026-04-12T10:29:56.048Z</time></trkpt><trkpt lat="40.6624373" lon="9.4163882"><ele>457.8333333333333</ele><time>2026-04-12T10:29:57.033Z</time></trkpt><trkpt lat="40.6624439" lon="9.416224"><ele>456.0</ele><time>2026-04-12T10:29:59.137Z</time></trkpt><trkpt lat="40.6624727" lon="9.4160732"><ele>454.8</ele><time>2026-04-12T10:30:01.142Z</time></trkpt><trkpt lat="40.6624664" lon="9.4159694"><ele>453.6</ele><time>2026-04-12T10:30:03.149Z</time></trkpt><trkpt lat="40.6623841" lon="9.4160063"><ele>452.4</ele><time>2026-04-12T10:30:06.139Z</time></trkpt><trkpt lat="40.662335" lon="9.4161006"><ele>451.2</ele><time>2026-04-12T10:30:08.131Z</time></trkpt><trkpt lat="40.6622732" lon="9.4162133"><ele>450.0</ele><time>2026-04-12T10:30:10.133Z</time></trkpt><trkpt lat="40.662187" lon="9.416311"><ele>450.0</ele><time>2026-04-12T10:30:12.133Z</time></trkpt><trkpt lat="40.6620962" lon="9.4163744"><ele>450.0</ele><time>2026-04-12T10:30:14.133Z</time></trkpt><trkpt lat="40.6620221" lon="9.4163537"><ele>450.0</ele><time>2026-04-12T10:30:16.15Z</time></trkpt><trkpt lat="40.6620032" lon="9.4162636"><ele>450.0</ele><time>2026-04-12T10:30:18.125Z</time></trkpt><trkpt lat="40.6620603" lon="9.4161786"><ele>450.0</ele><time>2026-04-12T10:30:20.144Z</time></trkpt><trkpt lat="40.66211" lon="9.4161102"><ele>450.0</ele><time>2026-04-12T10:30:22.137Z</time></trkpt><trkpt lat="40.662083" lon="9.416015"><ele>450.0</ele><time>2026-04-12T10:30:25.135Z</time></trkpt><trkpt lat="40.6620139" lon="9.4160367"><ele>450.0</ele><time>2026-04-12T10:30:27.132Z</time></trkpt><trkpt lat="40.6619358" lon="9.4161027"><ele>450.0</ele><time>2026-04-12T10:30:29.144Z</time></trkpt><trkpt lat="40.6618472" lon="9.4161546"><ele>450.0</ele><time>2026-04-12T10:30:31.126Z</time></trkpt><trkpt lat="40.6617754" lon="9.4162444"><ele>450.0</ele><time>2026-04-12T10:30:33.137Z</time></trkpt><trkpt lat="40.6617653" lon="9.4163952"><ele>445.5714285714286</ele><time>2026-04-12T10:30:35.134Z</time></trkpt><trkpt lat="40.6617643" lon="9.4164788"><ele>441.14285714285717</ele><time>2026-04-12T10:30:36.13Z</time></trkpt><trkpt lat="40.6617467" lon="9.4165604"><ele>436.7142857142857</ele><time>2026-04-12T10:30:37.128Z</time></trkpt><trkpt lat="40.6617164" lon="9.41665"><ele>432.28571428571433</ele><time>2026-04-12T10:30:38.126Z</time></trkpt><trkpt lat="40.6616778" lon="9.4167324"><ele>427.8571428571429</ele><time>2026-04-12T10:30:39.143Z</time></trkpt><trkpt lat="40.6616381" lon="9.4168147"><ele>423.4285714285714</ele><time>2026-04-12T10:30:40.142Z</time></trkpt><trkpt lat="40.6616" lon="9.4168914"><ele>419.0</ele><time>2026-04-12T10:30:41.123Z</time></trkpt><trkpt lat="40.6615615" lon="9.4169696"><ele>418.99999999999994</ele><time>2026-04-12T10:30:42.136Z</time></trkpt><trkpt lat="40.6615273" lon="9.4170476"><ele>419.0</ele><time>2026-04-12T10:30:43.122Z</time></trkpt><trkpt lat="40.6614953" lon="9.417132"><ele>419.0</ele><time>2026-04-12T10:30:44.127Z</time></trkpt><trkpt lat="40.6614577" lon="9.4172208"><ele>419.0</ele><time>2026-04-12T10:30:45.118Z</time></trkpt><trkpt lat="40.6614192" lon="9.4173099"><ele>419.0</ele><time>2026-04-12T10:30:46.12Z</time></trkpt><trkpt lat="40.6613744" lon="9.4173918"><ele>418.99999999999994</ele><time>2026-04-12T10:30:47.144Z</time></trkpt><trkpt lat="40.6613252" lon="9.4174707"><ele>419.0</ele><time>2026-04-12T10:30:48.123Z</time></trkpt><trkpt lat="40.6612705" lon="9.4175339"><ele>420.99999999999994</ele><time>2026-04-12T10:30:49.118Z</time></trkpt><trkpt lat="40.6612107" lon="9.4175763"><ele>423.0</ele><time>2026-04-12T10:30:50.124Z</time></trkpt><trkpt lat="40.661105" lon="9.4176338"><ele>425.0</ele><time>2026-04-12T10:30:52.135Z</time></trkpt><trkpt lat="40.6610277" lon="9.4177314"><ele>427.0</ele><time>2026-04-12T10:30:54.126Z</time></trkpt><trkpt lat="40.6610041" lon="9.4178097"><ele>428.99999999999994</ele><time>2026-04-12T10:30:55.134Z</time></trkpt><trkpt lat="40.6609849" lon="9.4179058"><ele>431.0</ele><time>2026-04-12T10:30:56.123Z</time></trkpt><trkpt lat="40.6609641" lon="9.4180129"><ele>424.99999999999994</ele><time>2026-04-12T10:30:57.119Z</time></trkpt><trkpt lat="40.6609378" lon="9.418124"><ele>419.0</ele><time>2026-04-12T10:30:58.119Z</time></trkpt><trkpt lat="40.6609194" lon="9.4182361"><ele>413.0</ele><time>2026-04-12T10:30:59.129Z</time></trkpt><trkpt lat="40.660902" lon="9.4183381"><ele>407.0</ele><time>2026-04-12T10:31:00.122Z</time></trkpt><trkpt lat="40.6608928" lon="9.4184335"><ele>400.99999999999994</ele><time>2026-04-12T10:31:01.128Z</time></trkpt><trkpt lat="40.6608944" lon="9.4185336"><ele>395.0</ele><time>2026-04-12T10:31:02.116Z</time></trkpt><trkpt lat="40.6608984" lon="9.4186448"><ele>395.0</ele><time>2026-04-12T10:31:03.119Z</time></trkpt><trkpt lat="40.6609011" lon="9.4187624"><ele>395.0</ele><time>2026-04-12T10:31:04.117Z</time></trkpt><trkpt lat="40.6609023" lon="9.4188911"><ele>395.0</ele><time>2026-04-12T10:31:05.13Z</time></trkpt><trkpt lat="40.6609016" lon="9.4190346"><ele>395.0</ele><time>2026-04-12T10:31:06.111Z</time></trkpt><trkpt lat="40.6609055" lon="9.4191905"><ele>395.0</ele><time>2026-04-12T10:31:07.118Z</time></trkpt><trkpt lat="40.660905" lon="9.4193411"><ele>394.75</ele><time>2026-04-12T10:31:08.254Z</time></trkpt><trkpt lat="40.6609085" lon="9.4195934"><ele>394.5</ele><time>2026-04-12T10:31:10.112Z</time></trkpt><trkpt lat="40.6609153" lon="9.4197179"><ele>394.25</ele><time>2026-04-12T10:31:11.118Z</time></trkpt><trkpt lat="40.660929" lon="9.419853"><ele>394.0</ele><time>2026-04-12T10:31:12.117Z</time></trkpt><trkpt lat="40.6609386" lon="9.4199781"><ele>394.00000000000006</ele><time>2026-04-12T10:31:13.114Z</time></trkpt><trkpt lat="40.6609411" lon="9.4200963"><ele>394.0</ele><time>2026-04-12T10:31:14.104Z</time></trkpt><trkpt lat="40.6609387" lon="9.4202063"><ele>394.0</ele><time>2026-04-12T10:31:15.119Z</time></trkpt><trkpt lat="40.6609448" lon="9.4203145"><ele>394.0</ele><time>2026-04-12T10:31:16.113Z</time></trkpt><trkpt lat="40.6609603" lon="9.4204125"><ele>394.00000000000006</ele><time>2026-04-12T10:31:17.109Z</time></trkpt><trkpt lat="40.6609865" lon="9.4205036"><ele>394.0</ele><time>2026-04-12T10:31:18.101Z</time></trkpt><trkpt lat="40.661024" lon="9.4205857"><ele>390.79999999999995</ele><time>2026-04-12T10:31:19.102Z</time></trkpt><trkpt lat="40.6610734" lon="9.420676"><ele>387.59999999999997</ele><time>2026-04-12T10:31:20.108Z</time></trkpt><trkpt lat="40.6611103" lon="9.4207723"><ele>384.4</ele><time>2026-04-12T10:31:21.1Z</time></trkpt><trkpt lat="40.6611387" lon="9.4208769"><ele>381.2</ele><time>2026-04-12T10:31:22.091Z</time></trkpt><trkpt lat="40.66116" lon="9.4210015"><ele>378.0</ele><time>2026-04-12T10:31:23.103Z</time></trkpt><trkpt lat="40.661174" lon="9.421136"><ele>385.5</ele><time>2026-04-12T10:31:24.11Z</time></trkpt><trkpt lat="40.6611809" lon="9.4212627"><ele>393.0</ele><time>2026-04-12T10:31:25.11Z</time></trkpt><trkpt lat="40.6611859" lon="9.4213854"><ele>400.5</ele><time>2026-04-12T10:31:26.192Z</time></trkpt><trkpt lat="40.6611846" lon="9.4216254"><ele>408.0</ele><time>2026-04-12T10:31:28.09Z</time></trkpt><trkpt lat="40.6611763" lon="9.4217341"><ele>408.0</ele><time>2026-04-12T10:31:29.086Z</time></trkpt><trkpt lat="40.6611564" lon="9.421837"><ele>408.0</ele><time>2026-04-12T10:31:30.093Z</time></trkpt><trkpt lat="40.6611177" lon="9.4219389"><ele>408.0</ele><time>2026-04-12T10:31:31.086Z</time></trkpt><trkpt lat="40.6610686" lon="9.4220433"><ele>408.0</ele><time>2026-04-12T10:31:32.082Z</time></trkpt><trkpt lat="40.6610146" lon="9.4221392"><ele>408.0</ele><time>2026-04-12T10:31:33.095Z</time></trkpt><trkpt lat="40.6609574" lon="9.4222383"><ele>408.0</ele><time>2026-04-12T10:31:34.09Z</time></trkpt><trkpt lat="40.6608998" lon="9.4223281"><ele>402.0</ele><time>2026-04-12T10:31:35.084Z</time></trkpt><trkpt lat="40.6608425" lon="9.4224108"><ele>396.0</ele><time>2026-04-12T10:31:36.082Z</time></trkpt><trkpt lat="40.6607923" lon="9.4224983"><ele>390.0</ele><time>2026-04-12T10:31:37.079Z</time></trkpt><trkpt lat="40.6607495" lon="9.4225913"><ele>384.0</ele><time>2026-04-12T10:31:38.082Z</time></trkpt><trkpt lat="40.6607243" lon="9.422689"><ele>378.0</ele><time>2026-04-12T10:31:39.079Z</time></trkpt><trkpt lat="40.6607127" lon="9.4228003"><ele>372.0</ele><time>2026-04-12T10:31:40.075Z</time></trkpt><trkpt lat="40.6607181" lon="9.4229271"><ele>371.40000000000003</ele><time>2026-04-12T10:31:41.092Z</time></trkpt><trkpt lat="40.6607368" lon="9.4230588"><ele>370.8</ele><time>2026-04-12T10:31:42.082Z</time></trkpt><trkpt lat="40.6607618" lon="9.4231963"><ele>370.2</ele><time>2026-04-12T10:31:43.076Z</time></trkpt><trkpt lat="40.6607926" lon="9.4233211"><ele>369.6</ele><time>2026-04-12T10:31:44.079Z</time></trkpt><trkpt lat="40.6608217" lon="9.4234432"><ele>369.0</ele><time>2026-04-12T10:31:45.078Z</time></trkpt><trkpt lat="40.6608484" lon="9.4235643"><ele>369.0</ele><time>2026-04-12T10:31:46.077Z</time></trkpt><trkpt lat="40.6608763" lon="9.4236798"><ele>369.0</ele><time>2026-04-12T10:31:47.069Z</time></trkpt><trkpt lat="40.6609064" lon="9.4237892"><ele>369.0</ele><time>2026-04-12T10:31:48.076Z</time></trkpt><trkpt lat="40.6609367" lon="9.4238947"><ele>369.0</ele><time>2026-04-12T10:31:49.078Z</time></trkpt><trkpt lat="40.6609652" lon="9.423995"><ele>369.0</ele><time>2026-04-12T10:31:50.092Z</time></trkpt><trkpt lat="40.6609852" lon="9.424098"><ele>369.0</ele><time>2026-04-12T10:31:51.07Z</time></trkpt><trkpt lat="40.6609789" lon="9.4242024"><ele>366.6666666666667</ele><time>2026-04-12T10:31:52.084Z</time></trkpt><trkpt lat="40.660962" lon="9.4242986"><ele>364.3333333333333</ele><time>2026-04-12T10:31:53.09Z</time></trkpt><trkpt lat="40.6609372" lon="9.4243921"><ele>362.0</ele><time>2026-04-12T10:31:54.082Z</time></trkpt><trkpt lat="40.6609132" lon="9.4244907"><ele>359.66666666666663</ele><time>2026-04-12T10:31:55.087Z</time></trkpt><trkpt lat="40.6608945" lon="9.42459"><ele>357.3333333333333</ele><time>2026-04-12T10:31:56.072Z</time></trkpt><trkpt lat="40.6608893" lon="9.4246912"><ele>355.0</ele><time>2026-04-12T10:31:57.068Z</time></trkpt><trkpt lat="40.6608852" lon="9.4247869"><ele>354.16666666666663</ele><time>2026-04-12T10:31:58.067Z</time></trkpt><trkpt lat="40.6608755" lon="9.4248847"><ele>353.3333333333333</ele><time>2026-04-12T10:31:59.066Z</time></trkpt><trkpt lat="40.6608671" lon="9.4249805"><ele>352.5</ele><time>2026-04-12T10:32:00.074Z</time></trkpt><trkpt lat="40.6608596" lon="9.4250754"><ele>351.6666666666667</ele><time>2026-04-12T10:32:01.081Z</time></trkpt><trkpt lat="40.6608504" lon="9.4251805"><ele>350.83333333333337</ele><time>2026-04-12T10:32:02.095Z</time></trkpt><trkpt lat="40.6608486" lon="9.4252953"><ele>350.0</ele><time>2026-04-12T10:32:03.071Z</time></trkpt><trkpt lat="40.6608508" lon="9.4254119"><ele>349.33333333333337</ele><time>2026-04-12T10:32:04.078Z</time></trkpt><trkpt lat="40.6608482" lon="9.4255325"><ele>348.6666666666667</ele><time>2026-04-12T10:32:05.066Z</time></trkpt><trkpt lat="40.6608258" lon="9.425654"><ele>348.0</ele><time>2026-04-12T10:32:06.063Z</time></trkpt><trkpt lat="40.6607804" lon="9.4257675"><ele>347.3333333333333</ele><time>2026-04-12T10:32:07.058Z</time></trkpt><trkpt lat="40.6607341" lon="9.4258644"><ele>346.66666666666663</ele><time>2026-04-12T10:32:08.078Z</time></trkpt><trkpt lat="40.6606945" lon="9.4259511"><ele>346.0</ele><time>2026-04-12T10:32:09.065Z</time></trkpt><trkpt lat="40.6606752" lon="9.4260308"><ele>346.0</ele><time>2026-04-12T10:32:10.091Z</time></trkpt><trkpt lat="40.6606872" lon="9.4261144"><ele>346.0</ele><time>2026-04-12T10:32:11.063Z</time></trkpt><trkpt lat="40.6607167" lon="9.4262018"><ele>346.0</ele><time>2026-04-12T10:32:12.06Z</time></trkpt><trkpt lat="40.660743" lon="9.4262955"><ele>346.0</ele><time>2026-04-12T10:32:13.072Z</time></trkpt><trkpt lat="40.6607562" lon="9.426407"><ele>346.0</ele><time>2026-04-12T10:32:14.066Z</time></trkpt><trkpt lat="40.6607591" lon="9.426522"><ele>346.0</ele><time>2026-04-12T10:32:15.065Z</time></trkpt><trkpt lat="40.6607493" lon="9.4266377"><ele>346.0</ele><time>2026-04-12T10:32:16.071Z</time></trkpt><trkpt lat="40.6607275" lon="9.4267626"><ele>346.0</ele><time>2026-04-12T10:32:17.066Z</time></trkpt><trkpt lat="40.6606858" lon="9.4269012"><ele>346.0</ele><time>2026-04-12T10:32:18.066Z</time></trkpt><trkpt lat="40.660631" lon="9.4270293"><ele>346.0</ele><time>2026-04-12T10:32:19.064Z</time></trkpt><trkpt lat="40.6605818" lon="9.427163"><ele>346.0</ele><time>2026-04-12T10:32:20.06Z</time></trkpt><trkpt lat="40.6605411" lon="9.427311"><ele>346.0</ele><time>2026-04-12T10:32:21.071Z</time></trkpt><trkpt lat="40.6605038" lon="9.427459"><ele>346.0</ele><time>2026-04-12T10:32:22.067Z</time></trkpt><trkpt lat="40.6604538" lon="9.4276056"><ele>346.0</ele><time>2026-04-12T10:32:23.076Z</time></trkpt><trkpt lat="40.660399" lon="9.4277563"><ele>346.0</ele><time>2026-04-12T10:32:24.066Z</time></trkpt><trkpt lat="40.6603595" lon="9.4279134"><ele>347.8</ele><time>2026-04-12T10:32:25.077Z</time></trkpt><trkpt lat="40.6603276" lon="9.4280728"><ele>349.6</ele><time>2026-04-12T10:32:26.074Z</time></trkpt><trkpt lat="40.6603063" lon="9.428213"><ele>351.4</ele><time>2026-04-12T10:32:27.084Z</time></trkpt><trkpt lat="40.6602822" lon="9.4283355"><ele>353.2</ele><time>2026-04-12T10:32:28.088Z</time></trkpt><trkpt lat="40.660258" lon="9.4284381"><ele>355.0</ele><time>2026-04-12T10:32:29.071Z</time></trkpt><trkpt lat="40.6602294" lon="9.4285331"><ele>350.0</ele><time>2026-04-12T10:32:30.075Z</time></trkpt><trkpt lat="40.660196" lon="9.4286248"><ele>345.0</ele><time>2026-04-12T10:32:31.082Z</time></trkpt><trkpt lat="40.6601479" lon="9.4287087"><ele>340.0</ele><time>2026-04-12T10:32:32.063Z</time></trkpt><trkpt lat="40.6600825" lon="9.4287902"><ele>335.0</ele><time>2026-04-12T10:32:33.072Z</time></trkpt><trkpt lat="40.660011" lon="9.4288761"><ele>330.0</ele><time>2026-04-12T10:32:34.07Z</time></trkpt><trkpt lat="40.6599446" lon="9.428977"><ele>325.0</ele><time>2026-04-12T10:32:35.073Z</time></trkpt><trkpt lat="40.6598743" lon="9.4290844"><ele>325.0</ele><time>2026-04-12T10:32:36.085Z</time></trkpt><trkpt lat="40.6597917" lon="9.4291851"><ele>325.0</ele><time>2026-04-12T10:32:37.068Z</time></trkpt><trkpt lat="40.6597122" lon="9.4292822"><ele>325.0</ele><time>2026-04-12T10:32:38.071Z</time></trkpt><trkpt lat="40.6596316" lon="9.4293884"><ele>325.0</ele><time>2026-04-12T10:32:39.062Z</time></trkpt><trkpt lat="40.6595566" lon="9.4294949"><ele>325.0</ele><time>2026-04-12T10:32:40.059Z</time></trkpt><trkpt lat="40.6594752" lon="9.4295944"><ele>321.0</ele><time>2026-04-12T10:32:41.054Z</time></trkpt><trkpt lat="40.6593956" lon="9.4296857"><ele>317.0</ele><time>2026-04-12T10:32:42.062Z</time></trkpt><trkpt lat="40.6593238" lon="9.4297672"><ele>313.0</ele><time>2026-04-12T10:32:43.059Z</time></trkpt><trkpt lat="40.6592551" lon="9.4298401"><ele>309.0</ele><time>2026-04-12T10:32:44.067Z</time></trkpt><trkpt lat="40.6591951" lon="9.429908"><ele>305.0</ele><time>2026-04-12T10:32:45.052Z</time></trkpt><trkpt lat="40.6591448" lon="9.4299794"><ele>301.0</ele><time>2026-04-12T10:32:46.054Z</time></trkpt><trkpt lat="40.6591066" lon="9.4300602"><ele>301.0</ele><time>2026-04-12T10:32:47.051Z</time></trkpt><trkpt lat="40.6590764" lon="9.4301649"><ele>301.0</ele><time>2026-04-12T10:32:48.058Z</time></trkpt><trkpt lat="40.6590462" lon="9.4302737"><ele>301.0</ele><time>2026-04-12T10:32:49.059Z</time></trkpt><trkpt lat="40.6590118" lon="9.4303874"><ele>301.0</ele><time>2026-04-12T10:32:50.058Z</time></trkpt><trkpt lat="40.6589774" lon="9.4305062"><ele>301.0</ele><time>2026-04-12T10:32:51.078Z</time></trkpt><trkpt lat="40.6589442" lon="9.4306345"><ele>303.40000000000003</ele><time>2026-04-12T10:32:52.053Z</time></trkpt><trkpt lat="40.6589152" lon="9.4307713"><ele>305.8</ele><time>2026-04-12T10:32:53.064Z</time></trkpt><trkpt lat="40.6588936" lon="9.4308936"><ele>308.20000000000005</ele><time>2026-04-12T10:32:54.052Z</time></trkpt><trkpt lat="40.6588734" lon="9.4310268"><ele>310.6</ele><time>2026-04-12T10:32:55.057Z</time></trkpt><trkpt lat="40.6588637" lon="9.43115"><ele>313.0</ele><time>2026-04-12T10:32:56.054Z</time></trkpt><trkpt lat="40.6588706" lon="9.4312589"><ele>312.4</ele><time>2026-04-12T10:32:57.05Z</time></trkpt><trkpt lat="40.658896" lon="9.4313698"><ele>311.8</ele><time>2026-04-12T10:32:58.097Z</time></trkpt><trkpt lat="40.6589309" lon="9.4314924"><ele>311.2</ele><time>2026-04-12T10:32:59.062Z</time></trkpt><trkpt lat="40.6589639" lon="9.43161"><ele>310.6</ele><time>2026-04-12T10:33:00.067Z</time></trkpt><trkpt lat="40.6590048" lon="9.4317172"><ele>310.0</ele><time>2026-04-12T10:33:01.053Z</time></trkpt><trkpt lat="40.6590489" lon="9.4318184"><ele>310.0</ele><time>2026-04-12T10:33:02.053Z</time></trkpt><trkpt lat="40.6590893" lon="9.4319125"><ele>310.0</ele><time>2026-04-12T10:33:03.064Z</time></trkpt><trkpt lat="40.6591177" lon="9.432002"><ele>310.0</ele><time>2026-04-12T10:33:04.055Z</time></trkpt><trkpt lat="40.6591133" lon="9.4321559"><ele>310.0</ele><time>2026-04-12T10:33:06.052Z</time></trkpt><trkpt lat="40.6590842" lon="9.4322413"><ele>310.0</ele><time>2026-04-12T10:33:07.053Z</time></trkpt><trkpt lat="40.6590482" lon="9.4323431"><ele>310.0</ele><time>2026-04-12T10:33:08.058Z</time></trkpt><trkpt lat="40.6590167" lon="9.4324528"><ele>308.8</ele><time>2026-04-12T10:33:09.05Z</time></trkpt><trkpt lat="40.6589901" lon="9.4325671"><ele>307.6</ele><time>2026-04-12T10:33:10.058Z</time></trkpt><trkpt lat="40.6589626" lon="9.4326943"><ele>306.4</ele><time>2026-04-12T10:33:11.06Z</time></trkpt><trkpt lat="40.6589362" lon="9.4328199"><ele>305.2</ele><time>2026-04-12T10:33:12.065Z</time></trkpt><trkpt lat="40.6589183" lon="9.4329318"><ele>304.0</ele><time>2026-04-12T10:33:13.039Z</time></trkpt><trkpt lat="40.658909" lon="9.4330449"><ele>302.3333333333333</ele><time>2026-04-12T10:33:14.053Z</time></trkpt><trkpt lat="40.6589082" lon="9.4331623"><ele>300.66666666666663</ele><time>2026-04-12T10:33:15.041Z</time></trkpt><trkpt lat="40.6589142" lon="9.4332814"><ele>299.0</ele><time>2026-04-12T10:33:16.047Z</time></trkpt><trkpt lat="40.6589339" lon="9.4333962"><ele>297.3333333333333</ele><time>2026-04-12T10:33:17.04Z</time></trkpt><trkpt lat="40.658961" lon="9.4334941"><ele>295.6666666666667</ele><time>2026-04-12T10:33:18.045Z</time></trkpt><trkpt lat="40.6589792" lon="9.4335742"><ele>294.0</ele><time>2026-04-12T10:33:19.046Z</time></trkpt><trkpt lat="40.6589916" lon="9.4337018"><ele>294.0</ele><time>2026-04-12T10:33:21.041Z</time></trkpt><trkpt lat="40.6589025" lon="9.4336855"><ele>294.0</ele><time>2026-04-12T10:33:24.134Z</time></trkpt><trkpt lat="40.6588385" lon="9.4335572"><ele>294.0</ele><time>2026-04-12T10:33:26.038Z</time></trkpt><trkpt lat="40.6588037" lon="9.4334634"><ele>294.0</ele><time>2026-04-12T10:33:27.039Z</time></trkpt><trkpt lat="40.6587564" lon="9.4333574"><ele>294.0</ele><time>2026-04-12T10:33:28.04Z</time></trkpt><trkpt lat="40.6586966" lon="9.4332512"><ele>294.0</ele><time>2026-04-12T10:33:29.146Z</time></trkpt><trkpt lat="40.6586374" lon="9.4331377"><ele>294.0</ele><time>2026-04-12T10:33:30.142Z</time></trkpt><trkpt lat="40.6585818" lon="9.4330313"><ele>294.0</ele><time>2026-04-12T10:33:31.13Z</time></trkpt><trkpt lat="40.6585283" lon="9.4329206"><ele>294.0</ele><time>2026-04-12T10:33:32.039Z</time></trkpt><trkpt lat="40.6584815" lon="9.4328114"><ele>294.0</ele><time>2026-04-12T10:33:33.039Z</time></trkpt><trkpt lat="40.6584392" lon="9.4327023"><ele>288.59999999999997</ele><time>2026-04-12T10:33:34.035Z</time></trkpt><trkpt lat="40.6584127" lon="9.4326052"><ele>283.2</ele><time>2026-04-12T10:33:35.039Z</time></trkpt><trkpt lat="40.6583898" lon="9.4324501"><ele>277.79999999999995</ele><time>2026-04-12T10:33:37.142Z</time></trkpt><trkpt lat="40.6584025" lon="9.4322975"><ele>272.4</ele><time>2026-04-12T10:33:39.049Z</time></trkpt><trkpt lat="40.6583932" lon="9.4321426"><ele>267.0</ele><time>2026-04-12T10:33:41.033Z</time></trkpt><trkpt lat="40.6583177" lon="9.4320287"><ele>267.0</ele><time>2026-04-12T10:33:43.141Z</time></trkpt><trkpt lat="40.6582558" lon="9.4319646"><ele>267.0</ele><time>2026-04-12T10:33:44.147Z</time></trkpt><trkpt lat="40.6581698" lon="9.4319004"><ele>267.0</ele><time>2026-04-12T10:33:45.147Z</time></trkpt><trkpt lat="40.6580095" lon="9.4317713"><ele>267.0</ele><time>2026-04-12T10:33:47.031Z</time></trkpt><trkpt lat="40.6579493" lon="9.4316949"><ele>267.0</ele><time>2026-04-12T10:33:48.034Z</time></trkpt><trkpt lat="40.6578984" lon="9.4316193"><ele>267.0</ele><time>2026-04-12T10:33:49.14Z</time></trkpt><trkpt lat="40.657857" lon="9.4315367"><ele>267.0</ele><time>2026-04-12T10:33:50.137Z</time></trkpt><trkpt lat="40.6578214" lon="9.4314423"><ele>267.0</ele><time>2026-04-12T10:33:51.132Z</time></trkpt><trkpt lat="40.6577917" lon="9.4313364"><ele>267.0</ele><time>2026-04-12T10:33:52.135Z</time></trkpt><trkpt lat="40.6577641" lon="9.4312165"><ele>267.0</ele><time>2026-04-12T10:33:53.135Z</time></trkpt><trkpt lat="40.6577207" lon="9.4309764"><ele>260.6666666666667</ele><time>2026-04-12T10:33:55.035Z</time></trkpt><trkpt lat="40.6576974" lon="9.4308668"><ele>254.33333333333331</ele><time>2026-04-12T10:33:56.136Z</time></trkpt><trkpt lat="40.6576816" lon="9.4307584"><ele>248.0</ele><time>2026-04-12T10:33:57.159Z</time></trkpt><trkpt lat="40.6576674" lon="9.4306487"><ele>241.66666666666666</ele><time>2026-04-12T10:33:58.131Z</time></trkpt><trkpt lat="40.657651" lon="9.4305397"><ele>235.33333333333331</ele><time>2026-04-12T10:33:59.133Z</time></trkpt><trkpt lat="40.6576398" lon="9.4304425"><ele>229.0</ele><time>2026-04-12T10:34:00.148Z</time></trkpt><trkpt lat="40.6576377" lon="9.4303569"><ele>227.83333333333331</ele><time>2026-04-12T10:34:01.128Z</time></trkpt><trkpt lat="40.6576522" lon="9.4302742"><ele>226.66666666666666</ele><time>2026-04-12T10:34:02.13Z</time></trkpt><trkpt lat="40.6576834" lon="9.4301849"><ele>225.5</ele><time>2026-04-12T10:34:03.124Z</time></trkpt><trkpt lat="40.6577216" lon="9.4300801"><ele>224.33333333333331</ele><time>2026-04-12T10:34:04.129Z</time></trkpt><trkpt lat="40.6577706" lon="9.4299623"><ele>223.16666666666666</ele><time>2026-04-12T10:34:05.124Z</time></trkpt><trkpt lat="40.6578245" lon="9.4298465"><ele>222.0</ele><time>2026-04-12T10:34:06.117Z</time></trkpt><trkpt lat="40.657875" lon="9.4297326"><ele>224.5</ele><time>2026-04-12T10:34:07.117Z</time></trkpt><trkpt lat="40.6579206" lon="9.4296235"><ele>227.0</ele><time>2026-04-12T10:34:08.13Z</time></trkpt><trkpt lat="40.6579616" lon="9.4295243"><ele>229.5</ele><time>2026-04-12T10:34:09.114Z</time></trkpt><trkpt lat="40.6579947" lon="9.4294402"><ele>232.0</ele><time>2026-04-12T10:34:10.12Z</time></trkpt><trkpt lat="40.6580429" lon="9.4293179"><ele>234.5</ele><time>2026-04-12T10:34:12.117Z</time></trkpt><trkpt lat="40.6580616" lon="9.4292211"><ele>237.0</ele><time>2026-04-12T10:34:14.121Z</time></trkpt><trkpt lat="40.6580387" lon="9.4291257"><ele>236.99999999999997</ele><time>2026-04-12T10:34:16.118Z</time></trkpt><trkpt lat="40.6579913" lon="9.42899"><ele>237.0</ele><time>2026-04-12T10:34:18.138Z</time></trkpt><trkpt lat="40.6579592" lon="9.4289134"><ele>236.99999999999997</ele><time>2026-04-12T10:34:19.11Z</time></trkpt><trkpt lat="40.6579215" lon="9.4288364"><ele>236.99999999999997</ele><time>2026-04-12T10:34:20.112Z</time></trkpt><trkpt lat="40.657886" lon="9.4287608"><ele>237.0</ele><time>2026-04-12T10:34:21.113Z</time></trkpt><trkpt lat="40.6578503" lon="9.4286901"><ele>236.99999999999997</ele><time>2026-04-12T10:34:22.118Z</time></trkpt><trkpt lat="40.6578115" lon="9.4286176"><ele>236.99999999999997</ele><time>2026-04-12T10:34:23.119Z</time></trkpt><trkpt lat="40.6577707" lon="9.4285437"><ele>236.16666666666666</ele><time>2026-04-12T10:34:24.118Z</time></trkpt><trkpt lat="40.6577193" lon="9.4284902"><ele>235.33333333333331</ele><time>2026-04-12T10:34:25.11Z</time></trkpt><trkpt lat="40.657634" lon="9.4284854"><ele>234.5</ele><time>2026-04-12T10:34:27.109Z</time></trkpt><trkpt lat="40.6575458" lon="9.4284907"><ele>233.66666666666666</ele><time>2026-04-12T10:34:30.117Z</time></trkpt><trkpt lat="40.6574603" lon="9.428498"><ele>232.83333333333331</ele><time>2026-04-12T10:34:33.11Z</time></trkpt><trkpt lat="40.6573915" lon="9.4284882"><ele>232.0</ele><time>2026-04-12T10:34:36.13Z</time></trkpt><trkpt lat="40.6572977" lon="9.428531"><ele>231.99999999999997</ele><time>2026-04-12T10:35:54.072Z</time></trkpt><trkpt lat="40.6572308" lon="9.4285508"><ele>232.0</ele><time>2026-04-12T10:35:56.065Z</time></trkpt><trkpt lat="40.6571451" lon="9.4285821"><ele>232.0</ele><time>2026-04-12T10:35:58.07Z</time></trkpt><trkpt lat="40.6570583" lon="9.4286399"><ele>232.0</ele><time>2026-04-12T10:36:00.079Z</time></trkpt><trkpt lat="40.6569702" lon="9.4287456"><ele>231.99999999999997</ele><time>2026-04-12T10:36:02.071Z</time></trkpt><trkpt lat="40.6569229" lon="9.4288074"><ele>232.0</ele><time>2026-04-12T10:36:03.075Z</time></trkpt><trkpt lat="40.6568388" lon="9.4289257"><ele>233.83333333333331</ele><time>2026-04-12T10:36:05.06Z</time></trkpt><trkpt lat="40.6567947" lon="9.428989"><ele>235.66666666666666</ele><time>2026-04-12T10:36:06.067Z</time></trkpt><trkpt lat="40.6567035" lon="9.4291098"><ele>237.5</ele><time>2026-04-12T10:36:08.065Z</time></trkpt><trkpt lat="40.6566564" lon="9.4291802"><ele>239.33333333333331</ele><time>2026-04-12T10:36:09.066Z</time></trkpt><trkpt lat="40.6566173" lon="9.4292604"><ele>241.16666666666666</ele><time>2026-04-12T10:36:10.083Z</time></trkpt><trkpt lat="40.6565787" lon="9.4293478"><ele>243.0</ele><time>2026-04-12T10:36:11.06Z</time></trkpt><trkpt lat="40.6565438" lon="9.4294509"><ele>243.0</ele><time>2026-04-12T10:36:12.056Z</time></trkpt><trkpt lat="40.6565049" lon="9.429555"><ele>243.0</ele><time>2026-04-12T10:36:13.053Z</time></trkpt><trkpt lat="40.656471" lon="9.4296562"><ele>243.0</ele><time>2026-04-12T10:36:14.064Z</time></trkpt><trkpt lat="40.6564397" lon="9.4297524"><ele>243.0</ele><time>2026-04-12T10:36:15.073Z</time></trkpt><trkpt lat="40.6564083" lon="9.4298353"><ele>243.0</ele><time>2026-04-12T10:36:16.06Z</time></trkpt><trkpt lat="40.6563757" lon="9.4299068"><ele>243.0</ele><time>2026-04-12T10:36:17.072Z</time></trkpt><trkpt lat="40.6563452" lon="9.4299837"><ele>241.66666666666666</ele><time>2026-04-12T10:36:18.064Z</time></trkpt><trkpt lat="40.6563106" lon="9.430075"><ele>240.33333333333331</ele><time>2026-04-12T10:36:19.072Z</time></trkpt><trkpt lat="40.6562759" lon="9.4301667"><ele>239.0</ele><time>2026-04-12T10:36:20.066Z</time></trkpt><trkpt lat="40.6562433" lon="9.4302618"><ele>237.66666666666666</ele><time>2026-04-12T10:36:21.062Z</time></trkpt><trkpt lat="40.6562208" lon="9.4303691"><ele>236.33333333333331</ele><time>2026-04-12T10:36:22.054Z</time></trkpt><trkpt lat="40.6562084" lon="9.430485"><ele>235.0</ele><time>2026-04-12T10:36:23.057Z</time></trkpt><trkpt lat="40.6561919" lon="9.4305893"><ele>234.6</ele><time>2026-04-12T10:36:24.059Z</time></trkpt><trkpt lat="40.6561726" lon="9.4306854"><ele>234.2</ele><time>2026-04-12T10:36:25.055Z</time></trkpt><trkpt lat="40.656147" lon="9.430774"><ele>233.8</ele><time>2026-04-12T10:36:26.059Z</time></trkpt><trkpt lat="40.6561613" lon="9.430923"><ele>233.4</ele><time>2026-04-12T10:36:28.067Z</time></trkpt><trkpt lat="40.6562623" lon="9.431021"><ele>233.0</ele><time>2026-04-12T10:36:30.065Z</time></trkpt><trkpt lat="40.6563244" lon="9.4310719"><ele>233.0</ele><time>2026-04-12T10:36:31.056Z</time></trkpt><trkpt lat="40.6563785" lon="9.4311667"><ele>233.0</ele><time>2026-04-12T10:36:32.078Z</time></trkpt><trkpt lat="40.6564135" lon="9.4312883"><ele>233.0</ele><time>2026-04-12T10:36:33.071Z</time></trkpt><trkpt lat="40.6564398" lon="9.4314098"><ele>233.0</ele><time>2026-04-12T10:36:34.06Z</time></trkpt><trkpt lat="40.6564549" lon="9.4315257"><ele>233.0</ele><time>2026-04-12T10:36:35.062Z</time></trkpt><trkpt lat="40.6564549" lon="9.4316465"><ele>233.0</ele><time>2026-04-12T10:36:36.059Z</time></trkpt><trkpt lat="40.6564544" lon="9.4317705"><ele>233.0</ele><time>2026-04-12T10:36:37.06Z</time></trkpt><trkpt lat="40.6564467" lon="9.4319018"><ele>233.0</ele><time>2026-04-12T10:36:38.066Z</time></trkpt><trkpt lat="40.6564395" lon="9.4320399"><ele>233.0</ele><time>2026-04-12T10:36:39.06Z</time></trkpt><trkpt lat="40.656436" lon="9.4321799"><ele>233.0</ele><time>2026-04-12T10:36:40.06Z</time></trkpt><trkpt lat="40.6564284" lon="9.432326"><ele>234.0</ele><time>2026-04-12T10:36:41.056Z</time></trkpt><trkpt lat="40.6564083" lon="9.4324799"><ele>235.0</ele><time>2026-04-12T10:36:42.068Z</time></trkpt><trkpt lat="40.6563854" lon="9.4326376"><ele>236.0</ele><time>2026-04-12T10:36:43.058Z</time></trkpt><trkpt lat="40.6563597" lon="9.4327946"><ele>237.0</ele><time>2026-04-12T10:36:44.06Z</time></trkpt><trkpt lat="40.6563303" lon="9.4329464"><ele>235.5</ele><time>2026-04-12T10:36:45.066Z</time></trkpt><trkpt lat="40.656302" lon="9.4330989"><ele>234.0</ele><time>2026-04-12T10:36:46.065Z</time></trkpt><trkpt lat="40.6562723" lon="9.4332502"><ele>232.5</ele><time>2026-04-12T10:36:47.064Z</time></trkpt><trkpt lat="40.6562392" lon="9.4333984"><ele>231.0</ele><time>2026-04-12T10:36:48.062Z</time></trkpt><trkpt lat="40.6562076" lon="9.4335459"><ele>231.0</ele><time>2026-04-12T10:36:49.059Z</time></trkpt><trkpt lat="40.6561669" lon="9.4336917"><ele>231.0</ele><time>2026-04-12T10:36:50.057Z</time></trkpt><trkpt lat="40.6561193" lon="9.433838"><ele>231.0</ele><time>2026-04-12T10:36:51.054Z</time></trkpt><trkpt lat="40.6560777" lon="9.4339866"><ele>231.0</ele><time>2026-04-12T10:36:52.06Z</time></trkpt><trkpt lat="40.6560374" lon="9.4341295"><ele>236.0</ele><time>2026-04-12T10:36:53.046Z</time></trkpt><trkpt lat="40.655999" lon="9.4342673"><ele>241.00000000000003</ele><time>2026-04-12T10:36:54.044Z</time></trkpt><trkpt lat="40.6559541" lon="9.4344033"><ele>246.00000000000003</ele><time>2026-04-12T10:36:55.05Z</time></trkpt><trkpt lat="40.6559047" lon="9.4345326"><ele>251.0</ele><time>2026-04-12T10:36:56.047Z</time></trkpt><trkpt lat="40.6558527" lon="9.4346502"><ele>256.0</ele><time>2026-04-12T10:36:57.046Z</time></trkpt><trkpt lat="40.6558008" lon="9.4347351"><ele>255.99999999999997</ele><time>2026-04-12T10:36:58.04Z</time></trkpt><trkpt lat="40.65574" lon="9.4347978"><ele>256.0</ele><time>2026-04-12T10:36:59.045Z</time></trkpt><trkpt lat="40.6556701" lon="9.4348425"><ele>256.0</ele><time>2026-04-12T10:37:00.048Z</time></trkpt><trkpt lat="40.6555867" lon="9.434874"><ele>256.0</ele><time>2026-04-12T10:37:01.053Z</time></trkpt><trkpt lat="40.6555052" lon="9.4349234"><ele>255.99999999999997</ele><time>2026-04-12T10:37:02.045Z</time></trkpt><trkpt lat="40.6554353" lon="9.4349977"><ele>256.0</ele><time>2026-04-12T10:37:03.052Z</time></trkpt><trkpt lat="40.6553678" lon="9.4350979"><ele>256.0</ele><time>2026-04-12T10:37:04.041Z</time></trkpt><trkpt lat="40.6553123" lon="9.4352046"><ele>256.0</ele><time>2026-04-12T10:37:05.042Z</time></trkpt><trkpt lat="40.6552753" lon="9.4353193"><ele>256.0</ele><time>2026-04-12T10:37:06.04Z</time></trkpt><trkpt lat="40.655243" lon="9.4354465"><ele>256.0</ele><time>2026-04-12T10:37:07.039Z</time></trkpt><trkpt lat="40.6552005" lon="9.435579"><ele>256.0</ele><time>2026-04-12T10:37:08.056Z</time></trkpt><trkpt lat="40.6551518" lon="9.435704"><ele>260.6</ele><time>2026-04-12T10:37:09.04Z</time></trkpt><trkpt lat="40.6551175" lon="9.4358303"><ele>265.20000000000005</ele><time>2026-04-12T10:37:10.037Z</time></trkpt><trkpt lat="40.6551011" lon="9.4359642"><ele>269.79999999999995</ele><time>2026-04-12T10:37:11.039Z</time></trkpt><trkpt lat="40.6550821" lon="9.4360996"><ele>274.4</ele><time>2026-04-12T10:37:12.041Z</time></trkpt><trkpt lat="40.6550524" lon="9.4362434"><ele>279.0</ele><time>2026-04-12T10:37:13.156Z</time></trkpt><trkpt lat="40.6550066" lon="9.4363852"><ele>279.75</ele><time>2026-04-12T10:37:14.139Z</time></trkpt><trkpt lat="40.6549555" lon="9.4365307"><ele>280.5</ele><time>2026-04-12T10:37:15.129Z</time></trkpt><trkpt lat="40.6549129" lon="9.4366752"><ele>281.25</ele><time>2026-04-12T10:37:16.137Z</time></trkpt><trkpt lat="40.6548836" lon="9.4368289"><ele>282.0</ele><time>2026-04-12T10:37:17.042Z</time></trkpt><trkpt lat="40.6548713" lon="9.4369836"><ele>282.0</ele><time>2026-04-12T10:37:18.038Z</time></trkpt><trkpt lat="40.654848" lon="9.4371043"><ele>282.0</ele><time>2026-04-12T10:37:19.14Z</time></trkpt><trkpt lat="40.6548051" lon="9.4371855"><ele>282.0</ele><time>2026-04-12T10:37:20.127Z</time></trkpt><trkpt lat="40.6547423" lon="9.4372424"><ele>282.0</ele><time>2026-04-12T10:37:21.136Z</time></trkpt><trkpt lat="40.6546667" lon="9.4372817"><ele>282.0</ele><time>2026-04-12T10:37:22.151Z</time></trkpt><trkpt lat="40.654588" lon="9.4373192"><ele>282.0</ele><time>2026-04-12T10:37:23.124Z</time></trkpt><trkpt lat="40.654501" lon="9.4373729"><ele>285.4</ele><time>2026-04-12T10:37:24.128Z</time></trkpt><trkpt lat="40.6544189" lon="9.4374445"><ele>288.79999999999995</ele><time>2026-04-12T10:37:25.128Z</time></trkpt><trkpt lat="40.6543415" lon="9.4375298"><ele>292.2</ele><time>2026-04-12T10:37:26.125Z</time></trkpt><trkpt lat="40.6542937" lon="9.4376124"><ele>295.59999999999997</ele><time>2026-04-12T10:37:27.138Z</time></trkpt><trkpt lat="40.6542936" lon="9.4377574"><ele>299.0</ele><time>2026-04-12T10:37:29.124Z</time></trkpt><trkpt lat="40.6543709" lon="9.4378811"><ele>299.0</ele><time>2026-04-12T10:37:31.14Z</time></trkpt><trkpt lat="40.6543552" lon="9.4379786"><ele>299.0</ele><time>2026-04-12T10:37:33.134Z</time></trkpt><trkpt lat="40.6542929" lon="9.4379999"><ele>299.0</ele><time>2026-04-12T10:37:35.128Z</time></trkpt><trkpt lat="40.6541851" lon="9.437971"><ele>299.0</ele><time>2026-04-12T10:37:37.141Z</time></trkpt><trkpt lat="40.6541156" lon="9.4379549"><ele>299.0</ele><time>2026-04-12T10:37:38.136Z</time></trkpt><trkpt lat="40.6540365" lon="9.4379366"><ele>299.0</ele><time>2026-04-12T10:37:39.123Z</time></trkpt><trkpt lat="40.6539503" lon="9.4379352"><ele>299.0</ele><time>2026-04-12T10:37:40.124Z</time></trkpt><trkpt lat="40.6538766" lon="9.4379725"><ele>299.0</ele><time>2026-04-12T10:37:41.147Z</time></trkpt><trkpt lat="40.6538165" lon="9.4380298"><ele>299.0</ele><time>2026-04-12T10:37:42.12Z</time></trkpt><trkpt lat="40.6537446" lon="9.438079"><ele>299.0</ele><time>2026-04-12T10:37:43.125Z</time></trkpt><trkpt lat="40.6536658" lon="9.4381053"><ele>299.0</ele><time>2026-04-12T10:37:44.131Z</time></trkpt><trkpt lat="40.6535902" lon="9.4381033"><ele>299.0</ele><time>2026-04-12T10:37:45.132Z</time></trkpt><trkpt lat="40.6535313" lon="9.4380701"><ele>299.0</ele><time>2026-04-12T10:37:47.123Z</time></trkpt><trkpt lat="40.6535677" lon="9.4379836"><ele>299.0</ele><time>2026-04-12T10:37:50.12Z</time></trkpt><trkpt lat="40.6536314" lon="9.4378791"><ele>299.0</ele><time>2026-04-12T10:37:52.146Z</time></trkpt><trkpt lat="40.6536725" lon="9.4378094"><ele>299.0</ele><time>2026-04-12T10:37:53.125Z</time></trkpt><trkpt lat="40.653714" lon="9.4377295"><ele>299.0</ele><time>2026-04-12T10:37:54.124Z</time></trkpt><trkpt lat="40.6537473" lon="9.4376335"><ele>299.0</ele><time>2026-04-12T10:37:55.136Z</time></trkpt><trkpt lat="40.6537703" lon="9.4375245"><ele>299.0</ele><time>2026-04-12T10:37:56.152Z</time></trkpt><trkpt lat="40.6537805" lon="9.4374069"><ele>299.0</ele><time>2026-04-12T10:37:57.126Z</time></trkpt><trkpt lat="40.6537853" lon="9.4372849"><ele>299.0</ele><time>2026-04-12T10:37:58.14Z</time></trkpt><trkpt lat="40.653782" lon="9.4371663"><ele>299.0</ele><time>2026-04-12T10:37:59.129Z</time></trkpt><trkpt lat="40.6537659" lon="9.4370458"><ele>299.0</ele><time>2026-04-12T10:38:00.124Z</time></trkpt><trkpt lat="40.6537405" lon="9.4369218"><ele>298.8</ele><time>2026-04-12T10:38:01.14Z</time></trkpt><trkpt lat="40.6537227" lon="9.4367893"><ele>298.59999999999997</ele><time>2026-04-12T10:38:02.124Z</time></trkpt><trkpt lat="40.6537059" lon="9.4366555"><ele>298.4</ele><time>2026-04-12T10:38:03.14Z</time></trkpt><trkpt lat="40.6536846" lon="9.4365191"><ele>298.2</ele><time>2026-04-12T10:38:04.143Z</time></trkpt><trkpt lat="40.6536658" lon="9.4363888"><ele>298.0</ele><time>2026-04-12T10:38:05.124Z</time></trkpt><trkpt lat="40.6536455" lon="9.4362693"><ele>299.8</ele><time>2026-04-12T10:38:06.136Z</time></trkpt><trkpt lat="40.65363" lon="9.436167"><ele>301.6</ele><time>2026-04-12T10:38:07.128Z</time></trkpt><trkpt lat="40.6536218" lon="9.4360733"><ele>303.4</ele><time>2026-04-12T10:38:08.12Z</time></trkpt><trkpt lat="40.6535862" lon="9.4359644"><ele>305.2</ele><time>2026-04-12T10:38:10.118Z</time></trkpt><trkpt lat="40.6534916" lon="9.4359876"><ele>307.0</ele><time>2026-04-12T10:38:12.114Z</time></trkpt><trkpt lat="40.6534438" lon="9.4361395"><ele>311.4</ele><time>2026-04-12T10:38:14.108Z</time></trkpt><trkpt lat="40.6534404" lon="9.436238"><ele>315.79999999999995</ele><time>2026-04-12T10:38:15.105Z</time></trkpt><trkpt lat="40.6534379" lon="9.4363479"><ele>320.2</ele><time>2026-04-12T10:38:16.102Z</time></trkpt><trkpt lat="40.6534303" lon="9.436471"><ele>324.59999999999997</ele><time>2026-04-12T10:38:17.101Z</time></trkpt><trkpt lat="40.6534107" lon="9.4366074"><ele>329.0</ele><time>2026-04-12T10:38:18.103Z</time></trkpt><trkpt lat="40.6533887" lon="9.4367299"><ele>329.0</ele><time>2026-04-12T10:38:19.096Z</time></trkpt><trkpt lat="40.6533606" lon="9.4368331"><ele>329.0</ele><time>2026-04-12T10:38:20.102Z</time></trkpt><trkpt lat="40.6533123" lon="9.4369312"><ele>329.0</ele><time>2026-04-12T10:38:21.108Z</time></trkpt><trkpt lat="40.653246" lon="9.4370241"><ele>329.0</ele><time>2026-04-12T10:38:22.101Z</time></trkpt><trkpt lat="40.653166" lon="9.4370967"><ele>329.0</ele><time>2026-04-12T10:38:23.092Z</time></trkpt><trkpt lat="40.6530805" lon="9.4371391"><ele>328.0</ele><time>2026-04-12T10:38:24.093Z</time></trkpt><trkpt lat="40.6529909" lon="9.437149"><ele>327.0</ele><time>2026-04-12T10:38:25.089Z</time></trkpt><trkpt lat="40.6528888" lon="9.4371431"><ele>326.0</ele><time>2026-04-12T10:38:26.094Z</time></trkpt><trkpt lat="40.6527802" lon="9.4371517"><ele>325.0</ele><time>2026-04-12T10:38:27.092Z</time></trkpt><trkpt lat="40.652667" lon="9.4371627"><ele>324.0</ele><time>2026-04-12T10:38:28.087Z</time></trkpt><trkpt lat="40.6525649" lon="9.4371711"><ele>324.0</ele><time>2026-04-12T10:38:29.092Z</time></trkpt><trkpt lat="40.6524689" lon="9.4371606"><ele>324.0</ele><time>2026-04-12T10:38:30.089Z</time></trkpt><trkpt lat="40.6523813" lon="9.437137"><ele>324.0</ele><time>2026-04-12T10:38:31.092Z</time></trkpt><trkpt lat="40.652302" lon="9.4371231"><ele>324.0</ele><time>2026-04-12T10:38:32.095Z</time></trkpt><trkpt lat="40.6522261" lon="9.4371779"><ele>324.0</ele><time>2026-04-12T10:38:33.086Z</time></trkpt><trkpt lat="40.6521588" lon="9.4372557"><ele>324.0</ele><time>2026-04-12T10:38:34.095Z</time></trkpt><trkpt lat="40.6520847" lon="9.4373254"><ele>324.0</ele><time>2026-04-12T10:38:35.089Z</time></trkpt><trkpt lat="40.651996" lon="9.437381"><ele>324.0</ele><time>2026-04-12T10:38:36.094Z</time></trkpt><trkpt lat="40.6519" lon="9.4374227"><ele>324.0</ele><time>2026-04-12T10:38:37.093Z</time></trkpt><trkpt lat="40.6517985" lon="9.4374546"><ele>324.0</ele><time>2026-04-12T10:38:38.099Z</time></trkpt><trkpt lat="40.6517033" lon="9.437492"><ele>324.0</ele><time>2026-04-12T10:38:39.094Z</time></trkpt><trkpt lat="40.6516092" lon="9.4375188"><ele>328.2</ele><time>2026-04-12T10:38:40.102Z</time></trkpt><trkpt lat="40.6515098" lon="9.4375389"><ele>332.4</ele><time>2026-04-12T10:38:41.089Z</time></trkpt><trkpt lat="40.6514084" lon="9.4375558"><ele>336.6</ele><time>2026-04-12T10:38:42.102Z</time></trkpt><trkpt lat="40.6513005" lon="9.4375766"><ele>340.8</ele><time>2026-04-12T10:38:43.095Z</time></trkpt><trkpt lat="40.651201" lon="9.4376055"><ele>345.0</ele><time>2026-04-12T10:38:44.087Z</time></trkpt><trkpt lat="40.6511007" lon="9.4376236"><ele>349.6</ele><time>2026-04-12T10:38:45.092Z</time></trkpt><trkpt lat="40.651" lon="9.4376327"><ele>354.2</ele><time>2026-04-12T10:38:46.084Z</time></trkpt><trkpt lat="40.650894" lon="9.4376329"><ele>358.79999999999995</ele><time>2026-04-12T10:38:47.085Z</time></trkpt><trkpt lat="40.6507869" lon="9.4376352"><ele>363.4</ele><time>2026-04-12T10:38:48.095Z</time></trkpt><trkpt lat="40.6506846" lon="9.4376403"><ele>368.0</ele><time>2026-04-12T10:38:49.091Z</time></trkpt><trkpt lat="40.6505835" lon="9.4376464"><ele>368.0</ele><time>2026-04-12T10:38:50.108Z</time></trkpt><trkpt lat="40.6504841" lon="9.4376467"><ele>368.0</ele><time>2026-04-12T10:38:51.094Z</time></trkpt><trkpt lat="40.6503938" lon="9.4376081"><ele>368.0</ele><time>2026-04-12T10:38:52.09Z</time></trkpt><trkpt lat="40.6503112" lon="9.4375446"><ele>368.0</ele><time>2026-04-12T10:38:53.098Z</time></trkpt><trkpt lat="40.6502246" lon="9.4374938"><ele>368.0</ele><time>2026-04-12T10:38:54.099Z</time></trkpt><trkpt lat="40.6501225" lon="9.437457"><ele>369.4</ele><time>2026-04-12T10:38:55.079Z</time></trkpt><trkpt lat="40.6500183" lon="9.4374368"><ele>370.79999999999995</ele><time>2026-04-12T10:38:56.085Z</time></trkpt><trkpt lat="40.6499099" lon="9.4374225"><ele>372.2</ele><time>2026-04-12T10:38:57.09Z</time></trkpt><trkpt lat="40.649804" lon="9.4374191"><ele>373.6</ele><time>2026-04-12T10:38:58.085Z</time></trkpt><trkpt lat="40.6497076" lon="9.4374138"><ele>375.0</ele><time>2026-04-12T10:38:59.084Z</time></trkpt><trkpt lat="40.649623" lon="9.4374269"><ele>375.0</ele><time>2026-04-12T10:39:00.083Z</time></trkpt><trkpt lat="40.6495256" lon="9.4374529"><ele>375.0</ele><time>2026-04-12T10:39:01.084Z</time></trkpt><trkpt lat="40.6494224" lon="9.4374897"><ele>375.0</ele><time>2026-04-12T10:39:02.091Z</time></trkpt><trkpt lat="40.6493102" lon="9.4375222"><ele>375.0</ele><time>2026-04-12T10:39:03.086Z</time></trkpt><trkpt lat="40.6491964" lon="9.4375483"><ele>375.0</ele><time>2026-04-12T10:39:04.096Z</time></trkpt><trkpt lat="40.6490779" lon="9.4375693"><ele>378.2</ele><time>2026-04-12T10:39:05.092Z</time></trkpt><trkpt lat="40.6489703" lon="9.437586"><ele>381.4</ele><time>2026-04-12T10:39:06.083Z</time></trkpt><trkpt lat="40.6488713" lon="9.4376286"><ele>384.6</ele><time>2026-04-12T10:39:07.078Z</time></trkpt><trkpt lat="40.6487807" lon="9.4377058"><ele>387.8</ele><time>2026-04-12T10:39:08.094Z</time></trkpt><trkpt lat="40.6486868" lon="9.4377718"><ele>391.0</ele><time>2026-04-12T10:39:09.092Z</time></trkpt><trkpt lat="40.6485932" lon="9.4378259"><ele>392.00000000000006</ele><time>2026-04-12T10:39:10.092Z</time></trkpt><trkpt lat="40.6485138" lon="9.437866"><ele>393.0</ele><time>2026-04-12T10:39:11.087Z</time></trkpt><trkpt lat="40.6484471" lon="9.4379076"><ele>394.0</ele><time>2026-04-12T10:39:12.081Z</time></trkpt><trkpt lat="40.6483903" lon="9.4379551"><ele>395.0</ele><time>2026-04-12T10:39:13.082Z</time></trkpt><trkpt lat="40.6483279" lon="9.4380184"><ele>396.00000000000006</ele><time>2026-04-12T10:39:14.084Z</time></trkpt><trkpt lat="40.6482803" lon="9.4380952"><ele>397.0</ele><time>2026-04-12T10:39:15.08Z</time></trkpt><trkpt lat="40.6482598" lon="9.4381886"><ele>397.00000000000006</ele><time>2026-04-12T10:39:16.093Z</time></trkpt><trkpt lat="40.6482637" lon="9.4382825"><ele>397.0</ele><time>2026-04-12T10:39:17.084Z</time></trkpt><trkpt lat="40.6483411" lon="9.4383872"><ele>397.0</ele><time>2026-04-12T10:39:19.085Z</time></trkpt><trkpt lat="40.6483985" lon="9.4384294"><ele>397.0</ele><time>2026-04-12T10:39:20.074Z</time></trkpt><trkpt lat="40.6484684" lon="9.4384709"><ele>397.00000000000006</ele><time>2026-04-12T10:39:21.079Z</time></trkpt><trkpt lat="40.6485409" lon="9.438516"><ele>397.0</ele><time>2026-04-12T10:39:22.094Z</time></trkpt><trkpt lat="40.6486198" lon="9.4385568"><ele>397.0</ele><time>2026-04-12T10:39:23.075Z</time></trkpt><trkpt lat="40.6487062" lon="9.4385945"><ele>397.0</ele><time>2026-04-12T10:39:24.078Z</time></trkpt><trkpt lat="40.6487874" lon="9.4386397"><ele>397.0</ele><time>2026-04-12T10:39:25.083Z</time></trkpt><trkpt lat="40.6488706" lon="9.438693"><ele>397.0</ele><time>2026-04-12T10:39:26.074Z</time></trkpt><trkpt lat="40.6489472" lon="9.4387555"><ele>397.0</ele><time>2026-04-12T10:39:27.083Z</time></trkpt><trkpt lat="40.6490205" lon="9.4388274"><ele>397.0</ele><time>2026-04-12T10:39:28.1Z</time></trkpt><trkpt lat="40.6490815" lon="9.4389267"><ele>397.0</ele><time>2026-04-12T10:39:29.088Z</time></trkpt><trkpt lat="40.6491347" lon="9.4390348"><ele>397.0</ele><time>2026-04-12T10:39:30.082Z</time></trkpt><trkpt lat="40.6491889" lon="9.4391434"><ele>397.0</ele><time>2026-04-12T10:39:31.071Z</time></trkpt><trkpt lat="40.6492271" lon="9.4392505"><ele>397.0</ele><time>2026-04-12T10:39:32.073Z</time></trkpt><trkpt lat="40.6492388" lon="9.439375"><ele>397.0</ele><time>2026-04-12T10:39:33.078Z</time></trkpt><trkpt lat="40.6492382" lon="9.4395036"><ele>397.0</ele><time>2026-04-12T10:39:34.071Z</time></trkpt><trkpt lat="40.6492266" lon="9.4396201"><ele>397.0</ele><time>2026-04-12T10:39:35.095Z</time></trkpt><trkpt lat="40.6492024" lon="9.439733"><ele>397.0</ele><time>2026-04-12T10:39:36.111Z</time></trkpt><trkpt lat="40.6491543" lon="9.4398496"><ele>397.0</ele><time>2026-04-12T10:39:37.069Z</time></trkpt><trkpt lat="40.6491032" lon="9.4399636"><ele>397.00000000000006</ele><time>2026-04-12T10:39:38.164Z</time></trkpt><trkpt lat="40.64906" lon="9.4400449"><ele>397.0</ele><time>2026-04-12T10:39:39.084Z</time></trkpt><trkpt lat="40.6489819" lon="9.4400575"><ele>397.0</ele><time>2026-04-12T10:39:41.086Z</time></trkpt><trkpt lat="40.6489298" lon="9.4399729"><ele>397.0</ele><time>2026-04-12T10:39:43.084Z</time></trkpt><trkpt lat="40.648922" lon="9.4398033"><ele>397.00000000000006</ele><time>2026-04-12T10:39:45.074Z</time></trkpt><trkpt lat="40.6489089" lon="9.4397023"><ele>397.0</ele><time>2026-04-12T10:39:46.081Z</time></trkpt><trkpt lat="40.6488695" lon="9.4396033"><ele>397.00000000000006</ele><time>2026-04-12T10:39:47.078Z</time></trkpt><trkpt lat="40.648819" lon="9.4395153"><ele>397.0</ele><time>2026-04-12T10:39:48.068Z</time></trkpt><trkpt lat="40.6487578" lon="9.4394502"><ele>397.0</ele><time>2026-04-12T10:39:49.076Z</time></trkpt><trkpt lat="40.6486743" lon="9.4394141"><ele>397.0</ele><time>2026-04-12T10:39:50.071Z</time></trkpt><trkpt lat="40.6485875" lon="9.4393969"><ele>397.00000000000006</ele><time>2026-04-12T10:39:51.083Z</time></trkpt><trkpt lat="40.6484916" lon="9.4393886"><ele>397.0</ele><time>2026-04-12T10:39:52.081Z</time></trkpt><trkpt lat="40.6483945" lon="9.4393886"><ele>401.0</ele><time>2026-04-12T10:39:53.072Z</time></trkpt><trkpt lat="40.6482944" lon="9.4393894"><ele>405.0</ele><time>2026-04-12T10:39:54.079Z</time></trkpt><trkpt lat="40.6481951" lon="9.4393903"><ele>409.0</ele><time>2026-04-12T10:39:55.085Z</time></trkpt><trkpt lat="40.6480991" lon="9.4393854"><ele>413.0</ele><time>2026-04-12T10:39:56.071Z</time></trkpt><trkpt lat="40.6480111" lon="9.4393725"><ele>417.0</ele><time>2026-04-12T10:39:57.088Z</time></trkpt><trkpt lat="40.6479217" lon="9.4393591"><ele>417.0</ele><time>2026-04-12T10:39:58.095Z</time></trkpt><trkpt lat="40.6478471" lon="9.4393524"><ele>417.0</ele><time>2026-04-12T10:39:59.093Z</time></trkpt><trkpt lat="40.647783" lon="9.4393523"><ele>417.0</ele><time>2026-04-12T10:40:00.073Z</time></trkpt><trkpt lat="40.6477301" lon="9.4394357"><ele>417.0</ele><time>2026-04-12T10:40:02.09Z</time></trkpt><trkpt lat="40.6477892" lon="9.4395334"><ele>417.0</ele><time>2026-04-12T10:40:04.081Z</time></trkpt><trkpt lat="40.6478431" lon="9.4395784"><ele>417.0</ele><time>2026-04-12T10:40:05.077Z</time></trkpt><trkpt lat="40.6479023" lon="9.4396224"><ele>417.0</ele><time>2026-04-12T10:40:06.078Z</time></trkpt><trkpt lat="40.6479615" lon="9.4396663"><ele>420.40000000000003</ele><time>2026-04-12T10:40:07.077Z</time></trkpt><trkpt lat="40.6480118" lon="9.4397203"><ele>423.8</ele><time>2026-04-12T10:40:08.092Z</time></trkpt><trkpt lat="40.6480507" lon="9.4398299"><ele>427.2</ele><time>2026-04-12T10:40:10.079Z</time></trkpt><trkpt lat="40.647973" lon="9.4398998"><ele>430.6</ele><time>2026-04-12T10:40:12.082Z</time></trkpt><trkpt lat="40.6478483" lon="9.4398839"><ele>434.0</ele><time>2026-04-12T10:40:14.074Z</time></trkpt><trkpt lat="40.6477736" lon="9.4398947"><ele>437.1428571428571</ele><time>2026-04-12T10:40:15.077Z</time></trkpt><trkpt lat="40.6477026" lon="9.4399154"><ele>440.2857142857143</ele><time>2026-04-12T10:40:16.071Z</time></trkpt><trkpt lat="40.647631" lon="9.4399511"><ele>443.42857142857144</ele><time>2026-04-12T10:40:17.076Z</time></trkpt><trkpt lat="40.6475605" lon="9.4399733"><ele>446.57142857142856</ele><time>2026-04-12T10:40:18.075Z</time></trkpt><trkpt lat="40.6474935" lon="9.4399823"><ele>449.71428571428567</ele><time>2026-04-12T10:40:19.074Z</time></trkpt><trkpt lat="40.6474213" lon="9.4399795"><ele>452.85714285714283</ele><time>2026-04-12T10:40:20.073Z</time></trkpt><trkpt lat="40.6473517" lon="9.4399432"><ele>456.0</ele><time>2026-04-12T10:40:21.079Z</time></trkpt><trkpt lat="40.6472816" lon="9.4398814"><ele>456.0</ele><time>2026-04-12T10:40:22.076Z</time></trkpt><trkpt lat="40.6472235" lon="9.4397904"><ele>456.0</ele><time>2026-04-12T10:40:23.071Z</time></trkpt><trkpt lat="40.6471697" lon="9.4396809"><ele>456.0</ele><time>2026-04-12T10:40:24.076Z</time></trkpt><trkpt lat="40.6471137" lon="9.4395756"><ele>456.0</ele><time>2026-04-12T10:40:25.077Z</time></trkpt><trkpt lat="40.6470443" lon="9.4394859"><ele>456.0</ele><time>2026-04-12T10:40:26.087Z</time></trkpt><trkpt lat="40.646964" lon="9.4393967"><ele>459.4</ele><time>2026-04-12T10:40:27.077Z</time></trkpt><trkpt lat="40.6468841" lon="9.4393038"><ele>462.8</ele><time>2026-04-12T10:40:28.08Z</time></trkpt><trkpt lat="40.6468032" lon="9.439214"><ele>466.19999999999993</ele><time>2026-04-12T10:40:29.076Z</time></trkpt><trkpt lat="40.6467238" lon="9.4391263"><ele>469.59999999999997</ele><time>2026-04-12T10:40:30.07Z</time></trkpt><trkpt lat="40.6466366" lon="9.4390419"><ele>473.0</ele><time>2026-04-12T10:40:31.073Z</time></trkpt><trkpt lat="40.6465553" lon="9.438952"><ele>473.0</ele><time>2026-04-12T10:40:32.075Z</time></trkpt><trkpt lat="40.646477" lon="9.4388581"><ele>472.99999999999994</ele><time>2026-04-12T10:40:33.066Z</time></trkpt><trkpt lat="40.6464024" lon="9.4387615"><ele>472.99999999999994</ele><time>2026-04-12T10:40:34.076Z</time></trkpt><trkpt lat="40.6463307" lon="9.4386662"><ele>473.0</ele><time>2026-04-12T10:40:35.081Z</time></trkpt><trkpt lat="40.6462633" lon="9.4385624"><ele>473.0</ele><time>2026-04-12T10:40:36.064Z</time></trkpt><trkpt lat="40.6462019" lon="9.4384501"><ele>470.2</ele><time>2026-04-12T10:40:37.074Z</time></trkpt><trkpt lat="40.6461451" lon="9.438331"><ele>467.4</ele><time>2026-04-12T10:40:38.069Z</time></trkpt><trkpt lat="40.6460941" lon="9.4382044"><ele>464.59999999999997</ele><time>2026-04-12T10:40:39.063Z</time></trkpt><trkpt lat="40.646045" lon="9.4380707"><ele>461.79999999999995</ele><time>2026-04-12T10:40:40.065Z</time></trkpt><trkpt lat="40.6459919" lon="9.4379427"><ele>459.0</ele><time>2026-04-12T10:40:41.066Z</time></trkpt><trkpt lat="40.6459366" lon="9.4378172"><ele>468.0</ele><time>2026-04-12T10:40:42.066Z</time></trkpt><trkpt lat="40.6458834" lon="9.437684"><ele>477.0</ele><time>2026-04-12T10:40:43.068Z</time></trkpt><trkpt lat="40.6458291" lon="9.4375482"><ele>486.0</ele><time>2026-04-12T10:40:44.073Z</time></trkpt><trkpt lat="40.6457729" lon="9.4374167"><ele>495.0</ele><time>2026-04-12T10:40:45.069Z</time></trkpt><trkpt lat="40.6457033" lon="9.4372991"><ele>495.0</ele><time>2026-04-12T10:40:46.065Z</time></trkpt><trkpt lat="40.6456236" lon="9.4371798"><ele>495.0</ele><time>2026-04-12T10:40:47.066Z</time></trkpt><trkpt lat="40.6455434" lon="9.4370711"><ele>495.0</ele><time>2026-04-12T10:40:48.064Z</time></trkpt><trkpt lat="40.645467" lon="9.4369605"><ele>495.0</ele><time>2026-04-12T10:40:49.06Z</time></trkpt><trkpt lat="40.6453976" lon="9.4368495"><ele>495.5</ele><time>2026-04-12T10:40:50.087Z</time></trkpt><trkpt lat="40.6453319" lon="9.4367521"><ele>496.0</ele><time>2026-04-12T10:40:51.069Z</time></trkpt><trkpt lat="40.6452683" lon="9.4366872"><ele>496.5</ele><time>2026-04-12T10:40:52.075Z</time></trkpt><trkpt lat="40.6451947" lon="9.436647"><ele>497.0</ele><time>2026-04-12T10:40:53.071Z</time></trkpt><trkpt lat="40.645117" lon="9.4366094"><ele>497.5</ele><time>2026-04-12T10:40:54.104Z</time></trkpt><trkpt lat="40.6450501" lon="9.4365606"><ele>498.0</ele><time>2026-04-12T10:40:55.066Z</time></trkpt><trkpt lat="40.6450104" lon="9.4364807"><ele>501.4</ele><time>2026-04-12T10:40:56.069Z</time></trkpt><trkpt lat="40.6449752" lon="9.4363898"><ele>504.79999999999995</ele><time>2026-04-12T10:40:57.069Z</time></trkpt><trkpt lat="40.6449476" lon="9.436278"><ele>508.2</ele><time>2026-04-12T10:40:58.062Z</time></trkpt><trkpt lat="40.6449227" lon="9.4361484"><ele>511.6</ele><time>2026-04-12T10:40:59.113Z</time></trkpt><trkpt lat="40.644901" lon="9.4360096"><ele>515.0</ele><time>2026-04-12T10:41:00.068Z</time></trkpt><trkpt lat="40.6448891" lon="9.4358713"><ele>515.0</ele><time>2026-04-12T10:41:01.067Z</time></trkpt><trkpt lat="40.644886" lon="9.4357372"><ele>515.0</ele><time>2026-04-12T10:41:02.068Z</time></trkpt><trkpt lat="40.6448825" lon="9.435605"><ele>515.0</ele><time>2026-04-12T10:41:03.073Z</time></trkpt><trkpt lat="40.64488" lon="9.4354766"><ele>515.0</ele><time>2026-04-12T10:41:04.067Z</time></trkpt><trkpt lat="40.644876" lon="9.435347"><ele>515.0</ele><time>2026-04-12T10:41:05.075Z</time></trkpt><trkpt lat="40.6448725" lon="9.4352123"><ele>515.0</ele><time>2026-04-12T10:41:06.068Z</time></trkpt><trkpt lat="40.6448672" lon="9.4350797"><ele>515.0</ele><time>2026-04-12T10:41:07.074Z</time></trkpt><trkpt lat="40.6448652" lon="9.434955"><ele>515.0</ele><time>2026-04-12T10:41:08.061Z</time></trkpt><trkpt lat="40.6448587" lon="9.4348321"><ele>515.0</ele><time>2026-04-12T10:41:09.062Z</time></trkpt><trkpt lat="40.6448535" lon="9.4347126"><ele>515.0</ele><time>2026-04-12T10:41:10.065Z</time></trkpt><trkpt lat="40.644852" lon="9.4346"><ele>516.3333333333333</ele><time>2026-04-12T10:41:11.062Z</time></trkpt><trkpt lat="40.644851" lon="9.4344837"><ele>517.6666666666666</ele><time>2026-04-12T10:41:12.077Z</time></trkpt><trkpt lat="40.6448518" lon="9.4343639"><ele>519.0</ele><time>2026-04-12T10:41:13.062Z</time></trkpt><trkpt lat="40.6448512" lon="9.4342504"><ele>520.3333333333334</ele><time>2026-04-12T10:41:14.065Z</time></trkpt><trkpt lat="40.6448512" lon="9.4341457"><ele>521.6666666666667</ele><time>2026-04-12T10:41:15.075Z</time></trkpt><trkpt lat="40.6448518" lon="9.4340517"><ele>523.0</ele><time>2026-04-12T10:41:16.074Z</time></trkpt><trkpt lat="40.6448821" lon="9.4339134"><ele>523.0</ele><time>2026-04-12T10:41:18.066Z</time></trkpt><trkpt lat="40.6449789" lon="9.4338467"><ele>523.0</ele><time>2026-04-12T10:41:20.065Z</time></trkpt><trkpt lat="40.6450462" lon="9.4338464"><ele>523.0</ele><time>2026-04-12T10:41:21.089Z</time></trkpt><trkpt lat="40.6451202" lon="9.4338566"><ele>523.0</ele><time>2026-04-12T10:41:22.069Z</time></trkpt><trkpt lat="40.6452096" lon="9.4338619"><ele>523.0</ele><time>2026-04-12T10:41:23.058Z</time></trkpt><trkpt lat="40.6453046" lon="9.4338619"><ele>523.0</ele><time>2026-04-12T10:41:24.064Z</time></trkpt><trkpt lat="40.6453973" lon="9.4338498"><ele>523.3333333333334</ele><time>2026-04-12T10:41:25.058Z</time></trkpt><trkpt lat="40.6454746" lon="9.4338205"><ele>523.6666666666667</ele><time>2026-04-12T10:41:26.07Z</time></trkpt><trkpt lat="40.6455337" lon="9.4337707"><ele>524.0</ele><time>2026-04-12T10:41:27.078Z</time></trkpt><trkpt lat="40.6456026" lon="9.4336304"><ele>524.3333333333334</ele><time>2026-04-12T10:41:29.081Z</time></trkpt><trkpt lat="40.6456337" lon="9.4335477"><ele>524.6666666666666</ele><time>2026-04-12T10:41:30.054Z</time></trkpt><trkpt lat="40.645662" lon="9.4334558"><ele>525.0</ele><time>2026-04-12T10:41:31.054Z</time></trkpt><trkpt lat="40.6456737" lon="9.433357"><ele>526.1666666666666</ele><time>2026-04-12T10:41:32.074Z</time></trkpt><trkpt lat="40.6456854" lon="9.4332496"><ele>527.3333333333334</ele><time>2026-04-12T10:41:33.052Z</time></trkpt><trkpt lat="40.6457046" lon="9.4331403"><ele>528.5</ele><time>2026-04-12T10:41:34.066Z</time></trkpt><trkpt lat="40.6457259" lon="9.4330408"><ele>529.6666666666667</ele><time>2026-04-12T10:41:35.052Z</time></trkpt><trkpt lat="40.6457535" lon="9.4329578"><ele>530.8333333333334</ele><time>2026-04-12T10:41:36.051Z</time></trkpt><trkpt lat="40.6458281" lon="9.4328379"><ele>532.0</ele><time>2026-04-12T10:41:38.046Z</time></trkpt><trkpt lat="40.6459271" lon="9.4327828"><ele>533.8000000000001</ele><time>2026-04-12T10:41:40.043Z</time></trkpt><trkpt lat="40.6460388" lon="9.432803"><ele>535.6</ele><time>2026-04-12T10:41:42.081Z</time></trkpt><trkpt lat="40.6461027" lon="9.4328366"><ele>537.4000000000001</ele><time>2026-04-12T10:41:43.038Z</time></trkpt><trkpt lat="40.6461721" lon="9.4328751"><ele>539.2</ele><time>2026-04-12T10:41:44.037Z</time></trkpt><trkpt lat="40.64626" lon="9.4329102"><ele>541.0</ele><time>2026-04-12T10:41:45.044Z</time></trkpt><trkpt lat="40.6463598" lon="9.4329352"><ele>540.3333333333334</ele><time>2026-04-12T10:41:46.04Z</time></trkpt><trkpt lat="40.6464636" lon="9.432959"><ele>539.6666666666667</ele><time>2026-04-12T10:41:47.134Z</time></trkpt><trkpt lat="40.6465614" lon="9.4329813"><ele>539.0</ele><time>2026-04-12T10:41:48.142Z</time></trkpt><trkpt lat="40.6466466" lon="9.4329997"><ele>538.3333333333334</ele><time>2026-04-12T10:41:49.136Z</time></trkpt><trkpt lat="40.6467145" lon="9.4330238"><ele>537.6666666666666</ele><time>2026-04-12T10:41:50.048Z</time></trkpt><trkpt lat="40.6467781" lon="9.4330568"><ele>537.0</ele><time>2026-04-12T10:41:51.048Z</time></trkpt><trkpt lat="40.6468431" lon="9.4330814"><ele>536.9999999999999</ele><time>2026-04-12T10:41:52.141Z</time></trkpt><trkpt lat="40.6469127" lon="9.433075"><ele>537.0</ele><time>2026-04-12T10:41:53.191Z</time></trkpt><trkpt lat="40.6469711" lon="9.4330334"><ele>537.0</ele><time>2026-04-12T10:41:54.14Z</time></trkpt><trkpt lat="40.6470186" lon="9.4329674"><ele>537.0</ele><time>2026-04-12T10:41:55.127Z</time></trkpt><trkpt lat="40.6470538" lon="9.4328759"><ele>537.0</ele><time>2026-04-12T10:41:56.033Z</time></trkpt><trkpt lat="40.6470894" lon="9.4327768"><ele>536.9999999999999</ele><time>2026-04-12T10:41:57.128Z</time></trkpt><trkpt lat="40.6471054" lon="9.4326881"><ele>537.0</ele><time>2026-04-12T10:41:58.134Z</time></trkpt><trkpt lat="40.6470952" lon="9.4325973"><ele>538.6666666666666</ele><time>2026-04-12T10:41:59.135Z</time></trkpt><trkpt lat="40.6470725" lon="9.4324998"><ele>540.3333333333334</ele><time>2026-04-12T10:42:00.133Z</time></trkpt><trkpt lat="40.6470415" lon="9.4324156"><ele>542.0</ele><time>2026-04-12T10:42:01.136Z</time></trkpt><trkpt lat="40.646992" lon="9.4323496"><ele>543.6666666666667</ele><time>2026-04-12T10:42:02.14Z</time></trkpt><trkpt lat="40.6468609" lon="9.4322689"><ele>545.3333333333334</ele><time>2026-04-12T10:42:04.141Z</time></trkpt><trkpt lat="40.6467834" lon="9.4322588"><ele>547.0</ele><time>2026-04-12T10:42:05.142Z</time></trkpt><trkpt lat="40.6467089" lon="9.4322578"><ele>547.0</ele><time>2026-04-12T10:42:06.131Z</time></trkpt><trkpt lat="40.6466378" lon="9.4322423"><ele>547.0</ele><time>2026-04-12T10:42:07.135Z</time></trkpt><trkpt lat="40.6465726" lon="9.4322027"><ele>547.0</ele><time>2026-04-12T10:42:08.151Z</time></trkpt><trkpt lat="40.6465025" lon="9.4321554"><ele>547.0</ele><time>2026-04-12T10:42:09.129Z</time></trkpt><trkpt lat="40.6464272" lon="9.4321133"><ele>547.0</ele><time>2026-04-12T10:42:10.126Z</time></trkpt><trkpt lat="40.6463529" lon="9.4320706"><ele>547.0</ele><time>2026-04-12T10:42:11.125Z</time></trkpt><trkpt lat="40.6462854" lon="9.4320162"><ele>548.1666666666667</ele><time>2026-04-12T10:42:12.123Z</time></trkpt><trkpt lat="40.6462197" lon="9.4319608"><ele>549.3333333333334</ele><time>2026-04-12T10:42:13.16Z</time></trkpt><trkpt lat="40.6461618" lon="9.4318942"><ele>550.5</ele><time>2026-04-12T10:42:14.143Z</time></trkpt><trkpt lat="40.6461155" lon="9.4318086"><ele>551.6666666666666</ele><time>2026-04-12T10:42:15.121Z</time></trkpt><trkpt lat="40.6460766" lon="9.4317131"><ele>552.8333333333333</ele><time>2026-04-12T10:42:16.13Z</time></trkpt><trkpt lat="40.6460438" lon="9.4316116"><ele>554.0</ele><time>2026-04-12T10:42:17.124Z</time></trkpt><trkpt lat="40.646018" lon="9.4315101"><ele>554.0</ele><time>2026-04-12T10:42:18.15Z</time></trkpt><trkpt lat="40.6460019" lon="9.4313978"><ele>554.0</ele><time>2026-04-12T10:42:19.125Z</time></trkpt><trkpt lat="40.6459923" lon="9.431265"><ele>554.0</ele><time>2026-04-12T10:42:20.132Z</time></trkpt><trkpt lat="40.6459881" lon="9.4311226"><ele>554.0</ele><time>2026-04-12T10:42:21.13Z</time></trkpt><trkpt lat="40.6459846" lon="9.4309806"><ele>554.0</ele><time>2026-04-12T10:42:22.131Z</time></trkpt><trkpt lat="40.6459756" lon="9.4308378"><ele>556.0</ele><time>2026-04-12T10:42:23.128Z</time></trkpt><trkpt lat="40.6459611" lon="9.4306916"><ele>558.0</ele><time>2026-04-12T10:42:24.123Z</time></trkpt><trkpt lat="40.645933" lon="9.4305506"><ele>560.0</ele><time>2026-04-12T10:42:25.127Z</time></trkpt><trkpt lat="40.6458892" lon="9.4304182"><ele>562.0</ele><time>2026-04-12T10:42:26.129Z</time></trkpt><trkpt lat="40.6458351" lon="9.4302893"><ele>564.0</ele><time>2026-04-12T10:42:27.125Z</time></trkpt><trkpt lat="40.6457758" lon="9.4301637"><ele>568.0</ele><time>2026-04-12T10:42:28.132Z</time></trkpt><trkpt lat="40.6457144" lon="9.4300352"><ele>572.0</ele><time>2026-04-12T10:42:29.125Z</time></trkpt><trkpt lat="40.645655" lon="9.42991"><ele>576.0</ele><time>2026-04-12T10:42:30.116Z</time></trkpt><trkpt lat="40.645591" lon="9.4297888"><ele>580.0</ele><time>2026-04-12T10:42:31.125Z</time></trkpt><trkpt lat="40.6455299" lon="9.4296752"><ele>584.0</ele><time>2026-04-12T10:42:32.13Z</time></trkpt><trkpt lat="40.6454637" lon="9.4295787"><ele>585.0</ele><time>2026-04-12T10:42:33.118Z</time></trkpt><trkpt lat="40.6453812" lon="9.4295086"><ele>586.0</ele><time>2026-04-12T10:42:34.115Z</time></trkpt><trkpt lat="40.6452895" lon="9.4294643"><ele>587.0</ele><time>2026-04-12T10:42:35.124Z</time></trkpt><trkpt lat="40.645196" lon="9.4294345"><ele>588.0</ele><time>2026-04-12T10:42:36.129Z</time></trkpt><trkpt lat="40.6451128" lon="9.4294083"><ele>589.0</ele><time>2026-04-12T10:42:37.117Z</time></trkpt><trkpt lat="40.6450416" lon="9.4293728"><ele>589.0</ele><time>2026-04-12T10:42:38.123Z</time></trkpt><trkpt lat="40.6449743" lon="9.4293169"><ele>589.0</ele><time>2026-04-12T10:42:39.116Z</time></trkpt><trkpt lat="40.6449023" lon="9.4292396"><ele>589.0</ele><time>2026-04-12T10:42:40.113Z</time></trkpt><trkpt lat="40.6448221" lon="9.4291523"><ele>589.0</ele><time>2026-04-12T10:42:41.115Z</time></trkpt><trkpt lat="40.6447267" lon="9.4290641"><ele>589.0</ele><time>2026-04-12T10:42:42.119Z</time></trkpt><trkpt lat="40.6446149" lon="9.4289962"><ele>589.0</ele><time>2026-04-12T10:42:43.117Z</time></trkpt><trkpt lat="40.6445123" lon="9.4289289"><ele>589.0</ele><time>2026-04-12T10:42:44.106Z</time></trkpt><trkpt lat="40.6444203" lon="9.428863"><ele>589.0</ele><time>2026-04-12T10:42:45.114Z</time></trkpt><trkpt lat="40.6443422" lon="9.4287865"><ele>589.0</ele><time>2026-04-12T10:42:46.11Z</time></trkpt><trkpt lat="40.6442634" lon="9.4287076"><ele>589.0</ele><time>2026-04-12T10:42:47.117Z</time></trkpt><trkpt lat="40.6441839" lon="9.4286376"><ele>589.2</ele><time>2026-04-12T10:42:48.107Z</time></trkpt><trkpt lat="40.6440936" lon="9.428575"><ele>589.4</ele><time>2026-04-12T10:42:49.11Z</time></trkpt><trkpt lat="40.6439941" lon="9.4285169"><ele>589.6</ele><time>2026-04-12T10:42:50.105Z</time></trkpt><trkpt lat="40.6438987" lon="9.4284809"><ele>589.8</ele><time>2026-04-12T10:42:51.104Z</time></trkpt><trkpt lat="40.6438024" lon="9.4284694"><ele>590.0</ele><time>2026-04-12T10:42:52.106Z</time></trkpt><trkpt lat="40.6436973" lon="9.4284634"><ele>590.8333333333333</ele><time>2026-04-12T10:42:53.109Z</time></trkpt><trkpt lat="40.6435983" lon="9.428456"><ele>591.6666666666666</ele><time>2026-04-12T10:42:54.134Z</time></trkpt><trkpt lat="40.6435205" lon="9.428449"><ele>592.5</ele><time>2026-04-12T10:42:55.12Z</time></trkpt><trkpt lat="40.6434477" lon="9.4284284"><ele>593.3333333333334</ele><time>2026-04-12T10:42:56.116Z</time></trkpt><trkpt lat="40.6433813" lon="9.4283989"><ele>594.1666666666667</ele><time>2026-04-12T10:42:57.124Z</time></trkpt><trkpt lat="40.6433133" lon="9.4283555"><ele>595.0</ele><time>2026-04-12T10:42:58.101Z</time></trkpt><trkpt lat="40.6432485" lon="9.4282964"><ele>595.0</ele><time>2026-04-12T10:42:59.118Z</time></trkpt><trkpt lat="40.6431797" lon="9.4282236"><ele>595.0</ele><time>2026-04-12T10:43:00.105Z</time></trkpt><trkpt lat="40.6431136" lon="9.4281083"><ele>595.0</ele><time>2026-04-12T10:43:01.115Z</time></trkpt><trkpt lat="40.6430504" lon="9.427982"><ele>595.0</ele><time>2026-04-12T10:43:02.103Z</time></trkpt><trkpt lat="40.6429959" lon="9.4278583"><ele>595.0</ele><time>2026-04-12T10:43:03.108Z</time></trkpt><trkpt lat="40.642949" lon="9.4277276"><ele>595.25</ele><time>2026-04-12T10:43:04.098Z</time></trkpt><trkpt lat="40.6429046" lon="9.4275884"><ele>595.5</ele><time>2026-04-12T10:43:05.106Z</time></trkpt><trkpt lat="40.642854" lon="9.4274478"><ele>595.75</ele><time>2026-04-12T10:43:06.097Z</time></trkpt><trkpt lat="40.6427931" lon="9.427309"><ele>596.0</ele><time>2026-04-12T10:43:07.111Z</time></trkpt><trkpt lat="40.6427172" lon="9.4271672"><ele>595.8</ele><time>2026-04-12T10:43:08.099Z</time></trkpt><trkpt lat="40.642645" lon="9.4270391"><ele>595.6</ele><time>2026-04-12T10:43:09.104Z</time></trkpt><trkpt lat="40.6425796" lon="9.426933"><ele>595.4</ele><time>2026-04-12T10:43:10.104Z</time></trkpt><trkpt lat="40.6425176" lon="9.4268498"><ele>595.2</ele><time>2026-04-12T10:43:11.12Z</time></trkpt><trkpt lat="40.6424592" lon="9.4268062"><ele>595.0</ele><time>2026-04-12T10:43:12.116Z</time></trkpt><trkpt lat="40.6423847" lon="9.4267914"><ele>595.0</ele><time>2026-04-12T10:43:13.098Z</time></trkpt><trkpt lat="40.6422868" lon="9.4268026"><ele>595.0</ele><time>2026-04-12T10:43:14.104Z</time></trkpt><trkpt lat="40.6421896" lon="9.426803"><ele>595.0</ele><time>2026-04-12T10:43:15.107Z</time></trkpt><trkpt lat="40.6420889" lon="9.4267892"><ele>595.0</ele><time>2026-04-12T10:43:16.111Z</time></trkpt><trkpt lat="40.6420007" lon="9.4267559"><ele>595.0</ele><time>2026-04-12T10:43:17.104Z</time></trkpt><trkpt lat="40.6419205" lon="9.4267072"><ele>594.6</ele><time>2026-04-12T10:43:18.096Z</time></trkpt><trkpt lat="40.6418532" lon="9.426639"><ele>594.2</ele><time>2026-04-12T10:43:19.118Z</time></trkpt><trkpt lat="40.6417921" lon="9.4265356"><ele>593.8</ele><time>2026-04-12T10:43:20.1Z</time></trkpt><trkpt lat="40.641738" lon="9.4264146"><ele>593.4</ele><time>2026-04-12T10:43:21.101Z</time></trkpt><trkpt lat="40.6416991" lon="9.426294"><ele>593.0</ele><time>2026-04-12T10:43:22.102Z</time></trkpt><trkpt lat="40.6416707" lon="9.4261776"><ele>593.0</ele><time>2026-04-12T10:43:23.1Z</time></trkpt><trkpt lat="40.6416494" lon="9.4260822"><ele>593.0</ele><time>2026-04-12T10:43:24.1Z</time></trkpt><trkpt lat="40.6416198" lon="9.4259353"><ele>593.0</ele><time>2026-04-12T10:43:26.093Z</time></trkpt><trkpt lat="40.6415861" lon="9.425814"><ele>593.0</ele><time>2026-04-12T10:43:28.093Z</time></trkpt><trkpt lat="40.6414887" lon="9.425714"><ele>593.0</ele><time>2026-04-12T10:43:30.092Z</time></trkpt><trkpt lat="40.6414296" lon="9.4256695"><ele>593.0</ele><time>2026-04-12T10:43:31.085Z</time></trkpt><trkpt lat="40.6413619" lon="9.4256147"><ele>593.0</ele><time>2026-04-12T10:43:32.086Z</time></trkpt><trkpt lat="40.6412933" lon="9.425565"><ele>593.0</ele><time>2026-04-12T10:43:33.082Z</time></trkpt><trkpt lat="40.6412201" lon="9.4255242"><ele>593.0</ele><time>2026-04-12T10:43:34.1Z</time></trkpt><trkpt lat="40.6411489" lon="9.4254784"><ele>593.0</ele><time>2026-04-12T10:43:35.084Z</time></trkpt><trkpt lat="40.6410775" lon="9.425432"><ele>593.0</ele><time>2026-04-12T10:43:36.084Z</time></trkpt><trkpt lat="40.6410037" lon="9.4253818"><ele>592.5714285714286</ele><time>2026-04-12T10:43:37.084Z</time></trkpt><trkpt lat="40.6409317" lon="9.4253234"><ele>592.1428571428571</ele><time>2026-04-12T10:43:38.085Z</time></trkpt><trkpt lat="40.6408704" lon="9.4252707"><ele>591.7142857142858</ele><time>2026-04-12T10:43:39.077Z</time></trkpt><trkpt lat="40.6408203" lon="9.4252167"><ele>591.2857142857142</ele><time>2026-04-12T10:43:40.082Z</time></trkpt><trkpt lat="40.64078" lon="9.4251509"><ele>590.8571428571429</ele><time>2026-04-12T10:43:41.082Z</time></trkpt><trkpt lat="40.6407517" lon="9.4250705"><ele>590.4285714285714</ele><time>2026-04-12T10:43:42.084Z</time></trkpt><trkpt lat="40.6407122" lon="9.4249932"><ele>590.0</ele><time>2026-04-12T10:43:43.083Z</time></trkpt><trkpt lat="40.640668" lon="9.4249314"><ele>590.0</ele><time>2026-04-12T10:43:44.079Z</time></trkpt><trkpt lat="40.6405518" lon="9.4248943"><ele>590.0</ele><time>2026-04-12T10:43:46.074Z</time></trkpt><trkpt lat="40.6404831" lon="9.4249178"><ele>590.0</ele><time>2026-04-12T10:43:47.075Z</time></trkpt><trkpt lat="40.6404163" lon="9.4249252"><ele>590.0</ele><time>2026-04-12T10:43:48.069Z</time></trkpt><trkpt lat="40.6403507" lon="9.4248999"><ele>590.0</ele><time>2026-04-12T10:43:49.072Z</time></trkpt><trkpt lat="40.6402922" lon="9.4248461"><ele>590.0</ele><time>2026-04-12T10:43:50.083Z</time></trkpt><trkpt lat="40.6402389" lon="9.4247841"><ele>589.3333333333333</ele><time>2026-04-12T10:43:51.068Z</time></trkpt><trkpt lat="40.6401799" lon="9.4247257"><ele>588.6666666666666</ele><time>2026-04-12T10:43:52.068Z</time></trkpt><trkpt lat="40.6401266" lon="9.4246691"><ele>588.0</ele><time>2026-04-12T10:43:53.069Z</time></trkpt><trkpt lat="40.6400753" lon="9.4245443"><ele>587.3333333333334</ele><time>2026-04-12T10:43:55.071Z</time></trkpt><trkpt lat="40.6400605" lon="9.4244507"><ele>586.6666666666667</ele><time>2026-04-12T10:43:56.056Z</time></trkpt><trkpt lat="40.6400489" lon="9.4243352"><ele>586.0</ele><time>2026-04-12T10:43:57.062Z</time></trkpt><trkpt lat="40.6400433" lon="9.4242064"><ele>586.0</ele><time>2026-04-12T10:43:58.053Z</time></trkpt><trkpt lat="40.6400448" lon="9.424069"><ele>586.0</ele><time>2026-04-12T10:43:59.059Z</time></trkpt><trkpt lat="40.6400487" lon="9.42394"><ele>586.0</ele><time>2026-04-12T10:44:00.064Z</time></trkpt><trkpt lat="40.640055" lon="9.423822"><ele>586.0</ele><time>2026-04-12T10:44:01.056Z</time></trkpt><trkpt lat="40.6400508" lon="9.4237125"><ele>586.0</ele><time>2026-04-12T10:44:02.052Z</time></trkpt><trkpt lat="40.6400417" lon="9.4236038"><ele>585.1428571428571</ele><time>2026-04-12T10:44:03.061Z</time></trkpt><trkpt lat="40.6400238" lon="9.4234926"><ele>584.2857142857142</ele><time>2026-04-12T10:44:04.058Z</time></trkpt><trkpt lat="40.6400079" lon="9.4233823"><ele>583.4285714285714</ele><time>2026-04-12T10:44:05.06Z</time></trkpt><trkpt lat="40.6399914" lon="9.423284"><ele>582.5714285714286</ele><time>2026-04-12T10:44:06.048Z</time></trkpt><trkpt lat="40.6399779" lon="9.4231915"><ele>581.7142857142858</ele><time>2026-04-12T10:44:07.06Z</time></trkpt><trkpt lat="40.6399654" lon="9.4231058"><ele>580.8571428571429</ele><time>2026-04-12T10:44:08.044Z</time></trkpt><trkpt lat="40.6399504" lon="9.4230241"><ele>580.0</ele><time>2026-04-12T10:44:09.04Z</time></trkpt><trkpt lat="40.6399346" lon="9.4229422"><ele>576.2</ele><time>2026-04-12T10:44:10.043Z</time></trkpt><trkpt lat="40.6398971" lon="9.4227965"><ele>572.4</ele><time>2026-04-12T10:44:12.039Z</time></trkpt><trkpt lat="40.6398262" lon="9.4226954"><ele>568.6</ele><time>2026-04-12T10:44:14.14Z</time></trkpt><trkpt lat="40.6397123" lon="9.4227248"><ele>564.8</ele><time>2026-04-12T10:44:16.134Z</time></trkpt><trkpt lat="40.6396245" lon="9.4228164"><ele>561.0</ele><time>2026-04-12T10:44:18.134Z</time></trkpt><trkpt lat="40.6395463" lon="9.4229114"><ele>563.4</ele><time>2026-04-12T10:44:20.568Z</time></trkpt><trkpt lat="40.6394775" lon="9.423038"><ele>565.8</ele><time>2026-04-12T10:44:22.573Z</time></trkpt><trkpt lat="40.6394037" lon="9.4231806"><ele>568.1999999999999</ele><time>2026-04-12T10:44:24.567Z</time></trkpt><trkpt lat="40.6393641" lon="9.4232577"><ele>570.6</ele><time>2026-04-12T10:44:25.559Z</time></trkpt><trkpt lat="40.6393271" lon="9.4233298"><ele>573.0</ele><time>2026-04-12T10:44:26.554Z</time></trkpt><trkpt lat="40.6392874" lon="9.4234013"><ele>573.0</ele><time>2026-04-12T10:44:27.558Z</time></trkpt><trkpt lat="40.6392352" lon="9.4234681"><ele>573.0</ele><time>2026-04-12T10:44:28.566Z</time></trkpt><trkpt lat="40.6391749" lon="9.4235259"><ele>573.0</ele><time>2026-04-12T10:44:29.558Z</time></trkpt><trkpt lat="40.6391177" lon="9.4235721"><ele>573.0</ele><time>2026-04-12T10:44:30.556Z</time></trkpt><trkpt lat="40.6390078" lon="9.4236176"><ele>573.0</ele><time>2026-04-12T10:44:32.553Z</time></trkpt><trkpt lat="40.6388834" lon="9.4236442"><ele>573.0</ele><time>2026-04-12T10:44:34.549Z</time></trkpt><trkpt lat="40.6388088" lon="9.4236646"><ele>573.0</ele><time>2026-04-12T10:44:35.559Z</time></trkpt><trkpt lat="40.638729" lon="9.4236899"><ele>573.0</ele><time>2026-04-12T10:44:36.551Z</time></trkpt><trkpt lat="40.6386536" lon="9.4237229"><ele>573.0</ele><time>2026-04-12T10:44:37.556Z</time></trkpt><trkpt lat="40.6385752" lon="9.4237511"><ele>573.0</ele><time>2026-04-12T10:44:38.547Z</time></trkpt><trkpt lat="40.638498" lon="9.4237815"><ele>573.0</ele><time>2026-04-12T10:44:39.537Z</time></trkpt><trkpt lat="40.6384172" lon="9.4238096"><ele>572.5</ele><time>2026-04-12T10:44:40.558Z</time></trkpt><trkpt lat="40.6383353" lon="9.4238322"><ele>572.0</ele><time>2026-04-12T10:44:41.556Z</time></trkpt><trkpt lat="40.6382541" lon="9.4238571"><ele>571.5</ele><time>2026-04-12T10:44:42.535Z</time></trkpt><trkpt lat="40.6381762" lon="9.4238864"><ele>571.0</ele><time>2026-04-12T10:44:43.573Z</time></trkpt><trkpt lat="40.6380995" lon="9.4239177"><ele>570.5</ele><time>2026-04-12T10:44:44.542Z</time></trkpt><trkpt lat="40.6380295" lon="9.4239446"><ele>570.0</ele><time>2026-04-12T10:44:45.549Z</time></trkpt><trkpt lat="40.6379635" lon="9.423968"><ele>570.0</ele><time>2026-04-12T10:44:46.537Z</time></trkpt><trkpt lat="40.6378513" lon="9.4240016"><ele>570.0</ele><time>2026-04-12T10:44:48.529Z</time></trkpt><trkpt lat="40.6377801" lon="9.4241073"><ele>570.0</ele><time>2026-04-12T10:44:50.537Z</time></trkpt><trkpt lat="40.6377646" lon="9.4242715"><ele>570.0</ele><time>2026-04-12T10:44:52.536Z</time></trkpt><trkpt lat="40.6377571" lon="9.4243594"><ele>570.0</ele><time>2026-04-12T10:44:53.524Z</time></trkpt><trkpt lat="40.6377509" lon="9.4245123"><ele>570.0</ele><time>2026-04-12T10:44:55.535Z</time></trkpt><trkpt lat="40.6378165" lon="9.4246191"><ele>570.0</ele><time>2026-04-12T10:44:57.521Z</time></trkpt><trkpt lat="40.6378735" lon="9.4246627"><ele>570.0</ele><time>2026-04-12T10:44:58.516Z</time></trkpt><trkpt lat="40.6379441" lon="9.4247015"><ele>570.0</ele><time>2026-04-12T10:44:59.521Z</time></trkpt><trkpt lat="40.6380151" lon="9.4247524"><ele>570.0</ele><time>2026-04-12T10:45:00.515Z</time></trkpt><trkpt lat="40.6380777" lon="9.4248299"><ele>570.0</ele><time>2026-04-12T10:45:01.511Z</time></trkpt><trkpt lat="40.6381365" lon="9.4249222"><ele>568.6666666666666</ele><time>2026-04-12T10:45:02.521Z</time></trkpt><trkpt lat="40.6381892" lon="9.4250077"><ele>567.3333333333334</ele><time>2026-04-12T10:45:03.517Z</time></trkpt><trkpt lat="40.6382326" lon="9.4250889"><ele>566.0</ele><time>2026-04-12T10:45:04.509Z</time></trkpt><trkpt lat="40.638274" lon="9.4251545"><ele>564.6666666666667</ele><time>2026-04-12T10:45:05.519Z</time></trkpt><trkpt lat="40.6383375" lon="9.4252127"><ele>563.3333333333334</ele><time>2026-04-12T10:45:06.529Z</time></trkpt><trkpt lat="40.6384146" lon="9.4252665"><ele>562.0</ele><time>2026-04-12T10:45:07.538Z</time></trkpt><trkpt lat="40.6384969" lon="9.4253068"><ele>562.0</ele><time>2026-04-12T10:45:08.531Z</time></trkpt><trkpt lat="40.6385845" lon="9.4253277"><ele>562.0</ele><time>2026-04-12T10:45:09.515Z</time></trkpt><trkpt lat="40.6386724" lon="9.4253176"><ele>562.0</ele><time>2026-04-12T10:45:10.523Z</time></trkpt><trkpt lat="40.6387709" lon="9.4252968"><ele>562.0</ele><time>2026-04-12T10:45:11.512Z</time></trkpt><trkpt lat="40.6388757" lon="9.4252906"><ele>562.0</ele><time>2026-04-12T10:45:12.509Z</time></trkpt><trkpt lat="40.6389809" lon="9.4252987"><ele>562.2</ele><time>2026-04-12T10:45:13.503Z</time></trkpt><trkpt lat="40.6390817" lon="9.4253061"><ele>562.4000000000001</ele><time>2026-04-12T10:45:14.515Z</time></trkpt><trkpt lat="40.6391845" lon="9.4253219"><ele>562.5999999999999</ele><time>2026-04-12T10:45:15.5Z</time></trkpt><trkpt lat="40.6392797" lon="9.4253485"><ele>562.8</ele><time>2026-04-12T10:45:16.516Z</time></trkpt><trkpt lat="40.6393648" lon="9.4253861"><ele>563.0</ele><time>2026-04-12T10:45:17.496Z</time></trkpt><trkpt lat="40.6394349" lon="9.4254551"><ele>562.0</ele><time>2026-04-12T10:45:18.505Z</time></trkpt><trkpt lat="40.6394954" lon="9.4255282"><ele>561.0</ele><time>2026-04-12T10:45:19.51Z</time></trkpt><trkpt lat="40.6395485" lon="9.4255863"><ele>560.0</ele><time>2026-04-12T10:45:20.52Z</time></trkpt><trkpt lat="40.6395824" lon="9.4257043"><ele>559.0</ele><time>2026-04-12T10:45:22.508Z</time></trkpt><trkpt lat="40.6395033" lon="9.425738"><ele>558.0</ele><time>2026-04-12T10:45:24.501Z</time></trkpt><trkpt lat="40.639398" lon="9.4256599"><ele>554.1999999999999</ele><time>2026-04-12T10:45:26.495Z</time></trkpt><trkpt lat="40.6393231" lon="9.4256349"><ele>550.4</ele><time>2026-04-12T10:45:27.492Z</time></trkpt><trkpt lat="40.639237" lon="9.4256432"><ele>546.5999999999999</ele><time>2026-04-12T10:45:28.486Z</time></trkpt><trkpt lat="40.6391541" lon="9.4256905"><ele>542.8</ele><time>2026-04-12T10:45:29.492Z</time></trkpt><trkpt lat="40.6390665" lon="9.4257556"><ele>539.0</ele><time>2026-04-12T10:45:30.483Z</time></trkpt><trkpt lat="40.638977" lon="9.4258396"><ele>539.0</ele><time>2026-04-12T10:45:31.493Z</time></trkpt><trkpt lat="40.6388858" lon="9.4259162"><ele>539.0</ele><time>2026-04-12T10:45:32.487Z</time></trkpt><trkpt lat="40.6387912" lon="9.4259903"><ele>539.0</ele><time>2026-04-12T10:45:33.48Z</time></trkpt><trkpt lat="40.6386969" lon="9.4260638"><ele>539.0</ele><time>2026-04-12T10:45:34.485Z</time></trkpt><trkpt lat="40.6386103" lon="9.426127"><ele>539.0</ele><time>2026-04-12T10:45:35.485Z</time></trkpt><trkpt lat="40.6385372" lon="9.4261874"><ele>538.6666666666666</ele><time>2026-04-12T10:45:36.524Z</time></trkpt><trkpt lat="40.6384851" lon="9.4262573"><ele>538.3333333333333</ele><time>2026-04-12T10:45:37.481Z</time></trkpt><trkpt lat="40.6384666" lon="9.4263453"><ele>538.0</ele><time>2026-04-12T10:45:38.493Z</time></trkpt><trkpt lat="40.6384823" lon="9.4264336"><ele>537.6666666666666</ele><time>2026-04-12T10:45:39.483Z</time></trkpt><trkpt lat="40.6385199" lon="9.4265269"><ele>537.3333333333334</ele><time>2026-04-12T10:45:40.49Z</time></trkpt><trkpt lat="40.6385626" lon="9.4266372"><ele>537.0</ele><time>2026-04-12T10:45:41.487Z</time></trkpt><trkpt lat="40.6385928" lon="9.4267628"><ele>534.1666666666666</ele><time>2026-04-12T10:45:42.477Z</time></trkpt><trkpt lat="40.6386027" lon="9.4268915"><ele>531.3333333333334</ele><time>2026-04-12T10:45:43.481Z</time></trkpt><trkpt lat="40.638582" lon="9.4270046"><ele>528.5</ele><time>2026-04-12T10:45:44.565Z</time></trkpt><trkpt lat="40.6385435" lon="9.4271037"><ele>525.6666666666667</ele><time>2026-04-12T10:45:45.568Z</time></trkpt><trkpt lat="40.6384932" lon="9.427186"><ele>522.8333333333334</ele><time>2026-04-12T10:45:46.586Z</time></trkpt><trkpt lat="40.638422" lon="9.4272584"><ele>520.0</ele><time>2026-04-12T10:45:47.572Z</time></trkpt><trkpt lat="40.6383413" lon="9.4273139"><ele>517.5</ele><time>2026-04-12T10:45:48.567Z</time></trkpt><trkpt lat="40.6382613" lon="9.4273563"><ele>515.0</ele><time>2026-04-12T10:45:49.567Z</time></trkpt><trkpt lat="40.6381821" lon="9.4273749"><ele>512.5</ele><time>2026-04-12T10:45:50.564Z</time></trkpt><trkpt lat="40.6381039" lon="9.4273646"><ele>510.0</ele><time>2026-04-12T10:45:51.565Z</time></trkpt><trkpt lat="40.6380313" lon="9.4273267"><ele>507.50000000000006</ele><time>2026-04-12T10:45:52.57Z</time></trkpt><trkpt lat="40.6379525" lon="9.4272669"><ele>505.0</ele><time>2026-04-12T10:45:53.562Z</time></trkpt><trkpt lat="40.6378896" lon="9.4271988"><ele>503.6666666666667</ele><time>2026-04-12T10:45:54.563Z</time></trkpt><trkpt lat="40.6378509" lon="9.4271255"><ele>502.33333333333337</ele><time>2026-04-12T10:45:55.567Z</time></trkpt><trkpt lat="40.6378488" lon="9.4270246"><ele>501.0</ele><time>2026-04-12T10:45:56.559Z</time></trkpt><trkpt lat="40.6378436" lon="9.4269082"><ele>499.66666666666663</ele><time>2026-04-12T10:45:57.553Z</time></trkpt><trkpt lat="40.6378211" lon="9.4267863"><ele>498.3333333333333</ele><time>2026-04-12T10:45:58.559Z</time></trkpt><trkpt lat="40.6377861" lon="9.4266703"><ele>497.0</ele><time>2026-04-12T10:45:59.561Z</time></trkpt><trkpt lat="40.6377403" lon="9.4265615"><ele>497.0</ele><time>2026-04-12T10:46:00.549Z</time></trkpt><trkpt lat="40.6376804" lon="9.426458"><ele>497.00000000000006</ele><time>2026-04-12T10:46:01.558Z</time></trkpt><trkpt lat="40.6376066" lon="9.4263714"><ele>497.00000000000006</ele><time>2026-04-12T10:46:02.552Z</time></trkpt><trkpt lat="40.6375267" lon="9.4262883"><ele>497.0</ele><time>2026-04-12T10:46:03.565Z</time></trkpt><trkpt lat="40.6374481" lon="9.4262068"><ele>497.0</ele><time>2026-04-12T10:46:04.554Z</time></trkpt><trkpt lat="40.6373653" lon="9.426129"><ele>494.6</ele><time>2026-04-12T10:46:05.556Z</time></trkpt><trkpt lat="40.6372717" lon="9.4260636"><ele>492.20000000000005</ele><time>2026-04-12T10:46:06.548Z</time></trkpt><trkpt lat="40.637177" lon="9.4260043"><ele>489.8</ele><time>2026-04-12T10:46:07.547Z</time></trkpt><trkpt lat="40.6370847" lon="9.4259457"><ele>487.4</ele><time>2026-04-12T10:46:08.543Z</time></trkpt><trkpt lat="40.6369935" lon="9.4258796"><ele>485.0</ele><time>2026-04-12T10:46:09.557Z</time></trkpt><trkpt lat="40.6369004" lon="9.425816"><ele>485.0</ele><time>2026-04-12T10:46:10.547Z</time></trkpt><trkpt lat="40.6368071" lon="9.4257487"><ele>485.0</ele><time>2026-04-12T10:46:11.559Z</time></trkpt><trkpt lat="40.6367166" lon="9.4256798"><ele>485.0</ele><time>2026-04-12T10:46:12.545Z</time></trkpt><trkpt lat="40.6366278" lon="9.4256086"><ele>485.0</ele><time>2026-04-12T10:46:13.552Z</time></trkpt><trkpt lat="40.636538" lon="9.4255401"><ele>485.0</ele><time>2026-04-12T10:46:14.544Z</time></trkpt><trkpt lat="40.6364509" lon="9.425473"><ele>483.0</ele><time>2026-04-12T10:46:15.533Z</time></trkpt><trkpt lat="40.6363628" lon="9.4254012"><ele>481.0</ele><time>2026-04-12T10:46:16.536Z</time></trkpt><trkpt lat="40.6362832" lon="9.4253178"><ele>479.0</ele><time>2026-04-12T10:46:17.533Z</time></trkpt><trkpt lat="40.6362069" lon="9.4252139"><ele>477.0</ele><time>2026-04-12T10:46:18.552Z</time></trkpt><trkpt lat="40.6361259" lon="9.4250986"><ele>475.0</ele><time>2026-04-12T10:46:19.54Z</time></trkpt><trkpt lat="40.63605" lon="9.4249805"><ele>475.0</ele><time>2026-04-12T10:46:20.529Z</time></trkpt><trkpt lat="40.6359715" lon="9.4248665"><ele>475.0</ele><time>2026-04-12T10:46:21.529Z</time></trkpt><trkpt lat="40.6358951" lon="9.4247511"><ele>475.0</ele><time>2026-04-12T10:46:22.533Z</time></trkpt><trkpt lat="40.6358156" lon="9.4246444"><ele>475.0</ele><time>2026-04-12T10:46:23.548Z</time></trkpt><trkpt lat="40.6357327" lon="9.4245429"><ele>474.6666666666667</ele><time>2026-04-12T10:46:24.532Z</time></trkpt><trkpt lat="40.6356577" lon="9.4244424"><ele>474.33333333333337</ele><time>2026-04-12T10:46:25.533Z</time></trkpt><trkpt lat="40.6355949" lon="9.4243528"><ele>474.0</ele><time>2026-04-12T10:46:26.526Z</time></trkpt><trkpt lat="40.635546" lon="9.4242924"><ele>473.66666666666663</ele><time>2026-04-12T10:46:27.543Z</time></trkpt><trkpt lat="40.635462" lon="9.4242546"><ele>473.3333333333333</ele><time>2026-04-12T10:46:29.52Z</time></trkpt><trkpt lat="40.6353881" lon="9.4243132"><ele>473.0</ele><time>2026-04-12T10:46:31.519Z</time></trkpt><trkpt lat="40.6352968" lon="9.4244262"><ele>473.0</ele><time>2026-04-12T10:46:33.515Z</time></trkpt><trkpt lat="40.6352258" lon="9.4244862"><ele>472.99999999999994</ele><time>2026-04-12T10:46:34.521Z</time></trkpt><trkpt lat="40.6351376" lon="9.4245437"><ele>472.99999999999994</ele><time>2026-04-12T10:46:35.543Z</time></trkpt><trkpt lat="40.6350416" lon="9.4246114"><ele>473.0</ele><time>2026-04-12T10:46:36.503Z</time></trkpt><trkpt lat="40.634949" lon="9.424689"><ele>473.0</ele><time>2026-04-12T10:46:37.513Z</time></trkpt><trkpt lat="40.6348674" lon="9.4247785"><ele>474.0</ele><time>2026-04-12T10:46:38.512Z</time></trkpt><trkpt lat="40.6347917" lon="9.4248659"><ele>474.99999999999994</ele><time>2026-04-12T10:46:39.508Z</time></trkpt><trkpt lat="40.634716" lon="9.4249383"><ele>475.99999999999994</ele><time>2026-04-12T10:46:40.51Z</time></trkpt><trkpt lat="40.6346325" lon="9.4249791"><ele>477.0</ele><time>2026-04-12T10:46:41.516Z</time></trkpt><trkpt lat="40.6345497" lon="9.4249855"><ele>478.0</ele><time>2026-04-12T10:46:42.502Z</time></trkpt><trkpt lat="40.634468" lon="9.4249627"><ele>478.00000000000006</ele><time>2026-04-12T10:46:43.531Z</time></trkpt><trkpt lat="40.6343892" lon="9.4249268"><ele>478.0</ele><time>2026-04-12T10:46:44.498Z</time></trkpt><trkpt lat="40.6343157" lon="9.4248926"><ele>478.0</ele><time>2026-04-12T10:46:45.502Z</time></trkpt><trkpt lat="40.6342418" lon="9.424862"><ele>478.0</ele><time>2026-04-12T10:46:46.511Z</time></trkpt><trkpt lat="40.6341649" lon="9.4248314"><ele>478.00000000000006</ele><time>2026-04-12T10:46:47.499Z</time></trkpt><trkpt lat="40.6340826" lon="9.4247916"><ele>478.0</ele><time>2026-04-12T10:46:48.493Z</time></trkpt><trkpt lat="40.6340123" lon="9.4247387"><ele>478.00000000000006</ele><time>2026-04-12T10:46:49.52Z</time></trkpt><trkpt lat="40.6339498" lon="9.4246921"><ele>478.0</ele><time>2026-04-12T10:46:50.509Z</time></trkpt><trkpt lat="40.633884" lon="9.4246631"><ele>478.0</ele><time>2026-04-12T10:46:51.487Z</time></trkpt><trkpt lat="40.6337966" lon="9.4246642"><ele>478.0</ele><time>2026-04-12T10:46:52.497Z</time></trkpt><trkpt lat="40.6337024" lon="9.4246724"><ele>478.00000000000006</ele><time>2026-04-12T10:46:53.486Z</time></trkpt><trkpt lat="40.6336168" lon="9.4246765"><ele>478.0</ele><time>2026-04-12T10:46:54.486Z</time></trkpt><trkpt lat="40.6335562" lon="9.4247014"><ele>478.0</ele><time>2026-04-12T10:46:55.491Z</time></trkpt><trkpt lat="40.6335415" lon="9.4248149"><ele>477.99999999999994</ele><time>2026-04-12T10:46:57.501Z</time></trkpt><trkpt lat="40.633628" lon="9.4249335"><ele>477.99999999999994</ele><time>2026-04-12T10:46:59.489Z</time></trkpt><trkpt lat="40.6336853" lon="9.4250038"><ele>478.0</ele><time>2026-04-12T10:47:00.479Z</time></trkpt><trkpt lat="40.6337149" lon="9.4250832"><ele>478.0</ele><time>2026-04-12T10:47:01.502Z</time></trkpt><trkpt lat="40.6336871" lon="9.4252028"><ele>481.0</ele><time>2026-04-12T10:47:03.476Z</time></trkpt><trkpt lat="40.6335977" lon="9.4251887"><ele>483.99999999999994</ele><time>2026-04-12T10:47:05.473Z</time></trkpt><trkpt lat="40.6334633" lon="9.4251786"><ele>486.99999999999994</ele><time>2026-04-12T10:47:07.474Z</time></trkpt><trkpt lat="40.6333768" lon="9.4251875"><ele>490.0</ele><time>2026-04-12T10:47:08.573Z</time></trkpt><trkpt lat="40.6332737" lon="9.4251989"><ele>493.0</ele><time>2026-04-12T10:47:09.568Z</time></trkpt><trkpt lat="40.6331702" lon="9.4252107"><ele>493.0</ele><time>2026-04-12T10:47:10.563Z</time></trkpt><trkpt lat="40.6330637" lon="9.4252253"><ele>493.0</ele><time>2026-04-12T10:47:11.48Z</time></trkpt><trkpt lat="40.6329528" lon="9.4252296"><ele>493.0</ele><time>2026-04-12T10:47:12.571Z</time></trkpt><trkpt lat="40.6328341" lon="9.4252337"><ele>493.0</ele><time>2026-04-12T10:47:13.565Z</time></trkpt><trkpt lat="40.632714" lon="9.4252372"><ele>497.2</ele><time>2026-04-12T10:47:14.561Z</time></trkpt><trkpt lat="40.6325963" lon="9.4252374"><ele>501.4</ele><time>2026-04-12T10:47:15.57Z</time></trkpt><trkpt lat="40.6324868" lon="9.4252395"><ele>505.59999999999997</ele><time>2026-04-12T10:47:16.568Z</time></trkpt><trkpt lat="40.6323899" lon="9.4252432"><ele>509.79999999999995</ele><time>2026-04-12T10:47:17.56Z</time></trkpt><trkpt lat="40.6323072" lon="9.42524"><ele>514.0</ele><time>2026-04-12T10:47:18.56Z</time></trkpt><trkpt lat="40.6322357" lon="9.4252288"><ele>514.0</ele><time>2026-04-12T10:47:19.556Z</time></trkpt><trkpt lat="40.6321799" lon="9.425189"><ele>514.0</ele><time>2026-04-12T10:47:20.553Z</time></trkpt><trkpt lat="40.6321367" lon="9.425101"><ele>514.0</ele><time>2026-04-12T10:47:21.567Z</time></trkpt><trkpt lat="40.6321039" lon="9.4249936"><ele>514.0</ele><time>2026-04-12T10:47:22.553Z</time></trkpt><trkpt lat="40.6320754" lon="9.424869"><ele>514.0</ele><time>2026-04-12T10:47:23.561Z</time></trkpt><trkpt lat="40.6320388" lon="9.424718"><ele>514.0</ele><time>2026-04-12T10:47:24.557Z</time></trkpt><trkpt lat="40.6319987" lon="9.4245508"><ele>514.0</ele><time>2026-04-12T10:47:25.551Z</time></trkpt><trkpt lat="40.6319596" lon="9.424379"><ele>514.0</ele><time>2026-04-12T10:47:26.549Z</time></trkpt><trkpt lat="40.6319337" lon="9.4242121"><ele>514.0</ele><time>2026-04-12T10:47:27.564Z</time></trkpt><trkpt lat="40.6319055" lon="9.4240525"><ele>520.6</ele><time>2026-04-12T10:47:28.544Z</time></trkpt><trkpt lat="40.6318616" lon="9.4238943"><ele>527.2</ele><time>2026-04-12T10:47:29.552Z</time></trkpt><trkpt lat="40.6318106" lon="9.4237595"><ele>533.8000000000001</ele><time>2026-04-12T10:47:30.543Z</time></trkpt><trkpt lat="40.6317749" lon="9.4236474"><ele>540.4</ele><time>2026-04-12T10:47:31.565Z</time></trkpt><trkpt lat="40.6317653" lon="9.4235421"><ele>547.0</ele><time>2026-04-12T10:47:32.546Z</time></trkpt><trkpt lat="40.6317739" lon="9.4234189"><ele>548.3333333333334</ele><time>2026-04-12T10:47:33.534Z</time></trkpt><trkpt lat="40.6317952" lon="9.4232948"><ele>549.6666666666667</ele><time>2026-04-12T10:47:34.541Z</time></trkpt><trkpt lat="40.6318309" lon="9.4231896"><ele>551.0</ele><time>2026-04-12T10:47:35.554Z</time></trkpt><trkpt lat="40.6318883" lon="9.4231105"><ele>552.3333333333334</ele><time>2026-04-12T10:47:36.539Z</time></trkpt><trkpt lat="40.6319699" lon="9.4230587"><ele>553.6666666666666</ele><time>2026-04-12T10:47:37.533Z</time></trkpt><trkpt lat="40.632052" lon="9.4230302"><ele>555.0</ele><time>2026-04-12T10:47:38.545Z</time></trkpt><trkpt lat="40.6321229" lon="9.4230178"><ele>553.6</ele><time>2026-04-12T10:47:39.551Z</time></trkpt><trkpt lat="40.6322217" lon="9.4229894"><ele>552.2</ele><time>2026-04-12T10:47:41.539Z</time></trkpt><trkpt lat="40.632295" lon="9.4229671"><ele>550.8</ele><time>2026-04-12T10:48:01.513Z</time></trkpt><trkpt lat="40.6323329" lon="9.4228868"><ele>549.4</ele><time>2026-04-12T10:48:04.501Z</time></trkpt><trkpt lat="40.6322373" lon="9.4228288"><ele>548.0</ele><time>2026-04-12T10:48:07.497Z</time></trkpt><trkpt lat="40.6321166" lon="9.4228057"><ele>548.0</ele><time>2026-04-12T10:48:09.499Z</time></trkpt><trkpt lat="40.63205" lon="9.4227884"><ele>548.0</ele><time>2026-04-12T10:48:10.496Z</time></trkpt><trkpt lat="40.6319797" lon="9.4227708"><ele>548.0</ele><time>2026-04-12T10:48:11.501Z</time></trkpt><trkpt lat="40.6318997" lon="9.4227578"><ele>548.0</ele><time>2026-04-12T10:48:12.492Z</time></trkpt><trkpt lat="40.6318183" lon="9.4227677"><ele>548.0</ele><time>2026-04-12T10:48:13.491Z</time></trkpt><trkpt lat="40.6317303" lon="9.4227998"><ele>548.0</ele><time>2026-04-12T10:48:14.487Z</time></trkpt><trkpt lat="40.6316399" lon="9.4228471"><ele>549.1666666666666</ele><time>2026-04-12T10:48:15.494Z</time></trkpt><trkpt lat="40.6315523" lon="9.4229003"><ele>550.3333333333333</ele><time>2026-04-12T10:48:16.487Z</time></trkpt><trkpt lat="40.6314692" lon="9.4229522"><ele>551.5</ele><time>2026-04-12T10:48:17.488Z</time></trkpt><trkpt lat="40.6314103" lon="9.4230034"><ele>552.6666666666666</ele><time>2026-04-12T10:48:18.486Z</time></trkpt><trkpt lat="40.6313562" lon="9.4231169"><ele>553.8333333333334</ele><time>2026-04-12T10:48:20.508Z</time></trkpt><trkpt lat="40.6312983" lon="9.4231814"><ele>555.0</ele><time>2026-04-12T10:48:22.486Z</time></trkpt><trkpt lat="40.6312409" lon="9.4230987"><ele>558.0</ele><time>2026-04-12T10:48:24.483Z</time></trkpt><trkpt lat="40.631281" lon="9.422941"><ele>561.0</ele><time>2026-04-12T10:48:26.476Z</time></trkpt><trkpt lat="40.6313119" lon="9.4228298"><ele>564.0</ele><time>2026-04-12T10:48:27.488Z</time></trkpt><trkpt lat="40.6313456" lon="9.4227112"><ele>567.0</ele><time>2026-04-12T10:48:28.474Z</time></trkpt><trkpt lat="40.6313821" lon="9.4225848"><ele>570.0</ele><time>2026-04-12T10:48:29.48Z</time></trkpt><trkpt lat="40.6314242" lon="9.4224564"><ele>570.0</ele><time>2026-04-12T10:48:30.576Z</time></trkpt><trkpt lat="40.6314701" lon="9.4223297"><ele>570.0</ele><time>2026-04-12T10:48:31.571Z</time></trkpt><trkpt lat="40.6315185" lon="9.4222051"><ele>570.0</ele><time>2026-04-12T10:48:32.596Z</time></trkpt><trkpt lat="40.6315674" lon="9.4220864"><ele>570.0</ele><time>2026-04-12T10:48:33.566Z</time></trkpt><trkpt lat="40.6316279" lon="9.4219818"><ele>570.0</ele><time>2026-04-12T10:48:34.564Z</time></trkpt><trkpt lat="40.6316989" lon="9.4218829"><ele>573.8</ele><time>2026-04-12T10:48:35.558Z</time></trkpt><trkpt lat="40.6317719" lon="9.4217986"><ele>577.6</ele><time>2026-04-12T10:48:36.562Z</time></trkpt><trkpt lat="40.6318338" lon="9.4217106"><ele>581.4</ele><time>2026-04-12T10:48:37.562Z</time></trkpt><trkpt lat="40.6318837" lon="9.4216188"><ele>585.2</ele><time>2026-04-12T10:48:38.554Z</time></trkpt><trkpt lat="40.6319235" lon="9.421539"><ele>589.0</ele><time>2026-04-12T10:48:39.551Z</time></trkpt><trkpt lat="40.631931" lon="9.4213766"><ele>590.8</ele><time>2026-04-12T10:48:41.556Z</time></trkpt><trkpt lat="40.6319012" lon="9.4212737"><ele>592.5999999999999</ele><time>2026-04-12T10:48:42.577Z</time></trkpt><trkpt lat="40.6318829" lon="9.4211566"><ele>594.4</ele><time>2026-04-12T10:48:43.558Z</time></trkpt><trkpt lat="40.6318878" lon="9.4210352"><ele>596.1999999999999</ele><time>2026-04-12T10:48:44.553Z</time></trkpt><trkpt lat="40.6318938" lon="9.4209147"><ele>598.0</ele><time>2026-04-12T10:48:45.568Z</time></trkpt><trkpt lat="40.631816" lon="9.4208142"><ele>598.0</ele><time>2026-04-12T10:48:47.549Z</time></trkpt><trkpt lat="40.6317202" lon="9.4208553"><ele>598.0</ele><time>2026-04-12T10:48:49.561Z</time></trkpt><trkpt lat="40.6316093" lon="9.4209563"><ele>598.0</ele><time>2026-04-12T10:48:51.551Z</time></trkpt><trkpt lat="40.6315447" lon="9.4210175"><ele>598.0</ele><time>2026-04-12T10:48:52.557Z</time></trkpt><trkpt lat="40.6314797" lon="9.4210739"><ele>598.0</ele><time>2026-04-12T10:48:53.541Z</time></trkpt><trkpt lat="40.6314128" lon="9.4211394"><ele>598.0</ele><time>2026-04-12T10:48:54.543Z</time></trkpt><trkpt lat="40.6313524" lon="9.4212075"><ele>598.0</ele><time>2026-04-12T10:48:55.54Z</time></trkpt><trkpt lat="40.6313023" lon="9.4212835"><ele>598.0</ele><time>2026-04-12T10:48:56.551Z</time></trkpt><trkpt lat="40.6312593" lon="9.4213526"><ele>598.0</ele><time>2026-04-12T10:48:57.537Z</time></trkpt><trkpt lat="40.6311853" lon="9.4214666"><ele>598.0</ele><time>2026-04-12T10:48:59.556Z</time></trkpt><trkpt lat="40.6311135" lon="9.4215178"><ele>598.0</ele><time>2026-04-12T10:49:01.542Z</time></trkpt><trkpt lat="40.6310369" lon="9.4214646"><ele>603.0</ele><time>2026-04-12T10:49:03.542Z</time></trkpt><trkpt lat="40.6310351" lon="9.4212948"><ele>608.0</ele><time>2026-04-12T10:49:05.54Z</time></trkpt><trkpt lat="40.6310418" lon="9.4211677"><ele>613.0</ele><time>2026-04-12T10:49:06.532Z</time></trkpt><trkpt lat="40.6310312" lon="9.4210359"><ele>618.0</ele><time>2026-04-12T10:49:07.534Z</time></trkpt><trkpt lat="40.631021" lon="9.4209029"><ele>623.0</ele><time>2026-04-12T10:49:08.56Z</time></trkpt><trkpt lat="40.6310079" lon="9.4207839"><ele>623.0</ele><time>2026-04-12T10:49:09.55Z</time></trkpt><trkpt lat="40.6309931" lon="9.4206964"><ele>623.0</ele><time>2026-04-12T10:49:10.529Z</time></trkpt><trkpt lat="40.6309577" lon="9.4206262"><ele>623.0</ele><time>2026-04-12T10:49:11.541Z</time></trkpt><trkpt lat="40.6309054" lon="9.4205781"><ele>623.0</ele><time>2026-04-12T10:49:12.537Z</time></trkpt><trkpt lat="40.6307974" lon="9.4204911"><ele>623.0</ele><time>2026-04-12T10:49:14.531Z</time></trkpt><trkpt lat="40.6307455" lon="9.420432"><ele>623.0</ele><time>2026-04-12T10:49:15.536Z</time></trkpt><trkpt lat="40.6306987" lon="9.4203539"><ele>622.4285714285714</ele><time>2026-04-12T10:49:16.526Z</time></trkpt><trkpt lat="40.6306533" lon="9.4202741"><ele>621.8571428571429</ele><time>2026-04-12T10:49:17.517Z</time></trkpt><trkpt lat="40.6306127" lon="9.4202046"><ele>621.2857142857142</ele><time>2026-04-12T10:49:18.514Z</time></trkpt><trkpt lat="40.6305746" lon="9.4201258"><ele>620.7142857142858</ele><time>2026-04-12T10:49:19.516Z</time></trkpt><trkpt lat="40.6305393" lon="9.4200433"><ele>620.1428571428571</ele><time>2026-04-12T10:49:20.511Z</time></trkpt><trkpt lat="40.6305054" lon="9.4199474"><ele>619.5714285714286</ele><time>2026-04-12T10:49:21.532Z</time></trkpt><trkpt lat="40.6304757" lon="9.4198436"><ele>619.0</ele><time>2026-04-12T10:49:22.516Z</time></trkpt><trkpt lat="40.6304419" lon="9.4197369"><ele>617.6666666666667</ele><time>2026-04-12T10:49:23.516Z</time></trkpt><trkpt lat="40.6304044" lon="9.4196327"><ele>616.3333333333334</ele><time>2026-04-12T10:49:24.523Z</time></trkpt><trkpt lat="40.6303674" lon="9.4195418"><ele>615.0</ele><time>2026-04-12T10:49:25.513Z</time></trkpt><trkpt lat="40.6303293" lon="9.4194538"><ele>613.6666666666666</ele><time>2026-04-12T10:49:26.513Z</time></trkpt><trkpt lat="40.6302921" lon="9.4193662"><ele>612.3333333333333</ele><time>2026-04-12T10:49:27.534Z</time></trkpt><trkpt lat="40.6302599" lon="9.4192711"><ele>611.0</ele><time>2026-04-12T10:49:28.505Z</time></trkpt><trkpt lat="40.6302364" lon="9.4191778"><ele>615.1666666666666</ele><time>2026-04-12T10:49:29.505Z</time></trkpt><trkpt lat="40.6302125" lon="9.4190898"><ele>619.3333333333333</ele><time>2026-04-12T10:49:30.513Z</time></trkpt><trkpt lat="40.6301834" lon="9.419008"><ele>623.5</ele><time>2026-04-12T10:49:31.526Z</time></trkpt><trkpt lat="40.6301405" lon="9.4189272"><ele>627.6666666666666</ele><time>2026-04-12T10:49:32.501Z</time></trkpt><trkpt lat="40.6300895" lon="9.4188334"><ele>631.8333333333334</ele><time>2026-04-12T10:49:33.496Z</time></trkpt><trkpt lat="40.6300423" lon="9.4187436"><ele>636.0</ele><time>2026-04-12T10:49:34.499Z</time></trkpt><trkpt lat="40.6300043" lon="9.4186687"><ele>636.0</ele><time>2026-04-12T10:49:35.524Z</time></trkpt><trkpt lat="40.6299284" lon="9.4185728"><ele>636.0</ele><time>2026-04-12T10:49:37.527Z</time></trkpt><trkpt lat="40.6298407" lon="9.4185451"><ele>636.0</ele><time>2026-04-12T10:49:39.489Z</time></trkpt><trkpt lat="40.6297312" lon="9.4186009"><ele>636.0</ele><time>2026-04-12T10:49:41.498Z</time></trkpt><trkpt lat="40.6296638" lon="9.4186495"><ele>636.0</ele><time>2026-04-12T10:49:42.497Z</time></trkpt><trkpt lat="40.6295916" lon="9.4186829"><ele>636.0</ele><time>2026-04-12T10:49:43.49Z</time></trkpt><trkpt lat="40.6295257" lon="9.4187051"><ele>636.0</ele><time>2026-04-12T10:49:44.535Z</time></trkpt><trkpt lat="40.6293956" lon="9.4186729"><ele>636.0</ele><time>2026-04-12T10:49:46.49Z</time></trkpt><trkpt lat="40.6293241" lon="9.4186234"><ele>636.0</ele><time>2026-04-12T10:49:47.487Z</time></trkpt><trkpt lat="40.6292588" lon="9.4185869"><ele>636.0</ele><time>2026-04-12T10:49:48.486Z</time></trkpt><trkpt lat="40.6291953" lon="9.4185608"><ele>636.0</ele><time>2026-04-12T10:49:49.5Z</time></trkpt><trkpt lat="40.6291324" lon="9.4185442"><ele>637.0</ele><time>2026-04-12T10:49:50.503Z</time></trkpt><trkpt lat="40.6290372" lon="9.4185229"><ele>638.0</ele><time>2026-04-12T10:49:52.483Z</time></trkpt><trkpt lat="40.6289668" lon="9.4185241"><ele>639.0</ele><time>2026-04-12T10:49:54.492Z</time></trkpt><trkpt lat="40.6289119" lon="9.4185701"><ele>640.0</ele><time>2026-04-12T10:49:56.478Z</time></trkpt><trkpt lat="40.6289044" lon="9.4186658"><ele>641.0</ele><time>2026-04-12T10:49:58.476Z</time></trkpt><trkpt lat="40.6289505" lon="9.4188158"><ele>642.0</ele><time>2026-04-12T10:50:00.488Z</time></trkpt><trkpt lat="40.6289693" lon="9.4189051"><ele>643.8333333333334</ele><time>2026-04-12T10:50:01.477Z</time></trkpt><trkpt lat="40.6289848" lon="9.418994"><ele>645.6666666666666</ele><time>2026-04-12T10:50:02.61Z</time></trkpt><trkpt lat="40.6289981" lon="9.419081"><ele>647.5</ele><time>2026-04-12T10:50:03.577Z</time></trkpt><trkpt lat="40.6290025" lon="9.4192459"><ele>649.3333333333333</ele><time>2026-04-12T10:50:05.588Z</time></trkpt><trkpt lat="40.6289947" lon="9.4193288"><ele>651.1666666666666</ele><time>2026-04-12T10:50:06.575Z</time></trkpt><trkpt lat="40.6289927" lon="9.4194162"><ele>653.0</ele><time>2026-04-12T10:50:07.594Z</time></trkpt><trkpt lat="40.6290012" lon="9.4195033"><ele>653.0</ele><time>2026-04-12T10:50:08.565Z</time></trkpt><trkpt lat="40.6290175" lon="9.4195864"><ele>653.0</ele><time>2026-04-12T10:50:09.563Z</time></trkpt><trkpt lat="40.6290377" lon="9.4197378"><ele>653.0</ele><time>2026-04-12T10:50:11.56Z</time></trkpt><trkpt lat="40.6289945" lon="9.4198754"><ele>653.0</ele><time>2026-04-12T10:50:13.564Z</time></trkpt><trkpt lat="40.6288931" lon="9.4199477"><ele>653.0</ele><time>2026-04-12T10:50:15.568Z</time></trkpt><trkpt lat="40.628765" lon="9.4199465"><ele>654.6666666666666</ele><time>2026-04-12T10:50:17.565Z</time></trkpt><trkpt lat="40.6286982" lon="9.4199267"><ele>656.3333333333333</ele><time>2026-04-12T10:50:18.572Z</time></trkpt><trkpt lat="40.6286326" lon="9.4199021"><ele>658.0</ele><time>2026-04-12T10:50:19.56Z</time></trkpt><trkpt lat="40.628565" lon="9.4198752"><ele>659.6666666666666</ele><time>2026-04-12T10:50:20.556Z</time></trkpt><trkpt lat="40.628485" lon="9.4198542"><ele>661.3333333333334</ele><time>2026-04-12T10:50:21.553Z</time></trkpt><trkpt lat="40.6283993" lon="9.4198418"><ele>663.0</ele><time>2026-04-12T10:50:22.561Z</time></trkpt><trkpt lat="40.6283088" lon="9.4198242"><ele>664.5999999999999</ele><time>2026-04-12T10:50:23.562Z</time></trkpt><trkpt lat="40.6282091" lon="9.4197931"><ele>666.1999999999999</ele><time>2026-04-12T10:50:24.55Z</time></trkpt><trkpt lat="40.6281043" lon="9.4197517"><ele>667.8</ele><time>2026-04-12T10:50:25.564Z</time></trkpt><trkpt lat="40.6280125" lon="9.4196946"><ele>669.4</ele><time>2026-04-12T10:50:26.553Z</time></trkpt><trkpt lat="40.6279302" lon="9.4196244"><ele>671.0</ele><time>2026-04-12T10:50:27.545Z</time></trkpt><trkpt lat="40.6278483" lon="9.4195425"><ele>672.1999999999999</ele><time>2026-04-12T10:50:28.549Z</time></trkpt><trkpt lat="40.6277722" lon="9.4194603"><ele>673.4</ele><time>2026-04-12T10:50:29.559Z</time></trkpt><trkpt lat="40.6276987" lon="9.4193685"><ele>674.6</ele><time>2026-04-12T10:50:30.544Z</time></trkpt><trkpt lat="40.6276288" lon="9.4192845"><ele>675.8</ele><time>2026-04-12T10:50:31.548Z</time></trkpt><trkpt lat="40.6275591" lon="9.419217"><ele>677.0</ele><time>2026-04-12T10:50:32.54Z</time></trkpt><trkpt lat="40.6274897" lon="9.4191734"><ele>677.0</ele><time>2026-04-12T10:50:33.544Z</time></trkpt><trkpt lat="40.6274245" lon="9.4191597"><ele>677.0</ele><time>2026-04-12T10:50:34.56Z</time></trkpt><trkpt lat="40.6273481" lon="9.4191734"><ele>677.0</ele><time>2026-04-12T10:50:35.546Z</time></trkpt><trkpt lat="40.6272638" lon="9.419211"><ele>677.0</ele><time>2026-04-12T10:50:36.537Z</time></trkpt><trkpt lat="40.6271692" lon="9.4192592"><ele>677.0</ele><time>2026-04-12T10:50:37.539Z</time></trkpt><trkpt lat="40.627059" lon="9.4193104"><ele>677.25</ele><time>2026-04-12T10:50:38.529Z</time></trkpt><trkpt lat="40.6269262" lon="9.4193647"><ele>677.5</ele><time>2026-04-12T10:50:39.541Z</time></trkpt><trkpt lat="40.6267906" lon="9.4194172"><ele>677.75</ele><time>2026-04-12T10:50:40.529Z</time></trkpt><trkpt lat="40.6266629" lon="9.4194747"><ele>678.0</ele><time>2026-04-12T10:50:41.559Z</time></trkpt><trkpt lat="40.6265405" lon="9.4195228"><ele>678.0</ele><time>2026-04-12T10:50:42.528Z</time></trkpt><trkpt lat="40.6264145" lon="9.419579"><ele>678.0</ele><time>2026-04-12T10:50:43.554Z</time></trkpt><trkpt lat="40.6262833" lon="9.419642"><ele>678.0</ele><time>2026-04-12T10:50:44.527Z</time></trkpt><trkpt lat="40.6261596" lon="9.4197003"><ele>678.0</ele><time>2026-04-12T10:50:45.544Z</time></trkpt><trkpt lat="40.6260498" lon="9.4197589"><ele>678.8</ele><time>2026-04-12T10:50:46.531Z</time></trkpt><trkpt lat="40.6259606" lon="9.4197988"><ele>679.5999999999999</ele><time>2026-04-12T10:50:47.526Z</time></trkpt><trkpt lat="40.6258897" lon="9.419838"><ele>680.4000000000001</ele><time>2026-04-12T10:50:48.525Z</time></trkpt><trkpt lat="40.6258101" lon="9.4198903"><ele>681.2</ele><time>2026-04-12T10:50:49.518Z</time></trkpt><trkpt lat="40.6257176" lon="9.4199796"><ele>682.0</ele><time>2026-04-12T10:50:50.511Z</time></trkpt><trkpt lat="40.6256165" lon="9.4200822"><ele>682.0</ele><time>2026-04-12T10:50:51.519Z</time></trkpt><trkpt lat="40.6255023" lon="9.420181"><ele>682.0</ele><time>2026-04-12T10:50:52.528Z</time></trkpt><trkpt lat="40.6253988" lon="9.4202601"><ele>682.0</ele><time>2026-04-12T10:50:53.515Z</time></trkpt><trkpt lat="40.6253072" lon="9.4203314"><ele>682.0</ele><time>2026-04-12T10:50:54.532Z</time></trkpt><trkpt lat="40.6252121" lon="9.4204107"><ele>682.0</ele><time>2026-04-12T10:50:55.515Z</time></trkpt><trkpt lat="40.6251114" lon="9.4204925"><ele>682.0</ele><time>2026-04-12T10:50:56.526Z</time></trkpt><trkpt lat="40.6250161" lon="9.4205775"><ele>682.0</ele><time>2026-04-12T10:50:57.518Z</time></trkpt><trkpt lat="40.6249305" lon="9.4206769"><ele>682.0</ele><time>2026-04-12T10:50:58.509Z</time></trkpt><trkpt lat="40.6248545" lon="9.4207829"><ele>682.0</ele><time>2026-04-12T10:50:59.505Z</time></trkpt><trkpt lat="40.624791" lon="9.420869"><ele>682.0</ele><time>2026-04-12T10:51:00.511Z</time></trkpt><trkpt lat="40.6247339" lon="9.4209419"><ele>682.0</ele><time>2026-04-12T10:51:01.501Z</time></trkpt><trkpt lat="40.6246959" lon="9.4210279"><ele>682.0</ele><time>2026-04-12T10:51:02.502Z</time></trkpt><trkpt lat="40.6246726" lon="9.4211268"><ele>682.0</ele><time>2026-04-12T10:51:03.502Z</time></trkpt><trkpt lat="40.6246537" lon="9.4212303"><ele>682.0</ele><time>2026-04-12T10:51:04.497Z</time></trkpt><trkpt lat="40.6246399" lon="9.4213404"><ele>682.1666666666667</ele><time>2026-04-12T10:51:05.505Z</time></trkpt><trkpt lat="40.6246365" lon="9.4214527"><ele>682.3333333333334</ele><time>2026-04-12T10:51:06.505Z</time></trkpt><trkpt lat="40.6246442" lon="9.4215667"><ele>682.5</ele><time>2026-04-12T10:51:07.487Z</time></trkpt><trkpt lat="40.6246614" lon="9.4216753"><ele>682.6666666666666</ele><time>2026-04-12T10:51:08.512Z</time></trkpt><trkpt lat="40.6246848" lon="9.4217658"><ele>682.8333333333333</ele><time>2026-04-12T10:51:09.506Z</time></trkpt><trkpt lat="40.6247133" lon="9.4218474"><ele>683.0</ele><time>2026-04-12T10:51:10.49Z</time></trkpt><trkpt lat="40.624751" lon="9.4219348"><ele>683.0</ele><time>2026-04-12T10:51:11.497Z</time></trkpt><trkpt lat="40.6247956" lon="9.4220239"><ele>683.0</ele><time>2026-04-12T10:51:12.498Z</time></trkpt><trkpt lat="40.6248475" lon="9.422113"><ele>683.0</ele><time>2026-04-12T10:51:13.481Z</time></trkpt><trkpt lat="40.624901" lon="9.4221984"><ele>683.0</ele><time>2026-04-12T10:51:14.488Z</time></trkpt><trkpt lat="40.6249665" lon="9.4222707"><ele>683.0</ele><time>2026-04-12T10:51:15.485Z</time></trkpt><trkpt lat="40.6250449" lon="9.422324"><ele>683.0</ele><time>2026-04-12T10:51:16.51Z</time></trkpt><trkpt lat="40.6251277" lon="9.4223728"><ele>683.2</ele><time>2026-04-12T10:51:17.487Z</time></trkpt><trkpt lat="40.6252163" lon="9.4224331"><ele>683.4</ele><time>2026-04-12T10:51:18.479Z</time></trkpt><trkpt lat="40.625303" lon="9.4225065"><ele>683.6</ele><time>2026-04-12T10:51:19.48Z</time></trkpt><trkpt lat="40.6253794" lon="9.4225878"><ele>683.8000000000001</ele><time>2026-04-12T10:51:20.478Z</time></trkpt><trkpt lat="40.6254495" lon="9.4226926"><ele>684.0</ele><time>2026-04-12T10:51:21.481Z</time></trkpt><trkpt lat="40.6255212" lon="9.4228122"><ele>684.4000000000001</ele><time>2026-04-12T10:51:22.475Z</time></trkpt><trkpt lat="40.6255835" lon="9.4229314"><ele>684.8</ele><time>2026-04-12T10:51:23.475Z</time></trkpt><trkpt lat="40.6256383" lon="9.4230387"><ele>685.2</ele><time>2026-04-12T10:51:24.487Z</time></trkpt><trkpt lat="40.6256772" lon="9.4231431"><ele>685.5999999999999</ele><time>2026-04-12T10:51:25.472Z</time></trkpt><trkpt lat="40.6256943" lon="9.4232765"><ele>686.0</ele><time>2026-04-12T10:51:26.571Z</time></trkpt><trkpt lat="40.6257051" lon="9.4234119"><ele>686.0</ele><time>2026-04-12T10:51:27.568Z</time></trkpt><trkpt lat="40.6257161" lon="9.4235423"><ele>686.0</ele><time>2026-04-12T10:51:28.568Z</time></trkpt><trkpt lat="40.6257092" lon="9.4236676"><ele>686.0</ele><time>2026-04-12T10:51:29.563Z</time></trkpt><trkpt lat="40.6256974" lon="9.4237835"><ele>686.0</ele><time>2026-04-12T10:51:30.578Z</time></trkpt><trkpt lat="40.6256671" lon="9.4239028"><ele>686.0</ele><time>2026-04-12T10:51:31.573Z</time></trkpt><trkpt lat="40.6256251" lon="9.4240141"><ele>686.1999999999999</ele><time>2026-04-12T10:51:32.566Z</time></trkpt><trkpt lat="40.6255772" lon="9.4241212"><ele>686.4</ele><time>2026-04-12T10:51:33.567Z</time></trkpt><trkpt lat="40.6255146" lon="9.4242206"><ele>686.6</ele><time>2026-04-12T10:51:34.558Z</time></trkpt><trkpt lat="40.6254489" lon="9.4243222"><ele>686.8</ele><time>2026-04-12T10:51:35.56Z</time></trkpt><trkpt lat="40.6253784" lon="9.4244289"><ele>687.0</ele><time>2026-04-12T10:51:36.561Z</time></trkpt><trkpt lat="40.6253072" lon="9.4245303"><ele>687.0</ele><time>2026-04-12T10:51:37.569Z</time></trkpt><trkpt lat="40.6252373" lon="9.4246245"><ele>687.0</ele><time>2026-04-12T10:51:38.563Z</time></trkpt><trkpt lat="40.6251697" lon="9.4247231"><ele>687.0</ele><time>2026-04-12T10:51:39.554Z</time></trkpt><trkpt lat="40.6251018" lon="9.424846"><ele>687.0</ele><time>2026-04-12T10:51:40.561Z</time></trkpt><trkpt lat="40.6250452" lon="9.4249759"><ele>687.0</ele><time>2026-04-12T10:51:41.563Z</time></trkpt><trkpt lat="40.6250062" lon="9.4251206"><ele>686.75</ele><time>2026-04-12T10:51:42.555Z</time></trkpt><trkpt lat="40.6249678" lon="9.4252674"><ele>686.5</ele><time>2026-04-12T10:51:43.561Z</time></trkpt><trkpt lat="40.6249348" lon="9.425417"><ele>686.25</ele><time>2026-04-12T10:51:44.554Z</time></trkpt><trkpt lat="40.6249086" lon="9.4255729"><ele>686.0</ele><time>2026-04-12T10:51:45.574Z</time></trkpt><trkpt lat="40.6248846" lon="9.4257411"><ele>687.0</ele><time>2026-04-12T10:51:46.551Z</time></trkpt><trkpt lat="40.6248539" lon="9.4258986"><ele>688.0</ele><time>2026-04-12T10:51:47.559Z</time></trkpt><trkpt lat="40.6248287" lon="9.4260308"><ele>689.0</ele><time>2026-04-12T10:51:48.555Z</time></trkpt><trkpt lat="40.6247974" lon="9.426141"><ele>690.0</ele><time>2026-04-12T10:51:49.552Z</time></trkpt><trkpt lat="40.6247693" lon="9.4262528"><ele>691.0</ele><time>2026-04-12T10:51:50.539Z</time></trkpt><trkpt lat="40.6247513" lon="9.426377"><ele>691.1999999999999</ele><time>2026-04-12T10:51:51.554Z</time></trkpt><trkpt lat="40.6247446" lon="9.4265225"><ele>691.4</ele><time>2026-04-12T10:51:52.538Z</time></trkpt><trkpt lat="40.6247348" lon="9.4266698"><ele>691.6</ele><time>2026-04-12T10:51:53.585Z</time></trkpt><trkpt lat="40.6247022" lon="9.4268109"><ele>691.8</ele><time>2026-04-12T10:51:54.538Z</time></trkpt><trkpt lat="40.6246519" lon="9.4269348"><ele>692.0</ele><time>2026-04-12T10:51:55.551Z</time></trkpt><trkpt lat="40.6245857" lon="9.427041"><ele>692.0</ele><time>2026-04-12T10:51:56.533Z</time></trkpt><trkpt lat="40.624497" lon="9.4271475"><ele>692.0</ele><time>2026-04-12T10:51:57.54Z</time></trkpt><trkpt lat="40.6243971" lon="9.4272544"><ele>692.0</ele><time>2026-04-12T10:51:58.539Z</time></trkpt><trkpt lat="40.6243082" lon="9.4273703"><ele>692.0</ele><time>2026-04-12T10:51:59.547Z</time></trkpt><trkpt lat="40.6242348" lon="9.4274867"><ele>692.0</ele><time>2026-04-12T10:52:00.543Z</time></trkpt><trkpt lat="40.6241602" lon="9.4276187"><ele>692.0</ele><time>2026-04-12T10:52:01.538Z</time></trkpt><trkpt lat="40.6240948" lon="9.4277744"><ele>692.0</ele><time>2026-04-12T10:52:02.563Z</time></trkpt><trkpt lat="40.6240375" lon="9.427944"><ele>692.0</ele><time>2026-04-12T10:52:03.543Z</time></trkpt><trkpt lat="40.6239912" lon="9.4281253"><ele>692.5</ele><time>2026-04-12T10:52:04.53Z</time></trkpt><trkpt lat="40.6239576" lon="9.4283135"><ele>693.0</ele><time>2026-04-12T10:52:05.544Z</time></trkpt><trkpt lat="40.6239374" lon="9.4284869"><ele>693.5</ele><time>2026-04-12T10:52:06.54Z</time></trkpt><trkpt lat="40.6239186" lon="9.4286486"><ele>694.0</ele><time>2026-04-12T10:52:07.52Z</time></trkpt><trkpt lat="40.6239108" lon="9.4288133"><ele>692.8000000000001</ele><time>2026-04-12T10:52:08.561Z</time></trkpt><trkpt lat="40.6239106" lon="9.4289672"><ele>691.6</ele><time>2026-04-12T10:52:09.522Z</time></trkpt><trkpt lat="40.6239092" lon="9.4291148"><ele>690.4</ele><time>2026-04-12T10:52:10.513Z</time></trkpt><trkpt lat="40.6239155" lon="9.4292523"><ele>689.2</ele><time>2026-04-12T10:52:11.526Z</time></trkpt><trkpt lat="40.6239314" lon="9.4293763"><ele>688.0</ele><time>2026-04-12T10:52:12.516Z</time></trkpt><trkpt lat="40.6239629" lon="9.4294994"><ele>688.0</ele><time>2026-04-12T10:52:13.515Z</time></trkpt><trkpt lat="40.6240049" lon="9.4296087"><ele>688.0</ele><time>2026-04-12T10:52:14.516Z</time></trkpt><trkpt lat="40.6240556" lon="9.4297176"><ele>688.0</ele><time>2026-04-12T10:52:15.516Z</time></trkpt><trkpt lat="40.6241133" lon="9.4298219"><ele>688.0</ele><time>2026-04-12T10:52:16.511Z</time></trkpt><trkpt lat="40.6241684" lon="9.4299157"><ele>688.0</ele><time>2026-04-12T10:52:17.512Z</time></trkpt><trkpt lat="40.6242156" lon="9.4300099"><ele>687.8</ele><time>2026-04-12T10:52:18.504Z</time></trkpt><trkpt lat="40.6242506" lon="9.4301048"><ele>687.5999999999999</ele><time>2026-04-12T10:52:19.517Z</time></trkpt><trkpt lat="40.6242642" lon="9.4302151"><ele>687.4000000000001</ele><time>2026-04-12T10:52:20.503Z</time></trkpt><trkpt lat="40.6242603" lon="9.4303312"><ele>687.2</ele><time>2026-04-12T10:52:21.507Z</time></trkpt><trkpt lat="40.6242463" lon="9.4304586"><ele>687.0</ele><time>2026-04-12T10:52:22.504Z</time></trkpt><trkpt lat="40.62423" lon="9.4305962"><ele>687.0</ele><time>2026-04-12T10:52:23.622Z</time></trkpt><trkpt lat="40.6242106" lon="9.4309065"><ele>687.0</ele><time>2026-04-12T10:52:25.502Z</time></trkpt><trkpt lat="40.6242013" lon="9.4310523"><ele>687.0</ele><time>2026-04-12T10:52:26.494Z</time></trkpt><trkpt lat="40.6241886" lon="9.4311692"><ele>687.0</ele><time>2026-04-12T10:52:27.5Z</time></trkpt><trkpt lat="40.6241723" lon="9.4312859"><ele>687.3333333333334</ele><time>2026-04-12T10:52:28.492Z</time></trkpt><trkpt lat="40.624161" lon="9.4314023"><ele>687.6666666666666</ele><time>2026-04-12T10:52:29.496Z</time></trkpt><trkpt lat="40.6241549" lon="9.4315128"><ele>688.0</ele><time>2026-04-12T10:52:30.492Z</time></trkpt><trkpt lat="40.6241577" lon="9.4316266"><ele>688.3333333333333</ele><time>2026-04-12T10:52:31.489Z</time></trkpt><trkpt lat="40.6241686" lon="9.4317315"><ele>688.6666666666666</ele><time>2026-04-12T10:52:32.485Z</time></trkpt><trkpt lat="40.6241823" lon="9.4318372"><ele>689.0</ele><time>2026-04-12T10:52:33.488Z</time></trkpt><trkpt lat="40.6242032" lon="9.4319353"><ele>689.0</ele><time>2026-04-12T10:52:34.526Z</time></trkpt><trkpt lat="40.6242231" lon="9.4320308"><ele>689.0</ele><time>2026-04-12T10:52:35.496Z</time></trkpt><trkpt lat="40.6242354" lon="9.4321239"><ele>689.0</ele><time>2026-04-12T10:52:36.502Z</time></trkpt><trkpt lat="40.6242482" lon="9.4322177"><ele>689.0</ele><time>2026-04-12T10:52:37.483Z</time></trkpt><trkpt lat="40.6242589" lon="9.4323146"><ele>689.0</ele><time>2026-04-12T10:52:38.496Z</time></trkpt><trkpt lat="40.6242689" lon="9.4324104"><ele>689.0</ele><time>2026-04-12T10:52:39.494Z</time></trkpt><trkpt lat="40.624271" lon="9.4325113"><ele>689.0</ele><time>2026-04-12T10:52:40.477Z</time></trkpt><trkpt lat="40.6242636" lon="9.4326244"><ele>689.8000000000001</ele><time>2026-04-12T10:52:41.471Z</time></trkpt><trkpt lat="40.6242448" lon="9.4327498"><ele>690.6</ele><time>2026-04-12T10:52:42.49Z</time></trkpt><trkpt lat="40.6242156" lon="9.4328808"><ele>691.4</ele><time>2026-04-12T10:52:43.482Z</time></trkpt><trkpt lat="40.6241855" lon="9.4330089"><ele>692.2</ele><time>2026-04-12T10:52:44.47Z</time></trkpt><trkpt lat="40.6241623" lon="9.4331289"><ele>693.0</ele><time>2026-04-12T10:52:45.484Z</time></trkpt><trkpt lat="40.6241528" lon="9.4332403"><ele>693.5</ele><time>2026-04-12T10:52:46.467Z</time></trkpt><trkpt lat="40.624156" lon="9.4333468"><ele>694.0</ele><time>2026-04-12T10:52:47.483Z</time></trkpt><trkpt lat="40.6241703" lon="9.4334371"><ele>694.5</ele><time>2026-04-12T10:52:48.489Z</time></trkpt><trkpt lat="40.6242046" lon="9.4335197"><ele>695.0</ele><time>2026-04-12T10:52:49.495Z</time></trkpt><trkpt lat="40.6242612" lon="9.4335999"><ele>695.5</ele><time>2026-04-12T10:52:50.576Z</time></trkpt><trkpt lat="40.6243253" lon="9.4336751"><ele>696.0</ele><time>2026-04-12T10:52:51.577Z</time></trkpt><trkpt lat="40.6243843" lon="9.433751"><ele>695.8</ele><time>2026-04-12T10:52:52.576Z</time></trkpt><trkpt lat="40.6244272" lon="9.4338411"><ele>695.5999999999999</ele><time>2026-04-12T10:52:53.562Z</time></trkpt><trkpt lat="40.6244593" lon="9.4339433"><ele>695.4</ele><time>2026-04-12T10:52:54.567Z</time></trkpt><trkpt lat="40.6244787" lon="9.4340611"><ele>695.2</ele><time>2026-04-12T10:52:55.571Z</time></trkpt><trkpt lat="40.6244932" lon="9.4342024"><ele>695.0</ele><time>2026-04-12T10:52:56.576Z</time></trkpt><trkpt lat="40.6245132" lon="9.4343411"><ele>696.4</ele><time>2026-04-12T10:52:57.561Z</time></trkpt><trkpt lat="40.6245338" lon="9.4344698"><ele>697.8</ele><time>2026-04-12T10:52:58.572Z</time></trkpt><trkpt lat="40.6245565" lon="9.4345949"><ele>699.2</ele><time>2026-04-12T10:52:59.564Z</time></trkpt><trkpt lat="40.6245952" lon="9.4347144"><ele>700.6</ele><time>2026-04-12T10:53:00.566Z</time></trkpt><trkpt lat="40.6246361" lon="9.4348223"><ele>702.0</ele><time>2026-04-12T10:53:01.586Z</time></trkpt><trkpt lat="40.6246684" lon="9.4349283"><ele>702.0</ele><time>2026-04-12T10:53:02.569Z</time></trkpt><trkpt lat="40.6246807" lon="9.435036"><ele>702.0</ele><time>2026-04-12T10:53:03.552Z</time></trkpt><trkpt lat="40.6246726" lon="9.4351424"><ele>702.0</ele><time>2026-04-12T10:53:04.561Z</time></trkpt><trkpt lat="40.6246559" lon="9.4352595"><ele>702.0</ele><time>2026-04-12T10:53:05.573Z</time></trkpt><trkpt lat="40.624633" lon="9.4353918"><ele>702.0</ele><time>2026-04-12T10:53:06.566Z</time></trkpt><trkpt lat="40.6246125" lon="9.4355226"><ele>700.75</ele><time>2026-04-12T10:53:07.592Z</time></trkpt><trkpt lat="40.6245975" lon="9.4356672"><ele>699.5</ele><time>2026-04-12T10:53:08.555Z</time></trkpt><trkpt lat="40.6245818" lon="9.4358224"><ele>698.25</ele><time>2026-04-12T10:53:09.573Z</time></trkpt><trkpt lat="40.6245725" lon="9.4359803"><ele>697.0</ele><time>2026-04-12T10:53:10.556Z</time></trkpt><trkpt lat="40.6245677" lon="9.4361466"><ele>697.5</ele><time>2026-04-12T10:53:11.556Z</time></trkpt><trkpt lat="40.6245655" lon="9.436317"><ele>698.0</ele><time>2026-04-12T10:53:12.553Z</time></trkpt><trkpt lat="40.6245616" lon="9.4364948"><ele>698.5</ele><time>2026-04-12T10:53:13.561Z</time></trkpt><trkpt lat="40.6245582" lon="9.436674"><ele>699.0</ele><time>2026-04-12T10:53:14.569Z</time></trkpt><trkpt lat="40.6245512" lon="9.4368446"><ele>699.0</ele><time>2026-04-12T10:53:15.563Z</time></trkpt><trkpt lat="40.6245445" lon="9.4369905"><ele>699.0</ele><time>2026-04-12T10:53:16.551Z</time></trkpt><trkpt lat="40.6245408" lon="9.4371258"><ele>699.0</ele><time>2026-04-12T10:53:17.548Z</time></trkpt><trkpt lat="40.6245341" lon="9.4372731"><ele>699.0</ele><time>2026-04-12T10:53:18.54Z</time></trkpt><trkpt lat="40.6245177" lon="9.4374178"><ele>699.0</ele><time>2026-04-12T10:53:19.561Z</time></trkpt><trkpt lat="40.6244952" lon="9.4375388"><ele>699.0</ele><time>2026-04-12T10:53:20.535Z</time></trkpt><trkpt lat="40.6244748" lon="9.4376506"><ele>699.0</ele><time>2026-04-12T10:53:21.55Z</time></trkpt><trkpt lat="40.6244603" lon="9.437761"><ele>699.0</ele><time>2026-04-12T10:53:22.536Z</time></trkpt><trkpt lat="40.6244517" lon="9.4378796"><ele>699.0</ele><time>2026-04-12T10:53:23.542Z</time></trkpt><trkpt lat="40.6244443" lon="9.4379925"><ele>699.0</ele><time>2026-04-12T10:53:24.533Z</time></trkpt><trkpt lat="40.6244244" lon="9.4381112"><ele>699.0</ele><time>2026-04-12T10:53:25.541Z</time></trkpt><trkpt lat="40.6243776" lon="9.438219"><ele>699.0</ele><time>2026-04-12T10:53:26.558Z</time></trkpt><trkpt lat="40.6243147" lon="9.4383023"><ele>699.0</ele><time>2026-04-12T10:53:27.545Z</time></trkpt><trkpt lat="40.6242482" lon="9.4383772"><ele>699.0</ele><time>2026-04-12T10:53:28.532Z</time></trkpt><trkpt lat="40.6241836" lon="9.4384576"><ele>699.0</ele><time>2026-04-12T10:53:29.533Z</time></trkpt><trkpt lat="40.624126" lon="9.4385504"><ele>699.0</ele><time>2026-04-12T10:53:30.543Z</time></trkpt><trkpt lat="40.6240947" lon="9.4386509"><ele>699.0</ele><time>2026-04-12T10:53:31.536Z</time></trkpt><trkpt lat="40.6240752" lon="9.4387654"><ele>699.6</ele><time>2026-04-12T10:53:32.528Z</time></trkpt><trkpt lat="40.6240621" lon="9.4388971"><ele>700.2</ele><time>2026-04-12T10:53:33.544Z</time></trkpt><trkpt lat="40.6240459" lon="9.4390293"><ele>700.8000000000001</ele><time>2026-04-12T10:53:34.526Z</time></trkpt><trkpt lat="40.6240236" lon="9.4391615"><ele>701.4000000000001</ele><time>2026-04-12T10:53:35.528Z</time></trkpt><trkpt lat="40.6239895" lon="9.4393014"><ele>702.0</ele><time>2026-04-12T10:53:36.527Z</time></trkpt><trkpt lat="40.6239509" lon="9.4394449"><ele>702.0</ele><time>2026-04-12T10:53:37.517Z</time></trkpt><trkpt lat="40.6239007" lon="9.4395911"><ele>702.0</ele><time>2026-04-12T10:53:38.517Z</time></trkpt><trkpt lat="40.6238428" lon="9.4397347"><ele>702.0</ele><time>2026-04-12T10:53:39.521Z</time></trkpt><trkpt lat="40.6237853" lon="9.4398854"><ele>702.0</ele><time>2026-04-12T10:53:40.516Z</time></trkpt><trkpt lat="40.6237284" lon="9.4400448"><ele>701.25</ele><time>2026-04-12T10:53:41.517Z</time></trkpt><trkpt lat="40.6236711" lon="9.4401964"><ele>700.5</ele><time>2026-04-12T10:53:42.515Z</time></trkpt><trkpt lat="40.6236126" lon="9.4403378"><ele>699.75</ele><time>2026-04-12T10:53:43.525Z</time></trkpt><trkpt lat="40.6235516" lon="9.4404691"><ele>699.0</ele><time>2026-04-12T10:53:44.518Z</time></trkpt><trkpt lat="40.6234897" lon="9.4405866"><ele>699.0</ele><time>2026-04-12T10:53:45.524Z</time></trkpt><trkpt lat="40.6234357" lon="9.4406931"><ele>699.0</ele><time>2026-04-12T10:53:46.539Z</time></trkpt><trkpt lat="40.6233998" lon="9.440811"><ele>699.0</ele><time>2026-04-12T10:53:47.527Z</time></trkpt><trkpt lat="40.6233629" lon="9.4409532"><ele>699.0</ele><time>2026-04-12T10:53:48.518Z</time></trkpt><trkpt lat="40.6233214" lon="9.4411068"><ele>699.0</ele><time>2026-04-12T10:53:49.517Z</time></trkpt><trkpt lat="40.6232681" lon="9.4412542"><ele>700.0</ele><time>2026-04-12T10:53:50.514Z</time></trkpt><trkpt lat="40.6232147" lon="9.4413881"><ele>701.0</ele><time>2026-04-12T10:53:51.529Z</time></trkpt><trkpt lat="40.6231682" lon="9.441501"><ele>702.0</ele><time>2026-04-12T10:53:52.517Z</time></trkpt><trkpt lat="40.6231218" lon="9.4416109"><ele>703.0</ele><time>2026-04-12T10:53:53.516Z</time></trkpt><trkpt lat="40.6230731" lon="9.4417102"><ele>704.0</ele><time>2026-04-12T10:53:54.514Z</time></trkpt><trkpt lat="40.6230238" lon="9.4418101"><ele>704.0</ele><time>2026-04-12T10:53:55.515Z</time></trkpt><trkpt lat="40.6229767" lon="9.441914"><ele>704.0</ele><time>2026-04-12T10:53:56.525Z</time></trkpt><trkpt lat="40.6229249" lon="9.4420179"><ele>704.0</ele><time>2026-04-12T10:53:57.514Z</time></trkpt><trkpt lat="40.6228776" lon="9.4421287"><ele>704.0</ele><time>2026-04-12T10:53:58.526Z</time></trkpt><trkpt lat="40.6228267" lon="9.4422483"><ele>704.0</ele><time>2026-04-12T10:53:59.508Z</time></trkpt><trkpt lat="40.6227788" lon="9.442382"><ele>700.75</ele><time>2026-04-12T10:54:00.509Z</time></trkpt><trkpt lat="40.6227217" lon="9.4425241"><ele>697.5</ele><time>2026-04-12T10:54:01.511Z</time></trkpt><trkpt lat="40.6226517" lon="9.4426518"><ele>694.25</ele><time>2026-04-12T10:54:02.501Z</time></trkpt><trkpt lat="40.6225886" lon="9.4427696"><ele>691.0</ele><time>2026-04-12T10:54:03.5Z</time></trkpt><trkpt lat="40.6225276" lon="9.4428719"><ele>690.4</ele><time>2026-04-12T10:54:04.503Z</time></trkpt><trkpt lat="40.6224636" lon="9.4429698"><ele>689.8</ele><time>2026-04-12T10:54:05.503Z</time></trkpt><trkpt lat="40.6223919" lon="9.443068"><ele>689.1999999999999</ele><time>2026-04-12T10:54:06.503Z</time></trkpt><trkpt lat="40.622318" lon="9.4431777"><ele>688.5999999999999</ele><time>2026-04-12T10:54:07.494Z</time></trkpt><trkpt lat="40.6222406" lon="9.4433047"><ele>688.0</ele><time>2026-04-12T10:54:08.507Z</time></trkpt><trkpt lat="40.6221575" lon="9.4434383"><ele>688.0</ele><time>2026-04-12T10:54:09.516Z</time></trkpt><trkpt lat="40.622066" lon="9.4435664"><ele>688.0</ele><time>2026-04-12T10:54:10.504Z</time></trkpt><trkpt lat="40.6219814" lon="9.4436803"><ele>688.0</ele><time>2026-04-12T10:54:11.515Z</time></trkpt><trkpt lat="40.6219047" lon="9.4437852"><ele>688.0</ele><time>2026-04-12T10:54:12.505Z</time></trkpt><trkpt lat="40.6218256" lon="9.4438601"><ele>688.2</ele><time>2026-04-12T10:54:13.504Z</time></trkpt><trkpt lat="40.6217428" lon="9.4438977"><ele>688.4</ele><time>2026-04-12T10:54:14.501Z</time></trkpt><trkpt lat="40.6216631" lon="9.4439174"><ele>688.6</ele><time>2026-04-12T10:54:15.502Z</time></trkpt><trkpt lat="40.6215645" lon="9.4439175"><ele>688.8000000000001</ele><time>2026-04-12T10:54:16.5Z</time></trkpt><trkpt lat="40.6214445" lon="9.4438961"><ele>689.0</ele><time>2026-04-12T10:54:17.49Z</time></trkpt><trkpt lat="40.6213171" lon="9.4438631"><ele>689.0</ele><time>2026-04-12T10:54:18.498Z</time></trkpt><trkpt lat="40.6212041" lon="9.4438332"><ele>689.0</ele><time>2026-04-12T10:54:19.5Z</time></trkpt><trkpt lat="40.6211074" lon="9.4437953"><ele>689.0</ele><time>2026-04-12T10:54:20.501Z</time></trkpt><trkpt lat="40.6210106" lon="9.4437434"><ele>689.0</ele><time>2026-04-12T10:54:21.535Z</time></trkpt><trkpt lat="40.6209092" lon="9.4436934"><ele>689.0</ele><time>2026-04-12T10:54:22.485Z</time></trkpt><trkpt lat="40.6208043" lon="9.4436652"><ele>689.2</ele><time>2026-04-12T10:54:23.493Z</time></trkpt><trkpt lat="40.6207081" lon="9.4436466"><ele>689.4000000000001</ele><time>2026-04-12T10:54:24.496Z</time></trkpt><trkpt lat="40.6206151" lon="9.4436321"><ele>689.6</ele><time>2026-04-12T10:54:25.481Z</time></trkpt><trkpt lat="40.6205085" lon="9.4436247"><ele>689.8</ele><time>2026-04-12T10:54:26.493Z</time></trkpt><trkpt lat="40.6204128" lon="9.4436245"><ele>690.0</ele><time>2026-04-12T10:54:27.494Z</time></trkpt><trkpt lat="40.6203272" lon="9.4436384"><ele>690.8</ele><time>2026-04-12T10:54:28.488Z</time></trkpt><trkpt lat="40.6202439" lon="9.4436437"><ele>691.6</ele><time>2026-04-12T10:54:29.494Z</time></trkpt><trkpt lat="40.6201538" lon="9.4436494"><ele>692.4000000000001</ele><time>2026-04-12T10:54:30.493Z</time></trkpt><trkpt lat="40.620059" lon="9.443659"><ele>693.2</ele><time>2026-04-12T10:54:31.511Z</time></trkpt><trkpt lat="40.6199643" lon="9.4436667"><ele>694.0</ele><time>2026-04-12T10:54:32.491Z</time></trkpt><trkpt lat="40.6198713" lon="9.4436787"><ele>694.0</ele><time>2026-04-12T10:54:33.492Z</time></trkpt><trkpt lat="40.6197807" lon="9.4436904"><ele>694.0</ele><time>2026-04-12T10:54:34.486Z</time></trkpt><trkpt lat="40.6196909" lon="9.4437059"><ele>694.0</ele><time>2026-04-12T10:54:35.484Z</time></trkpt><trkpt lat="40.6196023" lon="9.4437213"><ele>694.0</ele><time>2026-04-12T10:54:36.486Z</time></trkpt><trkpt lat="40.6195113" lon="9.4437546"><ele>694.0</ele><time>2026-04-12T10:54:37.58Z</time></trkpt><trkpt lat="40.6194175" lon="9.4437885"><ele>696.25</ele><time>2026-04-12T10:54:38.59Z</time></trkpt><trkpt lat="40.6192287" lon="9.443845"><ele>698.5</ele><time>2026-04-12T10:54:40.492Z</time></trkpt><trkpt lat="40.6191222" lon="9.443874"><ele>700.75</ele><time>2026-04-12T10:54:41.584Z</time></trkpt><trkpt lat="40.6190062" lon="9.4439001"><ele>703.0</ele><time>2026-04-12T10:54:42.569Z</time></trkpt><trkpt lat="40.6188827" lon="9.4439152"><ele>703.0</ele><time>2026-04-12T10:54:43.577Z</time></trkpt><trkpt lat="40.6187563" lon="9.4439207"><ele>703.0</ele><time>2026-04-12T10:54:44.568Z</time></trkpt><trkpt lat="40.6186354" lon="9.4439367"><ele>703.0</ele><time>2026-04-12T10:54:45.581Z</time></trkpt><trkpt lat="40.6185172" lon="9.4439716"><ele>703.0</ele><time>2026-04-12T10:54:46.593Z</time></trkpt><trkpt lat="40.618403" lon="9.4440217"><ele>702.5999999999999</ele><time>2026-04-12T10:54:47.58Z</time></trkpt><trkpt lat="40.6182963" lon="9.4440901"><ele>702.1999999999999</ele><time>2026-04-12T10:54:48.58Z</time></trkpt><trkpt lat="40.6182035" lon="9.4441567"><ele>701.8</ele><time>2026-04-12T10:54:49.565Z</time></trkpt><trkpt lat="40.6181261" lon="9.4442287"><ele>701.4</ele><time>2026-04-12T10:54:50.581Z</time></trkpt><trkpt lat="40.6180605" lon="9.4443109"><ele>701.0</ele><time>2026-04-12T10:54:51.576Z</time></trkpt><trkpt lat="40.6179948" lon="9.4444158"><ele>701.0</ele><time>2026-04-12T10:54:52.569Z</time></trkpt><trkpt lat="40.6179292" lon="9.4445312"><ele>701.0</ele><time>2026-04-12T10:54:53.565Z</time></trkpt><trkpt lat="40.6178636" lon="9.4446479"><ele>701.0</ele><time>2026-04-12T10:54:54.572Z</time></trkpt><trkpt lat="40.6178009" lon="9.4447544"><ele>701.0</ele><time>2026-04-12T10:54:55.559Z</time></trkpt><trkpt lat="40.6177243" lon="9.4448353"><ele>701.0</ele><time>2026-04-12T10:54:56.552Z</time></trkpt><trkpt lat="40.6176358" lon="9.4448862"><ele>701.8</ele><time>2026-04-12T10:54:57.566Z</time></trkpt><trkpt lat="40.6175405" lon="9.4449085"><ele>702.5999999999999</ele><time>2026-04-12T10:54:58.565Z</time></trkpt><trkpt lat="40.6174413" lon="9.4449166"><ele>703.4</ele><time>2026-04-12T10:54:59.568Z</time></trkpt><trkpt lat="40.617336" lon="9.444921"><ele>704.2</ele><time>2026-04-12T10:55:00.552Z</time></trkpt><trkpt lat="40.6172258" lon="9.4449297"><ele>705.0</ele><time>2026-04-12T10:55:01.557Z</time></trkpt><trkpt lat="40.6171095" lon="9.4449449"><ele>705.75</ele><time>2026-04-12T10:55:02.554Z</time></trkpt><trkpt lat="40.6169831" lon="9.4449701"><ele>706.5</ele><time>2026-04-12T10:55:03.563Z</time></trkpt><trkpt lat="40.6168603" lon="9.4450076"><ele>707.25</ele><time>2026-04-12T10:55:04.564Z</time></trkpt><trkpt lat="40.6167592" lon="9.445056"><ele>708.0</ele><time>2026-04-12T10:55:05.547Z</time></trkpt><trkpt lat="40.6166569" lon="9.4450767"><ele>708.0</ele><time>2026-04-12T10:55:06.557Z</time></trkpt><trkpt lat="40.6165457" lon="9.4450803"><ele>708.0</ele><time>2026-04-12T10:55:07.564Z</time></trkpt><trkpt lat="40.6164267" lon="9.4450761"><ele>708.0</ele><time>2026-04-12T10:55:08.553Z</time></trkpt><trkpt lat="40.6163042" lon="9.4450759"><ele>708.0</ele><time>2026-04-12T10:55:09.545Z</time></trkpt><trkpt lat="40.6161904" lon="9.4450819"><ele>708.8333333333334</ele><time>2026-04-12T10:55:10.55Z</time></trkpt><trkpt lat="40.6160931" lon="9.4450799"><ele>709.6666666666666</ele><time>2026-04-12T10:55:11.555Z</time></trkpt><trkpt lat="40.6160108" lon="9.4450884"><ele>710.5</ele><time>2026-04-12T10:55:12.54Z</time></trkpt><trkpt lat="40.6159289" lon="9.445114"><ele>711.3333333333333</ele><time>2026-04-12T10:55:13.55Z</time></trkpt><trkpt lat="40.6158523" lon="9.4451609"><ele>712.1666666666666</ele><time>2026-04-12T10:55:14.55Z</time></trkpt><trkpt lat="40.6157838" lon="9.4452082"><ele>713.0</ele><time>2026-04-12T10:55:15.572Z</time></trkpt><trkpt lat="40.615718" lon="9.4452233"><ele>713.0</ele><time>2026-04-12T10:55:16.551Z</time></trkpt><trkpt lat="40.6156037" lon="9.4451706"><ele>713.0</ele><time>2026-04-12T10:55:18.56Z</time></trkpt><trkpt lat="40.6155154" lon="9.4450403"><ele>713.0</ele><time>2026-04-12T10:55:20.538Z</time></trkpt><trkpt lat="40.615485" lon="9.444947"><ele>713.0</ele><time>2026-04-12T10:55:21.533Z</time></trkpt><trkpt lat="40.615472" lon="9.4448403"><ele>713.0</ele><time>2026-04-12T10:55:22.531Z</time></trkpt><trkpt lat="40.6154682" lon="9.4447256"><ele>712.5999999999999</ele><time>2026-04-12T10:55:23.542Z</time></trkpt><trkpt lat="40.6154707" lon="9.4446061"><ele>712.1999999999999</ele><time>2026-04-12T10:55:24.53Z</time></trkpt><trkpt lat="40.6154772" lon="9.4444915"><ele>711.8</ele><time>2026-04-12T10:55:25.548Z</time></trkpt><trkpt lat="40.6154798" lon="9.4443707"><ele>711.4</ele><time>2026-04-12T10:55:26.534Z</time></trkpt><trkpt lat="40.6154826" lon="9.4442382"><ele>711.0</ele><time>2026-04-12T10:55:27.536Z</time></trkpt><trkpt lat="40.6154773" lon="9.444095"><ele>711.0</ele><time>2026-04-12T10:55:28.533Z</time></trkpt><trkpt lat="40.6154652" lon="9.4439468"><ele>711.0</ele><time>2026-04-12T10:55:29.535Z</time></trkpt><trkpt lat="40.6154421" lon="9.4437955"><ele>711.0</ele><time>2026-04-12T10:55:30.525Z</time></trkpt><trkpt lat="40.6154125" lon="9.4436527"><ele>711.0</ele><time>2026-04-12T10:55:31.556Z</time></trkpt><trkpt lat="40.6153773" lon="9.4435229"><ele>711.0</ele><time>2026-04-12T10:55:32.524Z</time></trkpt><trkpt lat="40.6153352" lon="9.4434057"><ele>711.8</ele><time>2026-04-12T10:55:33.53Z</time></trkpt><trkpt lat="40.615283" lon="9.4432956"><ele>712.5999999999999</ele><time>2026-04-12T10:55:34.525Z</time></trkpt><trkpt lat="40.615235" lon="9.4431835"><ele>713.4</ele><time>2026-04-12T10:55:35.525Z</time></trkpt><trkpt lat="40.6151926" lon="9.4430694"><ele>714.2</ele><time>2026-04-12T10:55:36.551Z</time></trkpt><trkpt lat="40.6151441" lon="9.4429472"><ele>715.0</ele><time>2026-04-12T10:55:37.523Z</time></trkpt><trkpt lat="40.6150924" lon="9.4428329"><ele>717.0</ele><time>2026-04-12T10:55:38.526Z</time></trkpt><trkpt lat="40.6150342" lon="9.4427218"><ele>719.0</ele><time>2026-04-12T10:55:39.53Z</time></trkpt><trkpt lat="40.6149664" lon="9.4426317"><ele>721.0</ele><time>2026-04-12T10:55:40.515Z</time></trkpt><trkpt lat="40.6149041" lon="9.44255"><ele>723.0</ele><time>2026-04-12T10:55:41.517Z</time></trkpt><trkpt lat="40.6148383" lon="9.4424578"><ele>725.0</ele><time>2026-04-12T10:55:42.522Z</time></trkpt><trkpt lat="40.6147624" lon="9.4423523"><ele>725.0</ele><time>2026-04-12T10:55:43.524Z</time></trkpt><trkpt lat="40.6146801" lon="9.4422484"><ele>725.0</ele><time>2026-04-12T10:55:44.523Z</time></trkpt><trkpt lat="40.6145957" lon="9.4421592"><ele>725.0</ele><time>2026-04-12T10:55:45.517Z</time></trkpt><trkpt lat="40.6145209" lon="9.4420802"><ele>725.0</ele><time>2026-04-12T10:55:46.528Z</time></trkpt><trkpt lat="40.6144599" lon="9.4419924"><ele>725.0</ele><time>2026-04-12T10:55:47.531Z</time></trkpt><trkpt lat="40.6144086" lon="9.4418827"><ele>725.4</ele><time>2026-04-12T10:55:48.517Z</time></trkpt><trkpt lat="40.6143534" lon="9.4417723"><ele>725.8</ele><time>2026-04-12T10:55:49.513Z</time></trkpt><trkpt lat="40.6142787" lon="9.4416733"><ele>726.2</ele><time>2026-04-12T10:55:50.508Z</time></trkpt><trkpt lat="40.6141933" lon="9.4415788"><ele>726.6</ele><time>2026-04-12T10:55:51.508Z</time></trkpt><trkpt lat="40.6141041" lon="9.4414723"><ele>727.0</ele><time>2026-04-12T10:55:52.508Z</time></trkpt><trkpt lat="40.6140087" lon="9.4413509"><ele>728.0</ele><time>2026-04-12T10:55:53.514Z</time></trkpt><trkpt lat="40.6139189" lon="9.4412317"><ele>729.0</ele><time>2026-04-12T10:55:54.497Z</time></trkpt><trkpt lat="40.6138374" lon="9.4411132"><ele>730.0</ele><time>2026-04-12T10:55:55.51Z</time></trkpt><trkpt lat="40.6137652" lon="9.4409807"><ele>731.0</ele><time>2026-04-12T10:55:56.501Z</time></trkpt><trkpt lat="40.6136982" lon="9.4408268"><ele>731.25</ele><time>2026-04-12T10:55:57.5Z</time></trkpt><trkpt lat="40.6136365" lon="9.4406606"><ele>731.5</ele><time>2026-04-12T10:55:58.507Z</time></trkpt><trkpt lat="40.6135745" lon="9.4404971"><ele>731.75</ele><time>2026-04-12T10:55:59.575Z</time></trkpt><trkpt lat="40.6135158" lon="9.4403412"><ele>732.0</ele><time>2026-04-12T10:56:00.5Z</time></trkpt><trkpt lat="40.613455" lon="9.4402097"><ele>732.0</ele><time>2026-04-12T10:56:01.51Z</time></trkpt><trkpt lat="40.6133998" lon="9.4400817"><ele>732.0</ele><time>2026-04-12T10:56:02.553Z</time></trkpt><trkpt lat="40.6133343" lon="9.4399872"><ele>732.0</ele><time>2026-04-12T10:56:03.508Z</time></trkpt><trkpt lat="40.6132856" lon="9.4399012"><ele>732.0</ele><time>2026-04-12T10:56:04.511Z</time></trkpt><trkpt lat="40.6132513" lon="9.4398114"><ele>732.0</ele><time>2026-04-12T10:56:05.492Z</time></trkpt><trkpt lat="40.6132224" lon="9.4397026"><ele>732.0</ele><time>2026-04-12T10:56:06.523Z</time></trkpt><trkpt lat="40.6132128" lon="9.4395932"><ele>732.0</ele><time>2026-04-12T10:56:07.517Z</time></trkpt><trkpt lat="40.6132242" lon="9.4394813"><ele>732.0</ele><time>2026-04-12T10:56:08.507Z</time></trkpt><trkpt lat="40.6132422" lon="9.4393842"><ele>732.0</ele><time>2026-04-12T10:56:09.507Z</time></trkpt><trkpt lat="40.6132719" lon="9.4392824"><ele>732.0</ele><time>2026-04-12T10:56:10.514Z</time></trkpt><trkpt lat="40.6133182" lon="9.4391811"><ele>732.0</ele><time>2026-04-12T10:56:11.503Z</time></trkpt><trkpt lat="40.6133914" lon="9.4390711"><ele>732.0</ele><time>2026-04-12T10:56:12.496Z</time></trkpt><trkpt lat="40.6134744" lon="9.4389509"><ele>732.0</ele><time>2026-04-12T10:56:13.507Z</time></trkpt><trkpt lat="40.6135436" lon="9.4388332"><ele>732.0</ele><time>2026-04-12T10:56:14.502Z</time></trkpt><trkpt lat="40.6135939" lon="9.4386998"><ele>732.0</ele><time>2026-04-12T10:56:15.493Z</time></trkpt><trkpt lat="40.613628" lon="9.4385556"><ele>733.0</ele><time>2026-04-12T10:56:16.496Z</time></trkpt><trkpt lat="40.6136625" lon="9.4384103"><ele>734.0</ele><time>2026-04-12T10:56:17.49Z</time></trkpt><trkpt lat="40.6136794" lon="9.4382701"><ele>735.0</ele><time>2026-04-12T10:56:18.489Z</time></trkpt><trkpt lat="40.6136815" lon="9.4381194"><ele>736.0</ele><time>2026-04-12T10:56:19.509Z</time></trkpt><trkpt lat="40.6136852" lon="9.4379796"><ele>737.0</ele><time>2026-04-12T10:56:20.497Z</time></trkpt><trkpt lat="40.6136938" lon="9.4378619"><ele>737.0</ele><time>2026-04-12T10:56:21.483Z</time></trkpt><trkpt lat="40.613701" lon="9.4377476"><ele>737.0</ele><time>2026-04-12T10:56:22.486Z</time></trkpt><trkpt lat="40.6137119" lon="9.437618"><ele>737.0</ele><time>2026-04-12T10:56:23.49Z</time></trkpt><trkpt lat="40.613727" lon="9.4374825"><ele>737.0</ele><time>2026-04-12T10:56:24.492Z</time></trkpt><trkpt lat="40.6137484" lon="9.4373455"><ele>737.0</ele><time>2026-04-12T10:56:25.49Z</time></trkpt><trkpt lat="40.6137745" lon="9.4371971"><ele>738.6</ele><time>2026-04-12T10:56:26.499Z</time></trkpt><trkpt lat="40.6137934" lon="9.4370397"><ele>740.2</ele><time>2026-04-12T10:56:27.497Z</time></trkpt><trkpt lat="40.6138008" lon="9.4369058"><ele>741.8</ele><time>2026-04-12T10:56:28.522Z</time></trkpt><trkpt lat="40.6137903" lon="9.4367798"><ele>743.4</ele><time>2026-04-12T10:56:29.49Z</time></trkpt><trkpt lat="40.6137744" lon="9.4366478"><ele>745.0</ele><time>2026-04-12T10:56:30.488Z</time></trkpt><trkpt lat="40.6137451" lon="9.4365228"><ele>745.0</ele><time>2026-04-12T10:56:31.483Z</time></trkpt><trkpt lat="40.6136994" lon="9.4364248"><ele>745.0</ele><time>2026-04-12T10:56:32.482Z</time></trkpt><trkpt lat="40.613645" lon="9.436351"><ele>745.0</ele><time>2026-04-12T10:56:33.487Z</time></trkpt><trkpt lat="40.6135838" lon="9.4362957"><ele>745.0</ele><time>2026-04-12T10:56:34.488Z</time></trkpt><trkpt lat="40.6135103" lon="9.4362484"><ele>745.0</ele><time>2026-04-12T10:56:35.48Z</time></trkpt><trkpt lat="40.6134251" lon="9.43619"><ele>745.0</ele><time>2026-04-12T10:56:36.486Z</time></trkpt><trkpt lat="40.6133418" lon="9.4361206"><ele>745.0</ele><time>2026-04-12T10:56:37.484Z</time></trkpt><trkpt lat="40.6132672" lon="9.4360371"><ele>745.0</ele><time>2026-04-12T10:56:38.49Z</time></trkpt><trkpt lat="40.6131933" lon="9.4359285"><ele>745.0</ele><time>2026-04-12T10:56:39.489Z</time></trkpt><trkpt lat="40.6131197" lon="9.4358147"><ele>745.0</ele><time>2026-04-12T10:56:40.479Z</time></trkpt><trkpt lat="40.6130422" lon="9.4356997"><ele>745.0</ele><time>2026-04-12T10:56:41.596Z</time></trkpt><trkpt lat="40.6129614" lon="9.4355959"><ele>745.0</ele><time>2026-04-12T10:56:42.586Z</time></trkpt><trkpt lat="40.6128809" lon="9.4354943"><ele>745.0</ele><time>2026-04-12T10:56:43.582Z</time></trkpt><trkpt lat="40.6127979" lon="9.4353899"><ele>745.0</ele><time>2026-04-12T10:56:44.585Z</time></trkpt><trkpt lat="40.6127178" lon="9.4352909"><ele>745.0</ele><time>2026-04-12T10:56:45.583Z</time></trkpt><trkpt lat="40.6126465" lon="9.4352018"><ele>745.0</ele><time>2026-04-12T10:56:46.484Z</time></trkpt><trkpt lat="40.6125782" lon="9.4351124"><ele>744.6</ele><time>2026-04-12T10:56:47.48Z</time></trkpt><trkpt lat="40.6125119" lon="9.4350188"><ele>744.2</ele><time>2026-04-12T10:56:48.578Z</time></trkpt><trkpt lat="40.612442" lon="9.4349173"><ele>743.8</ele><time>2026-04-12T10:56:49.576Z</time></trkpt><trkpt lat="40.6123803" lon="9.4348083"><ele>743.4</ele><time>2026-04-12T10:56:50.577Z</time></trkpt><trkpt lat="40.6123246" lon="9.4346838"><ele>743.0</ele><time>2026-04-12T10:56:51.585Z</time></trkpt><trkpt lat="40.6122815" lon="9.4345537"><ele>743.0</ele><time>2026-04-12T10:56:52.586Z</time></trkpt><trkpt lat="40.6122452" lon="9.4344454"><ele>743.0</ele><time>2026-04-12T10:56:53.583Z</time></trkpt><trkpt lat="40.6122091" lon="9.4343481"><ele>743.0</ele><time>2026-04-12T10:56:54.575Z</time></trkpt><trkpt lat="40.6121823" lon="9.4342468"><ele>743.0</ele><time>2026-04-12T10:56:55.579Z</time></trkpt><trkpt lat="40.6121777" lon="9.4341359"><ele>743.0</ele><time>2026-04-12T10:56:56.569Z</time></trkpt><trkpt lat="40.6121853" lon="9.4340049"><ele>743.0</ele><time>2026-04-12T10:56:57.575Z</time></trkpt><trkpt lat="40.6122017" lon="9.4338857"><ele>743.0</ele><time>2026-04-12T10:56:58.579Z</time></trkpt><trkpt lat="40.6122213" lon="9.4337573"><ele>743.0</ele><time>2026-04-12T10:56:59.583Z</time></trkpt><trkpt lat="40.6122468" lon="9.4336184"><ele>743.0</ele><time>2026-04-12T10:57:00.572Z</time></trkpt><trkpt lat="40.6122797" lon="9.433477"><ele>743.0</ele><time>2026-04-12T10:57:01.576Z</time></trkpt><trkpt lat="40.6123305" lon="9.4333278"><ele>743.0</ele><time>2026-04-12T10:57:02.578Z</time></trkpt><trkpt lat="40.6123856" lon="9.4331678"><ele>743.0</ele><time>2026-04-12T10:57:03.575Z</time></trkpt><trkpt lat="40.6124531" lon="9.432993"><ele>743.0</ele><time>2026-04-12T10:57:04.581Z</time></trkpt><trkpt lat="40.6125244" lon="9.4328251"><ele>743.0</ele><time>2026-04-12T10:57:05.618Z</time></trkpt><trkpt lat="40.6125847" lon="9.43267"><ele>743.0</ele><time>2026-04-12T10:57:06.587Z</time></trkpt><trkpt lat="40.6126357" lon="9.4325337"><ele>743.0</ele><time>2026-04-12T10:57:07.59Z</time></trkpt><trkpt lat="40.6126741" lon="9.4323984"><ele>743.0</ele><time>2026-04-12T10:57:08.581Z</time></trkpt><trkpt lat="40.6126999" lon="9.4322663"><ele>743.0</ele><time>2026-04-12T10:57:09.577Z</time></trkpt><trkpt lat="40.6127156" lon="9.4321269"><ele>743.0</ele><time>2026-04-12T10:57:10.586Z</time></trkpt><trkpt lat="40.6127162" lon="9.4319854"><ele>743.0</ele><time>2026-04-12T10:57:11.57Z</time></trkpt><trkpt lat="40.6127057" lon="9.4318506"><ele>742.4</ele><time>2026-04-12T10:57:12.563Z</time></trkpt><trkpt lat="40.6126902" lon="9.4317189"><ele>741.8</ele><time>2026-04-12T10:57:13.559Z</time></trkpt><trkpt lat="40.6126707" lon="9.431603"><ele>741.2</ele><time>2026-04-12T10:57:14.568Z</time></trkpt><trkpt lat="40.6126376" lon="9.4314864"><ele>740.6</ele><time>2026-04-12T10:57:15.57Z</time></trkpt><trkpt lat="40.6125941" lon="9.4313564"><ele>740.0</ele><time>2026-04-12T10:57:16.56Z</time></trkpt><trkpt lat="40.6125446" lon="9.4312095"><ele>739.25</ele><time>2026-04-12T10:57:17.572Z</time></trkpt><trkpt lat="40.6124916" lon="9.4310406"><ele>738.5</ele><time>2026-04-12T10:57:18.568Z</time></trkpt><trkpt lat="40.6124362" lon="9.4308691"><ele>737.75</ele><time>2026-04-12T10:57:19.564Z</time></trkpt><trkpt lat="40.6123752" lon="9.4306978"><ele>737.0</ele><time>2026-04-12T10:57:20.568Z</time></trkpt><trkpt lat="40.6123051" lon="9.4305347"><ele>736.75</ele><time>2026-04-12T10:57:21.587Z</time></trkpt><trkpt lat="40.6122321" lon="9.4303883"><ele>736.5</ele><time>2026-04-12T10:57:22.566Z</time></trkpt><trkpt lat="40.6121584" lon="9.4302617"><ele>736.25</ele><time>2026-04-12T10:57:23.603Z</time></trkpt><trkpt lat="40.6120937" lon="9.4301416"><ele>736.0</ele><time>2026-04-12T10:57:24.57Z</time></trkpt><trkpt lat="40.6120475" lon="9.4300283"><ele>736.0</ele><time>2026-04-12T10:57:25.555Z</time></trkpt><trkpt lat="40.6120172" lon="9.4299119"><ele>736.0</ele><time>2026-04-12T10:57:26.587Z</time></trkpt><trkpt lat="40.6120069" lon="9.4297945"><ele>736.0</ele><time>2026-04-12T10:57:27.557Z</time></trkpt><trkpt lat="40.6120233" lon="9.4296686"><ele>736.0</ele><time>2026-04-12T10:57:28.585Z</time></trkpt><trkpt lat="40.6120571" lon="9.4295358"><ele>736.0</ele><time>2026-04-12T10:57:29.57Z</time></trkpt><trkpt lat="40.6120901" lon="9.4293872"><ele>735.5999999999999</ele><time>2026-04-12T10:57:30.552Z</time></trkpt><trkpt lat="40.6121118" lon="9.4292447"><ele>735.2</ele><time>2026-04-12T10:57:31.566Z</time></trkpt><trkpt lat="40.6121192" lon="9.4291223"><ele>734.8</ele><time>2026-04-12T10:57:32.559Z</time></trkpt><trkpt lat="40.6120687" lon="9.4289734"><ele>734.4000000000001</ele><time>2026-04-12T10:57:34.567Z</time></trkpt><trkpt lat="40.6120263" lon="9.4288714"><ele>734.0</ele><time>2026-04-12T10:57:35.567Z</time></trkpt><trkpt lat="40.6119923" lon="9.428745"><ele>733.6</ele><time>2026-04-12T10:57:36.569Z</time></trkpt><trkpt lat="40.6119803" lon="9.4286108"><ele>733.2</ele><time>2026-04-12T10:57:37.567Z</time></trkpt><trkpt lat="40.6119774" lon="9.4284896"><ele>732.8000000000001</ele><time>2026-04-12T10:57:38.574Z</time></trkpt><trkpt lat="40.6119579" lon="9.4283905"><ele>732.4000000000001</ele><time>2026-04-12T10:57:39.563Z</time></trkpt><trkpt lat="40.6118957" lon="9.428291"><ele>732.0</ele><time>2026-04-12T10:57:40.565Z</time></trkpt><trkpt lat="40.6118208" lon="9.4281963"><ele>732.0</ele><time>2026-04-12T10:57:41.568Z</time></trkpt><trkpt lat="40.6117467" lon="9.4280887"><ele>732.0</ele><time>2026-04-12T10:57:42.567Z</time></trkpt><trkpt lat="40.6116742" lon="9.4279634"><ele>732.0</ele><time>2026-04-12T10:57:43.571Z</time></trkpt><trkpt lat="40.6115909" lon="9.4278372"><ele>732.0</ele><time>2026-04-12T10:57:44.568Z</time></trkpt><trkpt lat="40.6114922" lon="9.427698"><ele>733.3333333333334</ele><time>2026-04-12T10:57:45.564Z</time></trkpt><trkpt lat="40.6113783" lon="9.4275568"><ele>734.6666666666667</ele><time>2026-04-12T10:57:46.576Z</time></trkpt><trkpt lat="40.6112557" lon="9.4274169"><ele>736.0</ele><time>2026-04-12T10:57:47.566Z</time></trkpt><trkpt lat="40.611135" lon="9.427285"><ele>736.0</ele><time>2026-04-12T10:57:48.556Z</time></trkpt><trkpt lat="40.6110311" lon="9.4271631"><ele>736.0</ele><time>2026-04-12T10:57:49.566Z</time></trkpt><trkpt lat="40.6109324" lon="9.4270341"><ele>736.0</ele><time>2026-04-12T10:57:50.563Z</time></trkpt><trkpt lat="40.6108314" lon="9.426887"><ele>736.0</ele><time>2026-04-12T10:57:51.554Z</time></trkpt><trkpt lat="40.6107295" lon="9.4267367"><ele>736.75</ele><time>2026-04-12T10:57:52.546Z</time></trkpt><trkpt lat="40.6106419" lon="9.4265907"><ele>737.5</ele><time>2026-04-12T10:57:53.559Z</time></trkpt><trkpt lat="40.6105777" lon="9.4264613"><ele>738.25</ele><time>2026-04-12T10:57:54.561Z</time></trkpt><trkpt lat="40.6105393" lon="9.4263298"><ele>739.0</ele><time>2026-04-12T10:57:55.556Z</time></trkpt><trkpt lat="40.6105216" lon="9.4261912"><ele>739.0</ele><time>2026-04-12T10:57:56.55Z</time></trkpt><trkpt lat="40.6105268" lon="9.4260472"><ele>739.0</ele><time>2026-04-12T10:57:57.551Z</time></trkpt><trkpt lat="40.6105412" lon="9.4258997"><ele>739.0</ele><time>2026-04-12T10:57:58.553Z</time></trkpt><trkpt lat="40.6105346" lon="9.425777"><ele>739.0</ele><time>2026-04-12T10:57:59.546Z</time></trkpt><trkpt lat="40.6105108" lon="9.425682"><ele>739.0</ele><time>2026-04-12T10:58:00.555Z</time></trkpt><trkpt lat="40.6104645" lon="9.4255961"><ele>739.0</ele><time>2026-04-12T10:58:01.544Z</time></trkpt><trkpt lat="40.6103914" lon="9.4255074"><ele>739.0</ele><time>2026-04-12T10:58:02.561Z</time></trkpt><trkpt lat="40.6103002" lon="9.4254175"><ele>739.0</ele><time>2026-04-12T10:58:03.559Z</time></trkpt><trkpt lat="40.6102052" lon="9.4252884"><ele>739.0</ele><time>2026-04-12T10:58:04.549Z</time></trkpt><trkpt lat="40.6101101" lon="9.4251433"><ele>737.0</ele><time>2026-04-12T10:58:05.543Z</time></trkpt><trkpt lat="40.6100217" lon="9.4249864"><ele>735.0</ele><time>2026-04-12T10:58:06.541Z</time></trkpt><trkpt lat="40.6099431" lon="9.4248481"><ele>733.0</ele><time>2026-04-12T10:58:07.551Z</time></trkpt><trkpt lat="40.6098732" lon="9.4247164"><ele>731.0</ele><time>2026-04-12T10:58:08.545Z</time></trkpt><trkpt lat="40.6098105" lon="9.4245902"><ele>730.5</ele><time>2026-04-12T10:58:09.548Z</time></trkpt><trkpt lat="40.6097565" lon="9.4244703"><ele>730.0</ele><time>2026-04-12T10:58:10.557Z</time></trkpt><trkpt lat="40.6097123" lon="9.4243394"><ele>729.5</ele><time>2026-04-12T10:58:11.542Z</time></trkpt><trkpt lat="40.6096824" lon="9.4241834"><ele>729.0</ele><time>2026-04-12T10:58:12.566Z</time></trkpt><trkpt lat="40.609664" lon="9.4240167"><ele>729.0</ele><time>2026-04-12T10:58:13.545Z</time></trkpt><trkpt lat="40.6096532" lon="9.4238301"><ele>729.0</ele><time>2026-04-12T10:58:14.539Z</time></trkpt><trkpt lat="40.609634" lon="9.4236317"><ele>729.0</ele><time>2026-04-12T10:58:15.535Z</time></trkpt><trkpt lat="40.6096011" lon="9.4234261"><ele>729.3333333333334</ele><time>2026-04-12T10:58:16.53Z</time></trkpt><trkpt lat="40.6095453" lon="9.4232287"><ele>729.6666666666667</ele><time>2026-04-12T10:58:17.536Z</time></trkpt><trkpt lat="40.609476" lon="9.4230486"><ele>730.0</ele><time>2026-04-12T10:58:18.536Z</time></trkpt><trkpt lat="40.6094134" lon="9.4228751"><ele>729.25</ele><time>2026-04-12T10:58:19.529Z</time></trkpt><trkpt lat="40.6093608" lon="9.4227155"><ele>728.5</ele><time>2026-04-12T10:58:20.536Z</time></trkpt><trkpt lat="40.6093158" lon="9.4225703"><ele>727.75</ele><time>2026-04-12T10:58:21.531Z</time></trkpt><trkpt lat="40.6092755" lon="9.4224088"><ele>727.0</ele><time>2026-04-12T10:58:22.546Z</time></trkpt><trkpt lat="40.6092287" lon="9.422231"><ele>727.25</ele><time>2026-04-12T10:58:23.538Z</time></trkpt><trkpt lat="40.6091816" lon="9.4220623"><ele>727.5</ele><time>2026-04-12T10:58:24.523Z</time></trkpt><trkpt lat="40.6091503" lon="9.4219171"><ele>727.75</ele><time>2026-04-12T10:58:25.533Z</time></trkpt><trkpt lat="40.6091259" lon="9.4217742"><ele>728.0</ele><time>2026-04-12T10:58:26.519Z</time></trkpt><trkpt lat="40.6091121" lon="9.4216059"><ele>728.0</ele><time>2026-04-12T10:58:27.955Z</time></trkpt><trkpt lat="40.6091092" lon="9.4214019"><ele>728.0</ele><time>2026-04-12T10:58:28.959Z</time></trkpt><trkpt lat="40.6091088" lon="9.4211912"><ele>728.0</ele><time>2026-04-12T10:58:29.954Z</time></trkpt><trkpt lat="40.6091044" lon="9.4209868"><ele>727.0</ele><time>2026-04-12T10:58:30.953Z</time></trkpt><trkpt lat="40.6091004" lon="9.4207893"><ele>726.0</ele><time>2026-04-12T10:58:31.968Z</time></trkpt><trkpt lat="40.6090942" lon="9.4206003"><ele>725.0</ele><time>2026-04-12T10:58:32.962Z</time></trkpt><trkpt lat="40.6090927" lon="9.420415"><ele>724.0</ele><time>2026-04-12T10:58:33.956Z</time></trkpt><trkpt lat="40.6090974" lon="9.4202365"><ele>723.4000000000001</ele><time>2026-04-12T10:58:34.952Z</time></trkpt><trkpt lat="40.6090909" lon="9.4200663"><ele>722.8</ele><time>2026-04-12T10:58:35.947Z</time></trkpt><trkpt lat="40.6090687" lon="9.4199201"><ele>722.2</ele><time>2026-04-12T10:58:36.961Z</time></trkpt><trkpt lat="40.6090315" lon="9.4198024"><ele>721.5999999999999</ele><time>2026-04-12T10:58:37.961Z</time></trkpt><trkpt lat="40.6089669" lon="9.4197043"><ele>721.0</ele><time>2026-04-12T10:58:38.956Z</time></trkpt><trkpt lat="40.6088907" lon="9.4195975"><ele>720.25</ele><time>2026-04-12T10:58:39.969Z</time></trkpt><trkpt lat="40.6088134" lon="9.4194768"><ele>719.5</ele><time>2026-04-12T10:58:41.01Z</time></trkpt><trkpt lat="40.6087427" lon="9.4193218"><ele>718.75</ele><time>2026-04-12T10:58:41.967Z</time></trkpt><trkpt lat="40.6086699" lon="9.4191451"><ele>718.0</ele><time>2026-04-12T10:58:42.97Z</time></trkpt><trkpt lat="40.6085938" lon="9.4189686"><ele>717.0</ele><time>2026-04-12T10:58:43.97Z</time></trkpt><trkpt lat="40.6085215" lon="9.4188061"><ele>716.0</ele><time>2026-04-12T10:58:44.966Z</time></trkpt><trkpt lat="40.6084573" lon="9.4186505"><ele>715.0</ele><time>2026-04-12T10:58:45.963Z</time></trkpt><trkpt lat="40.6083885" lon="9.4185085"><ele>714.0</ele><time>2026-04-12T10:58:46.968Z</time></trkpt><trkpt lat="40.6083222" lon="9.41838"><ele>714.0</ele><time>2026-04-12T10:58:47.956Z</time></trkpt><trkpt lat="40.6082583" lon="9.4182639"><ele>714.0</ele><time>2026-04-12T10:58:48.965Z</time></trkpt><trkpt lat="40.6081891" lon="9.4181749"><ele>714.0</ele><time>2026-04-12T10:58:49.978Z</time></trkpt><trkpt lat="40.6081069" lon="9.4181243"><ele>714.0</ele><time>2026-04-12T10:58:50.967Z</time></trkpt><trkpt lat="40.6080113" lon="9.4181126"><ele>714.0</ele><time>2026-04-12T10:58:51.957Z</time></trkpt><trkpt lat="40.6079166" lon="9.4181067"><ele>714.0</ele><time>2026-04-12T10:58:52.97Z</time></trkpt><trkpt lat="40.6078358" lon="9.4180778"><ele>714.0</ele><time>2026-04-12T10:58:53.971Z</time></trkpt><trkpt lat="40.6077743" lon="9.4180139"><ele>714.0</ele><time>2026-04-12T10:58:54.971Z</time></trkpt><trkpt lat="40.607721" lon="9.4179277"><ele>714.0</ele><time>2026-04-12T10:58:55.993Z</time></trkpt><trkpt lat="40.6076744" lon="9.4178142"><ele>714.0</ele><time>2026-04-12T10:58:56.972Z</time></trkpt><trkpt lat="40.6076284" lon="9.4176756"><ele>713.0</ele><time>2026-04-12T10:58:57.973Z</time></trkpt><trkpt lat="40.6075986" lon="9.417521"><ele>712.0</ele><time>2026-04-12T10:58:58.974Z</time></trkpt><trkpt lat="40.6075777" lon="9.4173777"><ele>711.0</ele><time>2026-04-12T10:58:59.972Z</time></trkpt><trkpt lat="40.6075849" lon="9.4172457"><ele>710.0</ele><time>2026-04-12T10:59:00.976Z</time></trkpt><trkpt lat="40.6076169" lon="9.4171359"><ele>709.0</ele><time>2026-04-12T10:59:01.978Z</time></trkpt><trkpt lat="40.6076734" lon="9.4170411"><ele>708.8000000000001</ele><time>2026-04-12T10:59:02.98Z</time></trkpt><trkpt lat="40.6077384" lon="9.416944"><ele>708.6</ele><time>2026-04-12T10:59:03.972Z</time></trkpt><trkpt lat="40.6077731" lon="9.4168507"><ele>708.4</ele><time>2026-04-12T10:59:04.977Z</time></trkpt><trkpt lat="40.607789" lon="9.4167387"><ele>708.2</ele><time>2026-04-12T10:59:06.007Z</time></trkpt><trkpt lat="40.6077957" lon="9.4166073"><ele>708.0</ele><time>2026-04-12T10:59:06.981Z</time></trkpt><trkpt lat="40.6078052" lon="9.416471"><ele>708.0</ele><time>2026-04-12T10:59:07.974Z</time></trkpt><trkpt lat="40.6078029" lon="9.4163257"><ele>708.0</ele><time>2026-04-12T10:59:08.976Z</time></trkpt><trkpt lat="40.6077796" lon="9.4161884"><ele>708.0</ele><time>2026-04-12T10:59:09.981Z</time></trkpt><trkpt lat="40.6077385" lon="9.4160691"><ele>708.0</ele><time>2026-04-12T10:59:10.981Z</time></trkpt><trkpt lat="40.607676" lon="9.415968"><ele>708.0</ele><time>2026-04-12T10:59:11.981Z</time></trkpt><trkpt lat="40.6075968" lon="9.4159017"><ele>708.5</ele><time>2026-04-12T10:59:12.988Z</time></trkpt><trkpt lat="40.6075103" lon="9.4158334"><ele>709.0</ele><time>2026-04-12T10:59:13.985Z</time></trkpt><trkpt lat="40.607407" lon="9.4157611"><ele>709.5</ele><time>2026-04-12T10:59:14.981Z</time></trkpt><trkpt lat="40.6072879" lon="9.4157041"><ele>710.0</ele><time>2026-04-12T10:59:15.983Z</time></trkpt><trkpt lat="40.6071638" lon="9.4156441"><ele>710.0</ele><time>2026-04-12T10:59:16.986Z</time></trkpt><trkpt lat="40.6070527" lon="9.415568"><ele>710.0</ele><time>2026-04-12T10:59:17.987Z</time></trkpt><trkpt lat="40.6069466" lon="9.415508"><ele>710.0</ele><time>2026-04-12T10:59:18.989Z</time></trkpt><trkpt lat="40.6068319" lon="9.4154695"><ele>710.0</ele><time>2026-04-12T10:59:20.004Z</time></trkpt><trkpt lat="40.6066998" lon="9.4154361"><ele>710.0</ele><time>2026-04-12T10:59:20.991Z</time></trkpt><trkpt lat="40.6065564" lon="9.4153999"><ele>710.0</ele><time>2026-04-12T10:59:21.99Z</time></trkpt><trkpt lat="40.606411" lon="9.4153607"><ele>710.0</ele><time>2026-04-12T10:59:22.98Z</time></trkpt><trkpt lat="40.6062715" lon="9.4153313"><ele>710.0</ele><time>2026-04-12T10:59:23.989Z</time></trkpt><trkpt lat="40.6061423" lon="9.4153104"><ele>709.4</ele><time>2026-04-12T10:59:24.987Z</time></trkpt><trkpt lat="40.6060304" lon="9.4152801"><ele>708.8</ele><time>2026-04-12T10:59:25.993Z</time></trkpt><trkpt lat="40.6059369" lon="9.4152253"><ele>708.2</ele><time>2026-04-12T10:59:26.988Z</time></trkpt><trkpt lat="40.6058495" lon="9.415181"><ele>707.6</ele><time>2026-04-12T10:59:27.991Z</time></trkpt><trkpt lat="40.6057607" lon="9.4151861"><ele>707.0</ele><time>2026-04-12T10:59:28.997Z</time></trkpt><trkpt lat="40.6056667" lon="9.4152266"><ele>707.0</ele><time>2026-04-12T10:59:29.99Z</time></trkpt><trkpt lat="40.6055638" lon="9.4152802"><ele>707.0</ele><time>2026-04-12T10:59:31.027Z</time></trkpt><trkpt lat="40.6054511" lon="9.41533"><ele>707.0</ele><time>2026-04-12T10:59:31.996Z</time></trkpt><trkpt lat="40.6053234" lon="9.4153645"><ele>707.0</ele><time>2026-04-12T10:59:32.998Z</time></trkpt><trkpt lat="40.605186" lon="9.4154054"><ele>706.6</ele><time>2026-04-12T10:59:33.996Z</time></trkpt><trkpt lat="40.6050479" lon="9.4154472"><ele>706.2</ele><time>2026-04-12T10:59:34.992Z</time></trkpt><trkpt lat="40.6049299" lon="9.415489"><ele>705.8</ele><time>2026-04-12T10:59:35.984Z</time></trkpt><trkpt lat="40.6048427" lon="9.415514"><ele>705.4</ele><time>2026-04-12T10:59:36.992Z</time></trkpt><trkpt lat="40.6047704" lon="9.4155071"><ele>705.0</ele><time>2026-04-12T10:59:37.998Z</time></trkpt><trkpt lat="40.6046744" lon="9.4154144"><ele>706.2</ele><time>2026-04-12T10:59:39.985Z</time></trkpt><trkpt lat="40.6046469" lon="9.415323"><ele>707.4</ele><time>2026-04-12T10:59:40.983Z</time></trkpt><trkpt lat="40.6046228" lon="9.4152132"><ele>708.5999999999999</ele><time>2026-04-12T10:59:41.986Z</time></trkpt><trkpt lat="40.6046192" lon="9.4150721"><ele>709.8</ele><time>2026-04-12T10:59:42.989Z</time></trkpt><trkpt lat="40.6046143" lon="9.4149022"><ele>711.0</ele><time>2026-04-12T10:59:43.989Z</time></trkpt><trkpt lat="40.6046053" lon="9.414716"><ele>710.75</ele><time>2026-04-12T10:59:44.979Z</time></trkpt><trkpt lat="40.6045933" lon="9.4145256"><ele>710.5</ele><time>2026-04-12T10:59:45.994Z</time></trkpt><trkpt lat="40.6045727" lon="9.4143475"><ele>710.25</ele><time>2026-04-12T10:59:46.994Z</time></trkpt><trkpt lat="40.6045392" lon="9.4141789"><ele>710.0</ele><time>2026-04-12T10:59:47.989Z</time></trkpt><trkpt lat="40.6044902" lon="9.4140521"><ele>710.4</ele><time>2026-04-12T10:59:49.01Z</time></trkpt><trkpt lat="40.6044279" lon="9.4139566"><ele>710.8</ele><time>2026-04-12T10:59:49.995Z</time></trkpt><trkpt lat="40.6043447" lon="9.4138878"><ele>711.2</ele><time>2026-04-12T10:59:50.999Z</time></trkpt><trkpt lat="40.604258" lon="9.4138107"><ele>711.6</ele><time>2026-04-12T10:59:51.991Z</time></trkpt><trkpt lat="40.6041668" lon="9.4137198"><ele>712.0</ele><time>2026-04-12T10:59:52.998Z</time></trkpt><trkpt lat="40.6040781" lon="9.4136194"><ele>712.75</ele><time>2026-04-12T10:59:53.985Z</time></trkpt><trkpt lat="40.6039875" lon="9.4135164"><ele>713.5</ele><time>2026-04-12T10:59:54.988Z</time></trkpt><trkpt lat="40.6038978" lon="9.4134099"><ele>714.25</ele><time>2026-04-12T10:59:55.997Z</time></trkpt><trkpt lat="40.6038091" lon="9.4133162"><ele>715.0</ele><time>2026-04-12T10:59:56.996Z</time></trkpt><trkpt lat="40.6037051" lon="9.4132359"><ele>715.25</ele><time>2026-04-12T10:59:57.994Z</time></trkpt><trkpt lat="40.6035966" lon="9.4131502"><ele>715.5</ele><time>2026-04-12T10:59:58.994Z</time></trkpt><trkpt lat="40.6034792" lon="9.4130574"><ele>715.75</ele><time>2026-04-12T10:59:59.983Z</time></trkpt><trkpt lat="40.603349" lon="9.4129741"><ele>716.0</ele><time>2026-04-12T11:00:00.984Z</time></trkpt><trkpt lat="40.6032265" lon="9.4128923"><ele>716.8</ele><time>2026-04-12T11:00:01.989Z</time></trkpt><trkpt lat="40.60312" lon="9.4128162"><ele>717.5999999999999</ele><time>2026-04-12T11:00:02.985Z</time></trkpt><trkpt lat="40.6030273" lon="9.4127536"><ele>718.4</ele><time>2026-04-12T11:00:03.992Z</time></trkpt><trkpt lat="40.6029454" lon="9.4126897"><ele>719.2</ele><time>2026-04-12T11:00:04.992Z</time></trkpt><trkpt lat="40.602881" lon="9.4126026"><ele>720.0</ele><time>2026-04-12T11:00:05.988Z</time></trkpt><trkpt lat="40.6028412" lon="9.4125345"><ele>720.5</ele><time>2026-04-12T11:00:06.991Z</time></trkpt><trkpt lat="40.6027952" lon="9.412459"><ele>721.0</ele><time>2026-04-12T11:00:08.986Z</time></trkpt><trkpt lat="40.6027256" lon="9.4124066"><ele>721.5</ele><time>2026-04-12T11:00:34.001Z</time></trkpt><trkpt lat="40.6026435" lon="9.4123198"><ele>722.0</ele><time>2026-04-12T11:00:35.994Z</time></trkpt><trkpt lat="40.6025759" lon="9.4122452"><ele>722.5</ele><time>2026-04-12T11:00:36.997Z</time></trkpt><trkpt lat="40.6025044" lon="9.4121701"><ele>723.0</ele><time>2026-04-12T11:00:37.98Z</time></trkpt><trkpt lat="40.6024313" lon="9.4120847"><ele>724.0</ele><time>2026-04-12T11:00:38.996Z</time></trkpt><trkpt lat="40.6023565" lon="9.4120021"><ele>725.0</ele><time>2026-04-12T11:00:39.989Z</time></trkpt><trkpt lat="40.6022795" lon="9.4119187"><ele>726.0</ele><time>2026-04-12T11:00:40.991Z</time></trkpt><trkpt lat="40.6022095" lon="9.4118337"><ele>727.0</ele><time>2026-04-12T11:00:41.983Z</time></trkpt><trkpt lat="40.6021497" lon="9.41176"><ele>728.0</ele><time>2026-04-12T11:00:43.002Z</time></trkpt><trkpt lat="40.602093" lon="9.4116958"><ele>729.0</ele><time>2026-04-12T11:00:44.013Z</time></trkpt><trkpt lat="40.6020416" lon="9.4116296"><ele>729.0</ele><time>2026-04-12T11:00:44.988Z</time></trkpt><trkpt lat="40.6019598" lon="9.4115337"><ele>729.0</ele><time>2026-04-12T11:00:47.003Z</time></trkpt><trkpt lat="40.6019056" lon="9.4114647"><ele>729.0</ele><time>2026-04-12T11:00:48.995Z</time></trkpt><trkpt lat="40.6018515" lon="9.4114124"><ele>729.0</ele><time>2026-04-12T11:00:53.014Z</time></trkpt><trkpt lat="40.6017986" lon="9.4113642"><ele>729.0</ele><time>2026-04-12T11:01:25.013Z</time></trkpt><trkpt lat="40.6017242" lon="9.4113254"><ele>729.0</ele><time>2026-04-12T11:01:26.996Z</time></trkpt><trkpt lat="40.6016027" lon="9.4112445"><ele>729.8000000000001</ele><time>2026-04-12T11:01:29.007Z</time></trkpt><trkpt lat="40.6015207" lon="9.4111845"><ele>730.6</ele><time>2026-04-12T11:01:29.999Z</time></trkpt><trkpt lat="40.6014295" lon="9.4111183"><ele>731.4</ele><time>2026-04-12T11:01:31.001Z</time></trkpt><trkpt lat="40.6013411" lon="9.4110509"><ele>732.2</ele><time>2026-04-12T11:01:31.993Z</time></trkpt><trkpt lat="40.6012542" lon="9.4109716"><ele>733.0</ele><time>2026-04-12T11:01:33.008Z</time></trkpt><trkpt lat="40.6011723" lon="9.4108884"><ele>733.2</ele><time>2026-04-12T11:01:34.002Z</time></trkpt><trkpt lat="40.6010939" lon="9.410803"><ele>733.4</ele><time>2026-04-12T11:01:35.005Z</time></trkpt><trkpt lat="40.6010157" lon="9.4107214"><ele>733.6</ele><time>2026-04-12T11:01:35.998Z</time></trkpt><trkpt lat="40.6009379" lon="9.4106455"><ele>733.8000000000001</ele><time>2026-04-12T11:01:36.998Z</time></trkpt><trkpt lat="40.600865" lon="9.4105782"><ele>734.0</ele><time>2026-04-12T11:01:37.991Z</time></trkpt><trkpt lat="40.600789" lon="9.4105254"><ele>734.0</ele><time>2026-04-12T11:01:38.998Z</time></trkpt><trkpt lat="40.6007046" lon="9.4105015"><ele>734.0</ele><time>2026-04-12T11:01:39.998Z</time></trkpt><trkpt lat="40.6006135" lon="9.4104865"><ele>734.0</ele><time>2026-04-12T11:01:40.99Z</time></trkpt><trkpt lat="40.6005222" lon="9.4104855"><ele>734.0</ele><time>2026-04-12T11:01:41.997Z</time></trkpt><trkpt lat="40.6004253" lon="9.4104965"><ele>734.0</ele><time>2026-04-12T11:01:42.982Z</time></trkpt><trkpt lat="40.6003305" lon="9.4105218"><ele>734.1666666666666</ele><time>2026-04-12T11:01:43.992Z</time></trkpt><trkpt lat="40.6002329" lon="9.4105601"><ele>734.3333333333333</ele><time>2026-04-12T11:01:45.007Z</time></trkpt><trkpt lat="40.6001455" lon="9.4105972"><ele>734.5</ele><time>2026-04-12T11:01:46.012Z</time></trkpt><trkpt lat="40.6000678" lon="9.4106227"><ele>734.6666666666666</ele><time>2026-04-12T11:01:46.999Z</time></trkpt><trkpt lat="40.5999848" lon="9.4106283"><ele>734.8333333333334</ele><time>2026-04-12T11:01:48Z</time></trkpt><trkpt lat="40.599895" lon="9.4106231"><ele>735.0</ele><time>2026-04-12T11:01:48.99Z</time></trkpt><trkpt lat="40.5998" lon="9.4105986"><ele>735.0</ele><time>2026-04-12T11:01:50.002Z</time></trkpt><trkpt lat="40.5997115" lon="9.4105621"><ele>735.0</ele><time>2026-04-12T11:01:50.999Z</time></trkpt><trkpt lat="40.5996299" lon="9.4105267"><ele>735.0</ele><time>2026-04-12T11:01:52.016Z</time></trkpt><trkpt lat="40.5995504" lon="9.4105004"><ele>735.0</ele><time>2026-04-12T11:01:52.987Z</time></trkpt><trkpt lat="40.5994608" lon="9.4104742"><ele>735.0</ele><time>2026-04-12T11:01:53.987Z</time></trkpt><trkpt lat="40.5993721" lon="9.4104415"><ele>735.0</ele><time>2026-04-12T11:01:54.993Z</time></trkpt><trkpt lat="40.5992846" lon="9.4104085"><ele>736.4</ele><time>2026-04-12T11:01:55.998Z</time></trkpt><trkpt lat="40.5991928" lon="9.4103703"><ele>737.8</ele><time>2026-04-12T11:01:56.99Z</time></trkpt><trkpt lat="40.5990989" lon="9.4103205"><ele>739.2</ele><time>2026-04-12T11:01:57.987Z</time></trkpt><trkpt lat="40.5990033" lon="9.410261"><ele>740.6</ele><time>2026-04-12T11:01:58.99Z</time></trkpt><trkpt lat="40.5989079" lon="9.4101863"><ele>742.0</ele><time>2026-04-12T11:01:59.987Z</time></trkpt><trkpt lat="40.5988098" lon="9.410108"><ele>742.0</ele><time>2026-04-12T11:02:00.995Z</time></trkpt><trkpt lat="40.5987025" lon="9.4100254"><ele>742.0</ele><time>2026-04-12T11:02:02.002Z</time></trkpt><trkpt lat="40.5985922" lon="9.4099455"><ele>742.0</ele><time>2026-04-12T11:02:02.985Z</time></trkpt><trkpt lat="40.5984815" lon="9.4098839"><ele>742.0</ele><time>2026-04-12T11:02:03.983Z</time></trkpt><trkpt lat="40.5983684" lon="9.4098366"><ele>741.6</ele><time>2026-04-12T11:02:05.006Z</time></trkpt><trkpt lat="40.5982517" lon="9.4097906"><ele>741.2</ele><time>2026-04-12T11:02:05.987Z</time></trkpt><trkpt lat="40.5981426" lon="9.4097378"><ele>740.8</ele><time>2026-04-12T11:02:07.004Z</time></trkpt><trkpt lat="40.5980493" lon="9.4096728"><ele>740.4</ele><time>2026-04-12T11:02:07.999Z</time></trkpt><trkpt lat="40.597965" lon="9.4095941"><ele>740.0</ele><time>2026-04-12T11:02:08.981Z</time></trkpt><trkpt lat="40.5978876" lon="9.4095053"><ele>741.5</ele><time>2026-04-12T11:02:09.983Z</time></trkpt><trkpt lat="40.5978074" lon="9.409403"><ele>743.0</ele><time>2026-04-12T11:02:11.006Z</time></trkpt><trkpt lat="40.597718" lon="9.4093064"><ele>744.5</ele><time>2026-04-12T11:02:11.998Z</time></trkpt><trkpt lat="40.5976183" lon="9.4092167"><ele>746.0</ele><time>2026-04-12T11:02:12.989Z</time></trkpt><trkpt lat="40.5975219" lon="9.4091291"><ele>746.0</ele><time>2026-04-12T11:02:13.992Z</time></trkpt><trkpt lat="40.5974267" lon="9.4090449"><ele>746.0</ele><time>2026-04-12T11:02:14.997Z</time></trkpt><trkpt lat="40.597339" lon="9.4089691"><ele>746.0</ele><time>2026-04-12T11:02:16.006Z</time></trkpt><trkpt lat="40.5972558" lon="9.4088902"><ele>746.0</ele><time>2026-04-12T11:02:16.988Z</time></trkpt><trkpt lat="40.5971741" lon="9.4088172"><ele>746.0</ele><time>2026-04-12T11:02:17.988Z</time></trkpt><trkpt lat="40.5970941" lon="9.4087434"><ele>749.0</ele><time>2026-04-12T11:02:18.987Z</time></trkpt><trkpt lat="40.5970184" lon="9.4086695"><ele>752.0</ele><time>2026-04-12T11:02:19.988Z</time></trkpt><trkpt lat="40.5969436" lon="9.4085968"><ele>755.0</ele><time>2026-04-12T11:02:20.986Z</time></trkpt><trkpt lat="40.5968617" lon="9.4085297"><ele>758.0</ele><time>2026-04-12T11:02:21.996Z</time></trkpt><trkpt lat="40.5967739" lon="9.4084708"><ele>761.0</ele><time>2026-04-12T11:02:22.998Z</time></trkpt><trkpt lat="40.5966858" lon="9.408414"><ele>761.0</ele><time>2026-04-12T11:02:24.001Z</time></trkpt><trkpt lat="40.5965973" lon="9.4083609"><ele>761.0</ele><time>2026-04-12T11:02:24.986Z</time></trkpt><trkpt lat="40.5965088" lon="9.4083146"><ele>761.0</ele><time>2026-04-12T11:02:25.981Z</time></trkpt><trkpt lat="40.596418" lon="9.4082731"><ele>761.0</ele><time>2026-04-12T11:02:26.982Z</time></trkpt><trkpt lat="40.596324" lon="9.4082403"><ele>761.0</ele><time>2026-04-12T11:02:27.989Z</time></trkpt><trkpt lat="40.5962289" lon="9.408208"><ele>761.1999999999999</ele><time>2026-04-12T11:02:28.977Z</time></trkpt><trkpt lat="40.5961337" lon="9.4081641"><ele>761.4</ele><time>2026-04-12T11:02:29.998Z</time></trkpt><trkpt lat="40.5960359" lon="9.4081183"><ele>761.6</ele><time>2026-04-12T11:02:30.984Z</time></trkpt><trkpt lat="40.5959444" lon="9.4080704"><ele>761.8</ele><time>2026-04-12T11:02:31.984Z</time></trkpt><trkpt lat="40.5958497" lon="9.4080222"><ele>762.0</ele><time>2026-04-12T11:02:32.976Z</time></trkpt><trkpt lat="40.5957512" lon="9.407978"><ele>765.4000000000001</ele><time>2026-04-12T11:02:33.993Z</time></trkpt><trkpt lat="40.5956488" lon="9.4079445"><ele>768.8000000000001</ele><time>2026-04-12T11:02:34.989Z</time></trkpt><trkpt lat="40.5955436" lon="9.4079257"><ele>772.2</ele><time>2026-04-12T11:02:35.99Z</time></trkpt><trkpt lat="40.5954483" lon="9.4079294"><ele>775.6</ele><time>2026-04-12T11:02:36.979Z</time></trkpt><trkpt lat="40.5953566" lon="9.4079574"><ele>779.0</ele><time>2026-04-12T11:02:37.983Z</time></trkpt><trkpt lat="40.5952776" lon="9.4079982"><ele>779.0000000000001</ele><time>2026-04-12T11:02:38.99Z</time></trkpt><trkpt lat="40.5952074" lon="9.4080736"><ele>779.0</ele><time>2026-04-12T11:02:39.983Z</time></trkpt><trkpt lat="40.5951427" lon="9.4081755"><ele>779.0</ele><time>2026-04-12T11:02:40.976Z</time></trkpt><trkpt lat="40.5950922" lon="9.4082812"><ele>779.0</ele><time>2026-04-12T11:02:41.993Z</time></trkpt><trkpt lat="40.595046" lon="9.4083759"><ele>779.0000000000001</ele><time>2026-04-12T11:02:42.991Z</time></trkpt><trkpt lat="40.595003" lon="9.4084389"><ele>779.0</ele><time>2026-04-12T11:02:43.995Z</time></trkpt><trkpt lat="40.5949226" lon="9.4084484"><ele>779.0000000000001</ele><time>2026-04-12T11:02:45.984Z</time></trkpt><trkpt lat="40.5949127" lon="9.4083245"><ele>779.0</ele><time>2026-04-12T11:02:48.007Z</time></trkpt><trkpt lat="40.5949324" lon="9.408234"><ele>779.0</ele><time>2026-04-12T11:02:49.009Z</time></trkpt><trkpt lat="40.5949578" lon="9.4081334"><ele>779.0</ele><time>2026-04-12T11:02:49.996Z</time></trkpt><trkpt lat="40.5949721" lon="9.4080176"><ele>779.0000000000001</ele><time>2026-04-12T11:02:51.006Z</time></trkpt><trkpt lat="40.5949841" lon="9.4078941"><ele>779.0</ele><time>2026-04-12T11:02:51.991Z</time></trkpt><trkpt lat="40.5949905" lon="9.4077717"><ele>780.6666666666667</ele><time>2026-04-12T11:02:52.994Z</time></trkpt><trkpt lat="40.5949972" lon="9.407648"><ele>782.3333333333334</ele><time>2026-04-12T11:02:53.987Z</time></trkpt><trkpt lat="40.5950014" lon="9.4075414"><ele>784.0</ele><time>2026-04-12T11:02:54.995Z</time></trkpt><trkpt lat="40.595007" lon="9.4074585"><ele>785.6666666666667</ele><time>2026-04-12T11:02:56.007Z</time></trkpt><trkpt lat="40.5950024" lon="9.4073428"><ele>787.3333333333334</ele><time>2026-04-12T11:02:57.994Z</time></trkpt><trkpt lat="40.594978" lon="9.4072459"><ele>789.0</ele><time>2026-04-12T11:03:01.994Z</time></trkpt><trkpt lat="40.594925" lon="9.4071707"><ele>789.6666666666666</ele><time>2026-04-12T11:03:22.897Z</time></trkpt><trkpt lat="40.5948837" lon="9.407075"><ele>790.3333333333333</ele><time>2026-04-12T11:03:25.923Z</time></trkpt><trkpt lat="40.5948786" lon="9.4069867"><ele>791.0</ele><time>2026-04-12T11:03:27.907Z</time></trkpt><trkpt lat="40.5949072" lon="9.4068969"><ele>791.6666666666666</ele><time>2026-04-12T11:03:29.9Z</time></trkpt><trkpt lat="40.594924" lon="9.4067967"><ele>792.3333333333333</ele><time>2026-04-12T11:03:31.913Z</time></trkpt><trkpt lat="40.5949257" lon="9.4066677"><ele>793.0</ele><time>2026-04-12T11:03:33.899Z</time></trkpt><trkpt lat="40.5949221" lon="9.4065507"><ele>792.9999999999999</ele><time>2026-04-12T11:03:36.014Z</time></trkpt><trkpt lat="40.5949173" lon="9.4064632"><ele>793.0</ele><time>2026-04-12T11:03:38.001Z</time></trkpt><trkpt lat="40.5949103" lon="9.406378"><ele>793.0</ele><time>2026-04-12T11:03:40.016Z</time></trkpt><trkpt lat="40.5949" lon="9.4062686"><ele>793.0</ele><time>2026-04-12T11:03:42.026Z</time></trkpt><trkpt lat="40.5948851" lon="9.4061374"><ele>792.9999999999999</ele><time>2026-04-12T11:03:43.996Z</time></trkpt><trkpt lat="40.5948616" lon="9.4060093"><ele>793.0</ele><time>2026-04-12T11:03:45.994Z</time></trkpt><trkpt lat="40.5948393" lon="9.4058877"><ele>792.4999999999999</ele><time>2026-04-12T11:03:47.993Z</time></trkpt><trkpt lat="40.5948138" lon="9.405761"><ele>792.0</ele><time>2026-04-12T11:03:49.996Z</time></trkpt><trkpt lat="40.5947895" lon="9.4056428"><ele>791.5</ele><time>2026-04-12T11:03:51.992Z</time></trkpt><trkpt lat="40.5947738" lon="9.4055508"><ele>791.0</ele><time>2026-04-12T11:03:54.001Z</time></trkpt><trkpt lat="40.5947521" lon="9.4054682"><ele>790.4999999999999</ele><time>2026-04-12T11:03:57.989Z</time></trkpt><trkpt lat="40.5947183" lon="9.405394"><ele>790.0</ele><time>2026-04-12T11:04:01.995Z</time></trkpt><trkpt lat="40.5946905" lon="9.4052729"><ele>789.4999999999999</ele><time>2026-04-12T11:04:04.963Z</time></trkpt><trkpt lat="40.5946551" lon="9.4051304"><ele>789.0</ele><time>2026-04-12T11:04:07.004Z</time></trkpt><trkpt lat="40.5946311" lon="9.4049689"><ele>788.5</ele><time>2026-04-12T11:04:08.982Z</time></trkpt><trkpt lat="40.594613" lon="9.4048767"><ele>788.0</ele><time>2026-04-12T11:04:09.981Z</time></trkpt><trkpt lat="40.5945972" lon="9.4047837"><ele>787.4999999999999</ele><time>2026-04-12T11:04:10.971Z</time></trkpt><trkpt lat="40.5945811" lon="9.4047025"><ele>787.0</ele><time>2026-04-12T11:04:11.987Z</time></trkpt><trkpt lat="40.5945647" lon="9.4046161"><ele>786.9999999999999</ele><time>2026-04-12T11:04:12.992Z</time></trkpt><trkpt lat="40.5945469" lon="9.4045205"><ele>787.0</ele><time>2026-04-12T11:04:13.974Z</time></trkpt><trkpt lat="40.5945282" lon="9.4044193"><ele>787.0</ele><time>2026-04-12T11:04:14.968Z</time></trkpt><trkpt lat="40.5945086" lon="9.4043245"><ele>787.0</ele><time>2026-04-12T11:04:15.958Z</time></trkpt><trkpt lat="40.5944858" lon="9.404229"><ele>786.9999999999999</ele><time>2026-04-12T11:04:16.953Z</time></trkpt><trkpt lat="40.5944581" lon="9.4041281"><ele>787.0</ele><time>2026-04-12T11:04:17.949Z</time></trkpt><trkpt lat="40.5944271" lon="9.4040247"><ele>786.0</ele><time>2026-04-12T11:04:18.961Z</time></trkpt><trkpt lat="40.594389" lon="9.4039186"><ele>785.0</ele><time>2026-04-12T11:04:19.953Z</time></trkpt><trkpt lat="40.5943465" lon="9.403814"><ele>784.0</ele><time>2026-04-12T11:04:20.963Z</time></trkpt><trkpt lat="40.5943008" lon="9.4037124"><ele>783.0</ele><time>2026-04-12T11:04:21.966Z</time></trkpt><trkpt lat="40.5942516" lon="9.4036096"><ele>782.0</ele><time>2026-04-12T11:04:22.965Z</time></trkpt><trkpt lat="40.5942034" lon="9.4035061"><ele>782.0000000000001</ele><time>2026-04-12T11:04:23.981Z</time></trkpt><trkpt lat="40.594154" lon="9.4034091"><ele>782.0</ele><time>2026-04-12T11:04:24.957Z</time></trkpt><trkpt lat="40.5941083" lon="9.4033149"><ele>782.0</ele><time>2026-04-12T11:04:25.955Z</time></trkpt><trkpt lat="40.5940632" lon="9.4032199"><ele>782.0</ele><time>2026-04-12T11:04:26.958Z</time></trkpt><trkpt lat="40.5940132" lon="9.4031248"><ele>782.0000000000001</ele><time>2026-04-12T11:04:27.966Z</time></trkpt><trkpt lat="40.5939621" lon="9.4030296"><ele>782.0</ele><time>2026-04-12T11:04:28.957Z</time></trkpt><trkpt lat="40.5939098" lon="9.4029316"><ele>782.0</ele><time>2026-04-12T11:04:29.945Z</time></trkpt><trkpt lat="40.5938597" lon="9.4028369"><ele>782.0</ele><time>2026-04-12T11:04:30.956Z</time></trkpt><trkpt lat="40.5938196" lon="9.4027419"><ele>782.0</ele><time>2026-04-12T11:04:31.959Z</time></trkpt><trkpt lat="40.5937832" lon="9.4026364"><ele>782.0</ele><time>2026-04-12T11:04:32.968Z</time></trkpt><trkpt lat="40.5937546" lon="9.4025187"><ele>782.0</ele><time>2026-04-12T11:04:33.955Z</time></trkpt><trkpt lat="40.5937464" lon="9.4023871"><ele>782.0</ele><time>2026-04-12T11:04:34.944Z</time></trkpt><trkpt lat="40.5937438" lon="9.4022598"><ele>782.0</ele><time>2026-04-12T11:04:35.935Z</time></trkpt><trkpt lat="40.5937356" lon="9.4021319"><ele>782.0</ele><time>2026-04-12T11:04:36.935Z</time></trkpt><trkpt lat="40.5937172" lon="9.4020069"><ele>782.0</ele><time>2026-04-12T11:04:37.953Z</time></trkpt><trkpt lat="40.5936891" lon="9.4018823"><ele>782.0</ele><time>2026-04-12T11:04:38.951Z</time></trkpt><trkpt lat="40.5936545" lon="9.4017541"><ele>780.4000000000001</ele><time>2026-04-12T11:04:39.952Z</time></trkpt><trkpt lat="40.5936194" lon="9.4016228"><ele>778.8000000000001</ele><time>2026-04-12T11:04:40.95Z</time></trkpt><trkpt lat="40.5935843" lon="9.4014966"><ele>777.2</ele><time>2026-04-12T11:04:41.938Z</time></trkpt><trkpt lat="40.5935568" lon="9.4013727"><ele>775.6</ele><time>2026-04-12T11:04:42.929Z</time></trkpt><trkpt lat="40.5935399" lon="9.4012482"><ele>774.0</ele><time>2026-04-12T11:04:43.93Z</time></trkpt><trkpt lat="40.5935265" lon="9.4011188"><ele>773.6</ele><time>2026-04-12T11:04:44.926Z</time></trkpt><trkpt lat="40.5935225" lon="9.400981"><ele>773.2</ele><time>2026-04-12T11:04:45.928Z</time></trkpt><trkpt lat="40.5935099" lon="9.4008507"><ele>772.8000000000001</ele><time>2026-04-12T11:04:46.924Z</time></trkpt><trkpt lat="40.5934897" lon="9.4007233"><ele>772.4000000000001</ele><time>2026-04-12T11:04:47.92Z</time></trkpt><trkpt lat="40.5934582" lon="9.4006008"><ele>772.0</ele><time>2026-04-12T11:04:48.933Z</time></trkpt><trkpt lat="40.5934152" lon="9.4004775"><ele>771.25</ele><time>2026-04-12T11:04:49.932Z</time></trkpt><trkpt lat="40.5933672" lon="9.4003407"><ele>770.5</ele><time>2026-04-12T11:04:50.921Z</time></trkpt><trkpt lat="40.5933179" lon="9.4002016"><ele>769.75</ele><time>2026-04-12T11:04:51.921Z</time></trkpt><trkpt lat="40.5932673" lon="9.4000584"><ele>769.0</ele><time>2026-04-12T11:04:52.922Z</time></trkpt><trkpt lat="40.5932233" lon="9.3999065"><ele>769.0</ele><time>2026-04-12T11:04:53.929Z</time></trkpt><trkpt lat="40.5931922" lon="9.3997496"><ele>769.0</ele><time>2026-04-12T11:04:54.943Z</time></trkpt><trkpt lat="40.5931646" lon="9.3995841"><ele>769.0</ele><time>2026-04-12T11:04:55.918Z</time></trkpt><trkpt lat="40.5931273" lon="9.3994301"><ele>769.0</ele><time>2026-04-12T11:04:56.909Z</time></trkpt><trkpt lat="40.5930796" lon="9.3992811"><ele>769.0</ele><time>2026-04-12T11:04:57.922Z</time></trkpt><trkpt lat="40.5930259" lon="9.3991507"><ele>769.0</ele><time>2026-04-12T11:04:58.92Z</time></trkpt><trkpt lat="40.5929685" lon="9.3990337"><ele>769.0</ele><time>2026-04-12T11:04:59.922Z</time></trkpt><trkpt lat="40.5929197" lon="9.3989252"><ele>769.0</ele><time>2026-04-12T11:05:00.923Z</time></trkpt><trkpt lat="40.592873" lon="9.3988227"><ele>769.0</ele><time>2026-04-12T11:05:01.92Z</time></trkpt><trkpt lat="40.5928329" lon="9.3987279"><ele>769.4000000000001</ele><time>2026-04-12T11:05:02.923Z</time></trkpt><trkpt lat="40.5927956" lon="9.3986316"><ele>769.8</ele><time>2026-04-12T11:05:03.918Z</time></trkpt><trkpt lat="40.5927583" lon="9.3985313"><ele>770.2</ele><time>2026-04-12T11:05:04.923Z</time></trkpt><trkpt lat="40.5927255" lon="9.3984145"><ele>770.5999999999999</ele><time>2026-04-12T11:05:05.912Z</time></trkpt><trkpt lat="40.5926971" lon="9.398284"><ele>771.0</ele><time>2026-04-12T11:05:06.912Z</time></trkpt><trkpt lat="40.5926684" lon="9.3981542"><ele>771.0</ele><time>2026-04-12T11:05:07.915Z</time></trkpt><trkpt lat="40.5926356" lon="9.398019"><ele>771.0</ele><time>2026-04-12T11:05:08.911Z</time></trkpt><trkpt lat="40.5926066" lon="9.397888"><ele>771.0</ele><time>2026-04-12T11:05:09.915Z</time></trkpt><trkpt lat="40.5925789" lon="9.3977503"><ele>771.0</ele><time>2026-04-12T11:05:10.905Z</time></trkpt><trkpt lat="40.5925558" lon="9.3976136"><ele>771.0</ele><time>2026-04-12T11:05:11.911Z</time></trkpt><trkpt lat="40.5925338" lon="9.3974779"><ele>770.4</ele><time>2026-04-12T11:05:12.91Z</time></trkpt><trkpt lat="40.5925041" lon="9.3973451"><ele>769.8</ele><time>2026-04-12T11:05:13.904Z</time></trkpt><trkpt lat="40.5924688" lon="9.3972196"><ele>769.1999999999999</ele><time>2026-04-12T11:05:14.994Z</time></trkpt><trkpt lat="40.5924379" lon="9.3970928"><ele>768.5999999999999</ele><time>2026-04-12T11:05:15.913Z</time></trkpt><trkpt lat="40.5924132" lon="9.3969643"><ele>768.0</ele><time>2026-04-12T11:05:16.909Z</time></trkpt><trkpt lat="40.5923903" lon="9.3968202"><ele>766.5999999999999</ele><time>2026-04-12T11:05:17.904Z</time></trkpt><trkpt lat="40.5923692" lon="9.3966728"><ele>765.1999999999999</ele><time>2026-04-12T11:05:18.903Z</time></trkpt><trkpt lat="40.592351" lon="9.3965282"><ele>763.8</ele><time>2026-04-12T11:05:19.912Z</time></trkpt><trkpt lat="40.5923349" lon="9.3963841"><ele>762.4</ele><time>2026-04-12T11:05:20.904Z</time></trkpt><trkpt lat="40.5923186" lon="9.3962494"><ele>761.0</ele><time>2026-04-12T11:05:21.9Z</time></trkpt><trkpt lat="40.592292" lon="9.3961153"><ele>761.0</ele><time>2026-04-12T11:05:22.936Z</time></trkpt><trkpt lat="40.5922642" lon="9.3959811"><ele>761.0</ele><time>2026-04-12T11:05:23.898Z</time></trkpt><trkpt lat="40.5922328" lon="9.39584"><ele>761.0</ele><time>2026-04-12T11:05:24.923Z</time></trkpt><trkpt lat="40.5921903" lon="9.3957034"><ele>761.0</ele><time>2026-04-12T11:05:25.913Z</time></trkpt><trkpt lat="40.5921449" lon="9.3955706"><ele>761.0</ele><time>2026-04-12T11:05:26.904Z</time></trkpt><trkpt lat="40.5920997" lon="9.3954451"><ele>760.8</ele><time>2026-04-12T11:05:27.914Z</time></trkpt><trkpt lat="40.5920709" lon="9.3953168"><ele>760.5999999999999</ele><time>2026-04-12T11:05:28.913Z</time></trkpt><trkpt lat="40.5920505" lon="9.3951821"><ele>760.4</ele><time>2026-04-12T11:05:29.921Z</time></trkpt><trkpt lat="40.5920469" lon="9.3950475"><ele>760.2</ele><time>2026-04-12T11:05:30.901Z</time></trkpt><trkpt lat="40.5920512" lon="9.3948996"><ele>760.0</ele><time>2026-04-12T11:05:31.915Z</time></trkpt><trkpt lat="40.5920694" lon="9.3947489"><ele>758.6</ele><time>2026-04-12T11:05:32.912Z</time></trkpt><trkpt lat="40.5920897" lon="9.3946022"><ele>757.2</ele><time>2026-04-12T11:05:33.913Z</time></trkpt><trkpt lat="40.5921099" lon="9.3944644"><ele>755.8</ele><time>2026-04-12T11:05:34.908Z</time></trkpt><trkpt lat="40.5921367" lon="9.3943353"><ele>754.4</ele><time>2026-04-12T11:05:35.938Z</time></trkpt><trkpt lat="40.5921708" lon="9.3942127"><ele>753.0</ele><time>2026-04-12T11:05:36.931Z</time></trkpt><trkpt lat="40.5922136" lon="9.3941038"><ele>753.0</ele><time>2026-04-12T11:05:37.92Z</time></trkpt><trkpt lat="40.592272" lon="9.3940126"><ele>753.0</ele><time>2026-04-12T11:05:38.92Z</time></trkpt><trkpt lat="40.5923424" lon="9.3939351"><ele>753.0</ele><time>2026-04-12T11:05:39.911Z</time></trkpt><trkpt lat="40.5924077" lon="9.3938571"><ele>753.0</ele><time>2026-04-12T11:05:40.911Z</time></trkpt><trkpt lat="40.5924519" lon="9.3937757"><ele>753.0</ele><time>2026-04-12T11:05:41.922Z</time></trkpt><trkpt lat="40.5924613" lon="9.3936338"><ele>752.8</ele><time>2026-04-12T11:05:43.91Z</time></trkpt><trkpt lat="40.5924339" lon="9.3935133"><ele>752.5999999999999</ele><time>2026-04-12T11:05:45.911Z</time></trkpt><trkpt lat="40.5924367" lon="9.3933955"><ele>752.4000000000001</ele><time>2026-04-12T11:05:47.913Z</time></trkpt><trkpt lat="40.5925081" lon="9.3933321"><ele>752.2</ele><time>2026-04-12T11:05:49.907Z</time></trkpt><trkpt lat="40.5926336" lon="9.3933208"><ele>752.0</ele><time>2026-04-12T11:05:51.913Z</time></trkpt><trkpt lat="40.5927138" lon="9.3933211"><ele>752.0</ele><time>2026-04-12T11:05:52.914Z</time></trkpt><trkpt lat="40.5928008" lon="9.3933224"><ele>752.0</ele><time>2026-04-12T11:05:53.916Z</time></trkpt><trkpt lat="40.5928904" lon="9.3933316"><ele>752.0</ele><time>2026-04-12T11:05:54.912Z</time></trkpt><trkpt lat="40.5929848" lon="9.3933539"><ele>752.0</ele><time>2026-04-12T11:05:55.916Z</time></trkpt><trkpt lat="40.5930829" lon="9.393385"><ele>752.0</ele><time>2026-04-12T11:05:56.923Z</time></trkpt><trkpt lat="40.5931895" lon="9.3934152"><ele>751.75</ele><time>2026-04-12T11:05:57.901Z</time></trkpt><trkpt lat="40.593303" lon="9.3934467"><ele>751.5</ele><time>2026-04-12T11:05:58.936Z</time></trkpt><trkpt lat="40.5934238" lon="9.3934878"><ele>751.25</ele><time>2026-04-12T11:05:59.914Z</time></trkpt><trkpt lat="40.5935426" lon="9.3935352"><ele>751.0</ele><time>2026-04-12T11:06:00.917Z</time></trkpt><trkpt lat="40.5936542" lon="9.3935827"><ele>750.4</ele><time>2026-04-12T11:06:01.912Z</time></trkpt><trkpt lat="40.5937552" lon="9.393629"><ele>749.8</ele><time>2026-04-12T11:06:02.913Z</time></trkpt><trkpt lat="40.593847" lon="9.3936712"><ele>749.1999999999999</ele><time>2026-04-12T11:06:03.906Z</time></trkpt><trkpt lat="40.5939173" lon="9.3937144"><ele>748.5999999999999</ele><time>2026-04-12T11:06:04.933Z</time></trkpt><trkpt lat="40.5940092" lon="9.3937296"><ele>748.0</ele><time>2026-04-12T11:06:06.895Z</time></trkpt><trkpt lat="40.5940614" lon="9.3936401"><ele>748.0</ele><time>2026-04-12T11:06:08.908Z</time></trkpt><trkpt lat="40.5940293" lon="9.3934788"><ele>748.0</ele><time>2026-04-12T11:06:10.903Z</time></trkpt><trkpt lat="40.5940034" lon="9.3933725"><ele>748.0</ele><time>2026-04-12T11:06:11.895Z</time></trkpt><trkpt lat="40.59399" lon="9.3932549"><ele>748.0</ele><time>2026-04-12T11:06:12.915Z</time></trkpt><trkpt lat="40.5939848" lon="9.3931277"><ele>748.0</ele><time>2026-04-12T11:06:13.904Z</time></trkpt><trkpt lat="40.5939885" lon="9.3929986"><ele>748.6666666666667</ele><time>2026-04-12T11:06:14.909Z</time></trkpt><trkpt lat="40.5939938" lon="9.3928835"><ele>749.3333333333334</ele><time>2026-04-12T11:06:15.9Z</time></trkpt><trkpt lat="40.5939985" lon="9.3927697"><ele>750.0</ele><time>2026-04-12T11:06:16.894Z</time></trkpt><trkpt lat="40.5940029" lon="9.3926553"><ele>750.6666666666666</ele><time>2026-04-12T11:06:17.91Z</time></trkpt><trkpt lat="40.5939963" lon="9.3925477"><ele>751.3333333333333</ele><time>2026-04-12T11:06:18.9Z</time></trkpt><trkpt lat="40.5939921" lon="9.3924321"><ele>752.0</ele><time>2026-04-12T11:06:19.894Z</time></trkpt><trkpt lat="40.5939879" lon="9.3923066"><ele>752.0</ele><time>2026-04-12T11:06:20.894Z</time></trkpt><trkpt lat="40.593977" lon="9.3921778"><ele>752.0</ele><time>2026-04-12T11:06:21.91Z</time></trkpt><trkpt lat="40.5939628" lon="9.3920512"><ele>752.0</ele><time>2026-04-12T11:06:22.9Z</time></trkpt><trkpt lat="40.5939547" lon="9.3919319"><ele>752.0</ele><time>2026-04-12T11:06:23.901Z</time></trkpt><trkpt lat="40.5939502" lon="9.391812"><ele>752.0</ele><time>2026-04-12T11:06:24.996Z</time></trkpt><trkpt lat="40.5939429" lon="9.3916992"><ele>753.25</ele><time>2026-04-12T11:06:25.999Z</time></trkpt><trkpt lat="40.5939301" lon="9.3914614"><ele>754.5</ele><time>2026-04-12T11:06:27.9Z</time></trkpt><trkpt lat="40.5939252" lon="9.3913435"><ele>755.75</ele><time>2026-04-12T11:06:28.899Z</time></trkpt><trkpt lat="40.5939262" lon="9.3912245"><ele>757.0</ele><time>2026-04-12T11:06:29.896Z</time></trkpt><trkpt lat="40.5939291" lon="9.3911038"><ele>758.6</ele><time>2026-04-12T11:06:31.002Z</time></trkpt><trkpt lat="40.5939321" lon="9.3909774"><ele>760.2</ele><time>2026-04-12T11:06:31.992Z</time></trkpt><trkpt lat="40.5939418" lon="9.3908531"><ele>761.8</ele><time>2026-04-12T11:06:32.994Z</time></trkpt><trkpt lat="40.5939557" lon="9.39073"><ele>763.4</ele><time>2026-04-12T11:06:33.9Z</time></trkpt><trkpt lat="40.5939747" lon="9.3906045"><ele>765.0</ele><time>2026-04-12T11:06:34.905Z</time></trkpt><trkpt lat="40.5939961" lon="9.3904698"><ele>765.2</ele><time>2026-04-12T11:06:35.896Z</time></trkpt><trkpt lat="40.5940148" lon="9.3903283"><ele>765.4</ele><time>2026-04-12T11:06:36.995Z</time></trkpt><trkpt lat="40.5940294" lon="9.3901809"><ele>765.5999999999999</ele><time>2026-04-12T11:06:37.995Z</time></trkpt><trkpt lat="40.594035" lon="9.3900297"><ele>765.8</ele><time>2026-04-12T11:06:39.003Z</time></trkpt><trkpt lat="40.5940378" lon="9.3898844"><ele>766.0</ele><time>2026-04-12T11:06:40.005Z</time></trkpt><trkpt lat="40.5940381" lon="9.3897245"><ele>766.0</ele><time>2026-04-12T11:06:40.921Z</time></trkpt><trkpt lat="40.5940327" lon="9.3895551"><ele>766.0</ele><time>2026-04-12T11:06:41.998Z</time></trkpt><trkpt lat="40.5940236" lon="9.3893817"><ele>766.0</ele><time>2026-04-12T11:06:42.997Z</time></trkpt><trkpt lat="40.594022" lon="9.3892026"><ele>766.0</ele><time>2026-04-12T11:06:43.988Z</time></trkpt><trkpt lat="40.5940189" lon="9.3890144"><ele>765.6666666666667</ele><time>2026-04-12T11:06:45.001Z</time></trkpt><trkpt lat="40.5940111" lon="9.38881"><ele>765.3333333333334</ele><time>2026-04-12T11:06:45.984Z</time></trkpt><trkpt lat="40.5940046" lon="9.3886023"><ele>765.0</ele><time>2026-04-12T11:06:46.986Z</time></trkpt><trkpt lat="40.5940083" lon="9.3883933"><ele>765.0</ele><time>2026-04-12T11:06:47.992Z</time></trkpt><trkpt lat="40.5940045" lon="9.3881945"><ele>765.0</ele><time>2026-04-12T11:06:48.988Z</time></trkpt><trkpt lat="40.5940003" lon="9.3879977"><ele>765.0</ele><time>2026-04-12T11:06:50.01Z</time></trkpt><trkpt lat="40.5939986" lon="9.3878072"><ele>765.0</ele><time>2026-04-12T11:06:50.996Z</time></trkpt><trkpt lat="40.5939959" lon="9.3876354"><ele>764.0</ele><time>2026-04-12T11:06:52.011Z</time></trkpt><trkpt lat="40.5939857" lon="9.3874702"><ele>763.0</ele><time>2026-04-12T11:06:53.053Z</time></trkpt><trkpt lat="40.5939801" lon="9.3873009"><ele>762.0</ele><time>2026-04-12T11:06:53.995Z</time></trkpt><trkpt lat="40.5939762" lon="9.3871286"><ele>761.0</ele><time>2026-04-12T11:06:54.99Z</time></trkpt><trkpt lat="40.5939803" lon="9.3869577"><ele>760.0</ele><time>2026-04-12T11:06:55.995Z</time></trkpt><trkpt lat="40.5939863" lon="9.3868011"><ele>759.0</ele><time>2026-04-12T11:06:57.006Z</time></trkpt><trkpt lat="40.5939946" lon="9.3866472"><ele>758.0</ele><time>2026-04-12T11:06:58.021Z</time></trkpt><trkpt lat="40.5940014" lon="9.3865052"><ele>757.0</ele><time>2026-04-12T11:06:58.998Z</time></trkpt><trkpt lat="40.5940028" lon="9.3863773"><ele>756.0</ele><time>2026-04-12T11:07:00.002Z</time></trkpt><trkpt lat="40.5940072" lon="9.3862655"><ele>755.4</ele><time>2026-04-12T11:07:00.99Z</time></trkpt><trkpt lat="40.5940082" lon="9.3861622"><ele>754.8</ele><time>2026-04-12T11:07:01.993Z</time></trkpt><trkpt lat="40.5940114" lon="9.3860693"><ele>754.1999999999999</ele><time>2026-04-12T11:07:02.997Z</time></trkpt><trkpt lat="40.5940118" lon="9.3859082"><ele>753.5999999999999</ele><time>2026-04-12T11:07:04.996Z</time></trkpt><trkpt lat="40.5940167" lon="9.3857555"><ele>753.0</ele><time>2026-04-12T11:07:07.003Z</time></trkpt><trkpt lat="40.5940221" lon="9.3856687"><ele>753.0</ele><time>2026-04-12T11:07:08.002Z</time></trkpt><trkpt lat="40.5940224" lon="9.3855651"><ele>753.0</ele><time>2026-04-12T11:07:08.996Z</time></trkpt><trkpt lat="40.5940239" lon="9.3854569"><ele>753.0</ele><time>2026-04-12T11:07:10.013Z</time></trkpt><trkpt lat="40.5940229" lon="9.3853495"><ele>753.0</ele><time>2026-04-12T11:07:11Z</time></trkpt><trkpt lat="40.59402" lon="9.3852379"><ele>753.0</ele><time>2026-04-12T11:07:11.983Z</time></trkpt><trkpt lat="40.594021" lon="9.3851178"><ele>753.0</ele><time>2026-04-12T11:07:12.99Z</time></trkpt><trkpt lat="40.5940176" lon="9.3849965"><ele>752.0</ele><time>2026-04-12T11:07:13.992Z</time></trkpt><trkpt lat="40.5940135" lon="9.3848712"><ele>751.0</ele><time>2026-04-12T11:07:14.989Z</time></trkpt><trkpt lat="40.5940099" lon="9.3847509"><ele>750.0</ele><time>2026-04-12T11:07:15.994Z</time></trkpt><trkpt lat="40.5940072" lon="9.3846378"><ele>749.0</ele><time>2026-04-12T11:07:16.985Z</time></trkpt><trkpt lat="40.5940067" lon="9.3845297"><ele>748.0</ele><time>2026-04-12T11:07:17.984Z</time></trkpt><trkpt lat="40.594012" lon="9.3844259"><ele>747.0</ele><time>2026-04-12T11:07:18.988Z</time></trkpt><trkpt lat="40.5940155" lon="9.3843293"><ele>745.1666666666666</ele><time>2026-04-12T11:07:20.003Z</time></trkpt><trkpt lat="40.5940171" lon="9.3842297"><ele>743.3333333333334</ele><time>2026-04-12T11:07:20.987Z</time></trkpt><trkpt lat="40.5940187" lon="9.3841256"><ele>741.5</ele><time>2026-04-12T11:07:21.987Z</time></trkpt><trkpt lat="40.5940207" lon="9.3840164"><ele>739.6666666666667</ele><time>2026-04-12T11:07:22.991Z</time></trkpt><trkpt lat="40.5940191" lon="9.3839127"><ele>737.8333333333334</ele><time>2026-04-12T11:07:23.989Z</time></trkpt><trkpt lat="40.5940122" lon="9.3838097"><ele>736.0</ele><time>2026-04-12T11:07:24.985Z</time></trkpt><trkpt lat="40.5940103" lon="9.3837051"><ele>734.8333333333334</ele><time>2026-04-12T11:07:25.984Z</time></trkpt><trkpt lat="40.594018" lon="9.3835971"><ele>733.6666666666667</ele><time>2026-04-12T11:07:26.982Z</time></trkpt><trkpt lat="40.5940235" lon="9.3834869"><ele>732.5</ele><time>2026-04-12T11:07:27.987Z</time></trkpt><trkpt lat="40.5940256" lon="9.3833735"><ele>731.3333333333334</ele><time>2026-04-12T11:07:28.985Z</time></trkpt><trkpt lat="40.5940308" lon="9.3832631"><ele>730.1666666666666</ele><time>2026-04-12T11:07:30.001Z</time></trkpt><trkpt lat="40.5940311" lon="9.3831584"><ele>729.0</ele><time>2026-04-12T11:07:30.983Z</time></trkpt><trkpt lat="40.5940332" lon="9.3830443"><ele>728.1666666666666</ele><time>2026-04-12T11:07:31.991Z</time></trkpt><trkpt lat="40.5940365" lon="9.3829201"><ele>727.3333333333334</ele><time>2026-04-12T11:07:32.986Z</time></trkpt><trkpt lat="40.5940386" lon="9.3827988"><ele>726.5</ele><time>2026-04-12T11:07:33.991Z</time></trkpt><trkpt lat="40.5940425" lon="9.3826817"><ele>725.6666666666667</ele><time>2026-04-12T11:07:34.991Z</time></trkpt><trkpt lat="40.5940439" lon="9.3825675"><ele>724.8333333333334</ele><time>2026-04-12T11:07:36.005Z</time></trkpt><trkpt lat="40.5940442" lon="9.3824559"><ele>724.0</ele><time>2026-04-12T11:07:36.991Z</time></trkpt><trkpt lat="40.5940429" lon="9.3823471"><ele>724.0</ele><time>2026-04-12T11:07:37.988Z</time></trkpt><trkpt lat="40.5940476" lon="9.3822225"><ele>724.0</ele><time>2026-04-12T11:07:39.001Z</time></trkpt><trkpt lat="40.5940581" lon="9.3820831"><ele>724.0</ele><time>2026-04-12T11:07:39.991Z</time></trkpt><trkpt lat="40.5940661" lon="9.3819503"><ele>724.0</ele><time>2026-04-12T11:07:41.001Z</time></trkpt><trkpt lat="40.5940705" lon="9.3818335"><ele>724.0</ele><time>2026-04-12T11:07:42.002Z</time></trkpt><trkpt lat="40.5940788" lon="9.3817138"><ele>723.5</ele><time>2026-04-12T11:07:42.998Z</time></trkpt><trkpt lat="40.5940879" lon="9.3815949"><ele>723.0</ele><time>2026-04-12T11:07:43.987Z</time></trkpt><trkpt lat="40.5940983" lon="9.3814906"><ele>722.5</ele><time>2026-04-12T11:07:44.989Z</time></trkpt><trkpt lat="40.5941065" lon="9.3813927"><ele>722.0</ele><time>2026-04-12T11:07:45.99Z</time></trkpt><trkpt lat="40.5941136" lon="9.3812903"><ele>721.5</ele><time>2026-04-12T11:07:46.992Z</time></trkpt><trkpt lat="40.5941219" lon="9.3811898"><ele>721.0</ele><time>2026-04-12T11:07:47.996Z</time></trkpt><trkpt lat="40.5941308" lon="9.3810869"><ele>720.3333333333334</ele><time>2026-04-12T11:07:48.994Z</time></trkpt><trkpt lat="40.5941381" lon="9.3809819"><ele>719.6666666666667</ele><time>2026-04-12T11:07:50.002Z</time></trkpt><trkpt lat="40.5941404" lon="9.3808698"><ele>719.0</ele><time>2026-04-12T11:07:50.988Z</time></trkpt><trkpt lat="40.5941441" lon="9.3807571"><ele>718.3333333333334</ele><time>2026-04-12T11:07:51.998Z</time></trkpt><trkpt lat="40.5941401" lon="9.3806353"><ele>717.6666666666666</ele><time>2026-04-12T11:07:52.989Z</time></trkpt><trkpt lat="40.5941373" lon="9.3805172"><ele>717.0</ele><time>2026-04-12T11:07:53.988Z</time></trkpt><trkpt lat="40.5941434" lon="9.3804026"><ele>715.3333333333334</ele><time>2026-04-12T11:07:54.992Z</time></trkpt><trkpt lat="40.5941467" lon="9.3802924"><ele>713.6666666666666</ele><time>2026-04-12T11:07:55.99Z</time></trkpt><trkpt lat="40.5941449" lon="9.3801917"><ele>712.0</ele><time>2026-04-12T11:07:56.996Z</time></trkpt><trkpt lat="40.5941348" lon="9.3801012"><ele>710.3333333333333</ele><time>2026-04-12T11:07:57.993Z</time></trkpt><trkpt lat="40.5941086" lon="9.379958"><ele>708.6666666666666</ele><time>2026-04-12T11:07:59.983Z</time></trkpt><trkpt lat="40.5940858" lon="9.3798205"><ele>707.0</ele><time>2026-04-12T11:08:01.984Z</time></trkpt><trkpt lat="40.5940679" lon="9.3797409"><ele>705.0</ele><time>2026-04-12T11:08:02.992Z</time></trkpt><trkpt lat="40.5940471" lon="9.3796563"><ele>703.0</ele><time>2026-04-12T11:08:03.983Z</time></trkpt><trkpt lat="40.5940222" lon="9.3795769"><ele>701.0</ele><time>2026-04-12T11:08:05.02Z</time></trkpt><trkpt lat="40.5939903" lon="9.3795035"><ele>699.0</ele><time>2026-04-12T11:08:05.988Z</time></trkpt><trkpt lat="40.5939512" lon="9.3794327"><ele>697.0</ele><time>2026-04-12T11:08:06.985Z</time></trkpt><trkpt lat="40.5939103" lon="9.3793633"><ele>695.0</ele><time>2026-04-12T11:08:07.992Z</time></trkpt><trkpt lat="40.5938721" lon="9.3792962"><ele>693.0</ele><time>2026-04-12T11:08:09Z</time></trkpt><trkpt lat="40.5938139" lon="9.3791549"><ele>693.0</ele><time>2026-04-12T11:08:11.02Z</time></trkpt><trkpt lat="40.5938117" lon="9.3790033"><ele>693.0</ele><time>2026-04-12T11:08:12.99Z</time></trkpt><trkpt lat="40.5938639" lon="9.3788797"><ele>693.0</ele><time>2026-04-12T11:08:14.983Z</time></trkpt><trkpt lat="40.5939399" lon="9.3787453"><ele>693.0</ele><time>2026-04-12T11:08:16.993Z</time></trkpt><trkpt lat="40.5939856" lon="9.378684"><ele>693.0</ele><time>2026-04-12T11:08:17.996Z</time></trkpt><trkpt lat="40.5940417" lon="9.3786291"><ele>693.3333333333334</ele><time>2026-04-12T11:08:18.987Z</time></trkpt><trkpt lat="40.5941035" lon="9.3785756"><ele>693.6666666666666</ele><time>2026-04-12T11:08:19.989Z</time></trkpt><trkpt lat="40.5941659" lon="9.3785181"><ele>694.0</ele><time>2026-04-12T11:08:20.977Z</time></trkpt><trkpt lat="40.5942305" lon="9.3784474"><ele>694.3333333333333</ele><time>2026-04-12T11:08:21.977Z</time></trkpt><trkpt lat="40.5942937" lon="9.3783694"><ele>694.6666666666666</ele><time>2026-04-12T11:08:22.979Z</time></trkpt><trkpt lat="40.5943367" lon="9.3782839"><ele>695.0</ele><time>2026-04-12T11:08:23.991Z</time></trkpt><trkpt lat="40.5943656" lon="9.3781938"><ele>695.0</ele><time>2026-04-12T11:08:24.981Z</time></trkpt><trkpt lat="40.5943887" lon="9.378106"><ele>695.0</ele><time>2026-04-12T11:08:25.98Z</time></trkpt><trkpt lat="40.5944104" lon="9.3780051"><ele>695.0</ele><time>2026-04-12T11:08:26.976Z</time></trkpt><trkpt lat="40.5944339" lon="9.3779035"><ele>695.0</ele><time>2026-04-12T11:08:27.966Z</time></trkpt><trkpt lat="40.5944579" lon="9.3778012"><ele>695.0</ele><time>2026-04-12T11:08:28.983Z</time></trkpt><trkpt lat="40.5944859" lon="9.3777058"><ele>695.0</ele><time>2026-04-12T11:08:29.991Z</time></trkpt><trkpt lat="40.5945173" lon="9.3776119"><ele>697.0</ele><time>2026-04-12T11:08:30.962Z</time></trkpt><trkpt lat="40.59455" lon="9.3775163"><ele>699.0</ele><time>2026-04-12T11:08:31.975Z</time></trkpt><trkpt lat="40.5945753" lon="9.3774169"><ele>701.0</ele><time>2026-04-12T11:08:32.966Z</time></trkpt><trkpt lat="40.5945983" lon="9.3773165"><ele>703.0</ele><time>2026-04-12T11:08:33.963Z</time></trkpt><trkpt lat="40.5946273" lon="9.3772241"><ele>705.0</ele><time>2026-04-12T11:08:34.978Z</time></trkpt><trkpt lat="40.5946596" lon="9.3771397"><ele>707.0</ele><time>2026-04-12T11:08:35.989Z</time></trkpt><trkpt lat="40.5946907" lon="9.37706"><ele>707.8571428571429</ele><time>2026-04-12T11:08:36.957Z</time></trkpt><trkpt lat="40.5947191" lon="9.3769779"><ele>708.7142857142858</ele><time>2026-04-12T11:08:37.959Z</time></trkpt><trkpt lat="40.5947449" lon="9.3768897"><ele>709.5714285714286</ele><time>2026-04-12T11:08:38.955Z</time></trkpt><trkpt lat="40.5947699" lon="9.3768035"><ele>710.4285714285714</ele><time>2026-04-12T11:08:39.975Z</time></trkpt><trkpt lat="40.5948185" lon="9.3766803"><ele>711.2857142857143</ele><time>2026-04-12T11:08:41.955Z</time></trkpt><trkpt lat="40.5948655" lon="9.3766247"><ele>712.1428571428571</ele><time>2026-04-12T11:08:43.958Z</time></trkpt><trkpt lat="40.5948993" lon="9.3765536"><ele>713.0</ele><time>2026-04-12T11:08:47.978Z</time></trkpt><trkpt lat="40.5948889" lon="9.3764516"><ele>714.5</ele><time>2026-04-12T11:09:07.971Z</time></trkpt><trkpt lat="40.5948891" lon="9.3763423"><ele>716.0</ele><time>2026-04-12T11:09:09.955Z</time></trkpt><trkpt lat="40.5949227" lon="9.3761834"><ele>717.5</ele><time>2026-04-12T11:09:11.96Z</time></trkpt><trkpt lat="40.5949461" lon="9.3761014"><ele>719.0</ele><time>2026-04-12T11:09:12.959Z</time></trkpt><trkpt lat="40.5949674" lon="9.3760181"><ele>720.5</ele><time>2026-04-12T11:09:13.977Z</time></trkpt><trkpt lat="40.5949903" lon="9.375928"><ele>722.0</ele><time>2026-04-12T11:09:14.997Z</time></trkpt><trkpt lat="40.5950111" lon="9.3758357"><ele>722.0</ele><time>2026-04-12T11:09:15.963Z</time></trkpt><trkpt lat="40.5950286" lon="9.3757415"><ele>722.0</ele><time>2026-04-12T11:09:16.972Z</time></trkpt><trkpt lat="40.5950493" lon="9.3756392"><ele>722.0</ele><time>2026-04-12T11:09:17.966Z</time></trkpt><trkpt lat="40.5950748" lon="9.3755317"><ele>722.0</ele><time>2026-04-12T11:09:18.957Z</time></trkpt><trkpt lat="40.5951054" lon="9.3754199"><ele>722.0</ele><time>2026-04-12T11:09:19.972Z</time></trkpt><trkpt lat="40.5951348" lon="9.3753077"><ele>722.0</ele><time>2026-04-12T11:09:20.973Z</time></trkpt><trkpt lat="40.5951643" lon="9.3751925"><ele>724.0</ele><time>2026-04-12T11:09:21.967Z</time></trkpt><trkpt lat="40.595194" lon="9.375072"><ele>726.0</ele><time>2026-04-12T11:09:22.949Z</time></trkpt><trkpt lat="40.5952242" lon="9.3749483"><ele>728.0</ele><time>2026-04-12T11:09:23.952Z</time></trkpt><trkpt lat="40.5952569" lon="9.3748237"><ele>730.0</ele><time>2026-04-12T11:09:24.968Z</time></trkpt><trkpt lat="40.5952875" lon="9.3747021"><ele>732.0</ele><time>2026-04-12T11:09:25.952Z</time></trkpt><trkpt lat="40.5953163" lon="9.374596"><ele>730.3333333333334</ele><time>2026-04-12T11:09:26.953Z</time></trkpt><trkpt lat="40.5953421" lon="9.3744934"><ele>728.6666666666666</ele><time>2026-04-12T11:09:27.955Z</time></trkpt><trkpt lat="40.5953678" lon="9.374384"><ele>727.0</ele><time>2026-04-12T11:09:28.958Z</time></trkpt><trkpt lat="40.5953931" lon="9.3742732"><ele>725.3333333333333</ele><time>2026-04-12T11:09:29.972Z</time></trkpt><trkpt lat="40.5954231" lon="9.3741584"><ele>723.6666666666666</ele><time>2026-04-12T11:09:30.961Z</time></trkpt><trkpt lat="40.5954535" lon="9.3740348"><ele>722.0</ele><time>2026-04-12T11:09:31.958Z</time></trkpt><trkpt lat="40.5954867" lon="9.3739064"><ele>723.4000000000001</ele><time>2026-04-12T11:09:32.953Z</time></trkpt><trkpt lat="40.5955207" lon="9.3737779"><ele>724.8000000000001</ele><time>2026-04-12T11:09:33.952Z</time></trkpt><trkpt lat="40.5955531" lon="9.373651"><ele>726.2</ele><time>2026-04-12T11:09:34.954Z</time></trkpt><trkpt lat="40.5955916" lon="9.3735357"><ele>727.6</ele><time>2026-04-12T11:09:35.959Z</time></trkpt><trkpt lat="40.5956268" lon="9.3734256"><ele>729.0</ele><time>2026-04-12T11:09:36.95Z</time></trkpt><trkpt lat="40.595653" lon="9.3733128"><ele>729.0</ele><time>2026-04-12T11:09:37.967Z</time></trkpt><trkpt lat="40.5956703" lon="9.3731921"><ele>729.0</ele><time>2026-04-12T11:09:38.96Z</time></trkpt><trkpt lat="40.5956836" lon="9.3730747"><ele>729.0</ele><time>2026-04-12T11:09:39.952Z</time></trkpt><trkpt lat="40.5956903" lon="9.3729656"><ele>729.0</ele><time>2026-04-12T11:09:40.956Z</time></trkpt><trkpt lat="40.595689" lon="9.3728511"><ele>729.0</ele><time>2026-04-12T11:09:41.945Z</time></trkpt><trkpt lat="40.5956854" lon="9.3727407"><ele>729.0</ele><time>2026-04-12T11:09:42.961Z</time></trkpt><trkpt lat="40.5956817" lon="9.3726305"><ele>728.5</ele><time>2026-04-12T11:09:43.953Z</time></trkpt><trkpt lat="40.5956763" lon="9.3725255"><ele>728.0</ele><time>2026-04-12T11:09:44.973Z</time></trkpt><trkpt lat="40.5956659" lon="9.3724163"><ele>727.5</ele><time>2026-04-12T11:09:45.954Z</time></trkpt><trkpt lat="40.5956599" lon="9.3723032"><ele>727.0</ele><time>2026-04-12T11:09:46.958Z</time></trkpt><trkpt lat="40.5956542" lon="9.37219"><ele>726.5</ele><time>2026-04-12T11:09:47.951Z</time></trkpt><trkpt lat="40.5956452" lon="9.3720835"><ele>726.0</ele><time>2026-04-12T11:09:48.948Z</time></trkpt><trkpt lat="40.5956352" lon="9.3719711"><ele>725.1666666666666</ele><time>2026-04-12T11:09:49.962Z</time></trkpt><trkpt lat="40.5956271" lon="9.3718621"><ele>724.3333333333334</ele><time>2026-04-12T11:09:50.95Z</time></trkpt><trkpt lat="40.595624" lon="9.3717562"><ele>723.5</ele><time>2026-04-12T11:09:51.966Z</time></trkpt><trkpt lat="40.5956196" lon="9.3716437"><ele>722.6666666666667</ele><time>2026-04-12T11:09:52.943Z</time></trkpt><trkpt lat="40.5956149" lon="9.3715443"><ele>721.8333333333334</ele><time>2026-04-12T11:09:53.939Z</time></trkpt><trkpt lat="40.5956137" lon="9.3714443"><ele>721.0</ele><time>2026-04-12T11:09:54.944Z</time></trkpt><trkpt lat="40.5956154" lon="9.3713495"><ele>721.0</ele><time>2026-04-12T11:09:55.942Z</time></trkpt><trkpt lat="40.5956162" lon="9.3712593"><ele>721.0</ele><time>2026-04-12T11:09:56.93Z</time></trkpt><trkpt lat="40.5956114" lon="9.3711751"><ele>721.0</ele><time>2026-04-12T11:09:57.936Z</time></trkpt><trkpt lat="40.5955877" lon="9.3710024"><ele>721.0</ele><time>2026-04-12T11:09:59.938Z</time></trkpt><trkpt lat="40.5955633" lon="9.3709079"><ele>721.0</ele><time>2026-04-12T11:10:00.929Z</time></trkpt><trkpt lat="40.5955353" lon="9.3708028"><ele>721.0</ele><time>2026-04-12T11:10:01.928Z</time></trkpt><trkpt lat="40.5955066" lon="9.3706922"><ele>721.0</ele><time>2026-04-12T11:10:02.929Z</time></trkpt><trkpt lat="40.5954741" lon="9.3705746"><ele>721.0</ele><time>2026-04-12T11:10:03.925Z</time></trkpt><trkpt lat="40.5954515" lon="9.3704549"><ele>721.0</ele><time>2026-04-12T11:10:04.962Z</time></trkpt><trkpt lat="40.5954411" lon="9.3703386"><ele>721.0</ele><time>2026-04-12T11:10:05.927Z</time></trkpt><trkpt lat="40.5954412" lon="9.3702202"><ele>721.0</ele><time>2026-04-12T11:10:06.932Z</time></trkpt><trkpt lat="40.5954506" lon="9.3701018"><ele>722.1999999999999</ele><time>2026-04-12T11:10:07.925Z</time></trkpt><trkpt lat="40.5954653" lon="9.369977"><ele>723.4</ele><time>2026-04-12T11:10:08.924Z</time></trkpt><trkpt lat="40.5954745" lon="9.3698632"><ele>724.6</ele><time>2026-04-12T11:10:09.926Z</time></trkpt><trkpt lat="40.5954982" lon="9.3697517"><ele>725.8</ele><time>2026-04-12T11:10:10.911Z</time></trkpt><trkpt lat="40.5955256" lon="9.3696428"><ele>727.0</ele><time>2026-04-12T11:10:11.931Z</time></trkpt><trkpt lat="40.5955439" lon="9.3695231"><ele>728.2</ele><time>2026-04-12T11:10:12.923Z</time></trkpt><trkpt lat="40.5955592" lon="9.3693985"><ele>729.4000000000001</ele><time>2026-04-12T11:10:13.929Z</time></trkpt><trkpt lat="40.5955734" lon="9.369273"><ele>730.5999999999999</ele><time>2026-04-12T11:10:14.934Z</time></trkpt><trkpt lat="40.5955818" lon="9.3691395"><ele>731.8</ele><time>2026-04-12T11:10:15.922Z</time></trkpt><trkpt lat="40.5955923" lon="9.3690006"><ele>733.0</ele><time>2026-04-12T11:10:16.909Z</time></trkpt><trkpt lat="40.5956115" lon="9.3688664"><ele>734.4</ele><time>2026-04-12T11:10:17.912Z</time></trkpt><trkpt lat="40.5956403" lon="9.3687295"><ele>735.8</ele><time>2026-04-12T11:10:18.926Z</time></trkpt><trkpt lat="40.5956688" lon="9.3686036"><ele>737.2</ele><time>2026-04-12T11:10:19.926Z</time></trkpt><trkpt lat="40.5957089" lon="9.3684862"><ele>738.6</ele><time>2026-04-12T11:10:20.931Z</time></trkpt><trkpt lat="40.595761" lon="9.3683779"><ele>740.0</ele><time>2026-04-12T11:10:21.909Z</time></trkpt><trkpt lat="40.5958127" lon="9.3682737"><ele>740.0</ele><time>2026-04-12T11:10:22.917Z</time></trkpt><trkpt lat="40.5958574" lon="9.3681615"><ele>740.0</ele><time>2026-04-12T11:10:23.917Z</time></trkpt><trkpt lat="40.595892" lon="9.3680511"><ele>740.0</ele><time>2026-04-12T11:10:24.918Z</time></trkpt><trkpt lat="40.5959311" lon="9.3679471"><ele>740.0</ele><time>2026-04-12T11:10:25.913Z</time></trkpt><trkpt lat="40.5959799" lon="9.3678462"><ele>740.0</ele><time>2026-04-12T11:10:26.914Z</time></trkpt><trkpt lat="40.5960368" lon="9.3677454"><ele>741.8</ele><time>2026-04-12T11:10:27.923Z</time></trkpt><trkpt lat="40.5960956" lon="9.3676511"><ele>743.6</ele><time>2026-04-12T11:10:28.916Z</time></trkpt><trkpt lat="40.5961541" lon="9.3675573"><ele>745.4000000000001</ele><time>2026-04-12T11:10:29.923Z</time></trkpt><trkpt lat="40.5962123" lon="9.367459"><ele>747.2</ele><time>2026-04-12T11:10:30.916Z</time></trkpt><trkpt lat="40.5962648" lon="9.3673543"><ele>749.0</ele><time>2026-04-12T11:10:31.925Z</time></trkpt><trkpt lat="40.5963255" lon="9.3672456"><ele>749.6666666666666</ele><time>2026-04-12T11:10:32.932Z</time></trkpt><trkpt lat="40.5963766" lon="9.3671466"><ele>750.3333333333333</ele><time>2026-04-12T11:10:33.927Z</time></trkpt><trkpt lat="40.5964186" lon="9.3670589"><ele>751.0</ele><time>2026-04-12T11:10:34.917Z</time></trkpt><trkpt lat="40.5964495" lon="9.3669814"><ele>751.6666666666666</ele><time>2026-04-12T11:10:35.938Z</time></trkpt><trkpt lat="40.5964606" lon="9.3668241"><ele>752.3333333333334</ele><time>2026-04-12T11:10:37.926Z</time></trkpt><trkpt lat="40.5964359" lon="9.3667294"><ele>753.0</ele><time>2026-04-12T11:10:38.925Z</time></trkpt><trkpt lat="40.5963804" lon="9.3666207"><ele>753.0</ele><time>2026-04-12T11:10:39.939Z</time></trkpt><trkpt lat="40.5963263" lon="9.3665103"><ele>753.0</ele><time>2026-04-12T11:10:40.932Z</time></trkpt><trkpt lat="40.5962856" lon="9.3663849"><ele>753.0</ele><time>2026-04-12T11:10:41.94Z</time></trkpt><trkpt lat="40.5962643" lon="9.3662502"><ele>753.0</ele><time>2026-04-12T11:10:42.918Z</time></trkpt><trkpt lat="40.5962616" lon="9.3661074"><ele>753.0</ele><time>2026-04-12T11:10:43.918Z</time></trkpt><trkpt lat="40.5962712" lon="9.3659614"><ele>753.25</ele><time>2026-04-12T11:10:44.923Z</time></trkpt><trkpt lat="40.5962846" lon="9.3658012"><ele>753.5</ele><time>2026-04-12T11:10:45.914Z</time></trkpt><trkpt lat="40.5962972" lon="9.3656509"><ele>753.75</ele><time>2026-04-12T11:10:46.917Z</time></trkpt><trkpt lat="40.5963083" lon="9.3655026"><ele>754.0</ele><time>2026-04-12T11:10:47.924Z</time></trkpt><trkpt lat="40.5963217" lon="9.3653611"><ele>754.4000000000001</ele><time>2026-04-12T11:10:48.935Z</time></trkpt><trkpt lat="40.5963423" lon="9.365211"><ele>754.8</ele><time>2026-04-12T11:10:49.926Z</time></trkpt><trkpt lat="40.5963614" lon="9.3650741"><ele>755.2</ele><time>2026-04-12T11:10:50.933Z</time></trkpt><trkpt lat="40.5963685" lon="9.364945"><ele>755.5999999999999</ele><time>2026-04-12T11:10:51.923Z</time></trkpt><trkpt lat="40.5963651" lon="9.3648107"><ele>756.0</ele><time>2026-04-12T11:10:52.921Z</time></trkpt><trkpt lat="40.5963554" lon="9.3646645"><ele>756.5</ele><time>2026-04-12T11:10:53.92Z</time></trkpt><trkpt lat="40.5963552" lon="9.3645116"><ele>757.0</ele><time>2026-04-12T11:10:54.916Z</time></trkpt><trkpt lat="40.5963642" lon="9.3643436"><ele>757.5</ele><time>2026-04-12T11:10:55.925Z</time></trkpt><trkpt lat="40.5963785" lon="9.3641751"><ele>758.0</ele><time>2026-04-12T11:10:56.925Z</time></trkpt><trkpt lat="40.5963959" lon="9.3640293"><ele>758.0</ele><time>2026-04-12T11:10:57.94Z</time></trkpt><trkpt lat="40.5964246" lon="9.363889"><ele>758.0</ele><time>2026-04-12T11:10:58.917Z</time></trkpt><trkpt lat="40.5964492" lon="9.3637528"><ele>758.0</ele><time>2026-04-12T11:10:59.934Z</time></trkpt><trkpt lat="40.59648" lon="9.3636137"><ele>758.0</ele><time>2026-04-12T11:11:00.934Z</time></trkpt><trkpt lat="40.5965097" lon="9.3634735"><ele>758.0</ele><time>2026-04-12T11:11:01.922Z</time></trkpt><trkpt lat="40.5965412" lon="9.3633426"><ele>757.5999999999999</ele><time>2026-04-12T11:11:02.975Z</time></trkpt><trkpt lat="40.5965641" lon="9.3632298"><ele>757.1999999999999</ele><time>2026-04-12T11:11:03.923Z</time></trkpt><trkpt lat="40.5965825" lon="9.3631188"><ele>756.8</ele><time>2026-04-12T11:11:04.935Z</time></trkpt><trkpt lat="40.5965941" lon="9.3629981"><ele>756.4</ele><time>2026-04-12T11:11:05.925Z</time></trkpt><trkpt lat="40.5966079" lon="9.3628737"><ele>756.0</ele><time>2026-04-12T11:11:06.926Z</time></trkpt><trkpt lat="40.5966246" lon="9.3627501"><ele>754.5999999999999</ele><time>2026-04-12T11:11:07.923Z</time></trkpt><trkpt lat="40.5966406" lon="9.3626308"><ele>753.2</ele><time>2026-04-12T11:11:08.926Z</time></trkpt><trkpt lat="40.5966664" lon="9.3625163"><ele>751.8</ele><time>2026-04-12T11:11:09.927Z</time></trkpt><trkpt lat="40.5967014" lon="9.3624082"><ele>750.4000000000001</ele><time>2026-04-12T11:11:10.931Z</time></trkpt><trkpt lat="40.5967442" lon="9.3623025"><ele>749.0</ele><time>2026-04-12T11:11:11.928Z</time></trkpt><trkpt lat="40.5967959" lon="9.3621936"><ele>748.6</ele><time>2026-04-12T11:11:12.938Z</time></trkpt><trkpt lat="40.5968571" lon="9.3620837"><ele>748.2</ele><time>2026-04-12T11:11:13.929Z</time></trkpt><trkpt lat="40.5969197" lon="9.3619687"><ele>747.8000000000001</ele><time>2026-04-12T11:11:14.927Z</time></trkpt><trkpt lat="40.5969771" lon="9.3618469"><ele>747.4000000000001</ele><time>2026-04-12T11:11:15.929Z</time></trkpt><trkpt lat="40.5970333" lon="9.3617244"><ele>747.0</ele><time>2026-04-12T11:11:16.928Z</time></trkpt><trkpt lat="40.5970836" lon="9.3616161"><ele>746.5</ele><time>2026-04-12T11:11:17.925Z</time></trkpt><trkpt lat="40.5971302" lon="9.3615162"><ele>746.0</ele><time>2026-04-12T11:11:18.921Z</time></trkpt><trkpt lat="40.5971748" lon="9.3614243"><ele>745.5</ele><time>2026-04-12T11:11:19.943Z</time></trkpt><trkpt lat="40.5972149" lon="9.3613405"><ele>745.0</ele><time>2026-04-12T11:11:20.936Z</time></trkpt><trkpt lat="40.597251" lon="9.3612519"><ele>744.5</ele><time>2026-04-12T11:11:21.925Z</time></trkpt><trkpt lat="40.5972899" lon="9.3611621"><ele>744.0</ele><time>2026-04-12T11:11:22.936Z</time></trkpt><trkpt lat="40.5973314" lon="9.3610712"><ele>743.5</ele><time>2026-04-12T11:11:23.927Z</time></trkpt><trkpt lat="40.5973755" lon="9.3609852"><ele>743.0</ele><time>2026-04-12T11:11:24.927Z</time></trkpt><trkpt lat="40.5974199" lon="9.3609056"><ele>742.5</ele><time>2026-04-12T11:11:25.925Z</time></trkpt><trkpt lat="40.5974626" lon="9.3608236"><ele>742.0</ele><time>2026-04-12T11:11:26.936Z</time></trkpt><trkpt lat="40.5975087" lon="9.3607358"><ele>741.5</ele><time>2026-04-12T11:11:27.914Z</time></trkpt><trkpt lat="40.5975545" lon="9.36065"><ele>741.0</ele><time>2026-04-12T11:11:28.924Z</time></trkpt><trkpt lat="40.5975991" lon="9.3605676"><ele>741.0</ele><time>2026-04-12T11:11:29.922Z</time></trkpt><trkpt lat="40.597647" lon="9.3604888"><ele>741.0</ele><time>2026-04-12T11:11:30.926Z</time></trkpt><trkpt lat="40.5976998" lon="9.3604167"><ele>741.0</ele><time>2026-04-12T11:11:31.921Z</time></trkpt><trkpt lat="40.5977627" lon="9.3603607"><ele>741.0</ele><time>2026-04-12T11:11:32.922Z</time></trkpt><trkpt lat="40.5978357" lon="9.3603247"><ele>741.0</ele><time>2026-04-12T11:11:33.942Z</time></trkpt><trkpt lat="40.5979222" lon="9.3603026"><ele>741.0</ele><time>2026-04-12T11:11:34.914Z</time></trkpt><trkpt lat="40.5980155" lon="9.3602848"><ele>741.0</ele><time>2026-04-12T11:11:35.924Z</time></trkpt><trkpt lat="40.59812" lon="9.3602674"><ele>741.0</ele><time>2026-04-12T11:11:36.917Z</time></trkpt><trkpt lat="40.5982293" lon="9.3602492"><ele>741.0</ele><time>2026-04-12T11:11:37.917Z</time></trkpt><trkpt lat="40.598341" lon="9.3602328"><ele>741.0</ele><time>2026-04-12T11:11:38.916Z</time></trkpt><trkpt lat="40.598454" lon="9.360213"><ele>741.0</ele><time>2026-04-12T11:11:39.918Z</time></trkpt><trkpt lat="40.5985682" lon="9.3601906"><ele>742.25</ele><time>2026-04-12T11:11:40.918Z</time></trkpt><trkpt lat="40.5986868" lon="9.3601711"><ele>743.5</ele><time>2026-04-12T11:11:41.928Z</time></trkpt><trkpt lat="40.5988135" lon="9.3601583"><ele>744.75</ele><time>2026-04-12T11:11:42.912Z</time></trkpt><trkpt lat="40.5989238" lon="9.3601426"><ele>746.0</ele><time>2026-04-12T11:11:43.921Z</time></trkpt><trkpt lat="40.59902" lon="9.3601258"><ele>746.0</ele><time>2026-04-12T11:11:44.917Z</time></trkpt><trkpt lat="40.5991075" lon="9.3601087"><ele>746.0</ele><time>2026-04-12T11:11:45.914Z</time></trkpt><trkpt lat="40.5991928" lon="9.3600867"><ele>746.0</ele><time>2026-04-12T11:11:46.936Z</time></trkpt><trkpt lat="40.5992691" lon="9.360053"><ele>746.0</ele><time>2026-04-12T11:11:47.932Z</time></trkpt><trkpt lat="40.5993269" lon="9.3600078"><ele>746.0</ele><time>2026-04-12T11:11:48.921Z</time></trkpt><trkpt lat="40.5993711" lon="9.3599363"><ele>746.0</ele><time>2026-04-12T11:11:49.941Z</time></trkpt><trkpt lat="40.5994094" lon="9.359851"><ele>746.0</ele><time>2026-04-12T11:11:50.94Z</time></trkpt><trkpt lat="40.5994422" lon="9.3597522"><ele>746.0</ele><time>2026-04-12T11:11:51.919Z</time></trkpt><trkpt lat="40.5994706" lon="9.3596389"><ele>746.0</ele><time>2026-04-12T11:11:52.929Z</time></trkpt><trkpt lat="40.5995029" lon="9.3595086"><ele>746.0</ele><time>2026-04-12T11:11:53.921Z</time></trkpt><trkpt lat="40.5995397" lon="9.359361"><ele>746.0</ele><time>2026-04-12T11:11:54.938Z</time></trkpt><trkpt lat="40.5995787" lon="9.3591956"><ele>747.0</ele><time>2026-04-12T11:11:55.916Z</time></trkpt><trkpt lat="40.5996132" lon="9.3590409"><ele>748.0</ele><time>2026-04-12T11:11:56.918Z</time></trkpt><trkpt lat="40.5996451" lon="9.3589091"><ele>749.0</ele><time>2026-04-12T11:11:57.921Z</time></trkpt><trkpt lat="40.5996793" lon="9.3587978"><ele>750.0</ele><time>2026-04-12T11:11:58.936Z</time></trkpt><trkpt lat="40.5997266" lon="9.358709"><ele>751.0</ele><time>2026-04-12T11:11:59.928Z</time></trkpt><trkpt lat="40.5997909" lon="9.3586251"><ele>751.0</ele><time>2026-04-12T11:12:00.926Z</time></trkpt><trkpt lat="40.5998649" lon="9.3585485"><ele>751.0</ele><time>2026-04-12T11:12:01.937Z</time></trkpt><trkpt lat="40.5999487" lon="9.3584808"><ele>751.0</ele><time>2026-04-12T11:12:02.931Z</time></trkpt><trkpt lat="40.6000392" lon="9.3584083"><ele>751.0</ele><time>2026-04-12T11:12:03.921Z</time></trkpt><trkpt lat="40.6001304" lon="9.3583354"><ele>751.0</ele><time>2026-04-12T11:12:04.934Z</time></trkpt><trkpt lat="40.6002236" lon="9.3582628"><ele>751.0</ele><time>2026-04-12T11:12:05.925Z</time></trkpt><trkpt lat="40.6003192" lon="9.3581914"><ele>751.0</ele><time>2026-04-12T11:12:06.93Z</time></trkpt><trkpt lat="40.600419" lon="9.3581318"><ele>751.0</ele><time>2026-04-12T11:12:07.942Z</time></trkpt><trkpt lat="40.6005214" lon="9.3580862"><ele>751.0</ele><time>2026-04-12T11:12:08.931Z</time></trkpt><trkpt lat="40.6006357" lon="9.358056"><ele>751.0</ele><time>2026-04-12T11:12:09.94Z</time></trkpt><trkpt lat="40.6007493" lon="9.3580298"><ele>749.75</ele><time>2026-04-12T11:12:10.93Z</time></trkpt><trkpt lat="40.600872" lon="9.3579952"><ele>748.5</ele><time>2026-04-12T11:12:11.924Z</time></trkpt><trkpt lat="40.6009956" lon="9.3579548"><ele>747.25</ele><time>2026-04-12T11:12:12.927Z</time></trkpt><trkpt lat="40.6011188" lon="9.3579176"><ele>746.0</ele><time>2026-04-12T11:12:13.945Z</time></trkpt><trkpt lat="40.6012378" lon="9.3578807"><ele>746.0</ele><time>2026-04-12T11:12:14.93Z</time></trkpt><trkpt lat="40.6013468" lon="9.3578525"><ele>746.0</ele><time>2026-04-12T11:12:15.933Z</time></trkpt><trkpt lat="40.6014479" lon="9.3578397"><ele>746.0</ele><time>2026-04-12T11:12:16.926Z</time></trkpt><trkpt lat="40.6015482" lon="9.3578424"><ele>746.0</ele><time>2026-04-12T11:12:17.93Z</time></trkpt><trkpt lat="40.6016533" lon="9.3578624"><ele>746.0</ele><time>2026-04-12T11:12:18.917Z</time></trkpt><trkpt lat="40.6017544" lon="9.3578957"><ele>746.0</ele><time>2026-04-12T11:12:19.919Z</time></trkpt><trkpt lat="40.6018503" lon="9.3579281"><ele>746.0</ele><time>2026-04-12T11:12:20.921Z</time></trkpt><trkpt lat="40.6019405" lon="9.3579633"><ele>746.0</ele><time>2026-04-12T11:12:21.923Z</time></trkpt><trkpt lat="40.6020267" lon="9.3579925"><ele>746.0</ele><time>2026-04-12T11:12:22.927Z</time></trkpt><trkpt lat="40.602107" lon="9.3580024"><ele>746.0</ele><time>2026-04-12T11:12:23.925Z</time></trkpt><trkpt lat="40.602182" lon="9.3579934"><ele>746.0</ele><time>2026-04-12T11:12:24.924Z</time></trkpt><trkpt lat="40.6022514" lon="9.3579513"><ele>744.6666666666666</ele><time>2026-04-12T11:12:25.932Z</time></trkpt><trkpt lat="40.6023035" lon="9.3578818"><ele>743.3333333333333</ele><time>2026-04-12T11:12:26.921Z</time></trkpt><trkpt lat="40.6023204" lon="9.3577924"><ele>742.0</ele><time>2026-04-12T11:12:27.924Z</time></trkpt><trkpt lat="40.6023186" lon="9.3576885"><ele>740.6666666666666</ele><time>2026-04-12T11:12:28.946Z</time></trkpt><trkpt lat="40.6022959" lon="9.3575787"><ele>739.3333333333334</ele><time>2026-04-12T11:12:29.918Z</time></trkpt><trkpt lat="40.602266" lon="9.3574652"><ele>738.0</ele><time>2026-04-12T11:12:30.922Z</time></trkpt><trkpt lat="40.6022431" lon="9.357353"><ele>738.0</ele><time>2026-04-12T11:12:31.931Z</time></trkpt><trkpt lat="40.6022351" lon="9.3572486"><ele>738.0</ele><time>2026-04-12T11:12:32.931Z</time></trkpt><trkpt lat="40.6022377" lon="9.3571434"><ele>738.0</ele><time>2026-04-12T11:12:33.924Z</time></trkpt><trkpt lat="40.6022578" lon="9.3570371"><ele>738.0</ele><time>2026-04-12T11:12:34.921Z</time></trkpt><trkpt lat="40.6022854" lon="9.3569295"><ele>738.0</ele><time>2026-04-12T11:12:35.942Z</time></trkpt><trkpt lat="40.6023186" lon="9.3568216"><ele>738.0</ele><time>2026-04-12T11:12:36.931Z</time></trkpt><trkpt lat="40.6023521" lon="9.3567205"><ele>737.0</ele><time>2026-04-12T11:12:37.927Z</time></trkpt><trkpt lat="40.6023835" lon="9.3566169"><ele>736.0</ele><time>2026-04-12T11:12:38.943Z</time></trkpt><trkpt lat="40.6024123" lon="9.3565054"><ele>735.0</ele><time>2026-04-12T11:12:39.946Z</time></trkpt><trkpt lat="40.6024402" lon="9.3563979"><ele>734.0</ele><time>2026-04-12T11:12:40.934Z</time></trkpt><trkpt lat="40.6024758" lon="9.3562942"><ele>733.0</ele><time>2026-04-12T11:12:41.933Z</time></trkpt><trkpt lat="40.6025192" lon="9.3561936"><ele>732.0</ele><time>2026-04-12T11:12:42.934Z</time></trkpt><trkpt lat="40.6025714" lon="9.3561056"><ele>730.6</ele><time>2026-04-12T11:12:43.926Z</time></trkpt><trkpt lat="40.6026301" lon="9.3560266"><ele>729.2</ele><time>2026-04-12T11:12:44.929Z</time></trkpt><trkpt lat="40.6026961" lon="9.3559521"><ele>727.8</ele><time>2026-04-12T11:12:45.92Z</time></trkpt><trkpt lat="40.6027741" lon="9.3558749"><ele>726.4</ele><time>2026-04-12T11:12:46.932Z</time></trkpt><trkpt lat="40.6028572" lon="9.355796"><ele>725.0</ele><time>2026-04-12T11:12:47.922Z</time></trkpt><trkpt lat="40.6029437" lon="9.3557232"><ele>724.4</ele><time>2026-04-12T11:12:48.943Z</time></trkpt><trkpt lat="40.6030308" lon="9.3556588"><ele>723.8</ele><time>2026-04-12T11:12:49.932Z</time></trkpt><trkpt lat="40.6031208" lon="9.3555971"><ele>723.2</ele><time>2026-04-12T11:12:50.926Z</time></trkpt><trkpt lat="40.6032109" lon="9.3555405"><ele>722.6</ele><time>2026-04-12T11:12:51.916Z</time></trkpt><trkpt lat="40.6033006" lon="9.355483"><ele>722.0</ele><time>2026-04-12T11:12:52.916Z</time></trkpt><trkpt lat="40.6033928" lon="9.3554209"><ele>721.4000000000001</ele><time>2026-04-12T11:12:53.945Z</time></trkpt><trkpt lat="40.6034793" lon="9.3553638"><ele>720.8000000000001</ele><time>2026-04-12T11:12:54.925Z</time></trkpt><trkpt lat="40.6035638" lon="9.3553095"><ele>720.2</ele><time>2026-04-12T11:12:55.909Z</time></trkpt><trkpt lat="40.6036463" lon="9.3552562"><ele>719.6</ele><time>2026-04-12T11:12:56.915Z</time></trkpt><trkpt lat="40.6037338" lon="9.355211"><ele>719.0</ele><time>2026-04-12T11:12:57.91Z</time></trkpt><trkpt lat="40.6038357" lon="9.3551812"><ele>718.25</ele><time>2026-04-12T11:12:58.901Z</time></trkpt><trkpt lat="40.6039495" lon="9.3551541"><ele>717.5</ele><time>2026-04-12T11:12:59.91Z</time></trkpt><trkpt lat="40.6040727" lon="9.355124"><ele>716.75</ele><time>2026-04-12T11:13:00.913Z</time></trkpt><trkpt lat="40.6041981" lon="9.3550892"><ele>716.0</ele><time>2026-04-12T11:13:01.902Z</time></trkpt><trkpt lat="40.6043244" lon="9.3550588"><ele>716.0</ele><time>2026-04-12T11:13:02.581Z</time></trkpt><trkpt lat="40.6044452" lon="9.3550302"><ele>716.0</ele><time>2026-04-12T11:13:03.57Z</time></trkpt><trkpt lat="40.604563" lon="9.3549994"><ele>716.0</ele><time>2026-04-12T11:13:04.568Z</time></trkpt><trkpt lat="40.6046765" lon="9.3549671"><ele>716.0</ele><time>2026-04-12T11:13:05.564Z</time></trkpt><trkpt lat="40.6047918" lon="9.3549337"><ele>717.0</ele><time>2026-04-12T11:13:06.558Z</time></trkpt><trkpt lat="40.6049065" lon="9.3548995"><ele>718.0</ele><time>2026-04-12T11:13:07.564Z</time></trkpt><trkpt lat="40.6050206" lon="9.3548642"><ele>719.0</ele><time>2026-04-12T11:13:08.569Z</time></trkpt><trkpt lat="40.6051396" lon="9.3548229"><ele>720.0</ele><time>2026-04-12T11:13:09.667Z</time></trkpt><trkpt lat="40.6052581" lon="9.3547784"><ele>719.5</ele><time>2026-04-12T11:13:10.657Z</time></trkpt><trkpt lat="40.6053848" lon="9.3547352"><ele>719.0</ele><time>2026-04-12T11:13:11.656Z</time></trkpt><trkpt lat="40.6055117" lon="9.3546874"><ele>718.5</ele><time>2026-04-12T11:13:12.661Z</time></trkpt><trkpt lat="40.6056412" lon="9.3546417"><ele>718.0</ele><time>2026-04-12T11:13:13.654Z</time></trkpt><trkpt lat="40.6057686" lon="9.3545973"><ele>717.75</ele><time>2026-04-12T11:13:14.652Z</time></trkpt><trkpt lat="40.6058892" lon="9.3545605"><ele>717.5</ele><time>2026-04-12T11:13:15.652Z</time></trkpt><trkpt lat="40.6060104" lon="9.3545215"><ele>717.25</ele><time>2026-04-12T11:13:16.656Z</time></trkpt><trkpt lat="40.6061353" lon="9.3544851"><ele>717.0</ele><time>2026-04-12T11:13:17.656Z</time></trkpt><trkpt lat="40.6062569" lon="9.3544527"><ele>715.25</ele><time>2026-04-12T11:13:18.648Z</time></trkpt><trkpt lat="40.6063801" lon="9.354423"><ele>713.5</ele><time>2026-04-12T11:13:19.658Z</time></trkpt><trkpt lat="40.606504" lon="9.3543989"><ele>711.75</ele><time>2026-04-12T11:13:20.661Z</time></trkpt><trkpt lat="40.6066243" lon="9.3543811"><ele>710.0</ele><time>2026-04-12T11:13:21.651Z</time></trkpt><trkpt lat="40.6067382" lon="9.3543646"><ele>710.0</ele><time>2026-04-12T11:13:22.683Z</time></trkpt><trkpt lat="40.6068457" lon="9.3543462"><ele>710.0</ele><time>2026-04-12T11:13:23.67Z</time></trkpt><trkpt lat="40.6069552" lon="9.3543227"><ele>710.0</ele><time>2026-04-12T11:13:24.641Z</time></trkpt><trkpt lat="40.6070664" lon="9.3543011"><ele>710.0</ele><time>2026-04-12T11:13:25.66Z</time></trkpt><trkpt lat="40.6071723" lon="9.3542785"><ele>710.0</ele><time>2026-04-12T11:13:26.642Z</time></trkpt><trkpt lat="40.6072793" lon="9.3542527"><ele>709.0</ele><time>2026-04-12T11:13:27.639Z</time></trkpt><trkpt lat="40.6073838" lon="9.3542246"><ele>708.0</ele><time>2026-04-12T11:13:28.643Z</time></trkpt><trkpt lat="40.6074965" lon="9.3541993"><ele>707.0</ele><time>2026-04-12T11:13:29.653Z</time></trkpt><trkpt lat="40.6076112" lon="9.3541853"><ele>706.0</ele><time>2026-04-12T11:13:30.636Z</time></trkpt><trkpt lat="40.607732" lon="9.3541728"><ele>704.25</ele><time>2026-04-12T11:13:31.645Z</time></trkpt><trkpt lat="40.6078584" lon="9.3541495"><ele>702.5</ele><time>2026-04-12T11:13:32.626Z</time></trkpt><trkpt lat="40.6079804" lon="9.3541251"><ele>700.75</ele><time>2026-04-12T11:13:33.634Z</time></trkpt><trkpt lat="40.6080986" lon="9.3541005"><ele>699.0</ele><time>2026-04-12T11:13:34.629Z</time></trkpt><trkpt lat="40.6082035" lon="9.3540896"><ele>699.0</ele><time>2026-04-12T11:13:35.649Z</time></trkpt><trkpt lat="40.6083054" lon="9.3540718"><ele>699.0</ele><time>2026-04-12T11:13:36.646Z</time></trkpt><trkpt lat="40.6084074" lon="9.3540564"><ele>699.0</ele><time>2026-04-12T11:13:37.625Z</time></trkpt><trkpt lat="40.6085123" lon="9.354044"><ele>699.0</ele><time>2026-04-12T11:13:38.627Z</time></trkpt><trkpt lat="40.60862" lon="9.3540221"><ele>699.0</ele><time>2026-04-12T11:13:39.629Z</time></trkpt><trkpt lat="40.6087178" lon="9.3540014"><ele>698.4000000000001</ele><time>2026-04-12T11:13:40.619Z</time></trkpt><trkpt lat="40.6088151" lon="9.3539745"><ele>697.8</ele><time>2026-04-12T11:13:41.628Z</time></trkpt><trkpt lat="40.6089117" lon="9.3539366"><ele>697.2</ele><time>2026-04-12T11:13:42.629Z</time></trkpt><trkpt lat="40.6090097" lon="9.3538886"><ele>696.5999999999999</ele><time>2026-04-12T11:13:43.615Z</time></trkpt><trkpt lat="40.6091058" lon="9.3538393"><ele>696.0</ele><time>2026-04-12T11:13:44.62Z</time></trkpt><trkpt lat="40.6091929" lon="9.3537834"><ele>695.3333333333334</ele><time>2026-04-12T11:13:45.618Z</time></trkpt><trkpt lat="40.6092732" lon="9.3537221"><ele>694.6666666666666</ele><time>2026-04-12T11:13:46.624Z</time></trkpt><trkpt lat="40.6093396" lon="9.3536654"><ele>694.0</ele><time>2026-04-12T11:13:47.623Z</time></trkpt><trkpt lat="40.6093969" lon="9.3535998"><ele>693.3333333333333</ele><time>2026-04-12T11:13:48.615Z</time></trkpt><trkpt lat="40.609433" lon="9.3535089"><ele>692.6666666666666</ele><time>2026-04-12T11:13:49.605Z</time></trkpt><trkpt lat="40.6094668" lon="9.3533901"><ele>692.0</ele><time>2026-04-12T11:13:50.611Z</time></trkpt><trkpt lat="40.6094792" lon="9.3532581"><ele>692.0</ele><time>2026-04-12T11:13:51.613Z</time></trkpt><trkpt lat="40.6094735" lon="9.3531121"><ele>692.0</ele><time>2026-04-12T11:13:52.603Z</time></trkpt><trkpt lat="40.6094573" lon="9.3529546"><ele>692.0</ele><time>2026-04-12T11:13:53.607Z</time></trkpt><trkpt lat="40.6094475" lon="9.3528016"><ele>692.0</ele><time>2026-04-12T11:13:54.614Z</time></trkpt><trkpt lat="40.6094342" lon="9.3526383"><ele>691.5</ele><time>2026-04-12T11:13:55.618Z</time></trkpt><trkpt lat="40.6094191" lon="9.3524635"><ele>691.0</ele><time>2026-04-12T11:13:56.602Z</time></trkpt><trkpt lat="40.6094072" lon="9.3522878"><ele>690.5</ele><time>2026-04-12T11:13:57.603Z</time></trkpt><trkpt lat="40.6093964" lon="9.3521258"><ele>690.0</ele><time>2026-04-12T11:13:58.614Z</time></trkpt><trkpt lat="40.6093824" lon="9.3519718"><ele>689.25</ele><time>2026-04-12T11:13:59.602Z</time></trkpt><trkpt lat="40.6093728" lon="9.3518236"><ele>688.5</ele><time>2026-04-12T11:14:00.602Z</time></trkpt><trkpt lat="40.6093676" lon="9.3516781"><ele>687.75</ele><time>2026-04-12T11:14:01.606Z</time></trkpt><trkpt lat="40.609372" lon="9.35153"><ele>687.0</ele><time>2026-04-12T11:14:02.595Z</time></trkpt><trkpt lat="40.6093827" lon="9.3513746"><ele>686.4000000000001</ele><time>2026-04-12T11:14:03.599Z</time></trkpt><trkpt lat="40.6093954" lon="9.3512257"><ele>685.8000000000001</ele><time>2026-04-12T11:14:04.597Z</time></trkpt><trkpt lat="40.6094079" lon="9.3510928"><ele>685.2</ele><time>2026-04-12T11:14:05.588Z</time></trkpt><trkpt lat="40.6094256" lon="9.3509638"><ele>684.6</ele><time>2026-04-12T11:14:06.601Z</time></trkpt><trkpt lat="40.6094589" lon="9.3508382"><ele>684.0</ele><time>2026-04-12T11:14:07.586Z</time></trkpt><trkpt lat="40.6095073" lon="9.35072"><ele>686.5</ele><time>2026-04-12T11:14:08.61Z</time></trkpt><trkpt lat="40.6095741" lon="9.3505968"><ele>689.0</ele><time>2026-04-12T11:14:09.589Z</time></trkpt><trkpt lat="40.6096517" lon="9.3504713"><ele>691.5</ele><time>2026-04-12T11:14:10.592Z</time></trkpt><trkpt lat="40.6097191" lon="9.3503208"><ele>694.0</ele><time>2026-04-12T11:14:11.589Z</time></trkpt><trkpt lat="40.6097741" lon="9.3501544"><ele>694.0</ele><time>2026-04-12T11:14:12.581Z</time></trkpt><trkpt lat="40.6098236" lon="9.34998"><ele>694.0</ele><time>2026-04-12T11:14:13.579Z</time></trkpt><trkpt lat="40.6098659" lon="9.3498036"><ele>694.0</ele><time>2026-04-12T11:14:14.583Z</time></trkpt><trkpt lat="40.6099092" lon="9.3496303"><ele>694.0</ele><time>2026-04-12T11:14:15.58Z</time></trkpt><trkpt lat="40.6099522" lon="9.3494667"><ele>692.75</ele><time>2026-04-12T11:14:16.584Z</time></trkpt><trkpt lat="40.6099912" lon="9.3493172"><ele>691.5</ele><time>2026-04-12T11:14:17.583Z</time></trkpt><trkpt lat="40.610026" lon="9.3491769"><ele>690.25</ele><time>2026-04-12T11:14:18.574Z</time></trkpt><trkpt lat="40.6100599" lon="9.3490306"><ele>689.0</ele><time>2026-04-12T11:14:19.597Z</time></trkpt><trkpt lat="40.6100984" lon="9.3488756"><ele>685.75</ele><time>2026-04-12T11:14:20.581Z</time></trkpt><trkpt lat="40.6101395" lon="9.3487239"><ele>682.5</ele><time>2026-04-12T11:14:21.579Z</time></trkpt><trkpt lat="40.6101847" lon="9.3485845"><ele>679.25</ele><time>2026-04-12T11:14:22.579Z</time></trkpt><trkpt lat="40.6102381" lon="9.3484488"><ele>676.0</ele><time>2026-04-12T11:14:23.581Z</time></trkpt><trkpt lat="40.6103036" lon="9.3483312"><ele>676.0</ele><time>2026-04-12T11:14:24.576Z</time></trkpt><trkpt lat="40.6103797" lon="9.3482123"><ele>676.0</ele><time>2026-04-12T11:14:25.578Z</time></trkpt><trkpt lat="40.6104585" lon="9.3480888"><ele>676.0</ele><time>2026-04-12T11:14:26.577Z</time></trkpt><trkpt lat="40.610534" lon="9.3479702"><ele>676.0</ele><time>2026-04-12T11:14:27.577Z</time></trkpt><trkpt lat="40.6106041" lon="9.3478434"><ele>676.0</ele><time>2026-04-12T11:14:28.578Z</time></trkpt><trkpt lat="40.6106729" lon="9.347709"><ele>676.0</ele><time>2026-04-12T11:14:29.596Z</time></trkpt><trkpt lat="40.6107398" lon="9.3475692"><ele>676.0</ele><time>2026-04-12T11:14:30.59Z</time></trkpt><trkpt lat="40.6108015" lon="9.3474352"><ele>676.0</ele><time>2026-04-12T11:14:31.579Z</time></trkpt><trkpt lat="40.6108571" lon="9.3473009"><ele>674.25</ele><time>2026-04-12T11:14:32.583Z</time></trkpt><trkpt lat="40.6109148" lon="9.3471503"><ele>672.5</ele><time>2026-04-12T11:14:33.588Z</time></trkpt><trkpt lat="40.610963" lon="9.3469823"><ele>670.75</ele><time>2026-04-12T11:14:34.575Z</time></trkpt><trkpt lat="40.6110124" lon="9.3468025"><ele>669.0</ele><time>2026-04-12T11:14:35.582Z</time></trkpt><trkpt lat="40.6110605" lon="9.3466249"><ele>669.0</ele><time>2026-04-12T11:14:36.58Z</time></trkpt><trkpt lat="40.611103" lon="9.346457"><ele>669.0</ele><time>2026-04-12T11:14:37.575Z</time></trkpt><trkpt lat="40.6111433" lon="9.3463033"><ele>669.0</ele><time>2026-04-12T11:14:38.581Z</time></trkpt><trkpt lat="40.6111801" lon="9.3461618"><ele>669.0</ele><time>2026-04-12T11:14:39.588Z</time></trkpt><trkpt lat="40.6112176" lon="9.3460404"><ele>669.6</ele><time>2026-04-12T11:14:40.574Z</time></trkpt><trkpt lat="40.6112626" lon="9.3459325"><ele>670.2</ele><time>2026-04-12T11:14:41.58Z</time></trkpt><trkpt lat="40.6113192" lon="9.3458251"><ele>670.8000000000001</ele><time>2026-04-12T11:14:42.595Z</time></trkpt><trkpt lat="40.6113877" lon="9.3457221"><ele>671.4000000000001</ele><time>2026-04-12T11:14:43.593Z</time></trkpt><trkpt lat="40.6114699" lon="9.3456331"><ele>672.0</ele><time>2026-04-12T11:14:44.575Z</time></trkpt><trkpt lat="40.6115638" lon="9.3455594"><ele>671.0</ele><time>2026-04-12T11:14:45.571Z</time></trkpt><trkpt lat="40.6116604" lon="9.3454943"><ele>670.0</ele><time>2026-04-12T11:14:46.574Z</time></trkpt><trkpt lat="40.6117567" lon="9.3454383"><ele>669.0</ele><time>2026-04-12T11:14:47.572Z</time></trkpt><trkpt lat="40.6118631" lon="9.3454034"><ele>668.0</ele><time>2026-04-12T11:14:48.578Z</time></trkpt><trkpt lat="40.6119818" lon="9.345373"><ele>667.0</ele><time>2026-04-12T11:14:49.592Z</time></trkpt><trkpt lat="40.6121005" lon="9.345349"><ele>667.0</ele><time>2026-04-12T11:14:50.575Z</time></trkpt><trkpt lat="40.6122218" lon="9.3453216"><ele>667.0</ele><time>2026-04-12T11:14:51.576Z</time></trkpt><trkpt lat="40.6123366" lon="9.3452801"><ele>667.0</ele><time>2026-04-12T11:14:52.578Z</time></trkpt><trkpt lat="40.6124478" lon="9.3452361"><ele>667.0</ele><time>2026-04-12T11:14:53.571Z</time></trkpt><trkpt lat="40.6125521" lon="9.3451966"><ele>667.0</ele><time>2026-04-12T11:14:54.584Z</time></trkpt><trkpt lat="40.6126555" lon="9.3451603"><ele>667.0</ele><time>2026-04-12T11:14:55.571Z</time></trkpt><trkpt lat="40.6127481" lon="9.3451312"><ele>667.0</ele><time>2026-04-12T11:14:56.584Z</time></trkpt><trkpt lat="40.6128235" lon="9.3450943"><ele>667.0</ele><time>2026-04-12T11:14:57.572Z</time></trkpt><trkpt lat="40.6128841" lon="9.3450378"><ele>667.0</ele><time>2026-04-12T11:14:58.574Z</time></trkpt><trkpt lat="40.6129192" lon="9.3449595"><ele>667.0</ele><time>2026-04-12T11:14:59.573Z</time></trkpt><trkpt lat="40.6129254" lon="9.3448738"><ele>667.0</ele><time>2026-04-12T11:15:00.575Z</time></trkpt><trkpt lat="40.6129033" lon="9.3447722"><ele>667.0</ele><time>2026-04-12T11:15:01.563Z</time></trkpt><trkpt lat="40.6128706" lon="9.3446577"><ele>667.0</ele><time>2026-04-12T11:15:02.577Z</time></trkpt><trkpt lat="40.6128434" lon="9.3445311"><ele>667.0</ele><time>2026-04-12T11:15:03.574Z</time></trkpt><trkpt lat="40.6127965" lon="9.3443915"><ele>667.0</ele><time>2026-04-12T11:15:04.57Z</time></trkpt><trkpt lat="40.6127437" lon="9.3442423"><ele>666.75</ele><time>2026-04-12T11:15:05.57Z</time></trkpt><trkpt lat="40.6126794" lon="9.3440762"><ele>666.5</ele><time>2026-04-12T11:15:06.572Z</time></trkpt><trkpt lat="40.6126188" lon="9.3439037"><ele>666.25</ele><time>2026-04-12T11:15:07.576Z</time></trkpt><trkpt lat="40.612564" lon="9.3437233"><ele>666.0</ele><time>2026-04-12T11:15:08.571Z</time></trkpt><trkpt lat="40.6125166" lon="9.3435491"><ele>666.75</ele><time>2026-04-12T11:15:09.573Z</time></trkpt><trkpt lat="40.6124671" lon="9.3433774"><ele>667.5</ele><time>2026-04-12T11:15:10.577Z</time></trkpt><trkpt lat="40.6124202" lon="9.343207"><ele>668.25</ele><time>2026-04-12T11:15:11.57Z</time></trkpt><trkpt lat="40.6123795" lon="9.3430411"><ele>669.0</ele><time>2026-04-12T11:15:12.583Z</time></trkpt><trkpt lat="40.6123366" lon="9.3428735"><ele>669.25</ele><time>2026-04-12T11:15:13.573Z</time></trkpt><trkpt lat="40.6122881" lon="9.3427077"><ele>669.5</ele><time>2026-04-12T11:15:14.583Z</time></trkpt><trkpt lat="40.6122383" lon="9.3425395"><ele>669.75</ele><time>2026-04-12T11:15:15.57Z</time></trkpt><trkpt lat="40.6121993" lon="9.3423731"><ele>670.0</ele><time>2026-04-12T11:15:16.571Z</time></trkpt><trkpt lat="40.612171" lon="9.3422125"><ele>670.5</ele><time>2026-04-12T11:15:17.57Z</time></trkpt><trkpt lat="40.6121551" lon="9.3420461"><ele>671.0</ele><time>2026-04-12T11:15:18.586Z</time></trkpt><trkpt lat="40.6121529" lon="9.3418782"><ele>671.5</ele><time>2026-04-12T11:15:19.583Z</time></trkpt><trkpt lat="40.6121584" lon="9.3417012"><ele>672.0</ele><time>2026-04-12T11:15:20.574Z</time></trkpt><trkpt lat="40.6121674" lon="9.3415134"><ele>672.25</ele><time>2026-04-12T11:15:21.579Z</time></trkpt><trkpt lat="40.6121837" lon="9.3413258"><ele>672.5</ele><time>2026-04-12T11:15:22.575Z</time></trkpt><trkpt lat="40.612205" lon="9.3411483"><ele>672.75</ele><time>2026-04-12T11:15:23.569Z</time></trkpt><trkpt lat="40.6122298" lon="9.3409798"><ele>673.0</ele><time>2026-04-12T11:15:24.579Z</time></trkpt><trkpt lat="40.6122486" lon="9.340805"><ele>673.0</ele><time>2026-04-12T11:15:25.587Z</time></trkpt><trkpt lat="40.6122655" lon="9.3406311"><ele>673.0</ele><time>2026-04-12T11:15:26.569Z</time></trkpt><trkpt lat="40.6122854" lon="9.3404588"><ele>673.0</ele><time>2026-04-12T11:15:27.578Z</time></trkpt><trkpt lat="40.6123153" lon="9.3402814"><ele>673.0</ele><time>2026-04-12T11:15:28.578Z</time></trkpt><trkpt lat="40.6123511" lon="9.340097"><ele>673.0</ele><time>2026-04-12T11:15:29.574Z</time></trkpt><trkpt lat="40.6123901" lon="9.3399161"><ele>673.0</ele><time>2026-04-12T11:15:30.573Z</time></trkpt><trkpt lat="40.6124311" lon="9.3397342"><ele>673.0</ele><time>2026-04-12T11:15:31.573Z</time></trkpt><trkpt lat="40.6124714" lon="9.3395536"><ele>673.0</ele><time>2026-04-12T11:15:32.581Z</time></trkpt><trkpt lat="40.6125188" lon="9.3393779"><ele>673.0</ele><time>2026-04-12T11:15:33.571Z</time></trkpt><trkpt lat="40.6125674" lon="9.3392047"><ele>673.0</ele><time>2026-04-12T11:15:34.572Z</time></trkpt><trkpt lat="40.6126089" lon="9.339027"><ele>673.0</ele><time>2026-04-12T11:15:35.577Z</time></trkpt><trkpt lat="40.6126462" lon="9.3388568"><ele>673.0</ele><time>2026-04-12T11:15:36.598Z</time></trkpt><trkpt lat="40.6126839" lon="9.3387034"><ele>673.0</ele><time>2026-04-12T11:15:37.574Z</time></trkpt><trkpt lat="40.6127176" lon="9.3385538"><ele>673.0</ele><time>2026-04-12T11:15:38.584Z</time></trkpt><trkpt lat="40.6127475" lon="9.3384155"><ele>673.0</ele><time>2026-04-12T11:15:39.571Z</time></trkpt><trkpt lat="40.6127724" lon="9.3382872"><ele>673.0</ele><time>2026-04-12T11:15:40.569Z</time></trkpt><trkpt lat="40.6127991" lon="9.3381668"><ele>673.0</ele><time>2026-04-12T11:15:41.573Z</time></trkpt><trkpt lat="40.6128287" lon="9.33806"><ele>672.6666666666667</ele><time>2026-04-12T11:15:42.577Z</time></trkpt><trkpt lat="40.612869" lon="9.3379662"><ele>672.3333333333334</ele><time>2026-04-12T11:15:43.576Z</time></trkpt><trkpt lat="40.6129227" lon="9.3378959"><ele>672.0</ele><time>2026-04-12T11:15:44.567Z</time></trkpt><trkpt lat="40.6129825" lon="9.3378477"><ele>671.6666666666666</ele><time>2026-04-12T11:15:45.567Z</time></trkpt><trkpt lat="40.6130743" lon="9.337792"><ele>671.3333333333333</ele><time>2026-04-12T11:15:47.596Z</time></trkpt><trkpt lat="40.613171" lon="9.3377396"><ele>671.0</ele><time>2026-04-12T11:15:49.588Z</time></trkpt><trkpt lat="40.6132304" lon="9.3377078"><ele>671.0</ele><time>2026-04-12T11:15:50.579Z</time></trkpt><trkpt lat="40.6132948" lon="9.3376719"><ele>671.0</ele><time>2026-04-12T11:15:51.574Z</time></trkpt><trkpt lat="40.6133534" lon="9.3376322"><ele>671.0</ele><time>2026-04-12T11:15:52.576Z</time></trkpt><trkpt lat="40.6134145" lon="9.3375938"><ele>671.0</ele><time>2026-04-12T11:15:53.577Z</time></trkpt><trkpt lat="40.6134774" lon="9.3375492"><ele>671.0</ele><time>2026-04-12T11:15:54.578Z</time></trkpt><trkpt lat="40.6135519" lon="9.337507"><ele>671.0</ele><time>2026-04-12T11:15:55.572Z</time></trkpt><trkpt lat="40.6136279" lon="9.3374626"><ele>671.0</ele><time>2026-04-12T11:15:56.577Z</time></trkpt><trkpt lat="40.6137061" lon="9.3374147"><ele>671.0</ele><time>2026-04-12T11:15:57.58Z</time></trkpt><trkpt lat="40.6137877" lon="9.337373"><ele>671.0</ele><time>2026-04-12T11:15:58.59Z</time></trkpt><trkpt lat="40.6138636" lon="9.3373396"><ele>671.0</ele><time>2026-04-12T11:15:59.598Z</time></trkpt><trkpt lat="40.6139341" lon="9.3373032"><ele>671.0</ele><time>2026-04-12T11:16:00.583Z</time></trkpt><trkpt lat="40.6139999" lon="9.3372701"><ele>671.0</ele><time>2026-04-12T11:16:01.596Z</time></trkpt><trkpt lat="40.6140643" lon="9.3372402"><ele>671.0</ele><time>2026-04-12T11:16:02.573Z</time></trkpt><trkpt lat="40.614133" lon="9.3372091"><ele>671.3333333333333</ele><time>2026-04-12T11:16:03.571Z</time></trkpt><trkpt lat="40.6142047" lon="9.3371743"><ele>671.6666666666666</ele><time>2026-04-12T11:16:04.573Z</time></trkpt><trkpt lat="40.6142736" lon="9.3371344"><ele>672.0</ele><time>2026-04-12T11:16:05.585Z</time></trkpt><trkpt lat="40.6143426" lon="9.3370929"><ele>672.3333333333334</ele><time>2026-04-12T11:16:06.584Z</time></trkpt><trkpt lat="40.6144112" lon="9.337049"><ele>672.6666666666667</ele><time>2026-04-12T11:16:07.57Z</time></trkpt><trkpt lat="40.6144793" lon="9.3370028"><ele>673.0</ele><time>2026-04-12T11:16:08.581Z</time></trkpt><trkpt lat="40.6145489" lon="9.3369555"><ele>673.5</ele><time>2026-04-12T11:16:09.58Z</time></trkpt><trkpt lat="40.6146237" lon="9.3369168"><ele>674.0</ele><time>2026-04-12T11:16:10.572Z</time></trkpt><trkpt lat="40.6147041" lon="9.336893"><ele>674.5</ele><time>2026-04-12T11:16:11.573Z</time></trkpt><trkpt lat="40.6147836" lon="9.3368938"><ele>675.0</ele><time>2026-04-12T11:16:12.574Z</time></trkpt><trkpt lat="40.6148583" lon="9.3369345"><ele>675.5</ele><time>2026-04-12T11:16:13.571Z</time></trkpt><trkpt lat="40.6149244" lon="9.3369879"><ele>676.0</ele><time>2026-04-12T11:16:14.584Z</time></trkpt><trkpt lat="40.6149912" lon="9.3370471"><ele>676.0</ele><time>2026-04-12T11:16:15.577Z</time></trkpt><trkpt lat="40.6150721" lon="9.3371007"><ele>676.0</ele><time>2026-04-12T11:16:16.582Z</time></trkpt><trkpt lat="40.6151563" lon="9.3371541"><ele>676.0</ele><time>2026-04-12T11:16:17.577Z</time></trkpt><trkpt lat="40.6152418" lon="9.3372004"><ele>676.0</ele><time>2026-04-12T11:16:18.584Z</time></trkpt><trkpt lat="40.6153213" lon="9.3372435"><ele>676.0</ele><time>2026-04-12T11:16:19.586Z</time></trkpt><trkpt lat="40.6154013" lon="9.337293"><ele>675.0</ele><time>2026-04-12T11:16:20.581Z</time></trkpt><trkpt lat="40.6154819" lon="9.3373537"><ele>674.0</ele><time>2026-04-12T11:16:21.575Z</time></trkpt><trkpt lat="40.6155629" lon="9.3374185"><ele>673.0</ele><time>2026-04-12T11:16:22.575Z</time></trkpt><trkpt lat="40.6156386" lon="9.3374807"><ele>672.0</ele><time>2026-04-12T11:16:23.577Z</time></trkpt><trkpt lat="40.615711" lon="9.337553"><ele>671.0</ele><time>2026-04-12T11:16:24.581Z</time></trkpt><trkpt lat="40.6157826" lon="9.3376313"><ele>671.0</ele><time>2026-04-12T11:16:25.581Z</time></trkpt><trkpt lat="40.6158555" lon="9.3377084"><ele>671.0</ele><time>2026-04-12T11:16:26.586Z</time></trkpt><trkpt lat="40.6159353" lon="9.3377804"><ele>671.0</ele><time>2026-04-12T11:16:27.582Z</time></trkpt><trkpt lat="40.6160202" lon="9.3378502"><ele>671.0</ele><time>2026-04-12T11:16:28.597Z</time></trkpt><trkpt lat="40.6161098" lon="9.3379197"><ele>671.0</ele><time>2026-04-12T11:16:29.626Z</time></trkpt><trkpt lat="40.6161934" lon="9.3379797"><ele>671.0</ele><time>2026-04-12T11:16:30.599Z</time></trkpt><trkpt lat="40.6162682" lon="9.3380374"><ele>671.0</ele><time>2026-04-12T11:16:31.595Z</time></trkpt><trkpt lat="40.6163473" lon="9.3380979"><ele>671.0</ele><time>2026-04-12T11:16:32.61Z</time></trkpt><trkpt lat="40.6164314" lon="9.3381603"><ele>671.0</ele><time>2026-04-12T11:16:33.587Z</time></trkpt><trkpt lat="40.6165205" lon="9.3382185"><ele>671.0</ele><time>2026-04-12T11:16:34.597Z</time></trkpt><trkpt lat="40.6166122" lon="9.3382714"><ele>670.8</ele><time>2026-04-12T11:16:35.593Z</time></trkpt><trkpt lat="40.6167026" lon="9.3383239"><ele>670.5999999999999</ele><time>2026-04-12T11:16:36.58Z</time></trkpt><trkpt lat="40.6167883" lon="9.3383843"><ele>670.4</ele><time>2026-04-12T11:16:37.579Z</time></trkpt><trkpt lat="40.6168738" lon="9.3384398"><ele>670.2</ele><time>2026-04-12T11:16:38.576Z</time></trkpt><trkpt lat="40.6169579" lon="9.3384965"><ele>670.0</ele><time>2026-04-12T11:16:39.59Z</time></trkpt><trkpt lat="40.6170438" lon="9.3385507"><ele>670.0</ele><time>2026-04-12T11:16:40.584Z</time></trkpt><trkpt lat="40.6171315" lon="9.3386077"><ele>670.0</ele><time>2026-04-12T11:16:41.575Z</time></trkpt><trkpt lat="40.6172232" lon="9.338662"><ele>670.0</ele><time>2026-04-12T11:16:42.576Z</time></trkpt><trkpt lat="40.617318" lon="9.3387158"><ele>670.0</ele><time>2026-04-12T11:16:43.575Z</time></trkpt><trkpt lat="40.6174184" lon="9.3387655"><ele>670.0</ele><time>2026-04-12T11:16:44.568Z</time></trkpt><trkpt lat="40.6175252" lon="9.3388042"><ele>670.0</ele><time>2026-04-12T11:16:45.573Z</time></trkpt><trkpt lat="40.6176318" lon="9.3388326"><ele>670.0</ele><time>2026-04-12T11:16:46.57Z</time></trkpt><trkpt lat="40.617741" lon="9.3388558"><ele>670.0</ele><time>2026-04-12T11:16:47.586Z</time></trkpt><trkpt lat="40.617851" lon="9.3388743"><ele>670.0</ele><time>2026-04-12T11:16:48.574Z</time></trkpt><trkpt lat="40.6179657" lon="9.3388962"><ele>670.0</ele><time>2026-04-12T11:16:49.565Z</time></trkpt><trkpt lat="40.6180882" lon="9.3389036"><ele>669.75</ele><time>2026-04-12T11:16:50.566Z</time></trkpt><trkpt lat="40.6182123" lon="9.3388956"><ele>669.5</ele><time>2026-04-12T11:16:51.565Z</time></trkpt><trkpt lat="40.6183433" lon="9.3388797"><ele>669.25</ele><time>2026-04-12T11:16:52.562Z</time></trkpt><trkpt lat="40.6184906" lon="9.3388557"><ele>669.0</ele><time>2026-04-12T11:16:53.663Z</time></trkpt><trkpt lat="40.6186436" lon="9.3388237"><ele>668.0</ele><time>2026-04-12T11:16:54.664Z</time></trkpt><trkpt lat="40.6187951" lon="9.3387919"><ele>667.0</ele><time>2026-04-12T11:16:55.653Z</time></trkpt><trkpt lat="40.6189474" lon="9.3387586"><ele>666.0</ele><time>2026-04-12T11:16:56.665Z</time></trkpt><trkpt lat="40.6191038" lon="9.3387202"><ele>666.0</ele><time>2026-04-12T11:16:57.659Z</time></trkpt><trkpt lat="40.619256" lon="9.3386695"><ele>666.0</ele><time>2026-04-12T11:16:58.688Z</time></trkpt><trkpt lat="40.6194103" lon="9.3386134"><ele>666.0</ele><time>2026-04-12T11:16:59.653Z</time></trkpt><trkpt lat="40.6195692" lon="9.3385548"><ele>664.6666666666666</ele><time>2026-04-12T11:17:00.652Z</time></trkpt><trkpt lat="40.6197322" lon="9.3384978"><ele>663.3333333333333</ele><time>2026-04-12T11:17:01.661Z</time></trkpt><trkpt lat="40.6198976" lon="9.33844"><ele>662.0</ele><time>2026-04-12T11:17:02.654Z</time></trkpt><trkpt lat="40.6200632" lon="9.3383799"><ele>662.0</ele><time>2026-04-12T11:17:03.652Z</time></trkpt><trkpt lat="40.6202265" lon="9.3383225"><ele>662.0</ele><time>2026-04-12T11:17:04.645Z</time></trkpt><trkpt lat="40.6203794" lon="9.3382663"><ele>662.0</ele><time>2026-04-12T11:17:05.655Z</time></trkpt><trkpt lat="40.6205238" lon="9.338215"><ele>662.75</ele><time>2026-04-12T11:17:06.669Z</time></trkpt><trkpt lat="40.6206583" lon="9.3381776"><ele>663.5</ele><time>2026-04-12T11:17:07.655Z</time></trkpt><trkpt lat="40.6207885" lon="9.3381493"><ele>664.25</ele><time>2026-04-12T11:17:08.663Z</time></trkpt><trkpt lat="40.6209167" lon="9.338146"><ele>665.0</ele><time>2026-04-12T11:17:09.661Z</time></trkpt><trkpt lat="40.6210434" lon="9.3381694"><ele>664.5</ele><time>2026-04-12T11:17:10.65Z</time></trkpt><trkpt lat="40.6211729" lon="9.3382176"><ele>664.0</ele><time>2026-04-12T11:17:11.659Z</time></trkpt><trkpt lat="40.6213088" lon="9.3382704"><ele>663.5</ele><time>2026-04-12T11:17:12.651Z</time></trkpt><trkpt lat="40.6214563" lon="9.3383163"><ele>663.0</ele><time>2026-04-12T11:17:13.666Z</time></trkpt><trkpt lat="40.6216074" lon="9.3383468"><ele>663.0</ele><time>2026-04-12T11:17:14.656Z</time></trkpt><trkpt lat="40.6217614" lon="9.3383574"><ele>663.0</ele><time>2026-04-12T11:17:15.651Z</time></trkpt><trkpt lat="40.6219052" lon="9.338349"><ele>663.0</ele><time>2026-04-12T11:17:16.655Z</time></trkpt><trkpt lat="40.6220399" lon="9.3383404"><ele>663.0</ele><time>2026-04-12T11:17:17.652Z</time></trkpt><trkpt lat="40.6221718" lon="9.338328"><ele>663.0</ele><time>2026-04-12T11:17:18.655Z</time></trkpt><trkpt lat="40.6222947" lon="9.3383082"><ele>663.0</ele><time>2026-04-12T11:17:19.659Z</time></trkpt><trkpt lat="40.6224005" lon="9.3382662"><ele>663.0</ele><time>2026-04-12T11:17:20.655Z</time></trkpt><trkpt lat="40.6224773" lon="9.3381872"><ele>663.0</ele><time>2026-04-12T11:17:21.653Z</time></trkpt><trkpt lat="40.6225337" lon="9.3380684"><ele>663.0</ele><time>2026-04-12T11:17:22.653Z</time></trkpt><trkpt lat="40.6225774" lon="9.3379307"><ele>663.0</ele><time>2026-04-12T11:17:23.654Z</time></trkpt><trkpt lat="40.6226285" lon="9.3377856"><ele>663.0</ele><time>2026-04-12T11:17:24.657Z</time></trkpt><trkpt lat="40.6226868" lon="9.3376375"><ele>663.0</ele><time>2026-04-12T11:17:25.654Z</time></trkpt><trkpt lat="40.6227444" lon="9.3374958"><ele>663.0</ele><time>2026-04-12T11:17:26.655Z</time></trkpt><trkpt lat="40.6227999" lon="9.3373645"><ele>663.0</ele><time>2026-04-12T11:17:27.656Z</time></trkpt><trkpt lat="40.6228657" lon="9.337258"><ele>663.0</ele><time>2026-04-12T11:17:28.65Z</time></trkpt><trkpt lat="40.6229441" lon="9.3371807"><ele>663.0</ele><time>2026-04-12T11:17:29.652Z</time></trkpt><trkpt lat="40.6230509" lon="9.3371333"><ele>663.0</ele><time>2026-04-12T11:17:30.647Z</time></trkpt><trkpt lat="40.6231704" lon="9.3370974"><ele>663.0</ele><time>2026-04-12T11:17:31.656Z</time></trkpt><trkpt lat="40.6232975" lon="9.33706"><ele>663.0</ele><time>2026-04-12T11:17:32.659Z</time></trkpt><trkpt lat="40.6234272" lon="9.3370147"><ele>663.0</ele><time>2026-04-12T11:17:33.656Z</time></trkpt><trkpt lat="40.6235624" lon="9.3369622"><ele>663.0</ele><time>2026-04-12T11:17:34.65Z</time></trkpt><trkpt lat="40.6237008" lon="9.3369024"><ele>663.0</ele><time>2026-04-12T11:17:35.66Z</time></trkpt><trkpt lat="40.6238434" lon="9.3368385"><ele>664.25</ele><time>2026-04-12T11:17:36.66Z</time></trkpt><trkpt lat="40.6239877" lon="9.3367726"><ele>665.5</ele><time>2026-04-12T11:17:37.653Z</time></trkpt><trkpt lat="40.6241214" lon="9.3367143"><ele>666.75</ele><time>2026-04-12T11:17:38.639Z</time></trkpt><trkpt lat="40.6242543" lon="9.3366558"><ele>668.0</ele><time>2026-04-12T11:17:39.652Z</time></trkpt><trkpt lat="40.6243756" lon="9.3366004"><ele>669.25</ele><time>2026-04-12T11:17:40.642Z</time></trkpt><trkpt lat="40.6244913" lon="9.3365449"><ele>670.5</ele><time>2026-04-12T11:17:41.645Z</time></trkpt><trkpt lat="40.624603" lon="9.3364879"><ele>671.75</ele><time>2026-04-12T11:17:42.648Z</time></trkpt><trkpt lat="40.6247063" lon="9.3364366"><ele>673.0</ele><time>2026-04-12T11:17:43.636Z</time></trkpt><trkpt lat="40.6248017" lon="9.3363851"><ele>674.25</ele><time>2026-04-12T11:17:44.637Z</time></trkpt><trkpt lat="40.6249001" lon="9.3363371"><ele>675.5</ele><time>2026-04-12T11:17:45.639Z</time></trkpt><trkpt lat="40.6250103" lon="9.3363012"><ele>676.75</ele><time>2026-04-12T11:17:46.633Z</time></trkpt><trkpt lat="40.6251327" lon="9.336288"><ele>678.0</ele><time>2026-04-12T11:17:47.642Z</time></trkpt><trkpt lat="40.6252567" lon="9.3362734"><ele>678.0</ele><time>2026-04-12T11:17:48.642Z</time></trkpt><trkpt lat="40.6253673" lon="9.3362439"><ele>678.0</ele><time>2026-04-12T11:17:49.631Z</time></trkpt><trkpt lat="40.6254597" lon="9.3361887"><ele>678.0</ele><time>2026-04-12T11:17:50.629Z</time></trkpt><trkpt lat="40.6255468" lon="9.336097"><ele>678.0</ele><time>2026-04-12T11:17:51.633Z</time></trkpt><trkpt lat="40.6256348" lon="9.3359869"><ele>678.0</ele><time>2026-04-12T11:17:52.623Z</time></trkpt><trkpt lat="40.6257304" lon="9.3358699"><ele>678.0</ele><time>2026-04-12T11:17:53.632Z</time></trkpt><trkpt lat="40.6258243" lon="9.3357529"><ele>678.0</ele><time>2026-04-12T11:17:54.622Z</time></trkpt><trkpt lat="40.6259159" lon="9.3356363"><ele>678.0</ele><time>2026-04-12T11:17:55.62Z</time></trkpt><trkpt lat="40.6260112" lon="9.3355238"><ele>678.0</ele><time>2026-04-12T11:17:56.617Z</time></trkpt><trkpt lat="40.6261074" lon="9.3354108"><ele>678.25</ele><time>2026-04-12T11:17:57.62Z</time></trkpt><trkpt lat="40.6262055" lon="9.3353035"><ele>678.5</ele><time>2026-04-12T11:17:58.632Z</time></trkpt><trkpt lat="40.626303" lon="9.3351985"><ele>678.75</ele><time>2026-04-12T11:17:59.621Z</time></trkpt><trkpt lat="40.6263994" lon="9.3350853"><ele>679.0</ele><time>2026-04-12T11:18:00.629Z</time></trkpt><trkpt lat="40.6264904" lon="9.3349682"><ele>679.0</ele><time>2026-04-12T11:18:01.634Z</time></trkpt><trkpt lat="40.6265805" lon="9.3348489"><ele>679.0</ele><time>2026-04-12T11:18:02.621Z</time></trkpt><trkpt lat="40.6266648" lon="9.3347282"><ele>679.0</ele><time>2026-04-12T11:18:03.616Z</time></trkpt><trkpt lat="40.6267462" lon="9.3346156"><ele>679.0</ele><time>2026-04-12T11:18:04.63Z</time></trkpt><trkpt lat="40.6268273" lon="9.3345388"><ele>679.6</ele><time>2026-04-12T11:18:05.619Z</time></trkpt><trkpt lat="40.6269206" lon="9.3345017"><ele>680.2</ele><time>2026-04-12T11:18:06.616Z</time></trkpt><trkpt lat="40.6270293" lon="9.3345132"><ele>680.8000000000001</ele><time>2026-04-12T11:18:07.632Z</time></trkpt><trkpt lat="40.6271407" lon="9.3345402"><ele>681.4000000000001</ele><time>2026-04-12T11:18:08.612Z</time></trkpt><trkpt lat="40.6272602" lon="9.3345671"><ele>682.0</ele><time>2026-04-12T11:18:09.615Z</time></trkpt><trkpt lat="40.6273811" lon="9.3345848"><ele>682.0</ele><time>2026-04-12T11:18:10.633Z</time></trkpt><trkpt lat="40.6275062" lon="9.3345957"><ele>682.0</ele><time>2026-04-12T11:18:11.622Z</time></trkpt><trkpt lat="40.6276323" lon="9.3346039"><ele>682.0</ele><time>2026-04-12T11:18:12.619Z</time></trkpt><trkpt lat="40.6277649" lon="9.3346187"><ele>682.0</ele><time>2026-04-12T11:18:13.629Z</time></trkpt><trkpt lat="40.6279124" lon="9.3346253"><ele>682.0</ele><time>2026-04-12T11:18:14.626Z</time></trkpt><trkpt lat="40.6280639" lon="9.3346249"><ele>682.0</ele><time>2026-04-12T11:18:15.615Z</time></trkpt><trkpt lat="40.6282154" lon="9.3346208"><ele>682.0</ele><time>2026-04-12T11:18:16.632Z</time></trkpt><trkpt lat="40.6283553" lon="9.334604"><ele>682.0</ele><time>2026-04-12T11:18:17.617Z</time></trkpt><trkpt lat="40.628484" lon="9.3345818"><ele>682.0</ele><time>2026-04-12T11:18:18.616Z</time></trkpt><trkpt lat="40.6286098" lon="9.3345342"><ele>682.0</ele><time>2026-04-12T11:18:19.615Z</time></trkpt><trkpt lat="40.6287401" lon="9.3344763"><ele>682.0</ele><time>2026-04-12T11:18:20.612Z</time></trkpt><trkpt lat="40.6288677" lon="9.3344095"><ele>682.0</ele><time>2026-04-12T11:18:21.626Z</time></trkpt><trkpt lat="40.6289932" lon="9.3343451"><ele>681.5</ele><time>2026-04-12T11:18:22.615Z</time></trkpt><trkpt lat="40.6291102" lon="9.334283"><ele>681.0</ele><time>2026-04-12T11:18:23.615Z</time></trkpt><trkpt lat="40.6292333" lon="9.3342351"><ele>680.5</ele><time>2026-04-12T11:18:24.616Z</time></trkpt><trkpt lat="40.6293563" lon="9.334218"><ele>680.0</ele><time>2026-04-12T11:18:25.621Z</time></trkpt><trkpt lat="40.6294824" lon="9.3342258"><ele>677.75</ele><time>2026-04-12T11:18:26.615Z</time></trkpt><trkpt lat="40.6296077" lon="9.3342313"><ele>675.5</ele><time>2026-04-12T11:18:27.612Z</time></trkpt><trkpt lat="40.6297277" lon="9.3342002"><ele>673.25</ele><time>2026-04-12T11:18:28.612Z</time></trkpt><trkpt lat="40.6298425" lon="9.3341625"><ele>671.0</ele><time>2026-04-12T11:18:29.621Z</time></trkpt><trkpt lat="40.6299549" lon="9.3340814"><ele>671.0</ele><time>2026-04-12T11:18:30.621Z</time></trkpt><trkpt lat="40.6300595" lon="9.333948"><ele>671.0</ele><time>2026-04-12T11:18:31.616Z</time></trkpt><trkpt lat="40.6301701" lon="9.3338083"><ele>671.0</ele><time>2026-04-12T11:18:32.613Z</time></trkpt><trkpt lat="40.6302952" lon="9.3336777"><ele>668.0</ele><time>2026-04-12T11:18:33.618Z</time></trkpt><trkpt lat="40.6304342" lon="9.3335605"><ele>665.0</ele><time>2026-04-12T11:18:34.611Z</time></trkpt><trkpt lat="40.6305943" lon="9.3334807"><ele>662.0</ele><time>2026-04-12T11:18:35.615Z</time></trkpt><trkpt lat="40.6307603" lon="9.3333997"><ele>662.0</ele><time>2026-04-12T11:18:36.615Z</time></trkpt><trkpt lat="40.6309197" lon="9.3333046"><ele>662.0</ele><time>2026-04-12T11:18:37.619Z</time></trkpt><trkpt lat="40.6310551" lon="9.3331895"><ele>662.0</ele><time>2026-04-12T11:18:38.623Z</time></trkpt><trkpt lat="40.6311843" lon="9.3330642"><ele>662.0</ele><time>2026-04-12T11:18:39.621Z</time></trkpt><trkpt lat="40.6313011" lon="9.3329264"><ele>662.0</ele><time>2026-04-12T11:18:40.61Z</time></trkpt><trkpt lat="40.6314097" lon="9.3327771"><ele>662.0</ele><time>2026-04-12T11:18:41.626Z</time></trkpt><trkpt lat="40.631498" lon="9.3326106"><ele>662.0</ele><time>2026-04-12T11:18:42.616Z</time></trkpt><trkpt lat="40.6315779" lon="9.3324217"><ele>662.0</ele><time>2026-04-12T11:18:43.621Z</time></trkpt><trkpt lat="40.6316581" lon="9.332218"><ele>662.0</ele><time>2026-04-12T11:18:44.629Z</time></trkpt><trkpt lat="40.6317446" lon="9.3320193"><ele>662.0</ele><time>2026-04-12T11:18:45.612Z</time></trkpt><trkpt lat="40.6318293" lon="9.3318323"><ele>662.0</ele><time>2026-04-12T11:18:46.615Z</time></trkpt><trkpt lat="40.6319102" lon="9.3316585"><ele>662.0</ele><time>2026-04-12T11:18:47.619Z</time></trkpt><trkpt lat="40.632" lon="9.3314991"><ele>660.6666666666666</ele><time>2026-04-12T11:18:48.616Z</time></trkpt><trkpt lat="40.632102" lon="9.3313487"><ele>659.3333333333334</ele><time>2026-04-12T11:18:49.607Z</time></trkpt><trkpt lat="40.6322171" lon="9.3312147"><ele>658.0</ele><time>2026-04-12T11:18:50.612Z</time></trkpt><trkpt lat="40.6323319" lon="9.3310928"><ele>658.0</ele><time>2026-04-12T11:18:51.617Z</time></trkpt><trkpt lat="40.6324475" lon="9.3309849"><ele>658.0</ele><time>2026-04-12T11:18:52.614Z</time></trkpt><trkpt lat="40.6325676" lon="9.3309026"><ele>658.0</ele><time>2026-04-12T11:18:53.617Z</time></trkpt><trkpt lat="40.6326965" lon="9.3308501"><ele>658.0</ele><time>2026-04-12T11:18:54.683Z</time></trkpt><trkpt lat="40.6328359" lon="9.3308131"><ele>657.25</ele><time>2026-04-12T11:18:55.611Z</time></trkpt><trkpt lat="40.6329813" lon="9.3307904"><ele>656.5</ele><time>2026-04-12T11:18:56.609Z</time></trkpt><trkpt lat="40.633132" lon="9.330773"><ele>655.75</ele><time>2026-04-12T11:18:57.608Z</time></trkpt><trkpt lat="40.6332829" lon="9.3307557"><ele>655.0</ele><time>2026-04-12T11:18:58.62Z</time></trkpt><trkpt lat="40.6334245" lon="9.330732"><ele>655.0</ele><time>2026-04-12T11:18:59.612Z</time></trkpt><trkpt lat="40.6335551" lon="9.3307133"><ele>655.0</ele><time>2026-04-12T11:19:00.622Z</time></trkpt><trkpt lat="40.6336758" lon="9.3307174"><ele>655.0</ele><time>2026-04-12T11:19:01.624Z</time></trkpt><trkpt lat="40.6337898" lon="9.3307538"><ele>655.0</ele><time>2026-04-12T11:19:02.614Z</time></trkpt><trkpt lat="40.6338985" lon="9.3308255"><ele>654.75</ele><time>2026-04-12T11:19:03.607Z</time></trkpt><trkpt lat="40.6340106" lon="9.3309188"><ele>654.5</ele><time>2026-04-12T11:19:04.607Z</time></trkpt><trkpt lat="40.6341289" lon="9.3310214"><ele>654.25</ele><time>2026-04-12T11:19:05.615Z</time></trkpt><trkpt lat="40.6342466" lon="9.331121"><ele>654.0</ele><time>2026-04-12T11:19:06.613Z</time></trkpt><trkpt lat="40.6343638" lon="9.3312045"><ele>654.0</ele><time>2026-04-12T11:19:07.616Z</time></trkpt><trkpt lat="40.6344828" lon="9.3312545"><ele>654.0</ele><time>2026-04-12T11:19:08.64Z</time></trkpt><trkpt lat="40.634597" lon="9.3312597"><ele>654.0</ele><time>2026-04-12T11:19:09.62Z</time></trkpt><trkpt lat="40.6347169" lon="9.3312189"><ele>654.0</ele><time>2026-04-12T11:19:10.617Z</time></trkpt><trkpt lat="40.634834" lon="9.3311395"><ele>654.0</ele><time>2026-04-12T11:19:11.615Z</time></trkpt><trkpt lat="40.6349603" lon="9.3310598"><ele>654.0</ele><time>2026-04-12T11:19:12.604Z</time></trkpt><trkpt lat="40.6350879" lon="9.3309801"><ele>654.0</ele><time>2026-04-12T11:19:13.612Z</time></trkpt><trkpt lat="40.6352102" lon="9.330897"><ele>654.0</ele><time>2026-04-12T11:19:14.622Z</time></trkpt><trkpt lat="40.6353125" lon="9.3308006"><ele>654.0</ele><time>2026-04-12T11:19:15.609Z</time></trkpt><trkpt lat="40.6353982" lon="9.3306691"><ele>654.0</ele><time>2026-04-12T11:19:16.608Z</time></trkpt><trkpt lat="40.6354724" lon="9.3305161"><ele>654.0</ele><time>2026-04-12T11:19:17.617Z</time></trkpt><trkpt lat="40.6355446" lon="9.330351"><ele>654.0</ele><time>2026-04-12T11:19:18.607Z</time></trkpt><trkpt lat="40.6356149" lon="9.3301846"><ele>654.0</ele><time>2026-04-12T11:19:19.609Z</time></trkpt><trkpt lat="40.6356835" lon="9.3300275"><ele>654.0</ele><time>2026-04-12T11:19:20.619Z</time></trkpt><trkpt lat="40.6357544" lon="9.3298849"><ele>654.0</ele><time>2026-04-12T11:19:21.611Z</time></trkpt><trkpt lat="40.635835" lon="9.3297643"><ele>654.0</ele><time>2026-04-12T11:19:22.606Z</time></trkpt><trkpt lat="40.6359311" lon="9.3296733"><ele>654.25</ele><time>2026-04-12T11:19:23.619Z</time></trkpt><trkpt lat="40.6360343" lon="9.3296023"><ele>654.5</ele><time>2026-04-12T11:19:24.608Z</time></trkpt><trkpt lat="40.636155" lon="9.329548"><ele>654.75</ele><time>2026-04-12T11:19:25.618Z</time></trkpt><trkpt lat="40.6362892" lon="9.3294926"><ele>655.0</ele><time>2026-04-12T11:19:26.608Z</time></trkpt><trkpt lat="40.6364224" lon="9.3294351"><ele>654.25</ele><time>2026-04-12T11:19:27.614Z</time></trkpt><trkpt lat="40.6365569" lon="9.3293712"><ele>653.5</ele><time>2026-04-12T11:19:28.598Z</time></trkpt><trkpt lat="40.6366889" lon="9.329301"><ele>652.75</ele><time>2026-04-12T11:19:29.604Z</time></trkpt><trkpt lat="40.6368239" lon="9.3292375"><ele>652.0</ele><time>2026-04-12T11:19:30.613Z</time></trkpt><trkpt lat="40.6369603" lon="9.3291679"><ele>651.75</ele><time>2026-04-12T11:19:31.608Z</time></trkpt><trkpt lat="40.6370932" lon="9.3291"><ele>651.5</ele><time>2026-04-12T11:19:32.599Z</time></trkpt><trkpt lat="40.6372217" lon="9.3290348"><ele>651.25</ele><time>2026-04-12T11:19:33.607Z</time></trkpt><trkpt lat="40.6373433" lon="9.3289763"><ele>651.0</ele><time>2026-04-12T11:19:34.609Z</time></trkpt><trkpt lat="40.6374649" lon="9.3289255"><ele>651.0</ele><time>2026-04-12T11:19:35.615Z</time></trkpt><trkpt lat="40.6375937" lon="9.3289027"><ele>651.0</ele><time>2026-04-12T11:19:36.622Z</time></trkpt><trkpt lat="40.63773" lon="9.3289157"><ele>651.0</ele><time>2026-04-12T11:19:37.607Z</time></trkpt><trkpt lat="40.6378602" lon="9.3289514"><ele>651.0</ele><time>2026-04-12T11:19:38.624Z</time></trkpt><trkpt lat="40.6379893" lon="9.3289886"><ele>650.75</ele><time>2026-04-12T11:19:39.61Z</time></trkpt><trkpt lat="40.6381218" lon="9.3290064"><ele>650.5</ele><time>2026-04-12T11:19:40.607Z</time></trkpt><trkpt lat="40.6382626" lon="9.3289981"><ele>650.25</ele><time>2026-04-12T11:19:41.604Z</time></trkpt><trkpt lat="40.6384058" lon="9.3289724"><ele>650.0</ele><time>2026-04-12T11:19:42.608Z</time></trkpt><trkpt lat="40.6385529" lon="9.3289368"><ele>651.25</ele><time>2026-04-12T11:19:43.61Z</time></trkpt><trkpt lat="40.638698" lon="9.3289078"><ele>652.5</ele><time>2026-04-12T11:19:44.625Z</time></trkpt><trkpt lat="40.6388421" lon="9.3288948"><ele>653.75</ele><time>2026-04-12T11:19:45.605Z</time></trkpt><trkpt lat="40.6389822" lon="9.3289134"><ele>655.0</ele><time>2026-04-12T11:19:46.61Z</time></trkpt><trkpt lat="40.6391185" lon="9.3289614"><ele>655.0</ele><time>2026-04-12T11:19:47.609Z</time></trkpt><trkpt lat="40.6392529" lon="9.3290381"><ele>655.0</ele><time>2026-04-12T11:19:48.608Z</time></trkpt><trkpt lat="40.6393761" lon="9.3291511"><ele>655.0</ele><time>2026-04-12T11:19:49.606Z</time></trkpt><trkpt lat="40.6394896" lon="9.3292725"><ele>655.0</ele><time>2026-04-12T11:19:50.605Z</time></trkpt><trkpt lat="40.6395975" lon="9.3293715"><ele>655.25</ele><time>2026-04-12T11:19:51.604Z</time></trkpt><trkpt lat="40.6397127" lon="9.3294368"><ele>655.5</ele><time>2026-04-12T11:19:52.607Z</time></trkpt><trkpt lat="40.6398385" lon="9.3294673"><ele>655.75</ele><time>2026-04-12T11:19:53.605Z</time></trkpt><trkpt lat="40.6399705" lon="9.329471"><ele>656.0</ele><time>2026-04-12T11:19:54.629Z</time></trkpt><trkpt lat="40.6401115" lon="9.3294576"><ele>656.0</ele><time>2026-04-12T11:19:55.602Z</time></trkpt><trkpt lat="40.6402538" lon="9.3294383"><ele>656.0</ele><time>2026-04-12T11:19:56.606Z</time></trkpt><trkpt lat="40.6404044" lon="9.3294218"><ele>656.0</ele><time>2026-04-12T11:19:57.602Z</time></trkpt><trkpt lat="40.6405558" lon="9.3294065"><ele>656.0</ele><time>2026-04-12T11:19:58.606Z</time></trkpt><trkpt lat="40.6407144" lon="9.3293886"><ele>655.6666666666666</ele><time>2026-04-12T11:19:59.608Z</time></trkpt><trkpt lat="40.6408695" lon="9.3293713"><ele>655.3333333333334</ele><time>2026-04-12T11:20:00.606Z</time></trkpt><trkpt lat="40.6410231" lon="9.3293591"><ele>655.0</ele><time>2026-04-12T11:20:01.621Z</time></trkpt><trkpt lat="40.6411703" lon="9.3293419"><ele>654.75</ele><time>2026-04-12T11:20:02.615Z</time></trkpt><trkpt lat="40.6413123" lon="9.3293021"><ele>654.5</ele><time>2026-04-12T11:20:03.599Z</time></trkpt><trkpt lat="40.6414477" lon="9.3292389"><ele>654.25</ele><time>2026-04-12T11:20:04.615Z</time></trkpt><trkpt lat="40.6415712" lon="9.3291532"><ele>654.0</ele><time>2026-04-12T11:20:05.603Z</time></trkpt><trkpt lat="40.6416898" lon="9.3290669"><ele>654.0</ele><time>2026-04-12T11:20:06.609Z</time></trkpt><trkpt lat="40.6418077" lon="9.3289996"><ele>654.0</ele><time>2026-04-12T11:20:07.6Z</time></trkpt><trkpt lat="40.6419421" lon="9.3289671"><ele>654.0</ele><time>2026-04-12T11:20:08.606Z</time></trkpt><trkpt lat="40.6420871" lon="9.3289509"><ele>654.0</ele><time>2026-04-12T11:20:09.601Z</time></trkpt><trkpt lat="40.6422309" lon="9.3289082"><ele>652.75</ele><time>2026-04-12T11:20:10.599Z</time></trkpt><trkpt lat="40.642367" lon="9.3288231"><ele>651.5</ele><time>2026-04-12T11:20:11.603Z</time></trkpt><trkpt lat="40.642502" lon="9.3287345"><ele>650.25</ele><time>2026-04-12T11:20:12.611Z</time></trkpt><trkpt lat="40.6426329" lon="9.3286459"><ele>649.0</ele><time>2026-04-12T11:20:13.621Z</time></trkpt><trkpt lat="40.6427704" lon="9.3285591"><ele>648.0</ele><time>2026-04-12T11:20:14.628Z</time></trkpt><trkpt lat="40.6429082" lon="9.3284621"><ele>647.0</ele><time>2026-04-12T11:20:15.606Z</time></trkpt><trkpt lat="40.6430286" lon="9.3283554"><ele>646.0</ele><time>2026-04-12T11:20:16.611Z</time></trkpt><trkpt lat="40.6431362" lon="9.3282442"><ele>645.0</ele><time>2026-04-12T11:20:17.618Z</time></trkpt><trkpt lat="40.6432218" lon="9.3281297"><ele>646.5</ele><time>2026-04-12T11:20:18.605Z</time></trkpt><trkpt lat="40.6432903" lon="9.3280061"><ele>648.0</ele><time>2026-04-12T11:20:19.6Z</time></trkpt><trkpt lat="40.6433617" lon="9.3278865"><ele>649.5</ele><time>2026-04-12T11:20:20.614Z</time></trkpt><trkpt lat="40.6434491" lon="9.3278038"><ele>651.0</ele><time>2026-04-12T11:20:21.632Z</time></trkpt><trkpt lat="40.643569" lon="9.327772"><ele>652.25</ele><time>2026-04-12T11:20:22.6Z</time></trkpt><trkpt lat="40.6436862" lon="9.3277486"><ele>653.5</ele><time>2026-04-12T11:20:23.595Z</time></trkpt><trkpt lat="40.6438085" lon="9.3277173"><ele>654.75</ele><time>2026-04-12T11:20:24.598Z</time></trkpt><trkpt lat="40.6439288" lon="9.3276636"><ele>656.0</ele><time>2026-04-12T11:20:25.599Z</time></trkpt><trkpt lat="40.6440499" lon="9.327587"><ele>656.0</ele><time>2026-04-12T11:20:26.613Z</time></trkpt><trkpt lat="40.6441688" lon="9.3275097"><ele>656.0</ele><time>2026-04-12T11:20:27.6Z</time></trkpt><trkpt lat="40.6442866" lon="9.3274264"><ele>656.0</ele><time>2026-04-12T11:20:28.596Z</time></trkpt><trkpt lat="40.6444111" lon="9.3273432"><ele>656.0</ele><time>2026-04-12T11:20:29.601Z</time></trkpt><trkpt lat="40.6445386" lon="9.3272538"><ele>657.0</ele><time>2026-04-12T11:20:30.595Z</time></trkpt><trkpt lat="40.6446692" lon="9.3271637"><ele>658.0</ele><time>2026-04-12T11:20:31.594Z</time></trkpt><trkpt lat="40.6448046" lon="9.3270731"><ele>659.0</ele><time>2026-04-12T11:20:32.603Z</time></trkpt><trkpt lat="40.644946" lon="9.3269805"><ele>659.0</ele><time>2026-04-12T11:20:33.6Z</time></trkpt><trkpt lat="40.645084" lon="9.3268938"><ele>659.0</ele><time>2026-04-12T11:20:34.598Z</time></trkpt><trkpt lat="40.6452099" lon="9.3268131"><ele>659.0</ele><time>2026-04-12T11:20:35.602Z</time></trkpt><trkpt lat="40.6453146" lon="9.3267456"><ele>659.0</ele><time>2026-04-12T11:20:36.602Z</time></trkpt><trkpt lat="40.6454015" lon="9.3266889"><ele>659.6666666666666</ele><time>2026-04-12T11:20:37.603Z</time></trkpt><trkpt lat="40.6454716" lon="9.3266467"><ele>660.3333333333333</ele><time>2026-04-12T11:20:38.595Z</time></trkpt><trkpt lat="40.6455693" lon="9.326603"><ele>661.0</ele><time>2026-04-12T11:20:40.59Z</time></trkpt><trkpt lat="40.645632" lon="9.326586"><ele>661.6666666666666</ele><time>2026-04-12T11:20:42.607Z</time></trkpt><trkpt lat="40.6456969" lon="9.3265442"><ele>662.3333333333334</ele><time>2026-04-12T11:20:46.595Z</time></trkpt><trkpt lat="40.6457521" lon="9.3264914"><ele>663.0</ele><time>2026-04-12T11:20:48.609Z</time></trkpt><trkpt lat="40.6458224" lon="9.3264339"><ele>663.0</ele><time>2026-04-12T11:20:50.611Z</time></trkpt><trkpt lat="40.6459049" lon="9.3263582"><ele>663.0</ele><time>2026-04-12T11:20:52.593Z</time></trkpt><trkpt lat="40.6459991" lon="9.3262909"><ele>663.0</ele><time>2026-04-12T11:20:54.59Z</time></trkpt><trkpt lat="40.6460574" lon="9.3262436"><ele>663.0</ele><time>2026-04-12T11:20:55.605Z</time></trkpt><trkpt lat="40.6461139" lon="9.3261916"><ele>663.0</ele><time>2026-04-12T11:20:56.596Z</time></trkpt><trkpt lat="40.6461719" lon="9.3261353"><ele>663.0</ele><time>2026-04-12T11:20:57.601Z</time></trkpt><trkpt lat="40.6462224" lon="9.3260666"><ele>663.3333333333334</ele><time>2026-04-12T11:20:58.593Z</time></trkpt><trkpt lat="40.6462624" lon="9.3259841"><ele>663.6666666666666</ele><time>2026-04-12T11:20:59.595Z</time></trkpt><trkpt lat="40.646293" lon="9.3258887"><ele>664.0</ele><time>2026-04-12T11:21:00.604Z</time></trkpt><trkpt lat="40.6463218" lon="9.325786"><ele>664.3333333333333</ele><time>2026-04-12T11:21:01.588Z</time></trkpt><trkpt lat="40.6463509" lon="9.3256835"><ele>664.6666666666666</ele><time>2026-04-12T11:21:02.585Z</time></trkpt><trkpt lat="40.6463814" lon="9.325581"><ele>665.0</ele><time>2026-04-12T11:21:03.592Z</time></trkpt><trkpt lat="40.646414" lon="9.3254808"><ele>665.0</ele><time>2026-04-12T11:21:04.605Z</time></trkpt><trkpt lat="40.6464507" lon="9.32538"><ele>665.0</ele><time>2026-04-12T11:21:05.599Z</time></trkpt><trkpt lat="40.6464876" lon="9.3252792"><ele>665.0</ele><time>2026-04-12T11:21:06.594Z</time></trkpt><trkpt lat="40.6465293" lon="9.3251965"><ele>665.0</ele><time>2026-04-12T11:21:07.587Z</time></trkpt><trkpt lat="40.6465742" lon="9.3251311"><ele>665.0</ele><time>2026-04-12T11:21:08.598Z</time></trkpt><trkpt lat="40.6466271" lon="9.3250769"><ele>665.0</ele><time>2026-04-12T11:21:09.583Z</time></trkpt><trkpt lat="40.6466932" lon="9.3250381"><ele>665.0</ele><time>2026-04-12T11:21:10.607Z</time></trkpt><trkpt lat="40.6467688" lon="9.3250127"><ele>665.0</ele><time>2026-04-12T11:21:11.587Z</time></trkpt><trkpt lat="40.6468428" lon="9.3250096"><ele>665.0</ele><time>2026-04-12T11:21:12.594Z</time></trkpt><trkpt lat="40.6469151" lon="9.3250244"><ele>665.0</ele><time>2026-04-12T11:21:13.597Z</time></trkpt><trkpt lat="40.6469805" lon="9.3250745"><ele>665.0</ele><time>2026-04-12T11:21:14.591Z</time></trkpt><trkpt lat="40.6470565" lon="9.3251383"><ele>665.0</ele><time>2026-04-12T11:21:15.61Z</time></trkpt><trkpt lat="40.6471404" lon="9.3251972"><ele>665.2</ele><time>2026-04-12T11:21:16.586Z</time></trkpt><trkpt lat="40.647233" lon="9.3252492"><ele>665.4</ele><time>2026-04-12T11:21:17.587Z</time></trkpt><trkpt lat="40.6473265" lon="9.3253045"><ele>665.5999999999999</ele><time>2026-04-12T11:21:18.591Z</time></trkpt><trkpt lat="40.6474222" lon="9.3253581"><ele>665.8</ele><time>2026-04-12T11:21:19.582Z</time></trkpt><trkpt lat="40.6475212" lon="9.3254105"><ele>666.0</ele><time>2026-04-12T11:21:20.585Z</time></trkpt><trkpt lat="40.6476216" lon="9.3254592"><ele>666.0</ele><time>2026-04-12T11:21:21.594Z</time></trkpt><trkpt lat="40.647711" lon="9.3254992"><ele>666.0</ele><time>2026-04-12T11:21:22.582Z</time></trkpt><trkpt lat="40.6477993" lon="9.3255382"><ele>666.0</ele><time>2026-04-12T11:21:23.581Z</time></trkpt><trkpt lat="40.6478851" lon="9.3255779"><ele>666.0</ele><time>2026-04-12T11:21:24.587Z</time></trkpt><trkpt lat="40.6479698" lon="9.325617"><ele>666.0</ele><time>2026-04-12T11:21:25.591Z</time></trkpt><trkpt lat="40.6480597" lon="9.3256566"><ele>665.5999999999999</ele><time>2026-04-12T11:21:26.593Z</time></trkpt><trkpt lat="40.6481569" lon="9.3256914"><ele>665.2</ele><time>2026-04-12T11:21:27.596Z</time></trkpt><trkpt lat="40.6482525" lon="9.3257346"><ele>664.8</ele><time>2026-04-12T11:21:28.588Z</time></trkpt><trkpt lat="40.6483536" lon="9.3257817"><ele>664.4000000000001</ele><time>2026-04-12T11:21:29.583Z</time></trkpt><trkpt lat="40.6484518" lon="9.3258374"><ele>664.0</ele><time>2026-04-12T11:21:30.586Z</time></trkpt><trkpt lat="40.6485468" lon="9.3259033"><ele>664.4000000000001</ele><time>2026-04-12T11:21:31.58Z</time></trkpt><trkpt lat="40.6486369" lon="9.3259889"><ele>664.8</ele><time>2026-04-12T11:21:32.591Z</time></trkpt><trkpt lat="40.6487229" lon="9.3260847"><ele>665.2</ele><time>2026-04-12T11:21:33.582Z</time></trkpt><trkpt lat="40.648805" lon="9.3261776"><ele>665.5999999999999</ele><time>2026-04-12T11:21:34.581Z</time></trkpt><trkpt lat="40.6488836" lon="9.3262744"><ele>666.0</ele><time>2026-04-12T11:21:35.586Z</time></trkpt><trkpt lat="40.6489582" lon="9.3263704"><ele>665.8333333333334</ele><time>2026-04-12T11:21:36.587Z</time></trkpt><trkpt lat="40.6490256" lon="9.3264657"><ele>665.6666666666666</ele><time>2026-04-12T11:21:37.587Z</time></trkpt><trkpt lat="40.649083" lon="9.326542"><ele>665.5</ele><time>2026-04-12T11:21:38.647Z</time></trkpt><trkpt lat="40.6491248" lon="9.3266068"><ele>665.3333333333333</ele><time>2026-04-12T11:21:39.604Z</time></trkpt><trkpt lat="40.6491973" lon="9.3267078"><ele>665.1666666666666</ele><time>2026-04-12T11:21:41.603Z</time></trkpt><trkpt lat="40.6492498" lon="9.3267898"><ele>665.0</ele><time>2026-04-12T11:21:43.606Z</time></trkpt><trkpt lat="40.6493008" lon="9.3268561"><ele>665.0</ele><time>2026-04-12T11:21:45.582Z</time></trkpt><trkpt lat="40.6493486" lon="9.3269146"><ele>665.0</ele><time>2026-04-12T11:21:47.586Z</time></trkpt><trkpt lat="40.6494087" lon="9.3268834"><ele>665.0</ele><time>2026-04-12T11:21:51.612Z</time></trkpt><trkpt lat="40.6493528" lon="9.3268338"><ele>665.0</ele><time>2026-04-12T11:27:10.438Z</time></trkpt><trkpt lat="40.6492714" lon="9.3267792"><ele>665.0</ele><time>2026-04-12T11:28:03.621Z</time></trkpt><trkpt lat="40.6492559" lon="9.3266979"><ele>665.0</ele><time>2026-04-12T11:28:20.623Z</time></trkpt><trkpt lat="40.6492828" lon="9.3267741"><ele>665.0</ele><time>2026-04-12T11:28:38.512Z</time></trkpt><trkpt lat="40.6492426" lon="9.3266931"><ele>665.0</ele><time>2026-04-12T12:46:19.985Z</time></trkpt><trkpt lat="40.6492683" lon="9.3267746"><ele>665.0</ele><time>2026-04-12T12:46:30.973Z</time></trkpt><trkpt lat="40.6493795" lon="9.3268138"><ele>665.0</ele><time>2026-04-12T12:58:02.996Z</time></trkpt><trkpt lat="40.6493249" lon="9.3267381"><ele>665.0</ele><time>2026-04-12T12:58:07.999Z</time></trkpt><trkpt lat="40.649279" lon="9.3266725"><ele>665.0</ele><time>2026-04-12T12:58:12.023Z</time></trkpt><trkpt lat="40.6492208" lon="9.3266371"><ele>665.0</ele><time>2026-04-12T12:58:17.005Z</time></trkpt><trkpt lat="40.6491612" lon="9.3265992"><ele>665.0</ele><time>2026-04-12T12:58:18.996Z</time></trkpt><trkpt lat="40.6491048" lon="9.3265197"><ele>665.0</ele><time>2026-04-12T12:58:20.999Z</time></trkpt><trkpt lat="40.6490406" lon="9.3264216"><ele>665.0</ele><time>2026-04-12T12:58:23.028Z</time></trkpt><trkpt lat="40.6489589" lon="9.326309"><ele>665.0</ele><time>2026-04-12T12:58:24.986Z</time></trkpt><trkpt lat="40.6488702" lon="9.3261889"><ele>665.0</ele><time>2026-04-12T12:58:27.006Z</time></trkpt><trkpt lat="40.648824" lon="9.3261305"><ele>665.1666666666666</ele><time>2026-04-12T12:58:28.013Z</time></trkpt><trkpt lat="40.6487782" lon="9.3260718"><ele>665.3333333333333</ele><time>2026-04-12T12:58:29.024Z</time></trkpt><trkpt lat="40.6486851" lon="9.3259589"><ele>665.5</ele><time>2026-04-12T12:58:31.001Z</time></trkpt><trkpt lat="40.648629" lon="9.3259038"><ele>665.6666666666666</ele><time>2026-04-12T12:58:31.991Z</time></trkpt><trkpt lat="40.6485728" lon="9.3258524"><ele>665.8333333333334</ele><time>2026-04-12T12:58:33.01Z</time></trkpt><trkpt lat="40.6485104" lon="9.3258089"><ele>666.0</ele><time>2026-04-12T12:58:33.999Z</time></trkpt><trkpt lat="40.6484439" lon="9.3257672"><ele>666.1666666666666</ele><time>2026-04-12T12:58:35.036Z</time></trkpt><trkpt lat="40.6483737" lon="9.3257258"><ele>666.3333333333334</ele><time>2026-04-12T12:58:36.002Z</time></trkpt><trkpt lat="40.6483046" lon="9.3256851"><ele>666.5</ele><time>2026-04-12T12:58:36.996Z</time></trkpt><trkpt lat="40.6482322" lon="9.325647"><ele>666.6666666666667</ele><time>2026-04-12T12:58:37.987Z</time></trkpt><trkpt lat="40.6481559" lon="9.3256099"><ele>666.8333333333334</ele><time>2026-04-12T12:58:38.981Z</time></trkpt><trkpt lat="40.6480732" lon="9.3255709"><ele>667.0</ele><time>2026-04-12T12:58:39.987Z</time></trkpt><trkpt lat="40.6479848" lon="9.3255282"><ele>667.0</ele><time>2026-04-12T12:58:40.991Z</time></trkpt><trkpt lat="40.6478892" lon="9.3254813"><ele>667.0</ele><time>2026-04-12T12:58:41.994Z</time></trkpt><trkpt lat="40.6477926" lon="9.325432"><ele>667.0</ele><time>2026-04-12T12:58:42.993Z</time></trkpt><trkpt lat="40.6476948" lon="9.3253839"><ele>667.0</ele><time>2026-04-12T12:58:43.989Z</time></trkpt><trkpt lat="40.6475907" lon="9.3253335"><ele>667.0</ele><time>2026-04-12T12:58:44.982Z</time></trkpt><trkpt lat="40.6474876" lon="9.3252797"><ele>666.8</ele><time>2026-04-12T12:58:45.99Z</time></trkpt><trkpt lat="40.647387" lon="9.3252248"><ele>666.6</ele><time>2026-04-12T12:58:47.005Z</time></trkpt><trkpt lat="40.6472903" lon="9.3251692"><ele>666.4</ele><time>2026-04-12T12:58:48.002Z</time></trkpt><trkpt lat="40.6472038" lon="9.3251119"><ele>666.1999999999999</ele><time>2026-04-12T12:58:48.989Z</time></trkpt><trkpt lat="40.6471275" lon="9.3250554"><ele>666.0</ele><time>2026-04-12T12:58:49.985Z</time></trkpt><trkpt lat="40.6470563" lon="9.3250021"><ele>666.0</ele><time>2026-04-12T12:58:50.981Z</time></trkpt><trkpt lat="40.6469862" lon="9.3249489"><ele>666.0</ele><time>2026-04-12T12:58:51.997Z</time></trkpt><trkpt lat="40.64691" lon="9.3248947"><ele>666.0</ele><time>2026-04-12T12:58:52.994Z</time></trkpt><trkpt lat="40.6468337" lon="9.3248403"><ele>666.0</ele><time>2026-04-12T12:58:53.981Z</time></trkpt><trkpt lat="40.646756" lon="9.3247785"><ele>666.0</ele><time>2026-04-12T12:58:54.984Z</time></trkpt><trkpt lat="40.6466769" lon="9.3247219"><ele>666.0</ele><time>2026-04-12T12:58:55.982Z</time></trkpt><trkpt lat="40.6465987" lon="9.3246628"><ele>665.4</ele><time>2026-04-12T12:58:56.979Z</time></trkpt><trkpt lat="40.6465222" lon="9.3246077"><ele>664.8</ele><time>2026-04-12T12:58:57.986Z</time></trkpt><trkpt lat="40.6464431" lon="9.3245459"><ele>664.1999999999999</ele><time>2026-04-12T12:58:59Z</time></trkpt><trkpt lat="40.6463599" lon="9.324476"><ele>663.5999999999999</ele><time>2026-04-12T12:59:00.004Z</time></trkpt><trkpt lat="40.6462696" lon="9.3244039"><ele>663.0</ele><time>2026-04-12T12:59:00.996Z</time></trkpt><trkpt lat="40.6461739" lon="9.324335"><ele>662.5</ele><time>2026-04-12T12:59:01.989Z</time></trkpt><trkpt lat="40.6460753" lon="9.3242567"><ele>662.0</ele><time>2026-04-12T12:59:02.983Z</time></trkpt><trkpt lat="40.6459694" lon="9.3241757"><ele>661.5</ele><time>2026-04-12T12:59:03.982Z</time></trkpt><trkpt lat="40.645863" lon="9.3240938"><ele>661.0</ele><time>2026-04-12T12:59:04.993Z</time></trkpt><trkpt lat="40.6457578" lon="9.3240106"><ele>661.0</ele><time>2026-04-12T12:59:05.995Z</time></trkpt><trkpt lat="40.645655" lon="9.3239222"><ele>661.0</ele><time>2026-04-12T12:59:06.981Z</time></trkpt><trkpt lat="40.6455584" lon="9.3238242"><ele>661.0</ele><time>2026-04-12T12:59:07.972Z</time></trkpt><trkpt lat="40.6454696" lon="9.3237071"><ele>661.0</ele><time>2026-04-12T12:59:08.982Z</time></trkpt><trkpt lat="40.645396" lon="9.3235805"><ele>661.0</ele><time>2026-04-12T12:59:09.983Z</time></trkpt><trkpt lat="40.6453389" lon="9.3234382"><ele>661.0</ele><time>2026-04-12T12:59:10.976Z</time></trkpt><trkpt lat="40.6452964" lon="9.3232868"><ele>661.0</ele><time>2026-04-12T12:59:11.995Z</time></trkpt><trkpt lat="40.6452771" lon="9.3231259"><ele>661.0</ele><time>2026-04-12T12:59:12.986Z</time></trkpt><trkpt lat="40.645262" lon="9.3229526"><ele>661.0</ele><time>2026-04-12T12:59:13.982Z</time></trkpt><trkpt lat="40.6452575" lon="9.3227718"><ele>661.0</ele><time>2026-04-12T12:59:14.978Z</time></trkpt><trkpt lat="40.6452527" lon="9.3225896"><ele>661.0</ele><time>2026-04-12T12:59:15.981Z</time></trkpt><trkpt lat="40.6452528" lon="9.3224034"><ele>661.0</ele><time>2026-04-12T12:59:16.987Z</time></trkpt><trkpt lat="40.6452523" lon="9.3222194"><ele>661.0</ele><time>2026-04-12T12:59:17.98Z</time></trkpt><trkpt lat="40.6452517" lon="9.3220375"><ele>661.0</ele><time>2026-04-12T12:59:18.976Z</time></trkpt><trkpt lat="40.6452509" lon="9.3218543"><ele>661.0</ele><time>2026-04-12T12:59:19.982Z</time></trkpt><trkpt lat="40.6452511" lon="9.3216761"><ele>661.0</ele><time>2026-04-12T12:59:20.98Z</time></trkpt><trkpt lat="40.6452506" lon="9.3215035"><ele>661.5</ele><time>2026-04-12T12:59:21.971Z</time></trkpt><trkpt lat="40.6452527" lon="9.3213316"><ele>662.0</ele><time>2026-04-12T12:59:22.99Z</time></trkpt><trkpt lat="40.6452561" lon="9.32116"><ele>662.5</ele><time>2026-04-12T12:59:23.969Z</time></trkpt><trkpt lat="40.6452589" lon="9.3209854"><ele>663.0</ele><time>2026-04-12T12:59:24.991Z</time></trkpt><trkpt lat="40.6452619" lon="9.3208078"><ele>663.0</ele><time>2026-04-12T12:59:25.99Z</time></trkpt><trkpt lat="40.6452693" lon="9.3206297"><ele>663.0</ele><time>2026-04-12T12:59:26.978Z</time></trkpt><trkpt lat="40.6452796" lon="9.3204515"><ele>663.0</ele><time>2026-04-12T12:59:27.983Z</time></trkpt><trkpt lat="40.645294" lon="9.3202727"><ele>663.0</ele><time>2026-04-12T12:59:28.975Z</time></trkpt><trkpt lat="40.6453134" lon="9.3200926"><ele>661.75</ele><time>2026-04-12T12:59:29.986Z</time></trkpt><trkpt lat="40.6453405" lon="9.3199166"><ele>660.5</ele><time>2026-04-12T12:59:30.993Z</time></trkpt><trkpt lat="40.6453708" lon="9.3197445"><ele>659.25</ele><time>2026-04-12T12:59:31.97Z</time></trkpt><trkpt lat="40.6453994" lon="9.3195799"><ele>658.0</ele><time>2026-04-12T12:59:32.967Z</time></trkpt><trkpt lat="40.6454274" lon="9.3194184"><ele>658.0</ele><time>2026-04-12T12:59:33.986Z</time></trkpt><trkpt lat="40.6454497" lon="9.3192546"><ele>658.0</ele><time>2026-04-12T12:59:34.971Z</time></trkpt><trkpt lat="40.6454643" lon="9.3190921"><ele>658.0</ele><time>2026-04-12T12:59:35.98Z</time></trkpt><trkpt lat="40.6454699" lon="9.3189292"><ele>658.0</ele><time>2026-04-12T12:59:36.97Z</time></trkpt><trkpt lat="40.6454699" lon="9.3187609"><ele>657.5</ele><time>2026-04-12T12:59:37.963Z</time></trkpt><trkpt lat="40.6454656" lon="9.3185954"><ele>657.0</ele><time>2026-04-12T12:59:38.968Z</time></trkpt><trkpt lat="40.6454518" lon="9.3184273"><ele>656.5</ele><time>2026-04-12T12:59:39.966Z</time></trkpt><trkpt lat="40.6454321" lon="9.3182558"><ele>656.0</ele><time>2026-04-12T12:59:40.97Z</time></trkpt><trkpt lat="40.6454109" lon="9.3180874"><ele>655.75</ele><time>2026-04-12T12:59:41.97Z</time></trkpt><trkpt lat="40.6453832" lon="9.3179175"><ele>655.5</ele><time>2026-04-12T12:59:42.981Z</time></trkpt><trkpt lat="40.645354" lon="9.3177494"><ele>655.25</ele><time>2026-04-12T12:59:43.965Z</time></trkpt><trkpt lat="40.6453198" lon="9.3175823"><ele>655.0</ele><time>2026-04-12T12:59:44.967Z</time></trkpt><trkpt lat="40.6452871" lon="9.3174103"><ele>655.25</ele><time>2026-04-12T12:59:45.979Z</time></trkpt><trkpt lat="40.6452536" lon="9.3172411"><ele>655.5</ele><time>2026-04-12T12:59:46.966Z</time></trkpt><trkpt lat="40.6452186" lon="9.3170743"><ele>655.75</ele><time>2026-04-12T12:59:47.964Z</time></trkpt><trkpt lat="40.6451837" lon="9.3169041"><ele>656.0</ele><time>2026-04-12T12:59:48.969Z</time></trkpt><trkpt lat="40.6451448" lon="9.316733"><ele>656.0</ele><time>2026-04-12T12:59:49.964Z</time></trkpt><trkpt lat="40.6450938" lon="9.3165723"><ele>656.0</ele><time>2026-04-12T12:59:50.987Z</time></trkpt><trkpt lat="40.6450282" lon="9.3164187"><ele>656.0</ele><time>2026-04-12T12:59:51.984Z</time></trkpt><trkpt lat="40.6449551" lon="9.3162713"><ele>656.0</ele><time>2026-04-12T12:59:52.962Z</time></trkpt><trkpt lat="40.6448849" lon="9.3161427"><ele>655.8</ele><time>2026-04-12T12:59:53.968Z</time></trkpt><trkpt lat="40.644817" lon="9.3160258"><ele>655.5999999999999</ele><time>2026-04-12T12:59:54.98Z</time></trkpt><trkpt lat="40.6447579" lon="9.3159191"><ele>655.4</ele><time>2026-04-12T12:59:55.977Z</time></trkpt><trkpt lat="40.6446993" lon="9.3158186"><ele>655.2</ele><time>2026-04-12T12:59:56.955Z</time></trkpt><trkpt lat="40.6446425" lon="9.3157247"><ele>655.0</ele><time>2026-04-12T12:59:57.973Z</time></trkpt><trkpt lat="40.6445964" lon="9.3156374"><ele>655.3333333333334</ele><time>2026-04-12T12:59:58.973Z</time></trkpt><trkpt lat="40.6445533" lon="9.3155561"><ele>655.6666666666667</ele><time>2026-04-12T12:59:59.964Z</time></trkpt><trkpt lat="40.6444992" lon="9.3154431"><ele>656.0</ele><time>2026-04-12T13:00:01.968Z</time></trkpt><trkpt lat="40.6444484" lon="9.3153643"><ele>656.3333333333334</ele><time>2026-04-12T13:00:03.959Z</time></trkpt><trkpt lat="40.644414" lon="9.3152692"><ele>656.6666666666666</ele><time>2026-04-12T13:00:06.972Z</time></trkpt><trkpt lat="40.6443969" lon="9.3151869"><ele>657.0</ele><time>2026-04-12T13:00:08.964Z</time></trkpt><trkpt lat="40.644367" lon="9.3150942"><ele>657.2857142857142</ele><time>2026-04-12T13:00:11.962Z</time></trkpt><trkpt lat="40.6443185" lon="9.315034"><ele>657.5714285714287</ele><time>2026-04-12T13:00:15.956Z</time></trkpt><trkpt lat="40.6442849" lon="9.3149458"><ele>657.8571428571429</ele><time>2026-04-12T13:13:58.996Z</time></trkpt><trkpt lat="40.6442571" lon="9.3148654"><ele>658.1428571428571</ele><time>2026-04-12T13:14:02.004Z</time></trkpt><trkpt lat="40.6442223" lon="9.3147884"><ele>658.4285714285713</ele><time>2026-04-12T13:14:05.995Z</time></trkpt><trkpt lat="40.6441587" lon="9.314754"><ele>658.7142857142858</ele><time>2026-04-12T13:14:09.003Z</time></trkpt><trkpt lat="40.6440965" lon="9.3147903"><ele>659.0</ele><time>2026-04-12T13:14:12.994Z</time></trkpt><trkpt lat="40.6441296" lon="9.3148688"><ele>659.0</ele><time>2026-04-12T13:14:14.995Z</time></trkpt><trkpt lat="40.6441976" lon="9.3150053"><ele>659.0</ele><time>2026-04-12T13:14:16.984Z</time></trkpt><trkpt lat="40.6442422" lon="9.3150848"><ele>659.0</ele><time>2026-04-12T13:14:17.983Z</time></trkpt><trkpt lat="40.6442967" lon="9.3151735"><ele>659.0</ele><time>2026-04-12T13:14:18.979Z</time></trkpt><trkpt lat="40.6443547" lon="9.3152738"><ele>659.0</ele><time>2026-04-12T13:14:19.991Z</time></trkpt><trkpt lat="40.6444155" lon="9.3153736"><ele>658.6</ele><time>2026-04-12T13:14:20.984Z</time></trkpt><trkpt lat="40.6444819" lon="9.3154838"><ele>658.2</ele><time>2026-04-12T13:14:21.988Z</time></trkpt><trkpt lat="40.6445477" lon="9.3155991"><ele>657.8000000000001</ele><time>2026-04-12T13:14:22.998Z</time></trkpt><trkpt lat="40.6446109" lon="9.315711"><ele>657.4000000000001</ele><time>2026-04-12T13:14:23.98Z</time></trkpt><trkpt lat="40.6446712" lon="9.3158199"><ele>657.0</ele><time>2026-04-12T13:14:25.002Z</time></trkpt><trkpt lat="40.6447316" lon="9.3159268"><ele>656.8</ele><time>2026-04-12T13:14:25.979Z</time></trkpt><trkpt lat="40.6447924" lon="9.3160354"><ele>656.6</ele><time>2026-04-12T13:14:26.977Z</time></trkpt><trkpt lat="40.6448551" lon="9.3161498"><ele>656.4</ele><time>2026-04-12T13:14:27.966Z</time></trkpt><trkpt lat="40.6449172" lon="9.3162668"><ele>656.1999999999999</ele><time>2026-04-12T13:14:28.994Z</time></trkpt><trkpt lat="40.6449805" lon="9.3163905"><ele>656.0</ele><time>2026-04-12T13:14:29.976Z</time></trkpt><trkpt lat="40.6450361" lon="9.3165307"><ele>656.0</ele><time>2026-04-12T13:14:30.974Z</time></trkpt><trkpt lat="40.6450843" lon="9.3166816"><ele>656.0</ele><time>2026-04-12T13:14:32.003Z</time></trkpt><trkpt lat="40.6451266" lon="9.3168455"><ele>656.0</ele><time>2026-04-12T13:14:32.976Z</time></trkpt><trkpt lat="40.6451592" lon="9.3170099"><ele>656.0</ele><time>2026-04-12T13:14:33.992Z</time></trkpt><trkpt lat="40.6451911" lon="9.3171728"><ele>656.25</ele><time>2026-04-12T13:14:34.985Z</time></trkpt><trkpt lat="40.6452224" lon="9.3173396"><ele>656.5</ele><time>2026-04-12T13:14:35.972Z</time></trkpt><trkpt lat="40.6452553" lon="9.317501"><ele>656.75</ele><time>2026-04-12T13:14:36.992Z</time></trkpt><trkpt lat="40.6452895" lon="9.317663"><ele>657.0</ele><time>2026-04-12T13:14:37.987Z</time></trkpt><trkpt lat="40.645325" lon="9.3178288"><ele>656.75</ele><time>2026-04-12T13:14:38.983Z</time></trkpt><trkpt lat="40.6453565" lon="9.3180021"><ele>656.5</ele><time>2026-04-12T13:14:39.998Z</time></trkpt><trkpt lat="40.6453811" lon="9.3181791"><ele>656.25</ele><time>2026-04-12T13:14:40.99Z</time></trkpt><trkpt lat="40.6454032" lon="9.3183632"><ele>656.0</ele><time>2026-04-12T13:14:41.981Z</time></trkpt><trkpt lat="40.6454141" lon="9.3185508"><ele>656.0</ele><time>2026-04-12T13:14:42.985Z</time></trkpt><trkpt lat="40.6454208" lon="9.3187392"><ele>656.0</ele><time>2026-04-12T13:14:43.978Z</time></trkpt><trkpt lat="40.6454216" lon="9.3189263"><ele>656.0</ele><time>2026-04-12T13:14:44.972Z</time></trkpt><trkpt lat="40.6454134" lon="9.3191148"><ele>656.0</ele><time>2026-04-12T13:14:45.976Z</time></trkpt><trkpt lat="40.6453977" lon="9.3193039"><ele>656.5</ele><time>2026-04-12T13:14:46.982Z</time></trkpt><trkpt lat="40.645378" lon="9.3194894"><ele>657.0</ele><time>2026-04-12T13:14:47.979Z</time></trkpt><trkpt lat="40.6453496" lon="9.3196752"><ele>657.5</ele><time>2026-04-12T13:14:48.984Z</time></trkpt><trkpt lat="40.6453181" lon="9.3198639"><ele>658.0</ele><time>2026-04-12T13:14:49.98Z</time></trkpt><trkpt lat="40.6452835" lon="9.320053"><ele>658.75</ele><time>2026-04-12T13:14:50.984Z</time></trkpt><trkpt lat="40.6452557" lon="9.3202395"><ele>659.5</ele><time>2026-04-12T13:14:51.978Z</time></trkpt><trkpt lat="40.6452372" lon="9.3204301"><ele>660.25</ele><time>2026-04-12T13:14:52.989Z</time></trkpt><trkpt lat="40.645222" lon="9.3206173"><ele>661.0</ele><time>2026-04-12T13:14:53.977Z</time></trkpt><trkpt lat="40.6452094" lon="9.3208053"><ele>661.0</ele><time>2026-04-12T13:14:54.964Z</time></trkpt><trkpt lat="40.6452038" lon="9.3209952"><ele>661.0</ele><time>2026-04-12T13:14:55.975Z</time></trkpt><trkpt lat="40.6452018" lon="9.3211884"><ele>661.0</ele><time>2026-04-12T13:14:56.967Z</time></trkpt><trkpt lat="40.6452019" lon="9.3213793"><ele>661.0</ele><time>2026-04-12T13:14:57.967Z</time></trkpt><trkpt lat="40.6451998" lon="9.3215703"><ele>661.0</ele><time>2026-04-12T13:14:58.978Z</time></trkpt><trkpt lat="40.6451993" lon="9.321763"><ele>661.0</ele><time>2026-04-12T13:14:59.976Z</time></trkpt><trkpt lat="40.6451986" lon="9.3219578"><ele>661.0</ele><time>2026-04-12T13:15:00.996Z</time></trkpt><trkpt lat="40.6452021" lon="9.3221552"><ele>661.0</ele><time>2026-04-12T13:15:01.979Z</time></trkpt><trkpt lat="40.6452058" lon="9.3223509"><ele>661.5</ele><time>2026-04-12T13:15:02.98Z</time></trkpt><trkpt lat="40.6452093" lon="9.3225532"><ele>662.0</ele><time>2026-04-12T13:15:03.966Z</time></trkpt><trkpt lat="40.6452094" lon="9.3227479"><ele>662.5</ele><time>2026-04-12T13:15:04.979Z</time></trkpt><trkpt lat="40.6452128" lon="9.3229419"><ele>663.0</ele><time>2026-04-12T13:15:05.976Z</time></trkpt><trkpt lat="40.645226" lon="9.3231373"><ele>663.25</ele><time>2026-04-12T13:15:06.978Z</time></trkpt><trkpt lat="40.6452545" lon="9.3233224"><ele>663.5</ele><time>2026-04-12T13:15:07.98Z</time></trkpt><trkpt lat="40.6452978" lon="9.3234937"><ele>663.75</ele><time>2026-04-12T13:15:08.979Z</time></trkpt><trkpt lat="40.6453692" lon="9.3236498"><ele>664.0</ele><time>2026-04-12T13:15:09.994Z</time></trkpt><trkpt lat="40.6454545" lon="9.3237784"><ele>663.25</ele><time>2026-04-12T13:15:10.993Z</time></trkpt><trkpt lat="40.6455441" lon="9.3238916"><ele>662.5</ele><time>2026-04-12T13:15:11.969Z</time></trkpt><trkpt lat="40.6456422" lon="9.3239967"><ele>661.75</ele><time>2026-04-12T13:15:12.977Z</time></trkpt><trkpt lat="40.6457445" lon="9.3240857"><ele>661.0</ele><time>2026-04-12T13:15:13.987Z</time></trkpt><trkpt lat="40.6458524" lon="9.3241691"><ele>661.0</ele><time>2026-04-12T13:15:14.986Z</time></trkpt><trkpt lat="40.6459584" lon="9.3242545"><ele>661.0</ele><time>2026-04-12T13:15:15.966Z</time></trkpt><trkpt lat="40.6460652" lon="9.3243424"><ele>661.0</ele><time>2026-04-12T13:15:16.967Z</time></trkpt><trkpt lat="40.6461747" lon="9.3244297"><ele>661.0</ele><time>2026-04-12T13:15:17.976Z</time></trkpt><trkpt lat="40.6462804" lon="9.324517"><ele>661.5</ele><time>2026-04-12T13:15:18.975Z</time></trkpt><trkpt lat="40.6463878" lon="9.3246003"><ele>662.0</ele><time>2026-04-12T13:15:19.957Z</time></trkpt><trkpt lat="40.6464968" lon="9.324683"><ele>662.5</ele><time>2026-04-12T13:15:20.967Z</time></trkpt><trkpt lat="40.646604" lon="9.3247661"><ele>663.0</ele><time>2026-04-12T13:15:21.953Z</time></trkpt><trkpt lat="40.64671" lon="9.3248531"><ele>663.5</ele><time>2026-04-12T13:15:23.009Z</time></trkpt><trkpt lat="40.6468154" lon="9.3249379"><ele>664.0</ele><time>2026-04-12T13:15:23.967Z</time></trkpt><trkpt lat="40.6469205" lon="9.3250228"><ele>664.5</ele><time>2026-04-12T13:15:24.957Z</time></trkpt><trkpt lat="40.6470251" lon="9.3251006"><ele>665.0</ele><time>2026-04-12T13:15:25.97Z</time></trkpt><trkpt lat="40.6471236" lon="9.3251694"><ele>665.1666666666666</ele><time>2026-04-12T13:15:26.961Z</time></trkpt><trkpt lat="40.6472175" lon="9.3252298"><ele>665.3333333333333</ele><time>2026-04-12T13:15:27.971Z</time></trkpt><trkpt lat="40.647305" lon="9.3252779"><ele>665.5</ele><time>2026-04-12T13:15:28.971Z</time></trkpt><trkpt lat="40.6473877" lon="9.3253212"><ele>665.6666666666666</ele><time>2026-04-12T13:15:29.964Z</time></trkpt><trkpt lat="40.6474643" lon="9.3253612"><ele>665.8333333333334</ele><time>2026-04-12T13:15:30.979Z</time></trkpt><trkpt lat="40.6475364" lon="9.3253972"><ele>666.0</ele><time>2026-04-12T13:15:31.956Z</time></trkpt><trkpt lat="40.6476077" lon="9.3254304"><ele>666.0</ele><time>2026-04-12T13:15:32.972Z</time></trkpt><trkpt lat="40.6476763" lon="9.3254621"><ele>666.0</ele><time>2026-04-12T13:15:33.963Z</time></trkpt><trkpt lat="40.6477435" lon="9.3254913"><ele>666.0</ele><time>2026-04-12T13:15:34.984Z</time></trkpt><trkpt lat="40.6478069" lon="9.3255196"><ele>666.0</ele><time>2026-04-12T13:15:35.956Z</time></trkpt><trkpt lat="40.6478721" lon="9.3255446"><ele>666.0</ele><time>2026-04-12T13:15:36.966Z</time></trkpt><trkpt lat="40.6479455" lon="9.3255732"><ele>666.0</ele><time>2026-04-12T13:15:37.968Z</time></trkpt><trkpt lat="40.6480198" lon="9.3256053"><ele>666.0</ele><time>2026-04-12T13:15:38.966Z</time></trkpt><trkpt lat="40.6480986" lon="9.3256416"><ele>665.5999999999999</ele><time>2026-04-12T13:15:39.962Z</time></trkpt><trkpt lat="40.6481819" lon="9.3256802"><ele>665.2</ele><time>2026-04-12T13:15:40.969Z</time></trkpt><trkpt lat="40.6482681" lon="9.3257267"><ele>664.8</ele><time>2026-04-12T13:15:41.963Z</time></trkpt><trkpt lat="40.6483525" lon="9.3257708"><ele>664.4000000000001</ele><time>2026-04-12T13:15:42.947Z</time></trkpt><trkpt lat="40.6484383" lon="9.3258249"><ele>664.0</ele><time>2026-04-12T13:15:43.954Z</time></trkpt><trkpt lat="40.6485199" lon="9.3258787"><ele>664.0</ele><time>2026-04-12T13:15:44.962Z</time></trkpt><trkpt lat="40.6485875" lon="9.325935"><ele>664.0</ele><time>2026-04-12T13:15:45.961Z</time></trkpt><trkpt lat="40.6486454" lon="9.3259816"><ele>664.0</ele><time>2026-04-12T13:15:46.946Z</time></trkpt><trkpt lat="40.6487474" lon="9.3260056"><ele>664.0</ele><time>2026-04-12T13:15:48.969Z</time></trkpt><trkpt lat="40.6488279" lon="9.3259189"><ele>664.0</ele><time>2026-04-12T13:15:50.951Z</time></trkpt><trkpt lat="40.6488679" lon="9.325845"><ele>664.0</ele><time>2026-04-12T13:15:51.958Z</time></trkpt><trkpt lat="40.6489116" lon="9.3257634"><ele>664.4000000000001</ele><time>2026-04-12T13:15:52.969Z</time></trkpt><trkpt lat="40.6489647" lon="9.3256701"><ele>664.8</ele><time>2026-04-12T13:15:53.953Z</time></trkpt><trkpt lat="40.6490188" lon="9.3255673"><ele>665.2</ele><time>2026-04-12T13:15:54.947Z</time></trkpt><trkpt lat="40.6490751" lon="9.3254521"><ele>665.5999999999999</ele><time>2026-04-12T13:15:55.967Z</time></trkpt><trkpt lat="40.6491352" lon="9.3253331"><ele>666.0</ele><time>2026-04-12T13:15:56.961Z</time></trkpt><trkpt lat="40.6491979" lon="9.3252129"><ele>666.25</ele><time>2026-04-12T13:15:57.96Z</time></trkpt><trkpt lat="40.6492647" lon="9.3250884"><ele>666.5</ele><time>2026-04-12T13:15:58.964Z</time></trkpt><trkpt lat="40.6493292" lon="9.3249596"><ele>666.75</ele><time>2026-04-12T13:15:59.957Z</time></trkpt><trkpt lat="40.6493942" lon="9.3248307"><ele>667.0</ele><time>2026-04-12T13:16:00.969Z</time></trkpt><trkpt lat="40.6494527" lon="9.3247186"><ele>668.0</ele><time>2026-04-12T13:16:01.96Z</time></trkpt><trkpt lat="40.6495018" lon="9.324629"><ele>669.0</ele><time>2026-04-12T13:16:02.961Z</time></trkpt><trkpt lat="40.6495438" lon="9.324552"><ele>670.0</ele><time>2026-04-12T13:16:03.983Z</time></trkpt><trkpt lat="40.6496079" lon="9.3244208"><ele>671.0</ele><time>2026-04-12T13:16:05.966Z</time></trkpt><trkpt lat="40.6496758" lon="9.3242795"><ele>672.0</ele><time>2026-04-12T13:16:07.957Z</time></trkpt><trkpt lat="40.6497152" lon="9.3241998"><ele>672.0</ele><time>2026-04-12T13:16:08.954Z</time></trkpt><trkpt lat="40.649757" lon="9.3241168"><ele>672.0</ele><time>2026-04-12T13:16:09.941Z</time></trkpt><trkpt lat="40.6498016" lon="9.3240304"><ele>672.0</ele><time>2026-04-12T13:16:10.948Z</time></trkpt><trkpt lat="40.6498524" lon="9.3239378"><ele>672.0</ele><time>2026-04-12T13:16:11.955Z</time></trkpt><trkpt lat="40.6499154" lon="9.3238429"><ele>672.0</ele><time>2026-04-12T13:16:12.954Z</time></trkpt><trkpt lat="40.649987" lon="9.3237568"><ele>672.0</ele><time>2026-04-12T13:16:13.947Z</time></trkpt><trkpt lat="40.6500707" lon="9.3236935"><ele>672.6</ele><time>2026-04-12T13:16:14.95Z</time></trkpt><trkpt lat="40.6501623" lon="9.3236515"><ele>673.2</ele><time>2026-04-12T13:16:15.96Z</time></trkpt><trkpt lat="40.6502631" lon="9.3236366"><ele>673.8</ele><time>2026-04-12T13:16:16.957Z</time></trkpt><trkpt lat="40.6503687" lon="9.3236465"><ele>674.4</ele><time>2026-04-12T13:16:17.95Z</time></trkpt><trkpt lat="40.6504724" lon="9.3236667"><ele>675.0</ele><time>2026-04-12T13:16:18.955Z</time></trkpt><trkpt lat="40.6505773" lon="9.3236928"><ele>675.2</ele><time>2026-04-12T13:16:19.951Z</time></trkpt><trkpt lat="40.6506796" lon="9.323715"><ele>675.4</ele><time>2026-04-12T13:16:20.942Z</time></trkpt><trkpt lat="40.6507906" lon="9.3237365"><ele>675.5999999999999</ele><time>2026-04-12T13:16:21.941Z</time></trkpt><trkpt lat="40.6508996" lon="9.3237578"><ele>675.8</ele><time>2026-04-12T13:16:22.952Z</time></trkpt><trkpt lat="40.6510018" lon="9.3237799"><ele>676.0</ele><time>2026-04-12T13:16:23.939Z</time></trkpt><trkpt lat="40.6510991" lon="9.3238009"><ele>675.8333333333334</ele><time>2026-04-12T13:16:24.937Z</time></trkpt><trkpt lat="40.6511902" lon="9.3238186"><ele>675.6666666666667</ele><time>2026-04-12T13:16:25.953Z</time></trkpt><trkpt lat="40.6512739" lon="9.3238371"><ele>675.5</ele><time>2026-04-12T13:16:26.945Z</time></trkpt><trkpt lat="40.6513439" lon="9.3238454"><ele>675.3333333333334</ele><time>2026-04-12T13:16:27.951Z</time></trkpt><trkpt lat="40.651451" lon="9.3238707"><ele>675.1666666666666</ele><time>2026-04-12T13:16:29.939Z</time></trkpt><trkpt lat="40.6515284" lon="9.3238956"><ele>675.0</ele><time>2026-04-12T13:16:31.956Z</time></trkpt><trkpt lat="40.651603" lon="9.3238744"><ele>675.0</ele><time>2026-04-12T13:16:34.977Z</time></trkpt><trkpt lat="40.651655" lon="9.3238018"><ele>675.0</ele><time>2026-04-12T13:16:36.957Z</time></trkpt><trkpt lat="40.6516936" lon="9.3236221"><ele>675.0</ele><time>2026-04-12T13:16:38.952Z</time></trkpt><trkpt lat="40.6517136" lon="9.3235175"><ele>675.0</ele><time>2026-04-12T13:16:39.973Z</time></trkpt><trkpt lat="40.6517368" lon="9.3234091"><ele>675.0</ele><time>2026-04-12T13:16:40.939Z</time></trkpt><trkpt lat="40.6517656" lon="9.3233004"><ele>675.0</ele><time>2026-04-12T13:16:41.946Z</time></trkpt><trkpt lat="40.6517969" lon="9.3231761"><ele>675.0</ele><time>2026-04-12T13:16:42.949Z</time></trkpt><trkpt lat="40.6518288" lon="9.3230456"><ele>675.0</ele><time>2026-04-12T13:16:43.951Z</time></trkpt><trkpt lat="40.6518712" lon="9.3229124"><ele>675.0</ele><time>2026-04-12T13:16:44.956Z</time></trkpt><trkpt lat="40.6519148" lon="9.3227765"><ele>675.0</ele><time>2026-04-12T13:16:45.955Z</time></trkpt><trkpt lat="40.6519709" lon="9.3226355"><ele>676.0</ele><time>2026-04-12T13:16:46.943Z</time></trkpt><trkpt lat="40.6520246" lon="9.3224932"><ele>677.0</ele><time>2026-04-12T13:16:47.946Z</time></trkpt><trkpt lat="40.6520796" lon="9.322352"><ele>678.0</ele><time>2026-04-12T13:16:48.942Z</time></trkpt><trkpt lat="40.652127" lon="9.3222109"><ele>679.0</ele><time>2026-04-12T13:16:49.957Z</time></trkpt><trkpt lat="40.6521721" lon="9.3220629"><ele>679.5</ele><time>2026-04-12T13:16:50.948Z</time></trkpt><trkpt lat="40.6522053" lon="9.3219147"><ele>680.0</ele><time>2026-04-12T13:16:51.96Z</time></trkpt><trkpt lat="40.6522179" lon="9.3217629"><ele>680.5</ele><time>2026-04-12T13:16:52.949Z</time></trkpt><trkpt lat="40.6522219" lon="9.3216112"><ele>681.0</ele><time>2026-04-12T13:16:53.95Z</time></trkpt><trkpt lat="40.6522327" lon="9.3214679"><ele>681.4</ele><time>2026-04-12T13:16:54.95Z</time></trkpt><trkpt lat="40.6522523" lon="9.3213402"><ele>681.8</ele><time>2026-04-12T13:16:55.957Z</time></trkpt><trkpt lat="40.6522761" lon="9.3212163"><ele>682.1999999999999</ele><time>2026-04-12T13:16:56.953Z</time></trkpt><trkpt lat="40.6523168" lon="9.3210942"><ele>682.5999999999999</ele><time>2026-04-12T13:16:57.96Z</time></trkpt><trkpt lat="40.6523704" lon="9.3209767"><ele>683.0</ele><time>2026-04-12T13:16:58.954Z</time></trkpt><trkpt lat="40.6524362" lon="9.3208689"><ele>683.0</ele><time>2026-04-12T13:16:59.944Z</time></trkpt><trkpt lat="40.6525077" lon="9.3207689"><ele>683.0</ele><time>2026-04-12T13:17:00.948Z</time></trkpt><trkpt lat="40.6525846" lon="9.3206695"><ele>683.0</ele><time>2026-04-12T13:17:01.956Z</time></trkpt><trkpt lat="40.6526702" lon="9.3205726"><ele>683.0</ele><time>2026-04-12T13:17:02.965Z</time></trkpt><trkpt lat="40.6527671" lon="9.3204643"><ele>683.25</ele><time>2026-04-12T13:17:03.965Z</time></trkpt><trkpt lat="40.6528651" lon="9.3203532"><ele>683.5</ele><time>2026-04-12T13:17:04.958Z</time></trkpt><trkpt lat="40.6529568" lon="9.3202443"><ele>683.75</ele><time>2026-04-12T13:17:05.973Z</time></trkpt><trkpt lat="40.6530504" lon="9.320133"><ele>684.0</ele><time>2026-04-12T13:17:06.965Z</time></trkpt><trkpt lat="40.6531446" lon="9.3200297"><ele>684.0</ele><time>2026-04-12T13:17:07.958Z</time></trkpt><trkpt lat="40.653239" lon="9.3199232"><ele>684.0</ele><time>2026-04-12T13:17:08.956Z</time></trkpt><trkpt lat="40.6533336" lon="9.3198152"><ele>684.0</ele><time>2026-04-12T13:17:09.958Z</time></trkpt><trkpt lat="40.6534316" lon="9.3197014"><ele>684.0</ele><time>2026-04-12T13:17:10.958Z</time></trkpt><trkpt lat="40.6535279" lon="9.3195868"><ele>684.5</ele><time>2026-04-12T13:17:11.944Z</time></trkpt><trkpt lat="40.6536266" lon="9.3194692"><ele>685.0</ele><time>2026-04-12T13:17:12.968Z</time></trkpt><trkpt lat="40.6537245" lon="9.3193501"><ele>685.5</ele><time>2026-04-12T13:17:13.959Z</time></trkpt><trkpt lat="40.6538242" lon="9.3192224"><ele>686.0</ele><time>2026-04-12T13:17:14.967Z</time></trkpt><trkpt lat="40.6539219" lon="9.3190878"><ele>686.0</ele><time>2026-04-12T13:17:15.966Z</time></trkpt><trkpt lat="40.6540184" lon="9.3189396"><ele>686.0</ele><time>2026-04-12T13:17:16.946Z</time></trkpt><trkpt lat="40.6541103" lon="9.3187782"><ele>686.0</ele><time>2026-04-12T13:17:17.967Z</time></trkpt><trkpt lat="40.6541996" lon="9.3186072"><ele>686.3333333333333</ele><time>2026-04-12T13:17:18.962Z</time></trkpt><trkpt lat="40.6542827" lon="9.3184324"><ele>686.6666666666666</ele><time>2026-04-12T13:17:19.957Z</time></trkpt><trkpt lat="40.6543549" lon="9.3182501"><ele>687.0</ele><time>2026-04-12T13:17:20.964Z</time></trkpt><trkpt lat="40.6544138" lon="9.3180685"><ele>687.5</ele><time>2026-04-12T13:17:21.968Z</time></trkpt><trkpt lat="40.6544503" lon="9.3178898"><ele>688.0</ele><time>2026-04-12T13:17:22.962Z</time></trkpt><trkpt lat="40.6544687" lon="9.3177098"><ele>688.5</ele><time>2026-04-12T13:17:23.966Z</time></trkpt><trkpt lat="40.6544651" lon="9.3175322"><ele>689.0</ele><time>2026-04-12T13:17:24.955Z</time></trkpt><trkpt lat="40.6544415" lon="9.3173512"><ele>689.5</ele><time>2026-04-12T13:17:25.96Z</time></trkpt><trkpt lat="40.6544062" lon="9.3171725"><ele>690.0</ele><time>2026-04-12T13:17:26.965Z</time></trkpt><trkpt lat="40.6543683" lon="9.3169947"><ele>690.5</ele><time>2026-04-12T13:17:27.953Z</time></trkpt><trkpt lat="40.6543331" lon="9.3168213"><ele>691.0</ele><time>2026-04-12T13:17:28.96Z</time></trkpt><trkpt lat="40.6542978" lon="9.3166466"><ele>691.0</ele><time>2026-04-12T13:17:29.961Z</time></trkpt><trkpt lat="40.6542601" lon="9.3164739"><ele>691.0</ele><time>2026-04-12T13:17:30.971Z</time></trkpt><trkpt lat="40.6542106" lon="9.3163081"><ele>691.0</ele><time>2026-04-12T13:17:32.008Z</time></trkpt><trkpt lat="40.6541572" lon="9.3161522"><ele>691.0</ele><time>2026-04-12T13:17:32.964Z</time></trkpt><trkpt lat="40.6541025" lon="9.3159993"><ele>690.75</ele><time>2026-04-12T13:17:33.965Z</time></trkpt><trkpt lat="40.6540499" lon="9.3158489"><ele>690.5</ele><time>2026-04-12T13:17:34.967Z</time></trkpt><trkpt lat="40.6540099" lon="9.3156959"><ele>690.25</ele><time>2026-04-12T13:17:35.965Z</time></trkpt><trkpt lat="40.6539806" lon="9.3155381"><ele>690.0</ele><time>2026-04-12T13:17:36.961Z</time></trkpt><trkpt lat="40.6539742" lon="9.3153789"><ele>690.0</ele><time>2026-04-12T13:17:37.968Z</time></trkpt><trkpt lat="40.6539908" lon="9.3152138"><ele>690.0</ele><time>2026-04-12T13:17:38.965Z</time></trkpt><trkpt lat="40.654026" lon="9.3150454"><ele>690.0</ele><time>2026-04-12T13:17:39.966Z</time></trkpt><trkpt lat="40.654062" lon="9.3148788"><ele>690.0</ele><time>2026-04-12T13:17:40.963Z</time></trkpt><trkpt lat="40.6540827" lon="9.3147142"><ele>689.25</ele><time>2026-04-12T13:17:41.964Z</time></trkpt><trkpt lat="40.6540832" lon="9.3145512"><ele>688.5</ele><time>2026-04-12T13:17:42.969Z</time></trkpt><trkpt lat="40.6540749" lon="9.3143854"><ele>687.75</ele><time>2026-04-12T13:17:43.958Z</time></trkpt><trkpt lat="40.6540552" lon="9.3142164"><ele>687.0</ele><time>2026-04-12T13:17:44.962Z</time></trkpt><trkpt lat="40.6540324" lon="9.3140575"><ele>687.0</ele><time>2026-04-12T13:17:45.971Z</time></trkpt><trkpt lat="40.6540118" lon="9.3139065"><ele>687.0</ele><time>2026-04-12T13:17:46.974Z</time></trkpt><trkpt lat="40.6539967" lon="9.3137642"><ele>687.0</ele><time>2026-04-12T13:17:47.967Z</time></trkpt><trkpt lat="40.6539821" lon="9.3136286"><ele>687.0</ele><time>2026-04-12T13:17:48.961Z</time></trkpt><trkpt lat="40.6539657" lon="9.313497"><ele>687.0</ele><time>2026-04-12T13:17:49.975Z</time></trkpt><trkpt lat="40.6539573" lon="9.3133672"><ele>686.8</ele><time>2026-04-12T13:17:50.979Z</time></trkpt><trkpt lat="40.6539648" lon="9.3132416"><ele>686.6</ele><time>2026-04-12T13:17:51.951Z</time></trkpt><trkpt lat="40.6539916" lon="9.3131228"><ele>686.4</ele><time>2026-04-12T13:17:52.959Z</time></trkpt><trkpt lat="40.6540507" lon="9.3130293"><ele>686.1999999999999</ele><time>2026-04-12T13:17:53.976Z</time></trkpt><trkpt lat="40.6541302" lon="9.3129545"><ele>686.0</ele><time>2026-04-12T13:17:54.968Z</time></trkpt><trkpt lat="40.6542241" lon="9.3128853"><ele>685.8</ele><time>2026-04-12T13:17:55.977Z</time></trkpt><trkpt lat="40.6543306" lon="9.3128312"><ele>685.5999999999999</ele><time>2026-04-12T13:17:56.987Z</time></trkpt><trkpt lat="40.6544311" lon="9.3127741"><ele>685.4</ele><time>2026-04-12T13:17:57.973Z</time></trkpt><trkpt lat="40.6545301" lon="9.3127096"><ele>685.2</ele><time>2026-04-12T13:17:58.965Z</time></trkpt><trkpt lat="40.6546284" lon="9.3126452"><ele>685.0</ele><time>2026-04-12T13:17:59.97Z</time></trkpt><trkpt lat="40.6547287" lon="9.312568"><ele>685.5</ele><time>2026-04-12T13:18:00.956Z</time></trkpt><trkpt lat="40.6548216" lon="9.3124689"><ele>686.0</ele><time>2026-04-12T13:18:01.98Z</time></trkpt><trkpt lat="40.6549089" lon="9.312348"><ele>686.5</ele><time>2026-04-12T13:18:02.973Z</time></trkpt><trkpt lat="40.6549982" lon="9.3122268"><ele>687.0</ele><time>2026-04-12T13:18:03.981Z</time></trkpt><trkpt lat="40.6550942" lon="9.312099"><ele>687.0</ele><time>2026-04-12T13:18:04.959Z</time></trkpt><trkpt lat="40.6551897" lon="9.311976"><ele>687.0</ele><time>2026-04-12T13:18:05.977Z</time></trkpt><trkpt lat="40.6552853" lon="9.3118528"><ele>687.0</ele><time>2026-04-12T13:18:06.97Z</time></trkpt><trkpt lat="40.6553766" lon="9.3117183"><ele>687.0</ele><time>2026-04-12T13:18:07.964Z</time></trkpt><trkpt lat="40.6554712" lon="9.3115835"><ele>687.5</ele><time>2026-04-12T13:18:08.966Z</time></trkpt><trkpt lat="40.6555642" lon="9.3114468"><ele>688.0</ele><time>2026-04-12T13:18:09.974Z</time></trkpt><trkpt lat="40.6556528" lon="9.3113106"><ele>688.5</ele><time>2026-04-12T13:18:10.969Z</time></trkpt><trkpt lat="40.6557416" lon="9.311179"><ele>689.0</ele><time>2026-04-12T13:18:11.975Z</time></trkpt><trkpt lat="40.6558302" lon="9.3110467"><ele>689.75</ele><time>2026-04-12T13:18:12.977Z</time></trkpt><trkpt lat="40.6559182" lon="9.3109166"><ele>690.5</ele><time>2026-04-12T13:18:13.981Z</time></trkpt><trkpt lat="40.6560071" lon="9.3107853"><ele>691.25</ele><time>2026-04-12T13:18:14.978Z</time></trkpt><trkpt lat="40.6560916" lon="9.3106553"><ele>692.0</ele><time>2026-04-12T13:18:15.988Z</time></trkpt><trkpt lat="40.656172" lon="9.3105329"><ele>693.0</ele><time>2026-04-12T13:18:16.961Z</time></trkpt><trkpt lat="40.6562512" lon="9.3104126"><ele>694.0</ele><time>2026-04-12T13:18:17.966Z</time></trkpt><trkpt lat="40.6563264" lon="9.3102886"><ele>695.0</ele><time>2026-04-12T13:18:18.966Z</time></trkpt><trkpt lat="40.6563985" lon="9.3101658"><ele>696.0</ele><time>2026-04-12T13:18:19.968Z</time></trkpt><trkpt lat="40.6564674" lon="9.3100451"><ele>696.0</ele><time>2026-04-12T13:18:20.96Z</time></trkpt><trkpt lat="40.6565374" lon="9.3099306"><ele>696.0</ele><time>2026-04-12T13:18:21.966Z</time></trkpt><trkpt lat="40.6566135" lon="9.3098189"><ele>696.0</ele><time>2026-04-12T13:18:22.965Z</time></trkpt><trkpt lat="40.6566947" lon="9.3097115"><ele>696.0</ele><time>2026-04-12T13:18:23.972Z</time></trkpt><trkpt lat="40.6567822" lon="9.309614"><ele>696.25</ele><time>2026-04-12T13:18:24.962Z</time></trkpt><trkpt lat="40.6568825" lon="9.3095341"><ele>696.5</ele><time>2026-04-12T13:18:25.969Z</time></trkpt><trkpt lat="40.6569836" lon="9.3094664"><ele>696.75</ele><time>2026-04-12T13:18:26.96Z</time></trkpt><trkpt lat="40.6570869" lon="9.309416"><ele>697.0</ele><time>2026-04-12T13:18:27.957Z</time></trkpt><trkpt lat="40.6571944" lon="9.3093826"><ele>697.0</ele><time>2026-04-12T13:18:28.961Z</time></trkpt><trkpt lat="40.657304" lon="9.3093489"><ele>697.0</ele><time>2026-04-12T13:18:29.965Z</time></trkpt><trkpt lat="40.657419" lon="9.3093232"><ele>697.0</ele><time>2026-04-12T13:18:30.964Z</time></trkpt><trkpt lat="40.6575341" lon="9.3092955"><ele>697.0</ele><time>2026-04-12T13:18:31.968Z</time></trkpt><trkpt lat="40.6576482" lon="9.3092657"><ele>697.0</ele><time>2026-04-12T13:18:32.984Z</time></trkpt><trkpt lat="40.6577635" lon="9.3092391"><ele>697.0</ele><time>2026-04-12T13:18:33.966Z</time></trkpt><trkpt lat="40.6578794" lon="9.3092156"><ele>697.0</ele><time>2026-04-12T13:18:34.959Z</time></trkpt><trkpt lat="40.6579931" lon="9.3091882"><ele>697.0</ele><time>2026-04-12T13:18:35.965Z</time></trkpt><trkpt lat="40.6581125" lon="9.3091561"><ele>698.25</ele><time>2026-04-12T13:18:36.98Z</time></trkpt><trkpt lat="40.6582307" lon="9.3091254"><ele>699.5</ele><time>2026-04-12T13:18:37.967Z</time></trkpt><trkpt lat="40.6583506" lon="9.3090961"><ele>700.75</ele><time>2026-04-12T13:18:38.972Z</time></trkpt><trkpt lat="40.658468" lon="9.3090673"><ele>702.0</ele><time>2026-04-12T13:18:39.968Z</time></trkpt><trkpt lat="40.6585879" lon="9.3090377"><ele>702.5</ele><time>2026-04-12T13:18:40.96Z</time></trkpt><trkpt lat="40.6587101" lon="9.3090084"><ele>703.0</ele><time>2026-04-12T13:18:41.965Z</time></trkpt><trkpt lat="40.6588354" lon="9.3089763"><ele>703.5</ele><time>2026-04-12T13:18:42.968Z</time></trkpt><trkpt lat="40.6589596" lon="9.308936"><ele>704.0</ele><time>2026-04-12T13:18:43.966Z</time></trkpt><trkpt lat="40.6590854" lon="9.3088998"><ele>704.0</ele><time>2026-04-12T13:18:44.979Z</time></trkpt><trkpt lat="40.6592119" lon="9.3088648"><ele>704.0</ele><time>2026-04-12T13:18:45.961Z</time></trkpt><trkpt lat="40.6593389" lon="9.3088308"><ele>704.0</ele><time>2026-04-12T13:18:46.952Z</time></trkpt><trkpt lat="40.6594673" lon="9.3087971"><ele>704.0</ele><time>2026-04-12T13:18:47.961Z</time></trkpt><trkpt lat="40.6595954" lon="9.3087628"><ele>704.75</ele><time>2026-04-12T13:18:48.961Z</time></trkpt><trkpt lat="40.6597196" lon="9.3087321"><ele>705.5</ele><time>2026-04-12T13:18:49.967Z</time></trkpt><trkpt lat="40.6598385" lon="9.308716"><ele>706.25</ele><time>2026-04-12T13:18:50.967Z</time></trkpt><trkpt lat="40.6599453" lon="9.3087009"><ele>707.0</ele><time>2026-04-12T13:18:51.961Z</time></trkpt><trkpt lat="40.6600528" lon="9.3087018"><ele>707.0</ele><time>2026-04-12T13:18:52.986Z</time></trkpt><trkpt lat="40.6601648" lon="9.3087252"><ele>707.0</ele><time>2026-04-12T13:18:53.964Z</time></trkpt><trkpt lat="40.6602811" lon="9.3087657"><ele>707.0</ele><time>2026-04-12T13:18:54.959Z</time></trkpt><trkpt lat="40.6603993" lon="9.3088012"><ele>707.0</ele><time>2026-04-12T13:18:55.963Z</time></trkpt><trkpt lat="40.6605231" lon="9.308829"><ele>707.5</ele><time>2026-04-12T13:18:56.966Z</time></trkpt><trkpt lat="40.6606465" lon="9.3088575"><ele>708.0</ele><time>2026-04-12T13:18:57.965Z</time></trkpt><trkpt lat="40.6607672" lon="9.308894"><ele>708.5</ele><time>2026-04-12T13:18:58.972Z</time></trkpt><trkpt lat="40.6608862" lon="9.3089265"><ele>709.0</ele><time>2026-04-12T13:18:59.965Z</time></trkpt><trkpt lat="40.6609987" lon="9.3089591"><ele>709.0</ele><time>2026-04-12T13:19:00.966Z</time></trkpt><trkpt lat="40.6610983" lon="9.3089921"><ele>709.0</ele><time>2026-04-12T13:19:02.004Z</time></trkpt><trkpt lat="40.6611885" lon="9.3090189"><ele>709.0</ele><time>2026-04-12T13:19:02.963Z</time></trkpt><trkpt lat="40.6612637" lon="9.3090277"><ele>709.0</ele><time>2026-04-12T13:19:03.961Z</time></trkpt><trkpt lat="40.6613333" lon="9.3090117"><ele>709.0</ele><time>2026-04-12T13:19:04.966Z</time></trkpt><trkpt lat="40.6613993" lon="9.3089558"><ele>709.0</ele><time>2026-04-12T13:19:05.959Z</time></trkpt><trkpt lat="40.6614553" lon="9.3088678"><ele>709.6</ele><time>2026-04-12T13:19:06.972Z</time></trkpt><trkpt lat="40.661511" lon="9.3087594"><ele>710.2</ele><time>2026-04-12T13:19:07.968Z</time></trkpt><trkpt lat="40.6615713" lon="9.3086398"><ele>710.8000000000001</ele><time>2026-04-12T13:19:08.949Z</time></trkpt><trkpt lat="40.6616338" lon="9.3085164"><ele>711.4000000000001</ele><time>2026-04-12T13:19:09.962Z</time></trkpt><trkpt lat="40.6616954" lon="9.3083891"><ele>712.0</ele><time>2026-04-12T13:19:10.963Z</time></trkpt><trkpt lat="40.6617621" lon="9.3082563"><ele>712.0</ele><time>2026-04-12T13:19:11.965Z</time></trkpt><trkpt lat="40.6618279" lon="9.3081232"><ele>712.0</ele><time>2026-04-12T13:19:12.984Z</time></trkpt><trkpt lat="40.6618966" lon="9.3079929"><ele>712.0</ele><time>2026-04-12T13:19:13.971Z</time></trkpt><trkpt lat="40.6619643" lon="9.3078688"><ele>712.0</ele><time>2026-04-12T13:19:14.972Z</time></trkpt><trkpt lat="40.6620289" lon="9.3077456"><ele>711.75</ele><time>2026-04-12T13:19:15.968Z</time></trkpt><trkpt lat="40.6620875" lon="9.3076178"><ele>711.5</ele><time>2026-04-12T13:19:16.953Z</time></trkpt><trkpt lat="40.6621265" lon="9.307482"><ele>711.25</ele><time>2026-04-12T13:19:17.973Z</time></trkpt><trkpt lat="40.6621529" lon="9.3073351"><ele>711.0</ele><time>2026-04-12T13:19:18.971Z</time></trkpt><trkpt lat="40.6621812" lon="9.3071835"><ele>711.0</ele><time>2026-04-12T13:19:19.971Z</time></trkpt><trkpt lat="40.6622022" lon="9.3070344"><ele>711.0</ele><time>2026-04-12T13:19:20.961Z</time></trkpt><trkpt lat="40.6622208" lon="9.3068883"><ele>711.0</ele><time>2026-04-12T13:19:21.973Z</time></trkpt><trkpt lat="40.6622335" lon="9.306736"><ele>711.0</ele><time>2026-04-12T13:19:22.968Z</time></trkpt><trkpt lat="40.6622338" lon="9.3065857"><ele>711.0</ele><time>2026-04-12T13:19:23.963Z</time></trkpt><trkpt lat="40.6622224" lon="9.306444"><ele>711.0</ele><time>2026-04-12T13:19:24.961Z</time></trkpt><trkpt lat="40.6622267" lon="9.3063112"><ele>711.0</ele><time>2026-04-12T13:19:25.975Z</time></trkpt><trkpt lat="40.662258" lon="9.3061999"><ele>711.0</ele><time>2026-04-12T13:19:26.98Z</time></trkpt><trkpt lat="40.6623077" lon="9.3061134"><ele>711.0</ele><time>2026-04-12T13:19:27.972Z</time></trkpt><trkpt lat="40.6623852" lon="9.3060383"><ele>711.1999999999999</ele><time>2026-04-12T13:19:28.997Z</time></trkpt><trkpt lat="40.6624695" lon="9.3059683"><ele>711.4</ele><time>2026-04-12T13:19:29.974Z</time></trkpt><trkpt lat="40.6625552" lon="9.3058857"><ele>711.6</ele><time>2026-04-12T13:19:30.974Z</time></trkpt><trkpt lat="40.662634" lon="9.3057906"><ele>711.8</ele><time>2026-04-12T13:19:31.972Z</time></trkpt><trkpt lat="40.6627112" lon="9.3056792"><ele>712.0</ele><time>2026-04-12T13:19:32.976Z</time></trkpt><trkpt lat="40.6627776" lon="9.305558"><ele>712.75</ele><time>2026-04-12T13:19:33.971Z</time></trkpt><trkpt lat="40.6628433" lon="9.3054327"><ele>713.5</ele><time>2026-04-12T13:19:34.978Z</time></trkpt><trkpt lat="40.662911" lon="9.3053017"><ele>714.25</ele><time>2026-04-12T13:19:35.972Z</time></trkpt><trkpt lat="40.662979" lon="9.3051681"><ele>715.0</ele><time>2026-04-12T13:19:36.993Z</time></trkpt><trkpt lat="40.663044" lon="9.3050362"><ele>715.0</ele><time>2026-04-12T13:19:37.969Z</time></trkpt><trkpt lat="40.6631079" lon="9.304901"><ele>715.0</ele><time>2026-04-12T13:19:38.967Z</time></trkpt><trkpt lat="40.6631694" lon="9.304756"><ele>715.0</ele><time>2026-04-12T13:19:39.971Z</time></trkpt><trkpt lat="40.663229" lon="9.3046021"><ele>715.0</ele><time>2026-04-12T13:19:40.977Z</time></trkpt><trkpt lat="40.6632866" lon="9.3044433"><ele>715.25</ele><time>2026-04-12T13:19:41.977Z</time></trkpt><trkpt lat="40.6633438" lon="9.3042805"><ele>715.5</ele><time>2026-04-12T13:19:42.976Z</time></trkpt><trkpt lat="40.6634045" lon="9.3041253"><ele>715.75</ele><time>2026-04-12T13:19:43.967Z</time></trkpt><trkpt lat="40.6634664" lon="9.3039688"><ele>716.0</ele><time>2026-04-12T13:19:44.975Z</time></trkpt><trkpt lat="40.6635296" lon="9.3038165"><ele>716.75</ele><time>2026-04-12T13:19:45.981Z</time></trkpt><trkpt lat="40.663589" lon="9.3036638"><ele>717.5</ele><time>2026-04-12T13:19:46.969Z</time></trkpt><trkpt lat="40.6636447" lon="9.3035083"><ele>718.25</ele><time>2026-04-12T13:19:47.965Z</time></trkpt><trkpt lat="40.6637011" lon="9.3033503"><ele>719.0</ele><time>2026-04-12T13:19:48.949Z</time></trkpt><trkpt lat="40.6637536" lon="9.3031905"><ele>721.25</ele><time>2026-04-12T13:19:49.972Z</time></trkpt><trkpt lat="40.6638024" lon="9.3030301"><ele>723.5</ele><time>2026-04-12T13:19:50.97Z</time></trkpt><trkpt lat="40.6638505" lon="9.3028705"><ele>725.75</ele><time>2026-04-12T13:19:51.959Z</time></trkpt><trkpt lat="40.6639042" lon="9.3027148"><ele>728.0</ele><time>2026-04-12T13:19:52.961Z</time></trkpt><trkpt lat="40.6639646" lon="9.3025677"><ele>728.0</ele><time>2026-04-12T13:19:53.965Z</time></trkpt><trkpt lat="40.664037" lon="9.3024247"><ele>728.0</ele><time>2026-04-12T13:19:54.975Z</time></trkpt><trkpt lat="40.6641145" lon="9.3022977"><ele>728.0</ele><time>2026-04-12T13:19:55.951Z</time></trkpt><trkpt lat="40.6641958" lon="9.3021898"><ele>728.0</ele><time>2026-04-12T13:19:56.96Z</time></trkpt><trkpt lat="40.6642777" lon="9.3021019"><ele>729.2</ele><time>2026-04-12T13:19:57.951Z</time></trkpt><trkpt lat="40.6643495" lon="9.3020362"><ele>730.4</ele><time>2026-04-12T13:19:58.956Z</time></trkpt><trkpt lat="40.6644213" lon="9.3019725"><ele>731.6</ele><time>2026-04-12T13:19:59.968Z</time></trkpt><trkpt lat="40.6644974" lon="9.3019096"><ele>732.8000000000001</ele><time>2026-04-12T13:20:00.952Z</time></trkpt><trkpt lat="40.6645819" lon="9.301853"><ele>734.0</ele><time>2026-04-12T13:20:01.957Z</time></trkpt><trkpt lat="40.6646739" lon="9.3017999"><ele>734.0</ele><time>2026-04-12T13:20:02.953Z</time></trkpt><trkpt lat="40.6647648" lon="9.3017418"><ele>734.0</ele><time>2026-04-12T13:20:03.958Z</time></trkpt><trkpt lat="40.6648614" lon="9.3016792"><ele>734.0</ele><time>2026-04-12T13:20:04.97Z</time></trkpt><trkpt lat="40.6649552" lon="9.3016165"><ele>734.0</ele><time>2026-04-12T13:20:05.97Z</time></trkpt><trkpt lat="40.6650436" lon="9.301544"><ele>734.0</ele><time>2026-04-12T13:20:06.965Z</time></trkpt><trkpt lat="40.6651243" lon="9.3014567"><ele>735.4000000000001</ele><time>2026-04-12T13:20:07.955Z</time></trkpt><trkpt lat="40.6651979" lon="9.3013576"><ele>736.8</ele><time>2026-04-12T13:20:08.952Z</time></trkpt><trkpt lat="40.6652735" lon="9.3012587"><ele>738.2</ele><time>2026-04-12T13:20:09.951Z</time></trkpt><trkpt lat="40.6653537" lon="9.301151"><ele>739.5999999999999</ele><time>2026-04-12T13:20:10.968Z</time></trkpt><trkpt lat="40.6654341" lon="9.3010391"><ele>741.0</ele><time>2026-04-12T13:20:11.959Z</time></trkpt><trkpt lat="40.6655106" lon="9.3009172"><ele>741.0</ele><time>2026-04-12T13:20:12.966Z</time></trkpt><trkpt lat="40.665578" lon="9.3007834"><ele>741.0</ele><time>2026-04-12T13:20:13.969Z</time></trkpt><trkpt lat="40.6656355" lon="9.3006465"><ele>741.0</ele><time>2026-04-12T13:20:14.955Z</time></trkpt><trkpt lat="40.6656912" lon="9.3005124"><ele>741.0</ele><time>2026-04-12T13:20:15.963Z</time></trkpt><trkpt lat="40.6657523" lon="9.3003958"><ele>743.5999999999999</ele><time>2026-04-12T13:20:16.961Z</time></trkpt><trkpt lat="40.6658109" lon="9.3002989"><ele>746.2</ele><time>2026-04-12T13:20:17.967Z</time></trkpt><trkpt lat="40.665878" lon="9.3002142"><ele>748.8</ele><time>2026-04-12T13:20:18.963Z</time></trkpt><trkpt lat="40.6659513" lon="9.3001423"><ele>751.4000000000001</ele><time>2026-04-12T13:20:19.964Z</time></trkpt><trkpt lat="40.6660356" lon="9.3000825"><ele>754.0</ele><time>2026-04-12T13:20:20.966Z</time></trkpt><trkpt lat="40.6661306" lon="9.3000547"><ele>756.0</ele><time>2026-04-12T13:20:21.972Z</time></trkpt><trkpt lat="40.6662288" lon="9.3000337"><ele>758.0</ele><time>2026-04-12T13:20:22.978Z</time></trkpt><trkpt lat="40.6663321" lon="9.3000248"><ele>760.0</ele><time>2026-04-12T13:20:23.958Z</time></trkpt><trkpt lat="40.6664411" lon="9.3000159"><ele>762.0</ele><time>2026-04-12T13:20:24.988Z</time></trkpt><trkpt lat="40.6665552" lon="9.3000086"><ele>764.0</ele><time>2026-04-12T13:20:25.971Z</time></trkpt><trkpt lat="40.6666613" lon="9.2999963"><ele>764.0</ele><time>2026-04-12T13:20:26.966Z</time></trkpt><trkpt lat="40.666761" lon="9.2999828"><ele>764.0</ele><time>2026-04-12T13:20:27.97Z</time></trkpt><trkpt lat="40.6668583" lon="9.2999798"><ele>764.0</ele><time>2026-04-12T13:20:28.979Z</time></trkpt><trkpt lat="40.6669546" lon="9.2999926"><ele>764.0</ele><time>2026-04-12T13:20:29.97Z</time></trkpt><trkpt lat="40.6670456" lon="9.3000055"><ele>764.0</ele><time>2026-04-12T13:20:30.973Z</time></trkpt><trkpt lat="40.667134" lon="9.299989"><ele>766.25</ele><time>2026-04-12T13:20:31.997Z</time></trkpt><trkpt lat="40.667234" lon="9.2999605"><ele>768.5</ele><time>2026-04-12T13:20:32.983Z</time></trkpt><trkpt lat="40.6673421" lon="9.2999283"><ele>770.75</ele><time>2026-04-12T13:20:33.973Z</time></trkpt><trkpt lat="40.6674558" lon="9.2998949"><ele>773.0</ele><time>2026-04-12T13:20:34.986Z</time></trkpt><trkpt lat="40.6675715" lon="9.2998522"><ele>773.0</ele><time>2026-04-12T13:20:35.967Z</time></trkpt><trkpt lat="40.6676788" lon="9.2998078"><ele>773.0</ele><time>2026-04-12T13:20:36.975Z</time></trkpt><trkpt lat="40.6677833" lon="9.2997584"><ele>773.0</ele><time>2026-04-12T13:20:37.982Z</time></trkpt><trkpt lat="40.6678868" lon="9.2997095"><ele>773.0</ele><time>2026-04-12T13:20:38.98Z</time></trkpt><trkpt lat="40.6679846" lon="9.2996542"><ele>773.0</ele><time>2026-04-12T13:20:39.984Z</time></trkpt><trkpt lat="40.668083" lon="9.2995924"><ele>778.5</ele><time>2026-04-12T13:20:40.986Z</time></trkpt><trkpt lat="40.6681897" lon="9.2995291"><ele>784.0</ele><time>2026-04-12T13:20:41.973Z</time></trkpt><trkpt lat="40.6682991" lon="9.2994602"><ele>789.5</ele><time>2026-04-12T13:20:42.981Z</time></trkpt><trkpt lat="40.6684098" lon="9.2994026"><ele>795.0</ele><time>2026-04-12T13:20:43.984Z</time></trkpt><trkpt lat="40.6685077" lon="9.2993566"><ele>795.0</ele><time>2026-04-12T13:20:44.977Z</time></trkpt><trkpt lat="40.6685965" lon="9.2993196"><ele>795.0</ele><time>2026-04-12T13:20:45.987Z</time></trkpt><trkpt lat="40.668687" lon="9.299292"><ele>795.0</ele><time>2026-04-12T13:20:46.976Z</time></trkpt><trkpt lat="40.668776" lon="9.2992919"><ele>795.0</ele><time>2026-04-12T13:20:47.972Z</time></trkpt><trkpt lat="40.6688645" lon="9.299312"><ele>795.0</ele><time>2026-04-12T13:20:48.974Z</time></trkpt><trkpt lat="40.6689607" lon="9.2993204"><ele>795.6666666666666</ele><time>2026-04-12T13:20:49.984Z</time></trkpt><trkpt lat="40.6690495" lon="9.2993125"><ele>796.3333333333333</ele><time>2026-04-12T13:20:50.977Z</time></trkpt><trkpt lat="40.6691417" lon="9.2992907"><ele>797.0</ele><time>2026-04-12T13:20:51.994Z</time></trkpt><trkpt lat="40.6692254" lon="9.2992673"><ele>797.6666666666666</ele><time>2026-04-12T13:20:52.974Z</time></trkpt><trkpt lat="40.6693027" lon="9.2992472"><ele>798.3333333333333</ele><time>2026-04-12T13:20:53.985Z</time></trkpt><trkpt lat="40.6693736" lon="9.2992373"><ele>799.0</ele><time>2026-04-12T13:20:54.978Z</time></trkpt><trkpt lat="40.6694371" lon="9.2992448"><ele>799.6666666666666</ele><time>2026-04-12T13:20:55.989Z</time></trkpt><trkpt lat="40.6695041" lon="9.299277"><ele>800.3333333333333</ele><time>2026-04-12T13:20:56.995Z</time></trkpt><trkpt lat="40.6695627" lon="9.2993348"><ele>801.0</ele><time>2026-04-12T13:20:57.987Z</time></trkpt><trkpt lat="40.6696136" lon="9.2994176"><ele>801.6666666666667</ele><time>2026-04-12T13:20:58.986Z</time></trkpt><trkpt lat="40.6696513" lon="9.2995198"><ele>802.3333333333334</ele><time>2026-04-12T13:20:59.991Z</time></trkpt><trkpt lat="40.6696861" lon="9.2996373"><ele>803.0</ele><time>2026-04-12T13:21:00.978Z</time></trkpt><trkpt lat="40.6697212" lon="9.2997613"><ele>803.0000000000001</ele><time>2026-04-12T13:21:01.991Z</time></trkpt><trkpt lat="40.6697594" lon="9.2998779"><ele>803.0</ele><time>2026-04-12T13:21:02.981Z</time></trkpt><trkpt lat="40.6698062" lon="9.2999848"><ele>803.0</ele><time>2026-04-12T13:21:03.988Z</time></trkpt><trkpt lat="40.669862" lon="9.3000573"><ele>803.0</ele><time>2026-04-12T13:21:04.986Z</time></trkpt><trkpt lat="40.6699272" lon="9.3001049"><ele>803.0000000000001</ele><time>2026-04-12T13:21:05.984Z</time></trkpt><trkpt lat="40.6700001" lon="9.3001195"><ele>803.0</ele><time>2026-04-12T13:21:06.992Z</time></trkpt><trkpt lat="40.6700724" lon="9.3000976"><ele>803.0000000000001</ele><time>2026-04-12T13:21:07.994Z</time></trkpt><trkpt lat="40.6701428" lon="9.3000517"><ele>803.0</ele><time>2026-04-12T13:21:08.99Z</time></trkpt><trkpt lat="40.6702019" lon="9.2999773"><ele>803.0</ele><time>2026-04-12T13:21:09.989Z</time></trkpt><trkpt lat="40.6702635" lon="9.2998924"><ele>803.0</ele><time>2026-04-12T13:21:10.983Z</time></trkpt><trkpt lat="40.6703239" lon="9.2997937"><ele>803.0000000000001</ele><time>2026-04-12T13:21:11.99Z</time></trkpt><trkpt lat="40.6703902" lon="9.2996928"><ele>803.0</ele><time>2026-04-12T13:21:12.985Z</time></trkpt><trkpt lat="40.6704581" lon="9.2995844"><ele>805.5999999999999</ele><time>2026-04-12T13:21:14.002Z</time></trkpt><trkpt lat="40.6705267" lon="9.2994758"><ele>808.1999999999999</ele><time>2026-04-12T13:21:14.982Z</time></trkpt><trkpt lat="40.6705932" lon="9.2993707"><ele>810.8</ele><time>2026-04-12T13:21:16.004Z</time></trkpt><trkpt lat="40.6706641" lon="9.299262"><ele>813.4</ele><time>2026-04-12T13:21:17.005Z</time></trkpt><trkpt lat="40.6707344" lon="9.2991573"><ele>816.0</ele><time>2026-04-12T13:21:18.003Z</time></trkpt><trkpt lat="40.6707975" lon="9.2990562"><ele>816.0</ele><time>2026-04-12T13:21:19Z</time></trkpt><trkpt lat="40.6708595" lon="9.2989658"><ele>816.0</ele><time>2026-04-12T13:21:20.002Z</time></trkpt><trkpt lat="40.6709208" lon="9.2988734"><ele>816.0</ele><time>2026-04-12T13:21:20.983Z</time></trkpt><trkpt lat="40.6709779" lon="9.2987829"><ele>816.0</ele><time>2026-04-12T13:21:21.995Z</time></trkpt><trkpt lat="40.6710338" lon="9.2986986"><ele>816.0</ele><time>2026-04-12T13:21:22.994Z</time></trkpt><trkpt lat="40.6710963" lon="9.2986165"><ele>816.0</ele><time>2026-04-12T13:21:23.988Z</time></trkpt><trkpt lat="40.6711605" lon="9.2985328"><ele>819.4</ele><time>2026-04-12T13:21:24.987Z</time></trkpt><trkpt lat="40.6712234" lon="9.2984343"><ele>822.8</ele><time>2026-04-12T13:21:26.007Z</time></trkpt><trkpt lat="40.6712754" lon="9.2983222"><ele>826.1999999999999</ele><time>2026-04-12T13:21:27.007Z</time></trkpt><trkpt lat="40.67132" lon="9.2982013"><ele>829.5999999999999</ele><time>2026-04-12T13:21:28.001Z</time></trkpt><trkpt lat="40.6713591" lon="9.2980635"><ele>833.0</ele><time>2026-04-12T13:21:29.014Z</time></trkpt><trkpt lat="40.6713975" lon="9.297919"><ele>833.0</ele><time>2026-04-12T13:21:30.006Z</time></trkpt><trkpt lat="40.6714267" lon="9.2977684"><ele>833.0</ele><time>2026-04-12T13:21:30.988Z</time></trkpt><trkpt lat="40.6714542" lon="9.2976214"><ele>833.0</ele><time>2026-04-12T13:21:31.986Z</time></trkpt><trkpt lat="40.6714716" lon="9.2974775"><ele>833.0</ele><time>2026-04-12T13:21:33.083Z</time></trkpt><trkpt lat="40.6714825" lon="9.2973323"><ele>834.4</ele><time>2026-04-12T13:21:33.996Z</time></trkpt><trkpt lat="40.6714804" lon="9.2971959"><ele>835.8</ele><time>2026-04-12T13:21:34.991Z</time></trkpt><trkpt lat="40.6714694" lon="9.2970566"><ele>837.2</ele><time>2026-04-12T13:21:35.988Z</time></trkpt><trkpt lat="40.6714577" lon="9.2969151"><ele>838.6</ele><time>2026-04-12T13:21:36.999Z</time></trkpt><trkpt lat="40.6714481" lon="9.2967706"><ele>840.0</ele><time>2026-04-12T13:21:37.989Z</time></trkpt><trkpt lat="40.6714465" lon="9.2966326"><ele>840.0</ele><time>2026-04-12T13:21:39.017Z</time></trkpt><trkpt lat="40.6714504" lon="9.2964914"><ele>840.0</ele><time>2026-04-12T13:21:40.053Z</time></trkpt><trkpt lat="40.6714598" lon="9.2963451"><ele>840.0</ele><time>2026-04-12T13:21:41.016Z</time></trkpt><trkpt lat="40.6714808" lon="9.2961968"><ele>840.0</ele><time>2026-04-12T13:21:42.018Z</time></trkpt><trkpt lat="40.6715077" lon="9.2960504"><ele>840.0</ele><time>2026-04-12T13:21:42.997Z</time></trkpt><trkpt lat="40.6715362" lon="9.2959007"><ele>840.8</ele><time>2026-04-12T13:21:44.019Z</time></trkpt><trkpt lat="40.6715606" lon="9.2957575"><ele>841.6</ele><time>2026-04-12T13:21:45.001Z</time></trkpt><trkpt lat="40.6715812" lon="9.2956149"><ele>842.4000000000001</ele><time>2026-04-12T13:21:45.992Z</time></trkpt><trkpt lat="40.6715977" lon="9.2954688"><ele>843.2</ele><time>2026-04-12T13:21:46.991Z</time></trkpt><trkpt lat="40.6716098" lon="9.2953244"><ele>844.0</ele><time>2026-04-12T13:21:47.997Z</time></trkpt><trkpt lat="40.6716231" lon="9.2951848"><ele>845.4000000000001</ele><time>2026-04-12T13:21:49.008Z</time></trkpt><trkpt lat="40.6716382" lon="9.2950479"><ele>846.8</ele><time>2026-04-12T13:21:50.022Z</time></trkpt><trkpt lat="40.6716518" lon="9.2949056"><ele>848.2</ele><time>2026-04-12T13:21:50.985Z</time></trkpt><trkpt lat="40.6716621" lon="9.2947592"><ele>849.5999999999999</ele><time>2026-04-12T13:21:51.995Z</time></trkpt><trkpt lat="40.6716722" lon="9.2946042"><ele>851.0</ele><time>2026-04-12T13:21:52.987Z</time></trkpt><trkpt lat="40.6716841" lon="9.294443"><ele>852.5</ele><time>2026-04-12T13:21:53.998Z</time></trkpt><trkpt lat="40.6716997" lon="9.2942712"><ele>854.0</ele><time>2026-04-12T13:21:54.991Z</time></trkpt><trkpt lat="40.6717151" lon="9.2940998"><ele>855.5</ele><time>2026-04-12T13:21:55.983Z</time></trkpt><trkpt lat="40.6717262" lon="9.2939296"><ele>857.0</ele><time>2026-04-12T13:21:57Z</time></trkpt><trkpt lat="40.67173" lon="9.2937718"><ele>857.0</ele><time>2026-04-12T13:21:57.997Z</time></trkpt><trkpt lat="40.6717327" lon="9.2936311"><ele>857.0</ele><time>2026-04-12T13:21:58.986Z</time></trkpt><trkpt lat="40.6717377" lon="9.2934908"><ele>857.0</ele><time>2026-04-12T13:21:59.984Z</time></trkpt><trkpt lat="40.671742" lon="9.2933453"><ele>857.0</ele><time>2026-04-12T13:22:01.005Z</time></trkpt><trkpt lat="40.6717481" lon="9.2931976"><ele>857.0</ele><time>2026-04-12T13:22:02.006Z</time></trkpt><trkpt lat="40.6717691" lon="9.2930469"><ele>856.0</ele><time>2026-04-12T13:22:02.987Z</time></trkpt><trkpt lat="40.6718052" lon="9.2928946"><ele>855.0</ele><time>2026-04-12T13:22:04.005Z</time></trkpt><trkpt lat="40.6718561" lon="9.2927414"><ele>854.0</ele><time>2026-04-12T13:22:04.994Z</time></trkpt><trkpt lat="40.6719034" lon="9.2925893"><ele>853.0</ele><time>2026-04-12T13:22:06.008Z</time></trkpt><trkpt lat="40.671947" lon="9.2924321"><ele>855.75</ele><time>2026-04-12T13:22:06.992Z</time></trkpt><trkpt lat="40.6719906" lon="9.2922706"><ele>858.5</ele><time>2026-04-12T13:22:08.001Z</time></trkpt><trkpt lat="40.6720376" lon="9.2921087"><ele>861.25</ele><time>2026-04-12T13:22:09.002Z</time></trkpt><trkpt lat="40.6720971" lon="9.2919536"><ele>864.0</ele><time>2026-04-12T13:22:10Z</time></trkpt><trkpt lat="40.6721585" lon="9.2917974"><ele>864.0</ele><time>2026-04-12T13:22:10.996Z</time></trkpt><trkpt lat="40.6722209" lon="9.2916497"><ele>864.0</ele><time>2026-04-12T13:22:12.004Z</time></trkpt><trkpt lat="40.6722954" lon="9.2915125"><ele>864.0</ele><time>2026-04-12T13:22:13.006Z</time></trkpt><trkpt lat="40.6723761" lon="9.2913882"><ele>864.0</ele><time>2026-04-12T13:22:14Z</time></trkpt><trkpt lat="40.6724518" lon="9.2912546"><ele>864.0</ele><time>2026-04-12T13:22:14.993Z</time></trkpt><trkpt lat="40.6725212" lon="9.2911174"><ele>864.0</ele><time>2026-04-12T13:22:16.003Z</time></trkpt><trkpt lat="40.6725955" lon="9.2909882"><ele>864.0</ele><time>2026-04-12T13:22:17.027Z</time></trkpt><trkpt lat="40.6726725" lon="9.2908686"><ele>864.0</ele><time>2026-04-12T13:22:18.006Z</time></trkpt><trkpt lat="40.6727403" lon="9.2907569"><ele>864.3333333333334</ele><time>2026-04-12T13:22:19.004Z</time></trkpt><trkpt lat="40.6728016" lon="9.290656"><ele>864.6666666666667</ele><time>2026-04-12T13:22:20.008Z</time></trkpt><trkpt lat="40.6728591" lon="9.2905623"><ele>865.0</ele><time>2026-04-12T13:22:21.008Z</time></trkpt><trkpt lat="40.6729176" lon="9.2904833"><ele>865.3333333333334</ele><time>2026-04-12T13:22:22.009Z</time></trkpt><trkpt lat="40.6729775" lon="9.290417"><ele>865.6666666666667</ele><time>2026-04-12T13:22:23.014Z</time></trkpt><trkpt lat="40.6730481" lon="9.290373"><ele>866.0</ele><time>2026-04-12T13:22:24.01Z</time></trkpt><trkpt lat="40.6731128" lon="9.2903661"><ele>866.0000000000001</ele><time>2026-04-12T13:22:25.013Z</time></trkpt><trkpt lat="40.6731893" lon="9.2903846"><ele>866.0</ele><time>2026-04-12T13:22:26.062Z</time></trkpt><trkpt lat="40.6732604" lon="9.2904262"><ele>866.0</ele><time>2026-04-12T13:22:27.017Z</time></trkpt><trkpt lat="40.6733316" lon="9.2904769"><ele>866.0</ele><time>2026-04-12T13:22:28.017Z</time></trkpt><trkpt lat="40.6733997" lon="9.290526"><ele>866.0000000000001</ele><time>2026-04-12T13:22:29.014Z</time></trkpt><trkpt lat="40.6734643" lon="9.290571"><ele>866.0</ele><time>2026-04-12T13:22:30.005Z</time></trkpt><trkpt lat="40.6735257" lon="9.2906063"><ele>867.4</ele><time>2026-04-12T13:22:31.007Z</time></trkpt><trkpt lat="40.6736221" lon="9.2906527"><ele>868.8</ele><time>2026-04-12T13:22:33.029Z</time></trkpt><trkpt lat="40.6737159" lon="9.2906909"><ele>870.1999999999999</ele><time>2026-04-12T13:22:35.021Z</time></trkpt><trkpt lat="40.6738197" lon="9.2907178"><ele>871.5999999999999</ele><time>2026-04-12T13:22:37.029Z</time></trkpt><trkpt lat="40.6739249" lon="9.2907429"><ele>873.0</ele><time>2026-04-12T13:22:39.031Z</time></trkpt><trkpt lat="40.6740393" lon="9.2907768"><ele>873.0</ele><time>2026-04-12T13:22:41.049Z</time></trkpt><trkpt lat="40.6741582" lon="9.2908201"><ele>873.0</ele><time>2026-04-12T13:22:43.028Z</time></trkpt><trkpt lat="40.6742199" lon="9.2908441"><ele>873.0</ele><time>2026-04-12T13:22:44.013Z</time></trkpt><trkpt lat="40.6742833" lon="9.2908735"><ele>873.0</ele><time>2026-04-12T13:22:45.021Z</time></trkpt><trkpt lat="40.6743508" lon="9.2909005"><ele>873.0</ele><time>2026-04-12T13:22:46.023Z</time></trkpt><trkpt lat="40.6744195" lon="9.2909316"><ele>873.0</ele><time>2026-04-12T13:22:47.005Z</time></trkpt><trkpt lat="40.6744913" lon="9.290963"><ele>873.8333333333334</ele><time>2026-04-12T13:22:48.007Z</time></trkpt><trkpt lat="40.6745634" lon="9.2910103"><ele>874.6666666666667</ele><time>2026-04-12T13:22:49.02Z</time></trkpt><trkpt lat="40.6746331" lon="9.2910647"><ele>875.5</ele><time>2026-04-12T13:22:50.019Z</time></trkpt><trkpt lat="40.6747034" lon="9.2911275"><ele>876.3333333333334</ele><time>2026-04-12T13:22:51.016Z</time></trkpt><trkpt lat="40.6747737" lon="9.2911937"><ele>877.1666666666667</ele><time>2026-04-12T13:22:52.015Z</time></trkpt><trkpt lat="40.6748419" lon="9.291258"><ele>878.0</ele><time>2026-04-12T13:22:53.019Z</time></trkpt><trkpt lat="40.6749062" lon="9.2913207"><ele>878.0000000000001</ele><time>2026-04-12T13:22:54.014Z</time></trkpt><trkpt lat="40.6749651" lon="9.2913829"><ele>878.0</ele><time>2026-04-12T13:22:55.017Z</time></trkpt><trkpt lat="40.6750237" lon="9.291444"><ele>878.0</ele><time>2026-04-12T13:22:56.017Z</time></trkpt><trkpt lat="40.6750841" lon="9.2915117"><ele>878.0</ele><time>2026-04-12T13:22:57.012Z</time></trkpt><trkpt lat="40.6751459" lon="9.2915804"><ele>878.0000000000001</ele><time>2026-04-12T13:22:58.02Z</time></trkpt><trkpt lat="40.6752066" lon="9.2916529"><ele>878.0</ele><time>2026-04-12T13:22:59.023Z</time></trkpt><trkpt lat="40.6752666" lon="9.2917334"><ele>879.6666666666667</ele><time>2026-04-12T13:23:00.021Z</time></trkpt><trkpt lat="40.6753168" lon="9.2918108"><ele>881.3333333333334</ele><time>2026-04-12T13:23:01.003Z</time></trkpt><trkpt lat="40.6753604" lon="9.2918795"><ele>883.0</ele><time>2026-04-12T13:23:02.007Z</time></trkpt><trkpt lat="40.6754584" lon="9.2919736"><ele>884.6666666666667</ele><time>2026-04-12T13:23:04.005Z</time></trkpt><trkpt lat="40.6755202" lon="9.291996"><ele>886.3333333333334</ele><time>2026-04-12T13:23:05.03Z</time></trkpt><trkpt lat="40.6755855" lon="9.2919928"><ele>888.0</ele><time>2026-04-12T13:23:06.015Z</time></trkpt><trkpt lat="40.6756558" lon="9.2919664"><ele>888.0</ele><time>2026-04-12T13:23:07.014Z</time></trkpt><trkpt lat="40.6757301" lon="9.2919245"><ele>888.0</ele><time>2026-04-12T13:23:08.024Z</time></trkpt><trkpt lat="40.6758062" lon="9.2918761"><ele>888.0</ele><time>2026-04-12T13:23:09.024Z</time></trkpt><trkpt lat="40.6758853" lon="9.2918326"><ele>888.0</ele><time>2026-04-12T13:23:10.021Z</time></trkpt><trkpt lat="40.6759717" lon="9.2917926"><ele>888.0</ele><time>2026-04-12T13:23:11.045Z</time></trkpt><trkpt lat="40.6760585" lon="9.2917484"><ele>888.0</ele><time>2026-04-12T13:23:12.019Z</time></trkpt><trkpt lat="40.676146" lon="9.2916973"><ele>888.5999999999999</ele><time>2026-04-12T13:23:13.02Z</time></trkpt><trkpt lat="40.6762379" lon="9.2916374"><ele>889.1999999999999</ele><time>2026-04-12T13:23:14.02Z</time></trkpt><trkpt lat="40.6763317" lon="9.2915785"><ele>889.8</ele><time>2026-04-12T13:23:15.01Z</time></trkpt><trkpt lat="40.6764278" lon="9.2915231"><ele>890.4</ele><time>2026-04-12T13:23:16.033Z</time></trkpt><trkpt lat="40.6765236" lon="9.2914732"><ele>891.0</ele><time>2026-04-12T13:23:17.04Z</time></trkpt><trkpt lat="40.6766181" lon="9.291422"><ele>891.0</ele><time>2026-04-12T13:23:18.038Z</time></trkpt><trkpt lat="40.676705" lon="9.2913735"><ele>891.0</ele><time>2026-04-12T13:23:19.021Z</time></trkpt><trkpt lat="40.6767866" lon="9.2913312"><ele>891.0</ele><time>2026-04-12T13:23:20.038Z</time></trkpt><trkpt lat="40.6768675" lon="9.2913088"><ele>891.0</ele><time>2026-04-12T13:23:21.006Z</time></trkpt><trkpt lat="40.6769476" lon="9.2913077"><ele>891.0</ele><time>2026-04-12T13:23:22.019Z</time></trkpt><trkpt lat="40.6770339" lon="9.2913228"><ele>891.0</ele><time>2026-04-12T13:23:23.033Z</time></trkpt><trkpt lat="40.6771332" lon="9.2913221"><ele>891.25</ele><time>2026-04-12T13:23:24.018Z</time></trkpt><trkpt lat="40.6772389" lon="9.2912957"><ele>891.5</ele><time>2026-04-12T13:23:25.03Z</time></trkpt><trkpt lat="40.6773478" lon="9.291252"><ele>891.75</ele><time>2026-04-12T13:23:26.021Z</time></trkpt><trkpt lat="40.6774597" lon="9.2912092"><ele>892.0</ele><time>2026-04-12T13:23:27.029Z</time></trkpt><trkpt lat="40.6775687" lon="9.2911774"><ele>891.9999999999999</ele><time>2026-04-12T13:23:28.031Z</time></trkpt><trkpt lat="40.6776637" lon="9.2911419"><ele>892.0</ele><time>2026-04-12T13:23:29.018Z</time></trkpt><trkpt lat="40.6777431" lon="9.2911092"><ele>892.0</ele><time>2026-04-12T13:23:30.022Z</time></trkpt><trkpt lat="40.6778191" lon="9.2910662"><ele>892.0</ele><time>2026-04-12T13:23:31.024Z</time></trkpt><trkpt lat="40.6778982" lon="9.291025"><ele>891.9999999999999</ele><time>2026-04-12T13:23:32.02Z</time></trkpt><trkpt lat="40.6779842" lon="9.2909806"><ele>892.0</ele><time>2026-04-12T13:23:33.017Z</time></trkpt><trkpt lat="40.6780657" lon="9.2909312"><ele>892.6666666666666</ele><time>2026-04-12T13:23:34.029Z</time></trkpt><trkpt lat="40.6781452" lon="9.2908807"><ele>893.3333333333333</ele><time>2026-04-12T13:23:35.015Z</time></trkpt><trkpt lat="40.6782255" lon="9.2908342"><ele>894.0</ele><time>2026-04-12T13:23:36.013Z</time></trkpt><trkpt lat="40.678309" lon="9.290798"><ele>894.6666666666667</ele><time>2026-04-12T13:23:37.008Z</time></trkpt><trkpt lat="40.6783907" lon="9.2907701"><ele>895.3333333333334</ele><time>2026-04-12T13:23:38.018Z</time></trkpt><trkpt lat="40.6784687" lon="9.2907537"><ele>896.0</ele><time>2026-04-12T13:23:39.02Z</time></trkpt><trkpt lat="40.6785414" lon="9.2907418"><ele>895.8333333333334</ele><time>2026-04-12T13:23:40.038Z</time></trkpt><trkpt lat="40.6786104" lon="9.2907356"><ele>895.6666666666667</ele><time>2026-04-12T13:23:41.032Z</time></trkpt><trkpt lat="40.6786825" lon="9.2907363"><ele>895.5</ele><time>2026-04-12T13:23:42.019Z</time></trkpt><trkpt lat="40.6787593" lon="9.2907359"><ele>895.3333333333333</ele><time>2026-04-12T13:23:43.029Z</time></trkpt><trkpt lat="40.6788411" lon="9.2907365"><ele>895.1666666666666</ele><time>2026-04-12T13:23:44.02Z</time></trkpt><trkpt lat="40.6789231" lon="9.2907482"><ele>895.0</ele><time>2026-04-12T13:23:45.035Z</time></trkpt><trkpt lat="40.6790085" lon="9.2907653"><ele>895.0</ele><time>2026-04-12T13:23:46.021Z</time></trkpt><trkpt lat="40.6790969" lon="9.2907903"><ele>895.0</ele><time>2026-04-12T13:23:47.024Z</time></trkpt><trkpt lat="40.679186" lon="9.2908064"><ele>895.0</ele><time>2026-04-12T13:23:48.02Z</time></trkpt><trkpt lat="40.6792776" lon="9.2908186"><ele>895.0</ele><time>2026-04-12T13:23:49.026Z</time></trkpt><trkpt lat="40.6793704" lon="9.2908295"><ele>895.0</ele><time>2026-04-12T13:23:50.023Z</time></trkpt><trkpt lat="40.6794647" lon="9.2908471"><ele>895.4</ele><time>2026-04-12T13:23:51.027Z</time></trkpt><trkpt lat="40.6795605" lon="9.2908694"><ele>895.8</ele><time>2026-04-12T13:23:52.029Z</time></trkpt><trkpt lat="40.6796587" lon="9.2908922"><ele>896.2</ele><time>2026-04-12T13:23:53.027Z</time></trkpt><trkpt lat="40.6797624" lon="9.2909211"><ele>896.6</ele><time>2026-04-12T13:23:54.026Z</time></trkpt><trkpt lat="40.6798672" lon="9.2909559"><ele>897.0</ele><time>2026-04-12T13:23:55.027Z</time></trkpt><trkpt lat="40.679971" lon="9.2909975"><ele>897.0</ele><time>2026-04-12T13:23:56.027Z</time></trkpt><trkpt lat="40.6800725" lon="9.2910416"><ele>897.0</ele><time>2026-04-12T13:23:57.018Z</time></trkpt><trkpt lat="40.6801676" lon="9.2911009"><ele>897.0</ele><time>2026-04-12T13:23:58.026Z</time></trkpt><trkpt lat="40.6802595" lon="9.291163"><ele>897.0</ele><time>2026-04-12T13:23:59.014Z</time></trkpt><trkpt lat="40.6803524" lon="9.291227"><ele>897.0</ele><time>2026-04-12T13:24:00.024Z</time></trkpt><trkpt lat="40.6804391" lon="9.2912933"><ele>898.6</ele><time>2026-04-12T13:24:01.026Z</time></trkpt><trkpt lat="40.6805217" lon="9.2913583"><ele>900.2</ele><time>2026-04-12T13:24:02.021Z</time></trkpt><trkpt lat="40.6805969" lon="9.2914268"><ele>901.8</ele><time>2026-04-12T13:24:03.025Z</time></trkpt><trkpt lat="40.680674" lon="9.2914943"><ele>903.4</ele><time>2026-04-12T13:24:04.031Z</time></trkpt><trkpt lat="40.6807558" lon="9.2915452"><ele>905.0</ele><time>2026-04-12T13:24:05.031Z</time></trkpt><trkpt lat="40.6808457" lon="9.2915839"><ele>905.6</ele><time>2026-04-12T13:24:06.018Z</time></trkpt><trkpt lat="40.6809399" lon="9.2916197"><ele>906.2</ele><time>2026-04-12T13:24:07.026Z</time></trkpt><trkpt lat="40.6810358" lon="9.2916486"><ele>906.8</ele><time>2026-04-12T13:24:08.033Z</time></trkpt><trkpt lat="40.6811345" lon="9.291678"><ele>907.4</ele><time>2026-04-12T13:24:09.041Z</time></trkpt><trkpt lat="40.6812363" lon="9.2917046"><ele>908.0</ele><time>2026-04-12T13:24:10.026Z</time></trkpt><trkpt lat="40.6813436" lon="9.291736"><ele>908.0</ele><time>2026-04-12T13:24:11.034Z</time></trkpt><trkpt lat="40.6814547" lon="9.2917656"><ele>908.0</ele><time>2026-04-12T13:24:12.031Z</time></trkpt><trkpt lat="40.6815657" lon="9.2917924"><ele>908.0</ele><time>2026-04-12T13:24:13.024Z</time></trkpt><trkpt lat="40.6816771" lon="9.2918194"><ele>908.0</ele><time>2026-04-12T13:24:14.024Z</time></trkpt><trkpt lat="40.6817895" lon="9.2918411"><ele>908.0</ele><time>2026-04-12T13:24:15.026Z</time></trkpt><trkpt lat="40.6819073" lon="9.2918631"><ele>908.0</ele><time>2026-04-12T13:24:16.036Z</time></trkpt><trkpt lat="40.6820273" lon="9.2918774"><ele>908.0</ele><time>2026-04-12T13:24:17.031Z</time></trkpt><trkpt lat="40.6821518" lon="9.291876"><ele>908.0</ele><time>2026-04-12T13:24:18.031Z</time></trkpt><trkpt lat="40.6822795" lon="9.2918609"><ele>908.75</ele><time>2026-04-12T13:24:19.052Z</time></trkpt><trkpt lat="40.6824098" lon="9.2918469"><ele>909.5</ele><time>2026-04-12T13:24:20.032Z</time></trkpt><trkpt lat="40.6825397" lon="9.2918299"><ele>910.25</ele><time>2026-04-12T13:24:21.037Z</time></trkpt><trkpt lat="40.6826637" lon="9.291816"><ele>911.0</ele><time>2026-04-12T13:24:22.035Z</time></trkpt><trkpt lat="40.6827787" lon="9.2918122"><ele>913.1999999999999</ele><time>2026-04-12T13:24:23.031Z</time></trkpt><trkpt lat="40.6828869" lon="9.2918057"><ele>915.3999999999999</ele><time>2026-04-12T13:24:24.034Z</time></trkpt><trkpt lat="40.6829938" lon="9.2917956"><ele>917.6</ele><time>2026-04-12T13:24:25.031Z</time></trkpt><trkpt lat="40.6831005" lon="9.2917811"><ele>919.8</ele><time>2026-04-12T13:24:26.052Z</time></trkpt><trkpt lat="40.6832085" lon="9.2917804"><ele>922.0</ele><time>2026-04-12T13:24:27.041Z</time></trkpt><trkpt lat="40.68331" lon="9.2917974"><ele>922.0</ele><time>2026-04-12T13:24:28.042Z</time></trkpt><trkpt lat="40.6834083" lon="9.2918285"><ele>922.0</ele><time>2026-04-12T13:24:29.04Z</time></trkpt><trkpt lat="40.6835075" lon="9.2918594"><ele>922.0</ele><time>2026-04-12T13:24:30.046Z</time></trkpt><trkpt lat="40.6836067" lon="9.2918857"><ele>922.0</ele><time>2026-04-12T13:24:31.04Z</time></trkpt><trkpt lat="40.6837046" lon="9.2919189"><ele>922.0</ele><time>2026-04-12T13:24:32.049Z</time></trkpt><trkpt lat="40.6838021" lon="9.2919639"><ele>924.6</ele><time>2026-04-12T13:24:33.054Z</time></trkpt><trkpt lat="40.6838953" lon="9.2920064"><ele>927.2</ele><time>2026-04-12T13:24:34.055Z</time></trkpt><trkpt lat="40.683995" lon="9.2920375"><ele>929.8</ele><time>2026-04-12T13:24:35.039Z</time></trkpt><trkpt lat="40.6840978" lon="9.2920596"><ele>932.4</ele><time>2026-04-12T13:24:36.042Z</time></trkpt><trkpt lat="40.6842024" lon="9.292069"><ele>935.0</ele><time>2026-04-12T13:24:37.037Z</time></trkpt><trkpt lat="40.6843081" lon="9.2920681"><ele>935.0</ele><time>2026-04-12T13:24:38.055Z</time></trkpt><trkpt lat="40.6844145" lon="9.2920627"><ele>935.0</ele><time>2026-04-12T13:24:39.036Z</time></trkpt><trkpt lat="40.6845282" lon="9.2920537"><ele>935.0</ele><time>2026-04-12T13:24:40.046Z</time></trkpt><trkpt lat="40.6847645" lon="9.2920619"><ele>936.75</ele><time>2026-04-12T13:24:41.932Z</time></trkpt><trkpt lat="40.684885" lon="9.2920767"><ele>938.5</ele><time>2026-04-12T13:24:42.952Z</time></trkpt><trkpt lat="40.6850038" lon="9.2920871"><ele>940.25</ele><time>2026-04-12T13:24:43.937Z</time></trkpt><trkpt lat="40.6851161" lon="9.2920831"><ele>942.0</ele><time>2026-04-12T13:24:44.955Z</time></trkpt><trkpt lat="40.6852197" lon="9.2920528"><ele>942.0</ele><time>2026-04-12T13:24:45.95Z</time></trkpt><trkpt lat="40.6853219" lon="9.2920177"><ele>942.0</ele><time>2026-04-12T13:24:46.945Z</time></trkpt><trkpt lat="40.6854193" lon="9.2919898"><ele>942.0</ele><time>2026-04-12T13:24:47.935Z</time></trkpt><trkpt lat="40.6855166" lon="9.2919583"><ele>942.0</ele><time>2026-04-12T13:24:48.939Z</time></trkpt><trkpt lat="40.6856167" lon="9.2919173"><ele>942.0</ele><time>2026-04-12T13:24:49.938Z</time></trkpt><trkpt lat="40.6857203" lon="9.2918706"><ele>942.0</ele><time>2026-04-12T13:24:50.951Z</time></trkpt><trkpt lat="40.6858245" lon="9.2918219"><ele>942.0</ele><time>2026-04-12T13:24:51.958Z</time></trkpt><trkpt lat="40.6859361" lon="9.2917738"><ele>942.0</ele><time>2026-04-12T13:24:52.943Z</time></trkpt><trkpt lat="40.6860474" lon="9.2917235"><ele>942.0</ele><time>2026-04-12T13:24:53.949Z</time></trkpt><trkpt lat="40.6861628" lon="9.2916752"><ele>941.4000000000001</ele><time>2026-04-12T13:24:54.945Z</time></trkpt><trkpt lat="40.6862761" lon="9.2916247"><ele>940.8000000000001</ele><time>2026-04-12T13:24:55.958Z</time></trkpt><trkpt lat="40.6863835" lon="9.2915668"><ele>940.2</ele><time>2026-04-12T13:24:56.952Z</time></trkpt><trkpt lat="40.6864705" lon="9.2914873"><ele>939.6</ele><time>2026-04-12T13:24:57.952Z</time></trkpt><trkpt lat="40.6865396" lon="9.2913847"><ele>939.0</ele><time>2026-04-12T13:24:58.956Z</time></trkpt><trkpt lat="40.686597" lon="9.2912663"><ele>940.4000000000001</ele><time>2026-04-12T13:24:59.938Z</time></trkpt><trkpt lat="40.6866436" lon="9.2911413"><ele>941.8000000000001</ele><time>2026-04-12T13:25:00.956Z</time></trkpt><trkpt lat="40.6866811" lon="9.2910093"><ele>943.1999999999999</ele><time>2026-04-12T13:25:01.935Z</time></trkpt><trkpt lat="40.6867134" lon="9.2908697"><ele>944.5999999999999</ele><time>2026-04-12T13:25:02.957Z</time></trkpt><trkpt lat="40.6867304" lon="9.2907259"><ele>946.0</ele><time>2026-04-12T13:25:03.938Z</time></trkpt><trkpt lat="40.6867392" lon="9.2905822"><ele>946.1999999999999</ele><time>2026-04-12T13:25:04.948Z</time></trkpt><trkpt lat="40.6867384" lon="9.290439"><ele>946.3999999999999</ele><time>2026-04-12T13:25:05.937Z</time></trkpt><trkpt lat="40.6867288" lon="9.290297"><ele>946.6</ele><time>2026-04-12T13:25:06.952Z</time></trkpt><trkpt lat="40.6867152" lon="9.2901566"><ele>946.8</ele><time>2026-04-12T13:25:07.94Z</time></trkpt><trkpt lat="40.6866992" lon="9.2900186"><ele>947.0</ele><time>2026-04-12T13:25:08.942Z</time></trkpt><trkpt lat="40.6866857" lon="9.2898743"><ele>947.25</ele><time>2026-04-12T13:25:09.946Z</time></trkpt><trkpt lat="40.6866745" lon="9.2897279"><ele>947.5</ele><time>2026-04-12T13:25:10.94Z</time></trkpt><trkpt lat="40.6866737" lon="9.2895744"><ele>947.75</ele><time>2026-04-12T13:25:11.954Z</time></trkpt><trkpt lat="40.6866865" lon="9.2894186"><ele>948.0</ele><time>2026-04-12T13:25:12.947Z</time></trkpt><trkpt lat="40.6867034" lon="9.2892722"><ele>948.0</ele><time>2026-04-12T13:25:13.948Z</time></trkpt><trkpt lat="40.6867204" lon="9.2891226"><ele>948.0</ele><time>2026-04-12T13:25:14.956Z</time></trkpt><trkpt lat="40.6867396" lon="9.2889771"><ele>948.0</ele><time>2026-04-12T13:25:15.948Z</time></trkpt><trkpt lat="40.6867668" lon="9.2888341"><ele>948.0</ele><time>2026-04-12T13:25:16.948Z</time></trkpt><trkpt lat="40.6868081" lon="9.288694"><ele>947.5999999999999</ele><time>2026-04-12T13:25:17.951Z</time></trkpt><trkpt lat="40.6868568" lon="9.2885563"><ele>947.1999999999999</ele><time>2026-04-12T13:25:18.961Z</time></trkpt><trkpt lat="40.6869118" lon="9.2884275"><ele>946.8</ele><time>2026-04-12T13:25:19.951Z</time></trkpt><trkpt lat="40.6869636" lon="9.2883011"><ele>946.4</ele><time>2026-04-12T13:25:20.945Z</time></trkpt><trkpt lat="40.6870193" lon="9.2881751"><ele>946.0</ele><time>2026-04-12T13:25:21.951Z</time></trkpt><trkpt lat="40.6870733" lon="9.2880488"><ele>946.8</ele><time>2026-04-12T13:25:22.963Z</time></trkpt><trkpt lat="40.6871249" lon="9.2879152"><ele>947.5999999999999</ele><time>2026-04-12T13:25:23.949Z</time></trkpt><trkpt lat="40.6871704" lon="9.2877826"><ele>948.4</ele><time>2026-04-12T13:25:24.945Z</time></trkpt><trkpt lat="40.6872142" lon="9.2876646"><ele>949.2</ele><time>2026-04-12T13:25:25.952Z</time></trkpt><trkpt lat="40.6872656" lon="9.2875588"><ele>950.0</ele><time>2026-04-12T13:25:26.964Z</time></trkpt><trkpt lat="40.6873273" lon="9.2874677"><ele>950.0000000000001</ele><time>2026-04-12T13:25:27.959Z</time></trkpt><trkpt lat="40.6873991" lon="9.2873903"><ele>950.0</ele><time>2026-04-12T13:25:28.95Z</time></trkpt><trkpt lat="40.6874765" lon="9.2873472"><ele>950.0</ele><time>2026-04-12T13:25:29.946Z</time></trkpt><trkpt lat="40.6875609" lon="9.287339"><ele>950.0</ele><time>2026-04-12T13:25:30.948Z</time></trkpt><trkpt lat="40.6876472" lon="9.2873554"><ele>950.0000000000001</ele><time>2026-04-12T13:25:31.957Z</time></trkpt><trkpt lat="40.687736" lon="9.2873953"><ele>950.0</ele><time>2026-04-12T13:25:32.967Z</time></trkpt><trkpt lat="40.6878305" lon="9.2874351"><ele>950.2</ele><time>2026-04-12T13:25:33.966Z</time></trkpt><trkpt lat="40.6879219" lon="9.2874501"><ele>950.4</ele><time>2026-04-12T13:25:34.957Z</time></trkpt><trkpt lat="40.6880135" lon="9.2874426"><ele>950.5999999999999</ele><time>2026-04-12T13:25:35.97Z</time></trkpt><trkpt lat="40.688109" lon="9.2874289"><ele>950.8</ele><time>2026-04-12T13:25:36.978Z</time></trkpt><trkpt lat="40.6882082" lon="9.2874214"><ele>951.0</ele><time>2026-04-12T13:25:37.965Z</time></trkpt><trkpt lat="40.6883082" lon="9.2874172"><ele>951.0</ele><time>2026-04-12T13:25:38.967Z</time></trkpt><trkpt lat="40.6884096" lon="9.2874257"><ele>950.9999999999999</ele><time>2026-04-12T13:25:39.976Z</time></trkpt><trkpt lat="40.6885114" lon="9.2874432"><ele>950.9999999999999</ele><time>2026-04-12T13:25:40.995Z</time></trkpt><trkpt lat="40.6886122" lon="9.2874856"><ele>951.0</ele><time>2026-04-12T13:25:41.964Z</time></trkpt><trkpt lat="40.6887049" lon="9.2875482"><ele>951.0</ele><time>2026-04-12T13:25:42.981Z</time></trkpt><trkpt lat="40.6887917" lon="9.2876246"><ele>951.0</ele><time>2026-04-12T13:25:43.98Z</time></trkpt><trkpt lat="40.6888692" lon="9.2877189"><ele>950.9999999999999</ele><time>2026-04-12T13:25:44.982Z</time></trkpt><trkpt lat="40.6889425" lon="9.2878194"><ele>950.9999999999999</ele><time>2026-04-12T13:25:45.975Z</time></trkpt><trkpt lat="40.6890119" lon="9.287921"><ele>951.0</ele><time>2026-04-12T13:25:46.989Z</time></trkpt><trkpt lat="40.6890787" lon="9.2880209"><ele>951.0</ele><time>2026-04-12T13:25:47.972Z</time></trkpt><trkpt lat="40.6891356" lon="9.2881327"><ele>951.0</ele><time>2026-04-12T13:25:48.975Z</time></trkpt><trkpt lat="40.6891806" lon="9.2882596"><ele>950.9999999999999</ele><time>2026-04-12T13:25:49.966Z</time></trkpt><trkpt lat="40.6892136" lon="9.28839"><ele>950.9999999999999</ele><time>2026-04-12T13:25:50.963Z</time></trkpt><trkpt lat="40.6892468" lon="9.2885148"><ele>951.0</ele><time>2026-04-12T13:25:51.979Z</time></trkpt><trkpt lat="40.6892905" lon="9.2886211"><ele>951.0</ele><time>2026-04-12T13:25:52.991Z</time></trkpt><trkpt lat="40.6893523" lon="9.2887138"><ele>951.1999999999999</ele><time>2026-04-12T13:25:53.993Z</time></trkpt><trkpt lat="40.6894337" lon="9.288791"><ele>951.3999999999999</ele><time>2026-04-12T13:25:54.966Z</time></trkpt><trkpt lat="40.689517" lon="9.2888544"><ele>951.6</ele><time>2026-04-12T13:25:55.969Z</time></trkpt><trkpt lat="40.6896029" lon="9.2889186"><ele>951.8</ele><time>2026-04-12T13:25:56.973Z</time></trkpt><trkpt lat="40.6896923" lon="9.2889875"><ele>952.0</ele><time>2026-04-12T13:25:57.972Z</time></trkpt><trkpt lat="40.6897804" lon="9.2890619"><ele>953.2</ele><time>2026-04-12T13:25:58.975Z</time></trkpt><trkpt lat="40.6898635" lon="9.2891445"><ele>954.4000000000001</ele><time>2026-04-12T13:25:59.975Z</time></trkpt><trkpt lat="40.6899399" lon="9.2892346"><ele>955.5999999999999</ele><time>2026-04-12T13:26:00.965Z</time></trkpt><trkpt lat="40.690013" lon="9.2893158"><ele>956.8</ele><time>2026-04-12T13:26:01.978Z</time></trkpt><trkpt lat="40.6900916" lon="9.2893878"><ele>958.0</ele><time>2026-04-12T13:26:02.975Z</time></trkpt><trkpt lat="40.6901667" lon="9.2894526"><ele>958.0</ele><time>2026-04-12T13:26:03.97Z</time></trkpt><trkpt lat="40.6902361" lon="9.2895272"><ele>958.0</ele><time>2026-04-12T13:26:04.98Z</time></trkpt><trkpt lat="40.6903059" lon="9.2896091"><ele>958.0</ele><time>2026-04-12T13:26:05.965Z</time></trkpt><trkpt lat="40.6903756" lon="9.2896982"><ele>958.0</ele><time>2026-04-12T13:26:06.962Z</time></trkpt><trkpt lat="40.6904462" lon="9.2897881"><ele>958.0</ele><time>2026-04-12T13:26:07.976Z</time></trkpt><trkpt lat="40.6905177" lon="9.2898863"><ele>960.5</ele><time>2026-04-12T13:26:08.959Z</time></trkpt><trkpt lat="40.6905871" lon="9.2899902"><ele>963.0</ele><time>2026-04-12T13:26:09.963Z</time></trkpt><trkpt lat="40.6906552" lon="9.2900928"><ele>965.5</ele><time>2026-04-12T13:26:10.966Z</time></trkpt><trkpt lat="40.690725" lon="9.290196"><ele>968.0</ele><time>2026-04-12T13:26:12.066Z</time></trkpt><trkpt lat="40.690862" lon="9.2904086"><ele>968.0</ele><time>2026-04-12T13:26:13.967Z</time></trkpt><trkpt lat="40.6909336" lon="9.2905159"><ele>968.0</ele><time>2026-04-12T13:26:14.972Z</time></trkpt><trkpt lat="40.6910093" lon="9.2906288"><ele>968.0</ele><time>2026-04-12T13:26:15.972Z</time></trkpt><trkpt lat="40.6910872" lon="9.2907385"><ele>968.0</ele><time>2026-04-12T13:26:16.955Z</time></trkpt><trkpt lat="40.6911648" lon="9.290843"><ele>968.0</ele><time>2026-04-12T13:26:17.954Z</time></trkpt><trkpt lat="40.6912383" lon="9.2909345"><ele>970.3333333333334</ele><time>2026-04-12T13:26:18.96Z</time></trkpt><trkpt lat="40.6913053" lon="9.2910067"><ele>972.6666666666667</ele><time>2026-04-12T13:26:19.96Z</time></trkpt><trkpt lat="40.6913678" lon="9.2910854"><ele>975.0</ele><time>2026-04-12T13:26:20.979Z</time></trkpt><trkpt lat="40.6914252" lon="9.2911753"><ele>977.3333333333333</ele><time>2026-04-12T13:26:21.966Z</time></trkpt><trkpt lat="40.6914789" lon="9.2912729"><ele>979.6666666666666</ele><time>2026-04-12T13:26:22.974Z</time></trkpt><trkpt lat="40.6915254" lon="9.2913713"><ele>982.0</ele><time>2026-04-12T13:26:23.969Z</time></trkpt><trkpt lat="40.6915614" lon="9.2914744"><ele>982.6</ele><time>2026-04-12T13:26:24.961Z</time></trkpt><trkpt lat="40.6916014" lon="9.2915787"><ele>983.2</ele><time>2026-04-12T13:26:25.96Z</time></trkpt><trkpt lat="40.6916494" lon="9.2916803"><ele>983.8</ele><time>2026-04-12T13:26:26.97Z</time></trkpt><trkpt lat="40.691712" lon="9.2917786"><ele>984.4</ele><time>2026-04-12T13:26:27.964Z</time></trkpt><trkpt lat="40.6917853" lon="9.2918661"><ele>985.0</ele><time>2026-04-12T13:26:28.964Z</time></trkpt><trkpt lat="40.6918707" lon="9.2919497"><ele>985.8</ele><time>2026-04-12T13:26:29.978Z</time></trkpt><trkpt lat="40.6919628" lon="9.2920303"><ele>986.6</ele><time>2026-04-12T13:26:30.963Z</time></trkpt><trkpt lat="40.6920475" lon="9.2921096"><ele>987.4000000000001</ele><time>2026-04-12T13:26:31.97Z</time></trkpt><trkpt lat="40.6921225" lon="9.2921882"><ele>988.2</ele><time>2026-04-12T13:26:32.96Z</time></trkpt><trkpt lat="40.6921906" lon="9.2922717"><ele>989.0</ele><time>2026-04-12T13:26:33.971Z</time></trkpt><trkpt lat="40.6922466" lon="9.2923722"><ele>989.0</ele><time>2026-04-12T13:26:34.959Z</time></trkpt><trkpt lat="40.6922922" lon="9.2924847"><ele>989.0000000000001</ele><time>2026-04-12T13:26:35.958Z</time></trkpt><trkpt lat="40.6923299" lon="9.292606"><ele>989.0000000000001</ele><time>2026-04-12T13:26:36.972Z</time></trkpt><trkpt lat="40.6923634" lon="9.2927368"><ele>989.0</ele><time>2026-04-12T13:26:37.967Z</time></trkpt><trkpt lat="40.6923911" lon="9.2928612"><ele>989.0</ele><time>2026-04-12T13:26:38.969Z</time></trkpt><trkpt lat="40.6924092" lon="9.2929752"><ele>989.0</ele><time>2026-04-12T13:26:39.966Z</time></trkpt><trkpt lat="40.6924087" lon="9.2930849"><ele>989.0000000000001</ele><time>2026-04-12T13:26:40.972Z</time></trkpt><trkpt lat="40.6923895" lon="9.2932013"><ele>989.0000000000001</ele><time>2026-04-12T13:26:41.962Z</time></trkpt><trkpt lat="40.6923507" lon="9.2933168"><ele>989.0</ele><time>2026-04-12T13:26:42.982Z</time></trkpt><trkpt lat="40.6922958" lon="9.2934257"><ele>989.0</ele><time>2026-04-12T13:26:43.969Z</time></trkpt><trkpt lat="40.6922326" lon="9.2935302"><ele>989.8000000000001</ele><time>2026-04-12T13:26:44.971Z</time></trkpt><trkpt lat="40.6921615" lon="9.2936327"><ele>990.6000000000001</ele><time>2026-04-12T13:26:45.977Z</time></trkpt><trkpt lat="40.6920839" lon="9.2937308"><ele>991.4</ele><time>2026-04-12T13:26:46.989Z</time></trkpt><trkpt lat="40.6919992" lon="9.2938184"><ele>992.2</ele><time>2026-04-12T13:26:47.982Z</time></trkpt><trkpt lat="40.6919195" lon="9.2938814"><ele>993.0</ele><time>2026-04-12T13:26:48.985Z</time></trkpt><trkpt lat="40.6918562" lon="9.2939413"><ele>993.5714285714286</ele><time>2026-04-12T13:26:49.973Z</time></trkpt><trkpt lat="40.6918119" lon="9.2940044"><ele>994.1428571428571</ele><time>2026-04-12T13:26:50.971Z</time></trkpt><trkpt lat="40.6917883" lon="9.2940847"><ele>994.7142857142857</ele><time>2026-04-12T13:26:51.976Z</time></trkpt><trkpt lat="40.6917822" lon="9.2941702"><ele>995.2857142857142</ele><time>2026-04-12T13:26:53.007Z</time></trkpt><trkpt lat="40.6918001" lon="9.2942556"><ele>995.8571428571429</ele><time>2026-04-12T13:26:53.994Z</time></trkpt><trkpt lat="40.6918447" lon="9.2943418"><ele>996.4285714285713</ele><time>2026-04-12T13:26:54.978Z</time></trkpt><trkpt lat="40.6919066" lon="9.2944283"><ele>996.9999999999999</ele><time>2026-04-12T13:26:55.997Z</time></trkpt><trkpt lat="40.6919834" lon="9.2945068"><ele>997.0</ele><time>2026-04-12T13:26:56.986Z</time></trkpt><trkpt lat="40.6920672" lon="9.294585"><ele>997.0</ele><time>2026-04-12T13:26:57.973Z</time></trkpt><trkpt lat="40.6921581" lon="9.2946568"><ele>997.0</ele><time>2026-04-12T13:26:58.99Z</time></trkpt><trkpt lat="40.6922652" lon="9.2947144"><ele>997.0</ele><time>2026-04-12T13:26:59.975Z</time></trkpt><trkpt lat="40.692382" lon="9.2947468"><ele>997.0</ele><time>2026-04-12T13:27:00.989Z</time></trkpt><trkpt lat="40.6925053" lon="9.2947691"><ele>999.5</ele><time>2026-04-12T13:27:01.975Z</time></trkpt><trkpt lat="40.6926331" lon="9.2947917"><ele>1002.0</ele><time>2026-04-12T13:27:02.976Z</time></trkpt><trkpt lat="40.6927636" lon="9.2948064"><ele>1004.5</ele><time>2026-04-12T13:27:03.983Z</time></trkpt><trkpt lat="40.69289" lon="9.2948184"><ele>1007.0</ele><time>2026-04-12T13:27:04.988Z</time></trkpt><trkpt lat="40.6930143" lon="9.2948325"><ele>1007.0</ele><time>2026-04-12T13:27:05.98Z</time></trkpt><trkpt lat="40.6931347" lon="9.2948601"><ele>1007.0</ele><time>2026-04-12T13:27:06.976Z</time></trkpt><trkpt lat="40.6932518" lon="9.2948962"><ele>1007.0</ele><time>2026-04-12T13:27:07.997Z</time></trkpt><trkpt lat="40.6933583" lon="9.2949465"><ele>1007.0</ele><time>2026-04-12T13:27:08.99Z</time></trkpt><trkpt lat="40.6934547" lon="9.2950048"><ele>1007.0</ele><time>2026-04-12T13:27:09.982Z</time></trkpt><trkpt lat="40.6935575" lon="9.295071"><ele>1007.0</ele><time>2026-04-12T13:27:11.016Z</time></trkpt><trkpt lat="40.6936664" lon="9.295126"><ele>1007.0</ele><time>2026-04-12T13:27:11.992Z</time></trkpt><trkpt lat="40.6937826" lon="9.2951702"><ele>1007.0</ele><time>2026-04-12T13:27:12.979Z</time></trkpt><trkpt lat="40.69389" lon="9.2952282"><ele>1006.75</ele><time>2026-04-12T13:27:13.992Z</time></trkpt><trkpt lat="40.6939943" lon="9.2952891"><ele>1006.5</ele><time>2026-04-12T13:27:15Z</time></trkpt><trkpt lat="40.6941072" lon="9.2953409"><ele>1006.25</ele><time>2026-04-12T13:27:16.001Z</time></trkpt><trkpt lat="40.6942224" lon="9.2953871"><ele>1006.0</ele><time>2026-04-12T13:27:16.968Z</time></trkpt><trkpt lat="40.694337" lon="9.2954331"><ele>1005.8</ele><time>2026-04-12T13:27:18.002Z</time></trkpt><trkpt lat="40.6944481" lon="9.2954785"><ele>1005.5999999999999</ele><time>2026-04-12T13:27:18.987Z</time></trkpt><trkpt lat="40.6945488" lon="9.2955325"><ele>1005.4</ele><time>2026-04-12T13:27:19.978Z</time></trkpt><trkpt lat="40.6946395" lon="9.2955837"><ele>1005.2</ele><time>2026-04-12T13:27:20.98Z</time></trkpt><trkpt lat="40.6947224" lon="9.2956299"><ele>1005.0</ele><time>2026-04-12T13:27:21.972Z</time></trkpt><trkpt lat="40.6948069" lon="9.2956621"><ele>1005.0</ele><time>2026-04-12T13:27:22.989Z</time></trkpt><trkpt lat="40.6948913" lon="9.2956869"><ele>1005.0</ele><time>2026-04-12T13:27:23.98Z</time></trkpt><trkpt lat="40.694975" lon="9.2957071"><ele>1005.0</ele><time>2026-04-12T13:27:24.972Z</time></trkpt><trkpt lat="40.6950582" lon="9.2957174"><ele>1005.0</ele><time>2026-04-12T13:27:25.983Z</time></trkpt><trkpt lat="40.6951415" lon="9.2957264"><ele>1005.0</ele><time>2026-04-12T13:27:26.974Z</time></trkpt><trkpt lat="40.6952238" lon="9.2957422"><ele>1005.0</ele><time>2026-04-12T13:27:27.992Z</time></trkpt><trkpt lat="40.6953085" lon="9.2957577"><ele>1004.0</ele><time>2026-04-12T13:27:28.972Z</time></trkpt><trkpt lat="40.6953962" lon="9.2957794"><ele>1003.0</ele><time>2026-04-12T13:27:29.979Z</time></trkpt><trkpt lat="40.6954885" lon="9.2958039"><ele>1002.0</ele><time>2026-04-12T13:27:30.973Z</time></trkpt><trkpt lat="40.695577" lon="9.2958324"><ele>1001.0</ele><time>2026-04-12T13:27:31.985Z</time></trkpt><trkpt lat="40.6956613" lon="9.2958594"><ele>1000.0</ele><time>2026-04-12T13:27:32.984Z</time></trkpt><trkpt lat="40.6957412" lon="9.2958872"><ele>999.0</ele><time>2026-04-12T13:27:33.98Z</time></trkpt><trkpt lat="40.6958192" lon="9.2959105"><ele>999.0</ele><time>2026-04-12T13:27:34.971Z</time></trkpt><trkpt lat="40.6959016" lon="9.2959288"><ele>999.0000000000001</ele><time>2026-04-12T13:27:35.983Z</time></trkpt><trkpt lat="40.6959887" lon="9.2959455"><ele>999.0000000000001</ele><time>2026-04-12T13:27:36.978Z</time></trkpt><trkpt lat="40.6960812" lon="9.2959641"><ele>999.0</ele><time>2026-04-12T13:27:37.983Z</time></trkpt><trkpt lat="40.696177" lon="9.2959838"><ele>999.0</ele><time>2026-04-12T13:27:38.978Z</time></trkpt><trkpt lat="40.6962706" lon="9.2959975"><ele>997.4000000000001</ele><time>2026-04-12T13:27:39.978Z</time></trkpt><trkpt lat="40.6963656" lon="9.2960008"><ele>995.8000000000001</ele><time>2026-04-12T13:27:40.975Z</time></trkpt><trkpt lat="40.6964614" lon="9.2959992"><ele>994.1999999999999</ele><time>2026-04-12T13:27:41.986Z</time></trkpt><trkpt lat="40.696554" lon="9.2959921"><ele>992.5999999999999</ele><time>2026-04-12T13:27:43.002Z</time></trkpt><trkpt lat="40.6966459" lon="9.2959859"><ele>991.0</ele><time>2026-04-12T13:27:43.977Z</time></trkpt><trkpt lat="40.6967365" lon="9.2959948"><ele>990.9999999999999</ele><time>2026-04-12T13:27:44.972Z</time></trkpt><trkpt lat="40.696823" lon="9.2960422"><ele>991.0</ele><time>2026-04-12T13:27:45.996Z</time></trkpt><trkpt lat="40.6968913" lon="9.2961134"><ele>991.0</ele><time>2026-04-12T13:27:46.994Z</time></trkpt><trkpt lat="40.6969537" lon="9.2961827"><ele>991.0</ele><time>2026-04-12T13:27:47.985Z</time></trkpt><trkpt lat="40.6970214" lon="9.2962251"><ele>990.9999999999999</ele><time>2026-04-12T13:27:48.976Z</time></trkpt><trkpt lat="40.6970918" lon="9.2962429"><ele>991.0</ele><time>2026-04-12T13:27:49.994Z</time></trkpt><trkpt lat="40.6971717" lon="9.2962417"><ele>987.8</ele><time>2026-04-12T13:27:51.004Z</time></trkpt><trkpt lat="40.697263" lon="9.2962334"><ele>984.5999999999999</ele><time>2026-04-12T13:27:51.987Z</time></trkpt><trkpt lat="40.6973587" lon="9.2962185"><ele>981.4</ele><time>2026-04-12T13:27:53.01Z</time></trkpt><trkpt lat="40.6974493" lon="9.296183"><ele>978.2</ele><time>2026-04-12T13:27:53.989Z</time></trkpt><trkpt lat="40.6975331" lon="9.2961282"><ele>975.0</ele><time>2026-04-12T13:27:54.975Z</time></trkpt><trkpt lat="40.6976093" lon="9.2960703"><ele>975.0</ele><time>2026-04-12T13:27:55.991Z</time></trkpt><trkpt lat="40.6976896" lon="9.2960261"><ele>975.0</ele><time>2026-04-12T13:27:56.997Z</time></trkpt><trkpt lat="40.6977621" lon="9.2959749"><ele>975.0</ele><time>2026-04-12T13:27:57.98Z</time></trkpt><trkpt lat="40.6978172" lon="9.2959098"><ele>975.0</ele><time>2026-04-12T13:27:58.975Z</time></trkpt><trkpt lat="40.6978714" lon="9.2958326"><ele>975.0</ele><time>2026-04-12T13:27:59.989Z</time></trkpt><trkpt lat="40.6979222" lon="9.2957501"><ele>975.0</ele><time>2026-04-12T13:28:00.979Z</time></trkpt><trkpt lat="40.6979719" lon="9.2956719"><ele>973.0</ele><time>2026-04-12T13:28:01.989Z</time></trkpt><trkpt lat="40.6980131" lon="9.2956016"><ele>971.0</ele><time>2026-04-12T13:28:02.987Z</time></trkpt><trkpt lat="40.6980534" lon="9.2955372"><ele>969.0</ele><time>2026-04-12T13:28:03.996Z</time></trkpt><trkpt lat="40.698143" lon="9.2954325"><ele>967.0</ele><time>2026-04-12T13:28:05.976Z</time></trkpt><trkpt lat="40.6982454" lon="9.2953917"><ele>965.0</ele><time>2026-04-12T13:28:07.981Z</time></trkpt><trkpt lat="40.6983147" lon="9.2954059"><ele>963.0</ele><time>2026-04-12T13:28:08.995Z</time></trkpt><trkpt lat="40.6983895" lon="9.295438"><ele>960.8333333333334</ele><time>2026-04-12T13:28:09.977Z</time></trkpt><trkpt lat="40.6984686" lon="9.2954707"><ele>958.6666666666667</ele><time>2026-04-12T13:28:10.979Z</time></trkpt><trkpt lat="40.698549" lon="9.2954942"><ele>956.5</ele><time>2026-04-12T13:28:11.979Z</time></trkpt><trkpt lat="40.6986332" lon="9.2955061"><ele>954.3333333333334</ele><time>2026-04-12T13:28:12.983Z</time></trkpt><trkpt lat="40.6987202" lon="9.2955077"><ele>952.1666666666667</ele><time>2026-04-12T13:28:13.985Z</time></trkpt><trkpt lat="40.6988102" lon="9.295517"><ele>950.0</ele><time>2026-04-12T13:28:14.979Z</time></trkpt><trkpt lat="40.6988932" lon="9.2955514"><ele>950.3333333333334</ele><time>2026-04-12T13:28:15.991Z</time></trkpt><trkpt lat="40.6989741" lon="9.2955986"><ele>950.6666666666667</ele><time>2026-04-12T13:28:16.979Z</time></trkpt><trkpt lat="40.6990494" lon="9.2956548"><ele>951.0</ele><time>2026-04-12T13:28:17.991Z</time></trkpt><trkpt lat="40.6991273" lon="9.2957075"><ele>951.3333333333333</ele><time>2026-04-12T13:28:19.01Z</time></trkpt><trkpt lat="40.6992089" lon="9.2957597"><ele>951.6666666666666</ele><time>2026-04-12T13:28:19.995Z</time></trkpt><trkpt lat="40.6992964" lon="9.295806"><ele>952.0</ele><time>2026-04-12T13:28:21.007Z</time></trkpt><trkpt lat="40.6993863" lon="9.2958545"><ele>951.0</ele><time>2026-04-12T13:28:21.982Z</time></trkpt><trkpt lat="40.6994745" lon="9.2959029"><ele>950.0</ele><time>2026-04-12T13:28:22.983Z</time></trkpt><trkpt lat="40.6995534" lon="9.2959596"><ele>949.0</ele><time>2026-04-12T13:28:24.012Z</time></trkpt><trkpt lat="40.69963" lon="9.2960158"><ele>948.0</ele><time>2026-04-12T13:28:24.983Z</time></trkpt><trkpt lat="40.6997056" lon="9.2960729"><ele>947.0</ele><time>2026-04-12T13:28:25.997Z</time></trkpt><trkpt lat="40.6997836" lon="9.2961343"><ele>947.0000000000001</ele><time>2026-04-12T13:28:26.988Z</time></trkpt><trkpt lat="40.6998572" lon="9.2961938"><ele>947.0</ele><time>2026-04-12T13:28:27.994Z</time></trkpt><trkpt lat="40.6999172" lon="9.2962589"><ele>947.0</ele><time>2026-04-12T13:28:28.987Z</time></trkpt><trkpt lat="40.6999655" lon="9.2963308"><ele>947.0</ele><time>2026-04-12T13:28:29.985Z</time></trkpt><trkpt lat="40.7000052" lon="9.2964114"><ele>947.0000000000001</ele><time>2026-04-12T13:28:30.988Z</time></trkpt><trkpt lat="40.7000407" lon="9.2964961"><ele>947.0</ele><time>2026-04-12T13:28:31.991Z</time></trkpt><trkpt lat="40.7000756" lon="9.2965844"><ele>947.1666666666667</ele><time>2026-04-12T13:28:33.002Z</time></trkpt><trkpt lat="40.7001079" lon="9.2966725"><ele>947.3333333333334</ele><time>2026-04-12T13:28:33.998Z</time></trkpt><trkpt lat="40.7001371" lon="9.2967503"><ele>947.5</ele><time>2026-04-12T13:28:34.988Z</time></trkpt><trkpt lat="40.7001719" lon="9.2968224"><ele>947.6666666666667</ele><time>2026-04-12T13:28:35.98Z</time></trkpt><trkpt lat="40.700271" lon="9.2969185"><ele>947.8333333333334</ele><time>2026-04-12T13:28:37.994Z</time></trkpt><trkpt lat="40.7003384" lon="9.2969406"><ele>948.0</ele><time>2026-04-12T13:28:38.981Z</time></trkpt><trkpt lat="40.7004215" lon="9.2969404"><ele>946.4</ele><time>2026-04-12T13:28:39.994Z</time></trkpt><trkpt lat="40.7005081" lon="9.2969365"><ele>944.8</ele><time>2026-04-12T13:28:41.007Z</time></trkpt><trkpt lat="40.7005974" lon="9.2969357"><ele>943.2</ele><time>2026-04-12T13:28:41.998Z</time></trkpt><trkpt lat="40.7006904" lon="9.2969392"><ele>941.6</ele><time>2026-04-12T13:28:42.999Z</time></trkpt><trkpt lat="40.7007832" lon="9.2969338"><ele>940.0</ele><time>2026-04-12T13:28:43.998Z</time></trkpt><trkpt lat="40.7008774" lon="9.2969221"><ele>940.0</ele><time>2026-04-12T13:28:44.988Z</time></trkpt><trkpt lat="40.7009723" lon="9.2969055"><ele>940.0</ele><time>2026-04-12T13:28:45.985Z</time></trkpt><trkpt lat="40.7010696" lon="9.2968917"><ele>940.0</ele><time>2026-04-12T13:28:46.987Z</time></trkpt><trkpt lat="40.7011743" lon="9.2968789"><ele>940.0</ele><time>2026-04-12T13:28:48.001Z</time></trkpt><trkpt lat="40.701284" lon="9.2968731"><ele>940.0</ele><time>2026-04-12T13:28:48.989Z</time></trkpt><trkpt lat="40.7013955" lon="9.2968644"><ele>935.75</ele><time>2026-04-12T13:28:49.99Z</time></trkpt><trkpt lat="40.7015089" lon="9.2968523"><ele>931.5</ele><time>2026-04-12T13:28:50.992Z</time></trkpt><trkpt lat="40.7016214" lon="9.2968353"><ele>927.25</ele><time>2026-04-12T13:28:51.997Z</time></trkpt><trkpt lat="40.7017357" lon="9.2968124"><ele>923.0</ele><time>2026-04-12T13:28:53.009Z</time></trkpt><trkpt lat="40.7018502" lon="9.2967841"><ele>919.75</ele><time>2026-04-12T13:28:53.991Z</time></trkpt><trkpt lat="40.7019661" lon="9.2967513"><ele>916.5</ele><time>2026-04-12T13:28:54.992Z</time></trkpt><trkpt lat="40.702082" lon="9.2967159"><ele>913.25</ele><time>2026-04-12T13:28:55.988Z</time></trkpt><trkpt lat="40.7021915" lon="9.2966742"><ele>910.0</ele><time>2026-04-12T13:28:57.006Z</time></trkpt><trkpt lat="40.7022927" lon="9.2966208"><ele>910.0</ele><time>2026-04-12T13:28:58.025Z</time></trkpt><trkpt lat="40.7023884" lon="9.2965575"><ele>910.0</ele><time>2026-04-12T13:28:59.009Z</time></trkpt><trkpt lat="40.7024817" lon="9.2964939"><ele>910.0</ele><time>2026-04-12T13:28:59.986Z</time></trkpt><trkpt lat="40.702566" lon="9.2964396"><ele>910.0</ele><time>2026-04-12T13:29:01.003Z</time></trkpt><trkpt lat="40.7026445" lon="9.2963872"><ele>910.0</ele><time>2026-04-12T13:29:01.997Z</time></trkpt><trkpt lat="40.7027194" lon="9.2963245"><ele>907.2</ele><time>2026-04-12T13:29:02.99Z</time></trkpt><trkpt lat="40.7027896" lon="9.2962391"><ele>904.4</ele><time>2026-04-12T13:29:04Z</time></trkpt><trkpt lat="40.7028448" lon="9.2961329"><ele>901.5999999999999</ele><time>2026-04-12T13:29:05.002Z</time></trkpt><trkpt lat="40.7028945" lon="9.2960208"><ele>898.8</ele><time>2026-04-12T13:29:05.991Z</time></trkpt><trkpt lat="40.7029365" lon="9.2959045"><ele>896.0</ele><time>2026-04-12T13:29:06.99Z</time></trkpt><trkpt lat="40.7029802" lon="9.2957909"><ele>896.0000000000001</ele><time>2026-04-12T13:29:08.007Z</time></trkpt><trkpt lat="40.7030268" lon="9.2956866"><ele>896.0</ele><time>2026-04-12T13:29:08.989Z</time></trkpt><trkpt lat="40.7030856" lon="9.2956057"><ele>896.0</ele><time>2026-04-12T13:29:09.989Z</time></trkpt><trkpt lat="40.7031557" lon="9.2955489"><ele>896.0</ele><time>2026-04-12T13:29:10.993Z</time></trkpt><trkpt lat="40.7032402" lon="9.2955189"><ele>896.0000000000001</ele><time>2026-04-12T13:29:11.996Z</time></trkpt><trkpt lat="40.7033336" lon="9.2955008"><ele>896.0</ele><time>2026-04-12T13:29:13.001Z</time></trkpt><trkpt lat="40.7034313" lon="9.2954959"><ele>894.0</ele><time>2026-04-12T13:29:14.005Z</time></trkpt><trkpt lat="40.7035239" lon="9.2954995"><ele>891.9999999999999</ele><time>2026-04-12T13:29:15.001Z</time></trkpt><trkpt lat="40.7036229" lon="9.2955149"><ele>889.9999999999999</ele><time>2026-04-12T13:29:15.993Z</time></trkpt><trkpt lat="40.7037274" lon="9.2955418"><ele>888.0</ele><time>2026-04-12T13:29:16.995Z</time></trkpt><trkpt lat="40.7038266" lon="9.295569"><ele>886.0</ele><time>2026-04-12T13:29:17.998Z</time></trkpt><trkpt lat="40.7039281" lon="9.2956034"><ele>886.0</ele><time>2026-04-12T13:29:19Z</time></trkpt><trkpt lat="40.7040292" lon="9.2956448"><ele>885.9999999999999</ele><time>2026-04-12T13:29:20.027Z</time></trkpt><trkpt lat="40.7041291" lon="9.2956858"><ele>885.9999999999999</ele><time>2026-04-12T13:29:21Z</time></trkpt><trkpt lat="40.7042307" lon="9.2957235"><ele>886.0</ele><time>2026-04-12T13:29:22.013Z</time></trkpt><trkpt lat="40.7043311" lon="9.2957615"><ele>886.0</ele><time>2026-04-12T13:29:22.999Z</time></trkpt><trkpt lat="40.7044255" lon="9.2957979"><ele>885.3333333333333</ele><time>2026-04-12T13:29:23.999Z</time></trkpt><trkpt lat="40.7045151" lon="9.2958333"><ele>884.6666666666666</ele><time>2026-04-12T13:29:24.999Z</time></trkpt><trkpt lat="40.7045993" lon="9.2958669"><ele>884.0</ele><time>2026-04-12T13:29:26.024Z</time></trkpt><trkpt lat="40.7046788" lon="9.2958911"><ele>883.3333333333333</ele><time>2026-04-12T13:29:26.995Z</time></trkpt><trkpt lat="40.7047593" lon="9.2959069"><ele>882.6666666666666</ele><time>2026-04-12T13:29:27.992Z</time></trkpt><trkpt lat="40.7048391" lon="9.2959188"><ele>882.0</ele><time>2026-04-12T13:29:29.002Z</time></trkpt><trkpt lat="40.7049189" lon="9.2959335"><ele>882.0</ele><time>2026-04-12T13:29:30.005Z</time></trkpt><trkpt lat="40.7050044" lon="9.2959496"><ele>882.0</ele><time>2026-04-12T13:29:31.002Z</time></trkpt><trkpt lat="40.7050904" lon="9.2959741"><ele>882.0</ele><time>2026-04-12T13:29:32.004Z</time></trkpt><trkpt lat="40.7051777" lon="9.2960093"><ele>882.0</ele><time>2026-04-12T13:29:32.999Z</time></trkpt><trkpt lat="40.7052609" lon="9.2960457"><ele>882.0</ele><time>2026-04-12T13:29:34.021Z</time></trkpt><trkpt lat="40.7053369" lon="9.2960859"><ele>882.0</ele><time>2026-04-12T13:29:35.006Z</time></trkpt><trkpt lat="40.7054116" lon="9.296133"><ele>881.8333333333334</ele><time>2026-04-12T13:29:36.01Z</time></trkpt><trkpt lat="40.7054849" lon="9.296188"><ele>881.6666666666667</ele><time>2026-04-12T13:29:37.026Z</time></trkpt><trkpt lat="40.7055588" lon="9.2962557"><ele>881.5</ele><time>2026-04-12T13:29:38.007Z</time></trkpt><trkpt lat="40.7056298" lon="9.296323"><ele>881.3333333333334</ele><time>2026-04-12T13:29:39.02Z</time></trkpt><trkpt lat="40.705698" lon="9.2963812"><ele>881.1666666666667</ele><time>2026-04-12T13:29:40.01Z</time></trkpt><trkpt lat="40.7057678" lon="9.2964401"><ele>881.0</ele><time>2026-04-12T13:29:41.01Z</time></trkpt><trkpt lat="40.7058323" lon="9.2964863"><ele>881.0000000000001</ele><time>2026-04-12T13:29:42.011Z</time></trkpt><trkpt lat="40.7059024" lon="9.296517"><ele>881.0</ele><time>2026-04-12T13:29:43.014Z</time></trkpt><trkpt lat="40.7059738" lon="9.2965308"><ele>881.0</ele><time>2026-04-12T13:29:44.005Z</time></trkpt><trkpt lat="40.7060469" lon="9.2965219"><ele>881.0</ele><time>2026-04-12T13:29:45.04Z</time></trkpt><trkpt lat="40.7061239" lon="9.2964888"><ele>881.0000000000001</ele><time>2026-04-12T13:29:46.009Z</time></trkpt><trkpt lat="40.7061996" lon="9.2964357"><ele>881.0</ele><time>2026-04-12T13:29:47.004Z</time></trkpt><trkpt lat="40.7062753" lon="9.2963836"><ele>879.0</ele><time>2026-04-12T13:29:48.004Z</time></trkpt><trkpt lat="40.7063469" lon="9.2963532"><ele>877.0</ele><time>2026-04-12T13:29:49.009Z</time></trkpt><trkpt lat="40.7064201" lon="9.2963536"><ele>875.0</ele><time>2026-04-12T13:29:50.001Z</time></trkpt><trkpt lat="40.7064874" lon="9.2963789"><ele>873.0</ele><time>2026-04-12T13:29:51.001Z</time></trkpt><trkpt lat="40.7065449" lon="9.2964242"><ele>871.0</ele><time>2026-04-12T13:29:52.006Z</time></trkpt><trkpt lat="40.7066001" lon="9.2964786"><ele>869.0</ele><time>2026-04-12T13:29:53.017Z</time></trkpt><trkpt lat="40.7066417" lon="9.2965613"><ele>867.0</ele><time>2026-04-12T13:29:54.016Z</time></trkpt><trkpt lat="40.706661" lon="9.2966473"><ele>867.0</ele><time>2026-04-12T13:29:55Z</time></trkpt><trkpt lat="40.7066644" lon="9.2967907"><ele>867.0</ele><time>2026-04-12T13:29:57.011Z</time></trkpt><trkpt lat="40.7066285" lon="9.2969292"><ele>867.0</ele><time>2026-04-12T13:29:59.008Z</time></trkpt><trkpt lat="40.7066156" lon="9.2970943"><ele>867.0</ele><time>2026-04-12T13:30:01.016Z</time></trkpt><trkpt lat="40.7066193" lon="9.2971887"><ele>867.0</ele><time>2026-04-12T13:30:02.016Z</time></trkpt><trkpt lat="40.7066327" lon="9.2972865"><ele>866.5</ele><time>2026-04-12T13:30:03.027Z</time></trkpt><trkpt lat="40.7066551" lon="9.2973859"><ele>866.0</ele><time>2026-04-12T13:30:04.013Z</time></trkpt><trkpt lat="40.7066801" lon="9.2974868"><ele>865.5</ele><time>2026-04-12T13:30:05.007Z</time></trkpt><trkpt lat="40.7067031" lon="9.297586"><ele>865.0</ele><time>2026-04-12T13:30:06.019Z</time></trkpt><trkpt lat="40.7067294" lon="9.2976856"><ele>864.5</ele><time>2026-04-12T13:30:07.013Z</time></trkpt><trkpt lat="40.7067589" lon="9.2977753"><ele>864.0</ele><time>2026-04-12T13:30:07.999Z</time></trkpt><trkpt lat="40.706786" lon="9.2978599"><ele>864.0</ele><time>2026-04-12T13:30:09.003Z</time></trkpt><trkpt lat="40.7068148" lon="9.2979451"><ele>864.0</ele><time>2026-04-12T13:30:10.007Z</time></trkpt><trkpt lat="40.7068539" lon="9.2980283"><ele>864.0</ele><time>2026-04-12T13:30:11.006Z</time></trkpt><trkpt lat="40.7069052" lon="9.2981047"><ele>864.0</ele><time>2026-04-12T13:30:12.001Z</time></trkpt><trkpt lat="40.706971" lon="9.2981657"><ele>864.0</ele><time>2026-04-12T13:30:13.021Z</time></trkpt><trkpt lat="40.7070484" lon="9.2982028"><ele>864.0</ele><time>2026-04-12T13:30:14.009Z</time></trkpt><trkpt lat="40.7071407" lon="9.2982247"><ele>861.3333333333334</ele><time>2026-04-12T13:30:15.018Z</time></trkpt><trkpt lat="40.7072347" lon="9.2982314"><ele>858.6666666666667</ele><time>2026-04-12T13:30:16.013Z</time></trkpt><trkpt lat="40.7073264" lon="9.298215"><ele>856.0</ele><time>2026-04-12T13:30:17.004Z</time></trkpt><trkpt lat="40.7074129" lon="9.2981908"><ele>853.3333333333334</ele><time>2026-04-12T13:30:18.002Z</time></trkpt><trkpt lat="40.7074883" lon="9.2981495"><ele>850.6666666666667</ele><time>2026-04-12T13:30:19.004Z</time></trkpt><trkpt lat="40.7075591" lon="9.2980977"><ele>848.0</ele><time>2026-04-12T13:30:20.017Z</time></trkpt><trkpt lat="40.7076278" lon="9.2980457"><ele>847.8333333333334</ele><time>2026-04-12T13:30:21.015Z</time></trkpt><trkpt lat="40.7076936" lon="9.2979884"><ele>847.6666666666667</ele><time>2026-04-12T13:30:22.002Z</time></trkpt><trkpt lat="40.7077617" lon="9.2979298"><ele>847.5</ele><time>2026-04-12T13:30:23.01Z</time></trkpt><trkpt lat="40.7078349" lon="9.2978729"><ele>847.3333333333333</ele><time>2026-04-12T13:30:24.005Z</time></trkpt><trkpt lat="40.7079153" lon="9.2978294"><ele>847.1666666666666</ele><time>2026-04-12T13:30:25.019Z</time></trkpt><trkpt lat="40.7079986" lon="9.2977991"><ele>847.0</ele><time>2026-04-12T13:30:26.013Z</time></trkpt><trkpt lat="40.7080857" lon="9.2977791"><ele>843.8</ele><time>2026-04-12T13:30:27.016Z</time></trkpt><trkpt lat="40.7081787" lon="9.2977749"><ele>840.6</ele><time>2026-04-12T13:30:28.008Z</time></trkpt><trkpt lat="40.7082738" lon="9.2977855"><ele>837.4</ele><time>2026-04-12T13:30:29.018Z</time></trkpt><trkpt lat="40.70837" lon="9.2977937"><ele>834.1999999999999</ele><time>2026-04-12T13:30:30.003Z</time></trkpt><trkpt lat="40.7084706" lon="9.2978109"><ele>831.0</ele><time>2026-04-12T13:30:31.002Z</time></trkpt><trkpt lat="40.7085763" lon="9.2978346"><ele>828.1999999999999</ele><time>2026-04-12T13:30:32.01Z</time></trkpt><trkpt lat="40.7086851" lon="9.2978556"><ele>825.4</ele><time>2026-04-12T13:30:33.013Z</time></trkpt><trkpt lat="40.7087963" lon="9.2978674"><ele>822.6</ele><time>2026-04-12T13:30:34.014Z</time></trkpt><trkpt lat="40.7089067" lon="9.2978764"><ele>819.8</ele><time>2026-04-12T13:30:35.011Z</time></trkpt><trkpt lat="40.7090159" lon="9.2978839"><ele>817.0</ele><time>2026-04-12T13:30:36.011Z</time></trkpt><trkpt lat="40.709129" lon="9.2978908"><ele>817.0</ele><time>2026-04-12T13:30:37.03Z</time></trkpt><trkpt lat="40.7092412" lon="9.2978893"><ele>817.0</ele><time>2026-04-12T13:30:38.016Z</time></trkpt><trkpt lat="40.7093537" lon="9.2978947"><ele>817.0</ele><time>2026-04-12T13:30:39.01Z</time></trkpt><trkpt lat="40.7094599" lon="9.2979122"><ele>817.0</ele><time>2026-04-12T13:30:40.007Z</time></trkpt><trkpt lat="40.7095504" lon="9.2979413"><ele>817.0</ele><time>2026-04-12T13:30:41.02Z</time></trkpt><trkpt lat="40.7096345" lon="9.2979788"><ele>816.4000000000001</ele><time>2026-04-12T13:30:42.026Z</time></trkpt><trkpt lat="40.7097137" lon="9.2980214"><ele>815.8000000000001</ele><time>2026-04-12T13:30:43.024Z</time></trkpt><trkpt lat="40.7097899" lon="9.2980769"><ele>815.2</ele><time>2026-04-12T13:30:44.008Z</time></trkpt><trkpt lat="40.7098656" lon="9.2981392"><ele>814.6</ele><time>2026-04-12T13:30:45.021Z</time></trkpt><trkpt lat="40.7099509" lon="9.298211"><ele>814.0</ele><time>2026-04-12T13:30:46.016Z</time></trkpt><trkpt lat="40.7100406" lon="9.2982925"><ele>813.8000000000001</ele><time>2026-04-12T13:30:47.011Z</time></trkpt><trkpt lat="40.7101274" lon="9.2983828"><ele>813.6</ele><time>2026-04-12T13:30:48.012Z</time></trkpt><trkpt lat="40.7102114" lon="9.2984738"><ele>813.4</ele><time>2026-04-12T13:30:49.009Z</time></trkpt><trkpt lat="40.7102909" lon="9.2985654"><ele>813.2</ele><time>2026-04-12T13:30:50.009Z</time></trkpt><trkpt lat="40.7103774" lon="9.2986509"><ele>813.0</ele><time>2026-04-12T13:30:51.011Z</time></trkpt><trkpt lat="40.7104645" lon="9.2987281"><ele>812.4</ele><time>2026-04-12T13:30:52.013Z</time></trkpt><trkpt lat="40.7105461" lon="9.2988017"><ele>811.8</ele><time>2026-04-12T13:30:53.04Z</time></trkpt><trkpt lat="40.7106184" lon="9.298869"><ele>811.2</ele><time>2026-04-12T13:30:54.029Z</time></trkpt><trkpt lat="40.7106845" lon="9.2989455"><ele>810.6</ele><time>2026-04-12T13:30:55.011Z</time></trkpt><trkpt lat="40.710746" lon="9.2990297"><ele>810.0</ele><time>2026-04-12T13:30:56.015Z</time></trkpt><trkpt lat="40.7108044" lon="9.2991154"><ele>807.5</ele><time>2026-04-12T13:30:57.021Z</time></trkpt><trkpt lat="40.7108637" lon="9.2991974"><ele>805.0</ele><time>2026-04-12T13:30:58.008Z</time></trkpt><trkpt lat="40.7109202" lon="9.2992784"><ele>802.5</ele><time>2026-04-12T13:30:59.006Z</time></trkpt><trkpt lat="40.7109637" lon="9.2993608"><ele>800.0</ele><time>2026-04-12T13:31:00.013Z</time></trkpt><trkpt lat="40.7109886" lon="9.2994474"><ele>797.5</ele><time>2026-04-12T13:31:01.032Z</time></trkpt><trkpt lat="40.7109902" lon="9.2995406"><ele>795.0</ele><time>2026-04-12T13:31:02.012Z</time></trkpt><trkpt lat="40.7109766" lon="9.2996338"><ele>795.0</ele><time>2026-04-12T13:31:03.028Z</time></trkpt><trkpt lat="40.7109577" lon="9.299725"><ele>795.0</ele><time>2026-04-12T13:31:04.012Z</time></trkpt><trkpt lat="40.7109299" lon="9.2998211"><ele>795.0</ele><time>2026-04-12T13:31:05.031Z</time></trkpt><trkpt lat="40.7108894" lon="9.2999155"><ele>795.0</ele><time>2026-04-12T13:31:06.007Z</time></trkpt><trkpt lat="40.7108372" lon="9.3000072"><ele>795.0</ele><time>2026-04-12T13:31:07.016Z</time></trkpt><trkpt lat="40.7107813" lon="9.3000993"><ele>795.0</ele><time>2026-04-12T13:31:08.031Z</time></trkpt><trkpt lat="40.7107199" lon="9.3001906"><ele>792.4</ele><time>2026-04-12T13:31:09.028Z</time></trkpt><trkpt lat="40.7106579" lon="9.3002906"><ele>789.8</ele><time>2026-04-12T13:31:10.019Z</time></trkpt><trkpt lat="40.710593" lon="9.300397"><ele>787.2</ele><time>2026-04-12T13:31:11.024Z</time></trkpt><trkpt lat="40.7105281" lon="9.3005048"><ele>784.6</ele><time>2026-04-12T13:31:12.022Z</time></trkpt><trkpt lat="40.7104648" lon="9.3006148"><ele>782.0</ele><time>2026-04-12T13:31:13.03Z</time></trkpt><trkpt lat="40.7104067" lon="9.3007232"><ele>781.5000000000001</ele><time>2026-04-12T13:31:14.01Z</time></trkpt><trkpt lat="40.7103544" lon="9.3008249"><ele>781.0</ele><time>2026-04-12T13:31:15.024Z</time></trkpt><trkpt lat="40.7103025" lon="9.300923"><ele>780.5</ele><time>2026-04-12T13:31:16.014Z</time></trkpt><trkpt lat="40.7102519" lon="9.3010168"><ele>780.0</ele><time>2026-04-12T13:31:17.033Z</time></trkpt><trkpt lat="40.7102002" lon="9.3011002"><ele>779.5000000000001</ele><time>2026-04-12T13:31:18.019Z</time></trkpt><trkpt lat="40.7101518" lon="9.3011693"><ele>779.0</ele><time>2026-04-12T13:31:19.014Z</time></trkpt><trkpt lat="40.710114" lon="9.3012388"><ele>779.0000000000001</ele><time>2026-04-12T13:31:20.013Z</time></trkpt><trkpt lat="40.7100795" lon="9.3013085"><ele>779.0</ele><time>2026-04-12T13:31:21.029Z</time></trkpt><trkpt lat="40.7100131" lon="9.3014378"><ele>779.0</ele><time>2026-04-12T13:31:23.013Z</time></trkpt><trkpt lat="40.7099202" lon="9.3015121"><ele>779.0</ele><time>2026-04-12T13:31:25.021Z</time></trkpt><trkpt lat="40.709861" lon="9.3015445"><ele>779.0000000000001</ele><time>2026-04-12T13:31:26.011Z</time></trkpt><trkpt lat="40.7097973" lon="9.3015812"><ele>779.0</ele><time>2026-04-12T13:31:27.012Z</time></trkpt><trkpt lat="40.7097316" lon="9.3016134"><ele>776.8333333333334</ele><time>2026-04-12T13:31:28.007Z</time></trkpt><trkpt lat="40.7096618" lon="9.3016434"><ele>774.6666666666667</ele><time>2026-04-12T13:31:29.017Z</time></trkpt><trkpt lat="40.7095873" lon="9.301672"><ele>772.5</ele><time>2026-04-12T13:31:30.005Z</time></trkpt><trkpt lat="40.7095089" lon="9.3017031"><ele>770.3333333333334</ele><time>2026-04-12T13:31:31.011Z</time></trkpt><trkpt lat="40.7094288" lon="9.3017223"><ele>768.1666666666667</ele><time>2026-04-12T13:31:32.012Z</time></trkpt><trkpt lat="40.7093502" lon="9.3017335"><ele>766.0</ele><time>2026-04-12T13:31:33.008Z</time></trkpt><trkpt lat="40.7092708" lon="9.3017392"><ele>766.0</ele><time>2026-04-12T13:31:34.011Z</time></trkpt><trkpt lat="40.7091998" lon="9.3017394"><ele>766.0</ele><time>2026-04-12T13:31:35.023Z</time></trkpt><trkpt lat="40.7091348" lon="9.3017319"><ele>766.0</ele><time>2026-04-12T13:31:36.01Z</time></trkpt><trkpt lat="40.7090718" lon="9.3017197"><ele>766.0</ele><time>2026-04-12T13:31:37.023Z</time></trkpt><trkpt lat="40.7090065" lon="9.3017026"><ele>766.0</ele><time>2026-04-12T13:31:38.005Z</time></trkpt><trkpt lat="40.7089414" lon="9.3016802"><ele>766.0</ele><time>2026-04-12T13:31:39.027Z</time></trkpt><trkpt lat="40.7088749" lon="9.3016504"><ele>766.0</ele><time>2026-04-12T13:31:40.004Z</time></trkpt><trkpt lat="40.7088074" lon="9.3016191"><ele>766.0</ele><time>2026-04-12T13:31:41.017Z</time></trkpt><trkpt lat="40.708736" lon="9.3015926"><ele>766.0</ele><time>2026-04-12T13:31:42.007Z</time></trkpt><trkpt lat="40.7086613" lon="9.3015695"><ele>766.0</ele><time>2026-04-12T13:31:43.013Z</time></trkpt><trkpt lat="40.7085883" lon="9.3015565"><ele>766.0</ele><time>2026-04-12T13:31:44.011Z</time></trkpt><trkpt lat="40.7085181" lon="9.3015592"><ele>766.0</ele><time>2026-04-12T13:31:45.007Z</time></trkpt><trkpt lat="40.7084495" lon="9.3015686"><ele>766.0</ele><time>2026-04-12T13:31:46Z</time></trkpt><trkpt lat="40.7083769" lon="9.3015803"><ele>766.0</ele><time>2026-04-12T13:31:47.007Z</time></trkpt><trkpt lat="40.7083054" lon="9.3015925"><ele>766.0</ele><time>2026-04-12T13:31:48.011Z</time></trkpt><trkpt lat="40.7082362" lon="9.3016058"><ele>766.0</ele><time>2026-04-12T13:31:49.021Z</time></trkpt><trkpt lat="40.7081664" lon="9.3016228"><ele>766.0</ele><time>2026-04-12T13:31:50.015Z</time></trkpt><trkpt lat="40.7080985" lon="9.3016378"><ele>766.0</ele><time>2026-04-12T13:31:51.021Z</time></trkpt><trkpt lat="40.708023" lon="9.3016507"><ele>766.0</ele><time>2026-04-12T13:31:52.018Z</time></trkpt><trkpt lat="40.7079418" lon="9.3016633"><ele>766.0</ele><time>2026-04-12T13:31:53.012Z</time></trkpt><trkpt lat="40.7078586" lon="9.301682"><ele>766.0</ele><time>2026-04-12T13:31:54.025Z</time></trkpt><trkpt lat="40.7077719" lon="9.301706"><ele>766.0</ele><time>2026-04-12T13:31:55.014Z</time></trkpt><trkpt lat="40.7076895" lon="9.3017289"><ele>766.0</ele><time>2026-04-12T13:31:56.012Z</time></trkpt><trkpt lat="40.7076104" lon="9.301746"><ele>766.0</ele><time>2026-04-12T13:31:57.011Z</time></trkpt><trkpt lat="40.7075295" lon="9.3017636"><ele>766.0</ele><time>2026-04-12T13:31:58.016Z</time></trkpt><trkpt lat="40.7074456" lon="9.3017798"><ele>766.0</ele><time>2026-04-12T13:31:59.029Z</time></trkpt><trkpt lat="40.7073603" lon="9.301797"><ele>767.5</ele><time>2026-04-12T13:32:00.022Z</time></trkpt><trkpt lat="40.7072743" lon="9.3018093"><ele>769.0</ele><time>2026-04-12T13:32:01.021Z</time></trkpt><trkpt lat="40.7071889" lon="9.3018202"><ele>770.5</ele><time>2026-04-12T13:32:02.027Z</time></trkpt><trkpt lat="40.7071067" lon="9.3018367"><ele>772.0</ele><time>2026-04-12T13:32:03.018Z</time></trkpt><trkpt lat="40.7070281" lon="9.3018573"><ele>773.4999999999999</ele><time>2026-04-12T13:32:04.009Z</time></trkpt><trkpt lat="40.7069459" lon="9.3018779"><ele>775.0</ele><time>2026-04-12T13:32:05.02Z</time></trkpt><trkpt lat="40.7068597" lon="9.3019053"><ele>776.2</ele><time>2026-04-12T13:32:06.015Z</time></trkpt><trkpt lat="40.7067707" lon="9.3019337"><ele>777.4</ele><time>2026-04-12T13:32:07.052Z</time></trkpt><trkpt lat="40.7066825" lon="9.3019595"><ele>778.5999999999999</ele><time>2026-04-12T13:32:08.014Z</time></trkpt><trkpt lat="40.7065944" lon="9.3019896"><ele>779.8</ele><time>2026-04-12T13:32:09.055Z</time></trkpt><trkpt lat="40.7065032" lon="9.3020296"><ele>781.0</ele><time>2026-04-12T13:32:10.016Z</time></trkpt><trkpt lat="40.7064132" lon="9.3020713"><ele>780.9999999999999</ele><time>2026-04-12T13:32:11.027Z</time></trkpt><trkpt lat="40.706327" lon="9.3021227"><ele>781.0</ele><time>2026-04-12T13:32:12.017Z</time></trkpt><trkpt lat="40.7062488" lon="9.3021873"><ele>781.0</ele><time>2026-04-12T13:32:13.029Z</time></trkpt><trkpt lat="40.7061769" lon="9.3022616"><ele>781.0</ele><time>2026-04-12T13:32:14.025Z</time></trkpt><trkpt lat="40.7061068" lon="9.3023338"><ele>780.9999999999999</ele><time>2026-04-12T13:32:15.043Z</time></trkpt><trkpt lat="40.7060406" lon="9.3023966"><ele>781.0</ele><time>2026-04-12T13:32:16.02Z</time></trkpt><trkpt lat="40.7059772" lon="9.3024578"><ele>779.4999999999999</ele><time>2026-04-12T13:32:17.019Z</time></trkpt><trkpt lat="40.7059166" lon="9.3025238"><ele>778.0</ele><time>2026-04-12T13:32:18.035Z</time></trkpt><trkpt lat="40.7058565" lon="9.302588"><ele>776.5</ele><time>2026-04-12T13:32:19.028Z</time></trkpt><trkpt lat="40.7057895" lon="9.3026469"><ele>775.0</ele><time>2026-04-12T13:32:20.018Z</time></trkpt><trkpt lat="40.7057087" lon="9.3026922"><ele>773.4999999999999</ele><time>2026-04-12T13:32:21.016Z</time></trkpt><trkpt lat="40.7056198" lon="9.3027332"><ele>772.0</ele><time>2026-04-12T13:32:22.026Z</time></trkpt><trkpt lat="40.705528" lon="9.3027789"><ele>772.0</ele><time>2026-04-12T13:32:23.022Z</time></trkpt><trkpt lat="40.7054299" lon="9.3028277"><ele>772.0</ele><time>2026-04-12T13:32:24.028Z</time></trkpt><trkpt lat="40.7053398" lon="9.3028699"><ele>772.0</ele><time>2026-04-12T13:32:25.027Z</time></trkpt><trkpt lat="40.7052553" lon="9.3028958"><ele>772.0</ele><time>2026-04-12T13:32:26.049Z</time></trkpt><trkpt lat="40.7051655" lon="9.302922"><ele>772.0</ele><time>2026-04-12T13:32:27.04Z</time></trkpt><trkpt lat="40.7050796" lon="9.3029476"><ele>774.8</ele><time>2026-04-12T13:32:28.029Z</time></trkpt><trkpt lat="40.7049839" lon="9.3029792"><ele>777.6</ele><time>2026-04-12T13:32:29.03Z</time></trkpt><trkpt lat="40.7048908" lon="9.3030068"><ele>780.4</ele><time>2026-04-12T13:32:30.029Z</time></trkpt><trkpt lat="40.704798" lon="9.3030318"><ele>783.1999999999999</ele><time>2026-04-12T13:32:30.938Z</time></trkpt><trkpt lat="40.7047058" lon="9.3030566"><ele>786.0</ele><time>2026-04-12T13:32:31.938Z</time></trkpt><trkpt lat="40.7046134" lon="9.3030877"><ele>782.5</ele><time>2026-04-12T13:32:33.028Z</time></trkpt><trkpt lat="40.7045198" lon="9.3031187"><ele>779.0</ele><time>2026-04-12T13:32:34.041Z</time></trkpt><trkpt lat="40.7044363" lon="9.303149"><ele>775.5</ele><time>2026-04-12T13:32:35.041Z</time></trkpt><trkpt lat="40.7043633" lon="9.3031814"><ele>772.0</ele><time>2026-04-12T13:32:36.023Z</time></trkpt><trkpt lat="40.7042998" lon="9.303211"><ele>768.5</ele><time>2026-04-12T13:32:37.03Z</time></trkpt><trkpt lat="40.7042431" lon="9.3032547"><ele>765.0</ele><time>2026-04-12T13:32:38.029Z</time></trkpt><trkpt lat="40.7041852" lon="9.3033804"><ele>765.0</ele><time>2026-04-12T13:32:40.062Z</time></trkpt><trkpt lat="40.7042108" lon="9.3035354"><ele>765.0</ele><time>2026-04-12T13:32:42.024Z</time></trkpt><trkpt lat="40.7042497" lon="9.3036208"><ele>765.0</ele><time>2026-04-12T13:32:43.037Z</time></trkpt><trkpt lat="40.7042888" lon="9.3037078"><ele>765.0</ele><time>2026-04-12T13:32:44.023Z</time></trkpt><trkpt lat="40.704325" lon="9.3037895"><ele>765.0</ele><time>2026-04-12T13:32:45.021Z</time></trkpt><trkpt lat="40.7043637" lon="9.3039186"><ele>765.0</ele><time>2026-04-12T13:32:47.03Z</time></trkpt><trkpt lat="40.7044011" lon="9.3039931"><ele>761.1666666666666</ele><time>2026-04-12T13:33:33.019Z</time></trkpt><trkpt lat="40.7044399" lon="9.3040697"><ele>757.3333333333334</ele><time>2026-04-12T13:33:35.03Z</time></trkpt><trkpt lat="40.7044923" lon="9.3041936"><ele>753.5</ele><time>2026-04-12T13:33:37.021Z</time></trkpt><trkpt lat="40.7045296" lon="9.3042819"><ele>749.6666666666667</ele><time>2026-04-12T13:33:38.011Z</time></trkpt><trkpt lat="40.7045727" lon="9.304375"><ele>745.8333333333334</ele><time>2026-04-12T13:33:39.018Z</time></trkpt><trkpt lat="40.7046178" lon="9.304468"><ele>742.0</ele><time>2026-04-12T13:33:40.015Z</time></trkpt><trkpt lat="40.7046682" lon="9.3045572"><ele>742.0</ele><time>2026-04-12T13:33:41.02Z</time></trkpt><trkpt lat="40.7047218" lon="9.3046496"><ele>742.0</ele><time>2026-04-12T13:33:42.021Z</time></trkpt><trkpt lat="40.7047729" lon="9.3047417"><ele>742.0</ele><time>2026-04-12T13:33:43.018Z</time></trkpt><trkpt lat="40.7048182" lon="9.3048382"><ele>742.0</ele><time>2026-04-12T13:33:44.01Z</time></trkpt><trkpt lat="40.7048611" lon="9.304939"><ele>742.0</ele><time>2026-04-12T13:33:45.011Z</time></trkpt><trkpt lat="40.7049046" lon="9.3050353"><ele>742.0</ele><time>2026-04-12T13:33:46.009Z</time></trkpt><trkpt lat="40.7049469" lon="9.3051251"><ele>742.8333333333334</ele><time>2026-04-12T13:33:47.01Z</time></trkpt><trkpt lat="40.7049818" lon="9.3052128"><ele>743.6666666666667</ele><time>2026-04-12T13:33:48.015Z</time></trkpt><trkpt lat="40.7050111" lon="9.3053045"><ele>744.5</ele><time>2026-04-12T13:33:49.018Z</time></trkpt><trkpt lat="40.7050407" lon="9.3054028"><ele>745.3333333333334</ele><time>2026-04-12T13:33:50.005Z</time></trkpt><trkpt lat="40.7050719" lon="9.3055104"><ele>746.1666666666666</ele><time>2026-04-12T13:33:51.015Z</time></trkpt><trkpt lat="40.7050964" lon="9.3056141"><ele>747.0</ele><time>2026-04-12T13:33:52.005Z</time></trkpt><trkpt lat="40.7051131" lon="9.3057078"><ele>747.6666666666666</ele><time>2026-04-12T13:33:53.02Z</time></trkpt><trkpt lat="40.7051293" lon="9.3058026"><ele>748.3333333333334</ele><time>2026-04-12T13:33:54.024Z</time></trkpt><trkpt lat="40.7051444" lon="9.3059021"><ele>749.0</ele><time>2026-04-12T13:33:55.022Z</time></trkpt><trkpt lat="40.7051546" lon="9.3060119"><ele>749.6666666666667</ele><time>2026-04-12T13:33:56.022Z</time></trkpt><trkpt lat="40.7051651" lon="9.3061191"><ele>750.3333333333334</ele><time>2026-04-12T13:33:57.008Z</time></trkpt><trkpt lat="40.7051732" lon="9.3062258"><ele>751.0</ele><time>2026-04-12T13:33:57.998Z</time></trkpt><trkpt lat="40.7051779" lon="9.3063396"><ele>751.3333333333334</ele><time>2026-04-12T13:33:59.006Z</time></trkpt><trkpt lat="40.7051752" lon="9.3064581"><ele>751.6666666666667</ele><time>2026-04-12T13:34:00.02Z</time></trkpt><trkpt lat="40.7051816" lon="9.3065787"><ele>752.0</ele><time>2026-04-12T13:34:01.008Z</time></trkpt><trkpt lat="40.7051928" lon="9.3066998"><ele>752.3333333333334</ele><time>2026-04-12T13:34:02.012Z</time></trkpt><trkpt lat="40.7052107" lon="9.3068158"><ele>752.6666666666666</ele><time>2026-04-12T13:34:03.01Z</time></trkpt><trkpt lat="40.7052279" lon="9.3069246"><ele>753.0</ele><time>2026-04-12T13:34:04.001Z</time></trkpt><trkpt lat="40.7052435" lon="9.3070256"><ele>752.0</ele><time>2026-04-12T13:34:05.02Z</time></trkpt><trkpt lat="40.705254" lon="9.3071141"><ele>751.0</ele><time>2026-04-12T13:34:06.005Z</time></trkpt><trkpt lat="40.7052378" lon="9.3072681"><ele>750.0</ele><time>2026-04-12T13:34:08.009Z</time></trkpt><trkpt lat="40.7052201" lon="9.3073498"><ele>749.0</ele><time>2026-04-12T13:34:09.017Z</time></trkpt><trkpt lat="40.7051865" lon="9.3074299"><ele>748.0</ele><time>2026-04-12T13:34:10.005Z</time></trkpt><trkpt lat="40.7051344" lon="9.3075161"><ele>747.0</ele><time>2026-04-12T13:34:11.005Z</time></trkpt><trkpt lat="40.7050748" lon="9.3076079"><ele>747.0</ele><time>2026-04-12T13:34:12.006Z</time></trkpt><trkpt lat="40.7050217" lon="9.3076911"><ele>747.0</ele><time>2026-04-12T13:34:13.002Z</time></trkpt><trkpt lat="40.7049811" lon="9.307781"><ele>747.0</ele><time>2026-04-12T13:34:14.01Z</time></trkpt><trkpt lat="40.704952" lon="9.3078718"><ele>747.0</ele><time>2026-04-12T13:34:15.043Z</time></trkpt><trkpt lat="40.7049369" lon="9.3079655"><ele>747.0</ele><time>2026-04-12T13:34:16.079Z</time></trkpt><trkpt lat="40.7049601" lon="9.3081128"><ele>747.0</ele><time>2026-04-12T13:34:18Z</time></trkpt><trkpt lat="40.7050572" lon="9.3081786"><ele>747.2</ele><time>2026-04-12T13:34:20.002Z</time></trkpt><trkpt lat="40.7051397" lon="9.3081859"><ele>747.4000000000001</ele><time>2026-04-12T13:34:21.038Z</time></trkpt><trkpt lat="40.7052368" lon="9.3082158"><ele>747.5999999999999</ele><time>2026-04-12T13:34:22.003Z</time></trkpt><trkpt lat="40.7053368" lon="9.3082662"><ele>747.8</ele><time>2026-04-12T13:34:23.009Z</time></trkpt><trkpt lat="40.7054325" lon="9.3083245"><ele>748.0</ele><time>2026-04-12T13:34:24Z</time></trkpt><trkpt lat="40.7055317" lon="9.3083816"><ele>744.0</ele><time>2026-04-12T13:34:25.015Z</time></trkpt><trkpt lat="40.7056263" lon="9.3084268"><ele>740.0</ele><time>2026-04-12T13:34:26.034Z</time></trkpt><trkpt lat="40.7057179" lon="9.3084683"><ele>736.0</ele><time>2026-04-12T13:34:27.049Z</time></trkpt><trkpt lat="40.7058069" lon="9.3085205"><ele>732.0</ele><time>2026-04-12T13:34:28.003Z</time></trkpt><trkpt lat="40.7058945" lon="9.3085776"><ele>728.0</ele><time>2026-04-12T13:34:28.997Z</time></trkpt><trkpt lat="40.705979" lon="9.3086364"><ele>728.0</ele><time>2026-04-12T13:34:30.46Z</time></trkpt><trkpt lat="40.7060628" lon="9.3086893"><ele>728.0</ele><time>2026-04-12T13:34:31.471Z</time></trkpt><trkpt lat="40.7061467" lon="9.3087471"><ele>728.0</ele><time>2026-04-12T13:34:32.46Z</time></trkpt><trkpt lat="40.7062245" lon="9.3088153"><ele>728.0</ele><time>2026-04-12T13:34:33.456Z</time></trkpt><trkpt lat="40.7063041" lon="9.308894"><ele>728.0</ele><time>2026-04-12T13:34:34.46Z</time></trkpt><trkpt lat="40.7063877" lon="9.3089727"><ele>728.0</ele><time>2026-04-12T13:34:35.47Z</time></trkpt><trkpt lat="40.7064685" lon="9.3090484"><ele>728.0</ele><time>2026-04-12T13:34:36.458Z</time></trkpt><trkpt lat="40.7065467" lon="9.3091252"><ele>728.0</ele><time>2026-04-12T13:34:37.455Z</time></trkpt><trkpt lat="40.7066173" lon="9.3092016"><ele>728.0</ele><time>2026-04-12T13:34:38.452Z</time></trkpt><trkpt lat="40.7066849" lon="9.309275"><ele>728.0</ele><time>2026-04-12T13:34:39.472Z</time></trkpt><trkpt lat="40.7067518" lon="9.3093422"><ele>728.0</ele><time>2026-04-12T13:34:40.464Z</time></trkpt><trkpt lat="40.7068217" lon="9.3094076"><ele>728.0</ele><time>2026-04-12T13:34:41.452Z</time></trkpt><trkpt lat="40.7068863" lon="9.3094841"><ele>728.0</ele><time>2026-04-12T13:34:42.453Z</time></trkpt><trkpt lat="40.70694" lon="9.3095752"><ele>728.0</ele><time>2026-04-12T13:34:43.459Z</time></trkpt><trkpt lat="40.7069971" lon="9.3096679"><ele>728.0</ele><time>2026-04-12T13:34:44.459Z</time></trkpt><trkpt lat="40.7070587" lon="9.3097549"><ele>728.0</ele><time>2026-04-12T13:34:45.472Z</time></trkpt><trkpt lat="40.7071144" lon="9.309853"><ele>725.8333333333333</ele><time>2026-04-12T13:34:46.462Z</time></trkpt><trkpt lat="40.707168" lon="9.3099472"><ele>723.6666666666666</ele><time>2026-04-12T13:34:47.45Z</time></trkpt><trkpt lat="40.7072198" lon="9.3100462"><ele>721.5</ele><time>2026-04-12T13:34:48.457Z</time></trkpt><trkpt lat="40.7072652" lon="9.3101528"><ele>719.3333333333334</ele><time>2026-04-12T13:34:49.472Z</time></trkpt><trkpt lat="40.7073007" lon="9.3102562"><ele>717.1666666666667</ele><time>2026-04-12T13:34:50.452Z</time></trkpt><trkpt lat="40.7073385" lon="9.3103589"><ele>715.0</ele><time>2026-04-12T13:34:51.455Z</time></trkpt><trkpt lat="40.7073815" lon="9.3104662"><ele>715.0</ele><time>2026-04-12T13:34:52.456Z</time></trkpt><trkpt lat="40.7074297" lon="9.3105693"><ele>715.0</ele><time>2026-04-12T13:34:53.467Z</time></trkpt><trkpt lat="40.7074766" lon="9.3106788"><ele>715.0</ele><time>2026-04-12T13:34:54.461Z</time></trkpt><trkpt lat="40.7075307" lon="9.3107858"><ele>715.0</ele><time>2026-04-12T13:34:55.456Z</time></trkpt><trkpt lat="40.7075843" lon="9.3108931"><ele>715.0</ele><time>2026-04-12T13:34:56.455Z</time></trkpt><trkpt lat="40.7076389" lon="9.3109994"><ele>716.0</ele><time>2026-04-12T13:34:57.452Z</time></trkpt><trkpt lat="40.707697" lon="9.3111061"><ele>717.0</ele><time>2026-04-12T13:34:58.455Z</time></trkpt><trkpt lat="40.7077584" lon="9.3112149"><ele>718.0</ele><time>2026-04-12T13:34:59.458Z</time></trkpt><trkpt lat="40.7078171" lon="9.3113239"><ele>719.0</ele><time>2026-04-12T13:35:00.447Z</time></trkpt><trkpt lat="40.7078764" lon="9.3114343"><ele>720.0</ele><time>2026-04-12T13:35:01.446Z</time></trkpt><trkpt lat="40.7079361" lon="9.3115455"><ele>720.0</ele><time>2026-04-12T13:35:02.453Z</time></trkpt><trkpt lat="40.7079963" lon="9.311661"><ele>720.0</ele><time>2026-04-12T13:35:03.459Z</time></trkpt><trkpt lat="40.7080563" lon="9.3117768"><ele>720.0</ele><time>2026-04-12T13:35:04.442Z</time></trkpt><trkpt lat="40.7081145" lon="9.3118944"><ele>720.0</ele><time>2026-04-12T13:35:05.446Z</time></trkpt><trkpt lat="40.7081725" lon="9.3120123"><ele>720.0</ele><time>2026-04-12T13:35:06.445Z</time></trkpt><trkpt lat="40.7082342" lon="9.3121316"><ele>722.6</ele><time>2026-04-12T13:35:07.439Z</time></trkpt><trkpt lat="40.7082941" lon="9.3122515"><ele>725.2</ele><time>2026-04-12T13:35:08.452Z</time></trkpt><trkpt lat="40.7083546" lon="9.3123714"><ele>727.8</ele><time>2026-04-12T13:35:09.443Z</time></trkpt><trkpt lat="40.7084145" lon="9.3124903"><ele>730.4</ele><time>2026-04-12T13:35:10.436Z</time></trkpt><trkpt lat="40.7084752" lon="9.3126107"><ele>733.0</ele><time>2026-04-12T13:35:11.439Z</time></trkpt><trkpt lat="40.7085343" lon="9.312729"><ele>733.2</ele><time>2026-04-12T13:35:12.445Z</time></trkpt><trkpt lat="40.7085962" lon="9.3128356"><ele>733.4</ele><time>2026-04-12T13:35:13.438Z</time></trkpt><trkpt lat="40.7086532" lon="9.3129345"><ele>733.6</ele><time>2026-04-12T13:35:14.44Z</time></trkpt><trkpt lat="40.7087151" lon="9.3130277"><ele>733.8000000000001</ele><time>2026-04-12T13:35:15.443Z</time></trkpt><trkpt lat="40.7087827" lon="9.3131159"><ele>734.0</ele><time>2026-04-12T13:35:16.437Z</time></trkpt><trkpt lat="40.7088443" lon="9.3131945"><ele>734.0</ele><time>2026-04-12T13:35:17.456Z</time></trkpt><trkpt lat="40.7089006" lon="9.3132698"><ele>734.0</ele><time>2026-04-12T13:35:18.433Z</time></trkpt><trkpt lat="40.7089594" lon="9.3133531"><ele>734.0</ele><time>2026-04-12T13:35:19.458Z</time></trkpt><trkpt lat="40.7090131" lon="9.3134365"><ele>734.0</ele><time>2026-04-12T13:35:20.444Z</time></trkpt><trkpt lat="40.709061" lon="9.3135128"><ele>734.0</ele><time>2026-04-12T13:35:21.436Z</time></trkpt><trkpt lat="40.7091131" lon="9.3136402"><ele>734.0</ele><time>2026-04-12T13:35:23.45Z</time></trkpt><trkpt lat="40.7090988" lon="9.3138133"><ele>735.5</ele><time>2026-04-12T13:35:25.442Z</time></trkpt><trkpt lat="40.7090799" lon="9.3139101"><ele>737.0</ele><time>2026-04-12T13:35:26.441Z</time></trkpt><trkpt lat="40.7090718" lon="9.3140216"><ele>738.5</ele><time>2026-04-12T13:35:27.44Z</time></trkpt><trkpt lat="40.7090659" lon="9.3141261"><ele>740.0</ele><time>2026-04-12T13:35:28.435Z</time></trkpt><trkpt lat="40.7090501" lon="9.3142416"><ele>741.5</ele><time>2026-04-12T13:35:29.429Z</time></trkpt><trkpt lat="40.7090264" lon="9.3143731"><ele>743.0</ele><time>2026-04-12T13:35:30.437Z</time></trkpt><trkpt lat="40.708999" lon="9.3144848"><ele>743.0</ele><time>2026-04-12T13:35:31.438Z</time></trkpt><trkpt lat="40.7089723" lon="9.314579"><ele>743.0</ele><time>2026-04-12T13:35:32.425Z</time></trkpt><trkpt lat="40.7089477" lon="9.3146611"><ele>743.0</ele><time>2026-04-12T13:35:33.43Z</time></trkpt><trkpt lat="40.708941" lon="9.31482"><ele>743.0</ele><time>2026-04-12T13:35:35.439Z</time></trkpt><trkpt lat="40.7089726" lon="9.3148994"><ele>743.0</ele><time>2026-04-12T13:35:36.432Z</time></trkpt><trkpt lat="40.7090164" lon="9.3149652"><ele>743.0</ele><time>2026-04-12T13:35:37.425Z</time></trkpt><trkpt lat="40.7090606" lon="9.3150317"><ele>743.0</ele><time>2026-04-12T13:35:38.428Z</time></trkpt><trkpt lat="40.7091036" lon="9.3150962"><ele>743.0</ele><time>2026-04-12T13:35:39.431Z</time></trkpt><trkpt lat="40.7091805" lon="9.3152237"><ele>743.0</ele><time>2026-04-12T13:35:41.422Z</time></trkpt><trkpt lat="40.7092414" lon="9.3153427"><ele>743.0</ele><time>2026-04-12T13:35:43.428Z</time></trkpt><trkpt lat="40.7092749" lon="9.3154829"><ele>743.0</ele><time>2026-04-12T13:35:45.425Z</time></trkpt><trkpt lat="40.7092668" lon="9.315639"><ele>740.5999999999999</ele><time>2026-04-12T13:35:47.423Z</time></trkpt><trkpt lat="40.7092339" lon="9.3157674"><ele>738.1999999999999</ele><time>2026-04-12T13:35:49.422Z</time></trkpt><trkpt lat="40.7091709" lon="9.3158607"><ele>735.8</ele><time>2026-04-12T13:35:51.428Z</time></trkpt><trkpt lat="40.7090606" lon="9.3158608"><ele>733.4</ele><time>2026-04-12T13:35:53.424Z</time></trkpt><trkpt lat="40.7089455" lon="9.3158192"><ele>731.0</ele><time>2026-04-12T13:35:55.421Z</time></trkpt><trkpt lat="40.7088334" lon="9.3158139"><ele>731.0</ele><time>2026-04-12T13:35:57.425Z</time></trkpt><trkpt lat="40.7087439" lon="9.315872"><ele>731.0</ele><time>2026-04-12T13:35:59.415Z</time></trkpt><trkpt lat="40.7086704" lon="9.3159786"><ele>731.0</ele><time>2026-04-12T13:36:01.417Z</time></trkpt><trkpt lat="40.7086142" lon="9.3160998"><ele>731.0</ele><time>2026-04-12T13:36:03.418Z</time></trkpt><trkpt lat="40.7085722" lon="9.3162378"><ele>731.0</ele><time>2026-04-12T13:36:05.415Z</time></trkpt><trkpt lat="40.7085754" lon="9.3164025"><ele>730.5</ele><time>2026-04-12T13:36:07.413Z</time></trkpt><trkpt lat="40.7085942" lon="9.3164829"><ele>730.0</ele><time>2026-04-12T13:36:08.405Z</time></trkpt><trkpt lat="40.7086216" lon="9.3165703"><ele>729.5</ele><time>2026-04-12T13:36:09.409Z</time></trkpt><trkpt lat="40.708654" lon="9.3166596"><ele>729.0</ele><time>2026-04-12T13:36:10.411Z</time></trkpt><trkpt lat="40.7086867" lon="9.3167514"><ele>728.5</ele><time>2026-04-12T13:36:11.41Z</time></trkpt><trkpt lat="40.7087219" lon="9.3168474"><ele>728.0</ele><time>2026-04-12T13:36:12.402Z</time></trkpt><trkpt lat="40.7087572" lon="9.316947"><ele>728.0</ele><time>2026-04-12T13:36:13.408Z</time></trkpt><trkpt lat="40.7087926" lon="9.3170429"><ele>728.0</ele><time>2026-04-12T13:36:14.412Z</time></trkpt><trkpt lat="40.7088322" lon="9.3171387"><ele>728.0</ele><time>2026-04-12T13:36:15.408Z</time></trkpt><trkpt lat="40.7088772" lon="9.3172251"><ele>728.0</ele><time>2026-04-12T13:36:16.413Z</time></trkpt><trkpt lat="40.7089309" lon="9.3173072"><ele>728.0</ele><time>2026-04-12T13:36:17.417Z</time></trkpt><trkpt lat="40.7089889" lon="9.3173801"><ele>728.0</ele><time>2026-04-12T13:36:18.427Z</time></trkpt><trkpt lat="40.7090493" lon="9.3174483"><ele>724.0</ele><time>2026-04-12T13:36:19.425Z</time></trkpt><trkpt lat="40.7091056" lon="9.3175017"><ele>720.0</ele><time>2026-04-12T13:36:20.424Z</time></trkpt><trkpt lat="40.7092078" lon="9.3175689"><ele>716.0</ele><time>2026-04-12T13:36:22.427Z</time></trkpt><trkpt lat="40.7092655" lon="9.3176303"><ele>712.0</ele><time>2026-04-12T13:36:24.418Z</time></trkpt><trkpt lat="40.7092299" lon="9.317703"><ele>708.0</ele><time>2026-04-12T13:36:26.415Z</time></trkpt><trkpt lat="40.7091378" lon="9.3176896"><ele>704.0</ele><time>2026-04-12T13:36:28.419Z</time></trkpt><trkpt lat="40.7090429" lon="9.3176435"><ele>704.0</ele><time>2026-04-12T13:36:30.4Z</time></trkpt><trkpt lat="40.7089353" lon="9.3176062"><ele>704.0</ele><time>2026-04-12T13:36:32.398Z</time></trkpt><trkpt lat="40.708824" lon="9.3175683"><ele>704.0</ele><time>2026-04-12T13:36:34.402Z</time></trkpt><trkpt lat="40.7087193" lon="9.3175397"><ele>704.0</ele><time>2026-04-12T13:36:36.4Z</time></trkpt><trkpt lat="40.708608" lon="9.3175182"><ele>704.0</ele><time>2026-04-12T13:36:38.392Z</time></trkpt><trkpt lat="40.7084872" lon="9.3174892"><ele>700.6</ele><time>2026-04-12T13:36:40.402Z</time></trkpt><trkpt lat="40.7083637" lon="9.317455"><ele>697.2</ele><time>2026-04-12T13:36:42.399Z</time></trkpt><trkpt lat="40.7082375" lon="9.3174297"><ele>693.8000000000001</ele><time>2026-04-12T13:36:44.405Z</time></trkpt><trkpt lat="40.7081744" lon="9.3174158"><ele>690.4000000000001</ele><time>2026-04-12T13:36:45.414Z</time></trkpt><trkpt lat="40.7080611" lon="9.3173874"><ele>687.0</ele><time>2026-04-12T13:36:47.406Z</time></trkpt><trkpt lat="40.707963" lon="9.3173565"><ele>687.0</ele><time>2026-04-12T13:36:49.41Z</time></trkpt><trkpt lat="40.7078908" lon="9.3173541"><ele>687.0</ele><time>2026-04-12T13:36:51.41Z</time></trkpt><trkpt lat="40.7078826" lon="9.3174662"><ele>687.0</ele><time>2026-04-12T13:36:54.398Z</time></trkpt><trkpt lat="40.7079676" lon="9.3175265"><ele>687.0</ele><time>2026-04-12T13:36:56.399Z</time></trkpt><trkpt lat="40.7080788" lon="9.317577"><ele>687.0</ele><time>2026-04-12T13:36:58.4Z</time></trkpt><trkpt lat="40.7081666" lon="9.317642"><ele>687.0</ele><time>2026-04-12T13:37:00.397Z</time></trkpt><trkpt lat="40.7082161" lon="9.3177614"><ele>687.0</ele><time>2026-04-12T13:37:02.395Z</time></trkpt><trkpt lat="40.7082472" lon="9.3179203"><ele>687.0</ele><time>2026-04-12T13:37:04.392Z</time></trkpt><trkpt lat="40.708253" lon="9.3180729"><ele>687.0</ele><time>2026-04-12T13:37:06.394Z</time></trkpt><trkpt lat="40.7082514" lon="9.3182121"><ele>687.0</ele><time>2026-04-12T13:37:08.388Z</time></trkpt><trkpt lat="40.7082559" lon="9.318348"><ele>682.8</ele><time>2026-04-12T13:37:10.496Z</time></trkpt><trkpt lat="40.7082977" lon="9.3184727"><ele>678.6</ele><time>2026-04-12T13:37:12.428Z</time></trkpt><trkpt lat="40.7083705" lon="9.3186122"><ele>674.4</ele><time>2026-04-12T13:37:14.406Z</time></trkpt><trkpt lat="40.7084221" lon="9.3186883"><ele>670.1999999999999</ele><time>2026-04-12T13:37:15.402Z</time></trkpt><trkpt lat="40.7084786" lon="9.3187514"><ele>666.0</ele><time>2026-04-12T13:37:16.496Z</time></trkpt><trkpt lat="40.7085355" lon="9.3188005"><ele>667.3333333333334</ele><time>2026-04-12T13:37:17.49Z</time></trkpt><trkpt lat="40.7086527" lon="9.3188889"><ele>668.6666666666666</ele><time>2026-04-12T13:37:19.388Z</time></trkpt><trkpt lat="40.7087152" lon="9.3189277"><ele>670.0</ele><time>2026-04-12T13:37:20.394Z</time></trkpt><trkpt lat="40.7087802" lon="9.3189647"><ele>671.3333333333333</ele><time>2026-04-12T13:37:21.504Z</time></trkpt><trkpt lat="40.708844" lon="9.3189919"><ele>672.6666666666666</ele><time>2026-04-12T13:37:22.493Z</time></trkpt><trkpt lat="40.7089114" lon="9.3189993"><ele>674.0</ele><time>2026-04-12T13:37:23.485Z</time></trkpt><trkpt lat="40.7089791" lon="9.3190056"><ele>670.4285714285714</ele><time>2026-04-12T13:37:24.484Z</time></trkpt><trkpt lat="40.7090474" lon="9.3190153"><ele>666.8571428571429</ele><time>2026-04-12T13:37:25.491Z</time></trkpt><trkpt lat="40.709121" lon="9.3190279"><ele>663.2857142857142</ele><time>2026-04-12T13:37:26.485Z</time></trkpt><trkpt lat="40.7091924" lon="9.3190463"><ele>659.7142857142858</ele><time>2026-04-12T13:37:27.482Z</time></trkpt><trkpt lat="40.7092664" lon="9.3190683"><ele>656.1428571428571</ele><time>2026-04-12T13:37:28.492Z</time></trkpt><trkpt lat="40.7093416" lon="9.3190885"><ele>652.5714285714286</ele><time>2026-04-12T13:37:29.485Z</time></trkpt><trkpt lat="40.7094165" lon="9.3191036"><ele>649.0</ele><time>2026-04-12T13:37:30.488Z</time></trkpt><trkpt lat="40.7094921" lon="9.3191269"><ele>647.8333333333334</ele><time>2026-04-12T13:37:31.534Z</time></trkpt><trkpt lat="40.7095705" lon="9.3191431"><ele>646.6666666666667</ele><time>2026-04-12T13:37:32.484Z</time></trkpt><trkpt lat="40.7096447" lon="9.3191553"><ele>645.5</ele><time>2026-04-12T13:37:33.481Z</time></trkpt><trkpt lat="40.7097248" lon="9.3191662"><ele>644.3333333333334</ele><time>2026-04-12T13:37:34.494Z</time></trkpt><trkpt lat="40.7098122" lon="9.3191776"><ele>643.1666666666666</ele><time>2026-04-12T13:37:35.484Z</time></trkpt><trkpt lat="40.7098891" lon="9.3192009"><ele>642.0</ele><time>2026-04-12T13:37:36.481Z</time></trkpt><trkpt lat="40.709963" lon="9.3192399"><ele>642.0</ele><time>2026-04-12T13:37:37.482Z</time></trkpt><trkpt lat="40.7100337" lon="9.3192912"><ele>642.0</ele><time>2026-04-12T13:37:38.489Z</time></trkpt><trkpt lat="40.7101003" lon="9.3193558"><ele>642.0</ele><time>2026-04-12T13:37:39.503Z</time></trkpt><trkpt lat="40.7101599" lon="9.3194285"><ele>642.0</ele><time>2026-04-12T13:37:40.488Z</time></trkpt><trkpt lat="40.7102164" lon="9.3195119"><ele>642.0</ele><time>2026-04-12T13:37:41.484Z</time></trkpt><trkpt lat="40.7102675" lon="9.3195982"><ele>642.0</ele><time>2026-04-12T13:37:42.495Z</time></trkpt><trkpt lat="40.7103163" lon="9.3196833"><ele>639.5</ele><time>2026-04-12T13:37:43.484Z</time></trkpt><trkpt lat="40.7103662" lon="9.3197658"><ele>637.0</ele><time>2026-04-12T13:37:44.487Z</time></trkpt><trkpt lat="40.7104174" lon="9.3198422"><ele>634.5</ele><time>2026-04-12T13:37:45.499Z</time></trkpt><trkpt lat="40.7104665" lon="9.3199178"><ele>632.0</ele><time>2026-04-12T13:37:46.504Z</time></trkpt><trkpt lat="40.7105153" lon="9.3199906"><ele>629.5</ele><time>2026-04-12T13:37:47.49Z</time></trkpt><trkpt lat="40.7105695" lon="9.3200598"><ele>627.0</ele><time>2026-04-12T13:37:48.487Z</time></trkpt><trkpt lat="40.7106214" lon="9.3201211"><ele>627.0</ele><time>2026-04-12T13:37:49.491Z</time></trkpt><trkpt lat="40.7106721" lon="9.32018"><ele>627.0</ele><time>2026-04-12T13:37:50.486Z</time></trkpt><trkpt lat="40.7107241" lon="9.320239"><ele>627.0</ele><time>2026-04-12T13:37:51.482Z</time></trkpt><trkpt lat="40.7107768" lon="9.3203005"><ele>627.0</ele><time>2026-04-12T13:37:52.478Z</time></trkpt><trkpt lat="40.7108278" lon="9.3203547"><ele>627.0</ele><time>2026-04-12T13:37:53.5Z</time></trkpt><trkpt lat="40.7108807" lon="9.3204124"><ele>627.0</ele><time>2026-04-12T13:37:54.482Z</time></trkpt><trkpt lat="40.7109377" lon="9.3204662"><ele>627.0</ele><time>2026-04-12T13:37:55.481Z</time></trkpt><trkpt lat="40.7109962" lon="9.3205125"><ele>627.0</ele><time>2026-04-12T13:37:56.481Z</time></trkpt><trkpt lat="40.7110638" lon="9.3205519"><ele>627.0</ele><time>2026-04-12T13:37:57.475Z</time></trkpt><trkpt lat="40.7111291" lon="9.3205934"><ele>627.0</ele><time>2026-04-12T13:37:58.477Z</time></trkpt><trkpt lat="40.7111926" lon="9.3206306"><ele>627.0</ele><time>2026-04-12T13:37:59.488Z</time></trkpt><trkpt lat="40.7112572" lon="9.3206709"><ele>627.0</ele><time>2026-04-12T13:38:00.47Z</time></trkpt><trkpt lat="40.7113199" lon="9.3207038"><ele>627.0</ele><time>2026-04-12T13:38:01.495Z</time></trkpt><trkpt lat="40.7113877" lon="9.3207331"><ele>627.0</ele><time>2026-04-12T13:38:02.481Z</time></trkpt><trkpt lat="40.7114611" lon="9.3207594"><ele>625.1666666666666</ele><time>2026-04-12T13:38:03.494Z</time></trkpt><trkpt lat="40.711533" lon="9.3207819"><ele>623.3333333333334</ele><time>2026-04-12T13:38:04.475Z</time></trkpt><trkpt lat="40.7116023" lon="9.3208075"><ele>621.5</ele><time>2026-04-12T13:38:05.476Z</time></trkpt><trkpt lat="40.7116723" lon="9.3208427"><ele>619.6666666666667</ele><time>2026-04-12T13:38:06.472Z</time></trkpt><trkpt lat="40.7117421" lon="9.3208808"><ele>617.8333333333334</ele><time>2026-04-12T13:38:07.488Z</time></trkpt><trkpt lat="40.7118023" lon="9.3209202"><ele>616.0</ele><time>2026-04-12T13:38:08.466Z</time></trkpt><trkpt lat="40.7119084" lon="9.3209957"><ele>616.0</ele><time>2026-04-12T13:38:10.474Z</time></trkpt><trkpt lat="40.7120004" lon="9.3210416"><ele>616.0</ele><time>2026-04-12T13:38:12.469Z</time></trkpt><trkpt lat="40.7120731" lon="9.3210712"><ele>616.0</ele><time>2026-04-12T13:38:14.485Z</time></trkpt><trkpt lat="40.7120601" lon="9.3211581"><ele>616.0</ele><time>2026-04-12T13:38:17.518Z</time></trkpt><trkpt lat="40.7119801" lon="9.3211785"><ele>616.0</ele><time>2026-04-12T13:38:19.47Z</time></trkpt><trkpt lat="40.7118885" lon="9.3211794"><ele>616.0</ele><time>2026-04-12T13:38:21.472Z</time></trkpt><trkpt lat="40.7117946" lon="9.321185"><ele>613.8333333333334</ele><time>2026-04-12T13:38:23.467Z</time></trkpt><trkpt lat="40.7116957" lon="9.321215"><ele>611.6666666666667</ele><time>2026-04-12T13:38:25.468Z</time></trkpt><trkpt lat="40.7115789" lon="9.3212693"><ele>609.5</ele><time>2026-04-12T13:38:27.472Z</time></trkpt><trkpt lat="40.7115177" lon="9.3213096"><ele>607.3333333333334</ele><time>2026-04-12T13:38:28.478Z</time></trkpt><trkpt lat="40.711458" lon="9.3213558"><ele>605.1666666666666</ele><time>2026-04-12T13:38:29.467Z</time></trkpt><trkpt lat="40.7113945" lon="9.3213959"><ele>603.0</ele><time>2026-04-12T13:38:30.468Z</time></trkpt><trkpt lat="40.7113337" lon="9.3214356"><ele>599.0</ele><time>2026-04-12T13:38:31.472Z</time></trkpt><trkpt lat="40.7112702" lon="9.3214745"><ele>595.0</ele><time>2026-04-12T13:38:32.463Z</time></trkpt><trkpt lat="40.7112029" lon="9.3215037"><ele>591.0</ele><time>2026-04-12T13:38:33.461Z</time></trkpt><trkpt lat="40.7111371" lon="9.3215319"><ele>587.0</ele><time>2026-04-12T13:38:34.48Z</time></trkpt><trkpt lat="40.7110773" lon="9.3215638"><ele>583.0</ele><time>2026-04-12T13:38:35.464Z</time></trkpt><trkpt lat="40.7110188" lon="9.3215971"><ele>579.0</ele><time>2026-04-12T13:38:36.484Z</time></trkpt><trkpt lat="40.7109091" lon="9.321659"><ele>579.0</ele><time>2026-04-12T13:38:38.477Z</time></trkpt><trkpt lat="40.7108176" lon="9.3216914"><ele>579.0</ele><time>2026-04-12T13:38:40.469Z</time></trkpt><trkpt lat="40.7107497" lon="9.3217165"><ele>579.0</ele><time>2026-04-12T13:38:42.451Z</time></trkpt><trkpt lat="40.7107263" lon="9.3218213"><ele>579.0</ele><time>2026-04-12T13:38:45.464Z</time></trkpt><trkpt lat="40.7107847" lon="9.3218816"><ele>579.0</ele><time>2026-04-12T13:38:47.457Z</time></trkpt><trkpt lat="40.7108708" lon="9.3218937"><ele>579.0</ele><time>2026-04-12T13:38:49.461Z</time></trkpt><trkpt lat="40.7109689" lon="9.3218983"><ele>577.8</ele><time>2026-04-12T13:38:51.445Z</time></trkpt><trkpt lat="40.7110748" lon="9.3219095"><ele>576.5999999999999</ele><time>2026-04-12T13:38:53.444Z</time></trkpt><trkpt lat="40.7111684" lon="9.3219162"><ele>575.4</ele><time>2026-04-12T13:38:55.443Z</time></trkpt><trkpt lat="40.7112555" lon="9.3219421"><ele>574.1999999999999</ele><time>2026-04-12T13:38:57.435Z</time></trkpt><trkpt lat="40.7112961" lon="9.3220308"><ele>573.0</ele><time>2026-04-12T13:38:59.435Z</time></trkpt><trkpt lat="40.7113199" lon="9.3221475"><ele>573.0</ele><time>2026-04-12T13:39:01.448Z</time></trkpt><trkpt lat="40.7114167" lon="9.3222179"><ele>573.0</ele><time>2026-04-12T13:39:03.429Z</time></trkpt><trkpt lat="40.7114893" lon="9.3222389"><ele>573.0</ele><time>2026-04-12T13:39:04.44Z</time></trkpt><trkpt lat="40.7115608" lon="9.3222456"><ele>573.0</ele><time>2026-04-12T13:39:05.46Z</time></trkpt><trkpt lat="40.7116675" lon="9.3222681"><ele>573.0</ele><time>2026-04-12T13:39:07.464Z</time></trkpt><trkpt lat="40.7117747" lon="9.3223116"><ele>572.1999999999999</ele><time>2026-04-12T13:39:09.43Z</time></trkpt><trkpt lat="40.7118751" lon="9.3223542"><ele>571.4</ele><time>2026-04-12T13:39:11.438Z</time></trkpt><trkpt lat="40.7119776" lon="9.3224"><ele>570.5999999999999</ele><time>2026-04-12T13:39:13.462Z</time></trkpt><trkpt lat="40.7120838" lon="9.3224603"><ele>569.8</ele><time>2026-04-12T13:39:15.434Z</time></trkpt><trkpt lat="40.7121384" lon="9.3225051"><ele>569.0</ele><time>2026-04-12T13:39:16.43Z</time></trkpt><trkpt lat="40.7121921" lon="9.3225549"><ele>567.8333333333333</ele><time>2026-04-12T13:39:17.439Z</time></trkpt><trkpt lat="40.7122468" lon="9.3226096"><ele>566.6666666666666</ele><time>2026-04-12T13:39:18.432Z</time></trkpt><trkpt lat="40.7123485" lon="9.3227006"><ele>565.5</ele><time>2026-04-12T13:39:20.421Z</time></trkpt><trkpt lat="40.7124054" lon="9.3227496"><ele>564.3333333333334</ele><time>2026-04-12T13:39:21.424Z</time></trkpt><trkpt lat="40.7124627" lon="9.3228063"><ele>563.1666666666667</ele><time>2026-04-12T13:39:22.42Z</time></trkpt><trkpt lat="40.7125171" lon="9.3228707"><ele>562.0</ele><time>2026-04-12T13:39:23.412Z</time></trkpt><trkpt lat="40.7125634" lon="9.3229505"><ele>562.0</ele><time>2026-04-12T13:39:24.428Z</time></trkpt><trkpt lat="40.7126036" lon="9.3230304"><ele>562.0</ele><time>2026-04-12T13:39:25.419Z</time></trkpt><trkpt lat="40.712653" lon="9.3231052"><ele>562.0</ele><time>2026-04-12T13:39:26.408Z</time></trkpt><trkpt lat="40.7127018" lon="9.323171"><ele>562.0</ele><time>2026-04-12T13:39:27.435Z</time></trkpt><trkpt lat="40.7127519" lon="9.3232474"><ele>562.0</ele><time>2026-04-12T13:39:28.412Z</time></trkpt><trkpt lat="40.712803" lon="9.3233289"><ele>562.0</ele><time>2026-04-12T13:39:29.404Z</time></trkpt><trkpt lat="40.7128476" lon="9.3234153"><ele>561.5714285714287</ele><time>2026-04-12T13:39:30.413Z</time></trkpt><trkpt lat="40.7128821" lon="9.3234964"><ele>561.1428571428571</ele><time>2026-04-12T13:39:31.402Z</time></trkpt><trkpt lat="40.7129122" lon="9.323574"><ele>560.7142857142858</ele><time>2026-04-12T13:39:32.435Z</time></trkpt><trkpt lat="40.7129541" lon="9.3236537"><ele>560.2857142857143</ele><time>2026-04-12T13:39:33.427Z</time></trkpt><trkpt lat="40.7130098" lon="9.3237233"><ele>559.8571428571429</ele><time>2026-04-12T13:39:34.426Z</time></trkpt><trkpt lat="40.7130669" lon="9.3237931"><ele>559.4285714285714</ele><time>2026-04-12T13:39:35.405Z</time></trkpt><trkpt lat="40.7131318" lon="9.3238608"><ele>559.0</ele><time>2026-04-12T13:39:36.41Z</time></trkpt><trkpt lat="40.7132002" lon="9.3239272"><ele>558.8333333333334</ele><time>2026-04-12T13:39:37.414Z</time></trkpt><trkpt lat="40.7132718" lon="9.3239961"><ele>558.6666666666667</ele><time>2026-04-12T13:39:38.404Z</time></trkpt><trkpt lat="40.713342" lon="9.3240702"><ele>558.5</ele><time>2026-04-12T13:39:39.395Z</time></trkpt><trkpt lat="40.7134029" lon="9.3241488"><ele>558.3333333333334</ele><time>2026-04-12T13:39:40.397Z</time></trkpt><trkpt lat="40.7134635" lon="9.3242319"><ele>558.1666666666666</ele><time>2026-04-12T13:39:41.405Z</time></trkpt><trkpt lat="40.7135247" lon="9.3243125"><ele>558.0</ele><time>2026-04-12T13:39:42.394Z</time></trkpt><trkpt lat="40.7135767" lon="9.3243915"><ele>557.0</ele><time>2026-04-12T13:39:43.391Z</time></trkpt><trkpt lat="40.7136251" lon="9.3244728"><ele>556.0</ele><time>2026-04-12T13:39:44.396Z</time></trkpt><trkpt lat="40.7136706" lon="9.3245501"><ele>555.0</ele><time>2026-04-12T13:39:45.394Z</time></trkpt><trkpt lat="40.7137161" lon="9.3246287"><ele>554.0</ele><time>2026-04-12T13:39:46.408Z</time></trkpt><trkpt lat="40.7137593" lon="9.3247216"><ele>553.0</ele><time>2026-04-12T13:39:47.391Z</time></trkpt><trkpt lat="40.7137959" lon="9.3248251"><ele>552.0</ele><time>2026-04-12T13:39:48.481Z</time></trkpt><trkpt lat="40.7138322" lon="9.3249298"><ele>551.2</ele><time>2026-04-12T13:39:49.484Z</time></trkpt><trkpt lat="40.7138727" lon="9.3250371"><ele>550.4000000000001</ele><time>2026-04-12T13:39:50.487Z</time></trkpt><trkpt lat="40.7139204" lon="9.3251403"><ele>549.5999999999999</ele><time>2026-04-12T13:39:51.488Z</time></trkpt><trkpt lat="40.7139841" lon="9.3252312"><ele>548.8</ele><time>2026-04-12T13:39:52.481Z</time></trkpt><trkpt lat="40.7140501" lon="9.3253173"><ele>548.0</ele><time>2026-04-12T13:39:53.484Z</time></trkpt><trkpt lat="40.7141154" lon="9.3253944"><ele>548.0</ele><time>2026-04-12T13:39:54.497Z</time></trkpt><trkpt lat="40.7141756" lon="9.3254665"><ele>548.0</ele><time>2026-04-12T13:39:55.485Z</time></trkpt><trkpt lat="40.7142366" lon="9.3255392"><ele>548.0</ele><time>2026-04-12T13:39:56.496Z</time></trkpt><trkpt lat="40.7142916" lon="9.3256175"><ele>548.0</ele><time>2026-04-12T13:39:57.484Z</time></trkpt><trkpt lat="40.7143467" lon="9.3256931"><ele>548.0</ele><time>2026-04-12T13:39:58.499Z</time></trkpt><trkpt lat="40.7143991" lon="9.325757"><ele>548.0</ele><time>2026-04-12T13:39:59.481Z</time></trkpt><trkpt lat="40.7144549" lon="9.3258"><ele>549.0</ele><time>2026-04-12T13:40:00.491Z</time></trkpt><trkpt lat="40.7145338" lon="9.3258605"><ele>550.0</ele><time>2026-04-12T13:40:02.492Z</time></trkpt><trkpt lat="40.7146128" lon="9.325911"><ele>551.0</ele><time>2026-04-12T13:40:05.487Z</time></trkpt><trkpt lat="40.7146987" lon="9.3259661"><ele>552.0</ele><time>2026-04-12T13:40:36.448Z</time></trkpt><trkpt lat="40.71477" lon="9.3259913"><ele>553.0</ele><time>2026-04-12T13:40:38.442Z</time></trkpt><trkpt lat="40.7148366" lon="9.3260133"><ele>554.0</ele><time>2026-04-12T13:40:40.452Z</time></trkpt><trkpt lat="40.7149295" lon="9.3260645"><ele>554.0</ele><time>2026-04-12T13:40:43.43Z</time></trkpt><trkpt lat="40.7150071" lon="9.3261427"><ele>554.0</ele><time>2026-04-12T13:40:45.43Z</time></trkpt><trkpt lat="40.7150758" lon="9.3262417"><ele>554.0</ele><time>2026-04-12T13:40:47.421Z</time></trkpt><trkpt lat="40.7151394" lon="9.3263595"><ele>554.0</ele><time>2026-04-12T13:40:49.436Z</time></trkpt><trkpt lat="40.7151745" lon="9.3264292"><ele>554.0</ele><time>2026-04-12T13:40:50.431Z</time></trkpt><trkpt lat="40.7152046" lon="9.3265035"><ele>554.0</ele><time>2026-04-12T13:40:51.439Z</time></trkpt><trkpt lat="40.7152099" lon="9.3265901"><ele>554.5</ele><time>2026-04-12T13:40:52.428Z</time></trkpt><trkpt lat="40.7152043" lon="9.3266779"><ele>555.0</ele><time>2026-04-12T13:40:53.422Z</time></trkpt><trkpt lat="40.7151822" lon="9.3267597"><ele>555.5</ele><time>2026-04-12T13:40:54.427Z</time></trkpt><trkpt lat="40.7151652" lon="9.3268433"><ele>556.0</ele><time>2026-04-12T13:40:55.419Z</time></trkpt><trkpt lat="40.7151832" lon="9.3269821"><ele>556.5</ele><time>2026-04-12T13:40:57.452Z</time></trkpt><trkpt lat="40.7152726" lon="9.3271026"><ele>557.0</ele><time>2026-04-12T13:40:59.415Z</time></trkpt><trkpt lat="40.7153394" lon="9.3271417"><ele>555.8571428571429</ele><time>2026-04-12T13:41:00.413Z</time></trkpt><trkpt lat="40.7154135" lon="9.3271738"><ele>554.7142857142857</ele><time>2026-04-12T13:41:01.435Z</time></trkpt><trkpt lat="40.7154921" lon="9.3272099"><ele>553.5714285714286</ele><time>2026-04-12T13:41:02.418Z</time></trkpt><trkpt lat="40.7155601" lon="9.3272454"><ele>552.4285714285714</ele><time>2026-04-12T13:41:03.411Z</time></trkpt><trkpt lat="40.7156193" lon="9.327279"><ele>551.2857142857143</ele><time>2026-04-12T13:41:04.426Z</time></trkpt><trkpt lat="40.7156765" lon="9.327314"><ele>550.1428571428571</ele><time>2026-04-12T13:41:05.418Z</time></trkpt><trkpt lat="40.7157386" lon="9.3273459"><ele>549.0</ele><time>2026-04-12T13:41:06.461Z</time></trkpt><trkpt lat="40.7158075" lon="9.3273879"><ele>549.0</ele><time>2026-04-12T13:41:07.41Z</time></trkpt><trkpt lat="40.7158817" lon="9.3274461"><ele>549.0</ele><time>2026-04-12T13:41:08.412Z</time></trkpt><trkpt lat="40.7159605" lon="9.3275184"><ele>549.0</ele><time>2026-04-12T13:41:09.407Z</time></trkpt><trkpt lat="40.7160574" lon="9.3275883"><ele>549.0</ele><time>2026-04-12T13:41:10.408Z</time></trkpt><trkpt lat="40.7161639" lon="9.3276586"><ele>549.0</ele><time>2026-04-12T13:41:11.41Z</time></trkpt><trkpt lat="40.7162673" lon="9.3277206"><ele>548.8</ele><time>2026-04-12T13:41:12.41Z</time></trkpt><trkpt lat="40.716365" lon="9.3277845"><ele>548.5999999999999</ele><time>2026-04-12T13:41:13.403Z</time></trkpt><trkpt lat="40.7164489" lon="9.3278444"><ele>548.4</ele><time>2026-04-12T13:41:14.408Z</time></trkpt><trkpt lat="40.7165355" lon="9.3279078"><ele>548.1999999999999</ele><time>2026-04-12T13:41:15.441Z</time></trkpt><trkpt lat="40.7166257" lon="9.3279774"><ele>548.0</ele><time>2026-04-12T13:41:16.406Z</time></trkpt><trkpt lat="40.7167196" lon="9.3280602"><ele>548.0</ele><time>2026-04-12T13:41:17.401Z</time></trkpt><trkpt lat="40.7168207" lon="9.3281542"><ele>548.0</ele><time>2026-04-12T13:41:18.396Z</time></trkpt><trkpt lat="40.7169199" lon="9.3282536"><ele>548.0</ele><time>2026-04-12T13:41:19.4Z</time></trkpt><trkpt lat="40.7170147" lon="9.3283552"><ele>548.0</ele><time>2026-04-12T13:41:20.394Z</time></trkpt><trkpt lat="40.7171145" lon="9.3284475"><ele>543.5</ele><time>2026-04-12T13:41:21.392Z</time></trkpt><trkpt lat="40.7172294" lon="9.3285187"><ele>539.0</ele><time>2026-04-12T13:41:22.396Z</time></trkpt><trkpt lat="40.7173559" lon="9.3285851"><ele>534.5</ele><time>2026-04-12T13:41:23.403Z</time></trkpt><trkpt lat="40.7174844" lon="9.3286451"><ele>530.0</ele><time>2026-04-12T13:41:24.404Z</time></trkpt><trkpt lat="40.7176041" lon="9.3287095"><ele>530.0</ele><time>2026-04-12T13:41:25.389Z</time></trkpt><trkpt lat="40.7177185" lon="9.3287794"><ele>530.0</ele><time>2026-04-12T13:41:26.407Z</time></trkpt><trkpt lat="40.7178292" lon="9.3288645"><ele>530.0</ele><time>2026-04-12T13:41:27.395Z</time></trkpt><trkpt lat="40.7179363" lon="9.3289732"><ele>530.0</ele><time>2026-04-12T13:41:28.486Z</time></trkpt><trkpt lat="40.7180422" lon="9.3290835"><ele>528.75</ele><time>2026-04-12T13:41:29.386Z</time></trkpt><trkpt lat="40.7181511" lon="9.3292047"><ele>527.5</ele><time>2026-04-12T13:41:30.391Z</time></trkpt><trkpt lat="40.7182599" lon="9.3293305"><ele>526.25</ele><time>2026-04-12T13:41:31.397Z</time></trkpt><trkpt lat="40.718363" lon="9.3294487"><ele>525.0</ele><time>2026-04-12T13:41:32.493Z</time></trkpt><trkpt lat="40.7184698" lon="9.3295625"><ele>524.5</ele><time>2026-04-12T13:41:33.485Z</time></trkpt><trkpt lat="40.7185746" lon="9.3296726"><ele>524.0</ele><time>2026-04-12T13:41:34.488Z</time></trkpt><trkpt lat="40.718682" lon="9.3297802"><ele>523.5</ele><time>2026-04-12T13:41:35.481Z</time></trkpt><trkpt lat="40.7187948" lon="9.329883"><ele>523.0</ele><time>2026-04-12T13:41:36.479Z</time></trkpt><trkpt lat="40.7189076" lon="9.3299795"><ele>523.0</ele><time>2026-04-12T13:41:37.489Z</time></trkpt><trkpt lat="40.7190182" lon="9.3300733"><ele>523.0</ele><time>2026-04-12T13:41:38.482Z</time></trkpt><trkpt lat="40.7191309" lon="9.3301697"><ele>523.0</ele><time>2026-04-12T13:41:39.484Z</time></trkpt><trkpt lat="40.7192435" lon="9.3302682"><ele>523.0</ele><time>2026-04-12T13:41:40.472Z</time></trkpt><trkpt lat="40.7193551" lon="9.3303671"><ele>522.25</ele><time>2026-04-12T13:41:41.485Z</time></trkpt><trkpt lat="40.7194618" lon="9.3304793"><ele>521.5</ele><time>2026-04-12T13:41:42.477Z</time></trkpt><trkpt lat="40.7195576" lon="9.3305971"><ele>520.75</ele><time>2026-04-12T13:41:43.48Z</time></trkpt><trkpt lat="40.7196376" lon="9.3307289"><ele>520.0</ele><time>2026-04-12T13:41:44.485Z</time></trkpt><trkpt lat="40.7197073" lon="9.3308763"><ele>520.0</ele><time>2026-04-12T13:41:45.472Z</time></trkpt><trkpt lat="40.7197793" lon="9.3310125"><ele>520.0</ele><time>2026-04-12T13:41:46.473Z</time></trkpt><trkpt lat="40.7198752" lon="9.3311063"><ele>520.0</ele><time>2026-04-12T13:41:47.483Z</time></trkpt><trkpt lat="40.7199803" lon="9.3311783"><ele>520.0</ele><time>2026-04-12T13:41:48.468Z</time></trkpt><trkpt lat="40.7200972" lon="9.3312338"><ele>520.0</ele><time>2026-04-12T13:41:49.47Z</time></trkpt><trkpt lat="40.7202133" lon="9.3313032"><ele>520.0</ele><time>2026-04-12T13:41:50.477Z</time></trkpt><trkpt lat="40.7203323" lon="9.3313923"><ele>520.0</ele><time>2026-04-12T13:41:51.47Z</time></trkpt><trkpt lat="40.7204411" lon="9.3315005"><ele>520.0</ele><time>2026-04-12T13:41:52.461Z</time></trkpt><trkpt lat="40.7205479" lon="9.3316231"><ele>521.25</ele><time>2026-04-12T13:41:53.463Z</time></trkpt><trkpt lat="40.7206514" lon="9.3317506"><ele>522.5</ele><time>2026-04-12T13:41:54.46Z</time></trkpt><trkpt lat="40.7207531" lon="9.33188"><ele>523.75</ele><time>2026-04-12T13:41:55.47Z</time></trkpt><trkpt lat="40.7208568" lon="9.3320131"><ele>525.0</ele><time>2026-04-12T13:41:56.463Z</time></trkpt><trkpt lat="40.7209552" lon="9.3321447"><ele>526.5</ele><time>2026-04-12T13:41:57.467Z</time></trkpt><trkpt lat="40.7210517" lon="9.3322756"><ele>528.0</ele><time>2026-04-12T13:41:58.462Z</time></trkpt><trkpt lat="40.7211382" lon="9.3324145"><ele>529.5</ele><time>2026-04-12T13:41:59.458Z</time></trkpt><trkpt lat="40.7212219" lon="9.3325553"><ele>531.0</ele><time>2026-04-12T13:42:00.457Z</time></trkpt><trkpt lat="40.721305" lon="9.3326975"><ele>531.0</ele><time>2026-04-12T13:42:01.454Z</time></trkpt><trkpt lat="40.7213912" lon="9.3328372"><ele>531.0</ele><time>2026-04-12T13:42:02.461Z</time></trkpt><trkpt lat="40.7214824" lon="9.3329826"><ele>531.0</ele><time>2026-04-12T13:42:03.455Z</time></trkpt><trkpt lat="40.7215792" lon="9.3331188"><ele>531.0</ele><time>2026-04-12T13:42:04.456Z</time></trkpt><trkpt lat="40.7216726" lon="9.3332498"><ele>529.0</ele><time>2026-04-12T13:42:05.45Z</time></trkpt><trkpt lat="40.7217667" lon="9.3333778"><ele>527.0</ele><time>2026-04-12T13:42:06.447Z</time></trkpt><trkpt lat="40.7218662" lon="9.3335021"><ele>525.0</ele><time>2026-04-12T13:42:07.456Z</time></trkpt><trkpt lat="40.7219731" lon="9.3336251"><ele>523.0</ele><time>2026-04-12T13:42:08.444Z</time></trkpt><trkpt lat="40.7220903" lon="9.3337417"><ele>523.0</ele><time>2026-04-12T13:42:09.457Z</time></trkpt><trkpt lat="40.7222137" lon="9.3338503"><ele>523.0</ele><time>2026-04-12T13:42:10.445Z</time></trkpt><trkpt lat="40.7223419" lon="9.333953"><ele>523.0</ele><time>2026-04-12T13:42:11.469Z</time></trkpt><trkpt lat="40.7224678" lon="9.3340527"><ele>523.0</ele><time>2026-04-12T13:42:12.455Z</time></trkpt><trkpt lat="40.7225884" lon="9.3341428"><ele>520.25</ele><time>2026-04-12T13:42:13.445Z</time></trkpt><trkpt lat="40.7227047" lon="9.3342362"><ele>517.5</ele><time>2026-04-12T13:42:14.438Z</time></trkpt><trkpt lat="40.7228199" lon="9.3343298"><ele>514.75</ele><time>2026-04-12T13:42:15.444Z</time></trkpt><trkpt lat="40.7229315" lon="9.3344256"><ele>512.0</ele><time>2026-04-12T13:42:16.438Z</time></trkpt><trkpt lat="40.7230355" lon="9.3345225"><ele>512.0</ele><time>2026-04-12T13:42:17.441Z</time></trkpt><trkpt lat="40.7231329" lon="9.3346268"><ele>512.0</ele><time>2026-04-12T13:42:18.438Z</time></trkpt><trkpt lat="40.7232217" lon="9.3347454"><ele>512.0</ele><time>2026-04-12T13:42:19.438Z</time></trkpt><trkpt lat="40.7233037" lon="9.3348679"><ele>512.0</ele><time>2026-04-12T13:42:20.438Z</time></trkpt><trkpt lat="40.7233792" lon="9.3350055"><ele>509.25</ele><time>2026-04-12T13:42:21.448Z</time></trkpt><trkpt lat="40.7234466" lon="9.3351548"><ele>506.5</ele><time>2026-04-12T13:42:22.452Z</time></trkpt><trkpt lat="40.7235015" lon="9.3353148"><ele>503.75</ele><time>2026-04-12T13:42:23.433Z</time></trkpt><trkpt lat="40.7235425" lon="9.3354791"><ele>501.0</ele><time>2026-04-12T13:42:24.439Z</time></trkpt><trkpt lat="40.7235863" lon="9.3356279"><ele>499.75</ele><time>2026-04-12T13:42:25.433Z</time></trkpt><trkpt lat="40.7236321" lon="9.3357685"><ele>498.5</ele><time>2026-04-12T13:42:26.441Z</time></trkpt><trkpt lat="40.723692" lon="9.3358948"><ele>497.25</ele><time>2026-04-12T13:42:27.431Z</time></trkpt><trkpt lat="40.7237687" lon="9.3360066"><ele>496.0</ele><time>2026-04-12T13:42:28.434Z</time></trkpt><trkpt lat="40.7238601" lon="9.3360948"><ele>496.0</ele><time>2026-04-12T13:42:29.423Z</time></trkpt><trkpt lat="40.7239606" lon="9.3361513"><ele>496.0</ele><time>2026-04-12T13:42:30.437Z</time></trkpt><trkpt lat="40.7240684" lon="9.3361887"><ele>496.0</ele><time>2026-04-12T13:42:31.421Z</time></trkpt><trkpt lat="40.7241894" lon="9.3361958"><ele>496.0</ele><time>2026-04-12T13:42:32.44Z</time></trkpt><trkpt lat="40.7243205" lon="9.3361858"><ele>494.75</ele><time>2026-04-12T13:42:33.423Z</time></trkpt><trkpt lat="40.7244645" lon="9.3361681"><ele>493.5</ele><time>2026-04-12T13:42:34.45Z</time></trkpt><trkpt lat="40.724611" lon="9.3361564"><ele>492.25</ele><time>2026-04-12T13:42:35.449Z</time></trkpt><trkpt lat="40.7247515" lon="9.3361384"><ele>491.0</ele><time>2026-04-12T13:42:36.43Z</time></trkpt><trkpt lat="40.7248826" lon="9.3361302"><ele>491.0</ele><time>2026-04-12T13:42:37.426Z</time></trkpt><trkpt lat="40.7250103" lon="9.3361274"><ele>491.0</ele><time>2026-04-12T13:42:38.415Z</time></trkpt><trkpt lat="40.7251326" lon="9.3361305"><ele>491.0</ele><time>2026-04-12T13:42:39.419Z</time></trkpt><trkpt lat="40.7252493" lon="9.336145"><ele>491.0</ele><time>2026-04-12T13:42:40.438Z</time></trkpt><trkpt lat="40.7253652" lon="9.3361612"><ele>492.5</ele><time>2026-04-12T13:42:41.418Z</time></trkpt><trkpt lat="40.7254834" lon="9.3361755"><ele>494.0</ele><time>2026-04-12T13:42:42.419Z</time></trkpt><trkpt lat="40.7255977" lon="9.3361863"><ele>495.5</ele><time>2026-04-12T13:42:43.42Z</time></trkpt><trkpt lat="40.7257135" lon="9.3362011"><ele>497.0</ele><time>2026-04-12T13:42:44.414Z</time></trkpt><trkpt lat="40.7258313" lon="9.3362258"><ele>497.0</ele><time>2026-04-12T13:42:45.413Z</time></trkpt><trkpt lat="40.7259491" lon="9.3362635"><ele>497.0</ele><time>2026-04-12T13:42:46.413Z</time></trkpt><trkpt lat="40.7260686" lon="9.3363149"><ele>497.0</ele><time>2026-04-12T13:42:47.415Z</time></trkpt><trkpt lat="40.7261787" lon="9.3363752"><ele>497.0</ele><time>2026-04-12T13:42:48.415Z</time></trkpt><trkpt lat="40.726275" lon="9.3364527"><ele>496.0</ele><time>2026-04-12T13:42:49.41Z</time></trkpt><trkpt lat="40.7263552" lon="9.33656"><ele>495.0</ele><time>2026-04-12T13:42:50.404Z</time></trkpt><trkpt lat="40.7264225" lon="9.3366767"><ele>494.0</ele><time>2026-04-12T13:42:51.406Z</time></trkpt><trkpt lat="40.7264755" lon="9.3368143"><ele>493.0</ele><time>2026-04-12T13:42:52.4Z</time></trkpt><trkpt lat="40.7265175" lon="9.33696"><ele>493.0</ele><time>2026-04-12T13:42:53.398Z</time></trkpt><trkpt lat="40.7265545" lon="9.337105"><ele>492.99999999999994</ele><time>2026-04-12T13:42:54.413Z</time></trkpt><trkpt lat="40.7265963" lon="9.3372386"><ele>492.99999999999994</ele><time>2026-04-12T13:42:55.399Z</time></trkpt><trkpt lat="40.7266468" lon="9.3373697"><ele>493.0</ele><time>2026-04-12T13:42:56.394Z</time></trkpt><trkpt lat="40.726702" lon="9.337498"><ele>493.0</ele><time>2026-04-12T13:42:57.404Z</time></trkpt><trkpt lat="40.7267581" lon="9.337623"><ele>494.0</ele><time>2026-04-12T13:42:58.405Z</time></trkpt><trkpt lat="40.7268198" lon="9.3377464"><ele>494.99999999999994</ele><time>2026-04-12T13:42:59.391Z</time></trkpt><trkpt lat="40.7268879" lon="9.3378623"><ele>495.99999999999994</ele><time>2026-04-12T13:43:00.397Z</time></trkpt><trkpt lat="40.726962" lon="9.3379701"><ele>497.0</ele><time>2026-04-12T13:43:01.402Z</time></trkpt><trkpt lat="40.7270407" lon="9.3380694"><ele>498.0</ele><time>2026-04-12T13:43:02.396Z</time></trkpt><trkpt lat="40.7271224" lon="9.338161"><ele>494.0</ele><time>2026-04-12T13:43:03.396Z</time></trkpt><trkpt lat="40.7272027" lon="9.3382511"><ele>489.99999999999994</ele><time>2026-04-12T13:43:04.41Z</time></trkpt><trkpt lat="40.7272813" lon="9.3383418"><ele>485.99999999999994</ele><time>2026-04-12T13:43:05.399Z</time></trkpt><trkpt lat="40.7273512" lon="9.3384309"><ele>482.0</ele><time>2026-04-12T13:43:06.385Z</time></trkpt><trkpt lat="40.7274099" lon="9.3385218"><ele>478.0</ele><time>2026-04-12T13:43:07.398Z</time></trkpt><trkpt lat="40.7274542" lon="9.3386163"><ele>478.00000000000006</ele><time>2026-04-12T13:43:08.404Z</time></trkpt><trkpt lat="40.7274823" lon="9.3387156"><ele>478.0</ele><time>2026-04-12T13:43:09.392Z</time></trkpt><trkpt lat="40.7275" lon="9.338825"><ele>478.0</ele><time>2026-04-12T13:43:10.395Z</time></trkpt><trkpt lat="40.727519" lon="9.3389323"><ele>478.0</ele><time>2026-04-12T13:43:11.485Z</time></trkpt><trkpt lat="40.7275554" lon="9.3390194"><ele>478.00000000000006</ele><time>2026-04-12T13:43:12.484Z</time></trkpt><trkpt lat="40.7276169" lon="9.3390925"><ele>478.0</ele><time>2026-04-12T13:43:13.487Z</time></trkpt><trkpt lat="40.7276922" lon="9.339157"><ele>476.79999999999995</ele><time>2026-04-12T13:43:14.49Z</time></trkpt><trkpt lat="40.7277797" lon="9.3392042"><ele>475.59999999999997</ele><time>2026-04-12T13:43:15.483Z</time></trkpt><trkpt lat="40.7278642" lon="9.3392622"><ele>474.40000000000003</ele><time>2026-04-12T13:43:16.481Z</time></trkpt><trkpt lat="40.7279393" lon="9.3393378"><ele>473.20000000000005</ele><time>2026-04-12T13:43:17.483Z</time></trkpt><trkpt lat="40.7280063" lon="9.3394331"><ele>472.0</ele><time>2026-04-12T13:43:18.487Z</time></trkpt><trkpt lat="40.7280539" lon="9.3395438"><ele>472.0</ele><time>2026-04-12T13:43:19.49Z</time></trkpt><trkpt lat="40.7280886" lon="9.3396668"><ele>472.00000000000006</ele><time>2026-04-12T13:43:20.48Z</time></trkpt><trkpt lat="40.7281124" lon="9.3397992"><ele>472.00000000000006</ele><time>2026-04-12T13:43:21.479Z</time></trkpt><trkpt lat="40.7281378" lon="9.3399379"><ele>472.0</ele><time>2026-04-12T13:43:22.481Z</time></trkpt><trkpt lat="40.7281659" lon="9.3400819"><ele>472.0</ele><time>2026-04-12T13:43:23.495Z</time></trkpt><trkpt lat="40.7281952" lon="9.3402204"><ele>472.75</ele><time>2026-04-12T13:43:24.48Z</time></trkpt><trkpt lat="40.7282319" lon="9.3403603"><ele>473.5</ele><time>2026-04-12T13:43:25.479Z</time></trkpt><trkpt lat="40.7282714" lon="9.3405025"><ele>474.25</ele><time>2026-04-12T13:43:26.474Z</time></trkpt><trkpt lat="40.7283136" lon="9.3406502"><ele>475.0</ele><time>2026-04-12T13:43:27.481Z</time></trkpt><trkpt lat="40.7283549" lon="9.3407968"><ele>474.75</ele><time>2026-04-12T13:43:28.472Z</time></trkpt><trkpt lat="40.7284025" lon="9.3409468"><ele>474.5</ele><time>2026-04-12T13:43:29.474Z</time></trkpt><trkpt lat="40.7284526" lon="9.3410988"><ele>474.25</ele><time>2026-04-12T13:43:30.48Z</time></trkpt><trkpt lat="40.7285033" lon="9.3412481"><ele>474.0</ele><time>2026-04-12T13:43:31.47Z</time></trkpt><trkpt lat="40.7285655" lon="9.3413938"><ele>474.0</ele><time>2026-04-12T13:43:32.464Z</time></trkpt><trkpt lat="40.7286397" lon="9.3415251"><ele>474.0</ele><time>2026-04-12T13:43:33.464Z</time></trkpt><trkpt lat="40.728722" lon="9.3416394"><ele>474.0</ele><time>2026-04-12T13:43:34.468Z</time></trkpt><trkpt lat="40.7288162" lon="9.341735"><ele>474.0</ele><time>2026-04-12T13:43:35.485Z</time></trkpt><trkpt lat="40.7289243" lon="9.3418134"><ele>474.0</ele><time>2026-04-12T13:43:36.463Z</time></trkpt><trkpt lat="40.729039" lon="9.3418831"><ele>474.0</ele><time>2026-04-12T13:43:37.463Z</time></trkpt><trkpt lat="40.729145" lon="9.341947"><ele>474.0</ele><time>2026-04-12T13:43:38.464Z</time></trkpt><trkpt lat="40.7292455" lon="9.3419951"><ele>474.0</ele><time>2026-04-12T13:43:39.46Z</time></trkpt><trkpt lat="40.7293495" lon="9.3420281"><ele>473.79999999999995</ele><time>2026-04-12T13:43:40.456Z</time></trkpt><trkpt lat="40.7294501" lon="9.3420602"><ele>473.59999999999997</ele><time>2026-04-12T13:43:41.469Z</time></trkpt><trkpt lat="40.7295471" lon="9.3420923"><ele>473.4</ele><time>2026-04-12T13:43:42.462Z</time></trkpt><trkpt lat="40.7296459" lon="9.3421231"><ele>473.2</ele><time>2026-04-12T13:43:43.481Z</time></trkpt><trkpt lat="40.7297536" lon="9.3421622"><ele>473.0</ele><time>2026-04-12T13:43:44.505Z</time></trkpt><trkpt lat="40.729861" lon="9.3422156"><ele>473.0</ele><time>2026-04-12T13:43:45.456Z</time></trkpt><trkpt lat="40.729962" lon="9.3422932"><ele>473.0</ele><time>2026-04-12T13:43:46.455Z</time></trkpt><trkpt lat="40.7300516" lon="9.3423992"><ele>473.0</ele><time>2026-04-12T13:43:47.46Z</time></trkpt><trkpt lat="40.7301264" lon="9.3425356"><ele>473.0</ele><time>2026-04-12T13:43:48.461Z</time></trkpt><trkpt lat="40.7302114" lon="9.3426665"><ele>473.0</ele><time>2026-04-12T13:43:49.449Z</time></trkpt><trkpt lat="40.7303222" lon="9.3427752"><ele>473.0</ele><time>2026-04-12T13:43:50.447Z</time></trkpt><trkpt lat="40.7304413" lon="9.3428755"><ele>473.0</ele><time>2026-04-12T13:43:51.456Z</time></trkpt><trkpt lat="40.7305656" lon="9.3429802"><ele>473.0</ele><time>2026-04-12T13:43:52.454Z</time></trkpt><trkpt lat="40.7306928" lon="9.3430938"><ele>473.0</ele><time>2026-04-12T13:43:53.473Z</time></trkpt><trkpt lat="40.7308156" lon="9.3432096"><ele>473.0</ele><time>2026-04-12T13:43:54.467Z</time></trkpt><trkpt lat="40.7309365" lon="9.3433375"><ele>473.0</ele><time>2026-04-12T13:43:55.458Z</time></trkpt><trkpt lat="40.7310506" lon="9.3434774"><ele>472.66666666666663</ele><time>2026-04-12T13:43:56.446Z</time></trkpt><trkpt lat="40.7311556" lon="9.343622"><ele>472.33333333333337</ele><time>2026-04-12T13:43:57.447Z</time></trkpt><trkpt lat="40.7312596" lon="9.343767"><ele>472.0</ele><time>2026-04-12T13:43:58.442Z</time></trkpt><trkpt lat="40.7313658" lon="9.3439086"><ele>472.0</ele><time>2026-04-12T13:43:59.45Z</time></trkpt><trkpt lat="40.7314708" lon="9.3440417"><ele>472.0</ele><time>2026-04-12T13:44:00.447Z</time></trkpt><trkpt lat="40.7315746" lon="9.3441748"><ele>472.0</ele><time>2026-04-12T13:44:01.464Z</time></trkpt><trkpt lat="40.7316749" lon="9.3443067"><ele>472.0</ele><time>2026-04-12T13:44:02.437Z</time></trkpt><trkpt lat="40.7317713" lon="9.3444435"><ele>472.0</ele><time>2026-04-12T13:44:03.446Z</time></trkpt><trkpt lat="40.7318659" lon="9.3445798"><ele>472.0</ele><time>2026-04-12T13:44:04.436Z</time></trkpt><trkpt lat="40.7319635" lon="9.3447148"><ele>472.0</ele><time>2026-04-12T13:44:05.432Z</time></trkpt><trkpt lat="40.7320624" lon="9.3448448"><ele>472.0</ele><time>2026-04-12T13:44:06.452Z</time></trkpt><trkpt lat="40.7321678" lon="9.3449679"><ele>472.5</ele><time>2026-04-12T13:44:07.449Z</time></trkpt><trkpt lat="40.7322823" lon="9.3450856"><ele>473.0</ele><time>2026-04-12T13:44:08.428Z</time></trkpt><trkpt lat="40.7324036" lon="9.3451973"><ele>473.5</ele><time>2026-04-12T13:44:09.434Z</time></trkpt><trkpt lat="40.7325292" lon="9.3453054"><ele>474.0</ele><time>2026-04-12T13:44:10.452Z</time></trkpt><trkpt lat="40.7326571" lon="9.3454107"><ele>474.0</ele><time>2026-04-12T13:44:11.433Z</time></trkpt><trkpt lat="40.7327843" lon="9.345512"><ele>474.0</ele><time>2026-04-12T13:44:12.426Z</time></trkpt><trkpt lat="40.7329031" lon="9.3456106"><ele>474.0</ele><time>2026-04-12T13:44:13.425Z</time></trkpt><trkpt lat="40.7330202" lon="9.3457036"><ele>474.0</ele><time>2026-04-12T13:44:14.426Z</time></trkpt><trkpt lat="40.7331434" lon="9.3457883"><ele>474.75</ele><time>2026-04-12T13:44:15.437Z</time></trkpt><trkpt lat="40.7332682" lon="9.3458589"><ele>475.5</ele><time>2026-04-12T13:44:16.44Z</time></trkpt><trkpt lat="40.7333973" lon="9.3459364"><ele>476.25</ele><time>2026-04-12T13:44:17.425Z</time></trkpt><trkpt lat="40.7335322" lon="9.3460122"><ele>477.0</ele><time>2026-04-12T13:44:18.42Z</time></trkpt><trkpt lat="40.7336681" lon="9.3460881"><ele>476.5</ele><time>2026-04-12T13:44:19.441Z</time></trkpt><trkpt lat="40.7338021" lon="9.3461639"><ele>476.0</ele><time>2026-04-12T13:44:20.42Z</time></trkpt><trkpt lat="40.7339295" lon="9.3462348"><ele>475.5</ele><time>2026-04-12T13:44:21.417Z</time></trkpt><trkpt lat="40.7340469" lon="9.3463084"><ele>475.0</ele><time>2026-04-12T13:44:22.422Z</time></trkpt><trkpt lat="40.7341582" lon="9.3463887"><ele>475.0</ele><time>2026-04-12T13:44:23.416Z</time></trkpt><trkpt lat="40.7342564" lon="9.3464818"><ele>475.0</ele><time>2026-04-12T13:44:24.43Z</time></trkpt><trkpt lat="40.7343371" lon="9.3466039"><ele>475.0</ele><time>2026-04-12T13:44:25.412Z</time></trkpt><trkpt lat="40.7344099" lon="9.3467524"><ele>475.0</ele><time>2026-04-12T13:44:26.412Z</time></trkpt><trkpt lat="40.7344837" lon="9.3468979"><ele>472.75</ele><time>2026-04-12T13:44:27.405Z</time></trkpt><trkpt lat="40.7345606" lon="9.3470361"><ele>470.5</ele><time>2026-04-12T13:44:28.411Z</time></trkpt><trkpt lat="40.7346476" lon="9.3471615"><ele>468.25</ele><time>2026-04-12T13:44:29.409Z</time></trkpt><trkpt lat="40.734749" lon="9.3472778"><ele>466.0</ele><time>2026-04-12T13:44:30.409Z</time></trkpt><trkpt lat="40.7348602" lon="9.3473798"><ele>465.75</ele><time>2026-04-12T13:44:31.404Z</time></trkpt><trkpt lat="40.7349836" lon="9.3474716"><ele>465.5</ele><time>2026-04-12T13:44:32.405Z</time></trkpt><trkpt lat="40.7351086" lon="9.3475588"><ele>465.25</ele><time>2026-04-12T13:44:33.405Z</time></trkpt><trkpt lat="40.7352323" lon="9.3476489"><ele>465.0</ele><time>2026-04-12T13:44:34.411Z</time></trkpt><trkpt lat="40.7353548" lon="9.3477337"><ele>462.75</ele><time>2026-04-12T13:44:35.407Z</time></trkpt><trkpt lat="40.7354739" lon="9.3478279"><ele>460.5</ele><time>2026-04-12T13:44:36.42Z</time></trkpt><trkpt lat="40.7355895" lon="9.3479272"><ele>458.25</ele><time>2026-04-12T13:44:37.402Z</time></trkpt><trkpt lat="40.7356876" lon="9.3480398"><ele>456.0</ele><time>2026-04-12T13:44:38.417Z</time></trkpt><trkpt lat="40.7357819" lon="9.3481705"><ele>455.5</ele><time>2026-04-12T13:44:39.409Z</time></trkpt><trkpt lat="40.7358788" lon="9.34831"><ele>455.0</ele><time>2026-04-12T13:44:40.409Z</time></trkpt><trkpt lat="40.735976" lon="9.3484465"><ele>454.5</ele><time>2026-04-12T13:44:41.403Z</time></trkpt><trkpt lat="40.736076" lon="9.348591"><ele>454.0</ele><time>2026-04-12T13:44:42.399Z</time></trkpt><trkpt lat="40.7361764" lon="9.3487488"><ele>452.0</ele><time>2026-04-12T13:44:43.399Z</time></trkpt><trkpt lat="40.7362714" lon="9.3489062"><ele>450.0</ele><time>2026-04-12T13:44:44.393Z</time></trkpt><trkpt lat="40.7363702" lon="9.3490605"><ele>448.0</ele><time>2026-04-12T13:44:45.397Z</time></trkpt><trkpt lat="40.7364627" lon="9.3492163"><ele>448.0</ele><time>2026-04-12T13:44:46.393Z</time></trkpt><trkpt lat="40.7365541" lon="9.3493746"><ele>448.0</ele><time>2026-04-12T13:44:47.4Z</time></trkpt><trkpt lat="40.7366474" lon="9.3495286"><ele>448.0</ele><time>2026-04-12T13:44:48.393Z</time></trkpt><trkpt lat="40.7367353" lon="9.3496877"><ele>448.0</ele><time>2026-04-12T13:44:49.395Z</time></trkpt><trkpt lat="40.7368171" lon="9.3498479"><ele>448.25</ele><time>2026-04-12T13:44:50.394Z</time></trkpt><trkpt lat="40.7368969" lon="9.3500056"><ele>448.5</ele><time>2026-04-12T13:44:51.488Z</time></trkpt><trkpt lat="40.7369736" lon="9.3501634"><ele>448.75</ele><time>2026-04-12T13:44:52.491Z</time></trkpt><trkpt lat="40.7370531" lon="9.350318"><ele>449.0</ele><time>2026-04-12T13:44:53.483Z</time></trkpt><trkpt lat="40.7371304" lon="9.3504716"><ele>449.0</ele><time>2026-04-12T13:44:54.492Z</time></trkpt><trkpt lat="40.7372083" lon="9.3506253"><ele>449.0</ele><time>2026-04-12T13:44:55.496Z</time></trkpt><trkpt lat="40.7372841" lon="9.3507779"><ele>449.0</ele><time>2026-04-12T13:44:56.484Z</time></trkpt><trkpt lat="40.7373606" lon="9.3509362"><ele>449.0</ele><time>2026-04-12T13:44:57.48Z</time></trkpt><trkpt lat="40.7374396" lon="9.3510991"><ele>449.0</ele><time>2026-04-12T13:44:58.483Z</time></trkpt><trkpt lat="40.7375215" lon="9.3512626"><ele>449.0</ele><time>2026-04-12T13:44:59.484Z</time></trkpt><trkpt lat="40.7376036" lon="9.3514254"><ele>449.0</ele><time>2026-04-12T13:45:00.493Z</time></trkpt><trkpt lat="40.7376884" lon="9.3515942"><ele>450.0</ele><time>2026-04-12T13:45:01.48Z</time></trkpt><trkpt lat="40.737775" lon="9.3517708"><ele>451.0</ele><time>2026-04-12T13:45:02.487Z</time></trkpt><trkpt lat="40.7378667" lon="9.3519471"><ele>452.0</ele><time>2026-04-12T13:45:03.477Z</time></trkpt><trkpt lat="40.7379565" lon="9.3521262"><ele>452.3333333333333</ele><time>2026-04-12T13:45:04.476Z</time></trkpt><trkpt lat="40.7380462" lon="9.3523068"><ele>452.66666666666663</ele><time>2026-04-12T13:45:05.481Z</time></trkpt><trkpt lat="40.7381342" lon="9.3524929"><ele>453.0</ele><time>2026-04-12T13:45:06.476Z</time></trkpt><trkpt lat="40.7382168" lon="9.3526835"><ele>453.0</ele><time>2026-04-12T13:45:07.482Z</time></trkpt><trkpt lat="40.7382857" lon="9.352879"><ele>453.0</ele><time>2026-04-12T13:45:08.471Z</time></trkpt><trkpt lat="40.7383472" lon="9.3530831"><ele>453.0</ele><time>2026-04-12T13:45:09.474Z</time></trkpt><trkpt lat="40.7384093" lon="9.3532936"><ele>453.0</ele><time>2026-04-12T13:45:10.474Z</time></trkpt><trkpt lat="40.7384687" lon="9.3535066"><ele>453.0</ele><time>2026-04-12T13:45:11.468Z</time></trkpt><trkpt lat="40.7385251" lon="9.3537138"><ele>453.0</ele><time>2026-04-12T13:45:12.469Z</time></trkpt><trkpt lat="40.7385753" lon="9.3539005"><ele>453.2</ele><time>2026-04-12T13:45:13.465Z</time></trkpt><trkpt lat="40.7386146" lon="9.3540583"><ele>453.4</ele><time>2026-04-12T13:45:14.469Z</time></trkpt><trkpt lat="40.7386541" lon="9.3541946"><ele>453.59999999999997</ele><time>2026-04-12T13:45:15.47Z</time></trkpt><trkpt lat="40.7386893" lon="9.3543266"><ele>453.79999999999995</ele><time>2026-04-12T13:45:16.464Z</time></trkpt><trkpt lat="40.7387283" lon="9.3544567"><ele>454.0</ele><time>2026-04-12T13:45:17.474Z</time></trkpt><trkpt lat="40.7387698" lon="9.3545893"><ele>453.75</ele><time>2026-04-12T13:45:18.467Z</time></trkpt><trkpt lat="40.7388078" lon="9.3547283"><ele>453.5</ele><time>2026-04-12T13:45:19.472Z</time></trkpt><trkpt lat="40.7388432" lon="9.35488"><ele>453.25</ele><time>2026-04-12T13:45:20.472Z</time></trkpt><trkpt lat="40.73887" lon="9.3550377"><ele>453.0</ele><time>2026-04-12T13:45:21.467Z</time></trkpt><trkpt lat="40.7388886" lon="9.3552062"><ele>453.0</ele><time>2026-04-12T13:45:22.46Z</time></trkpt><trkpt lat="40.738899" lon="9.3553764"><ele>453.0</ele><time>2026-04-12T13:45:23.481Z</time></trkpt><trkpt lat="40.7389113" lon="9.3555455"><ele>453.0</ele><time>2026-04-12T13:45:24.476Z</time></trkpt><trkpt lat="40.7389375" lon="9.3557074"><ele>453.0</ele><time>2026-04-12T13:45:25.471Z</time></trkpt><trkpt lat="40.7389743" lon="9.3558724"><ele>453.0</ele><time>2026-04-12T13:45:26.463Z</time></trkpt><trkpt lat="40.7390169" lon="9.3560404"><ele>453.0</ele><time>2026-04-12T13:45:27.47Z</time></trkpt><trkpt lat="40.7390651" lon="9.3562038"><ele>453.0</ele><time>2026-04-12T13:45:28.456Z</time></trkpt><trkpt lat="40.7391199" lon="9.356361"><ele>453.0</ele><time>2026-04-12T13:45:29.471Z</time></trkpt><trkpt lat="40.7391814" lon="9.3565107"><ele>453.75</ele><time>2026-04-12T13:45:30.464Z</time></trkpt><trkpt lat="40.7392566" lon="9.3566533"><ele>454.5</ele><time>2026-04-12T13:45:31.491Z</time></trkpt><trkpt lat="40.739334" lon="9.3567917"><ele>455.25</ele><time>2026-04-12T13:45:32.461Z</time></trkpt><trkpt lat="40.7394181" lon="9.3569227"><ele>456.0</ele><time>2026-04-12T13:45:33.469Z</time></trkpt><trkpt lat="40.7395053" lon="9.3570493"><ele>456.0</ele><time>2026-04-12T13:45:34.467Z</time></trkpt><trkpt lat="40.7395919" lon="9.3571792"><ele>456.0</ele><time>2026-04-12T13:45:35.469Z</time></trkpt><trkpt lat="40.7396727" lon="9.3573091"><ele>456.0</ele><time>2026-04-12T13:45:36.461Z</time></trkpt><trkpt lat="40.7397532" lon="9.3574437"><ele>456.0</ele><time>2026-04-12T13:45:37.462Z</time></trkpt><trkpt lat="40.7398363" lon="9.3575808"><ele>456.25</ele><time>2026-04-12T13:45:38.462Z</time></trkpt><trkpt lat="40.7399234" lon="9.3577211"><ele>456.5</ele><time>2026-04-12T13:45:39.47Z</time></trkpt><trkpt lat="40.7400133" lon="9.3578651"><ele>456.75</ele><time>2026-04-12T13:45:40.453Z</time></trkpt><trkpt lat="40.7401033" lon="9.3579988"><ele>457.0</ele><time>2026-04-12T13:45:41.455Z</time></trkpt><trkpt lat="40.7401924" lon="9.3581247"><ele>457.5</ele><time>2026-04-12T13:45:42.476Z</time></trkpt><trkpt lat="40.7402823" lon="9.3582464"><ele>458.0</ele><time>2026-04-12T13:45:43.459Z</time></trkpt><trkpt lat="40.7403742" lon="9.358367"><ele>458.5</ele><time>2026-04-12T13:45:44.452Z</time></trkpt><trkpt lat="40.7404702" lon="9.3584772"><ele>459.0</ele><time>2026-04-12T13:45:45.469Z</time></trkpt><trkpt lat="40.740565" lon="9.3585709"><ele>459.0</ele><time>2026-04-12T13:45:46.461Z</time></trkpt><trkpt lat="40.7406548" lon="9.3586681"><ele>459.0</ele><time>2026-04-12T13:45:47.461Z</time></trkpt><trkpt lat="40.7407337" lon="9.3587714"><ele>459.0</ele><time>2026-04-12T13:45:48.461Z</time></trkpt><trkpt lat="40.7407977" lon="9.3588794"><ele>459.0</ele><time>2026-04-12T13:45:49.46Z</time></trkpt><trkpt lat="40.7408473" lon="9.3589975"><ele>459.0</ele><time>2026-04-12T13:45:50.453Z</time></trkpt><trkpt lat="40.740874" lon="9.3591426"><ele>460.75</ele><time>2026-04-12T13:45:51.463Z</time></trkpt><trkpt lat="40.740887" lon="9.359297"><ele>462.5</ele><time>2026-04-12T13:45:52.457Z</time></trkpt><trkpt lat="40.7408993" lon="9.3594706"><ele>464.25</ele><time>2026-04-12T13:45:53.463Z</time></trkpt><trkpt lat="40.7409116" lon="9.3596561"><ele>466.0</ele><time>2026-04-12T13:45:54.447Z</time></trkpt><trkpt lat="40.7409293" lon="9.3598479"><ele>466.0</ele><time>2026-04-12T13:45:55.456Z</time></trkpt><trkpt lat="40.7409528" lon="9.360037"><ele>466.0</ele><time>2026-04-12T13:45:56.452Z</time></trkpt><trkpt lat="40.7409887" lon="9.3602296"><ele>466.0</ele><time>2026-04-12T13:45:57.459Z</time></trkpt><trkpt lat="40.7410374" lon="9.360423"><ele>463.0</ele><time>2026-04-12T13:45:58.459Z</time></trkpt><trkpt lat="40.7410978" lon="9.36061"><ele>460.0</ele><time>2026-04-12T13:45:59.458Z</time></trkpt><trkpt lat="40.7411571" lon="9.3607919"><ele>457.0</ele><time>2026-04-12T13:46:00.444Z</time></trkpt><trkpt lat="40.7411989" lon="9.3609777"><ele>457.0</ele><time>2026-04-12T13:46:01.443Z</time></trkpt><trkpt lat="40.7412237" lon="9.3611625"><ele>457.0</ele><time>2026-04-12T13:46:02.442Z</time></trkpt><trkpt lat="40.7412292" lon="9.3613507"><ele>457.0</ele><time>2026-04-12T13:46:03.465Z</time></trkpt><trkpt lat="40.7412175" lon="9.3615436"><ele>457.0</ele><time>2026-04-12T13:46:04.455Z</time></trkpt><trkpt lat="40.7411897" lon="9.3617397"><ele>457.6666666666667</ele><time>2026-04-12T13:46:05.469Z</time></trkpt><trkpt lat="40.7411565" lon="9.3619442"><ele>458.33333333333337</ele><time>2026-04-12T13:46:06.453Z</time></trkpt><trkpt lat="40.7411229" lon="9.362147"><ele>459.0</ele><time>2026-04-12T13:46:07.447Z</time></trkpt><trkpt lat="40.7410868" lon="9.3623501"><ele>460.0</ele><time>2026-04-12T13:46:08.455Z</time></trkpt><trkpt lat="40.741052" lon="9.3625588"><ele>461.0</ele><time>2026-04-12T13:46:09.446Z</time></trkpt><trkpt lat="40.7410172" lon="9.3627577"><ele>462.0</ele><time>2026-04-12T13:46:10.441Z</time></trkpt><trkpt lat="40.7409812" lon="9.3629419"><ele>462.8</ele><time>2026-04-12T13:46:11.468Z</time></trkpt><trkpt lat="40.7409448" lon="9.3631008"><ele>463.6</ele><time>2026-04-12T13:46:12.445Z</time></trkpt><trkpt lat="40.7409071" lon="9.363235"><ele>464.40000000000003</ele><time>2026-04-12T13:46:13.441Z</time></trkpt><trkpt lat="40.7408735" lon="9.3633452"><ele>465.20000000000005</ele><time>2026-04-12T13:46:14.438Z</time></trkpt><trkpt lat="40.7408455" lon="9.3634282"><ele>466.0</ele><time>2026-04-12T13:46:15.444Z</time></trkpt><trkpt lat="40.740803" lon="9.3635555"><ele>466.00000000000006</ele><time>2026-04-12T13:46:17.454Z</time></trkpt><trkpt lat="40.7407749" lon="9.3636332"><ele>466.0</ele><time>2026-04-12T13:46:19.452Z</time></trkpt><trkpt lat="40.7407447" lon="9.3637147"><ele>466.0</ele><time>2026-04-12T13:46:23.436Z</time></trkpt><trkpt lat="40.7407206" lon="9.3638168"><ele>466.0</ele><time>2026-04-12T13:51:09.405Z</time></trkpt><trkpt lat="40.740684" lon="9.3639471"><ele>466.00000000000006</ele><time>2026-04-12T13:51:11.392Z</time></trkpt><trkpt lat="40.7406388" lon="9.3640868"><ele>466.0</ele><time>2026-04-12T13:51:13.396Z</time></trkpt><trkpt lat="40.7405871" lon="9.3642425"><ele>465.6666666666667</ele><time>2026-04-12T13:51:15.391Z</time></trkpt><trkpt lat="40.7405556" lon="9.3643247"><ele>465.33333333333337</ele><time>2026-04-12T13:51:16.502Z</time></trkpt><trkpt lat="40.7404981" lon="9.3644958"><ele>465.0</ele><time>2026-04-12T13:51:18.408Z</time></trkpt><trkpt lat="40.7404698" lon="9.3645838"><ele>464.66666666666663</ele><time>2026-04-12T13:51:19.398Z</time></trkpt><trkpt lat="40.7404413" lon="9.3646702"><ele>464.3333333333333</ele><time>2026-04-12T13:51:20.497Z</time></trkpt><trkpt lat="40.7404136" lon="9.3647538"><ele>464.0</ele><time>2026-04-12T13:51:21.486Z</time></trkpt><trkpt lat="40.7403832" lon="9.3648366"><ele>463.99999999999994</ele><time>2026-04-12T13:51:22.487Z</time></trkpt><trkpt lat="40.740356" lon="9.3649198"><ele>464.0</ele><time>2026-04-12T13:51:23.486Z</time></trkpt><trkpt lat="40.7403342" lon="9.364998"><ele>464.0</ele><time>2026-04-12T13:51:24.48Z</time></trkpt><trkpt lat="40.7402888" lon="9.3651296"><ele>464.0</ele><time>2026-04-12T13:51:26.486Z</time></trkpt><trkpt lat="40.7402474" lon="9.3652283"><ele>463.99999999999994</ele><time>2026-04-12T13:51:28.485Z</time></trkpt><trkpt lat="40.7402116" lon="9.3653195"><ele>464.0</ele><time>2026-04-12T13:51:30.498Z</time></trkpt><trkpt lat="40.7401969" lon="9.3654106"><ele>464.0</ele><time>2026-04-12T13:51:33.48Z</time></trkpt><trkpt lat="40.7402384" lon="9.365527"><ele>464.0</ele><time>2026-04-12T13:51:35.474Z</time></trkpt><trkpt lat="40.7402973" lon="9.3655859"><ele>464.0</ele><time>2026-04-12T13:51:36.475Z</time></trkpt><trkpt lat="40.7403803" lon="9.3656456"><ele>464.0</ele><time>2026-04-12T13:51:37.476Z</time></trkpt><trkpt lat="40.7404787" lon="9.3657037"><ele>464.0</ele><time>2026-04-12T13:51:38.468Z</time></trkpt><trkpt lat="40.7405847" lon="9.3657559"><ele>464.25</ele><time>2026-04-12T13:51:39.47Z</time></trkpt><trkpt lat="40.7406981" lon="9.365798"><ele>464.5</ele><time>2026-04-12T13:51:40.475Z</time></trkpt><trkpt lat="40.7408232" lon="9.3658219"><ele>464.75</ele><time>2026-04-12T13:51:41.474Z</time></trkpt><trkpt lat="40.7409504" lon="9.3658333"><ele>465.0</ele><time>2026-04-12T13:51:42.474Z</time></trkpt><trkpt lat="40.7410727" lon="9.365841"><ele>465.2</ele><time>2026-04-12T13:51:43.476Z</time></trkpt><trkpt lat="40.7411888" lon="9.3658435"><ele>465.4</ele><time>2026-04-12T13:51:44.47Z</time></trkpt><trkpt lat="40.7412974" lon="9.3658547"><ele>465.6</ele><time>2026-04-12T13:51:45.486Z</time></trkpt><trkpt lat="40.7414006" lon="9.3658642"><ele>465.8</ele><time>2026-04-12T13:51:46.479Z</time></trkpt><trkpt lat="40.74149" lon="9.365866"><ele>466.0</ele><time>2026-04-12T13:51:47.471Z</time></trkpt><trkpt lat="40.7415684" lon="9.3658652"><ele>466.00000000000006</ele><time>2026-04-12T13:51:48.477Z</time></trkpt><trkpt lat="40.741642" lon="9.3658672"><ele>466.0</ele><time>2026-04-12T13:51:49.47Z</time></trkpt><trkpt lat="40.7417071" lon="9.365874"><ele>466.0</ele><time>2026-04-12T13:51:50.47Z</time></trkpt><trkpt lat="40.7418126" lon="9.3658822"><ele>466.0</ele><time>2026-04-12T13:51:52.495Z</time></trkpt><trkpt lat="40.7418934" lon="9.3658942"><ele>466.00000000000006</ele><time>2026-04-12T13:51:54.464Z</time></trkpt><trkpt lat="40.7419606" lon="9.3659019"><ele>466.0</ele><time>2026-04-12T13:51:56.472Z</time></trkpt><trkpt lat="40.7420496" lon="9.3658997"><ele>466.33333333333337</ele><time>2026-04-12T13:51:59.477Z</time></trkpt><trkpt lat="40.7421273" lon="9.365919"><ele>466.6666666666667</ele><time>2026-04-12T13:52:02.491Z</time></trkpt><trkpt lat="40.7421623" lon="9.3660275"><ele>467.0</ele><time>2026-04-12T13:52:05.465Z</time></trkpt><trkpt lat="40.7421713" lon="9.3661237"><ele>467.33333333333337</ele><time>2026-04-12T13:52:07.475Z</time></trkpt><trkpt lat="40.7421765" lon="9.366241"><ele>467.6666666666667</ele><time>2026-04-12T13:52:10.476Z</time></trkpt><trkpt lat="40.7421745" lon="9.3663545"><ele>468.0</ele><time>2026-04-12T13:52:13.456Z</time></trkpt><trkpt lat="40.7421899" lon="9.3664555"><ele>468.0</ele><time>2026-04-12T13:52:16.455Z</time></trkpt><trkpt lat="40.7422026" lon="9.3665512"><ele>468.0</ele><time>2026-04-12T13:52:49.424Z</time></trkpt><trkpt lat="40.7422418" lon="9.3666164"><ele>468.0</ele><time>2026-04-12T13:52:51.42Z</time></trkpt><trkpt lat="40.7423023" lon="9.3667272"><ele>468.0</ele><time>2026-04-12T13:52:53.436Z</time></trkpt><trkpt lat="40.742352" lon="9.366879"><ele>468.0</ele><time>2026-04-12T13:52:55.427Z</time></trkpt><trkpt lat="40.7423635" lon="9.3669657"><ele>468.0</ele><time>2026-04-12T13:52:56.439Z</time></trkpt><trkpt lat="40.7423744" lon="9.3671265"><ele>467.8333333333333</ele><time>2026-04-12T13:52:58.437Z</time></trkpt><trkpt lat="40.7423746" lon="9.3672145"><ele>467.66666666666663</ele><time>2026-04-12T13:52:59.417Z</time></trkpt><trkpt lat="40.7423753" lon="9.3673132"><ele>467.5</ele><time>2026-04-12T13:53:00.419Z</time></trkpt><trkpt lat="40.7423843" lon="9.3674178"><ele>467.3333333333333</ele><time>2026-04-12T13:53:01.42Z</time></trkpt><trkpt lat="40.7424022" lon="9.3675127"><ele>467.16666666666663</ele><time>2026-04-12T13:53:02.422Z</time></trkpt><trkpt lat="40.74243" lon="9.3676073"><ele>467.0</ele><time>2026-04-12T13:53:03.416Z</time></trkpt><trkpt lat="40.7424666" lon="9.3677021"><ele>466.99999999999994</ele><time>2026-04-12T13:53:04.431Z</time></trkpt><trkpt lat="40.74251" lon="9.3678058"><ele>467.0</ele><time>2026-04-12T13:53:05.413Z</time></trkpt><trkpt lat="40.742546" lon="9.3679007"><ele>467.0</ele><time>2026-04-12T13:53:06.438Z</time></trkpt><trkpt lat="40.7425687" lon="9.3679881"><ele>467.0</ele><time>2026-04-12T13:53:07.417Z</time></trkpt><trkpt lat="40.7425844" lon="9.3680698"><ele>466.99999999999994</ele><time>2026-04-12T13:53:08.411Z</time></trkpt><trkpt lat="40.7425978" lon="9.3682424"><ele>467.0</ele><time>2026-04-12T13:53:10.413Z</time></trkpt><trkpt lat="40.7425961" lon="9.3683408"><ele>467.66666666666663</ele><time>2026-04-12T13:53:11.412Z</time></trkpt><trkpt lat="40.7425852" lon="9.368437"><ele>468.3333333333333</ele><time>2026-04-12T13:53:12.41Z</time></trkpt><trkpt lat="40.7425732" lon="9.3685357"><ele>469.0</ele><time>2026-04-12T13:53:13.405Z</time></trkpt><trkpt lat="40.7425468" lon="9.368642"><ele>469.66666666666663</ele><time>2026-04-12T13:53:14.447Z</time></trkpt><trkpt lat="40.7425178" lon="9.3687543"><ele>470.3333333333333</ele><time>2026-04-12T13:53:15.414Z</time></trkpt><trkpt lat="40.7424884" lon="9.3688736"><ele>471.0</ele><time>2026-04-12T13:53:16.404Z</time></trkpt><trkpt lat="40.7424556" lon="9.3689991"><ele>471.8333333333333</ele><time>2026-04-12T13:53:17.405Z</time></trkpt><trkpt lat="40.7424216" lon="9.3691154"><ele>472.66666666666663</ele><time>2026-04-12T13:53:18.409Z</time></trkpt><trkpt lat="40.7423985" lon="9.3692205"><ele>473.5</ele><time>2026-04-12T13:53:19.399Z</time></trkpt><trkpt lat="40.7423877" lon="9.3693346"><ele>474.3333333333333</ele><time>2026-04-12T13:53:20.4Z</time></trkpt><trkpt lat="40.7423892" lon="9.3694479"><ele>475.16666666666663</ele><time>2026-04-12T13:53:21.396Z</time></trkpt><trkpt lat="40.7424048" lon="9.3695612"><ele>476.0</ele><time>2026-04-12T13:53:22.406Z</time></trkpt><trkpt lat="40.7424267" lon="9.369659"><ele>475.99999999999994</ele><time>2026-04-12T13:53:23.402Z</time></trkpt><trkpt lat="40.742454" lon="9.3697404"><ele>476.0</ele><time>2026-04-12T13:53:24.398Z</time></trkpt><trkpt lat="40.7424896" lon="9.3698245"><ele>476.0</ele><time>2026-04-12T13:53:25.396Z</time></trkpt><trkpt lat="40.7425313" lon="9.3699238"><ele>476.0</ele><time>2026-04-12T13:53:26.393Z</time></trkpt><trkpt lat="40.7425728" lon="9.3700306"><ele>475.99999999999994</ele><time>2026-04-12T13:53:27.43Z</time></trkpt><trkpt lat="40.7426147" lon="9.370145"><ele>476.0</ele><time>2026-04-12T13:53:28.404Z</time></trkpt><trkpt lat="40.742646" lon="9.3702617"><ele>476.0</ele><time>2026-04-12T13:53:29.398Z</time></trkpt><trkpt lat="40.7426769" lon="9.3703782"><ele>476.0</ele><time>2026-04-12T13:53:30.403Z</time></trkpt><trkpt lat="40.7427067" lon="9.3704945"><ele>476.0</ele><time>2026-04-12T13:53:31.403Z</time></trkpt><trkpt lat="40.742731" lon="9.3706117"><ele>476.0</ele><time>2026-04-12T13:53:32.397Z</time></trkpt><trkpt lat="40.7427548" lon="9.3707237"><ele>476.0</ele><time>2026-04-12T13:53:33.402Z</time></trkpt><trkpt lat="40.7427758" lon="9.3708323"><ele>479.3333333333333</ele><time>2026-04-12T13:53:34.393Z</time></trkpt><trkpt lat="40.7428016" lon="9.3709427"><ele>482.66666666666663</ele><time>2026-04-12T13:53:35.391Z</time></trkpt><trkpt lat="40.7428205" lon="9.3710513"><ele>486.0</ele><time>2026-04-12T13:53:36.413Z</time></trkpt><trkpt lat="40.7428375" lon="9.371163"><ele>489.33333333333337</ele><time>2026-04-12T13:53:37.391Z</time></trkpt><trkpt lat="40.7428619" lon="9.3712728"><ele>492.6666666666667</ele><time>2026-04-12T13:53:38.389Z</time></trkpt><trkpt lat="40.7428972" lon="9.3713736"><ele>496.0</ele><time>2026-04-12T13:53:39.407Z</time></trkpt><trkpt lat="40.7429345" lon="9.3714788"><ele>497.1666666666667</ele><time>2026-04-12T13:53:40.396Z</time></trkpt><trkpt lat="40.7429598" lon="9.3715852"><ele>498.33333333333337</ele><time>2026-04-12T13:53:41.395Z</time></trkpt><trkpt lat="40.7429661" lon="9.3716841"><ele>499.5</ele><time>2026-04-12T13:53:42.405Z</time></trkpt><trkpt lat="40.7429652" lon="9.3717877"><ele>500.66666666666663</ele><time>2026-04-12T13:53:43.395Z</time></trkpt><trkpt lat="40.7429663" lon="9.3718923"><ele>501.8333333333333</ele><time>2026-04-12T13:53:44.402Z</time></trkpt><trkpt lat="40.7429664" lon="9.3719939"><ele>503.0</ele><time>2026-04-12T13:53:45.396Z</time></trkpt><trkpt lat="40.7429648" lon="9.372098"><ele>504.59999999999997</ele><time>2026-04-12T13:53:46.398Z</time></trkpt><trkpt lat="40.7429619" lon="9.3722104"><ele>506.19999999999993</ele><time>2026-04-12T13:53:47.399Z</time></trkpt><trkpt lat="40.7429561" lon="9.3723006"><ele>507.8</ele><time>2026-04-12T13:53:48.389Z</time></trkpt><trkpt lat="40.7429386" lon="9.37247"><ele>509.4</ele><time>2026-04-12T13:53:50.385Z</time></trkpt><trkpt lat="40.7428996" lon="9.372561"><ele>511.0</ele><time>2026-04-12T13:53:51.39Z</time></trkpt><trkpt lat="40.7428459" lon="9.3726531"><ele>511.00000000000006</ele><time>2026-04-12T13:53:52.389Z</time></trkpt><trkpt lat="40.7427785" lon="9.3727324"><ele>511.0</ele><time>2026-04-12T13:53:53.392Z</time></trkpt><trkpt lat="40.7427181" lon="9.3727994"><ele>511.0</ele><time>2026-04-12T13:53:54.388Z</time></trkpt><trkpt lat="40.7426719" lon="9.3728603"><ele>511.0</ele><time>2026-04-12T13:53:55.385Z</time></trkpt><trkpt lat="40.7426269" lon="9.3729623"><ele>511.00000000000006</ele><time>2026-04-12T13:53:57.398Z</time></trkpt><trkpt lat="40.7426548" lon="9.3730426"><ele>511.0</ele><time>2026-04-12T13:54:00.418Z</time></trkpt><trkpt lat="40.7427264" lon="9.3730356"><ele>511.0</ele><time>2026-04-12T13:54:02.526Z</time></trkpt><trkpt lat="40.7428256" lon="9.3729916"><ele>511.0</ele><time>2026-04-12T13:54:04.519Z</time></trkpt><trkpt lat="40.742993" lon="9.3729351"><ele>511.0</ele><time>2026-04-12T13:54:07.482Z</time></trkpt><trkpt lat="40.7430927" lon="9.372961"><ele>511.0</ele><time>2026-04-12T13:54:09.48Z</time></trkpt><trkpt lat="40.7431529" lon="9.3730023"><ele>511.0</ele><time>2026-04-12T13:54:10.468Z</time></trkpt><trkpt lat="40.7432125" lon="9.373064"><ele>510.50000000000006</ele><time>2026-04-12T13:54:11.487Z</time></trkpt><trkpt lat="40.7432711" lon="9.373128"><ele>510.0</ele><time>2026-04-12T13:54:12.485Z</time></trkpt><trkpt lat="40.7433322" lon="9.373189"><ele>509.5</ele><time>2026-04-12T13:54:13.484Z</time></trkpt><trkpt lat="40.7434008" lon="9.3732496"><ele>509.0</ele><time>2026-04-12T13:54:14.494Z</time></trkpt><trkpt lat="40.7434764" lon="9.3733116"><ele>508.50000000000006</ele><time>2026-04-12T13:54:15.47Z</time></trkpt><trkpt lat="40.7435481" lon="9.3733671"><ele>508.0</ele><time>2026-04-12T13:54:16.46Z</time></trkpt><trkpt lat="40.7436256" lon="9.3734156"><ele>511.50000000000006</ele><time>2026-04-12T13:54:17.466Z</time></trkpt><trkpt lat="40.7436986" lon="9.3734612"><ele>515.0</ele><time>2026-04-12T13:54:18.459Z</time></trkpt><trkpt lat="40.7437627" lon="9.3735114"><ele>518.5</ele><time>2026-04-12T13:54:19.468Z</time></trkpt><trkpt lat="40.7438212" lon="9.3735751"><ele>522.0</ele><time>2026-04-12T13:54:20.46Z</time></trkpt><trkpt lat="40.7438766" lon="9.3736567"><ele>525.5</ele><time>2026-04-12T13:54:21.464Z</time></trkpt><trkpt lat="40.7439276" lon="9.3737477"><ele>529.0</ele><time>2026-04-12T13:54:22.461Z</time></trkpt><trkpt lat="40.743979" lon="9.373839"><ele>526.8333333333334</ele><time>2026-04-12T13:54:23.457Z</time></trkpt><trkpt lat="40.7440245" lon="9.3739133"><ele>524.6666666666667</ele><time>2026-04-12T13:54:24.504Z</time></trkpt><trkpt lat="40.7440968" lon="9.3740302"><ele>522.5</ele><time>2026-04-12T13:54:26.446Z</time></trkpt><trkpt lat="40.7441535" lon="9.3741681"><ele>520.3333333333334</ele><time>2026-04-12T13:54:28.445Z</time></trkpt><trkpt lat="40.7441738" lon="9.3742478"><ele>518.1666666666666</ele><time>2026-04-12T13:54:29.451Z</time></trkpt><trkpt lat="40.7441932" lon="9.3743356"><ele>516.0</ele><time>2026-04-12T13:54:30.449Z</time></trkpt><trkpt lat="40.7441991" lon="9.374424"><ele>516.0</ele><time>2026-04-12T13:54:31.442Z</time></trkpt><trkpt lat="40.7442034" lon="9.3745153"><ele>516.0</ele><time>2026-04-12T13:54:32.447Z</time></trkpt><trkpt lat="40.7442097" lon="9.3746161"><ele>516.0</ele><time>2026-04-12T13:54:33.441Z</time></trkpt><trkpt lat="40.7442198" lon="9.3747188"><ele>516.0</ele><time>2026-04-12T13:54:34.444Z</time></trkpt><trkpt lat="40.7442377" lon="9.3748233"><ele>516.0</ele><time>2026-04-12T13:54:35.43Z</time></trkpt><trkpt lat="40.744275" lon="9.3748995"><ele>516.0</ele><time>2026-04-12T13:54:36.436Z</time></trkpt><trkpt lat="40.7443309" lon="9.3749842"><ele>516.3333333333334</ele><time>2026-04-12T13:54:38.437Z</time></trkpt><trkpt lat="40.7443837" lon="9.37505"><ele>516.6666666666666</ele><time>2026-04-12T13:54:42.431Z</time></trkpt><trkpt lat="40.7444419" lon="9.3751113"><ele>517.0</ele><time>2026-04-12T13:54:52.435Z</time></trkpt><trkpt lat="40.744501" lon="9.3751724"><ele>517.3333333333333</ele><time>2026-04-12T13:56:05.392Z</time></trkpt><trkpt lat="40.7445369" lon="9.3752886"><ele>517.6666666666666</ele><time>2026-04-12T13:56:07.402Z</time></trkpt><trkpt lat="40.7445124" lon="9.3754382"><ele>518.0</ele><time>2026-04-12T13:56:09.489Z</time></trkpt><trkpt lat="40.744468" lon="9.3755552"><ele>518.0</ele><time>2026-04-12T13:56:11.479Z</time></trkpt><trkpt lat="40.7444549" lon="9.3757125"><ele>518.0</ele><time>2026-04-12T13:56:13.388Z</time></trkpt><trkpt lat="40.7444546" lon="9.3757984"><ele>518.0</ele><time>2026-04-12T13:56:14.482Z</time></trkpt><trkpt lat="40.7444552" lon="9.3758832"><ele>518.0</ele><time>2026-04-12T13:56:15.485Z</time></trkpt><trkpt lat="40.7444678" lon="9.3760217"><ele>518.0</ele><time>2026-04-12T13:56:17.478Z</time></trkpt><trkpt lat="40.7444934" lon="9.3761506"><ele>518.0</ele><time>2026-04-12T13:56:20.384Z</time></trkpt><trkpt lat="40.7445097" lon="9.3762337"><ele>518.0</ele><time>2026-04-12T13:56:24.501Z</time></trkpt><trkpt lat="40.7445378" lon="9.3763154"><ele>518.0</ele><time>2026-04-12T13:58:27.445Z</time></trkpt><trkpt lat="40.744577" lon="9.376428"><ele>518.0</ele><time>2026-04-12T13:58:29.457Z</time></trkpt><trkpt lat="40.7446085" lon="9.3765603"><ele>518.0</ele><time>2026-04-12T13:58:31.447Z</time></trkpt><trkpt lat="40.7446358" lon="9.376704"><ele>518.0</ele><time>2026-04-12T13:58:33.442Z</time></trkpt><trkpt lat="40.7446608" lon="9.3768431"><ele>519.25</ele><time>2026-04-12T13:58:35.433Z</time></trkpt><trkpt lat="40.7446808" lon="9.3769903"><ele>520.5</ele><time>2026-04-12T13:58:37.433Z</time></trkpt><trkpt lat="40.744702" lon="9.377152"><ele>521.75</ele><time>2026-04-12T13:58:39.431Z</time></trkpt><trkpt lat="40.7447251" lon="9.3773197"><ele>523.0</ele><time>2026-04-12T13:58:41.422Z</time></trkpt><trkpt lat="40.7447492" lon="9.3774249"><ele>523.1666666666667</ele><time>2026-04-12T13:58:42.42Z</time></trkpt><trkpt lat="40.7447776" lon="9.3775351"><ele>523.3333333333334</ele><time>2026-04-12T13:58:43.423Z</time></trkpt><trkpt lat="40.7447996" lon="9.3776467"><ele>523.5</ele><time>2026-04-12T13:58:44.431Z</time></trkpt><trkpt lat="40.7448119" lon="9.3777557"><ele>523.6666666666666</ele><time>2026-04-12T13:58:45.424Z</time></trkpt><trkpt lat="40.7448212" lon="9.3778499"><ele>523.8333333333333</ele><time>2026-04-12T13:58:46.412Z</time></trkpt><trkpt lat="40.7448256" lon="9.377934"><ele>524.0</ele><time>2026-04-12T13:58:47.409Z</time></trkpt><trkpt lat="40.7448426" lon="9.3780868"><ele>522.0</ele><time>2026-04-12T13:58:49.415Z</time></trkpt><trkpt lat="40.7448702" lon="9.3782306"><ele>520.0</ele><time>2026-04-12T13:58:51.423Z</time></trkpt><trkpt lat="40.7449233" lon="9.3783544"><ele>518.0</ele><time>2026-04-12T13:58:53.432Z</time></trkpt><trkpt lat="40.7450067" lon="9.3784709"><ele>516.0</ele><time>2026-04-12T13:58:55.424Z</time></trkpt><trkpt lat="40.7451015" lon="9.3785679"><ele>516.0</ele><time>2026-04-12T13:58:57.429Z</time></trkpt><trkpt lat="40.7451514" lon="9.3787146"><ele>516.0</ele><time>2026-04-12T13:58:59.418Z</time></trkpt><trkpt lat="40.745134" lon="9.378894"><ele>516.0</ele><time>2026-04-12T13:59:01.405Z</time></trkpt><trkpt lat="40.7451179" lon="9.3790021"><ele>516.0</ele><time>2026-04-12T13:59:02.409Z</time></trkpt><trkpt lat="40.7451135" lon="9.3791033"><ele>516.0</ele><time>2026-04-12T13:59:03.411Z</time></trkpt><trkpt lat="40.7451115" lon="9.379199"><ele>515.6666666666666</ele><time>2026-04-12T13:59:04.415Z</time></trkpt><trkpt lat="40.74511" lon="9.3792891"><ele>515.3333333333334</ele><time>2026-04-12T13:59:05.416Z</time></trkpt><trkpt lat="40.745101" lon="9.379377"><ele>515.0</ele><time>2026-04-12T13:59:06.416Z</time></trkpt><trkpt lat="40.7450918" lon="9.3794686"><ele>514.6666666666667</ele><time>2026-04-12T13:59:07.426Z</time></trkpt><trkpt lat="40.7450801" lon="9.3795776"><ele>514.3333333333334</ele><time>2026-04-12T13:59:08.411Z</time></trkpt><trkpt lat="40.7450682" lon="9.3796828"><ele>514.0</ele><time>2026-04-12T13:59:09.41Z</time></trkpt><trkpt lat="40.7450563" lon="9.379792"><ele>514.0</ele><time>2026-04-12T13:59:10.412Z</time></trkpt><trkpt lat="40.7450443" lon="9.3799098"><ele>514.0</ele><time>2026-04-12T13:59:11.41Z</time></trkpt><trkpt lat="40.7450259" lon="9.3800327"><ele>514.0</ele><time>2026-04-12T13:59:12.425Z</time></trkpt><trkpt lat="40.7450025" lon="9.3801531"><ele>514.0</ele><time>2026-04-12T13:59:13.417Z</time></trkpt><trkpt lat="40.7449756" lon="9.3802737"><ele>514.0</ele><time>2026-04-12T13:59:14.408Z</time></trkpt><trkpt lat="40.7449626" lon="9.3803808"><ele>514.0</ele><time>2026-04-12T13:59:15.423Z</time></trkpt><trkpt lat="40.7449607" lon="9.3804776"><ele>514.0</ele><time>2026-04-12T13:59:16.408Z</time></trkpt><trkpt lat="40.7449779" lon="9.3805637"><ele>514.0</ele><time>2026-04-12T13:59:17.401Z</time></trkpt><trkpt lat="40.7450067" lon="9.3806438"><ele>514.0</ele><time>2026-04-12T13:59:18.398Z</time></trkpt><trkpt lat="40.7450341" lon="9.3807205"><ele>514.0</ele><time>2026-04-12T13:59:19.4Z</time></trkpt><trkpt lat="40.7450604" lon="9.3807975"><ele>514.0</ele><time>2026-04-12T13:59:20.414Z</time></trkpt><trkpt lat="40.7450838" lon="9.380875"><ele>514.0</ele><time>2026-04-12T13:59:21.419Z</time></trkpt><trkpt lat="40.7451046" lon="9.3809563"><ele>514.1666666666667</ele><time>2026-04-12T13:59:22.402Z</time></trkpt><trkpt lat="40.74512" lon="9.381045"><ele>514.3333333333334</ele><time>2026-04-12T13:59:23.403Z</time></trkpt><trkpt lat="40.7451285" lon="9.381145"><ele>514.5</ele><time>2026-04-12T13:59:24.394Z</time></trkpt><trkpt lat="40.7451266" lon="9.3812452"><ele>514.6666666666666</ele><time>2026-04-12T13:59:25.401Z</time></trkpt><trkpt lat="40.7451196" lon="9.3813392"><ele>514.8333333333333</ele><time>2026-04-12T13:59:26.405Z</time></trkpt><trkpt lat="40.7450979" lon="9.3814392"><ele>515.0</ele><time>2026-04-12T13:59:27.405Z</time></trkpt><trkpt lat="40.7450651" lon="9.3815416"><ele>513.6666666666666</ele><time>2026-04-12T13:59:28.398Z</time></trkpt><trkpt lat="40.7450266" lon="9.3816447"><ele>512.3333333333333</ele><time>2026-04-12T13:59:29.4Z</time></trkpt><trkpt lat="40.7449893" lon="9.3817536"><ele>511.0</ele><time>2026-04-12T13:59:30.408Z</time></trkpt><trkpt lat="40.744962" lon="9.3818384"><ele>509.66666666666663</ele><time>2026-04-12T13:59:31.394Z</time></trkpt><trkpt lat="40.7449445" lon="9.3819608"><ele>508.3333333333333</ele><time>2026-04-12T13:59:33.401Z</time></trkpt><trkpt lat="40.7449855" lon="9.3820267"><ele>507.0</ele><time>2026-04-12T13:59:35.4Z</time></trkpt><trkpt lat="40.7450634" lon="9.3820179"><ele>507.0</ele><time>2026-04-12T13:59:37.408Z</time></trkpt><trkpt lat="40.7451349" lon="9.3819257"><ele>507.00000000000006</ele><time>2026-04-12T13:59:39.391Z</time></trkpt><trkpt lat="40.7451818" lon="9.3818656"><ele>507.00000000000006</ele><time>2026-04-12T13:59:40.501Z</time></trkpt><trkpt lat="40.7452782" lon="9.3817618"><ele>507.0</ele><time>2026-04-12T13:59:42.526Z</time></trkpt><trkpt lat="40.7453848" lon="9.3816781"><ele>507.0</ele><time>2026-04-12T13:59:44.477Z</time></trkpt><trkpt lat="40.7454455" lon="9.3816341"><ele>505.0</ele><time>2026-04-12T13:59:45.481Z</time></trkpt><trkpt lat="40.7455055" lon="9.3815958"><ele>503.00000000000006</ele><time>2026-04-12T13:59:46.472Z</time></trkpt><trkpt lat="40.745622" lon="9.3815963"><ele>501.00000000000006</ele><time>2026-04-12T13:59:48.475Z</time></trkpt><trkpt lat="40.7457222" lon="9.381662"><ele>499.0</ele><time>2026-04-12T13:59:50.474Z</time></trkpt><trkpt lat="40.7458142" lon="9.3817451"><ele>497.0</ele><time>2026-04-12T13:59:52.476Z</time></trkpt><trkpt lat="40.7458954" lon="9.3818267"><ele>497.0</ele><time>2026-04-12T13:59:54.471Z</time></trkpt><trkpt lat="40.7459664" lon="9.3819107"><ele>497.00000000000006</ele><time>2026-04-12T13:59:56.493Z</time></trkpt><trkpt lat="40.7460547" lon="9.3820096"><ele>497.00000000000006</ele><time>2026-04-12T13:59:58.479Z</time></trkpt><trkpt lat="40.7461057" lon="9.382062"><ele>497.0</ele><time>2026-04-12T13:59:59.466Z</time></trkpt><trkpt lat="40.7461895" lon="9.3821793"><ele>497.0</ele><time>2026-04-12T14:00:01.47Z</time></trkpt><trkpt lat="40.7462815" lon="9.3823024"><ele>495.2857142857143</ele><time>2026-04-12T14:00:03.481Z</time></trkpt><trkpt lat="40.7463336" lon="9.3823707"><ele>493.57142857142856</ele><time>2026-04-12T14:00:04.486Z</time></trkpt><trkpt lat="40.7463846" lon="9.3824319"><ele>491.8571428571429</ele><time>2026-04-12T14:00:05.472Z</time></trkpt><trkpt lat="40.7464375" lon="9.382494"><ele>490.14285714285717</ele><time>2026-04-12T14:00:06.484Z</time></trkpt><trkpt lat="40.7464892" lon="9.3825577"><ele>488.42857142857144</ele><time>2026-04-12T14:00:07.478Z</time></trkpt><trkpt lat="40.7465432" lon="9.3826225"><ele>486.7142857142858</ele><time>2026-04-12T14:00:08.497Z</time></trkpt><trkpt lat="40.7465921" lon="9.382682"><ele>485.00000000000006</ele><time>2026-04-12T14:00:09.499Z</time></trkpt><trkpt lat="40.7466463" lon="9.3827435"><ele>484.99999999999994</ele><time>2026-04-12T14:00:10.482Z</time></trkpt><trkpt lat="40.7466941" lon="9.3828011"><ele>485.0</ele><time>2026-04-12T14:00:11.477Z</time></trkpt><trkpt lat="40.7467628" lon="9.3829488"><ele>485.0</ele><time>2026-04-12T14:00:13.481Z</time></trkpt><trkpt lat="40.7467923" lon="9.3830431"><ele>485.0</ele><time>2026-04-12T14:00:14.471Z</time></trkpt><trkpt lat="40.7468262" lon="9.3831447"><ele>484.99999999999994</ele><time>2026-04-12T14:00:15.476Z</time></trkpt><trkpt lat="40.74686" lon="9.3832451"><ele>485.0</ele><time>2026-04-12T14:00:16.481Z</time></trkpt><trkpt lat="40.7468968" lon="9.383351"><ele>484.8</ele><time>2026-04-12T14:00:17.482Z</time></trkpt><trkpt lat="40.7469332" lon="9.3834622"><ele>484.6</ele><time>2026-04-12T14:00:18.477Z</time></trkpt><trkpt lat="40.7469658" lon="9.3835822"><ele>484.4</ele><time>2026-04-12T14:00:19.476Z</time></trkpt><trkpt lat="40.7469939" lon="9.3836993"><ele>484.2</ele><time>2026-04-12T14:00:20.485Z</time></trkpt><trkpt lat="40.7470155" lon="9.3838181"><ele>484.0</ele><time>2026-04-12T14:00:21.491Z</time></trkpt><trkpt lat="40.7470351" lon="9.383938"><ele>483.33333333333337</ele><time>2026-04-12T14:00:22.488Z</time></trkpt><trkpt lat="40.7470531" lon="9.3840459"><ele>482.6666666666667</ele><time>2026-04-12T14:00:23.474Z</time></trkpt><trkpt lat="40.7470702" lon="9.3841411"><ele>482.0</ele><time>2026-04-12T14:00:24.486Z</time></trkpt><trkpt lat="40.7470844" lon="9.3842364"><ele>481.33333333333337</ele><time>2026-04-12T14:00:25.471Z</time></trkpt><trkpt lat="40.7470909" lon="9.3843285"><ele>480.6666666666667</ele><time>2026-04-12T14:00:26.488Z</time></trkpt><trkpt lat="40.7470968" lon="9.3844164"><ele>480.0</ele><time>2026-04-12T14:00:27.489Z</time></trkpt><trkpt lat="40.7471225" lon="9.3845486"><ele>480.6666666666667</ele><time>2026-04-12T14:00:29.482Z</time></trkpt><trkpt lat="40.7471696" lon="9.3846931"><ele>481.33333333333337</ele><time>2026-04-12T14:00:31.501Z</time></trkpt><trkpt lat="40.7471993" lon="9.3847774"><ele>482.0</ele><time>2026-04-12T14:00:32.478Z</time></trkpt><trkpt lat="40.7472398" lon="9.3848642"><ele>482.6666666666667</ele><time>2026-04-12T14:00:33.491Z</time></trkpt><trkpt lat="40.7472921" lon="9.3849543"><ele>483.33333333333337</ele><time>2026-04-12T14:00:34.482Z</time></trkpt><trkpt lat="40.7473524" lon="9.3850324"><ele>484.0</ele><time>2026-04-12T14:00:35.487Z</time></trkpt><trkpt lat="40.7474123" lon="9.385095"><ele>484.00000000000006</ele><time>2026-04-12T14:00:36.477Z</time></trkpt><trkpt lat="40.7474624" lon="9.3851585"><ele>484.0</ele><time>2026-04-12T14:00:37.484Z</time></trkpt><trkpt lat="40.7475056" lon="9.385225"><ele>484.0</ele><time>2026-04-12T14:00:38.482Z</time></trkpt><trkpt lat="40.7475399" lon="9.3853047"><ele>484.0</ele><time>2026-04-12T14:00:39.475Z</time></trkpt><trkpt lat="40.7475761" lon="9.3853938"><ele>484.00000000000006</ele><time>2026-04-12T14:00:40.511Z</time></trkpt><trkpt lat="40.7476189" lon="9.3854953"><ele>484.0</ele><time>2026-04-12T14:00:41.479Z</time></trkpt><trkpt lat="40.7476607" lon="9.3856017"><ele>485.00000000000006</ele><time>2026-04-12T14:00:42.474Z</time></trkpt><trkpt lat="40.7476946" lon="9.3857133"><ele>486.0</ele><time>2026-04-12T14:00:43.49Z</time></trkpt><trkpt lat="40.7477238" lon="9.3858331"><ele>487.0</ele><time>2026-04-12T14:00:44.471Z</time></trkpt><trkpt lat="40.7477521" lon="9.3859401"><ele>488.0</ele><time>2026-04-12T14:00:45.478Z</time></trkpt><trkpt lat="40.7477728" lon="9.3860341"><ele>489.00000000000006</ele><time>2026-04-12T14:00:46.476Z</time></trkpt><trkpt lat="40.7477844" lon="9.3861316"><ele>490.0</ele><time>2026-04-12T14:00:47.487Z</time></trkpt><trkpt lat="40.7477877" lon="9.386247"><ele>490.8</ele><time>2026-04-12T14:00:48.491Z</time></trkpt><trkpt lat="40.747797" lon="9.3863608"><ele>491.6</ele><time>2026-04-12T14:00:49.477Z</time></trkpt><trkpt lat="40.7478098" lon="9.3864602"><ele>492.4</ele><time>2026-04-12T14:00:50.482Z</time></trkpt><trkpt lat="40.7478197" lon="9.3865681"><ele>493.2</ele><time>2026-04-12T14:00:51.48Z</time></trkpt><trkpt lat="40.7478195" lon="9.386706"><ele>494.0</ele><time>2026-04-12T14:00:52.477Z</time></trkpt><trkpt lat="40.7478149" lon="9.3868462"><ele>494.0</ele><time>2026-04-12T14:00:53.483Z</time></trkpt><trkpt lat="40.7478043" lon="9.3869792"><ele>494.0</ele><time>2026-04-12T14:00:54.465Z</time></trkpt><trkpt lat="40.7477953" lon="9.3871149"><ele>494.0</ele><time>2026-04-12T14:00:55.475Z</time></trkpt><trkpt lat="40.747788" lon="9.3872336"><ele>494.0</ele><time>2026-04-12T14:00:56.483Z</time></trkpt><trkpt lat="40.7477762" lon="9.387357"><ele>494.0</ele><time>2026-04-12T14:00:57.495Z</time></trkpt><trkpt lat="40.7477539" lon="9.3874855"><ele>494.0</ele><time>2026-04-12T14:00:58.47Z</time></trkpt><trkpt lat="40.7477226" lon="9.3876046"><ele>494.0</ele><time>2026-04-12T14:00:59.468Z</time></trkpt><trkpt lat="40.7476992" lon="9.387714"><ele>494.0</ele><time>2026-04-12T14:01:00.471Z</time></trkpt><trkpt lat="40.7476873" lon="9.3878053"><ele>494.0</ele><time>2026-04-12T14:01:01.481Z</time></trkpt><trkpt lat="40.7477004" lon="9.3879717"><ele>494.0</ele><time>2026-04-12T14:01:03.471Z</time></trkpt><trkpt lat="40.7477122" lon="9.3880653"><ele>494.49999999999994</ele><time>2026-04-12T14:01:04.464Z</time></trkpt><trkpt lat="40.7477198" lon="9.3881584"><ele>495.0</ele><time>2026-04-12T14:01:05.466Z</time></trkpt><trkpt lat="40.747727" lon="9.3882537"><ele>495.5</ele><time>2026-04-12T14:01:06.468Z</time></trkpt><trkpt lat="40.7477348" lon="9.3883432"><ele>496.0</ele><time>2026-04-12T14:01:07.48Z</time></trkpt><trkpt lat="40.7477364" lon="9.388432"><ele>496.49999999999994</ele><time>2026-04-12T14:01:08.476Z</time></trkpt><trkpt lat="40.7477442" lon="9.3885155"><ele>497.0</ele><time>2026-04-12T14:01:09.452Z</time></trkpt><trkpt lat="40.7478096" lon="9.3886554"><ele>496.99999999999994</ele><time>2026-04-12T14:01:11.458Z</time></trkpt><trkpt lat="40.7478648" lon="9.3887264"><ele>497.0</ele><time>2026-04-12T14:01:12.464Z</time></trkpt><trkpt lat="40.7479264" lon="9.3888041"><ele>497.0</ele><time>2026-04-12T14:01:13.474Z</time></trkpt><trkpt lat="40.747979" lon="9.3888758"><ele>497.0</ele><time>2026-04-12T14:01:14.468Z</time></trkpt><trkpt lat="40.7480227" lon="9.3889404"><ele>496.99999999999994</ele><time>2026-04-12T14:01:15.451Z</time></trkpt><trkpt lat="40.7480735" lon="9.3890059"><ele>497.0</ele><time>2026-04-12T14:01:16.451Z</time></trkpt><trkpt lat="40.7481305" lon="9.3890738"><ele>497.49999999999994</ele><time>2026-04-12T14:01:17.452Z</time></trkpt><trkpt lat="40.7481923" lon="9.389144"><ele>498.0</ele><time>2026-04-12T14:01:18.447Z</time></trkpt><trkpt lat="40.7482578" lon="9.3892186"><ele>498.5</ele><time>2026-04-12T14:01:19.441Z</time></trkpt><trkpt lat="40.7483246" lon="9.3892982"><ele>499.0</ele><time>2026-04-12T14:01:20.436Z</time></trkpt><trkpt lat="40.7483879" lon="9.3893882"><ele>499.49999999999994</ele><time>2026-04-12T14:01:21.473Z</time></trkpt><trkpt lat="40.748446" lon="9.3894783"><ele>500.0</ele><time>2026-04-12T14:01:22.455Z</time></trkpt><trkpt lat="40.7484991" lon="9.3895432"><ele>501.6</ele><time>2026-04-12T14:01:23.435Z</time></trkpt><trkpt lat="40.7485557" lon="9.3895829"><ele>503.2</ele><time>2026-04-12T14:01:24.427Z</time></trkpt><trkpt lat="40.748679" lon="9.3896005"><ele>504.79999999999995</ele><time>2026-04-12T14:01:26.439Z</time></trkpt><trkpt lat="40.7487444" lon="9.3895819"><ele>506.4</ele><time>2026-04-12T14:01:27.445Z</time></trkpt><trkpt lat="40.7488421" lon="9.3895432"><ele>508.0</ele><time>2026-04-12T14:01:28.432Z</time></trkpt><trkpt lat="40.7489446" lon="9.3895074"><ele>508.00000000000006</ele><time>2026-04-12T14:01:29.428Z</time></trkpt><trkpt lat="40.7490332" lon="9.3894836"><ele>508.0</ele><time>2026-04-12T14:01:30.445Z</time></trkpt><trkpt lat="40.7491179" lon="9.3894757"><ele>508.0</ele><time>2026-04-12T14:01:31.433Z</time></trkpt><trkpt lat="40.7491934" lon="9.3894855"><ele>508.0</ele><time>2026-04-12T14:01:32.419Z</time></trkpt><trkpt lat="40.7492599" lon="9.389513"><ele>508.00000000000006</ele><time>2026-04-12T14:01:33.425Z</time></trkpt><trkpt lat="40.7493299" lon="9.3895495"><ele>508.0</ele><time>2026-04-12T14:01:34.441Z</time></trkpt><trkpt lat="40.7494052" lon="9.3895959"><ele>508.0</ele><time>2026-04-12T14:01:35.421Z</time></trkpt><trkpt lat="40.7494775" lon="9.3896518"><ele>507.99999999999994</ele><time>2026-04-12T14:01:36.429Z</time></trkpt><trkpt lat="40.7495534" lon="9.3897031"><ele>507.99999999999994</ele><time>2026-04-12T14:01:37.42Z</time></trkpt><trkpt lat="40.7496338" lon="9.3897656"><ele>508.0</ele><time>2026-04-12T14:01:38.415Z</time></trkpt><trkpt lat="40.7497206" lon="9.38984"><ele>508.0</ele><time>2026-04-12T14:01:39.408Z</time></trkpt><trkpt lat="40.7498047" lon="9.3899171"><ele>508.00000000000006</ele><time>2026-04-12T14:01:40.409Z</time></trkpt><trkpt lat="40.7498789" lon="9.3899964"><ele>508.0</ele><time>2026-04-12T14:01:41.415Z</time></trkpt><trkpt lat="40.7499324" lon="9.3900693"><ele>508.0</ele><time>2026-04-12T14:01:42.416Z</time></trkpt><trkpt lat="40.7499887" lon="9.3901356"><ele>508.0</ele><time>2026-04-12T14:01:43.415Z</time></trkpt><trkpt lat="40.7500523" lon="9.3901952"><ele>508.00000000000006</ele><time>2026-04-12T14:01:44.411Z</time></trkpt><trkpt lat="40.7501224" lon="9.3902532"><ele>508.0</ele><time>2026-04-12T14:01:45.408Z</time></trkpt><trkpt lat="40.7502036" lon="9.3903044"><ele>508.83333333333337</ele><time>2026-04-12T14:01:46.406Z</time></trkpt><trkpt lat="40.7502866" lon="9.3903387"><ele>509.6666666666667</ele><time>2026-04-12T14:01:47.431Z</time></trkpt><trkpt lat="40.7503721" lon="9.3903691"><ele>510.5</ele><time>2026-04-12T14:01:48.402Z</time></trkpt><trkpt lat="40.7504494" lon="9.3904154"><ele>511.33333333333337</ele><time>2026-04-12T14:01:49.428Z</time></trkpt><trkpt lat="40.7505242" lon="9.3904542"><ele>512.1666666666666</ele><time>2026-04-12T14:01:50.394Z</time></trkpt><trkpt lat="40.750604" lon="9.3904999"><ele>513.0</ele><time>2026-04-12T14:01:51.399Z</time></trkpt><trkpt lat="40.7506815" lon="9.3905553"><ele>513.0</ele><time>2026-04-12T14:01:52.397Z</time></trkpt><trkpt lat="40.7507565" lon="9.3906177"><ele>513.0</ele><time>2026-04-12T14:01:53.394Z</time></trkpt><trkpt lat="40.7508296" lon="9.3906951"><ele>513.0</ele><time>2026-04-12T14:01:54.402Z</time></trkpt><trkpt lat="40.7508969" lon="9.3907914"><ele>513.0</ele><time>2026-04-12T14:01:55.399Z</time></trkpt><trkpt lat="40.7509687" lon="9.3909077"><ele>513.0</ele><time>2026-04-12T14:01:56.402Z</time></trkpt><trkpt lat="40.7510447" lon="9.3910261"><ele>513.3333333333334</ele><time>2026-04-12T14:01:57.419Z</time></trkpt><trkpt lat="40.7511127" lon="9.391137"><ele>513.6666666666666</ele><time>2026-04-12T14:01:58.406Z</time></trkpt><trkpt lat="40.7511656" lon="9.3912337"><ele>514.0</ele><time>2026-04-12T14:01:59.4Z</time></trkpt><trkpt lat="40.7512207" lon="9.3913167"><ele>514.3333333333333</ele><time>2026-04-12T14:02:00.402Z</time></trkpt><trkpt lat="40.7512736" lon="9.3913934"><ele>514.6666666666666</ele><time>2026-04-12T14:02:01.403Z</time></trkpt><trkpt lat="40.7513186" lon="9.3914634"><ele>515.0</ele><time>2026-04-12T14:02:02.41Z</time></trkpt><trkpt lat="40.7513738" lon="9.3915412"><ele>514.2</ele><time>2026-04-12T14:02:03.424Z</time></trkpt><trkpt lat="40.7514325" lon="9.3916234"><ele>513.4</ele><time>2026-04-12T14:02:04.398Z</time></trkpt><trkpt lat="40.7515019" lon="9.3917186"><ele>512.6</ele><time>2026-04-12T14:02:05.395Z</time></trkpt><trkpt lat="40.7515785" lon="9.3918223"><ele>511.8</ele><time>2026-04-12T14:02:06.415Z</time></trkpt><trkpt lat="40.7516608" lon="9.3919364"><ele>511.0</ele><time>2026-04-12T14:02:07.398Z</time></trkpt><trkpt lat="40.751746" lon="9.3920611"><ele>510.8</ele><time>2026-04-12T14:02:08.393Z</time></trkpt><trkpt lat="40.7518332" lon="9.3921802"><ele>510.6</ele><time>2026-04-12T14:02:09.43Z</time></trkpt><trkpt lat="40.7519136" lon="9.3922783"><ele>510.4</ele><time>2026-04-12T14:02:10.4Z</time></trkpt><trkpt lat="40.7519889" lon="9.3923614"><ele>510.2</ele><time>2026-04-12T14:02:11.396Z</time></trkpt><trkpt lat="40.7520553" lon="9.3924472"><ele>510.0</ele><time>2026-04-12T14:02:12.417Z</time></trkpt><trkpt lat="40.7521145" lon="9.3925411"><ele>511.2</ele><time>2026-04-12T14:02:13.409Z</time></trkpt><trkpt lat="40.7521633" lon="9.3926542"><ele>512.4</ele><time>2026-04-12T14:02:14.413Z</time></trkpt><trkpt lat="40.7522132" lon="9.3927796"><ele>513.6</ele><time>2026-04-12T14:02:15.401Z</time></trkpt><trkpt lat="40.7522665" lon="9.3929053"><ele>514.8</ele><time>2026-04-12T14:02:16.414Z</time></trkpt><trkpt lat="40.7523175" lon="9.3930227"><ele>516.0</ele><time>2026-04-12T14:02:17.407Z</time></trkpt><trkpt lat="40.7523685" lon="9.3931316"><ele>516.0</ele><time>2026-04-12T14:02:18.417Z</time></trkpt><trkpt lat="40.7524173" lon="9.3932468"><ele>516.0</ele><time>2026-04-12T14:02:19.428Z</time></trkpt><trkpt lat="40.7524646" lon="9.3933618"><ele>516.0</ele><time>2026-04-12T14:02:20.411Z</time></trkpt><trkpt lat="40.7525105" lon="9.393476"><ele>516.0</ele><time>2026-04-12T14:02:21.415Z</time></trkpt><trkpt lat="40.7525582" lon="9.3935915"><ele>516.0</ele><time>2026-04-12T14:02:22.412Z</time></trkpt><trkpt lat="40.752613" lon="9.3937081"><ele>516.0</ele><time>2026-04-12T14:02:23.408Z</time></trkpt><trkpt lat="40.7526745" lon="9.3938133"><ele>516.0</ele><time>2026-04-12T14:02:24.396Z</time></trkpt><trkpt lat="40.7527425" lon="9.3939161"><ele>516.0</ele><time>2026-04-12T14:02:25.413Z</time></trkpt><trkpt lat="40.7528211" lon="9.394024"><ele>516.0</ele><time>2026-04-12T14:02:26.41Z</time></trkpt><trkpt lat="40.7529022" lon="9.3941316"><ele>516.0</ele><time>2026-04-12T14:02:27.422Z</time></trkpt><trkpt lat="40.7529771" lon="9.3942187"><ele>517.6</ele><time>2026-04-12T14:02:28.414Z</time></trkpt><trkpt lat="40.7530457" lon="9.3942863"><ele>519.2</ele><time>2026-04-12T14:02:29.432Z</time></trkpt><trkpt lat="40.7531184" lon="9.3943491"><ele>520.8</ele><time>2026-04-12T14:02:30.414Z</time></trkpt><trkpt lat="40.7531968" lon="9.3944173"><ele>522.4</ele><time>2026-04-12T14:02:31.428Z</time></trkpt><trkpt lat="40.7532767" lon="9.3944938"><ele>524.0</ele><time>2026-04-12T14:02:32.404Z</time></trkpt><trkpt lat="40.7533555" lon="9.3945721"><ele>524.0</ele><time>2026-04-12T14:02:33.418Z</time></trkpt><trkpt lat="40.7534207" lon="9.394643"><ele>524.0</ele><time>2026-04-12T14:02:34.421Z</time></trkpt><trkpt lat="40.7534702" lon="9.394709"><ele>524.0</ele><time>2026-04-12T14:02:35.429Z</time></trkpt><trkpt lat="40.7535139" lon="9.3947708"><ele>524.0</ele><time>2026-04-12T14:02:36.452Z</time></trkpt><trkpt lat="40.753615" lon="9.3948734"><ele>524.0</ele><time>2026-04-12T14:02:38.412Z</time></trkpt><trkpt lat="40.7537183" lon="9.3949566"><ele>524.4</ele><time>2026-04-12T14:02:40.415Z</time></trkpt><trkpt lat="40.753814" lon="9.3950492"><ele>524.8</ele><time>2026-04-12T14:02:42.419Z</time></trkpt><trkpt lat="40.7538538" lon="9.3951287"><ele>525.2</ele><time>2026-04-12T14:02:43.397Z</time></trkpt><trkpt lat="40.7538997" lon="9.39524"><ele>525.6</ele><time>2026-04-12T14:02:44.394Z</time></trkpt><trkpt lat="40.7539453" lon="9.3953788"><ele>526.0</ele><time>2026-04-12T14:02:45.404Z</time></trkpt><trkpt lat="40.7539867" lon="9.3955144"><ele>526.0</ele><time>2026-04-12T14:02:46.413Z</time></trkpt><trkpt lat="40.7540314" lon="9.395626"><ele>526.0</ele><time>2026-04-12T14:02:47.408Z</time></trkpt><trkpt lat="40.7540818" lon="9.395728"><ele>526.0</ele><time>2026-04-12T14:02:48.392Z</time></trkpt><trkpt lat="40.7541337" lon="9.3958084"><ele>526.0</ele><time>2026-04-12T14:02:49.411Z</time></trkpt><trkpt lat="40.7541833" lon="9.39587"><ele>526.0</ele><time>2026-04-12T14:02:50.412Z</time></trkpt><trkpt lat="40.7542329" lon="9.3959301"><ele>526.0</ele><time>2026-04-12T14:02:51.399Z</time></trkpt><trkpt lat="40.754286" lon="9.3959923"><ele>526.0</ele><time>2026-04-12T14:02:52.396Z</time></trkpt><trkpt lat="40.7543398" lon="9.3960497"><ele>526.0</ele><time>2026-04-12T14:02:53.396Z</time></trkpt><trkpt lat="40.754396" lon="9.3961042"><ele>526.0</ele><time>2026-04-12T14:02:54.402Z</time></trkpt><trkpt lat="40.7544517" lon="9.3961639"><ele>526.0</ele><time>2026-04-12T14:02:55.41Z</time></trkpt><trkpt lat="40.7545093" lon="9.3962334"><ele>526.0</ele><time>2026-04-12T14:02:56.397Z</time></trkpt><trkpt lat="40.7545668" lon="9.3963096"><ele>526.0</ele><time>2026-04-12T14:02:57.389Z</time></trkpt><trkpt lat="40.7546303" lon="9.3963875"><ele>526.8333333333334</ele><time>2026-04-12T14:02:58.405Z</time></trkpt><trkpt lat="40.7546906" lon="9.3964589"><ele>527.6666666666667</ele><time>2026-04-12T14:02:59.401Z</time></trkpt><trkpt lat="40.7547486" lon="9.3965261"><ele>528.5</ele><time>2026-04-12T14:03:00.39Z</time></trkpt><trkpt lat="40.7548099" lon="9.3965904"><ele>529.3333333333334</ele><time>2026-04-12T14:03:01.388Z</time></trkpt><trkpt lat="40.754872" lon="9.3966614"><ele>530.1666666666666</ele><time>2026-04-12T14:03:02.391Z</time></trkpt><trkpt lat="40.754926" lon="9.3967372"><ele>531.0</ele><time>2026-04-12T14:03:03.393Z</time></trkpt><trkpt lat="40.7549688" lon="9.3968196"><ele>531.0</ele><time>2026-04-12T14:03:04.393Z</time></trkpt><trkpt lat="40.7550103" lon="9.3969096"><ele>531.0</ele><time>2026-04-12T14:03:05.397Z</time></trkpt><trkpt lat="40.7550529" lon="9.3970022"><ele>531.0</ele><time>2026-04-12T14:03:06.413Z</time></trkpt><trkpt lat="40.7551083" lon="9.397092"><ele>531.0</ele><time>2026-04-12T14:03:07.398Z</time></trkpt><trkpt lat="40.7551735" lon="9.397186"><ele>531.0</ele><time>2026-04-12T14:03:08.384Z</time></trkpt><trkpt lat="40.7552467" lon="9.3972725"><ele>531.0</ele><time>2026-04-12T14:03:09.4Z</time></trkpt><trkpt lat="40.7553194" lon="9.3973735"><ele>532.5</ele><time>2026-04-12T14:03:10.403Z</time></trkpt><trkpt lat="40.7553788" lon="9.3974713"><ele>534.0</ele><time>2026-04-12T14:03:11.382Z</time></trkpt><trkpt lat="40.7554248" lon="9.397553"><ele>535.5</ele><time>2026-04-12T14:03:12.39Z</time></trkpt><trkpt lat="40.7554618" lon="9.3976319"><ele>537.0</ele><time>2026-04-12T14:03:13.518Z</time></trkpt><trkpt lat="40.7555032" lon="9.3977143"><ele>538.5</ele><time>2026-04-12T14:03:14.503Z</time></trkpt><trkpt lat="40.7555471" lon="9.3977958"><ele>540.0</ele><time>2026-04-12T14:03:15.477Z</time></trkpt><trkpt lat="40.7555888" lon="9.3978791"><ele>540.0</ele><time>2026-04-12T14:03:16.488Z</time></trkpt><trkpt lat="40.7556219" lon="9.3979548"><ele>540.0</ele><time>2026-04-12T14:03:17.49Z</time></trkpt><trkpt lat="40.7556404" lon="9.3981011"><ele>540.0</ele><time>2026-04-12T14:03:19.513Z</time></trkpt><trkpt lat="40.7556308" lon="9.3981853"><ele>540.0</ele><time>2026-04-12T14:03:20.488Z</time></trkpt><trkpt lat="40.7556137" lon="9.3982793"><ele>540.0</ele><time>2026-04-12T14:03:21.504Z</time></trkpt><trkpt lat="40.7556083" lon="9.3983812"><ele>540.0</ele><time>2026-04-12T14:03:22.489Z</time></trkpt><trkpt lat="40.7556259" lon="9.3984923"><ele>539.2</ele><time>2026-04-12T14:03:23.495Z</time></trkpt><trkpt lat="40.7556522" lon="9.3986024"><ele>538.4</ele><time>2026-04-12T14:03:24.48Z</time></trkpt><trkpt lat="40.755675" lon="9.3987107"><ele>537.6</ele><time>2026-04-12T14:03:25.487Z</time></trkpt><trkpt lat="40.7556964" lon="9.3988291"><ele>536.8</ele><time>2026-04-12T14:03:26.501Z</time></trkpt><trkpt lat="40.7557163" lon="9.3989501"><ele>536.0</ele><time>2026-04-12T14:03:27.498Z</time></trkpt><trkpt lat="40.7557357" lon="9.399075"><ele>535.8333333333333</ele><time>2026-04-12T14:03:28.486Z</time></trkpt><trkpt lat="40.7557555" lon="9.3991997"><ele>535.6666666666666</ele><time>2026-04-12T14:03:29.49Z</time></trkpt><trkpt lat="40.7557729" lon="9.3993022"><ele>535.5</ele><time>2026-04-12T14:03:30.485Z</time></trkpt><trkpt lat="40.755782" lon="9.3993869"><ele>535.3333333333334</ele><time>2026-04-12T14:03:31.484Z</time></trkpt><trkpt lat="40.755777" lon="9.3994765"><ele>535.1666666666667</ele><time>2026-04-12T14:03:32.491Z</time></trkpt><trkpt lat="40.7557583" lon="9.3995764"><ele>535.0</ele><time>2026-04-12T14:03:33.481Z</time></trkpt><trkpt lat="40.7557302" lon="9.3996719"><ele>535.0</ele><time>2026-04-12T14:03:34.474Z</time></trkpt><trkpt lat="40.7556975" lon="9.3997497"><ele>535.0</ele><time>2026-04-12T14:03:35.492Z</time></trkpt><trkpt lat="40.7556649" lon="9.3998328"><ele>535.0</ele><time>2026-04-12T14:03:36.491Z</time></trkpt><trkpt lat="40.7556308" lon="9.399911"><ele>535.0</ele><time>2026-04-12T14:03:37.493Z</time></trkpt><trkpt lat="40.7555936" lon="9.3999883"><ele>535.0</ele><time>2026-04-12T14:03:38.484Z</time></trkpt><trkpt lat="40.7555491" lon="9.4000723"><ele>535.0</ele><time>2026-04-12T14:03:39.481Z</time></trkpt><trkpt lat="40.7555003" lon="9.4001588"><ele>535.0</ele><time>2026-04-12T14:03:40.493Z</time></trkpt><trkpt lat="40.755446" lon="9.4002475"><ele>535.0</ele><time>2026-04-12T14:03:41.481Z</time></trkpt><trkpt lat="40.7553835" lon="9.4003199"><ele>535.0</ele><time>2026-04-12T14:03:42.473Z</time></trkpt><trkpt lat="40.7553187" lon="9.400386"><ele>535.0</ele><time>2026-04-12T14:03:43.49Z</time></trkpt><trkpt lat="40.7552481" lon="9.4004567"><ele>535.0</ele><time>2026-04-12T14:03:44.492Z</time></trkpt><trkpt lat="40.7551788" lon="9.4005229"><ele>535.0</ele><time>2026-04-12T14:03:45.485Z</time></trkpt><trkpt lat="40.7551185" lon="9.4005922"><ele>535.0</ele><time>2026-04-12T14:03:46.476Z</time></trkpt><trkpt lat="40.7550706" lon="9.4006606"><ele>536.25</ele><time>2026-04-12T14:03:47.489Z</time></trkpt><trkpt lat="40.7549946" lon="9.4007802"><ele>537.5</ele><time>2026-04-12T14:03:49.488Z</time></trkpt><trkpt lat="40.7549343" lon="9.4009061"><ele>538.75</ele><time>2026-04-12T14:03:51.48Z</time></trkpt><trkpt lat="40.7548765" lon="9.4010356"><ele>540.0</ele><time>2026-04-12T14:03:53.486Z</time></trkpt><trkpt lat="40.7548199" lon="9.4011667"><ele>540.0</ele><time>2026-04-12T14:03:55.489Z</time></trkpt><trkpt lat="40.7547674" lon="9.4013088"><ele>540.0</ele><time>2026-04-12T14:03:57.463Z</time></trkpt><trkpt lat="40.7547482" lon="9.4013889"><ele>540.0</ele><time>2026-04-12T14:03:58.474Z</time></trkpt><trkpt lat="40.7547383" lon="9.4014741"><ele>540.0</ele><time>2026-04-12T14:03:59.472Z</time></trkpt><trkpt lat="40.7547236" lon="9.4015656"><ele>540.0</ele><time>2026-04-12T14:04:00.463Z</time></trkpt><trkpt lat="40.7547058" lon="9.4016614"><ele>540.0</ele><time>2026-04-12T14:04:01.467Z</time></trkpt><trkpt lat="40.7546854" lon="9.4017504"><ele>538.0</ele><time>2026-04-12T14:04:02.463Z</time></trkpt><trkpt lat="40.7546635" lon="9.401832"><ele>536.0</ele><time>2026-04-12T14:04:03.471Z</time></trkpt><trkpt lat="40.7546274" lon="9.4019792"><ele>534.0</ele><time>2026-04-12T14:04:05.483Z</time></trkpt><trkpt lat="40.7545821" lon="9.4021275"><ele>532.0</ele><time>2026-04-12T14:04:07.456Z</time></trkpt><trkpt lat="40.754529" lon="9.402269"><ele>530.0</ele><time>2026-04-12T14:04:09.466Z</time></trkpt><trkpt lat="40.7544616" lon="9.402387"><ele>528.2</ele><time>2026-04-12T14:04:11.471Z</time></trkpt><trkpt lat="40.7543881" lon="9.402498"><ele>526.4</ele><time>2026-04-12T14:04:13.474Z</time></trkpt><trkpt lat="40.7543129" lon="9.4025902"><ele>524.6</ele><time>2026-04-12T14:04:15.459Z</time></trkpt><trkpt lat="40.7542291" lon="9.4026841"><ele>522.8</ele><time>2026-04-12T14:04:17.476Z</time></trkpt><trkpt lat="40.7541695" lon="9.4027201"><ele>521.0</ele><time>2026-04-12T14:04:18.467Z</time></trkpt><trkpt lat="40.7541058" lon="9.4027426"><ele>521.0</ele><time>2026-04-12T14:04:19.448Z</time></trkpt><trkpt lat="40.7540413" lon="9.4027518"><ele>521.0</ele><time>2026-04-12T14:04:20.441Z</time></trkpt><trkpt lat="40.753977" lon="9.4027519"><ele>521.0</ele><time>2026-04-12T14:04:21.439Z</time></trkpt><trkpt lat="40.7539033" lon="9.4027513"><ele>521.0</ele><time>2026-04-12T14:04:22.439Z</time></trkpt><trkpt lat="40.7538336" lon="9.4027533"><ele>521.0</ele><time>2026-04-12T14:04:23.446Z</time></trkpt><trkpt lat="40.7537607" lon="9.4027444"><ele>521.0</ele><time>2026-04-12T14:04:24.436Z</time></trkpt><trkpt lat="40.7536844" lon="9.4027342"><ele>521.0</ele><time>2026-04-12T14:04:25.445Z</time></trkpt><trkpt lat="40.7536065" lon="9.4027202"><ele>520.5714285714286</ele><time>2026-04-12T14:04:26.449Z</time></trkpt><trkpt lat="40.7535326" lon="9.4026947"><ele>520.1428571428571</ele><time>2026-04-12T14:04:27.438Z</time></trkpt><trkpt lat="40.7534672" lon="9.4026773"><ele>519.7142857142858</ele><time>2026-04-12T14:04:28.428Z</time></trkpt><trkpt lat="40.7533986" lon="9.4026559"><ele>519.2857142857142</ele><time>2026-04-12T14:04:29.443Z</time></trkpt><trkpt lat="40.7533318" lon="9.4026348"><ele>518.8571428571429</ele><time>2026-04-12T14:04:30.425Z</time></trkpt><trkpt lat="40.7532622" lon="9.4026104"><ele>518.4285714285714</ele><time>2026-04-12T14:04:31.438Z</time></trkpt><trkpt lat="40.7531839" lon="9.4025772"><ele>518.0</ele><time>2026-04-12T14:04:32.44Z</time></trkpt><trkpt lat="40.7531003" lon="9.4025451"><ele>518.0</ele><time>2026-04-12T14:04:33.433Z</time></trkpt><trkpt lat="40.7530209" lon="9.4025145"><ele>518.0</ele><time>2026-04-12T14:04:34.439Z</time></trkpt><trkpt lat="40.7529419" lon="9.4024934"><ele>518.0</ele><time>2026-04-12T14:04:35.42Z</time></trkpt><trkpt lat="40.7528614" lon="9.4024821"><ele>518.0</ele><time>2026-04-12T14:04:36.448Z</time></trkpt><trkpt lat="40.7527806" lon="9.4024802"><ele>518.0</ele><time>2026-04-12T14:04:37.429Z</time></trkpt><trkpt lat="40.7526981" lon="9.4024727"><ele>518.0</ele><time>2026-04-12T14:04:38.426Z</time></trkpt><trkpt lat="40.7526209" lon="9.402459"><ele>517.3333333333333</ele><time>2026-04-12T14:04:39.446Z</time></trkpt><trkpt lat="40.7525429" lon="9.4024345"><ele>516.6666666666666</ele><time>2026-04-12T14:04:40.438Z</time></trkpt><trkpt lat="40.7524631" lon="9.4024071"><ele>516.0</ele><time>2026-04-12T14:04:41.439Z</time></trkpt><trkpt lat="40.7523816" lon="9.4023856"><ele>515.3333333333334</ele><time>2026-04-12T14:04:42.422Z</time></trkpt><trkpt lat="40.752305" lon="9.4023716"><ele>514.6666666666667</ele><time>2026-04-12T14:04:43.432Z</time></trkpt><trkpt lat="40.7522368" lon="9.4023702"><ele>514.0</ele><time>2026-04-12T14:04:44.42Z</time></trkpt><trkpt lat="40.7521682" lon="9.4023668"><ele>514.0</ele><time>2026-04-12T14:04:45.419Z</time></trkpt><trkpt lat="40.7521064" lon="9.4023509"><ele>514.0</ele><time>2026-04-12T14:04:46.447Z</time></trkpt><trkpt lat="40.7519866" lon="9.4023055"><ele>514.0</ele><time>2026-04-12T14:04:48.425Z</time></trkpt><trkpt lat="40.7519204" lon="9.4022904"><ele>514.0</ele><time>2026-04-12T14:04:49.422Z</time></trkpt><trkpt lat="40.7518438" lon="9.4022911"><ele>514.0</ele><time>2026-04-12T14:04:50.435Z</time></trkpt><trkpt lat="40.7517759" lon="9.4023017"><ele>514.0</ele><time>2026-04-12T14:04:51.415Z</time></trkpt><trkpt lat="40.7517093" lon="9.4023161"><ele>514.2</ele><time>2026-04-12T14:04:52.413Z</time></trkpt><trkpt lat="40.7516352" lon="9.402359"><ele>514.4</ele><time>2026-04-12T14:04:53.415Z</time></trkpt><trkpt lat="40.7515584" lon="9.4024355"><ele>514.6</ele><time>2026-04-12T14:04:54.42Z</time></trkpt><trkpt lat="40.7514797" lon="9.4025147"><ele>514.8</ele><time>2026-04-12T14:04:55.432Z</time></trkpt><trkpt lat="40.751387" lon="9.4025751"><ele>515.0</ele><time>2026-04-12T14:04:56.414Z</time></trkpt><trkpt lat="40.751298" lon="9.4026078"><ele>515.0</ele><time>2026-04-12T14:04:57.41Z</time></trkpt><trkpt lat="40.7512143" lon="9.4026348"><ele>515.0</ele><time>2026-04-12T14:04:58.414Z</time></trkpt><trkpt lat="40.7511233" lon="9.4026641"><ele>515.0</ele><time>2026-04-12T14:04:59.419Z</time></trkpt><trkpt lat="40.7510352" lon="9.4026839"><ele>515.0</ele><time>2026-04-12T14:05:00.412Z</time></trkpt><trkpt lat="40.7509436" lon="9.4026969"><ele>515.0</ele><time>2026-04-12T14:05:01.418Z</time></trkpt><trkpt lat="40.7508674" lon="9.4027039"><ele>515.0</ele><time>2026-04-12T14:05:02.424Z</time></trkpt><trkpt lat="40.7507959" lon="9.4027013"><ele>514.8</ele><time>2026-04-12T14:05:03.411Z</time></trkpt><trkpt lat="40.7506804" lon="9.4027043"><ele>514.6</ele><time>2026-04-12T14:05:05.428Z</time></trkpt><trkpt lat="40.7505972" lon="9.402778"><ele>514.4</ele><time>2026-04-12T14:05:07.425Z</time></trkpt><trkpt lat="40.7505319" lon="9.4029159"><ele>514.2</ele><time>2026-04-12T14:05:09.425Z</time></trkpt><trkpt lat="40.7505007" lon="9.4030102"><ele>514.0</ele><time>2026-04-12T14:05:10.407Z</time></trkpt><trkpt lat="40.7504782" lon="9.4031154"><ele>513.5</ele><time>2026-04-12T14:05:11.419Z</time></trkpt><trkpt lat="40.7504513" lon="9.4032143"><ele>513.0</ele><time>2026-04-12T14:05:12.419Z</time></trkpt><trkpt lat="40.7504191" lon="9.4033149"><ele>512.5</ele><time>2026-04-12T14:05:13.439Z</time></trkpt><trkpt lat="40.7503739" lon="9.4034075"><ele>512.0</ele><time>2026-04-12T14:05:14.42Z</time></trkpt><trkpt lat="40.7503254" lon="9.403497"><ele>511.50000000000006</ele><time>2026-04-12T14:05:15.417Z</time></trkpt><trkpt lat="40.7502685" lon="9.4035786"><ele>511.0</ele><time>2026-04-12T14:05:16.419Z</time></trkpt><trkpt lat="40.7502017" lon="9.403655"><ele>510.8</ele><time>2026-04-12T14:05:17.42Z</time></trkpt><trkpt lat="40.750129" lon="9.4037448"><ele>510.6</ele><time>2026-04-12T14:05:18.408Z</time></trkpt><trkpt lat="40.7500402" lon="9.4038406"><ele>510.4</ele><time>2026-04-12T14:05:19.423Z</time></trkpt><trkpt lat="40.7499526" lon="9.40393"><ele>510.2</ele><time>2026-04-12T14:05:20.411Z</time></trkpt><trkpt lat="40.74987" lon="9.4040115"><ele>510.0</ele><time>2026-04-12T14:05:21.408Z</time></trkpt><trkpt lat="40.7497949" lon="9.4040905"><ele>510.0</ele><time>2026-04-12T14:05:22.413Z</time></trkpt><trkpt lat="40.7497326" lon="9.4041758"><ele>510.0</ele><time>2026-04-12T14:05:23.412Z</time></trkpt><trkpt lat="40.7496718" lon="9.4042516"><ele>510.0</ele><time>2026-04-12T14:05:24.395Z</time></trkpt><trkpt lat="40.7496201" lon="9.4043302"><ele>510.0</ele><time>2026-04-12T14:05:25.397Z</time></trkpt><trkpt lat="40.7495713" lon="9.4044071"><ele>510.0</ele><time>2026-04-12T14:05:26.403Z</time></trkpt><trkpt lat="40.7495179" lon="9.4044892"><ele>510.0</ele><time>2026-04-12T14:05:27.401Z</time></trkpt><trkpt lat="40.7494538" lon="9.4045752"><ele>510.2</ele><time>2026-04-12T14:05:28.39Z</time></trkpt><trkpt lat="40.7493798" lon="9.4046684"><ele>510.4</ele><time>2026-04-12T14:05:29.409Z</time></trkpt><trkpt lat="40.7493074" lon="9.4047567"><ele>510.6</ele><time>2026-04-12T14:05:30.411Z</time></trkpt><trkpt lat="40.7492413" lon="9.4048295"><ele>510.8</ele><time>2026-04-12T14:05:31.413Z</time></trkpt><trkpt lat="40.7491729" lon="9.4048964"><ele>511.0</ele><time>2026-04-12T14:05:32.405Z</time></trkpt><trkpt lat="40.7490972" lon="9.4049571"><ele>511.00000000000006</ele><time>2026-04-12T14:05:33.415Z</time></trkpt><trkpt lat="40.7490173" lon="9.4050052"><ele>511.0</ele><time>2026-04-12T14:05:34.4Z</time></trkpt><trkpt lat="40.7489391" lon="9.4050429"><ele>511.0</ele><time>2026-04-12T14:05:35.388Z</time></trkpt><trkpt lat="40.7488645" lon="9.4050832"><ele>511.0</ele><time>2026-04-12T14:05:36.404Z</time></trkpt><trkpt lat="40.7487886" lon="9.4051216"><ele>511.00000000000006</ele><time>2026-04-12T14:05:37.409Z</time></trkpt><trkpt lat="40.7487101" lon="9.4051741"><ele>511.0</ele><time>2026-04-12T14:05:38.418Z</time></trkpt><trkpt lat="40.7486255" lon="9.4052294"><ele>510.6666666666667</ele><time>2026-04-12T14:05:39.419Z</time></trkpt><trkpt lat="40.748541" lon="9.4052831"><ele>510.33333333333337</ele><time>2026-04-12T14:05:40.417Z</time></trkpt><trkpt lat="40.7484752" lon="9.4053316"><ele>510.0</ele><time>2026-04-12T14:05:41.435Z</time></trkpt><trkpt lat="40.7484158" lon="9.4053796"><ele>509.66666666666663</ele><time>2026-04-12T14:05:42.422Z</time></trkpt><trkpt lat="40.7483504" lon="9.4054351"><ele>509.3333333333333</ele><time>2026-04-12T14:05:43.402Z</time></trkpt><trkpt lat="40.7482761" lon="9.4055037"><ele>509.0</ele><time>2026-04-12T14:05:44.402Z</time></trkpt><trkpt lat="40.7482087" lon="9.4055833"><ele>508.99999999999994</ele><time>2026-04-12T14:05:45.411Z</time></trkpt><trkpt lat="40.7481434" lon="9.4056641"><ele>509.0</ele><time>2026-04-12T14:05:46.411Z</time></trkpt><trkpt lat="40.7480919" lon="9.4057454"><ele>509.0</ele><time>2026-04-12T14:05:47.404Z</time></trkpt><trkpt lat="40.7480498" lon="9.4058194"><ele>509.0</ele><time>2026-04-12T14:05:48.397Z</time></trkpt><trkpt lat="40.7480143" lon="9.4058881"><ele>508.99999999999994</ele><time>2026-04-12T14:05:49.414Z</time></trkpt><trkpt lat="40.7479947" lon="9.40597"><ele>509.0</ele><time>2026-04-12T14:05:50.406Z</time></trkpt><trkpt lat="40.7479963" lon="9.4061312"><ele>509.0</ele><time>2026-04-12T14:05:52.399Z</time></trkpt><trkpt lat="40.7480546" lon="9.4062842"><ele>509.0</ele><time>2026-04-12T14:05:54.411Z</time></trkpt><trkpt lat="40.7480979" lon="9.4063519"><ele>509.0</ele><time>2026-04-12T14:05:55.415Z</time></trkpt><trkpt lat="40.7481494" lon="9.4064205"><ele>509.0</ele><time>2026-04-12T14:05:56.401Z</time></trkpt><trkpt lat="40.7482098" lon="9.406498"><ele>509.0</ele><time>2026-04-12T14:05:57.405Z</time></trkpt><trkpt lat="40.7482818" lon="9.4065812"><ele>508.79999999999995</ele><time>2026-04-12T14:05:58.409Z</time></trkpt><trkpt lat="40.7483669" lon="9.4066662"><ele>508.59999999999997</ele><time>2026-04-12T14:05:59.409Z</time></trkpt><trkpt lat="40.7484553" lon="9.406753"><ele>508.4</ele><time>2026-04-12T14:06:00.426Z</time></trkpt><trkpt lat="40.7485404" lon="9.4068325"><ele>508.2</ele><time>2026-04-12T14:06:01.418Z</time></trkpt><trkpt lat="40.7486232" lon="9.4069078"><ele>508.0</ele><time>2026-04-12T14:06:02.402Z</time></trkpt><trkpt lat="40.7487055" lon="9.4069792"><ele>507.79999999999995</ele><time>2026-04-12T14:06:03.414Z</time></trkpt><trkpt lat="40.7487925" lon="9.4070544"><ele>507.59999999999997</ele><time>2026-04-12T14:06:04.402Z</time></trkpt><trkpt lat="40.7488749" lon="9.4071286"><ele>507.40000000000003</ele><time>2026-04-12T14:06:05.398Z</time></trkpt><trkpt lat="40.7489433" lon="9.407197"><ele>507.20000000000005</ele><time>2026-04-12T14:06:06.418Z</time></trkpt><trkpt lat="40.7490059" lon="9.4072561"><ele>507.0</ele><time>2026-04-12T14:06:07.404Z</time></trkpt><trkpt lat="40.7490801" lon="9.4073075"><ele>507.0</ele><time>2026-04-12T14:06:08.395Z</time></trkpt><trkpt lat="40.7491672" lon="9.4073527"><ele>507.0</ele><time>2026-04-12T14:06:09.399Z</time></trkpt><trkpt lat="40.749261" lon="9.4073925"><ele>507.0</ele><time>2026-04-12T14:06:10.397Z</time></trkpt><trkpt lat="40.7493532" lon="9.4074218"><ele>507.0</ele><time>2026-04-12T14:06:11.408Z</time></trkpt><trkpt lat="40.7494286" lon="9.4074528"><ele>507.0</ele><time>2026-04-12T14:06:12.415Z</time></trkpt><trkpt lat="40.7495004" lon="9.4074794"><ele>507.0</ele><time>2026-04-12T14:06:13.435Z</time></trkpt><trkpt lat="40.749561" lon="9.4075061"><ele>507.0</ele><time>2026-04-12T14:06:14.414Z</time></trkpt><trkpt lat="40.7496778" lon="9.4075655"><ele>507.00000000000006</ele><time>2026-04-12T14:06:16.408Z</time></trkpt><trkpt lat="40.7497587" lon="9.4076226"><ele>507.00000000000006</ele><time>2026-04-12T14:06:18.424Z</time></trkpt><trkpt lat="40.7498235" lon="9.4076426"><ele>507.0</ele><time>2026-04-12T14:06:40.411Z</time></trkpt><trkpt lat="40.7499135" lon="9.4076408"><ele>507.0</ele><time>2026-04-12T14:06:42.409Z</time></trkpt><trkpt lat="40.7500383" lon="9.4076278"><ele>507.0</ele><time>2026-04-12T14:06:44.4Z</time></trkpt><trkpt lat="40.7501116" lon="9.4076237"><ele>507.00000000000006</ele><time>2026-04-12T14:06:45.414Z</time></trkpt><trkpt lat="40.7502018" lon="9.4076243"><ele>507.00000000000006</ele><time>2026-04-12T14:06:46.423Z</time></trkpt><trkpt lat="40.7502999" lon="9.4076198"><ele>507.0</ele><time>2026-04-12T14:06:47.403Z</time></trkpt><trkpt lat="40.7504101" lon="9.407614"><ele>507.0</ele><time>2026-04-12T14:06:48.411Z</time></trkpt><trkpt lat="40.7505248" lon="9.4076029"><ele>507.6</ele><time>2026-04-12T14:06:49.415Z</time></trkpt><trkpt lat="40.7506368" lon="9.4075991"><ele>508.20000000000005</ele><time>2026-04-12T14:06:50.398Z</time></trkpt><trkpt lat="40.7507416" lon="9.4076027"><ele>508.8</ele><time>2026-04-12T14:06:51.404Z</time></trkpt><trkpt lat="40.7508425" lon="9.4076127"><ele>509.4</ele><time>2026-04-12T14:06:52.405Z</time></trkpt><trkpt lat="40.7509412" lon="9.4076335"><ele>510.0</ele><time>2026-04-12T14:06:53.399Z</time></trkpt><trkpt lat="40.7510381" lon="9.4076665"><ele>509.4</ele><time>2026-04-12T14:06:54.398Z</time></trkpt><trkpt lat="40.7511311" lon="9.4077129"><ele>508.8</ele><time>2026-04-12T14:06:55.402Z</time></trkpt><trkpt lat="40.7512085" lon="9.4077672"><ele>508.20000000000005</ele><time>2026-04-12T14:06:56.397Z</time></trkpt><trkpt lat="40.7512832" lon="9.407828"><ele>507.6</ele><time>2026-04-12T14:06:57.386Z</time></trkpt><trkpt lat="40.7513559" lon="9.4079089"><ele>507.0</ele><time>2026-04-12T14:06:58.393Z</time></trkpt><trkpt lat="40.7514264" lon="9.4080131"><ele>507.0</ele><time>2026-04-12T14:06:59.384Z</time></trkpt><trkpt lat="40.7514967" lon="9.4081283"><ele>507.0</ele><time>2026-04-12T14:07:00.398Z</time></trkpt><trkpt lat="40.7515628" lon="9.4082629"><ele>507.0</ele><time>2026-04-12T14:07:01.41Z</time></trkpt><trkpt lat="40.7516285" lon="9.4084034"><ele>507.0</ele><time>2026-04-12T14:07:02.401Z</time></trkpt><trkpt lat="40.7516984" lon="9.4085393"><ele>507.0</ele><time>2026-04-12T14:07:03.405Z</time></trkpt><trkpt lat="40.7517817" lon="9.4086478"><ele>507.00000000000006</ele><time>2026-04-12T14:07:04.39Z</time></trkpt><trkpt lat="40.7518724" lon="9.40873"><ele>507.00000000000006</ele><time>2026-04-12T14:07:05.401Z</time></trkpt><trkpt lat="40.7519633" lon="9.4087918"><ele>507.0</ele><time>2026-04-12T14:07:06.402Z</time></trkpt><trkpt lat="40.7520552" lon="9.4088308"><ele>507.0</ele><time>2026-04-12T14:07:07.391Z</time></trkpt><trkpt lat="40.7521594" lon="9.4088429"><ele>506.75</ele><time>2026-04-12T14:07:08.405Z</time></trkpt><trkpt lat="40.7522712" lon="9.4088453"><ele>506.5</ele><time>2026-04-12T14:07:09.386Z</time></trkpt><trkpt lat="40.7523883" lon="9.4088508"><ele>506.25</ele><time>2026-04-12T14:07:10.387Z</time></trkpt><trkpt lat="40.7525107" lon="9.4088631"><ele>506.0</ele><time>2026-04-12T14:07:11.4Z</time></trkpt><trkpt lat="40.7526382" lon="9.4088696"><ele>507.75</ele><time>2026-04-12T14:07:12.384Z</time></trkpt><trkpt lat="40.7527636" lon="9.4088728"><ele>509.5</ele><time>2026-04-12T14:07:13.396Z</time></trkpt><trkpt lat="40.7528799" lon="9.4088866"><ele>511.25</ele><time>2026-04-12T14:07:14.488Z</time></trkpt><trkpt lat="40.7529835" lon="9.4089194"><ele>513.0</ele><time>2026-04-12T14:07:15.494Z</time></trkpt><trkpt lat="40.7531673" lon="9.4090731"><ele>513.0</ele><time>2026-04-12T14:07:17.379Z</time></trkpt><trkpt lat="40.7532586" lon="9.4091894"><ele>513.0</ele><time>2026-04-12T14:07:18.493Z</time></trkpt><trkpt lat="40.7533401" lon="9.4093225"><ele>513.0</ele><time>2026-04-12T14:07:19.481Z</time></trkpt><trkpt lat="40.7534201" lon="9.4094739"><ele>513.0</ele><time>2026-04-12T14:07:20.492Z</time></trkpt><trkpt lat="40.7535091" lon="9.4096257"><ele>513.6666666666666</ele><time>2026-04-12T14:07:21.523Z</time></trkpt><trkpt lat="40.7536061" lon="9.4097865"><ele>514.3333333333333</ele><time>2026-04-12T14:07:22.481Z</time></trkpt><trkpt lat="40.7537078" lon="9.4099452"><ele>515.0</ele><time>2026-04-12T14:07:23.477Z</time></trkpt><trkpt lat="40.7538137" lon="9.4101045"><ele>515.0</ele><time>2026-04-12T14:07:24.479Z</time></trkpt><trkpt lat="40.7539211" lon="9.4102638"><ele>515.0</ele><time>2026-04-12T14:07:25.508Z</time></trkpt><trkpt lat="40.75404" lon="9.4104207"><ele>515.0</ele><time>2026-04-12T14:07:26.477Z</time></trkpt><trkpt lat="40.7541632" lon="9.4105735"><ele>516.6666666666666</ele><time>2026-04-12T14:07:27.471Z</time></trkpt><trkpt lat="40.7542998" lon="9.4107254"><ele>518.3333333333334</ele><time>2026-04-12T14:07:28.486Z</time></trkpt><trkpt lat="40.7544408" lon="9.4108766"><ele>520.0</ele><time>2026-04-12T14:07:29.468Z</time></trkpt><trkpt lat="40.7545884" lon="9.4110222"><ele>520.0</ele><time>2026-04-12T14:07:30.466Z</time></trkpt><trkpt lat="40.7547385" lon="9.4111617"><ele>520.0</ele><time>2026-04-12T14:07:31.466Z</time></trkpt><trkpt lat="40.7548826" lon="9.4112933"><ele>520.0</ele><time>2026-04-12T14:07:32.47Z</time></trkpt><trkpt lat="40.7550119" lon="9.4114169"><ele>519.0</ele><time>2026-04-12T14:07:33.474Z</time></trkpt><trkpt lat="40.7551239" lon="9.4115327"><ele>518.0</ele><time>2026-04-12T14:07:34.47Z</time></trkpt><trkpt lat="40.7552218" lon="9.4116594"><ele>517.0</ele><time>2026-04-12T14:07:35.47Z</time></trkpt><trkpt lat="40.7553098" lon="9.4118096"><ele>516.0</ele><time>2026-04-12T14:07:36.462Z</time></trkpt><trkpt lat="40.7553829" lon="9.4119736"><ele>517.0</ele><time>2026-04-12T14:07:37.465Z</time></trkpt><trkpt lat="40.7554443" lon="9.4121479"><ele>518.0</ele><time>2026-04-12T14:07:38.469Z</time></trkpt><trkpt lat="40.7554805" lon="9.4123349"><ele>519.0</ele><time>2026-04-12T14:07:39.479Z</time></trkpt><trkpt lat="40.755492" lon="9.4125253"><ele>520.0</ele><time>2026-04-12T14:07:40.461Z</time></trkpt><trkpt lat="40.755491" lon="9.4127297"><ele>520.0</ele><time>2026-04-12T14:07:41.46Z</time></trkpt><trkpt lat="40.7554906" lon="9.4129358"><ele>520.0</ele><time>2026-04-12T14:07:42.614Z</time></trkpt><trkpt lat="40.755492" lon="9.4131455"><ele>520.0</ele><time>2026-04-12T14:07:43.611Z</time></trkpt><trkpt lat="40.7554972" lon="9.4133578"><ele>520.0</ele><time>2026-04-12T14:07:44.606Z</time></trkpt><trkpt lat="40.7555078" lon="9.4135643"><ele>520.0</ele><time>2026-04-12T14:07:45.61Z</time></trkpt><trkpt lat="40.7555245" lon="9.4137507"><ele>520.0</ele><time>2026-04-12T14:07:46.613Z</time></trkpt><trkpt lat="40.7555414" lon="9.4139293"><ele>520.0</ele><time>2026-04-12T14:07:47.617Z</time></trkpt><trkpt lat="40.755561" lon="9.4141004"><ele>519.25</ele><time>2026-04-12T14:07:48.612Z</time></trkpt><trkpt lat="40.7555852" lon="9.4142791"><ele>518.5</ele><time>2026-04-12T14:07:49.618Z</time></trkpt><trkpt lat="40.7556168" lon="9.4144645"><ele>517.75</ele><time>2026-04-12T14:07:50.608Z</time></trkpt><trkpt lat="40.7556572" lon="9.4146542"><ele>517.0</ele><time>2026-04-12T14:07:51.64Z</time></trkpt><trkpt lat="40.7557005" lon="9.4148438"><ele>515.75</ele><time>2026-04-12T14:07:52.628Z</time></trkpt><trkpt lat="40.7557435" lon="9.4150405"><ele>514.5</ele><time>2026-04-12T14:07:53.62Z</time></trkpt><trkpt lat="40.755782" lon="9.4152242"><ele>513.25</ele><time>2026-04-12T14:07:54.613Z</time></trkpt><trkpt lat="40.7558183" lon="9.415399"><ele>512.0</ele><time>2026-04-12T14:07:55.624Z</time></trkpt><trkpt lat="40.7558548" lon="9.4155728"><ele>511.0</ele><time>2026-04-12T14:07:56.628Z</time></trkpt><trkpt lat="40.7558952" lon="9.4157448"><ele>510.0</ele><time>2026-04-12T14:07:57.625Z</time></trkpt><trkpt lat="40.7559342" lon="9.4159155"><ele>509.0</ele><time>2026-04-12T14:07:58.619Z</time></trkpt><trkpt lat="40.755968" lon="9.4160818"><ele>508.0</ele><time>2026-04-12T14:07:59.612Z</time></trkpt><trkpt lat="40.7560003" lon="9.4162365"><ele>507.75</ele><time>2026-04-12T14:08:00.614Z</time></trkpt><trkpt lat="40.7560263" lon="9.4163951"><ele>507.5</ele><time>2026-04-12T14:08:01.617Z</time></trkpt><trkpt lat="40.7560519" lon="9.416551"><ele>507.25</ele><time>2026-04-12T14:08:02.618Z</time></trkpt><trkpt lat="40.7560803" lon="9.4167092"><ele>507.0</ele><time>2026-04-12T14:08:03.614Z</time></trkpt><trkpt lat="40.7561083" lon="9.4168675"><ele>508.0</ele><time>2026-04-12T14:08:04.61Z</time></trkpt><trkpt lat="40.7561422" lon="9.4170198"><ele>509.0</ele><time>2026-04-12T14:08:05.63Z</time></trkpt><trkpt lat="40.756177" lon="9.4171782"><ele>510.0</ele><time>2026-04-12T14:08:06.619Z</time></trkpt><trkpt lat="40.7562184" lon="9.4173353"><ele>511.0</ele><time>2026-04-12T14:08:07.617Z</time></trkpt><trkpt lat="40.7562683" lon="9.4174964"><ele>511.25</ele><time>2026-04-12T14:08:08.605Z</time></trkpt><trkpt lat="40.7563342" lon="9.4176544"><ele>511.5</ele><time>2026-04-12T14:08:09.616Z</time></trkpt><trkpt lat="40.7564118" lon="9.4178117"><ele>511.75</ele><time>2026-04-12T14:08:10.603Z</time></trkpt><trkpt lat="40.7564949" lon="9.4179723"><ele>512.0</ele><time>2026-04-12T14:08:11.615Z</time></trkpt><trkpt lat="40.7565813" lon="9.4181296"><ele>512.0</ele><time>2026-04-12T14:08:12.6Z</time></trkpt><trkpt lat="40.7566699" lon="9.4182951"><ele>512.0</ele><time>2026-04-12T14:08:13.612Z</time></trkpt><trkpt lat="40.7567571" lon="9.4184644"><ele>512.0</ele><time>2026-04-12T14:08:14.593Z</time></trkpt><trkpt lat="40.756847" lon="9.4186362"><ele>513.3333333333333</ele><time>2026-04-12T14:08:15.624Z</time></trkpt><trkpt lat="40.7569385" lon="9.418811"><ele>514.6666666666666</ele><time>2026-04-12T14:08:16.602Z</time></trkpt><trkpt lat="40.7570286" lon="9.4189841"><ele>516.0</ele><time>2026-04-12T14:08:17.615Z</time></trkpt><trkpt lat="40.7571176" lon="9.4191604"><ele>516.0</ele><time>2026-04-12T14:08:18.602Z</time></trkpt><trkpt lat="40.7572037" lon="9.4193416"><ele>516.0</ele><time>2026-04-12T14:08:19.614Z</time></trkpt><trkpt lat="40.7572852" lon="9.4195224"><ele>516.0</ele><time>2026-04-12T14:08:20.607Z</time></trkpt><trkpt lat="40.7573679" lon="9.4196949"><ele>514.75</ele><time>2026-04-12T14:08:21.605Z</time></trkpt><trkpt lat="40.7574488" lon="9.4198538"><ele>513.5</ele><time>2026-04-12T14:08:22.612Z</time></trkpt><trkpt lat="40.7575169" lon="9.419999"><ele>512.25</ele><time>2026-04-12T14:08:23.628Z</time></trkpt><trkpt lat="40.7575678" lon="9.4201534"><ele>511.0</ele><time>2026-04-12T14:08:24.602Z</time></trkpt><trkpt lat="40.757594" lon="9.4203197"><ele>510.75</ele><time>2026-04-12T14:08:25.61Z</time></trkpt><trkpt lat="40.7576124" lon="9.420492"><ele>510.5</ele><time>2026-04-12T14:08:26.613Z</time></trkpt><trkpt lat="40.7576441" lon="9.4206661"><ele>510.25</ele><time>2026-04-12T14:08:27.615Z</time></trkpt><trkpt lat="40.7576941" lon="9.4208289"><ele>510.0</ele><time>2026-04-12T14:08:28.607Z</time></trkpt><trkpt lat="40.757766" lon="9.4209863"><ele>510.75</ele><time>2026-04-12T14:08:29.615Z</time></trkpt><trkpt lat="40.7578508" lon="9.421138"><ele>511.5</ele><time>2026-04-12T14:08:30.603Z</time></trkpt><trkpt lat="40.7579355" lon="9.421298"><ele>512.25</ele><time>2026-04-12T14:08:31.609Z</time></trkpt><trkpt lat="40.7580114" lon="9.4214645"><ele>513.0</ele><time>2026-04-12T14:08:32.598Z</time></trkpt><trkpt lat="40.7580818" lon="9.4216362"><ele>513.0</ele><time>2026-04-12T14:08:33.608Z</time></trkpt><trkpt lat="40.7581533" lon="9.4218116"><ele>513.0</ele><time>2026-04-12T14:08:34.608Z</time></trkpt><trkpt lat="40.7582316" lon="9.4219706"><ele>513.0</ele><time>2026-04-12T14:08:35.594Z</time></trkpt><trkpt lat="40.7583174" lon="9.4221234"><ele>513.0</ele><time>2026-04-12T14:08:36.597Z</time></trkpt><trkpt lat="40.7584093" lon="9.4222734"><ele>513.5</ele><time>2026-04-12T14:08:37.595Z</time></trkpt><trkpt lat="40.7585083" lon="9.4224107"><ele>514.0</ele><time>2026-04-12T14:08:38.587Z</time></trkpt><trkpt lat="40.7586086" lon="9.4225466"><ele>514.5</ele><time>2026-04-12T14:08:39.604Z</time></trkpt><trkpt lat="40.7587115" lon="9.4226874"><ele>515.0</ele><time>2026-04-12T14:08:40.601Z</time></trkpt><trkpt lat="40.7588136" lon="9.4228243"><ele>515.0</ele><time>2026-04-12T14:08:41.598Z</time></trkpt><trkpt lat="40.7589092" lon="9.4229647"><ele>515.0</ele><time>2026-04-12T14:08:42.603Z</time></trkpt><trkpt lat="40.7590083" lon="9.4231044"><ele>515.0</ele><time>2026-04-12T14:08:43.599Z</time></trkpt><trkpt lat="40.7590946" lon="9.423257"><ele>515.0</ele><time>2026-04-12T14:08:44.604Z</time></trkpt><trkpt lat="40.7591682" lon="9.423422"><ele>515.0</ele><time>2026-04-12T14:08:45.587Z</time></trkpt><trkpt lat="40.7592373" lon="9.4235822"><ele>515.0</ele><time>2026-04-12T14:08:46.58Z</time></trkpt><trkpt lat="40.7592978" lon="9.4237405"><ele>515.0</ele><time>2026-04-12T14:08:47.589Z</time></trkpt><trkpt lat="40.7593395" lon="9.4239033"><ele>515.0</ele><time>2026-04-12T14:08:48.595Z</time></trkpt><trkpt lat="40.7593536" lon="9.4240839"><ele>515.25</ele><time>2026-04-12T14:08:49.602Z</time></trkpt><trkpt lat="40.7593617" lon="9.424277"><ele>515.5</ele><time>2026-04-12T14:08:50.586Z</time></trkpt><trkpt lat="40.759377" lon="9.4244701"><ele>515.75</ele><time>2026-04-12T14:08:51.576Z</time></trkpt><trkpt lat="40.7594091" lon="9.4246517"><ele>516.0</ele><time>2026-04-12T14:08:52.591Z</time></trkpt><trkpt lat="40.7594591" lon="9.4248268"><ele>516.0</ele><time>2026-04-12T14:08:53.591Z</time></trkpt><trkpt lat="40.7595226" lon="9.4249936"><ele>516.0</ele><time>2026-04-12T14:08:54.588Z</time></trkpt><trkpt lat="40.7595927" lon="9.4251355"><ele>516.0</ele><time>2026-04-12T14:08:55.584Z</time></trkpt><trkpt lat="40.759672" lon="9.4252524"><ele>516.0</ele><time>2026-04-12T14:08:56.58Z</time></trkpt><trkpt lat="40.7597618" lon="9.4253474"><ele>516.0</ele><time>2026-04-12T14:08:57.592Z</time></trkpt><trkpt lat="40.7598676" lon="9.425427"><ele>516.0</ele><time>2026-04-12T14:08:58.599Z</time></trkpt><trkpt lat="40.7599795" lon="9.4254904"><ele>516.0</ele><time>2026-04-12T14:08:59.598Z</time></trkpt><trkpt lat="40.7600944" lon="9.4255582"><ele>516.0</ele><time>2026-04-12T14:09:00.583Z</time></trkpt><trkpt lat="40.7601973" lon="9.4256484"><ele>519.0</ele><time>2026-04-12T14:09:01.59Z</time></trkpt><trkpt lat="40.7602813" lon="9.4257669"><ele>522.0</ele><time>2026-04-12T14:09:02.588Z</time></trkpt><trkpt lat="40.7603537" lon="9.4259091"><ele>525.0</ele><time>2026-04-12T14:09:03.584Z</time></trkpt><trkpt lat="40.7604234" lon="9.4260618"><ele>528.0</ele><time>2026-04-12T14:09:04.584Z</time></trkpt><trkpt lat="40.7604927" lon="9.4262109"><ele>527.0</ele><time>2026-04-12T14:09:05.593Z</time></trkpt><trkpt lat="40.76056" lon="9.426357"><ele>526.0</ele><time>2026-04-12T14:09:06.592Z</time></trkpt><trkpt lat="40.7606295" lon="9.4265037"><ele>525.0</ele><time>2026-04-12T14:09:07.583Z</time></trkpt><trkpt lat="40.7607029" lon="9.4266517"><ele>524.0</ele><time>2026-04-12T14:09:08.584Z</time></trkpt><trkpt lat="40.7607822" lon="9.4268015"><ele>524.0</ele><time>2026-04-12T14:09:09.591Z</time></trkpt><trkpt lat="40.7608671" lon="9.4269469"><ele>524.0</ele><time>2026-04-12T14:09:10.591Z</time></trkpt><trkpt lat="40.76096" lon="9.4270914"><ele>524.0</ele><time>2026-04-12T14:09:11.599Z</time></trkpt><trkpt lat="40.7610589" lon="9.4272314"><ele>524.0</ele><time>2026-04-12T14:09:12.588Z</time></trkpt><trkpt lat="40.7611538" lon="9.4273604"><ele>524.25</ele><time>2026-04-12T14:09:13.589Z</time></trkpt><trkpt lat="40.7612489" lon="9.427477"><ele>524.5</ele><time>2026-04-12T14:09:14.586Z</time></trkpt><trkpt lat="40.761352" lon="9.4275822"><ele>524.75</ele><time>2026-04-12T14:09:15.584Z</time></trkpt><trkpt lat="40.7614696" lon="9.4276755"><ele>525.0</ele><time>2026-04-12T14:09:16.586Z</time></trkpt><trkpt lat="40.7615965" lon="9.4277524"><ele>525.0</ele><time>2026-04-12T14:09:17.596Z</time></trkpt><trkpt lat="40.761727" lon="9.4278152"><ele>525.0</ele><time>2026-04-12T14:09:18.594Z</time></trkpt><trkpt lat="40.7618588" lon="9.427855"><ele>525.0</ele><time>2026-04-12T14:09:19.595Z</time></trkpt><trkpt lat="40.7619995" lon="9.4278747"><ele>525.0</ele><time>2026-04-12T14:09:20.586Z</time></trkpt><trkpt lat="40.7621453" lon="9.4278855"><ele>524.6666666666666</ele><time>2026-04-12T14:09:21.589Z</time></trkpt><trkpt lat="40.7622966" lon="9.4278901"><ele>524.3333333333333</ele><time>2026-04-12T14:09:22.588Z</time></trkpt><trkpt lat="40.7624586" lon="9.4278932"><ele>524.0</ele><time>2026-04-12T14:09:23.589Z</time></trkpt><trkpt lat="40.7626205" lon="9.427894"><ele>522.0</ele><time>2026-04-12T14:09:24.581Z</time></trkpt><trkpt lat="40.7627821" lon="9.4278773"><ele>520.0</ele><time>2026-04-12T14:09:25.596Z</time></trkpt><trkpt lat="40.76294" lon="9.4278484"><ele>518.0</ele><time>2026-04-12T14:09:26.596Z</time></trkpt><trkpt lat="40.7630875" lon="9.4278076"><ele>518.0</ele><time>2026-04-12T14:09:27.587Z</time></trkpt><trkpt lat="40.7632335" lon="9.4277589"><ele>518.0</ele><time>2026-04-12T14:09:28.578Z</time></trkpt><trkpt lat="40.7633698" lon="9.4277033"><ele>518.0</ele><time>2026-04-12T14:09:29.6Z</time></trkpt><trkpt lat="40.7635056" lon="9.4276566"><ele>518.0</ele><time>2026-04-12T14:09:30.594Z</time></trkpt><trkpt lat="40.7636469" lon="9.4276373"><ele>518.5</ele><time>2026-04-12T14:09:31.581Z</time></trkpt><trkpt lat="40.7637936" lon="9.427652"><ele>519.0</ele><time>2026-04-12T14:09:32.574Z</time></trkpt><trkpt lat="40.7639325" lon="9.4276957"><ele>519.5</ele><time>2026-04-12T14:09:33.588Z</time></trkpt><trkpt lat="40.7640752" lon="9.4277322"><ele>520.0</ele><time>2026-04-12T14:09:34.578Z</time></trkpt><trkpt lat="40.7642092" lon="9.4277369"><ele>520.0</ele><time>2026-04-12T14:09:35.584Z</time></trkpt><trkpt lat="40.7643476" lon="9.4277195"><ele>520.0</ele><time>2026-04-12T14:09:36.586Z</time></trkpt><trkpt lat="40.7644914" lon="9.427685"><ele>520.0</ele><time>2026-04-12T14:09:37.579Z</time></trkpt><trkpt lat="40.7646312" lon="9.4276394"><ele>520.0</ele><time>2026-04-12T14:09:38.575Z</time></trkpt><trkpt lat="40.7647623" lon="9.4275771"><ele>521.0</ele><time>2026-04-12T14:09:39.594Z</time></trkpt><trkpt lat="40.7648855" lon="9.4274879"><ele>522.0</ele><time>2026-04-12T14:09:40.582Z</time></trkpt><trkpt lat="40.764999" lon="9.4273788"><ele>523.0</ele><time>2026-04-12T14:09:41.571Z</time></trkpt><trkpt lat="40.7651011" lon="9.4272616"><ele>524.0</ele><time>2026-04-12T14:09:42.594Z</time></trkpt><trkpt lat="40.7652009" lon="9.4271477"><ele>526.0</ele><time>2026-04-12T14:09:43.569Z</time></trkpt><trkpt lat="40.7652886" lon="9.4270566"><ele>528.0</ele><time>2026-04-12T14:09:44.584Z</time></trkpt><trkpt lat="40.7653841" lon="9.4270065"><ele>530.0</ele><time>2026-04-12T14:09:45.59Z</time></trkpt><trkpt lat="40.7654846" lon="9.4269978"><ele>532.0</ele><time>2026-04-12T14:09:46.576Z</time></trkpt><trkpt lat="40.7655903" lon="9.4270277"><ele>534.0</ele><time>2026-04-12T14:09:47.598Z</time></trkpt><trkpt lat="40.7656962" lon="9.4270863"><ele>533.75</ele><time>2026-04-12T14:09:48.57Z</time></trkpt><trkpt lat="40.7658045" lon="9.4271521"><ele>533.5</ele><time>2026-04-12T14:09:49.581Z</time></trkpt><trkpt lat="40.7659192" lon="9.4272298"><ele>533.25</ele><time>2026-04-12T14:09:50.576Z</time></trkpt><trkpt lat="40.7660345" lon="9.4273151"><ele>533.0</ele><time>2026-04-12T14:09:51.57Z</time></trkpt><trkpt lat="40.7661552" lon="9.4274094"><ele>533.0</ele><time>2026-04-12T14:09:52.571Z</time></trkpt><trkpt lat="40.7662806" lon="9.4275161"><ele>533.0</ele><time>2026-04-12T14:09:53.589Z</time></trkpt><trkpt lat="40.7664062" lon="9.4276284"><ele>533.0</ele><time>2026-04-12T14:09:54.572Z</time></trkpt><trkpt lat="40.7665377" lon="9.4277484"><ele>533.0</ele><time>2026-04-12T14:09:55.569Z</time></trkpt><trkpt lat="40.7666718" lon="9.4278742"><ele>533.0</ele><time>2026-04-12T14:09:56.595Z</time></trkpt><trkpt lat="40.766807" lon="9.4280108"><ele>533.0</ele><time>2026-04-12T14:09:57.568Z</time></trkpt><trkpt lat="40.7669413" lon="9.4281495"><ele>531.6666666666666</ele><time>2026-04-12T14:09:58.57Z</time></trkpt><trkpt lat="40.7670812" lon="9.4282846"><ele>530.3333333333334</ele><time>2026-04-12T14:09:59.57Z</time></trkpt><trkpt lat="40.7672196" lon="9.4284187"><ele>529.0</ele><time>2026-04-12T14:10:00.582Z</time></trkpt><trkpt lat="40.7673568" lon="9.4285573"><ele>529.0</ele><time>2026-04-12T14:10:01.577Z</time></trkpt><trkpt lat="40.7675001" lon="9.4286916"><ele>529.0</ele><time>2026-04-12T14:10:02.583Z</time></trkpt><trkpt lat="40.7676401" lon="9.4288227"><ele>529.0</ele><time>2026-04-12T14:10:03.579Z</time></trkpt><trkpt lat="40.7677804" lon="9.4289471"><ele>531.0</ele><time>2026-04-12T14:10:04.567Z</time></trkpt><trkpt lat="40.7679172" lon="9.4290676"><ele>533.0</ele><time>2026-04-12T14:10:05.564Z</time></trkpt><trkpt lat="40.7680493" lon="9.4291911"><ele>535.0</ele><time>2026-04-12T14:10:06.59Z</time></trkpt><trkpt lat="40.7681772" lon="9.4293051"><ele>535.0</ele><time>2026-04-12T14:10:07.561Z</time></trkpt><trkpt lat="40.7682959" lon="9.4294078"><ele>535.0</ele><time>2026-04-12T14:10:08.563Z</time></trkpt><trkpt lat="40.7684122" lon="9.4294987"><ele>535.0</ele><time>2026-04-12T14:10:09.569Z</time></trkpt><trkpt lat="40.768524" lon="9.4295806"><ele>535.0</ele><time>2026-04-12T14:10:10.553Z</time></trkpt><trkpt lat="40.7686314" lon="9.4296559"><ele>532.0</ele><time>2026-04-12T14:10:11.548Z</time></trkpt><trkpt lat="40.7687403" lon="9.4297121"><ele>529.0</ele><time>2026-04-12T14:10:12.558Z</time></trkpt><trkpt lat="40.7688527" lon="9.4297394"><ele>526.0</ele><time>2026-04-12T14:10:13.551Z</time></trkpt><trkpt lat="40.7689767" lon="9.4297507"><ele>523.0</ele><time>2026-04-12T14:10:14.55Z</time></trkpt><trkpt lat="40.7691027" lon="9.4297465"><ele>523.0</ele><time>2026-04-12T14:10:15.552Z</time></trkpt><trkpt lat="40.7692314" lon="9.4297211"><ele>523.0</ele><time>2026-04-12T14:10:16.554Z</time></trkpt><trkpt lat="40.7693493" lon="9.4296724"><ele>523.0</ele><time>2026-04-12T14:10:17.559Z</time></trkpt><trkpt lat="40.7694569" lon="9.4295955"><ele>523.0</ele><time>2026-04-12T14:10:18.555Z</time></trkpt><trkpt lat="40.7695439" lon="9.4295038"><ele>520.75</ele><time>2026-04-12T14:10:19.546Z</time></trkpt><trkpt lat="40.7696049" lon="9.4293879"><ele>518.5</ele><time>2026-04-12T14:10:20.547Z</time></trkpt><trkpt lat="40.7696542" lon="9.4292453"><ele>516.25</ele><time>2026-04-12T14:10:21.547Z</time></trkpt><trkpt lat="40.7697125" lon="9.4291033"><ele>514.0</ele><time>2026-04-12T14:10:22.542Z</time></trkpt><trkpt lat="40.7697864" lon="9.4289821"><ele>514.0</ele><time>2026-04-12T14:10:23.539Z</time></trkpt><trkpt lat="40.7698787" lon="9.4288774"><ele>514.0</ele><time>2026-04-12T14:10:24.536Z</time></trkpt><trkpt lat="40.7699652" lon="9.4287799"><ele>514.0</ele><time>2026-04-12T14:10:25.531Z</time></trkpt><trkpt lat="40.7700406" lon="9.4286923"><ele>514.0</ele><time>2026-04-12T14:10:26.533Z</time></trkpt><trkpt lat="40.7701107" lon="9.428625"><ele>514.0</ele><time>2026-04-12T14:10:27.537Z</time></trkpt><trkpt lat="40.7701779" lon="9.4285903"><ele>514.0</ele><time>2026-04-12T14:10:28.53Z</time></trkpt><trkpt lat="40.7702459" lon="9.4285952"><ele>514.0</ele><time>2026-04-12T14:10:29.529Z</time></trkpt><trkpt lat="40.7702917" lon="9.4286544"><ele>514.0</ele><time>2026-04-12T14:10:30.534Z</time></trkpt><trkpt lat="40.7703086" lon="9.428744"><ele>514.0</ele><time>2026-04-12T14:10:31.526Z</time></trkpt><trkpt lat="40.7702921" lon="9.4288533"><ele>514.0</ele><time>2026-04-12T14:10:32.535Z</time></trkpt><trkpt lat="40.7702409" lon="9.4289532"><ele>514.0</ele><time>2026-04-12T14:10:33.524Z</time></trkpt><trkpt lat="40.770176" lon="9.4290608"><ele>514.0</ele><time>2026-04-12T14:10:34.531Z</time></trkpt><trkpt lat="40.770119" lon="9.4291774"><ele>514.0</ele><time>2026-04-12T14:10:35.622Z</time></trkpt><trkpt lat="40.7700806" lon="9.4293076"><ele>514.0</ele><time>2026-04-12T14:10:36.628Z</time></trkpt><trkpt lat="40.7700662" lon="9.4294556"><ele>514.0</ele><time>2026-04-12T14:10:37.623Z</time></trkpt><trkpt lat="40.7700576" lon="9.429608"><ele>514.0</ele><time>2026-04-12T14:10:38.621Z</time></trkpt><trkpt lat="40.7700467" lon="9.4297528"><ele>510.79999999999995</ele><time>2026-04-12T14:10:39.634Z</time></trkpt><trkpt lat="40.770024" lon="9.4298888"><ele>507.59999999999997</ele><time>2026-04-12T14:10:40.636Z</time></trkpt><trkpt lat="40.7699961" lon="9.4300231"><ele>504.4</ele><time>2026-04-12T14:10:41.63Z</time></trkpt><trkpt lat="40.7699396" lon="9.4301325"><ele>501.2</ele><time>2026-04-12T14:10:42.616Z</time></trkpt><trkpt lat="40.7698924" lon="9.4302301"><ele>498.0</ele><time>2026-04-12T14:10:43.621Z</time></trkpt><trkpt lat="40.7698763" lon="9.4303176"><ele>498.0</ele><time>2026-04-12T14:10:44.621Z</time></trkpt><trkpt lat="40.7699344" lon="9.4304353"><ele>498.0</ele><time>2026-04-12T14:10:46.621Z</time></trkpt><trkpt lat="40.7699968" lon="9.4304709"><ele>498.0</ele><time>2026-04-12T14:10:47.618Z</time></trkpt><trkpt lat="40.7700753" lon="9.4304985"><ele>498.0</ele><time>2026-04-12T14:10:48.623Z</time></trkpt><trkpt lat="40.770161" lon="9.4305331"><ele>498.0</ele><time>2026-04-12T14:10:49.615Z</time></trkpt><trkpt lat="40.7702512" lon="9.4305787"><ele>498.0</ele><time>2026-04-12T14:10:50.608Z</time></trkpt><trkpt lat="40.7703488" lon="9.4306308"><ele>491.75</ele><time>2026-04-12T14:10:51.608Z</time></trkpt><trkpt lat="40.7704569" lon="9.4306943"><ele>485.5</ele><time>2026-04-12T14:10:52.606Z</time></trkpt><trkpt lat="40.7705685" lon="9.4307733"><ele>479.25</ele><time>2026-04-12T14:10:53.619Z</time></trkpt><trkpt lat="40.7706679" lon="9.4308732"><ele>473.0</ele><time>2026-04-12T14:10:54.614Z</time></trkpt><trkpt lat="40.7707427" lon="9.4309944"><ele>473.0</ele><time>2026-04-12T14:10:55.616Z</time></trkpt><trkpt lat="40.7707963" lon="9.4311353"><ele>473.0</ele><time>2026-04-12T14:10:56.609Z</time></trkpt><trkpt lat="40.7708412" lon="9.4312843"><ele>473.0</ele><time>2026-04-12T14:10:57.61Z</time></trkpt><trkpt lat="40.7708833" lon="9.43144"><ele>473.0</ele><time>2026-04-12T14:10:58.61Z</time></trkpt><trkpt lat="40.7709288" lon="9.4316054"><ele>472.0</ele><time>2026-04-12T14:10:59.605Z</time></trkpt><trkpt lat="40.7709654" lon="9.4317714"><ele>471.0</ele><time>2026-04-12T14:11:00.616Z</time></trkpt><trkpt lat="40.770981" lon="9.4319439"><ele>470.0</ele><time>2026-04-12T14:11:01.61Z</time></trkpt><trkpt lat="40.7709969" lon="9.432096"><ele>469.0</ele><time>2026-04-12T14:11:02.604Z</time></trkpt><trkpt lat="40.7710299" lon="9.432211"><ele>464.4</ele><time>2026-04-12T14:11:03.612Z</time></trkpt><trkpt lat="40.771086" lon="9.4322944"><ele>459.79999999999995</ele><time>2026-04-12T14:11:04.602Z</time></trkpt><trkpt lat="40.7711715" lon="9.4323538"><ele>455.20000000000005</ele><time>2026-04-12T14:11:05.595Z</time></trkpt><trkpt lat="40.77127" lon="9.4324203"><ele>450.6</ele><time>2026-04-12T14:11:06.595Z</time></trkpt><trkpt lat="40.7713791" lon="9.4324897"><ele>446.0</ele><time>2026-04-12T14:11:07.61Z</time></trkpt><trkpt lat="40.7714952" lon="9.4325727"><ele>446.0</ele><time>2026-04-12T14:11:08.595Z</time></trkpt><trkpt lat="40.7716078" lon="9.4326586"><ele>446.0</ele><time>2026-04-12T14:11:09.59Z</time></trkpt><trkpt lat="40.7717205" lon="9.4327502"><ele>446.0</ele><time>2026-04-12T14:11:10.607Z</time></trkpt><trkpt lat="40.7718345" lon="9.4328518"><ele>446.0</ele><time>2026-04-12T14:11:11.592Z</time></trkpt><trkpt lat="40.7719371" lon="9.4329667"><ele>442.0</ele><time>2026-04-12T14:11:12.586Z</time></trkpt><trkpt lat="40.7720327" lon="9.4330915"><ele>438.0</ele><time>2026-04-12T14:11:13.591Z</time></trkpt><trkpt lat="40.7721272" lon="9.4332144"><ele>434.0</ele><time>2026-04-12T14:11:14.593Z</time></trkpt><trkpt lat="40.7722138" lon="9.4333515"><ele>430.0</ele><time>2026-04-12T14:11:15.586Z</time></trkpt><trkpt lat="40.7722977" lon="9.433497"><ele>430.0</ele><time>2026-04-12T14:11:16.596Z</time></trkpt><trkpt lat="40.7723915" lon="9.4336324"><ele>430.0</ele><time>2026-04-12T14:11:17.588Z</time></trkpt><trkpt lat="40.7724938" lon="9.4337562"><ele>430.0</ele><time>2026-04-12T14:11:18.582Z</time></trkpt><trkpt lat="40.7725994" lon="9.4338783"><ele>430.0</ele><time>2026-04-12T14:11:19.582Z</time></trkpt><trkpt lat="40.7727085" lon="9.4339987"><ele>423.33333333333337</ele><time>2026-04-12T14:11:20.58Z</time></trkpt><trkpt lat="40.7728244" lon="9.4341168"><ele>416.66666666666663</ele><time>2026-04-12T14:11:21.584Z</time></trkpt><trkpt lat="40.7729471" lon="9.4342345"><ele>410.0</ele><time>2026-04-12T14:11:22.59Z</time></trkpt><trkpt lat="40.7730704" lon="9.434353"><ele>410.0</ele><time>2026-04-12T14:11:23.589Z</time></trkpt><trkpt lat="40.7731973" lon="9.4344787"><ele>410.0</ele><time>2026-04-12T14:11:24.591Z</time></trkpt><trkpt lat="40.7733244" lon="9.434613"><ele>410.0</ele><time>2026-04-12T14:11:25.582Z</time></trkpt><trkpt lat="40.7734403" lon="9.4347367"><ele>405.25</ele><time>2026-04-12T14:11:26.565Z</time></trkpt><trkpt lat="40.7735524" lon="9.4348354"><ele>400.5</ele><time>2026-04-12T14:11:27.569Z</time></trkpt><trkpt lat="40.7736668" lon="9.434915"><ele>395.75</ele><time>2026-04-12T14:11:28.577Z</time></trkpt><trkpt lat="40.7737795" lon="9.4349802"><ele>391.0</ele><time>2026-04-12T14:11:29.582Z</time></trkpt><trkpt lat="40.7738978" lon="9.435022"><ele>391.0</ele><time>2026-04-12T14:11:30.571Z</time></trkpt><trkpt lat="40.7740233" lon="9.4350394"><ele>391.0</ele><time>2026-04-12T14:11:31.577Z</time></trkpt><trkpt lat="40.7741492" lon="9.4350528"><ele>391.0</ele><time>2026-04-12T14:11:32.578Z</time></trkpt><trkpt lat="40.7742709" lon="9.4350679"><ele>391.0</ele><time>2026-04-12T14:11:33.575Z</time></trkpt><trkpt lat="40.7743792" lon="9.4350958"><ele>388.4</ele><time>2026-04-12T14:11:34.576Z</time></trkpt><trkpt lat="40.7744738" lon="9.4351375"><ele>385.8</ele><time>2026-04-12T14:11:35.572Z</time></trkpt><trkpt lat="40.7745516" lon="9.4352172"><ele>383.2</ele><time>2026-04-12T14:11:36.562Z</time></trkpt><trkpt lat="40.7746114" lon="9.4353267"><ele>380.59999999999997</ele><time>2026-04-12T14:11:37.561Z</time></trkpt><trkpt lat="40.7746467" lon="9.4354606"><ele>378.0</ele><time>2026-04-12T14:11:38.556Z</time></trkpt><trkpt lat="40.7746553" lon="9.4356115"><ele>373.75</ele><time>2026-04-12T14:11:39.555Z</time></trkpt><trkpt lat="40.7746562" lon="9.4357655"><ele>369.5</ele><time>2026-04-12T14:11:40.589Z</time></trkpt><trkpt lat="40.7746608" lon="9.4359252"><ele>365.25</ele><time>2026-04-12T14:11:41.554Z</time></trkpt><trkpt lat="40.7746704" lon="9.4360875"><ele>361.0</ele><time>2026-04-12T14:11:42.563Z</time></trkpt><trkpt lat="40.7746837" lon="9.4362537"><ele>358.25</ele><time>2026-04-12T14:11:43.558Z</time></trkpt><trkpt lat="40.7746976" lon="9.43643"><ele>355.5</ele><time>2026-04-12T14:11:44.553Z</time></trkpt><trkpt lat="40.7747145" lon="9.4366089"><ele>352.75</ele><time>2026-04-12T14:11:45.557Z</time></trkpt><trkpt lat="40.7747387" lon="9.4367922"><ele>350.0</ele><time>2026-04-12T14:11:46.559Z</time></trkpt><trkpt lat="40.7747675" lon="9.4369767"><ele>350.25</ele><time>2026-04-12T14:11:47.558Z</time></trkpt><trkpt lat="40.7748042" lon="9.4371598"><ele>350.5</ele><time>2026-04-12T14:11:48.559Z</time></trkpt><trkpt lat="40.7748491" lon="9.437338"><ele>350.75</ele><time>2026-04-12T14:11:49.552Z</time></trkpt><trkpt lat="40.7748916" lon="9.4375165"><ele>351.0</ele><time>2026-04-12T14:11:50.54Z</time></trkpt><trkpt lat="40.7749352" lon="9.4376961"><ele>351.0</ele><time>2026-04-12T14:11:51.539Z</time></trkpt><trkpt lat="40.774988" lon="9.4378832"><ele>351.0</ele><time>2026-04-12T14:11:52.548Z</time></trkpt><trkpt lat="40.7750528" lon="9.4380654"><ele>351.0</ele><time>2026-04-12T14:11:53.542Z</time></trkpt><trkpt lat="40.7751288" lon="9.4382421"><ele>348.5</ele><time>2026-04-12T14:11:54.537Z</time></trkpt><trkpt lat="40.7752084" lon="9.4384119"><ele>346.0</ele><time>2026-04-12T14:11:55.539Z</time></trkpt><trkpt lat="40.7752865" lon="9.4385687"><ele>343.5</ele><time>2026-04-12T14:11:56.539Z</time></trkpt><trkpt lat="40.7753604" lon="9.438721"><ele>341.0</ele><time>2026-04-12T14:11:57.532Z</time></trkpt><trkpt lat="40.7754272" lon="9.4388804"><ele>341.0</ele><time>2026-04-12T14:11:58.535Z</time></trkpt><trkpt lat="40.7754848" lon="9.4390513"><ele>341.0</ele><time>2026-04-12T14:11:59.54Z</time></trkpt><trkpt lat="40.775537" lon="9.4392287"><ele>341.0</ele><time>2026-04-12T14:12:00.539Z</time></trkpt><trkpt lat="40.7755871" lon="9.4394127"><ele>341.0</ele><time>2026-04-12T14:12:01.536Z</time></trkpt><trkpt lat="40.7756363" lon="9.439606"><ele>339.0</ele><time>2026-04-12T14:12:02.533Z</time></trkpt><trkpt lat="40.7756842" lon="9.439799"><ele>337.0</ele><time>2026-04-12T14:12:03.538Z</time></trkpt><trkpt lat="40.775732" lon="9.4399896"><ele>335.0</ele><time>2026-04-12T14:12:04.534Z</time></trkpt><trkpt lat="40.7757804" lon="9.4401775"><ele>335.0</ele><time>2026-04-12T14:12:05.537Z</time></trkpt><trkpt lat="40.7758415" lon="9.4403458"><ele>335.0</ele><time>2026-04-12T14:12:06.531Z</time></trkpt><trkpt lat="40.7759192" lon="9.4404956"><ele>335.0</ele><time>2026-04-12T14:12:07.534Z</time></trkpt><trkpt lat="40.7760017" lon="9.4406372"><ele>335.0</ele><time>2026-04-12T14:12:08.533Z</time></trkpt><trkpt lat="40.7760808" lon="9.4407608"><ele>330.0</ele><time>2026-04-12T14:12:09.532Z</time></trkpt><trkpt lat="40.7761603" lon="9.4408727"><ele>325.0</ele><time>2026-04-12T14:12:10.529Z</time></trkpt><trkpt lat="40.7762376" lon="9.4409981"><ele>320.0</ele><time>2026-04-12T14:12:11.526Z</time></trkpt><trkpt lat="40.7763095" lon="9.4411342"><ele>315.0</ele><time>2026-04-12T14:12:12.541Z</time></trkpt><trkpt lat="40.7763746" lon="9.4412819"><ele>315.0</ele><time>2026-04-12T14:12:13.537Z</time></trkpt><trkpt lat="40.776438" lon="9.441445"><ele>315.0</ele><time>2026-04-12T14:12:14.53Z</time></trkpt><trkpt lat="40.7764999" lon="9.4416162"><ele>315.0</ele><time>2026-04-12T14:12:15.535Z</time></trkpt><trkpt lat="40.776565" lon="9.441775"><ele>315.0</ele><time>2026-04-12T14:12:16.544Z</time></trkpt><trkpt lat="40.7766397" lon="9.4419273"><ele>315.0</ele><time>2026-04-12T14:12:17.539Z</time></trkpt><trkpt lat="40.7767181" lon="9.4420725"><ele>315.0</ele><time>2026-04-12T14:12:18.533Z</time></trkpt><trkpt lat="40.7768054" lon="9.4422171"><ele>315.0</ele><time>2026-04-12T14:12:19.535Z</time></trkpt><trkpt lat="40.7768973" lon="9.4423625"><ele>315.0</ele><time>2026-04-12T14:12:20.551Z</time></trkpt><trkpt lat="40.7769922" lon="9.4425119"><ele>312.3333333333333</ele><time>2026-04-12T14:12:21.553Z</time></trkpt><trkpt lat="40.7770937" lon="9.442671"><ele>309.66666666666663</ele><time>2026-04-12T14:12:22.549Z</time></trkpt><trkpt lat="40.7771926" lon="9.4428328"><ele>307.0</ele><time>2026-04-12T14:12:23.541Z</time></trkpt><trkpt lat="40.7772927" lon="9.4429999"><ele>306.0</ele><time>2026-04-12T14:12:24.552Z</time></trkpt><trkpt lat="40.7773969" lon="9.4431636"><ele>305.0</ele><time>2026-04-12T14:12:25.54Z</time></trkpt><trkpt lat="40.7775003" lon="9.443327"><ele>304.0</ele><time>2026-04-12T14:12:26.536Z</time></trkpt><trkpt lat="40.7776014" lon="9.4434863"><ele>303.25</ele><time>2026-04-12T14:12:27.539Z</time></trkpt><trkpt lat="40.7777024" lon="9.4436434"><ele>302.5</ele><time>2026-04-12T14:12:28.56Z</time></trkpt><trkpt lat="40.7777965" lon="9.4437994"><ele>301.75</ele><time>2026-04-12T14:12:29.547Z</time></trkpt><trkpt lat="40.7778876" lon="9.4439403"><ele>301.0</ele><time>2026-04-12T14:12:30.54Z</time></trkpt><trkpt lat="40.7779915" lon="9.4440646"><ele>299.3333333333333</ele><time>2026-04-12T14:12:31.551Z</time></trkpt><trkpt lat="40.7781102" lon="9.444178"><ele>297.6666666666667</ele><time>2026-04-12T14:12:32.541Z</time></trkpt><trkpt lat="40.7782478" lon="9.444282"><ele>296.0</ele><time>2026-04-12T14:12:33.541Z</time></trkpt><trkpt lat="40.7783845" lon="9.4443821"><ele>296.0</ele><time>2026-04-12T14:12:34.543Z</time></trkpt><trkpt lat="40.7785137" lon="9.4444714"><ele>296.0</ele><time>2026-04-12T14:12:35.541Z</time></trkpt><trkpt lat="40.7786374" lon="9.4445575"><ele>296.0</ele><time>2026-04-12T14:12:36.56Z</time></trkpt><trkpt lat="40.7787576" lon="9.4446474"><ele>296.0</ele><time>2026-04-12T14:12:37.541Z</time></trkpt><trkpt lat="40.7788785" lon="9.4447546"><ele>292.33333333333337</ele><time>2026-04-12T14:12:38.542Z</time></trkpt><trkpt lat="40.7790061" lon="9.4448742"><ele>288.6666666666667</ele><time>2026-04-12T14:12:39.545Z</time></trkpt><trkpt lat="40.7791394" lon="9.4450058"><ele>285.0</ele><time>2026-04-12T14:12:40.541Z</time></trkpt><trkpt lat="40.7792751" lon="9.4451451"><ele>282.0</ele><time>2026-04-12T14:12:41.539Z</time></trkpt><trkpt lat="40.7794146" lon="9.4452915"><ele>279.0</ele><time>2026-04-12T14:12:42.543Z</time></trkpt><trkpt lat="40.7795535" lon="9.4454362"><ele>276.0</ele><time>2026-04-12T14:12:43.548Z</time></trkpt><trkpt lat="40.7796876" lon="9.4455801"><ele>276.0</ele><time>2026-04-12T14:12:44.55Z</time></trkpt><trkpt lat="40.7798185" lon="9.4457076"><ele>276.0</ele><time>2026-04-12T14:12:45.545Z</time></trkpt><trkpt lat="40.7799411" lon="9.4458342"><ele>276.0</ele><time>2026-04-12T14:12:46.556Z</time></trkpt><trkpt lat="40.7800549" lon="9.4459534"><ele>276.0</ele><time>2026-04-12T14:12:47.542Z</time></trkpt><trkpt lat="40.7801585" lon="9.446079"><ele>276.0</ele><time>2026-04-12T14:12:48.541Z</time></trkpt><trkpt lat="40.7802445" lon="9.4462106"><ele>276.0</ele><time>2026-04-12T14:12:49.548Z</time></trkpt><trkpt lat="40.7803011" lon="9.4463606"><ele>276.0</ele><time>2026-04-12T14:12:50.55Z</time></trkpt><trkpt lat="40.7803438" lon="9.4465212"><ele>273.75</ele><time>2026-04-12T14:12:51.544Z</time></trkpt><trkpt lat="40.7803975" lon="9.4466713"><ele>271.5</ele><time>2026-04-12T14:12:52.554Z</time></trkpt><trkpt lat="40.7804714" lon="9.446794"><ele>269.25</ele><time>2026-04-12T14:12:53.554Z</time></trkpt><trkpt lat="40.7805613" lon="9.4469091"><ele>267.0</ele><time>2026-04-12T14:12:54.542Z</time></trkpt><trkpt lat="40.7806538" lon="9.4470186"><ele>267.0</ele><time>2026-04-12T14:12:55.539Z</time></trkpt><trkpt lat="40.780754" lon="9.4471188"><ele>267.0</ele><time>2026-04-12T14:12:56.55Z</time></trkpt><trkpt lat="40.7808585" lon="9.4472176"><ele>267.0</ele><time>2026-04-12T14:12:57.552Z</time></trkpt><trkpt lat="40.7809618" lon="9.4473187"><ele>267.0</ele><time>2026-04-12T14:12:58.549Z</time></trkpt><trkpt lat="40.781063" lon="9.4474173"><ele>263.4</ele><time>2026-04-12T14:12:59.547Z</time></trkpt><trkpt lat="40.7811542" lon="9.4475094"><ele>259.79999999999995</ele><time>2026-04-12T14:13:00.561Z</time></trkpt><trkpt lat="40.7812358" lon="9.4475839"><ele>256.2</ele><time>2026-04-12T14:13:01.546Z</time></trkpt><trkpt lat="40.7813019" lon="9.4476729"><ele>252.6</ele><time>2026-04-12T14:13:02.552Z</time></trkpt><trkpt lat="40.7813533" lon="9.4477904"><ele>249.0</ele><time>2026-04-12T14:13:03.551Z</time></trkpt><trkpt lat="40.7813879" lon="9.4479299"><ele>249.0</ele><time>2026-04-12T14:13:04.559Z</time></trkpt><trkpt lat="40.7814157" lon="9.4480564"><ele>248.99999999999997</ele><time>2026-04-12T14:13:05.548Z</time></trkpt><trkpt lat="40.7814527" lon="9.4481548"><ele>248.99999999999997</ele><time>2026-04-12T14:13:06.57Z</time></trkpt><trkpt lat="40.7815127" lon="9.4482412"><ele>249.0</ele><time>2026-04-12T14:13:07.541Z</time></trkpt><trkpt lat="40.7815947" lon="9.4483222"><ele>249.0</ele><time>2026-04-12T14:13:08.549Z</time></trkpt><trkpt lat="40.7816827" lon="9.4483919"><ele>249.0</ele><time>2026-04-12T14:13:09.568Z</time></trkpt><trkpt lat="40.7817792" lon="9.4484563"><ele>249.0</ele><time>2026-04-12T14:13:10.543Z</time></trkpt><trkpt lat="40.7818777" lon="9.4485204"><ele>249.0</ele><time>2026-04-12T14:13:11.553Z</time></trkpt><trkpt lat="40.7819851" lon="9.448584"><ele>249.0</ele><time>2026-04-12T14:13:12.551Z</time></trkpt><trkpt lat="40.7820973" lon="9.4486435"><ele>246.79999999999998</ele><time>2026-04-12T14:13:13.546Z</time></trkpt><trkpt lat="40.7822069" lon="9.4487065"><ele>244.59999999999997</ele><time>2026-04-12T14:13:14.543Z</time></trkpt><trkpt lat="40.7823119" lon="9.4487658"><ele>242.4</ele><time>2026-04-12T14:13:15.544Z</time></trkpt><trkpt lat="40.7824072" lon="9.4488194"><ele>240.2</ele><time>2026-04-12T14:13:16.549Z</time></trkpt><trkpt lat="40.7825081" lon="9.448863"><ele>238.0</ele><time>2026-04-12T14:13:17.539Z</time></trkpt><trkpt lat="40.7826108" lon="9.4489093"><ele>238.60000000000002</ele><time>2026-04-12T14:13:18.563Z</time></trkpt><trkpt lat="40.7827147" lon="9.448951"><ele>239.20000000000002</ele><time>2026-04-12T14:13:19.549Z</time></trkpt><trkpt lat="40.7828178" lon="9.4489707"><ele>239.8</ele><time>2026-04-12T14:13:20.552Z</time></trkpt><trkpt lat="40.7829099" lon="9.4489561"><ele>240.4</ele><time>2026-04-12T14:13:21.554Z</time></trkpt><trkpt lat="40.7829881" lon="9.4489072"><ele>241.0</ele><time>2026-04-12T14:13:22.554Z</time></trkpt><trkpt lat="40.7830464" lon="9.4488211"><ele>239.83333333333331</ele><time>2026-04-12T14:13:23.567Z</time></trkpt><trkpt lat="40.7831002" lon="9.4487286"><ele>238.66666666666666</ele><time>2026-04-12T14:13:24.56Z</time></trkpt><trkpt lat="40.7831486" lon="9.4486359"><ele>237.5</ele><time>2026-04-12T14:13:25.547Z</time></trkpt><trkpt lat="40.7832123" lon="9.4485723"><ele>236.33333333333331</ele><time>2026-04-12T14:13:26.548Z</time></trkpt><trkpt lat="40.7832808" lon="9.4485475"><ele>235.16666666666666</ele><time>2026-04-12T14:13:27.555Z</time></trkpt><trkpt lat="40.7833531" lon="9.4485347"><ele>234.0</ele><time>2026-04-12T14:13:28.551Z</time></trkpt><trkpt lat="40.7834245" lon="9.4485545"><ele>234.0</ele><time>2026-04-12T14:13:29.55Z</time></trkpt><trkpt lat="40.783491" lon="9.4486063"><ele>233.99999999999997</ele><time>2026-04-12T14:13:30.572Z</time></trkpt><trkpt lat="40.7835653" lon="9.4486793"><ele>233.99999999999997</ele><time>2026-04-12T14:13:31.552Z</time></trkpt><trkpt lat="40.7836411" lon="9.4487688"><ele>234.0</ele><time>2026-04-12T14:13:32.567Z</time></trkpt><trkpt lat="40.7837207" lon="9.4488692"><ele>234.0</ele><time>2026-04-12T14:13:33.55Z</time></trkpt><trkpt lat="40.7838065" lon="9.4489722"><ele>236.5</ele><time>2026-04-12T14:13:34.564Z</time></trkpt><trkpt lat="40.7839033" lon="9.4490705"><ele>239.0</ele><time>2026-04-12T14:13:35.556Z</time></trkpt><trkpt lat="40.7840055" lon="9.4491563"><ele>241.5</ele><time>2026-04-12T14:13:36.556Z</time></trkpt><trkpt lat="40.7841053" lon="9.4492313"><ele>244.0</ele><time>2026-04-12T14:13:37.551Z</time></trkpt><trkpt lat="40.7841938" lon="9.4493045"><ele>243.99999999999997</ele><time>2026-04-12T14:13:38.55Z</time></trkpt><trkpt lat="40.7842687" lon="9.4493743"><ele>244.0</ele><time>2026-04-12T14:13:39.563Z</time></trkpt><trkpt lat="40.7843343" lon="9.4494403"><ele>244.0</ele><time>2026-04-12T14:13:40.564Z</time></trkpt><trkpt lat="40.7844026" lon="9.4495"><ele>244.0</ele><time>2026-04-12T14:13:41.566Z</time></trkpt><trkpt lat="40.7844776" lon="9.4495517"><ele>243.99999999999997</ele><time>2026-04-12T14:13:42.561Z</time></trkpt><trkpt lat="40.7845531" lon="9.449594"><ele>244.0</ele><time>2026-04-12T14:13:43.6Z</time></trkpt><trkpt lat="40.7846227" lon="9.4496267"><ele>244.99999999999997</ele><time>2026-04-12T14:13:44.576Z</time></trkpt><trkpt lat="40.7846878" lon="9.4496508"><ele>246.0</ele><time>2026-04-12T14:13:45.556Z</time></trkpt><trkpt lat="40.7847483" lon="9.4496783"><ele>247.0</ele><time>2026-04-12T14:13:46.559Z</time></trkpt><trkpt lat="40.7848396" lon="9.4497447"><ele>248.0</ele><time>2026-04-12T14:13:48.564Z</time></trkpt><trkpt lat="40.7848783" lon="9.4498696"><ele>248.99999999999997</ele><time>2026-04-12T14:13:50.565Z</time></trkpt><trkpt lat="40.7848622" lon="9.4499505"><ele>250.0</ele><time>2026-04-12T14:13:51.59Z</time></trkpt><trkpt lat="40.7848376" lon="9.4500414"><ele>250.0</ele><time>2026-04-12T14:13:52.563Z</time></trkpt><trkpt lat="40.784815" lon="9.4501439"><ele>250.0</ele><time>2026-04-12T14:13:53.564Z</time></trkpt><trkpt lat="40.7847915" lon="9.4502593"><ele>250.0</ele><time>2026-04-12T14:13:54.56Z</time></trkpt><trkpt lat="40.7847669" lon="9.450385"><ele>250.0</ele><time>2026-04-12T14:13:55.565Z</time></trkpt><trkpt lat="40.7847424" lon="9.4505166"><ele>250.0</ele><time>2026-04-12T14:13:56.562Z</time></trkpt><trkpt lat="40.7847168" lon="9.4506508"><ele>250.5</ele><time>2026-04-12T14:13:57.558Z</time></trkpt><trkpt lat="40.7846918" lon="9.4507862"><ele>251.0</ele><time>2026-04-12T14:13:58.565Z</time></trkpt><trkpt lat="40.7846632" lon="9.4509315"><ele>251.5</ele><time>2026-04-12T14:13:59.56Z</time></trkpt><trkpt lat="40.7846339" lon="9.4510806"><ele>252.0</ele><time>2026-04-12T14:14:00.56Z</time></trkpt><trkpt lat="40.7846057" lon="9.4512351"><ele>253.25</ele><time>2026-04-12T14:14:01.571Z</time></trkpt><trkpt lat="40.7845727" lon="9.4513898"><ele>254.5</ele><time>2026-04-12T14:14:02.557Z</time></trkpt><trkpt lat="40.7845407" lon="9.4515431"><ele>255.75</ele><time>2026-04-12T14:14:03.552Z</time></trkpt><trkpt lat="40.7845169" lon="9.4517055"><ele>257.0</ele><time>2026-04-12T14:14:04.558Z</time></trkpt><trkpt lat="40.7845056" lon="9.4518676"><ele>257.0</ele><time>2026-04-12T14:14:05.566Z</time></trkpt><trkpt lat="40.7845018" lon="9.4520337"><ele>257.0</ele><time>2026-04-12T14:14:06.558Z</time></trkpt><trkpt lat="40.784508" lon="9.4522054"><ele>257.0</ele><time>2026-04-12T14:14:07.561Z</time></trkpt><trkpt lat="40.7845262" lon="9.4523764"><ele>257.0</ele><time>2026-04-12T14:14:08.57Z</time></trkpt><trkpt lat="40.7845628" lon="9.4525398"><ele>257.0</ele><time>2026-04-12T14:14:09.556Z</time></trkpt><trkpt lat="40.7846116" lon="9.4527074"><ele>257.0</ele><time>2026-04-12T14:14:10.562Z</time></trkpt><trkpt lat="40.7846674" lon="9.4528718"><ele>257.0</ele><time>2026-04-12T14:14:11.56Z</time></trkpt><trkpt lat="40.784734" lon="9.4530347"><ele>257.0</ele><time>2026-04-12T14:14:12.576Z</time></trkpt><trkpt lat="40.7848069" lon="9.4531953"><ele>257.0</ele><time>2026-04-12T14:14:13.558Z</time></trkpt><trkpt lat="40.7848825" lon="9.4533571"><ele>257.0</ele><time>2026-04-12T14:14:14.558Z</time></trkpt><trkpt lat="40.7849582" lon="9.453522"><ele>257.0</ele><time>2026-04-12T14:14:15.569Z</time></trkpt><trkpt lat="40.7850346" lon="9.453683"><ele>257.0</ele><time>2026-04-12T14:14:16.57Z</time></trkpt><trkpt lat="40.7851177" lon="9.4538398"><ele>259.75</ele><time>2026-04-12T14:14:17.565Z</time></trkpt><trkpt lat="40.7851939" lon="9.453987"><ele>262.5</ele><time>2026-04-12T14:14:18.561Z</time></trkpt><trkpt lat="40.785271" lon="9.454127"><ele>265.25</ele><time>2026-04-12T14:14:19.563Z</time></trkpt><trkpt lat="40.7853445" lon="9.4542671"><ele>268.0</ele><time>2026-04-12T14:14:20.566Z</time></trkpt><trkpt lat="40.7854145" lon="9.4544008"><ele>268.0</ele><time>2026-04-12T14:14:21.564Z</time></trkpt><trkpt lat="40.7854814" lon="9.4545142"><ele>268.0</ele><time>2026-04-12T14:14:22.556Z</time></trkpt><trkpt lat="40.7855516" lon="9.4546212"><ele>268.0</ele><time>2026-04-12T14:14:23.564Z</time></trkpt><trkpt lat="40.7856204" lon="9.4547199"><ele>268.0</ele><time>2026-04-12T14:14:24.561Z</time></trkpt><trkpt lat="40.7856894" lon="9.4548198"><ele>268.0</ele><time>2026-04-12T14:14:25.561Z</time></trkpt><trkpt lat="40.7857588" lon="9.4549282"><ele>266.0</ele><time>2026-04-12T14:14:26.561Z</time></trkpt><trkpt lat="40.7858157" lon="9.4550509"><ele>264.0</ele><time>2026-04-12T14:14:27.555Z</time></trkpt><trkpt lat="40.7858483" lon="9.4552056"><ele>262.0</ele><time>2026-04-12T14:14:28.56Z</time></trkpt><trkpt lat="40.7858667" lon="9.4553694"><ele>260.0</ele><time>2026-04-12T14:14:29.559Z</time></trkpt><trkpt lat="40.7858888" lon="9.4555282"><ele>258.25</ele><time>2026-04-12T14:14:30.561Z</time></trkpt><trkpt lat="40.7859241" lon="9.455681"><ele>256.5</ele><time>2026-04-12T14:14:31.56Z</time></trkpt><trkpt lat="40.7859672" lon="9.4558245"><ele>254.75</ele><time>2026-04-12T14:14:32.559Z</time></trkpt><trkpt lat="40.7860128" lon="9.4559637"><ele>253.0</ele><time>2026-04-12T14:14:33.561Z</time></trkpt><trkpt lat="40.7860587" lon="9.4561016"><ele>257.0</ele><time>2026-04-12T14:14:34.569Z</time></trkpt><trkpt lat="40.7861025" lon="9.4562392"><ele>261.0</ele><time>2026-04-12T14:14:35.561Z</time></trkpt><trkpt lat="40.7861376" lon="9.4563853"><ele>265.0</ele><time>2026-04-12T14:14:36.565Z</time></trkpt><trkpt lat="40.7861667" lon="9.4565253"><ele>269.0</ele><time>2026-04-12T14:14:37.576Z</time></trkpt><trkpt lat="40.7861877" lon="9.4566583"><ele>273.0</ele><time>2026-04-12T14:14:38.563Z</time></trkpt><trkpt lat="40.7862059" lon="9.4567766"><ele>273.0</ele><time>2026-04-12T14:14:39.558Z</time></trkpt><trkpt lat="40.7862216" lon="9.4568858"><ele>273.0</ele><time>2026-04-12T14:14:40.562Z</time></trkpt><trkpt lat="40.7862338" lon="9.456983"><ele>273.0</ele><time>2026-04-12T14:14:41.561Z</time></trkpt><trkpt lat="40.7862422" lon="9.45707"><ele>273.0</ele><time>2026-04-12T14:14:42.569Z</time></trkpt><trkpt lat="40.7862315" lon="9.4572286"><ele>273.0</ele><time>2026-04-12T14:14:44.571Z</time></trkpt><trkpt lat="40.786203" lon="9.4573158"><ele>273.0</ele><time>2026-04-12T14:14:45.574Z</time></trkpt><trkpt lat="40.7861584" lon="9.457399"><ele>271.8</ele><time>2026-04-12T14:14:46.571Z</time></trkpt><trkpt lat="40.7861014" lon="9.4574771"><ele>270.6</ele><time>2026-04-12T14:14:47.57Z</time></trkpt><trkpt lat="40.7860345" lon="9.4575495"><ele>269.4</ele><time>2026-04-12T14:14:48.565Z</time></trkpt><trkpt lat="40.7859572" lon="9.4576159"><ele>268.2</ele><time>2026-04-12T14:14:49.556Z</time></trkpt><trkpt lat="40.7858719" lon="9.4576798"><ele>267.0</ele><time>2026-04-12T14:14:50.561Z</time></trkpt><trkpt lat="40.7857839" lon="9.4577489"><ele>268.2</ele><time>2026-04-12T14:14:51.565Z</time></trkpt><trkpt lat="40.7856963" lon="9.4578218"><ele>269.4</ele><time>2026-04-12T14:14:52.567Z</time></trkpt><trkpt lat="40.7856098" lon="9.4579025"><ele>270.6</ele><time>2026-04-12T14:14:53.578Z</time></trkpt><trkpt lat="40.7855247" lon="9.4579894"><ele>271.8</ele><time>2026-04-12T14:14:54.565Z</time></trkpt><trkpt lat="40.7854391" lon="9.4580848"><ele>273.0</ele><time>2026-04-12T14:14:55.563Z</time></trkpt><trkpt lat="40.7853599" lon="9.458189"><ele>273.0</ele><time>2026-04-12T14:14:56.563Z</time></trkpt><trkpt lat="40.7852893" lon="9.4582984"><ele>273.0</ele><time>2026-04-12T14:14:57.583Z</time></trkpt><trkpt lat="40.7852267" lon="9.4584244"><ele>273.0</ele><time>2026-04-12T14:14:58.576Z</time></trkpt><trkpt lat="40.785175" lon="9.4585595"><ele>273.0</ele><time>2026-04-12T14:14:59.563Z</time></trkpt><trkpt lat="40.7851283" lon="9.4587002"><ele>273.5</ele><time>2026-04-12T14:15:00.57Z</time></trkpt><trkpt lat="40.7850751" lon="9.4588397"><ele>274.0</ele><time>2026-04-12T14:15:01.566Z</time></trkpt><trkpt lat="40.7850175" lon="9.4589825"><ele>274.5</ele><time>2026-04-12T14:15:02.562Z</time></trkpt><trkpt lat="40.7849508" lon="9.4591176"><ele>275.0</ele><time>2026-04-12T14:15:03.564Z</time></trkpt><trkpt lat="40.7848737" lon="9.4592398"><ele>275.0</ele><time>2026-04-12T14:15:04.57Z</time></trkpt><trkpt lat="40.7847859" lon="9.4593428"><ele>275.0</ele><time>2026-04-12T14:15:05.573Z</time></trkpt><trkpt lat="40.784693" lon="9.4594391"><ele>275.0</ele><time>2026-04-12T14:15:06.583Z</time></trkpt><trkpt lat="40.7845891" lon="9.4595303"><ele>275.0</ele><time>2026-04-12T14:15:07.565Z</time></trkpt><trkpt lat="40.7844759" lon="9.4596194"><ele>276.5</ele><time>2026-04-12T14:15:08.56Z</time></trkpt><trkpt lat="40.7843518" lon="9.4596939"><ele>278.0</ele><time>2026-04-12T14:15:09.574Z</time></trkpt><trkpt lat="40.7842166" lon="9.4597663"><ele>279.5</ele><time>2026-04-12T14:15:10.571Z</time></trkpt><trkpt lat="40.7840737" lon="9.4598243"><ele>281.0</ele><time>2026-04-12T14:15:11.588Z</time></trkpt><trkpt lat="40.7839258" lon="9.4598815"><ele>277.0</ele><time>2026-04-12T14:15:12.565Z</time></trkpt><trkpt lat="40.783773" lon="9.4599417"><ele>273.0</ele><time>2026-04-12T14:15:13.579Z</time></trkpt><trkpt lat="40.7836251" lon="9.4600033"><ele>269.0</ele><time>2026-04-12T14:15:14.583Z</time></trkpt><trkpt lat="40.7834841" lon="9.460064"><ele>269.0</ele><time>2026-04-12T14:15:15.556Z</time></trkpt><trkpt lat="40.7833541" lon="9.4601273"><ele>269.0</ele><time>2026-04-12T14:15:16.573Z</time></trkpt><trkpt lat="40.783233" lon="9.460198"><ele>269.0</ele><time>2026-04-12T14:15:17.582Z</time></trkpt><trkpt lat="40.7831163" lon="9.4602792"><ele>269.0</ele><time>2026-04-12T14:15:18.575Z</time></trkpt><trkpt lat="40.7830052" lon="9.4603703"><ele>269.5</ele><time>2026-04-12T14:15:19.557Z</time></trkpt><trkpt lat="40.7828933" lon="9.4604794"><ele>270.0</ele><time>2026-04-12T14:15:20.56Z</time></trkpt><trkpt lat="40.7827852" lon="9.4605938"><ele>270.5</ele><time>2026-04-12T14:15:21.562Z</time></trkpt><trkpt lat="40.782678" lon="9.4607038"><ele>271.0</ele><time>2026-04-12T14:15:22.566Z</time></trkpt><trkpt lat="40.7825687" lon="9.4608177"><ele>271.0</ele><time>2026-04-12T14:15:23.572Z</time></trkpt><trkpt lat="40.7824558" lon="9.4609318"><ele>271.0</ele><time>2026-04-12T14:15:24.56Z</time></trkpt><trkpt lat="40.7823359" lon="9.4610411"><ele>271.0</ele><time>2026-04-12T14:15:25.554Z</time></trkpt><trkpt lat="40.7822117" lon="9.4611552"><ele>271.0</ele><time>2026-04-12T14:15:26.579Z</time></trkpt><trkpt lat="40.7820859" lon="9.461271"><ele>271.66666666666663</ele><time>2026-04-12T14:15:27.588Z</time></trkpt><trkpt lat="40.7819576" lon="9.4613885"><ele>272.3333333333333</ele><time>2026-04-12T14:15:28.561Z</time></trkpt><trkpt lat="40.7818289" lon="9.4615077"><ele>273.0</ele><time>2026-04-12T14:15:29.558Z</time></trkpt><trkpt lat="40.7817004" lon="9.4616234"><ele>273.3333333333333</ele><time>2026-04-12T14:15:30.577Z</time></trkpt><trkpt lat="40.7815774" lon="9.461737"><ele>273.66666666666663</ele><time>2026-04-12T14:15:31.558Z</time></trkpt><trkpt lat="40.7814542" lon="9.4618541"><ele>274.0</ele><time>2026-04-12T14:15:32.569Z</time></trkpt><trkpt lat="40.7813314" lon="9.4619716"><ele>274.0</ele><time>2026-04-12T14:15:33.564Z</time></trkpt><trkpt lat="40.7812095" lon="9.4620888"><ele>274.0</ele><time>2026-04-12T14:15:34.568Z</time></trkpt><trkpt lat="40.7810879" lon="9.4622146"><ele>274.0</ele><time>2026-04-12T14:15:35.57Z</time></trkpt><trkpt lat="40.7809676" lon="9.4623455"><ele>275.0</ele><time>2026-04-12T14:15:36.571Z</time></trkpt><trkpt lat="40.7808501" lon="9.4624847"><ele>276.0</ele><time>2026-04-12T14:15:37.571Z</time></trkpt><trkpt lat="40.7807365" lon="9.4626273"><ele>277.0</ele><time>2026-04-12T14:15:38.561Z</time></trkpt><trkpt lat="40.7806242" lon="9.4627757"><ele>277.0</ele><time>2026-04-12T14:15:39.565Z</time></trkpt><trkpt lat="40.7805089" lon="9.4629306"><ele>277.0</ele><time>2026-04-12T14:15:40.563Z</time></trkpt><trkpt lat="40.780391" lon="9.463087"><ele>277.0</ele><time>2026-04-12T14:15:41.567Z</time></trkpt><trkpt lat="40.7802676" lon="9.4632455"><ele>278.0</ele><time>2026-04-12T14:15:42.561Z</time></trkpt><trkpt lat="40.7801416" lon="9.4634074"><ele>279.0</ele><time>2026-04-12T14:15:43.553Z</time></trkpt><trkpt lat="40.7800142" lon="9.4635724"><ele>280.0</ele><time>2026-04-12T14:15:44.569Z</time></trkpt><trkpt lat="40.7798857" lon="9.4637396"><ele>279.66666666666663</ele><time>2026-04-12T14:15:45.555Z</time></trkpt><trkpt lat="40.7797584" lon="9.4639059"><ele>279.3333333333333</ele><time>2026-04-12T14:15:46.559Z</time></trkpt><trkpt lat="40.7796289" lon="9.4640771"><ele>279.0</ele><time>2026-04-12T14:15:47.553Z</time></trkpt><trkpt lat="40.7795006" lon="9.4642479"><ele>279.0</ele><time>2026-04-12T14:15:48.567Z</time></trkpt><trkpt lat="40.7793764" lon="9.464422"><ele>279.0</ele><time>2026-04-12T14:15:49.564Z</time></trkpt><trkpt lat="40.7792514" lon="9.4646005"><ele>279.0</ele><time>2026-04-12T14:15:50.569Z</time></trkpt><trkpt lat="40.7791279" lon="9.464775"><ele>280.0</ele><time>2026-04-12T14:15:51.569Z</time></trkpt><trkpt lat="40.7790079" lon="9.4649482"><ele>281.0</ele><time>2026-04-12T14:15:52.555Z</time></trkpt><trkpt lat="40.7788884" lon="9.4651244"><ele>282.0</ele><time>2026-04-12T14:15:53.549Z</time></trkpt><trkpt lat="40.7787694" lon="9.4653016"><ele>283.3333333333333</ele><time>2026-04-12T14:15:54.56Z</time></trkpt><trkpt lat="40.7786513" lon="9.465477"><ele>284.66666666666663</ele><time>2026-04-12T14:15:55.558Z</time></trkpt><trkpt lat="40.7785423" lon="9.4656372"><ele>286.0</ele><time>2026-04-12T14:15:56.581Z</time></trkpt><trkpt lat="40.778449" lon="9.4657822"><ele>286.5</ele><time>2026-04-12T14:15:57.564Z</time></trkpt><trkpt lat="40.7783704" lon="9.4659192"><ele>287.0</ele><time>2026-04-12T14:15:58.57Z</time></trkpt><trkpt lat="40.778309" lon="9.4660637"><ele>287.5</ele><time>2026-04-12T14:15:59.571Z</time></trkpt><trkpt lat="40.7782751" lon="9.4662215"><ele>288.0</ele><time>2026-04-12T14:16:00.566Z</time></trkpt><trkpt lat="40.7782616" lon="9.4663962"><ele>289.25</ele><time>2026-04-12T14:16:01.555Z</time></trkpt><trkpt lat="40.7782665" lon="9.4665752"><ele>290.5</ele><time>2026-04-12T14:16:02.556Z</time></trkpt><trkpt lat="40.7782785" lon="9.4667571"><ele>291.75</ele><time>2026-04-12T14:16:03.558Z</time></trkpt><trkpt lat="40.7782895" lon="9.4669411"><ele>293.0</ele><time>2026-04-12T14:16:04.562Z</time></trkpt><trkpt lat="40.7782953" lon="9.4671313"><ele>294.25</ele><time>2026-04-12T14:16:05.553Z</time></trkpt><trkpt lat="40.7782885" lon="9.4673228"><ele>295.5</ele><time>2026-04-12T14:16:06.555Z</time></trkpt><trkpt lat="40.778266" lon="9.467509"><ele>296.75</ele><time>2026-04-12T14:16:07.557Z</time></trkpt><trkpt lat="40.7782272" lon="9.4676916"><ele>298.0</ele><time>2026-04-12T14:16:08.559Z</time></trkpt><trkpt lat="40.7781739" lon="9.4678663"><ele>297.25</ele><time>2026-04-12T14:16:09.557Z</time></trkpt><trkpt lat="40.7781078" lon="9.4680307"><ele>296.5</ele><time>2026-04-12T14:16:10.558Z</time></trkpt><trkpt lat="40.7780331" lon="9.4681876"><ele>295.75</ele><time>2026-04-12T14:16:11.556Z</time></trkpt><trkpt lat="40.7779593" lon="9.4683314"><ele>295.0</ele><time>2026-04-12T14:16:12.552Z</time></trkpt><trkpt lat="40.7778715" lon="9.4684619"><ele>295.0</ele><time>2026-04-12T14:16:13.556Z</time></trkpt><trkpt lat="40.7777639" lon="9.468594"><ele>295.0</ele><time>2026-04-12T14:16:14.559Z</time></trkpt><trkpt lat="40.7776496" lon="9.4687307"><ele>295.0</ele><time>2026-04-12T14:16:15.564Z</time></trkpt><trkpt lat="40.7775271" lon="9.4688816"><ele>295.3333333333333</ele><time>2026-04-12T14:16:16.57Z</time></trkpt><trkpt lat="40.7774051" lon="9.4690448"><ele>295.6666666666667</ele><time>2026-04-12T14:16:17.557Z</time></trkpt><trkpt lat="40.7772835" lon="9.4692226"><ele>296.0</ele><time>2026-04-12T14:16:18.554Z</time></trkpt><trkpt lat="40.7771655" lon="9.4694098"><ele>296.0</ele><time>2026-04-12T14:16:19.571Z</time></trkpt><trkpt lat="40.7770456" lon="9.4696082"><ele>296.0</ele><time>2026-04-12T14:16:20.565Z</time></trkpt><trkpt lat="40.7769301" lon="9.4698074"><ele>296.0</ele><time>2026-04-12T14:16:21.566Z</time></trkpt><trkpt lat="40.7768175" lon="9.4700016"><ele>297.6666666666667</ele><time>2026-04-12T14:16:22.56Z</time></trkpt><trkpt lat="40.7767056" lon="9.4701856"><ele>299.3333333333333</ele><time>2026-04-12T14:16:23.558Z</time></trkpt><trkpt lat="40.7765991" lon="9.4703604"><ele>301.0</ele><time>2026-04-12T14:16:24.562Z</time></trkpt><trkpt lat="40.7764931" lon="9.470523"><ele>301.66666666666663</ele><time>2026-04-12T14:16:25.567Z</time></trkpt><trkpt lat="40.7763779" lon="9.4706704"><ele>302.3333333333333</ele><time>2026-04-12T14:16:26.554Z</time></trkpt><trkpt lat="40.7762518" lon="9.4708009"><ele>303.0</ele><time>2026-04-12T14:16:27.558Z</time></trkpt><trkpt lat="40.7761137" lon="9.4709168"><ele>305.6666666666667</ele><time>2026-04-12T14:16:28.565Z</time></trkpt><trkpt lat="40.7759626" lon="9.4710222"><ele>308.33333333333337</ele><time>2026-04-12T14:16:29.563Z</time></trkpt><trkpt lat="40.7758115" lon="9.4711229"><ele>311.0</ele><time>2026-04-12T14:16:30.575Z</time></trkpt><trkpt lat="40.7756633" lon="9.4712254"><ele>310.33333333333337</ele><time>2026-04-12T14:16:31.57Z</time></trkpt><trkpt lat="40.7755194" lon="9.4713301"><ele>309.6666666666667</ele><time>2026-04-12T14:16:32.567Z</time></trkpt><trkpt lat="40.7753767" lon="9.4714312"><ele>309.0</ele><time>2026-04-12T14:16:33.558Z</time></trkpt><trkpt lat="40.7752338" lon="9.4715252"><ele>311.75</ele><time>2026-04-12T14:16:34.552Z</time></trkpt><trkpt lat="40.7751003" lon="9.4715895"><ele>314.5</ele><time>2026-04-12T14:16:35.578Z</time></trkpt><trkpt lat="40.7749655" lon="9.4716265"><ele>317.25</ele><time>2026-04-12T14:16:36.559Z</time></trkpt><trkpt lat="40.7748303" lon="9.4716368"><ele>320.0</ele><time>2026-04-12T14:16:37.563Z</time></trkpt><trkpt lat="40.7746873" lon="9.4716318"><ele>320.0</ele><time>2026-04-12T14:16:38.557Z</time></trkpt><trkpt lat="40.7745359" lon="9.4716176"><ele>320.0</ele><time>2026-04-12T14:16:39.559Z</time></trkpt><trkpt lat="40.7743846" lon="9.4715899"><ele>320.0</ele><time>2026-04-12T14:16:40.568Z</time></trkpt><trkpt lat="40.7742385" lon="9.4715682"><ele>321.5</ele><time>2026-04-12T14:16:41.56Z</time></trkpt><trkpt lat="40.7741026" lon="9.471562"><ele>323.0</ele><time>2026-04-12T14:16:42.547Z</time></trkpt><trkpt lat="40.7739796" lon="9.4715719"><ele>324.5</ele><time>2026-04-12T14:16:43.555Z</time></trkpt><trkpt lat="40.7738655" lon="9.471608"><ele>326.0</ele><time>2026-04-12T14:16:44.555Z</time></trkpt><trkpt lat="40.773756" lon="9.4716663"><ele>326.0</ele><time>2026-04-12T14:16:45.563Z</time></trkpt><trkpt lat="40.7736596" lon="9.4717366"><ele>326.0</ele><time>2026-04-12T14:16:46.564Z</time></trkpt><trkpt lat="40.7735746" lon="9.4718104"><ele>326.0</ele><time>2026-04-12T14:16:47.555Z</time></trkpt><trkpt lat="40.7734977" lon="9.4718818"><ele>326.0</ele><time>2026-04-12T14:16:48.553Z</time></trkpt><trkpt lat="40.7734276" lon="9.4719456"><ele>326.0</ele><time>2026-04-12T14:16:49.563Z</time></trkpt><trkpt lat="40.7733636" lon="9.4719974"><ele>326.0</ele><time>2026-04-12T14:16:50.554Z</time></trkpt><trkpt lat="40.7732606" lon="9.4720455"><ele>326.0</ele><time>2026-04-12T14:16:52.557Z</time></trkpt><trkpt lat="40.7731899" lon="9.4721109"><ele>326.0</ele><time>2026-04-12T14:16:54.557Z</time></trkpt><trkpt lat="40.7731331" lon="9.4722107"><ele>326.0</ele><time>2026-04-12T14:16:56.56Z</time></trkpt><trkpt lat="40.7731062" lon="9.4723451"><ele>326.0</ele><time>2026-04-12T14:16:58.558Z</time></trkpt><trkpt lat="40.7731" lon="9.4725091"><ele>326.0</ele><time>2026-04-12T14:17:00.553Z</time></trkpt><trkpt lat="40.7730871" lon="9.4725951"><ele>326.0</ele><time>2026-04-12T14:17:01.562Z</time></trkpt><trkpt lat="40.7730704" lon="9.4726831"><ele>326.0</ele><time>2026-04-12T14:17:02.55Z</time></trkpt><trkpt lat="40.7730503" lon="9.4727721"><ele>326.0</ele><time>2026-04-12T14:17:03.558Z</time></trkpt><trkpt lat="40.7730287" lon="9.4728648"><ele>326.0</ele><time>2026-04-12T14:17:04.552Z</time></trkpt><trkpt lat="40.7730067" lon="9.4729645"><ele>326.0</ele><time>2026-04-12T14:17:05.554Z</time></trkpt><trkpt lat="40.7729866" lon="9.4730684"><ele>326.0</ele><time>2026-04-12T14:17:06.549Z</time></trkpt><trkpt lat="40.772967" lon="9.4731664"><ele>326.14285714285717</ele><time>2026-04-12T14:17:07.569Z</time></trkpt><trkpt lat="40.7729512" lon="9.4732643"><ele>326.2857142857143</ele><time>2026-04-12T14:17:08.556Z</time></trkpt><trkpt lat="40.7729406" lon="9.4733569"><ele>326.42857142857144</ele><time>2026-04-12T14:17:09.559Z</time></trkpt><trkpt lat="40.7729304" lon="9.4734453"><ele>326.57142857142856</ele><time>2026-04-12T14:17:10.55Z</time></trkpt><trkpt lat="40.7729195" lon="9.4735344"><ele>326.7142857142857</ele><time>2026-04-12T14:17:11.553Z</time></trkpt><trkpt lat="40.7729043" lon="9.4736252"><ele>326.85714285714283</ele><time>2026-04-12T14:17:12.55Z</time></trkpt><trkpt lat="40.7728883" lon="9.4737202"><ele>327.0</ele><time>2026-04-12T14:17:13.569Z</time></trkpt><trkpt lat="40.7728729" lon="9.4738206"><ele>327.0</ele><time>2026-04-12T14:17:14.552Z</time></trkpt><trkpt lat="40.7728577" lon="9.4739184"><ele>327.0</ele><time>2026-04-12T14:17:15.561Z</time></trkpt><trkpt lat="40.7728478" lon="9.4740112"><ele>327.0</ele><time>2026-04-12T14:17:16.542Z</time></trkpt><trkpt lat="40.772836" lon="9.4741023"><ele>327.0</ele><time>2026-04-12T14:17:17.541Z</time></trkpt><trkpt lat="40.7728234" lon="9.474195"><ele>327.0</ele><time>2026-04-12T14:17:18.549Z</time></trkpt><trkpt lat="40.7728075" lon="9.4742919"><ele>327.0</ele><time>2026-04-12T14:17:19.535Z</time></trkpt><trkpt lat="40.7727855" lon="9.474391"><ele>327.0</ele><time>2026-04-12T14:17:20.541Z</time></trkpt><trkpt lat="40.7727622" lon="9.4744956"><ele>327.0</ele><time>2026-04-12T14:17:21.552Z</time></trkpt><trkpt lat="40.7727396" lon="9.4745977"><ele>327.0</ele><time>2026-04-12T14:17:22.553Z</time></trkpt><trkpt lat="40.7727151" lon="9.4747029"><ele>327.0</ele><time>2026-04-12T14:17:23.536Z</time></trkpt><trkpt lat="40.7726929" lon="9.4748023"><ele>327.0</ele><time>2026-04-12T14:17:24.554Z</time></trkpt><trkpt lat="40.7726714" lon="9.4748946"><ele>327.0</ele><time>2026-04-12T14:17:25.546Z</time></trkpt><trkpt lat="40.772649" lon="9.4749782"><ele>327.0</ele><time>2026-04-12T14:17:26.54Z</time></trkpt><trkpt lat="40.7726268" lon="9.4750655"><ele>327.3333333333333</ele><time>2026-04-12T14:17:27.541Z</time></trkpt><trkpt lat="40.7726047" lon="9.4751587"><ele>327.6666666666667</ele><time>2026-04-12T14:17:28.541Z</time></trkpt><trkpt lat="40.7725805" lon="9.4752601"><ele>328.0</ele><time>2026-04-12T14:17:29.537Z</time></trkpt><trkpt lat="40.7725579" lon="9.4753654"><ele>328.33333333333337</ele><time>2026-04-12T14:17:30.535Z</time></trkpt><trkpt lat="40.7725355" lon="9.4754687"><ele>328.6666666666667</ele><time>2026-04-12T14:17:31.535Z</time></trkpt><trkpt lat="40.7725142" lon="9.4755775"><ele>329.0</ele><time>2026-04-12T14:17:32.54Z</time></trkpt><trkpt lat="40.7724875" lon="9.4756831"><ele>329.6666666666667</ele><time>2026-04-12T14:17:33.536Z</time></trkpt><trkpt lat="40.7724608" lon="9.4757753"><ele>330.33333333333337</ele><time>2026-04-12T14:17:34.541Z</time></trkpt><trkpt lat="40.7724374" lon="9.4758651"><ele>331.0</ele><time>2026-04-12T14:17:35.536Z</time></trkpt><trkpt lat="40.7724121" lon="9.475959"><ele>331.6666666666667</ele><time>2026-04-12T14:17:36.541Z</time></trkpt><trkpt lat="40.7723849" lon="9.4760549"><ele>332.3333333333333</ele><time>2026-04-12T14:17:37.538Z</time></trkpt><trkpt lat="40.772354" lon="9.4761639"><ele>333.0</ele><time>2026-04-12T14:17:38.535Z</time></trkpt><trkpt lat="40.7723269" lon="9.4762771"><ele>333.1666666666667</ele><time>2026-04-12T14:17:39.539Z</time></trkpt><trkpt lat="40.7722971" lon="9.4763973"><ele>333.3333333333333</ele><time>2026-04-12T14:17:40.534Z</time></trkpt><trkpt lat="40.7722685" lon="9.4765215"><ele>333.5</ele><time>2026-04-12T14:17:41.527Z</time></trkpt><trkpt lat="40.7722431" lon="9.4766316"><ele>333.66666666666663</ele><time>2026-04-12T14:17:42.531Z</time></trkpt><trkpt lat="40.7722185" lon="9.4767277"><ele>333.8333333333333</ele><time>2026-04-12T14:17:43.543Z</time></trkpt><trkpt lat="40.7721815" lon="9.4768133"><ele>334.0</ele><time>2026-04-12T14:17:44.53Z</time></trkpt><trkpt lat="40.772136" lon="9.4769017"><ele>334.0</ele><time>2026-04-12T14:17:45.536Z</time></trkpt><trkpt lat="40.7720854" lon="9.4769968"><ele>334.0</ele><time>2026-04-12T14:17:46.621Z</time></trkpt><trkpt lat="40.7720302" lon="9.4771007"><ele>334.0</ele><time>2026-04-12T14:17:47.53Z</time></trkpt><trkpt lat="40.771976" lon="9.4772045"><ele>334.0</ele><time>2026-04-12T14:17:48.523Z</time></trkpt><trkpt lat="40.771922" lon="9.4773066"><ele>334.0</ele><time>2026-04-12T14:17:49.524Z</time></trkpt><trkpt lat="40.7718667" lon="9.4773986"><ele>334.0</ele><time>2026-04-12T14:17:50.631Z</time></trkpt><trkpt lat="40.7718117" lon="9.4774901"><ele>334.0</ele><time>2026-04-12T14:17:51.533Z</time></trkpt><trkpt lat="40.7717563" lon="9.4775869"><ele>334.0</ele><time>2026-04-12T14:17:52.634Z</time></trkpt><trkpt lat="40.7717051" lon="9.4776815"><ele>334.0</ele><time>2026-04-12T14:17:53.624Z</time></trkpt><trkpt lat="40.7716537" lon="9.4777746"><ele>334.0</ele><time>2026-04-12T14:17:54.529Z</time></trkpt><trkpt lat="40.7715933" lon="9.4778639"><ele>334.0</ele><time>2026-04-12T14:17:55.628Z</time></trkpt><trkpt lat="40.7715265" lon="9.4779363"><ele>334.5</ele><time>2026-04-12T14:17:56.619Z</time></trkpt><trkpt lat="40.7714602" lon="9.4779839"><ele>335.0</ele><time>2026-04-12T14:17:57.62Z</time></trkpt><trkpt lat="40.7713871" lon="9.4780123"><ele>335.5</ele><time>2026-04-12T14:17:58.618Z</time></trkpt><trkpt lat="40.7713124" lon="9.4780418"><ele>336.0</ele><time>2026-04-12T14:17:59.618Z</time></trkpt><trkpt lat="40.7712398" lon="9.4780821"><ele>336.5</ele><time>2026-04-12T14:18:00.625Z</time></trkpt><trkpt lat="40.7711744" lon="9.4781184"><ele>337.0</ele><time>2026-04-12T14:18:01.628Z</time></trkpt><trkpt lat="40.7710867" lon="9.4781699"><ele>337.0</ele><time>2026-04-12T14:18:03.614Z</time></trkpt><trkpt lat="40.771061" lon="9.478288"><ele>337.0</ele><time>2026-04-12T14:18:06.612Z</time></trkpt><trkpt lat="40.7711134" lon="9.4784237"><ele>337.0</ele><time>2026-04-12T14:18:08.623Z</time></trkpt><trkpt lat="40.7711519" lon="9.4785087"><ele>337.0</ele><time>2026-04-12T14:18:09.618Z</time></trkpt><trkpt lat="40.7711977" lon="9.4786014"><ele>337.0</ele><time>2026-04-12T14:18:10.606Z</time></trkpt><trkpt lat="40.7712454" lon="9.4786809"><ele>337.0</ele><time>2026-04-12T14:18:11.617Z</time></trkpt><trkpt lat="40.7712942" lon="9.4787431"><ele>338.16666666666663</ele><time>2026-04-12T14:18:12.622Z</time></trkpt><trkpt lat="40.771344" lon="9.4787984"><ele>339.3333333333333</ele><time>2026-04-12T14:18:13.609Z</time></trkpt><trkpt lat="40.7714485" lon="9.478887"><ele>340.5</ele><time>2026-04-12T14:18:15.619Z</time></trkpt><trkpt lat="40.7715095" lon="9.4789266"><ele>341.6666666666667</ele><time>2026-04-12T14:18:16.613Z</time></trkpt><trkpt lat="40.7715769" lon="9.4789564"><ele>342.83333333333337</ele><time>2026-04-12T14:18:17.622Z</time></trkpt><trkpt lat="40.7716463" lon="9.4789786"><ele>344.0</ele><time>2026-04-12T14:18:18.612Z</time></trkpt><trkpt lat="40.771716" lon="9.4790007"><ele>344.0</ele><time>2026-04-12T14:18:19.611Z</time></trkpt><trkpt lat="40.771786" lon="9.479024"><ele>344.0</ele><time>2026-04-12T14:18:20.617Z</time></trkpt><trkpt lat="40.7718597" lon="9.4790449"><ele>344.0</ele><time>2026-04-12T14:18:21.613Z</time></trkpt><trkpt lat="40.7719303" lon="9.4790715"><ele>344.0</ele><time>2026-04-12T14:18:22.611Z</time></trkpt><trkpt lat="40.772001" lon="9.4790998"><ele>344.0</ele><time>2026-04-12T14:18:23.617Z</time></trkpt><trkpt lat="40.7720736" lon="9.4791314"><ele>344.0</ele><time>2026-04-12T14:18:24.629Z</time></trkpt><trkpt lat="40.7721452" lon="9.4791731"><ele>344.0</ele><time>2026-04-12T14:18:25.625Z</time></trkpt><trkpt lat="40.772227" lon="9.4792176"><ele>344.0</ele><time>2026-04-12T14:18:26.609Z</time></trkpt><trkpt lat="40.7723064" lon="9.4792647"><ele>344.0</ele><time>2026-04-12T14:18:27.619Z</time></trkpt><trkpt lat="40.772381" lon="9.4793059"><ele>344.0</ele><time>2026-04-12T14:18:28.612Z</time></trkpt><trkpt lat="40.7724461" lon="9.4793396"><ele>344.0</ele><time>2026-04-12T14:18:29.624Z</time></trkpt><trkpt lat="40.7725119" lon="9.4793701"><ele>344.0</ele><time>2026-04-12T14:18:30.609Z</time></trkpt><trkpt lat="40.7725788" lon="9.4794141"><ele>344.0</ele><time>2026-04-12T14:18:31.621Z</time></trkpt><trkpt lat="40.7726536" lon="9.4794733"><ele>344.0</ele><time>2026-04-12T14:18:32.622Z</time></trkpt><trkpt lat="40.7727325" lon="9.4795329"><ele>344.0</ele><time>2026-04-12T14:18:33.624Z</time></trkpt><trkpt lat="40.7728164" lon="9.4795873"><ele>344.0</ele><time>2026-04-12T14:18:34.612Z</time></trkpt><trkpt lat="40.7728917" lon="9.4796359"><ele>344.0</ele><time>2026-04-12T14:18:35.603Z</time></trkpt><trkpt lat="40.7729625" lon="9.479688"><ele>344.0</ele><time>2026-04-12T14:18:36.603Z</time></trkpt><trkpt lat="40.7730391" lon="9.4797327"><ele>344.2</ele><time>2026-04-12T14:18:37.618Z</time></trkpt><trkpt lat="40.7731188" lon="9.4797871"><ele>344.4</ele><time>2026-04-12T14:18:38.628Z</time></trkpt><trkpt lat="40.7731999" lon="9.4798446"><ele>344.6</ele><time>2026-04-12T14:18:39.609Z</time></trkpt><trkpt lat="40.7732838" lon="9.4799022"><ele>344.8</ele><time>2026-04-12T14:18:40.608Z</time></trkpt><trkpt lat="40.7733722" lon="9.479958"><ele>345.0</ele><time>2026-04-12T14:18:41.613Z</time></trkpt><trkpt lat="40.7734569" lon="9.4800209"><ele>342.8</ele><time>2026-04-12T14:18:42.609Z</time></trkpt><trkpt lat="40.7735472" lon="9.4800847"><ele>340.6</ele><time>2026-04-12T14:18:43.612Z</time></trkpt><trkpt lat="40.7736384" lon="9.4801447"><ele>338.4</ele><time>2026-04-12T14:18:44.607Z</time></trkpt><trkpt lat="40.7737314" lon="9.4802075"><ele>336.2</ele><time>2026-04-12T14:18:45.61Z</time></trkpt><trkpt lat="40.7738168" lon="9.4802649"><ele>334.0</ele><time>2026-04-12T14:18:46.604Z</time></trkpt><trkpt lat="40.7739036" lon="9.4803236"><ele>334.0</ele><time>2026-04-12T14:18:47.617Z</time></trkpt><trkpt lat="40.7739956" lon="9.4803769"><ele>334.0</ele><time>2026-04-12T14:18:48.608Z</time></trkpt><trkpt lat="40.7740857" lon="9.4804367"><ele>334.0</ele><time>2026-04-12T14:18:49.614Z</time></trkpt><trkpt lat="40.7741709" lon="9.4804989"><ele>334.0</ele><time>2026-04-12T14:18:50.611Z</time></trkpt><trkpt lat="40.7742471" lon="9.480564"><ele>334.0</ele><time>2026-04-12T14:18:51.612Z</time></trkpt><trkpt lat="40.7743238" lon="9.4806333"><ele>334.3333333333333</ele><time>2026-04-12T14:18:52.595Z</time></trkpt><trkpt lat="40.774396" lon="9.4807039"><ele>334.66666666666663</ele><time>2026-04-12T14:18:53.608Z</time></trkpt><trkpt lat="40.7744582" lon="9.4807806"><ele>335.0</ele><time>2026-04-12T14:18:54.601Z</time></trkpt><trkpt lat="40.7745134" lon="9.4808633"><ele>335.3333333333333</ele><time>2026-04-12T14:18:55.613Z</time></trkpt><trkpt lat="40.7745609" lon="9.4809512"><ele>335.6666666666667</ele><time>2026-04-12T14:18:56.594Z</time></trkpt><trkpt lat="40.7746042" lon="9.4810329"><ele>336.0</ele><time>2026-04-12T14:18:57.609Z</time></trkpt><trkpt lat="40.7746276" lon="9.4811212"><ele>336.0</ele><time>2026-04-12T14:18:58.597Z</time></trkpt><trkpt lat="40.7746355" lon="9.4812205"><ele>336.0</ele><time>2026-04-12T14:18:59.608Z</time></trkpt><trkpt lat="40.7746404" lon="9.4813441"><ele>336.0</ele><time>2026-04-12T14:19:00.595Z</time></trkpt><trkpt lat="40.7746367" lon="9.4814563"><ele>336.0</ele><time>2026-04-12T14:19:01.59Z</time></trkpt><trkpt lat="40.7746399" lon="9.4815514"><ele>336.0</ele><time>2026-04-12T14:19:02.593Z</time></trkpt><trkpt lat="40.7746886" lon="9.481684"><ele>336.0</ele><time>2026-04-12T14:19:04.602Z</time></trkpt><trkpt lat="40.7747398" lon="9.4817424"><ele>338.0</ele><time>2026-04-12T14:19:05.606Z</time></trkpt><trkpt lat="40.7748107" lon="9.4817918"><ele>340.0</ele><time>2026-04-12T14:19:06.592Z</time></trkpt><trkpt lat="40.774885" lon="9.4818591"><ele>342.0</ele><time>2026-04-12T14:19:07.603Z</time></trkpt><trkpt lat="40.7749608" lon="9.48193"><ele>344.0</ele><time>2026-04-12T14:19:08.595Z</time></trkpt><trkpt lat="40.7750406" lon="9.4819955"><ele>346.0</ele><time>2026-04-12T14:19:09.59Z</time></trkpt><trkpt lat="40.7751222" lon="9.4820565"><ele>346.6</ele><time>2026-04-12T14:19:10.589Z</time></trkpt><trkpt lat="40.775204" lon="9.4821217"><ele>347.20000000000005</ele><time>2026-04-12T14:19:11.599Z</time></trkpt><trkpt lat="40.7752872" lon="9.4821906"><ele>347.79999999999995</ele><time>2026-04-12T14:19:12.596Z</time></trkpt><trkpt lat="40.7753659" lon="9.4822575"><ele>348.4</ele><time>2026-04-12T14:19:13.591Z</time></trkpt><trkpt lat="40.775438" lon="9.4823233"><ele>349.0</ele><time>2026-04-12T14:19:14.599Z</time></trkpt><trkpt lat="40.7755009" lon="9.4823814"><ele>349.0</ele><time>2026-04-12T14:19:15.601Z</time></trkpt><trkpt lat="40.7755598" lon="9.482445"><ele>349.0</ele><time>2026-04-12T14:19:16.588Z</time></trkpt><trkpt lat="40.7756262" lon="9.4825061"><ele>349.0</ele><time>2026-04-12T14:19:17.61Z</time></trkpt><trkpt lat="40.7756911" lon="9.4825659"><ele>349.0</ele><time>2026-04-12T14:19:18.59Z</time></trkpt><trkpt lat="40.7757571" lon="9.4826237"><ele>349.0</ele><time>2026-04-12T14:19:19.594Z</time></trkpt><trkpt lat="40.775827" lon="9.4826882"><ele>349.0</ele><time>2026-04-12T14:19:20.579Z</time></trkpt><trkpt lat="40.7758998" lon="9.4827549"><ele>348.99999999999994</ele><time>2026-04-12T14:19:21.588Z</time></trkpt><trkpt lat="40.7759703" lon="9.4828171"><ele>349.0</ele><time>2026-04-12T14:19:22.577Z</time></trkpt><trkpt lat="40.7760341" lon="9.4828733"><ele>349.0</ele><time>2026-04-12T14:19:23.593Z</time></trkpt><trkpt lat="40.7760981" lon="9.4829143"><ele>349.0</ele><time>2026-04-12T14:19:24.589Z</time></trkpt><trkpt lat="40.7761614" lon="9.4829506"><ele>349.0</ele><time>2026-04-12T14:19:25.581Z</time></trkpt><trkpt lat="40.776227" lon="9.4829681"><ele>348.99999999999994</ele><time>2026-04-12T14:19:26.569Z</time></trkpt><trkpt lat="40.7763015" lon="9.4829726"><ele>349.0</ele><time>2026-04-12T14:19:27.604Z</time></trkpt><trkpt lat="40.7763867" lon="9.4829823"><ele>350.2</ele><time>2026-04-12T14:19:28.579Z</time></trkpt><trkpt lat="40.7764713" lon="9.4829967"><ele>351.4</ele><time>2026-04-12T14:19:29.574Z</time></trkpt><trkpt lat="40.7765625" lon="9.4830208"><ele>352.6</ele><time>2026-04-12T14:19:30.575Z</time></trkpt><trkpt lat="40.7766589" lon="9.48304"><ele>353.8</ele><time>2026-04-12T14:19:31.595Z</time></trkpt><trkpt lat="40.7767513" lon="9.4830556"><ele>355.0</ele><time>2026-04-12T14:19:32.586Z</time></trkpt><trkpt lat="40.7768415" lon="9.4830801"><ele>356.6</ele><time>2026-04-12T14:19:33.597Z</time></trkpt><trkpt lat="40.776935" lon="9.4831101"><ele>358.2</ele><time>2026-04-12T14:19:34.579Z</time></trkpt><trkpt lat="40.7770383" lon="9.4831405"><ele>359.79999999999995</ele><time>2026-04-12T14:19:35.595Z</time></trkpt><trkpt lat="40.7771441" lon="9.4831735"><ele>361.4</ele><time>2026-04-12T14:19:36.593Z</time></trkpt><trkpt lat="40.7772456" lon="9.4832081"><ele>363.0</ele><time>2026-04-12T14:19:37.578Z</time></trkpt><trkpt lat="40.7773464" lon="9.4832466"><ele>363.0</ele><time>2026-04-12T14:19:38.576Z</time></trkpt><trkpt lat="40.7774425" lon="9.4832859"><ele>363.0</ele><time>2026-04-12T14:19:39.592Z</time></trkpt><trkpt lat="40.777528" lon="9.4833175"><ele>363.0</ele><time>2026-04-12T14:19:40.58Z</time></trkpt><trkpt lat="40.777615" lon="9.4833481"><ele>363.0</ele><time>2026-04-12T14:19:41.58Z</time></trkpt><trkpt lat="40.7777044" lon="9.4833803"><ele>363.0</ele><time>2026-04-12T14:19:42.576Z</time></trkpt><trkpt lat="40.7777811" lon="9.4834127"><ele>365.4</ele><time>2026-04-12T14:19:43.576Z</time></trkpt><trkpt lat="40.7778448" lon="9.4834381"><ele>367.79999999999995</ele><time>2026-04-12T14:19:44.591Z</time></trkpt><trkpt lat="40.7779521" lon="9.4834892"><ele>370.2</ele><time>2026-04-12T14:19:46.569Z</time></trkpt><trkpt lat="40.7780357" lon="9.4835768"><ele>372.6</ele><time>2026-04-12T14:19:48.584Z</time></trkpt><trkpt lat="40.7781111" lon="9.4836896"><ele>375.0</ele><time>2026-04-12T14:19:50.57Z</time></trkpt><trkpt lat="40.7781345" lon="9.4838141"><ele>375.25</ele><time>2026-04-12T14:19:52.584Z</time></trkpt><trkpt lat="40.7781139" lon="9.4839706"><ele>375.5</ele><time>2026-04-12T14:19:54.566Z</time></trkpt><trkpt lat="40.7780956" lon="9.4841154"><ele>375.75</ele><time>2026-04-12T14:19:56.563Z</time></trkpt><trkpt lat="40.7780683" lon="9.4842755"><ele>376.0</ele><time>2026-04-12T14:19:58.557Z</time></trkpt><trkpt lat="40.7780431" lon="9.4844288"><ele>376.0</ele><time>2026-04-12T14:20:00.563Z</time></trkpt><trkpt lat="40.7780288" lon="9.4845098"><ele>376.0</ele><time>2026-04-12T14:20:01.558Z</time></trkpt><trkpt lat="40.7780179" lon="9.4845918"><ele>376.0</ele><time>2026-04-12T14:20:02.552Z</time></trkpt><trkpt lat="40.7780105" lon="9.4847287"><ele>376.0</ele><time>2026-04-12T14:20:04.552Z</time></trkpt><trkpt lat="40.7780189" lon="9.4848597"><ele>376.0</ele><time>2026-04-12T14:20:06.563Z</time></trkpt><trkpt lat="40.7780242" lon="9.4850029"><ele>376.0</ele><time>2026-04-12T14:20:08.556Z</time></trkpt><trkpt lat="40.778025" lon="9.4851539"><ele>376.75</ele><time>2026-04-12T14:20:10.563Z</time></trkpt><trkpt lat="40.7780202" lon="9.4853099"><ele>377.5</ele><time>2026-04-12T14:20:12.553Z</time></trkpt><trkpt lat="40.7779954" lon="9.4854667"><ele>378.25</ele><time>2026-04-12T14:20:14.559Z</time></trkpt><trkpt lat="40.7779612" lon="9.485622"><ele>379.0</ele><time>2026-04-12T14:20:16.558Z</time></trkpt><trkpt lat="40.7779146" lon="9.4857672"><ele>381.4</ele><time>2026-04-12T14:20:18.56Z</time></trkpt><trkpt lat="40.7778558" lon="9.4859079"><ele>383.79999999999995</ele><time>2026-04-12T14:20:20.555Z</time></trkpt><trkpt lat="40.777794" lon="9.4860019"><ele>386.20000000000005</ele><time>2026-04-12T14:20:22.544Z</time></trkpt><trkpt lat="40.7777146" lon="9.4860923"><ele>388.6</ele><time>2026-04-12T14:20:24.565Z</time></trkpt><trkpt lat="40.7776235" lon="9.4861645"><ele>391.0</ele><time>2026-04-12T14:20:26.544Z</time></trkpt><trkpt lat="40.7775183" lon="9.4862123"><ele>393.6</ele><time>2026-04-12T14:20:28.552Z</time></trkpt><trkpt lat="40.7774132" lon="9.4862325"><ele>396.20000000000005</ele><time>2026-04-12T14:20:30.542Z</time></trkpt><trkpt lat="40.7773076" lon="9.486241"><ele>398.79999999999995</ele><time>2026-04-12T14:20:32.543Z</time></trkpt><trkpt lat="40.7771999" lon="9.4862544"><ele>401.4</ele><time>2026-04-12T14:20:34.566Z</time></trkpt><trkpt lat="40.7770831" lon="9.4862866"><ele>404.0</ele><time>2026-04-12T14:20:36.542Z</time></trkpt><trkpt lat="40.7770155" lon="9.4863146"><ele>405.3333333333333</ele><time>2026-04-12T14:20:37.557Z</time></trkpt><trkpt lat="40.7769465" lon="9.4863475"><ele>406.66666666666663</ele><time>2026-04-12T14:20:38.542Z</time></trkpt><trkpt lat="40.7768783" lon="9.4863771"><ele>408.0</ele><time>2026-04-12T14:20:39.542Z</time></trkpt><trkpt lat="40.7768137" lon="9.4864021"><ele>409.33333333333337</ele><time>2026-04-12T14:20:40.555Z</time></trkpt><trkpt lat="40.7767501" lon="9.4864283"><ele>410.6666666666667</ele><time>2026-04-12T14:20:41.565Z</time></trkpt><trkpt lat="40.7766388" lon="9.4864707"><ele>412.0</ele><time>2026-04-12T14:20:43.538Z</time></trkpt><trkpt lat="40.7765473" lon="9.4865373"><ele>413.50000000000006</ele><time>2026-04-12T14:20:45.537Z</time></trkpt><trkpt lat="40.7764627" lon="9.4866292"><ele>415.0</ele><time>2026-04-12T14:20:47.546Z</time></trkpt><trkpt lat="40.7763774" lon="9.4867373"><ele>416.5</ele><time>2026-04-12T14:20:49.555Z</time></trkpt><trkpt lat="40.7763409" lon="9.4868163"><ele>418.0</ele><time>2026-04-12T14:20:50.553Z</time></trkpt><trkpt lat="40.7763094" lon="9.4869019"><ele>419.50000000000006</ele><time>2026-04-12T14:20:51.539Z</time></trkpt><trkpt lat="40.7762784" lon="9.4869938"><ele>421.0</ele><time>2026-04-12T14:20:52.55Z</time></trkpt><trkpt lat="40.7762486" lon="9.487083"><ele>421.14285714285717</ele><time>2026-04-12T14:20:53.541Z</time></trkpt><trkpt lat="40.7762223" lon="9.487167"><ele>421.2857142857143</ele><time>2026-04-12T14:20:54.545Z</time></trkpt><trkpt lat="40.7761929" lon="9.4872532"><ele>421.42857142857144</ele><time>2026-04-12T14:20:55.529Z</time></trkpt><trkpt lat="40.776159" lon="9.4873434"><ele>421.57142857142856</ele><time>2026-04-12T14:20:56.544Z</time></trkpt><trkpt lat="40.776124" lon="9.4874344"><ele>421.7142857142857</ele><time>2026-04-12T14:20:57.534Z</time></trkpt><trkpt lat="40.7760892" lon="9.4875236"><ele>421.8571428571429</ele><time>2026-04-12T14:20:58.547Z</time></trkpt><trkpt lat="40.7760467" lon="9.4876065"><ele>422.0</ele><time>2026-04-12T14:20:59.533Z</time></trkpt><trkpt lat="40.7759944" lon="9.4876794"><ele>423.3333333333333</ele><time>2026-04-12T14:21:00.54Z</time></trkpt><trkpt lat="40.7759403" lon="9.4877389"><ele>424.66666666666663</ele><time>2026-04-12T14:21:01.525Z</time></trkpt><trkpt lat="40.775879" lon="9.4877825"><ele>426.0</ele><time>2026-04-12T14:21:02.546Z</time></trkpt><trkpt lat="40.7758124" lon="9.4878154"><ele>427.33333333333337</ele><time>2026-04-12T14:21:03.528Z</time></trkpt><trkpt lat="40.7757491" lon="9.4878528"><ele>428.6666666666667</ele><time>2026-04-12T14:21:04.53Z</time></trkpt><trkpt lat="40.775664" lon="9.4879862"><ele>430.0</ele><time>2026-04-12T14:21:06.621Z</time></trkpt><trkpt lat="40.7756463" lon="9.4880784"><ele>431.50000000000006</ele><time>2026-04-12T14:21:07.627Z</time></trkpt><trkpt lat="40.775639" lon="9.4881716"><ele>433.0</ele><time>2026-04-12T14:21:08.616Z</time></trkpt><trkpt lat="40.7756236" lon="9.4882675"><ele>434.5</ele><time>2026-04-12T14:21:09.618Z</time></trkpt><trkpt lat="40.7756035" lon="9.4883735"><ele>436.0</ele><time>2026-04-12T14:21:10.647Z</time></trkpt><trkpt lat="40.7755859" lon="9.4884865"><ele>437.50000000000006</ele><time>2026-04-12T14:21:11.619Z</time></trkpt><trkpt lat="40.7755729" lon="9.4886057"><ele>439.0</ele><time>2026-04-12T14:21:12.617Z</time></trkpt><trkpt lat="40.7755568" lon="9.4887414"><ele>439.6666666666667</ele><time>2026-04-12T14:21:13.627Z</time></trkpt><trkpt lat="40.7755359" lon="9.4888658"><ele>440.33333333333337</ele><time>2026-04-12T14:21:14.627Z</time></trkpt><trkpt lat="40.7755147" lon="9.4889642"><ele>441.0</ele><time>2026-04-12T14:21:15.614Z</time></trkpt><trkpt lat="40.7754962" lon="9.4890562"><ele>441.66666666666663</ele><time>2026-04-12T14:21:16.611Z</time></trkpt><trkpt lat="40.775476" lon="9.4891564"><ele>442.3333333333333</ele><time>2026-04-12T14:21:17.626Z</time></trkpt><trkpt lat="40.7754576" lon="9.4892608"><ele>443.0</ele><time>2026-04-12T14:21:18.611Z</time></trkpt><trkpt lat="40.7754438" lon="9.4893691"><ele>442.99999999999994</ele><time>2026-04-12T14:21:19.616Z</time></trkpt><trkpt lat="40.7754391" lon="9.4894712"><ele>443.0</ele><time>2026-04-12T14:21:20.635Z</time></trkpt><trkpt lat="40.7754493" lon="9.4895754"><ele>443.0</ele><time>2026-04-12T14:21:21.617Z</time></trkpt><trkpt lat="40.7754674" lon="9.4896767"><ele>443.0</ele><time>2026-04-12T14:21:22.608Z</time></trkpt><trkpt lat="40.7754848" lon="9.4897778"><ele>442.99999999999994</ele><time>2026-04-12T14:21:23.618Z</time></trkpt><trkpt lat="40.775498" lon="9.4898754"><ele>443.0</ele><time>2026-04-12T14:21:24.61Z</time></trkpt><trkpt lat="40.7755071" lon="9.4899709"><ele>445.49999999999994</ele><time>2026-04-12T14:21:25.61Z</time></trkpt><trkpt lat="40.7755156" lon="9.4900659"><ele>448.0</ele><time>2026-04-12T14:21:26.603Z</time></trkpt><trkpt lat="40.7755271" lon="9.4901601"><ele>450.5</ele><time>2026-04-12T14:21:27.609Z</time></trkpt><trkpt lat="40.7755413" lon="9.4902442"><ele>453.0</ele><time>2026-04-12T14:21:28.604Z</time></trkpt><trkpt lat="40.7755938" lon="9.4903487"><ele>455.49999999999994</ele><time>2026-04-12T14:21:30.615Z</time></trkpt><trkpt lat="40.775671" lon="9.4904161"><ele>458.0</ele><time>2026-04-12T14:21:32.604Z</time></trkpt><trkpt lat="40.7757233" lon="9.4904724"><ele>459.8333333333333</ele><time>2026-04-12T14:21:33.62Z</time></trkpt><trkpt lat="40.7757628" lon="9.4905387"><ele>461.66666666666663</ele><time>2026-04-12T14:21:34.658Z</time></trkpt><trkpt lat="40.7758004" lon="9.4906086"><ele>463.5</ele><time>2026-04-12T14:21:35.612Z</time></trkpt><trkpt lat="40.7758614" lon="9.4907348"><ele>465.33333333333337</ele><time>2026-04-12T14:21:37.601Z</time></trkpt><trkpt lat="40.775879" lon="9.4908724"><ele>467.1666666666667</ele><time>2026-04-12T14:21:39.6Z</time></trkpt><trkpt lat="40.7758948" lon="9.4909975"><ele>469.0</ele><time>2026-04-12T14:21:41.612Z</time></trkpt><trkpt lat="40.775896" lon="9.4911214"><ele>469.00000000000006</ele><time>2026-04-12T14:21:43.606Z</time></trkpt><trkpt lat="40.7759018" lon="9.4912185"><ele>469.0</ele><time>2026-04-12T14:21:45.6Z</time></trkpt><trkpt lat="40.7759224" lon="9.4913672"><ele>469.0</ele><time>2026-04-12T14:21:47.601Z</time></trkpt><trkpt lat="40.775932" lon="9.4914568"><ele>469.0</ele><time>2026-04-12T14:21:48.589Z</time></trkpt><trkpt lat="40.7759427" lon="9.4915412"><ele>469.00000000000006</ele><time>2026-04-12T14:21:49.606Z</time></trkpt><trkpt lat="40.7759404" lon="9.4916601"><ele>469.0</ele><time>2026-04-12T14:21:51.602Z</time></trkpt><trkpt lat="40.7759435" lon="9.4917602"><ele>470.6</ele><time>2026-04-12T14:21:54.594Z</time></trkpt><trkpt lat="40.7759549" lon="9.4918506"><ele>472.2</ele><time>2026-04-12T14:22:20.599Z</time></trkpt><trkpt lat="40.7759882" lon="9.491964"><ele>473.80000000000007</ele><time>2026-04-12T14:22:22.593Z</time></trkpt><trkpt lat="40.7760042" lon="9.4920811"><ele>475.40000000000003</ele><time>2026-04-12T14:22:24.59Z</time></trkpt><trkpt lat="40.7759991" lon="9.4922287"><ele>477.0</ele><time>2026-04-12T14:22:26.586Z</time></trkpt><trkpt lat="40.7759845" lon="9.4923987"><ele>477.0</ele><time>2026-04-12T14:22:28.592Z</time></trkpt><trkpt lat="40.7759757" lon="9.4924934"><ele>476.99999999999994</ele><time>2026-04-12T14:22:29.589Z</time></trkpt><trkpt lat="40.775971" lon="9.4925823"><ele>477.0</ele><time>2026-04-12T14:22:30.589Z</time></trkpt><trkpt lat="40.7759634" lon="9.4926709"><ele>477.0</ele><time>2026-04-12T14:22:31.604Z</time></trkpt><trkpt lat="40.7759546" lon="9.4927568"><ele>476.99999999999994</ele><time>2026-04-12T14:22:32.59Z</time></trkpt><trkpt lat="40.775943" lon="9.4928434"><ele>477.0</ele><time>2026-04-12T14:22:33.589Z</time></trkpt><trkpt lat="40.7759334" lon="9.4929293"><ele>477.0</ele><time>2026-04-12T14:22:34.589Z</time></trkpt><trkpt lat="40.7759226" lon="9.493016"><ele>476.71428571428567</ele><time>2026-04-12T14:22:35.596Z</time></trkpt><trkpt lat="40.7759137" lon="9.4931061"><ele>476.4285714285714</ele><time>2026-04-12T14:22:36.598Z</time></trkpt><trkpt lat="40.7759078" lon="9.4932007"><ele>476.1428571428571</ele><time>2026-04-12T14:22:37.594Z</time></trkpt><trkpt lat="40.7759039" lon="9.4933025"><ele>475.8571428571429</ele><time>2026-04-12T14:22:38.588Z</time></trkpt><trkpt lat="40.7758957" lon="9.4934025"><ele>475.5714285714286</ele><time>2026-04-12T14:22:39.603Z</time></trkpt><trkpt lat="40.7758943" lon="9.4935"><ele>475.28571428571433</ele><time>2026-04-12T14:22:40.587Z</time></trkpt><trkpt lat="40.7758907" lon="9.4935893"><ele>475.0</ele><time>2026-04-12T14:22:41.607Z</time></trkpt><trkpt lat="40.7758785" lon="9.4936786"><ele>474.6666666666667</ele><time>2026-04-12T14:22:42.591Z</time></trkpt><trkpt lat="40.7758672" lon="9.4937803"><ele>474.33333333333337</ele><time>2026-04-12T14:22:43.595Z</time></trkpt><trkpt lat="40.7758544" lon="9.493888"><ele>474.0</ele><time>2026-04-12T14:22:44.583Z</time></trkpt><trkpt lat="40.7758406" lon="9.4939974"><ele>473.66666666666663</ele><time>2026-04-12T14:22:45.582Z</time></trkpt><trkpt lat="40.7758285" lon="9.4941114"><ele>473.3333333333333</ele><time>2026-04-12T14:22:46.581Z</time></trkpt><trkpt lat="40.7758156" lon="9.4942308"><ele>473.0</ele><time>2026-04-12T14:22:47.588Z</time></trkpt><trkpt lat="40.7758032" lon="9.4943541"><ele>472.99999999999994</ele><time>2026-04-12T14:22:48.58Z</time></trkpt><trkpt lat="40.7757962" lon="9.4944792"><ele>473.0</ele><time>2026-04-12T14:22:49.584Z</time></trkpt><trkpt lat="40.7757886" lon="9.4945925"><ele>473.0</ele><time>2026-04-12T14:22:50.581Z</time></trkpt><trkpt lat="40.775779" lon="9.4946868"><ele>473.0</ele><time>2026-04-12T14:22:51.593Z</time></trkpt><trkpt lat="40.7757761" lon="9.4947799"><ele>472.99999999999994</ele><time>2026-04-12T14:22:52.579Z</time></trkpt><trkpt lat="40.7757789" lon="9.4948779"><ele>473.0</ele><time>2026-04-12T14:22:53.579Z</time></trkpt><trkpt lat="40.775782" lon="9.4949756"><ele>472.16666666666663</ele><time>2026-04-12T14:22:54.581Z</time></trkpt><trkpt lat="40.775786" lon="9.4950777"><ele>471.3333333333333</ele><time>2026-04-12T14:22:55.581Z</time></trkpt><trkpt lat="40.7757932" lon="9.4951834"><ele>470.5</ele><time>2026-04-12T14:22:56.574Z</time></trkpt><trkpt lat="40.7757978" lon="9.4952848"><ele>469.66666666666663</ele><time>2026-04-12T14:22:57.576Z</time></trkpt><trkpt lat="40.7758046" lon="9.4953852"><ele>468.8333333333333</ele><time>2026-04-12T14:22:58.584Z</time></trkpt><trkpt lat="40.7758054" lon="9.4954918"><ele>468.0</ele><time>2026-04-12T14:22:59.586Z</time></trkpt><trkpt lat="40.7757879" lon="9.4956018"><ele>468.0</ele><time>2026-04-12T14:23:00.577Z</time></trkpt><trkpt lat="40.7757548" lon="9.4957168"><ele>468.0</ele><time>2026-04-12T14:23:01.579Z</time></trkpt><trkpt lat="40.7757116" lon="9.4958215"><ele>468.0</ele><time>2026-04-12T14:23:02.581Z</time></trkpt><trkpt lat="40.7756732" lon="9.4959211"><ele>468.0</ele><time>2026-04-12T14:23:03.596Z</time></trkpt><trkpt lat="40.7756355" lon="9.4960216"><ele>468.0</ele><time>2026-04-12T14:23:04.581Z</time></trkpt><trkpt lat="40.7755994" lon="9.4961151"><ele>468.0</ele><time>2026-04-12T14:23:05.58Z</time></trkpt><trkpt lat="40.7755631" lon="9.4962122"><ele>468.0</ele><time>2026-04-12T14:23:06.577Z</time></trkpt><trkpt lat="40.7755297" lon="9.4963045"><ele>468.00000000000006</ele><time>2026-04-12T14:23:07.58Z</time></trkpt><trkpt lat="40.7754945" lon="9.4963909"><ele>468.0</ele><time>2026-04-12T14:23:08.578Z</time></trkpt><trkpt lat="40.7754545" lon="9.4964722"><ele>468.0</ele><time>2026-04-12T14:23:09.584Z</time></trkpt><trkpt lat="40.7754092" lon="9.4965495"><ele>468.00000000000006</ele><time>2026-04-12T14:23:10.578Z</time></trkpt><trkpt lat="40.7753568" lon="9.4966115"><ele>468.0</ele><time>2026-04-12T14:23:11.587Z</time></trkpt><trkpt lat="40.775289" lon="9.4966615"><ele>468.0</ele><time>2026-04-12T14:23:12.588Z</time></trkpt><trkpt lat="40.7752266" lon="9.496704"><ele>464.79999999999995</ele><time>2026-04-12T14:23:13.585Z</time></trkpt><trkpt lat="40.7751696" lon="9.49674"><ele>461.59999999999997</ele><time>2026-04-12T14:23:14.587Z</time></trkpt><trkpt lat="40.7750658" lon="9.4968126"><ele>458.40000000000003</ele><time>2026-04-12T14:23:16.585Z</time></trkpt><trkpt lat="40.7749932" lon="9.4969081"><ele>455.20000000000005</ele><time>2026-04-12T14:23:18.583Z</time></trkpt><trkpt lat="40.7749506" lon="9.4970449"><ele>452.0</ele><time>2026-04-12T14:23:20.601Z</time></trkpt><trkpt lat="40.774948" lon="9.4972162"><ele>451.0</ele><time>2026-04-12T14:23:22.582Z</time></trkpt><trkpt lat="40.7749536" lon="9.4973052"><ele>450.0</ele><time>2026-04-12T14:23:23.587Z</time></trkpt><trkpt lat="40.7749627" lon="9.4973901"><ele>449.0</ele><time>2026-04-12T14:23:24.588Z</time></trkpt><trkpt lat="40.7749731" lon="9.4974754"><ele>448.0</ele><time>2026-04-12T14:23:25.585Z</time></trkpt><trkpt lat="40.7749744" lon="9.4975652"><ele>447.0</ele><time>2026-04-12T14:23:26.588Z</time></trkpt><trkpt lat="40.7749719" lon="9.4976592"><ele>446.0</ele><time>2026-04-12T14:23:27.6Z</time></trkpt><trkpt lat="40.7749729" lon="9.4977465"><ele>445.0</ele><time>2026-04-12T14:23:28.594Z</time></trkpt><trkpt lat="40.7749735" lon="9.4978352"><ele>443.6666666666667</ele><time>2026-04-12T14:23:29.599Z</time></trkpt><trkpt lat="40.7749724" lon="9.4979204"><ele>442.33333333333337</ele><time>2026-04-12T14:23:30.592Z</time></trkpt><trkpt lat="40.7749707" lon="9.4980072"><ele>441.0</ele><time>2026-04-12T14:23:31.615Z</time></trkpt><trkpt lat="40.7749686" lon="9.4980938"><ele>439.66666666666663</ele><time>2026-04-12T14:23:32.598Z</time></trkpt><trkpt lat="40.7749667" lon="9.4981804"><ele>438.3333333333333</ele><time>2026-04-12T14:23:33.599Z</time></trkpt><trkpt lat="40.7749684" lon="9.4983431"><ele>437.0</ele><time>2026-04-12T14:23:35.597Z</time></trkpt><trkpt lat="40.7749696" lon="9.4984886"><ele>437.0</ele><time>2026-04-12T14:23:37.606Z</time></trkpt><trkpt lat="40.7749442" lon="9.4986173"><ele>437.00000000000006</ele><time>2026-04-12T14:23:39.592Z</time></trkpt><trkpt lat="40.774867" lon="9.4986672"><ele>437.00000000000006</ele><time>2026-04-12T14:23:41.594Z</time></trkpt><trkpt lat="40.7747641" lon="9.4987068"><ele>437.0</ele><time>2026-04-12T14:23:43.595Z</time></trkpt><trkpt lat="40.774662" lon="9.4986979"><ele>437.0</ele><time>2026-04-12T14:23:45.593Z</time></trkpt><trkpt lat="40.7745475" lon="9.4986044"><ele>437.0</ele><time>2026-04-12T14:23:47.604Z</time></trkpt><trkpt lat="40.7745001" lon="9.4985304"><ele>437.0</ele><time>2026-04-12T14:23:48.598Z</time></trkpt><trkpt lat="40.7744606" lon="9.4984612"><ele>437.0</ele><time>2026-04-12T14:23:49.598Z</time></trkpt><trkpt lat="40.7744239" lon="9.4983833"><ele>437.0</ele><time>2026-04-12T14:23:50.595Z</time></trkpt><trkpt lat="40.7743948" lon="9.4983013"><ele>437.0</ele><time>2026-04-12T14:23:51.602Z</time></trkpt><trkpt lat="40.7743703" lon="9.4982142"><ele>437.0</ele><time>2026-04-12T14:23:52.595Z</time></trkpt><trkpt lat="40.774349" lon="9.4981293"><ele>437.0</ele><time>2026-04-12T14:23:53.599Z</time></trkpt><trkpt lat="40.7743284" lon="9.4980412"><ele>437.16666666666663</ele><time>2026-04-12T14:23:54.597Z</time></trkpt><trkpt lat="40.7743221" lon="9.4979553"><ele>437.3333333333333</ele><time>2026-04-12T14:23:55.612Z</time></trkpt><trkpt lat="40.7743304" lon="9.4978699"><ele>437.5</ele><time>2026-04-12T14:23:56.602Z</time></trkpt><trkpt lat="40.7743358" lon="9.4977823"><ele>437.66666666666663</ele><time>2026-04-12T14:23:57.594Z</time></trkpt><trkpt lat="40.774319" lon="9.4976503"><ele>437.8333333333333</ele><time>2026-04-12T14:23:59.599Z</time></trkpt><trkpt lat="40.774251" lon="9.497626"><ele>438.0</ele><time>2026-04-12T14:24:01.595Z</time></trkpt><trkpt lat="40.7741375" lon="9.497684"><ele>438.0</ele><time>2026-04-12T14:24:03.605Z</time></trkpt><trkpt lat="40.7740691" lon="9.4977209"><ele>438.0</ele><time>2026-04-12T14:24:04.593Z</time></trkpt><trkpt lat="40.7740056" lon="9.4977654"><ele>438.0</ele><time>2026-04-12T14:24:05.601Z</time></trkpt><trkpt lat="40.7739458" lon="9.4978273"><ele>438.0</ele><time>2026-04-12T14:24:06.603Z</time></trkpt><trkpt lat="40.7738859" lon="9.4978927"><ele>438.0</ele><time>2026-04-12T14:24:07.594Z</time></trkpt><trkpt lat="40.7738343" lon="9.4979744"><ele>438.0</ele><time>2026-04-12T14:24:08.599Z</time></trkpt><trkpt lat="40.7737834" lon="9.4980766"><ele>435.59999999999997</ele><time>2026-04-12T14:24:09.603Z</time></trkpt><trkpt lat="40.7737242" lon="9.4981827"><ele>433.19999999999993</ele><time>2026-04-12T14:24:10.596Z</time></trkpt><trkpt lat="40.7736633" lon="9.4982904"><ele>430.8</ele><time>2026-04-12T14:24:11.594Z</time></trkpt><trkpt lat="40.773596" lon="9.4983851"><ele>428.4</ele><time>2026-04-12T14:24:12.594Z</time></trkpt><trkpt lat="40.7735318" lon="9.4984778"><ele>426.0</ele><time>2026-04-12T14:24:13.6Z</time></trkpt><trkpt lat="40.7734571" lon="9.4985609"><ele>425.20000000000005</ele><time>2026-04-12T14:24:14.598Z</time></trkpt><trkpt lat="40.7733771" lon="9.498635"><ele>424.40000000000003</ele><time>2026-04-12T14:24:15.594Z</time></trkpt><trkpt lat="40.7732985" lon="9.4987048"><ele>423.6</ele><time>2026-04-12T14:24:16.593Z</time></trkpt><trkpt lat="40.7732188" lon="9.4987585"><ele>422.8</ele><time>2026-04-12T14:24:17.601Z</time></trkpt><trkpt lat="40.7731271" lon="9.4987948"><ele>422.0</ele><time>2026-04-12T14:24:18.598Z</time></trkpt><trkpt lat="40.773017" lon="9.4987979"><ele>421.49999999999994</ele><time>2026-04-12T14:24:19.596Z</time></trkpt><trkpt lat="40.7729162" lon="9.4987882"><ele>421.0</ele><time>2026-04-12T14:24:20.602Z</time></trkpt><trkpt lat="40.7728285" lon="9.498784"><ele>420.5</ele><time>2026-04-12T14:24:21.599Z</time></trkpt><trkpt lat="40.7727523" lon="9.4987998"><ele>420.0</ele><time>2026-04-12T14:24:22.602Z</time></trkpt><trkpt lat="40.7726795" lon="9.4988378"><ele>419.49999999999994</ele><time>2026-04-12T14:24:23.6Z</time></trkpt><trkpt lat="40.7726103" lon="9.4988722"><ele>419.0</ele><time>2026-04-12T14:24:24.594Z</time></trkpt><trkpt lat="40.7725397" lon="9.4988853"><ele>415.4</ele><time>2026-04-12T14:24:25.595Z</time></trkpt><trkpt lat="40.7724576" lon="9.4988746"><ele>411.79999999999995</ele><time>2026-04-12T14:24:26.617Z</time></trkpt><trkpt lat="40.772357" lon="9.4988406"><ele>408.20000000000005</ele><time>2026-04-12T14:24:27.6Z</time></trkpt><trkpt lat="40.7722567" lon="9.4988052"><ele>404.6</ele><time>2026-04-12T14:24:28.604Z</time></trkpt><trkpt lat="40.772153" lon="9.4987797"><ele>401.0</ele><time>2026-04-12T14:24:29.605Z</time></trkpt><trkpt lat="40.7720524" lon="9.4987706"><ele>400.99999999999994</ele><time>2026-04-12T14:24:30.596Z</time></trkpt><trkpt lat="40.7719596" lon="9.4987703"><ele>401.0</ele><time>2026-04-12T14:24:31.599Z</time></trkpt><trkpt lat="40.7718832" lon="9.4987494"><ele>401.0</ele><time>2026-04-12T14:24:32.598Z</time></trkpt><trkpt lat="40.7718182" lon="9.4987043"><ele>401.0</ele><time>2026-04-12T14:24:33.61Z</time></trkpt><trkpt lat="40.771773" lon="9.4986314"><ele>400.99999999999994</ele><time>2026-04-12T14:24:34.602Z</time></trkpt><trkpt lat="40.7717378" lon="9.4985459"><ele>401.0</ele><time>2026-04-12T14:24:35.613Z</time></trkpt><trkpt lat="40.7716946" lon="9.4984597"><ele>400.99999999999994</ele><time>2026-04-12T14:24:36.602Z</time></trkpt><trkpt lat="40.7716364" lon="9.4984168"><ele>401.0</ele><time>2026-04-12T14:24:37.596Z</time></trkpt><trkpt lat="40.7715726" lon="9.4984228"><ele>401.0</ele><time>2026-04-12T14:24:38.602Z</time></trkpt><trkpt lat="40.7715061" lon="9.4984423"><ele>401.0</ele><time>2026-04-12T14:24:39.611Z</time></trkpt><trkpt lat="40.7714217" lon="9.4984719"><ele>400.99999999999994</ele><time>2026-04-12T14:24:40.605Z</time></trkpt><trkpt lat="40.7713308" lon="9.4985037"><ele>401.0</ele><time>2026-04-12T14:24:41.603Z</time></trkpt><trkpt lat="40.7712427" lon="9.4985197"><ele>400.99999999999994</ele><time>2026-04-12T14:24:42.628Z</time></trkpt><trkpt lat="40.7711655" lon="9.498529"><ele>401.0</ele><time>2026-04-12T14:24:43.624Z</time></trkpt><trkpt lat="40.771097" lon="9.4985247"><ele>401.0</ele><time>2026-04-12T14:24:44.601Z</time></trkpt><trkpt lat="40.771037" lon="9.4984925"><ele>401.0</ele><time>2026-04-12T14:24:45.614Z</time></trkpt><trkpt lat="40.7709622" lon="9.4983909"><ele>400.99999999999994</ele><time>2026-04-12T14:24:47.612Z</time></trkpt><trkpt lat="40.7709341" lon="9.4982974"><ele>401.0</ele><time>2026-04-12T14:24:48.61Z</time></trkpt><trkpt lat="40.7708983" lon="9.4981731"><ele>400.6</ele><time>2026-04-12T14:24:49.609Z</time></trkpt><trkpt lat="40.7708636" lon="9.4980409"><ele>400.20000000000005</ele><time>2026-04-12T14:24:50.614Z</time></trkpt><trkpt lat="40.7708341" lon="9.4979181"><ele>399.79999999999995</ele><time>2026-04-12T14:24:51.64Z</time></trkpt><trkpt lat="40.7708038" lon="9.4978054"><ele>399.4</ele><time>2026-04-12T14:24:52.617Z</time></trkpt><trkpt lat="40.7707774" lon="9.4977204"><ele>399.0</ele><time>2026-04-12T14:24:53.611Z</time></trkpt><trkpt lat="40.7707113" lon="9.4976084"><ele>399.0</ele><time>2026-04-12T14:24:55.611Z</time></trkpt><trkpt lat="40.7706305" lon="9.4976097"><ele>399.0</ele><time>2026-04-12T14:24:57.608Z</time></trkpt><trkpt lat="40.7705817" lon="9.4977334"><ele>399.0</ele><time>2026-04-12T14:24:59.612Z</time></trkpt><trkpt lat="40.7705819" lon="9.4978289"><ele>399.0</ele><time>2026-04-12T14:25:00.61Z</time></trkpt><trkpt lat="40.7705768" lon="9.497941"><ele>399.0</ele><time>2026-04-12T14:25:01.622Z</time></trkpt><trkpt lat="40.77057" lon="9.4980583"><ele>399.0</ele><time>2026-04-12T14:25:02.62Z</time></trkpt><trkpt lat="40.7705547" lon="9.4981699"><ele>396.2</ele><time>2026-04-12T14:25:03.61Z</time></trkpt><trkpt lat="40.7705342" lon="9.4982975"><ele>393.4</ele><time>2026-04-12T14:25:04.62Z</time></trkpt><trkpt lat="40.7705085" lon="9.4984278"><ele>390.6</ele><time>2026-04-12T14:25:05.614Z</time></trkpt><trkpt lat="40.770476" lon="9.4985508"><ele>387.8</ele><time>2026-04-12T14:25:06.614Z</time></trkpt><trkpt lat="40.7704395" lon="9.498659"><ele>385.0</ele><time>2026-04-12T14:25:07.61Z</time></trkpt><trkpt lat="40.7704118" lon="9.4987579"><ele>380.8</ele><time>2026-04-12T14:25:08.615Z</time></trkpt><trkpt lat="40.7704074" lon="9.4988509"><ele>376.6</ele><time>2026-04-12T14:25:09.615Z</time></trkpt><trkpt lat="40.7704182" lon="9.4989536"><ele>372.4</ele><time>2026-04-12T14:25:10.617Z</time></trkpt><trkpt lat="40.7704376" lon="9.4990765"><ele>368.2</ele><time>2026-04-12T14:25:11.615Z</time></trkpt><trkpt lat="40.7704565" lon="9.4992165"><ele>364.0</ele><time>2026-04-12T14:25:12.621Z</time></trkpt><trkpt lat="40.7704722" lon="9.4993489"><ele>364.0</ele><time>2026-04-12T14:25:13.618Z</time></trkpt><trkpt lat="40.7704876" lon="9.4994667"><ele>364.0</ele><time>2026-04-12T14:25:14.615Z</time></trkpt><trkpt lat="40.7704965" lon="9.4995848"><ele>364.0</ele><time>2026-04-12T14:25:15.626Z</time></trkpt><trkpt lat="40.7704962" lon="9.4996973"><ele>364.0</ele><time>2026-04-12T14:25:16.62Z</time></trkpt><trkpt lat="40.7704875" lon="9.4998169"><ele>364.0</ele><time>2026-04-12T14:25:17.611Z</time></trkpt><trkpt lat="40.7704588" lon="9.4999563"><ele>360.5</ele><time>2026-04-12T14:25:18.615Z</time></trkpt><trkpt lat="40.7704223" lon="9.5001005"><ele>357.0</ele><time>2026-04-12T14:25:19.623Z</time></trkpt><trkpt lat="40.7703908" lon="9.5002292"><ele>353.5</ele><time>2026-04-12T14:25:20.621Z</time></trkpt><trkpt lat="40.7703604" lon="9.5003321"><ele>350.0</ele><time>2026-04-12T14:25:21.613Z</time></trkpt><trkpt lat="40.7703298" lon="9.5004156"><ele>346.5</ele><time>2026-04-12T14:25:22.618Z</time></trkpt><trkpt lat="40.7702872" lon="9.5005015"><ele>343.0</ele><time>2026-04-12T14:25:23.62Z</time></trkpt><trkpt lat="40.7702415" lon="9.5005891"><ele>341.0</ele><time>2026-04-12T14:25:24.616Z</time></trkpt><trkpt lat="40.7702124" lon="9.5006849"><ele>339.0</ele><time>2026-04-12T14:25:25.62Z</time></trkpt><trkpt lat="40.7702078" lon="9.5007912"><ele>337.0</ele><time>2026-04-12T14:25:26.614Z</time></trkpt><trkpt lat="40.7701957" lon="9.5008923"><ele>335.0</ele><time>2026-04-12T14:25:27.619Z</time></trkpt><trkpt lat="40.7701646" lon="9.5009704"><ele>333.0</ele><time>2026-04-12T14:25:28.526Z</time></trkpt><trkpt lat="40.7700695" lon="9.5010772"><ele>331.0</ele><time>2026-04-12T14:25:30.521Z</time></trkpt><trkpt lat="40.7700074" lon="9.5011218"><ele>335.8</ele><time>2026-04-12T14:25:31.521Z</time></trkpt><trkpt lat="40.7699387" lon="9.5011549"><ele>340.6</ele><time>2026-04-12T14:25:32.516Z</time></trkpt><trkpt lat="40.7698737" lon="9.5011845"><ele>345.4</ele><time>2026-04-12T14:25:33.524Z</time></trkpt><trkpt lat="40.7697135" lon="9.5010824"><ele>350.2</ele><time>2026-04-12T14:25:35.52Z</time></trkpt><trkpt lat="40.7696054" lon="9.5009966"><ele>355.0</ele><time>2026-04-12T14:25:36.521Z</time></trkpt><trkpt lat="40.7695011" lon="9.50093"><ele>355.0</ele><time>2026-04-12T14:25:37.519Z</time></trkpt><trkpt lat="40.7694197" lon="9.5008936"><ele>355.0</ele><time>2026-04-12T14:25:38.517Z</time></trkpt><trkpt lat="40.7693582" lon="9.5008669"><ele>355.0</ele><time>2026-04-12T14:25:39.524Z</time></trkpt><trkpt lat="40.7692682" lon="9.5009087"><ele>355.0</ele><time>2026-04-12T14:25:41.523Z</time></trkpt><trkpt lat="40.7692725" lon="9.5010112"><ele>355.0</ele><time>2026-04-12T14:25:43.521Z</time></trkpt><trkpt lat="40.7693412" lon="9.5011712"><ele>351.5</ele><time>2026-04-12T14:25:45.516Z</time></trkpt><trkpt lat="40.7693767" lon="9.501276"><ele>348.0</ele><time>2026-04-12T14:25:46.523Z</time></trkpt><trkpt lat="40.7694128" lon="9.501381"><ele>344.5</ele><time>2026-04-12T14:25:47.524Z</time></trkpt><trkpt lat="40.7694385" lon="9.5014844"><ele>341.0</ele><time>2026-04-12T14:25:48.521Z</time></trkpt><trkpt lat="40.7694591" lon="9.5015967"><ele>337.5</ele><time>2026-04-12T14:25:49.52Z</time></trkpt><trkpt lat="40.7694878" lon="9.5017179"><ele>334.0</ele><time>2026-04-12T14:25:50.523Z</time></trkpt><trkpt lat="40.7695183" lon="9.5018407"><ele>334.0</ele><time>2026-04-12T14:25:51.522Z</time></trkpt><trkpt lat="40.7695527" lon="9.501959"><ele>334.0</ele><time>2026-04-12T14:25:52.521Z</time></trkpt><trkpt lat="40.7695925" lon="9.5020644"><ele>334.0</ele><time>2026-04-12T14:25:53.523Z</time></trkpt><trkpt lat="40.7696304" lon="9.5021732"><ele>334.0</ele><time>2026-04-12T14:25:54.528Z</time></trkpt><trkpt lat="40.7696672" lon="9.5022627"><ele>334.0</ele><time>2026-04-12T14:25:55.526Z</time></trkpt><trkpt lat="40.7697138" lon="9.5023475"><ele>334.0</ele><time>2026-04-12T14:25:56.529Z</time></trkpt><trkpt lat="40.7697691" lon="9.5024162"><ele>331.8333333333333</ele><time>2026-04-12T14:25:57.524Z</time></trkpt><trkpt lat="40.7698327" lon="9.5024707"><ele>329.66666666666663</ele><time>2026-04-12T14:25:58.523Z</time></trkpt><trkpt lat="40.7699058" lon="9.5025036"><ele>327.5</ele><time>2026-04-12T14:25:59.523Z</time></trkpt><trkpt lat="40.769977" lon="9.5025364"><ele>325.3333333333333</ele><time>2026-04-12T14:26:00.534Z</time></trkpt><trkpt lat="40.7700276" lon="9.5025875"><ele>323.1666666666667</ele><time>2026-04-12T14:26:01.528Z</time></trkpt><trkpt lat="40.7700576" lon="9.5026714"><ele>321.0</ele><time>2026-04-12T14:26:02.525Z</time></trkpt><trkpt lat="40.7700664" lon="9.502787"><ele>321.0</ele><time>2026-04-12T14:26:03.531Z</time></trkpt><trkpt lat="40.770077" lon="9.5028884"><ele>321.0</ele><time>2026-04-12T14:26:04.526Z</time></trkpt><trkpt lat="40.7700776" lon="9.5029998"><ele>321.0</ele><time>2026-04-12T14:26:05.526Z</time></trkpt><trkpt lat="40.770066" lon="9.5031048"><ele>321.0</ele><time>2026-04-12T14:26:06.53Z</time></trkpt><trkpt lat="40.7700496" lon="9.5032051"><ele>321.0</ele><time>2026-04-12T14:26:07.527Z</time></trkpt><trkpt lat="40.7700252" lon="9.5033017"><ele>321.0</ele><time>2026-04-12T14:26:08.532Z</time></trkpt><trkpt lat="40.7700011" lon="9.503394"><ele>320.6666666666667</ele><time>2026-04-12T14:26:09.539Z</time></trkpt><trkpt lat="40.7699926" lon="9.5034807"><ele>320.3333333333333</ele><time>2026-04-12T14:26:10.527Z</time></trkpt><trkpt lat="40.7700034" lon="9.5035687"><ele>320.0</ele><time>2026-04-12T14:26:11.525Z</time></trkpt><trkpt lat="40.7700328" lon="9.5036587"><ele>319.66666666666663</ele><time>2026-04-12T14:26:12.539Z</time></trkpt><trkpt lat="40.7700562" lon="9.5037501"><ele>319.3333333333333</ele><time>2026-04-12T14:26:13.529Z</time></trkpt><trkpt lat="40.7700553" lon="9.5039038"><ele>319.0</ele><time>2026-04-12T14:26:15.53Z</time></trkpt><trkpt lat="40.7699675" lon="9.503952"><ele>316.66666666666663</ele><time>2026-04-12T14:26:17.529Z</time></trkpt><trkpt lat="40.7699038" lon="9.5039244"><ele>314.3333333333333</ele><time>2026-04-12T14:26:18.528Z</time></trkpt><trkpt lat="40.7698305" lon="9.5038896"><ele>312.0</ele><time>2026-04-12T14:26:19.528Z</time></trkpt><trkpt lat="40.7697626" lon="9.5038641"><ele>309.6666666666667</ele><time>2026-04-12T14:26:20.524Z</time></trkpt><trkpt lat="40.7696878" lon="9.5038754"><ele>307.33333333333337</ele><time>2026-04-12T14:26:21.528Z</time></trkpt><trkpt lat="40.7696024" lon="9.5039253"><ele>305.0</ele><time>2026-04-12T14:26:22.535Z</time></trkpt><trkpt lat="40.769502" lon="9.5040062"><ele>305.0</ele><time>2026-04-12T14:26:23.53Z</time></trkpt><trkpt lat="40.7693974" lon="9.5040963"><ele>305.0</ele><time>2026-04-12T14:26:24.53Z</time></trkpt><trkpt lat="40.7693062" lon="9.5041778"><ele>305.0</ele><time>2026-04-12T14:26:25.539Z</time></trkpt><trkpt lat="40.7692109" lon="9.5042375"><ele>305.0</ele><time>2026-04-12T14:26:26.53Z</time></trkpt><trkpt lat="40.7691238" lon="9.504299"><ele>305.0</ele><time>2026-04-12T14:26:27.534Z</time></trkpt><trkpt lat="40.7690436" lon="9.504346"><ele>306.83333333333337</ele><time>2026-04-12T14:26:28.533Z</time></trkpt><trkpt lat="40.7689637" lon="9.5043757"><ele>308.6666666666667</ele><time>2026-04-12T14:26:29.529Z</time></trkpt><trkpt lat="40.7688734" lon="9.5043913"><ele>310.5</ele><time>2026-04-12T14:26:30.526Z</time></trkpt><trkpt lat="40.7687777" lon="9.5043899"><ele>312.3333333333333</ele><time>2026-04-12T14:26:31.532Z</time></trkpt><trkpt lat="40.7686977" lon="9.5043902"><ele>314.16666666666663</ele><time>2026-04-12T14:26:32.531Z</time></trkpt><trkpt lat="40.7686102" lon="9.5044123"><ele>316.0</ele><time>2026-04-12T14:26:34.539Z</time></trkpt><trkpt lat="40.7686312" lon="9.5044993"><ele>316.0</ele><time>2026-04-12T14:26:36.537Z</time></trkpt><trkpt lat="40.7687333" lon="9.5045472"><ele>316.0</ele><time>2026-04-12T14:26:38.531Z</time></trkpt><trkpt lat="40.7688226" lon="9.5045595"><ele>316.0</ele><time>2026-04-12T14:26:39.538Z</time></trkpt><trkpt lat="40.768934" lon="9.5045825"><ele>316.0</ele><time>2026-04-12T14:26:40.532Z</time></trkpt><trkpt lat="40.7690361" lon="9.5046118"><ele>316.0</ele><time>2026-04-12T14:26:41.532Z</time></trkpt><trkpt lat="40.7691194" lon="9.5046135"><ele>311.8333333333333</ele><time>2026-04-12T14:26:42.537Z</time></trkpt><trkpt lat="40.7691907" lon="9.504608"><ele>307.66666666666663</ele><time>2026-04-12T14:26:43.53Z</time></trkpt><trkpt lat="40.7692627" lon="9.5046096"><ele>303.5</ele><time>2026-04-12T14:26:44.549Z</time></trkpt><trkpt lat="40.7693368" lon="9.5046118"><ele>299.3333333333333</ele><time>2026-04-12T14:26:45.531Z</time></trkpt><trkpt lat="40.7694141" lon="9.504608"><ele>295.1666666666667</ele><time>2026-04-12T14:26:46.539Z</time></trkpt><trkpt lat="40.7694914" lon="9.5046064"><ele>291.0</ele><time>2026-04-12T14:26:47.537Z</time></trkpt><trkpt lat="40.7695717" lon="9.5045968"><ele>289.85714285714283</ele><time>2026-04-12T14:26:48.532Z</time></trkpt><trkpt lat="40.7696448" lon="9.5045977"><ele>288.71428571428567</ele><time>2026-04-12T14:26:49.54Z</time></trkpt><trkpt lat="40.7697118" lon="9.5046131"><ele>287.57142857142856</ele><time>2026-04-12T14:26:50.538Z</time></trkpt><trkpt lat="40.7697824" lon="9.5046323"><ele>286.42857142857144</ele><time>2026-04-12T14:26:51.531Z</time></trkpt><trkpt lat="40.7698473" lon="9.5046487"><ele>285.28571428571433</ele><time>2026-04-12T14:26:52.538Z</time></trkpt><trkpt lat="40.7699208" lon="9.5046645"><ele>284.14285714285717</ele><time>2026-04-12T14:26:53.539Z</time></trkpt><trkpt lat="40.7699936" lon="9.504663"><ele>283.0</ele><time>2026-04-12T14:26:54.538Z</time></trkpt><trkpt lat="40.7700601" lon="9.5046579"><ele>283.0</ele><time>2026-04-12T14:26:55.538Z</time></trkpt><trkpt lat="40.7701529" lon="9.5046305"><ele>283.0</ele><time>2026-04-12T14:26:57.536Z</time></trkpt><trkpt lat="40.7702195" lon="9.5046589"><ele>283.0</ele><time>2026-04-12T14:26:59.539Z</time></trkpt><trkpt lat="40.7702244" lon="9.5047445"><ele>283.0</ele><time>2026-04-12T14:27:01.548Z</time></trkpt><trkpt lat="40.7701511" lon="9.5047748"><ele>283.0</ele><time>2026-04-12T14:27:03.541Z</time></trkpt><trkpt lat="40.770085" lon="9.5048019"><ele>283.0</ele><time>2026-04-12T14:27:04.545Z</time></trkpt><trkpt lat="40.770012" lon="9.5048345"><ele>283.0</ele><time>2026-04-12T14:27:05.535Z</time></trkpt><trkpt lat="40.7699384" lon="9.504869"><ele>283.0</ele><time>2026-04-12T14:27:06.544Z</time></trkpt><trkpt lat="40.7698595" lon="9.5048958"><ele>283.0</ele><time>2026-04-12T14:27:07.55Z</time></trkpt><trkpt lat="40.7697787" lon="9.5049144"><ele>283.0</ele><time>2026-04-12T14:27:08.538Z</time></trkpt><trkpt lat="40.7696977" lon="9.5049384"><ele>283.0</ele><time>2026-04-12T14:27:09.539Z</time></trkpt><trkpt lat="40.7696204" lon="9.5049715"><ele>283.0</ele><time>2026-04-12T14:27:10.544Z</time></trkpt><trkpt lat="40.7695481" lon="9.5050138"><ele>283.0</ele><time>2026-04-12T14:27:11.534Z</time></trkpt><trkpt lat="40.7694813" lon="9.5050805"><ele>283.0</ele><time>2026-04-12T14:27:12.535Z</time></trkpt><trkpt lat="40.7694101" lon="9.5051541"><ele>283.0</ele><time>2026-04-12T14:27:13.536Z</time></trkpt><trkpt lat="40.7693398" lon="9.5052334"><ele>283.0</ele><time>2026-04-12T14:27:14.55Z</time></trkpt><trkpt lat="40.769279" lon="9.5053139"><ele>283.0</ele><time>2026-04-12T14:27:15.53Z</time></trkpt><trkpt lat="40.7692211" lon="9.5053992"><ele>283.0</ele><time>2026-04-12T14:27:16.541Z</time></trkpt><trkpt lat="40.7691634" lon="9.5054773"><ele>279.8333333333333</ele><time>2026-04-12T14:27:17.544Z</time></trkpt><trkpt lat="40.7691052" lon="9.5055664"><ele>276.66666666666663</ele><time>2026-04-12T14:27:18.538Z</time></trkpt><trkpt lat="40.7690576" lon="9.5056739"><ele>273.5</ele><time>2026-04-12T14:27:19.54Z</time></trkpt><trkpt lat="40.7690142" lon="9.5057801"><ele>270.3333333333333</ele><time>2026-04-12T14:27:20.546Z</time></trkpt><trkpt lat="40.7689734" lon="9.5058877"><ele>267.1666666666667</ele><time>2026-04-12T14:27:21.537Z</time></trkpt><trkpt lat="40.7689312" lon="9.5059824"><ele>264.0</ele><time>2026-04-12T14:27:22.545Z</time></trkpt><trkpt lat="40.7688849" lon="9.5060743"><ele>264.0</ele><time>2026-04-12T14:27:23.546Z</time></trkpt><trkpt lat="40.7688532" lon="9.5061712"><ele>264.0</ele><time>2026-04-12T14:27:24.539Z</time></trkpt><trkpt lat="40.7688365" lon="9.5062817"><ele>264.0</ele><time>2026-04-12T14:27:25.536Z</time></trkpt><trkpt lat="40.7688263" lon="9.5063894"><ele>264.0</ele><time>2026-04-12T14:27:26.539Z</time></trkpt><trkpt lat="40.7688182" lon="9.5064837"><ele>264.0</ele><time>2026-04-12T14:27:27.543Z</time></trkpt><trkpt lat="40.7688074" lon="9.506571"><ele>264.0</ele><time>2026-04-12T14:27:28.545Z</time></trkpt><trkpt lat="40.7687479" lon="9.5067033"><ele>265.0</ele><time>2026-04-12T14:27:30.535Z</time></trkpt><trkpt lat="40.7686888" lon="9.5067417"><ele>266.0</ele><time>2026-04-12T14:27:31.536Z</time></trkpt><trkpt lat="40.7686061" lon="9.5067703"><ele>267.0</ele><time>2026-04-12T14:27:32.541Z</time></trkpt><trkpt lat="40.7685217" lon="9.5067963"><ele>268.0</ele><time>2026-04-12T14:27:33.537Z</time></trkpt><trkpt lat="40.7684441" lon="9.5068293"><ele>269.0</ele><time>2026-04-12T14:27:34.537Z</time></trkpt><trkpt lat="40.7683714" lon="9.5068898"><ele>270.0</ele><time>2026-04-12T14:27:35.54Z</time></trkpt><trkpt lat="40.768299" lon="9.5069594"><ele>270.0</ele><time>2026-04-12T14:27:36.535Z</time></trkpt><trkpt lat="40.7682316" lon="9.5070464"><ele>270.0</ele><time>2026-04-12T14:27:37.539Z</time></trkpt><trkpt lat="40.7681694" lon="9.5071361"><ele>270.0</ele><time>2026-04-12T14:27:38.536Z</time></trkpt><trkpt lat="40.768112" lon="9.5072275"><ele>270.0</ele><time>2026-04-12T14:27:39.54Z</time></trkpt><trkpt lat="40.7680588" lon="9.5073276"><ele>270.0</ele><time>2026-04-12T14:27:40.536Z</time></trkpt><trkpt lat="40.7680062" lon="9.507431"><ele>265.1666666666667</ele><time>2026-04-12T14:27:41.544Z</time></trkpt><trkpt lat="40.7679554" lon="9.5075255"><ele>260.3333333333333</ele><time>2026-04-12T14:27:42.54Z</time></trkpt><trkpt lat="40.7679123" lon="9.5076081"><ele>255.5</ele><time>2026-04-12T14:27:43.537Z</time></trkpt><trkpt lat="40.767879" lon="9.5076965"><ele>250.66666666666666</ele><time>2026-04-12T14:27:44.537Z</time></trkpt><trkpt lat="40.7678526" lon="9.5077927"><ele>245.83333333333331</ele><time>2026-04-12T14:27:45.538Z</time></trkpt><trkpt lat="40.7678346" lon="9.5078969"><ele>241.0</ele><time>2026-04-12T14:27:46.535Z</time></trkpt><trkpt lat="40.7678217" lon="9.5080005"><ele>238.66666666666666</ele><time>2026-04-12T14:27:47.545Z</time></trkpt><trkpt lat="40.7678099" lon="9.5081124"><ele>236.33333333333331</ele><time>2026-04-12T14:27:48.537Z</time></trkpt><trkpt lat="40.7678035" lon="9.5082241"><ele>234.0</ele><time>2026-04-12T14:27:49.546Z</time></trkpt><trkpt lat="40.7678062" lon="9.5083284"><ele>231.66666666666669</ele><time>2026-04-12T14:27:50.547Z</time></trkpt><trkpt lat="40.7678188" lon="9.5084288"><ele>229.33333333333334</ele><time>2026-04-12T14:27:51.541Z</time></trkpt><trkpt lat="40.7678413" lon="9.508524"><ele>227.0</ele><time>2026-04-12T14:27:52.534Z</time></trkpt><trkpt lat="40.7678723" lon="9.5086066"><ele>227.00000000000003</ele><time>2026-04-12T14:27:53.542Z</time></trkpt><trkpt lat="40.7679069" lon="9.5087005"><ele>227.0</ele><time>2026-04-12T14:27:54.539Z</time></trkpt><trkpt lat="40.7679379" lon="9.5088033"><ele>227.0</ele><time>2026-04-12T14:27:55.547Z</time></trkpt><trkpt lat="40.7679702" lon="9.5089052"><ele>227.0</ele><time>2026-04-12T14:27:56.538Z</time></trkpt><trkpt lat="40.7680045" lon="9.5089959"><ele>227.00000000000003</ele><time>2026-04-12T14:27:57.557Z</time></trkpt><trkpt lat="40.7680472" lon="9.5090711"><ele>227.0</ele><time>2026-04-12T14:27:58.55Z</time></trkpt><trkpt lat="40.7680985" lon="9.5091338"><ele>225.2</ele><time>2026-04-12T14:27:59.544Z</time></trkpt><trkpt lat="40.7681597" lon="9.5091888"><ele>223.39999999999998</ele><time>2026-04-12T14:28:00.544Z</time></trkpt><trkpt lat="40.7682249" lon="9.50923"><ele>221.60000000000002</ele><time>2026-04-12T14:28:01.546Z</time></trkpt><trkpt lat="40.7683459" lon="9.5092467"><ele>219.8</ele><time>2026-04-12T14:28:03.546Z</time></trkpt><trkpt lat="40.7684508" lon="9.5091519"><ele>218.0</ele><time>2026-04-12T14:28:05.541Z</time></trkpt><trkpt lat="40.7684989" lon="9.5090902"><ele>218.0</ele><time>2026-04-12T14:28:06.545Z</time></trkpt><trkpt lat="40.768595" lon="9.509004"><ele>218.0</ele><time>2026-04-12T14:28:08.545Z</time></trkpt><trkpt lat="40.7686634" lon="9.5090543"><ele>218.0</ele><time>2026-04-12T14:28:10.548Z</time></trkpt><trkpt lat="40.7686515" lon="9.5091818"><ele>218.0</ele><time>2026-04-12T14:28:12.54Z</time></trkpt><trkpt lat="40.7685738" lon="9.5093399"><ele>218.0</ele><time>2026-04-12T14:28:14.546Z</time></trkpt><trkpt lat="40.7685216" lon="9.5094455"><ele>218.0</ele><time>2026-04-12T14:28:15.542Z</time></trkpt><trkpt lat="40.7684798" lon="9.5095604"><ele>218.0</ele><time>2026-04-12T14:28:16.546Z</time></trkpt><trkpt lat="40.7684482" lon="9.5096549"><ele>218.0</ele><time>2026-04-12T14:28:17.552Z</time></trkpt><trkpt lat="40.7684085" lon="9.5097274"><ele>218.0</ele><time>2026-04-12T14:28:18.549Z</time></trkpt><trkpt lat="40.7682919" lon="9.5097871"><ele>218.0</ele><time>2026-04-12T14:28:20.553Z</time></trkpt><trkpt lat="40.7682004" lon="9.5097974"><ele>215.60000000000002</ele><time>2026-04-12T14:28:21.549Z</time></trkpt><trkpt lat="40.7680858" lon="9.5098023"><ele>213.20000000000002</ele><time>2026-04-12T14:28:22.55Z</time></trkpt><trkpt lat="40.7679751" lon="9.5098117"><ele>210.8</ele><time>2026-04-12T14:28:23.548Z</time></trkpt><trkpt lat="40.767875" lon="9.5098245"><ele>208.4</ele><time>2026-04-12T14:28:24.544Z</time></trkpt><trkpt lat="40.7677858" lon="9.5098389"><ele>206.0</ele><time>2026-04-12T14:28:25.545Z</time></trkpt><trkpt lat="40.7676947" lon="9.5098667"><ele>206.50000000000003</ele><time>2026-04-12T14:28:26.552Z</time></trkpt><trkpt lat="40.7676029" lon="9.5099128"><ele>207.0</ele><time>2026-04-12T14:28:27.553Z</time></trkpt><trkpt lat="40.767523" lon="9.5099621"><ele>207.5</ele><time>2026-04-12T14:28:28.541Z</time></trkpt><trkpt lat="40.7674691" lon="9.5100114"><ele>208.0</ele><time>2026-04-12T14:28:29.552Z</time></trkpt><trkpt lat="40.7674264" lon="9.5101466"><ele>208.50000000000003</ele><time>2026-04-12T14:28:31.544Z</time></trkpt><trkpt lat="40.767434" lon="9.5102315"><ele>209.0</ele><time>2026-04-12T14:28:32.551Z</time></trkpt><trkpt lat="40.7674349" lon="9.5103277"><ele>207.39999999999998</ele><time>2026-04-12T14:28:33.557Z</time></trkpt><trkpt lat="40.7674181" lon="9.5104334"><ele>205.8</ele><time>2026-04-12T14:28:34.547Z</time></trkpt><trkpt lat="40.7674023" lon="9.5105558"><ele>204.2</ele><time>2026-04-12T14:28:35.551Z</time></trkpt><trkpt lat="40.767387" lon="9.5106853"><ele>202.60000000000002</ele><time>2026-04-12T14:28:36.554Z</time></trkpt><trkpt lat="40.7673773" lon="9.5108216"><ele>201.0</ele><time>2026-04-12T14:28:37.554Z</time></trkpt><trkpt lat="40.7673751" lon="9.5109645"><ele>201.0</ele><time>2026-04-12T14:28:38.555Z</time></trkpt><trkpt lat="40.7673725" lon="9.5110874"><ele>201.0</ele><time>2026-04-12T14:28:39.55Z</time></trkpt><trkpt lat="40.7673646" lon="9.511213"><ele>201.0</ele><time>2026-04-12T14:28:40.564Z</time></trkpt><trkpt lat="40.7673479" lon="9.5113422"><ele>201.0</ele><time>2026-04-12T14:28:41.555Z</time></trkpt><trkpt lat="40.7673254" lon="9.5114936"><ele>201.0</ele><time>2026-04-12T14:28:42.548Z</time></trkpt><trkpt lat="40.7672978" lon="9.5116519"><ele>199.25</ele><time>2026-04-12T14:28:43.547Z</time></trkpt><trkpt lat="40.7672603" lon="9.5118067"><ele>197.5</ele><time>2026-04-12T14:28:44.548Z</time></trkpt><trkpt lat="40.7672186" lon="9.5119757"><ele>195.75</ele><time>2026-04-12T14:28:45.546Z</time></trkpt><trkpt lat="40.7671758" lon="9.5121515"><ele>194.0</ele><time>2026-04-12T14:28:46.554Z</time></trkpt><trkpt lat="40.7671351" lon="9.5123167"><ele>191.75</ele><time>2026-04-12T14:28:47.556Z</time></trkpt><trkpt lat="40.7670994" lon="9.5124672"><ele>189.5</ele><time>2026-04-12T14:28:48.548Z</time></trkpt><trkpt lat="40.7670646" lon="9.5126191"><ele>187.25</ele><time>2026-04-12T14:28:49.547Z</time></trkpt><trkpt lat="40.767029" lon="9.5127674"><ele>185.0</ele><time>2026-04-12T14:28:50.557Z</time></trkpt><trkpt lat="40.7669942" lon="9.5128988"><ele>185.2</ele><time>2026-04-12T14:28:51.556Z</time></trkpt><trkpt lat="40.766962" lon="9.5130245"><ele>185.4</ele><time>2026-04-12T14:28:52.549Z</time></trkpt><trkpt lat="40.7669355" lon="9.5131426"><ele>185.60000000000002</ele><time>2026-04-12T14:28:53.553Z</time></trkpt><trkpt lat="40.7669059" lon="9.5132745"><ele>185.8</ele><time>2026-04-12T14:28:54.56Z</time></trkpt><trkpt lat="40.7668718" lon="9.5134143"><ele>186.0</ele><time>2026-04-12T14:28:55.547Z</time></trkpt><trkpt lat="40.7668346" lon="9.5135531"><ele>186.0</ele><time>2026-04-12T14:28:56.553Z</time></trkpt><trkpt lat="40.7667988" lon="9.5136882"><ele>186.0</ele><time>2026-04-12T14:28:57.557Z</time></trkpt><trkpt lat="40.7667755" lon="9.5138074"><ele>186.0</ele><time>2026-04-12T14:28:58.559Z</time></trkpt><trkpt lat="40.7667661" lon="9.5139286"><ele>186.0</ele><time>2026-04-12T14:28:59.549Z</time></trkpt><trkpt lat="40.7667721" lon="9.5140633"><ele>186.0</ele><time>2026-04-12T14:29:00.554Z</time></trkpt><trkpt lat="40.7667931" lon="9.5142274"><ele>185.75</ele><time>2026-04-12T14:29:01.56Z</time></trkpt><trkpt lat="40.7668136" lon="9.5144141"><ele>185.5</ele><time>2026-04-12T14:29:02.558Z</time></trkpt><trkpt lat="40.7668387" lon="9.5146041"><ele>185.25</ele><time>2026-04-12T14:29:03.551Z</time></trkpt><trkpt lat="40.7668561" lon="9.5147692"><ele>185.0</ele><time>2026-04-12T14:29:04.558Z</time></trkpt><trkpt lat="40.7668715" lon="9.5149006"><ele>184.66666666666666</ele><time>2026-04-12T14:29:05.547Z</time></trkpt><trkpt lat="40.7668711" lon="9.5150111"><ele>184.33333333333331</ele><time>2026-04-12T14:29:06.551Z</time></trkpt><trkpt lat="40.7668529" lon="9.5151144"><ele>184.0</ele><time>2026-04-12T14:29:07.56Z</time></trkpt><trkpt lat="40.7668049" lon="9.5152164"><ele>183.66666666666666</ele><time>2026-04-12T14:29:08.556Z</time></trkpt><trkpt lat="40.7667527" lon="9.5153225"><ele>183.33333333333334</ele><time>2026-04-12T14:29:09.554Z</time></trkpt><trkpt lat="40.7666988" lon="9.5154294"><ele>183.0</ele><time>2026-04-12T14:29:10.546Z</time></trkpt><trkpt lat="40.7666628" lon="9.5155262"><ele>182.0</ele><time>2026-04-12T14:29:11.55Z</time></trkpt><trkpt lat="40.7666367" lon="9.5156346"><ele>181.0</ele><time>2026-04-12T14:29:12.556Z</time></trkpt><trkpt lat="40.7666148" lon="9.5157766"><ele>180.0</ele><time>2026-04-12T14:29:13.545Z</time></trkpt><trkpt lat="40.7665953" lon="9.5159411"><ele>179.0</ele><time>2026-04-12T14:29:14.55Z</time></trkpt><trkpt lat="40.7665825" lon="9.5160935"><ele>178.0</ele><time>2026-04-12T14:29:15.553Z</time></trkpt><trkpt lat="40.766575" lon="9.5162416"><ele>177.2</ele><time>2026-04-12T14:29:16.564Z</time></trkpt><trkpt lat="40.7665768" lon="9.5163982"><ele>176.4</ele><time>2026-04-12T14:29:17.554Z</time></trkpt><trkpt lat="40.7665764" lon="9.5165482"><ele>175.6</ele><time>2026-04-12T14:29:18.55Z</time></trkpt><trkpt lat="40.7665767" lon="9.5166784"><ele>174.79999999999998</ele><time>2026-04-12T14:29:19.552Z</time></trkpt><trkpt lat="40.7665651" lon="9.5167825"><ele>174.0</ele><time>2026-04-12T14:29:20.554Z</time></trkpt><trkpt lat="40.7665244" lon="9.516855"><ele>174.0</ele><time>2026-04-12T14:29:21.556Z</time></trkpt><trkpt lat="40.766464" lon="9.5169155"><ele>174.0</ele><time>2026-04-12T14:29:22.551Z</time></trkpt><trkpt lat="40.7664023" lon="9.5169787"><ele>174.0</ele><time>2026-04-12T14:29:23.561Z</time></trkpt><trkpt lat="40.7663669" lon="9.5170488"><ele>174.0</ele><time>2026-04-12T14:29:24.553Z</time></trkpt><trkpt lat="40.7663468" lon="9.5171498"><ele>174.0</ele><time>2026-04-12T14:29:25.554Z</time></trkpt><trkpt lat="40.7663417" lon="9.5172809"><ele>174.0</ele><time>2026-04-12T14:29:26.554Z</time></trkpt><trkpt lat="40.7663528" lon="9.5174486"><ele>173.79999999999998</ele><time>2026-04-12T14:29:27.56Z</time></trkpt><trkpt lat="40.7663627" lon="9.5176309"><ele>173.6</ele><time>2026-04-12T14:29:28.561Z</time></trkpt><trkpt lat="40.7663676" lon="9.5177957"><ele>173.4</ele><time>2026-04-12T14:29:29.563Z</time></trkpt><trkpt lat="40.766368" lon="9.5179165"><ele>173.2</ele><time>2026-04-12T14:29:30.553Z</time></trkpt><trkpt lat="40.7663776" lon="9.5180151"><ele>173.0</ele><time>2026-04-12T14:29:31.554Z</time></trkpt><trkpt lat="40.7664069" lon="9.5181026"><ele>172.33333333333331</ele><time>2026-04-12T14:29:32.572Z</time></trkpt><trkpt lat="40.7664527" lon="9.5181902"><ele>171.66666666666666</ele><time>2026-04-12T14:29:33.557Z</time></trkpt><trkpt lat="40.7664941" lon="9.5182669"><ele>171.0</ele><time>2026-04-12T14:29:34.555Z</time></trkpt><trkpt lat="40.7665295" lon="9.518399"><ele>170.33333333333334</ele><time>2026-04-12T14:29:36.56Z</time></trkpt><trkpt lat="40.7665289" lon="9.5185185"><ele>169.66666666666669</ele><time>2026-04-12T14:29:38.56Z</time></trkpt><trkpt lat="40.7665139" lon="9.5186234"><ele>169.0</ele><time>2026-04-12T14:29:41.562Z</time></trkpt><trkpt lat="40.7665178" lon="9.5187448"><ele>168.6</ele><time>2026-04-12T14:32:03.591Z</time></trkpt><trkpt lat="40.7665379" lon="9.5188739"><ele>168.2</ele><time>2026-04-12T14:32:05.569Z</time></trkpt><trkpt lat="40.7665505" lon="9.5190192"><ele>167.79999999999998</ele><time>2026-04-12T14:32:07.572Z</time></trkpt><trkpt lat="40.7665573" lon="9.5191642"><ele>167.39999999999998</ele><time>2026-04-12T14:32:09.572Z</time></trkpt><trkpt lat="40.7665449" lon="9.5193152"><ele>167.0</ele><time>2026-04-12T14:32:11.578Z</time></trkpt><trkpt lat="40.7665054" lon="9.5194766"><ele>166.33333333333331</ele><time>2026-04-12T14:32:13.566Z</time></trkpt><trkpt lat="40.7664849" lon="9.5195757"><ele>165.66666666666666</ele><time>2026-04-12T14:32:14.573Z</time></trkpt><trkpt lat="40.7664609" lon="9.519672"><ele>165.0</ele><time>2026-04-12T14:32:15.575Z</time></trkpt><trkpt lat="40.7664308" lon="9.5197564"><ele>164.33333333333334</ele><time>2026-04-12T14:32:16.567Z</time></trkpt><trkpt lat="40.7663352" lon="9.5198409"><ele>163.66666666666669</ele><time>2026-04-12T14:32:18.575Z</time></trkpt><trkpt lat="40.766256" lon="9.5199015"><ele>163.0</ele><time>2026-04-12T14:32:20.567Z</time></trkpt><trkpt lat="40.766257" lon="9.5200148"><ele>163.0</ele><time>2026-04-12T14:32:22.567Z</time></trkpt><trkpt lat="40.7663155" lon="9.5201508"><ele>163.0</ele><time>2026-04-12T14:32:24.595Z</time></trkpt><trkpt lat="40.7663775" lon="9.5202706"><ele>163.0</ele><time>2026-04-12T14:32:26.571Z</time></trkpt><trkpt lat="40.7664275" lon="9.5203716"><ele>163.0</ele><time>2026-04-12T14:32:28.573Z</time></trkpt><trkpt lat="40.7664379" lon="9.5204706"><ele>163.0</ele><time>2026-04-12T14:32:30.576Z</time></trkpt><trkpt lat="40.7663759" lon="9.5205559"><ele>163.0</ele><time>2026-04-12T14:32:32.573Z</time></trkpt><trkpt lat="40.7662678" lon="9.5206433"><ele>163.0</ele><time>2026-04-12T14:32:34.587Z</time></trkpt><trkpt lat="40.7661542" lon="9.52068"><ele>163.0</ele><time>2026-04-12T14:32:36.574Z</time></trkpt><trkpt lat="40.7660693" lon="9.5206922"><ele>163.0</ele><time>2026-04-12T14:32:38.583Z</time></trkpt><trkpt lat="40.7660008" lon="9.5207052"><ele>163.0</ele><time>2026-04-12T14:32:40.574Z</time></trkpt><trkpt lat="40.7659727" lon="9.5207862"><ele>163.0</ele><time>2026-04-12T14:32:42.575Z</time></trkpt><trkpt lat="40.7659776" lon="9.5208813"><ele>163.0</ele><time>2026-04-12T14:32:44.58Z</time></trkpt><trkpt lat="40.7659815" lon="9.5209845"><ele>163.0</ele><time>2026-04-12T14:32:46.576Z</time></trkpt><trkpt lat="40.7659717" lon="9.5210922"><ele>163.0</ele><time>2026-04-12T14:32:49.598Z</time></trkpt><trkpt lat="40.7659664" lon="9.5212082"><ele>163.0</ele><time>2026-04-12T14:32:51.574Z</time></trkpt><trkpt lat="40.7659969" lon="9.5213449"><ele>163.0</ele><time>2026-04-12T14:32:53.586Z</time></trkpt><trkpt lat="40.7660712" lon="9.5214785"><ele>161.8</ele><time>2026-04-12T14:32:55.577Z</time></trkpt><trkpt lat="40.7661211" lon="9.5215559"><ele>160.60000000000002</ele><time>2026-04-12T14:32:56.575Z</time></trkpt><trkpt lat="40.7661829" lon="9.5216376"><ele>159.39999999999998</ele><time>2026-04-12T14:32:57.595Z</time></trkpt><trkpt lat="40.7662454" lon="9.521723"><ele>158.2</ele><time>2026-04-12T14:32:58.578Z</time></trkpt><trkpt lat="40.7663117" lon="9.5218161"><ele>157.0</ele><time>2026-04-12T14:32:59.572Z</time></trkpt><trkpt lat="40.7663802" lon="9.5219222"><ele>157.0</ele><time>2026-04-12T14:33:00.582Z</time></trkpt><trkpt lat="40.7664535" lon="9.5220399"><ele>157.0</ele><time>2026-04-12T14:33:01.576Z</time></trkpt><trkpt lat="40.7665253" lon="9.5221605"><ele>157.0</ele><time>2026-04-12T14:33:02.575Z</time></trkpt><trkpt lat="40.7665953" lon="9.5222893"><ele>157.0</ele><time>2026-04-12T14:33:03.586Z</time></trkpt><trkpt lat="40.7666588" lon="9.5224222"><ele>156.6</ele><time>2026-04-12T14:33:04.576Z</time></trkpt><trkpt lat="40.7667113" lon="9.5225499"><ele>156.2</ele><time>2026-04-12T14:33:05.581Z</time></trkpt><trkpt lat="40.7667605" lon="9.5226702"><ele>155.8</ele><time>2026-04-12T14:33:06.591Z</time></trkpt><trkpt lat="40.7668101" lon="9.5227863"><ele>155.4</ele><time>2026-04-12T14:33:07.583Z</time></trkpt><trkpt lat="40.7668606" lon="9.5229117"><ele>155.0</ele><time>2026-04-12T14:33:08.577Z</time></trkpt><trkpt lat="40.7669013" lon="9.5230323"><ele>155.0</ele><time>2026-04-12T14:33:09.579Z</time></trkpt><trkpt lat="40.7669313" lon="9.5231584"><ele>155.0</ele><time>2026-04-12T14:33:10.574Z</time></trkpt><trkpt lat="40.7669547" lon="9.5233064"><ele>155.0</ele><time>2026-04-12T14:33:11.578Z</time></trkpt><trkpt lat="40.7669596" lon="9.5234794"><ele>155.0</ele><time>2026-04-12T14:33:12.578Z</time></trkpt><trkpt lat="40.7669572" lon="9.5236674"><ele>154.5</ele><time>2026-04-12T14:33:13.594Z</time></trkpt><trkpt lat="40.7669561" lon="9.5238527"><ele>154.0</ele><time>2026-04-12T14:33:14.579Z</time></trkpt><trkpt lat="40.7669603" lon="9.5240263"><ele>153.5</ele><time>2026-04-12T14:33:15.589Z</time></trkpt><trkpt lat="40.7669805" lon="9.5241821"><ele>153.0</ele><time>2026-04-12T14:33:16.584Z</time></trkpt><trkpt lat="40.7670271" lon="9.5243303"><ele>153.0</ele><time>2026-04-12T14:33:17.587Z</time></trkpt><trkpt lat="40.7670801" lon="9.5244707"><ele>153.0</ele><time>2026-04-12T14:33:18.578Z</time></trkpt><trkpt lat="40.76713" lon="9.5245926"><ele>153.0</ele><time>2026-04-12T14:33:19.583Z</time></trkpt><trkpt lat="40.7671706" lon="9.5246879"><ele>153.0</ele><time>2026-04-12T14:33:20.586Z</time></trkpt><trkpt lat="40.767203" lon="9.5247648"><ele>153.0</ele><time>2026-04-12T14:33:21.584Z</time></trkpt><trkpt lat="40.7672584" lon="9.5248777"><ele>152.66666666666666</ele><time>2026-04-12T14:33:23.582Z</time></trkpt><trkpt lat="40.7673103" lon="9.5249638"><ele>152.33333333333334</ele><time>2026-04-12T14:33:25.59Z</time></trkpt><trkpt lat="40.7673581" lon="9.5250411"><ele>152.0</ele><time>2026-04-12T14:33:27.579Z</time></trkpt><trkpt lat="40.7674188" lon="9.5251368"><ele>151.66666666666669</ele><time>2026-04-12T14:33:29.591Z</time></trkpt><trkpt lat="40.7674773" lon="9.5252539"><ele>151.33333333333334</ele><time>2026-04-12T14:33:31.585Z</time></trkpt><trkpt lat="40.7675116" lon="9.5253332"><ele>151.0</ele><time>2026-04-12T14:33:33.599Z</time></trkpt><trkpt lat="40.7675493" lon="9.5254081"><ele>150.33333333333334</ele><time>2026-04-12T14:33:36.59Z</time></trkpt><trkpt lat="40.7676003" lon="9.5254981"><ele>149.66666666666669</ele><time>2026-04-12T14:33:57.612Z</time></trkpt><trkpt lat="40.7675771" lon="9.5255782"><ele>149.0</ele><time>2026-04-12T14:33:59.606Z</time></trkpt><trkpt lat="40.7674894" lon="9.5256844"><ele>148.33333333333334</ele><time>2026-04-12T14:34:01.599Z</time></trkpt><trkpt lat="40.7674286" lon="9.5257502"><ele>147.66666666666666</ele><time>2026-04-12T14:34:02.61Z</time></trkpt><trkpt lat="40.7673622" lon="9.525828"><ele>147.0</ele><time>2026-04-12T14:34:03.598Z</time></trkpt><trkpt lat="40.7672909" lon="9.5259124"><ele>147.0</ele><time>2026-04-12T14:34:04.59Z</time></trkpt><trkpt lat="40.7672158" lon="9.5260029"><ele>147.0</ele><time>2026-04-12T14:34:05.605Z</time></trkpt><trkpt lat="40.7671425" lon="9.5260995"><ele>147.0</ele><time>2026-04-12T14:34:06.59Z</time></trkpt><trkpt lat="40.76708" lon="9.5261933"><ele>147.0</ele><time>2026-04-12T14:34:07.6Z</time></trkpt><trkpt lat="40.7670241" lon="9.5262847"><ele>147.0</ele><time>2026-04-12T14:34:08.604Z</time></trkpt><trkpt lat="40.7669708" lon="9.526378"><ele>146.5</ele><time>2026-04-12T14:34:09.614Z</time></trkpt><trkpt lat="40.7669173" lon="9.5264717"><ele>146.0</ele><time>2026-04-12T14:34:10.585Z</time></trkpt><trkpt lat="40.766863" lon="9.5265669"><ele>145.5</ele><time>2026-04-12T14:34:11.602Z</time></trkpt><trkpt lat="40.7668131" lon="9.526663"><ele>145.0</ele><time>2026-04-12T14:34:12.593Z</time></trkpt><trkpt lat="40.7667657" lon="9.5267611"><ele>144.5</ele><time>2026-04-12T14:34:13.603Z</time></trkpt><trkpt lat="40.7667222" lon="9.5268618"><ele>144.0</ele><time>2026-04-12T14:34:14.589Z</time></trkpt><trkpt lat="40.7666895" lon="9.5269569"><ele>143.85714285714286</ele><time>2026-04-12T14:34:15.607Z</time></trkpt><trkpt lat="40.7666564" lon="9.5270467"><ele>143.71428571428572</ele><time>2026-04-12T14:34:16.596Z</time></trkpt><trkpt lat="40.7666244" lon="9.5271303"><ele>143.57142857142856</ele><time>2026-04-12T14:34:17.604Z</time></trkpt><trkpt lat="40.7665934" lon="9.5272104"><ele>143.42857142857144</ele><time>2026-04-12T14:34:18.61Z</time></trkpt><trkpt lat="40.7665587" lon="9.5272992"><ele>143.28571428571428</ele><time>2026-04-12T14:34:19.594Z</time></trkpt><trkpt lat="40.7665274" lon="9.5273912"><ele>143.14285714285714</ele><time>2026-04-12T14:34:20.588Z</time></trkpt><trkpt lat="40.7664991" lon="9.5274822"><ele>143.0</ele><time>2026-04-12T14:34:21.601Z</time></trkpt><trkpt lat="40.7664732" lon="9.5275726"><ele>143.0</ele><time>2026-04-12T14:34:22.589Z</time></trkpt><trkpt lat="40.7664534" lon="9.5276732"><ele>143.0</ele><time>2026-04-12T14:34:23.596Z</time></trkpt><trkpt lat="40.7664347" lon="9.5277777"><ele>143.0</ele><time>2026-04-12T14:34:24.592Z</time></trkpt><trkpt lat="40.7664169" lon="9.5278825"><ele>143.0</ele><time>2026-04-12T14:34:25.602Z</time></trkpt><trkpt lat="40.7664021" lon="9.5279889"><ele>143.0</ele><time>2026-04-12T14:34:26.596Z</time></trkpt><trkpt lat="40.7663904" lon="9.5281034"><ele>143.0</ele><time>2026-04-12T14:34:27.598Z</time></trkpt><trkpt lat="40.7663774" lon="9.5282155"><ele>143.0</ele><time>2026-04-12T14:34:28.589Z</time></trkpt><trkpt lat="40.7663653" lon="9.5283217"><ele>143.0</ele><time>2026-04-12T14:34:29.587Z</time></trkpt><trkpt lat="40.7663559" lon="9.5284246"><ele>143.0</ele><time>2026-04-12T14:34:30.585Z</time></trkpt><trkpt lat="40.7663589" lon="9.5285346"><ele>143.0</ele><time>2026-04-12T14:34:31.597Z</time></trkpt><trkpt lat="40.7663731" lon="9.5286391"><ele>143.0</ele><time>2026-04-12T14:34:32.59Z</time></trkpt><trkpt lat="40.7663783" lon="9.5287349"><ele>143.0</ele><time>2026-04-12T14:34:33.596Z</time></trkpt><trkpt lat="40.7663699" lon="9.528837"><ele>142.16666666666666</ele><time>2026-04-12T14:34:34.597Z</time></trkpt><trkpt lat="40.7663525" lon="9.5289426"><ele>141.33333333333331</ele><time>2026-04-12T14:34:35.6Z</time></trkpt><trkpt lat="40.7663308" lon="9.5290483"><ele>140.5</ele><time>2026-04-12T14:34:36.588Z</time></trkpt><trkpt lat="40.766302" lon="9.5291619"><ele>139.66666666666666</ele><time>2026-04-12T14:34:37.589Z</time></trkpt><trkpt lat="40.7662738" lon="9.5292788"><ele>138.83333333333334</ele><time>2026-04-12T14:34:38.589Z</time></trkpt><trkpt lat="40.7662479" lon="9.5293923"><ele>138.0</ele><time>2026-04-12T14:34:39.606Z</time></trkpt><trkpt lat="40.7662203" lon="9.5295126"><ele>137.6</ele><time>2026-04-12T14:34:40.603Z</time></trkpt><trkpt lat="40.7661941" lon="9.5296287"><ele>137.20000000000002</ele><time>2026-04-12T14:34:41.591Z</time></trkpt><trkpt lat="40.7661681" lon="9.5297425"><ele>136.8</ele><time>2026-04-12T14:34:42.587Z</time></trkpt><trkpt lat="40.766142" lon="9.5298537"><ele>136.4</ele><time>2026-04-12T14:34:43.582Z</time></trkpt><trkpt lat="40.7661137" lon="9.529963"><ele>136.0</ele><time>2026-04-12T14:34:44.592Z</time></trkpt><trkpt lat="40.7660846" lon="9.5300802"><ele>136.0</ele><time>2026-04-12T14:34:45.601Z</time></trkpt><trkpt lat="40.7660512" lon="9.530206"><ele>136.0</ele><time>2026-04-12T14:34:46.586Z</time></trkpt><trkpt lat="40.7660222" lon="9.5303284"><ele>136.0</ele><time>2026-04-12T14:34:47.58Z</time></trkpt><trkpt lat="40.7659936" lon="9.5304487"><ele>136.0</ele><time>2026-04-12T14:34:48.597Z</time></trkpt><trkpt lat="40.7659647" lon="9.5305718"><ele>136.0</ele><time>2026-04-12T14:34:49.588Z</time></trkpt><trkpt lat="40.7659335" lon="9.5306987"><ele>136.8</ele><time>2026-04-12T14:34:50.589Z</time></trkpt><trkpt lat="40.7659017" lon="9.5308249"><ele>137.6</ele><time>2026-04-12T14:34:51.59Z</time></trkpt><trkpt lat="40.765871" lon="9.5309494"><ele>138.4</ele><time>2026-04-12T14:34:52.59Z</time></trkpt><trkpt lat="40.7658423" lon="9.5310734"><ele>139.2</ele><time>2026-04-12T14:34:53.591Z</time></trkpt><trkpt lat="40.7658127" lon="9.5311946"><ele>140.0</ele><time>2026-04-12T14:34:54.581Z</time></trkpt><trkpt lat="40.7657828" lon="9.5313161"><ele>140.0</ele><time>2026-04-12T14:34:55.588Z</time></trkpt><trkpt lat="40.7657486" lon="9.5314427"><ele>140.0</ele><time>2026-04-12T14:34:56.599Z</time></trkpt><trkpt lat="40.7657206" lon="9.5315705"><ele>140.0</ele><time>2026-04-12T14:34:57.598Z</time></trkpt><trkpt lat="40.7657035" lon="9.5316898"><ele>140.0</ele><time>2026-04-12T14:34:58.581Z</time></trkpt><trkpt lat="40.7656864" lon="9.5317961"><ele>140.0</ele><time>2026-04-12T14:34:59.581Z</time></trkpt><trkpt lat="40.7656616" lon="9.5318998"><ele>140.0</ele><time>2026-04-12T14:35:00.591Z</time></trkpt><trkpt lat="40.7656282" lon="9.5320051"><ele>140.0</ele><time>2026-04-12T14:35:01.598Z</time></trkpt><trkpt lat="40.7656037" lon="9.5321169"><ele>140.0</ele><time>2026-04-12T14:35:02.583Z</time></trkpt><trkpt lat="40.7655785" lon="9.5322432"><ele>140.0</ele><time>2026-04-12T14:35:03.591Z</time></trkpt><trkpt lat="40.7655481" lon="9.5323796"><ele>140.0</ele><time>2026-04-12T14:35:04.589Z</time></trkpt><trkpt lat="40.7655102" lon="9.5325169"><ele>139.6</ele><time>2026-04-12T14:35:05.603Z</time></trkpt><trkpt lat="40.7654788" lon="9.5326458"><ele>139.2</ele><time>2026-04-12T14:35:06.58Z</time></trkpt><trkpt lat="40.7654514" lon="9.5327676"><ele>138.8</ele><time>2026-04-12T14:35:07.579Z</time></trkpt><trkpt lat="40.7654207" lon="9.5328955"><ele>138.4</ele><time>2026-04-12T14:35:08.59Z</time></trkpt><trkpt lat="40.7653918" lon="9.5330243"><ele>138.0</ele><time>2026-04-12T14:35:09.579Z</time></trkpt><trkpt lat="40.7653628" lon="9.5331504"><ele>137.0</ele><time>2026-04-12T14:35:10.582Z</time></trkpt><trkpt lat="40.7653368" lon="9.5332777"><ele>136.0</ele><time>2026-04-12T14:35:11.597Z</time></trkpt><trkpt lat="40.7653094" lon="9.533405"><ele>135.0</ele><time>2026-04-12T14:35:12.582Z</time></trkpt><trkpt lat="40.7652761" lon="9.5335309"><ele>134.0</ele><time>2026-04-12T14:35:13.585Z</time></trkpt><trkpt lat="40.765251" lon="9.5336519"><ele>133.0</ele><time>2026-04-12T14:35:14.585Z</time></trkpt><trkpt lat="40.7652281" lon="9.5337534"><ele>132.66666666666669</ele><time>2026-04-12T14:35:15.588Z</time></trkpt><trkpt lat="40.7651969" lon="9.5338547"><ele>132.33333333333334</ele><time>2026-04-12T14:35:16.595Z</time></trkpt><trkpt lat="40.7651704" lon="9.5339486"><ele>132.0</ele><time>2026-04-12T14:35:17.598Z</time></trkpt><trkpt lat="40.7651476" lon="9.5340371"><ele>131.66666666666666</ele><time>2026-04-12T14:35:18.581Z</time></trkpt><trkpt lat="40.7651285" lon="9.5341229"><ele>131.33333333333331</ele><time>2026-04-12T14:35:19.595Z</time></trkpt><trkpt lat="40.7651096" lon="9.5342024"><ele>131.0</ele><time>2026-04-12T14:35:20.578Z</time></trkpt><trkpt lat="40.765111" lon="9.5343325"><ele>131.0</ele><time>2026-04-12T14:35:22.59Z</time></trkpt><trkpt lat="40.7651591" lon="9.5344303"><ele>131.0</ele><time>2026-04-12T14:35:24.599Z</time></trkpt><trkpt lat="40.7652254" lon="9.5345134"><ele>131.0</ele><time>2026-04-12T14:35:26.582Z</time></trkpt><trkpt lat="40.7652853" lon="9.5345956"><ele>131.0</ele><time>2026-04-12T14:35:28.592Z</time></trkpt><trkpt lat="40.7653455" lon="9.5346548"><ele>131.0</ele><time>2026-04-12T14:35:30.59Z</time></trkpt><trkpt lat="40.7654266" lon="9.534724"><ele>131.0</ele><time>2026-04-12T14:35:32.589Z</time></trkpt><trkpt lat="40.7655057" lon="9.5347925"><ele>130.2</ele><time>2026-04-12T14:35:34.582Z</time></trkpt><trkpt lat="40.7656016" lon="9.534864"><ele>129.39999999999998</ele><time>2026-04-12T14:35:36.583Z</time></trkpt><trkpt lat="40.7656947" lon="9.5349631"><ele>128.6</ele><time>2026-04-12T14:35:38.593Z</time></trkpt><trkpt lat="40.7657915" lon="9.5350574"><ele>127.8</ele><time>2026-04-12T14:35:40.581Z</time></trkpt><trkpt lat="40.7658485" lon="9.5351101"><ele>127.0</ele><time>2026-04-12T14:35:41.596Z</time></trkpt><trkpt lat="40.7659122" lon="9.5351712"><ele>127.0</ele><time>2026-04-12T14:35:42.581Z</time></trkpt><trkpt lat="40.7659737" lon="9.535224"><ele>127.0</ele><time>2026-04-12T14:35:43.599Z</time></trkpt><trkpt lat="40.7660348" lon="9.5352805"><ele>127.0</ele><time>2026-04-12T14:35:44.579Z</time></trkpt><trkpt lat="40.7660946" lon="9.5353311"><ele>127.0</ele><time>2026-04-12T14:35:45.592Z</time></trkpt><trkpt lat="40.7661466" lon="9.53538"><ele>127.0</ele><time>2026-04-12T14:35:46.591Z</time></trkpt><trkpt lat="40.7662046" lon="9.5354159"><ele>127.0</ele><time>2026-04-12T14:35:47.582Z</time></trkpt><trkpt lat="40.7662673" lon="9.5354416"><ele>127.0</ele><time>2026-04-12T14:35:48.593Z</time></trkpt><trkpt lat="40.7663695" lon="9.5355043"><ele>127.16666666666667</ele><time>2026-04-12T14:35:50.575Z</time></trkpt><trkpt lat="40.7664277" lon="9.5355926"><ele>127.33333333333334</ele><time>2026-04-12T14:35:52.576Z</time></trkpt><trkpt lat="40.7664375" lon="9.5357506"><ele>127.5</ele><time>2026-04-12T14:35:54.582Z</time></trkpt><trkpt lat="40.7664325" lon="9.535837"><ele>127.66666666666666</ele><time>2026-04-12T14:35:55.574Z</time></trkpt><trkpt lat="40.7664428" lon="9.5359743"><ele>127.83333333333333</ele><time>2026-04-12T14:35:57.587Z</time></trkpt><trkpt lat="40.7664629" lon="9.5360603"><ele>128.0</ele><time>2026-04-12T14:35:59.582Z</time></trkpt><trkpt lat="40.7665017" lon="9.5361323"><ele>128.0</ele><time>2026-04-12T14:36:01.592Z</time></trkpt><trkpt lat="40.766568" lon="9.5362196"><ele>128.0</ele><time>2026-04-12T14:36:14.581Z</time></trkpt><trkpt lat="40.7666244" lon="9.5363167"><ele>128.0</ele><time>2026-04-12T14:36:16.571Z</time></trkpt><trkpt lat="40.7666835" lon="9.5364121"><ele>128.0</ele><time>2026-04-12T14:36:18.574Z</time></trkpt><trkpt lat="40.7667386" lon="9.5365163"><ele>128.0</ele><time>2026-04-12T14:36:20.569Z</time></trkpt><trkpt lat="40.7667909" lon="9.5365942"><ele>127.99999999999999</ele><time>2026-04-12T14:36:22.587Z</time></trkpt><trkpt lat="40.7668509" lon="9.5366845"><ele>128.0</ele><time>2026-04-12T14:36:24.582Z</time></trkpt><trkpt lat="40.7669012" lon="9.5367743"><ele>128.0</ele><time>2026-04-12T14:36:26.579Z</time></trkpt><trkpt lat="40.7669564" lon="9.5368599"><ele>128.0</ele><time>2026-04-12T14:36:28.569Z</time></trkpt><trkpt lat="40.7670162" lon="9.5369301"><ele>127.99999999999999</ele><time>2026-04-12T14:36:30.567Z</time></trkpt><trkpt lat="40.7670982" lon="9.5370078"><ele>128.0</ele><time>2026-04-12T14:36:32.575Z</time></trkpt><trkpt lat="40.7671883" lon="9.5370892"><ele>127.80000000000001</ele><time>2026-04-12T14:36:34.579Z</time></trkpt><trkpt lat="40.7672815" lon="9.5371961"><ele>127.60000000000001</ele><time>2026-04-12T14:36:36.565Z</time></trkpt><trkpt lat="40.7673324" lon="9.537251"><ele>127.39999999999999</ele><time>2026-04-12T14:36:37.571Z</time></trkpt><trkpt lat="40.7674282" lon="9.5373238"><ele>127.19999999999999</ele><time>2026-04-12T14:36:39.561Z</time></trkpt><trkpt lat="40.7675303" lon="9.5373939"><ele>127.0</ele><time>2026-04-12T14:36:41.563Z</time></trkpt><trkpt lat="40.7675979" lon="9.5374292"><ele>127.00000000000001</ele><time>2026-04-12T14:36:42.571Z</time></trkpt><trkpt lat="40.7676618" lon="9.5374708"><ele>127.0</ele><time>2026-04-12T14:36:43.57Z</time></trkpt><trkpt lat="40.7677235" lon="9.5375099"><ele>127.0</ele><time>2026-04-12T14:36:44.564Z</time></trkpt><trkpt lat="40.767782" lon="9.5375463"><ele>127.0</ele><time>2026-04-12T14:36:45.575Z</time></trkpt><trkpt lat="40.7678885" lon="9.5376186"><ele>127.00000000000001</ele><time>2026-04-12T14:36:47.56Z</time></trkpt><trkpt lat="40.7679519" lon="9.5376587"><ele>127.0</ele><time>2026-04-12T14:36:48.567Z</time></trkpt><trkpt lat="40.7680251" lon="9.5376999"><ele>127.00000000000001</ele><time>2026-04-12T14:36:49.575Z</time></trkpt><trkpt lat="40.7680963" lon="9.5377361"><ele>127.0</ele><time>2026-04-12T14:36:50.566Z</time></trkpt><trkpt lat="40.7681649" lon="9.5377749"><ele>127.0</ele><time>2026-04-12T14:36:51.562Z</time></trkpt><trkpt lat="40.7682334" lon="9.5378146"><ele>127.0</ele><time>2026-04-12T14:36:52.562Z</time></trkpt><trkpt lat="40.768308" lon="9.5378549"><ele>127.00000000000001</ele><time>2026-04-12T14:36:53.555Z</time></trkpt><trkpt lat="40.7683835" lon="9.5378976"><ele>127.0</ele><time>2026-04-12T14:36:54.563Z</time></trkpt><trkpt lat="40.7684489" lon="9.5379379"><ele>127.0</ele><time>2026-04-12T14:36:55.556Z</time></trkpt><trkpt lat="40.7685532" lon="9.5380078"><ele>126.99999999999999</ele><time>2026-04-12T14:36:57.555Z</time></trkpt><trkpt lat="40.7686376" lon="9.5380742"><ele>126.99999999999999</ele><time>2026-04-12T14:36:59.557Z</time></trkpt><trkpt lat="40.7686944" lon="9.5381494"><ele>127.0</ele><time>2026-04-12T14:37:01.57Z</time></trkpt><trkpt lat="40.7686955" lon="9.538243"><ele>127.0</ele><time>2026-04-12T14:37:11.57Z</time></trkpt><trkpt lat="40.7686635" lon="9.5383532"><ele>127.0</ele><time>2026-04-12T14:37:13.576Z</time></trkpt><trkpt lat="40.7686152" lon="9.5384854"><ele>126.99999999999999</ele><time>2026-04-12T14:37:15.554Z</time></trkpt><trkpt lat="40.7685763" lon="9.5386312"><ele>126.99999999999999</ele><time>2026-04-12T14:37:17.567Z</time></trkpt><trkpt lat="40.7685908" lon="9.5387994"><ele>127.0</ele><time>2026-04-12T14:37:19.559Z</time></trkpt><trkpt lat="40.7686052" lon="9.5388932"><ele>127.0</ele><time>2026-04-12T14:37:20.553Z</time></trkpt><trkpt lat="40.7686194" lon="9.5389866"><ele>127.00000000000001</ele><time>2026-04-12T14:37:21.565Z</time></trkpt><trkpt lat="40.768622" lon="9.5390741"><ele>127.0</ele><time>2026-04-12T14:37:22.56Z</time></trkpt><trkpt lat="40.7686182" lon="9.5391624"><ele>127.0</ele><time>2026-04-12T14:37:23.552Z</time></trkpt><trkpt lat="40.7686036" lon="9.5392551"><ele>127.0</ele><time>2026-04-12T14:37:24.557Z</time></trkpt><trkpt lat="40.7685782" lon="9.5393424"><ele>127.00000000000001</ele><time>2026-04-12T14:37:25.562Z</time></trkpt><trkpt lat="40.768505" lon="9.5394596"><ele>127.0</ele><time>2026-04-12T14:37:27.567Z</time></trkpt><trkpt lat="40.7684443" lon="9.53951"><ele>127.71428571428572</ele><time>2026-04-12T14:37:28.578Z</time></trkpt><trkpt lat="40.768384" lon="9.5395706"><ele>128.42857142857142</ele><time>2026-04-12T14:37:29.558Z</time></trkpt><trkpt lat="40.7683378" lon="9.5396352"><ele>129.14285714285714</ele><time>2026-04-12T14:37:30.553Z</time></trkpt><trkpt lat="40.7683014" lon="9.539711"><ele>129.85714285714286</ele><time>2026-04-12T14:37:31.555Z</time></trkpt><trkpt lat="40.7682767" lon="9.5397938"><ele>130.57142857142858</ele><time>2026-04-12T14:37:32.561Z</time></trkpt><trkpt lat="40.768264" lon="9.5398846"><ele>131.28571428571428</ele><time>2026-04-12T14:37:33.555Z</time></trkpt><trkpt lat="40.7682698" lon="9.5399685"><ele>132.0</ele><time>2026-04-12T14:37:34.554Z</time></trkpt><trkpt lat="40.7683342" lon="9.5401105"><ele>132.0</ele><time>2026-04-12T14:37:36.564Z</time></trkpt><trkpt lat="40.7683771" lon="9.5401835"><ele>132.0</ele><time>2026-04-12T14:37:37.558Z</time></trkpt><trkpt lat="40.768425" lon="9.5402681"><ele>132.0</ele><time>2026-04-12T14:37:38.557Z</time></trkpt><trkpt lat="40.7684702" lon="9.5403631"><ele>132.0</ele><time>2026-04-12T14:37:39.559Z</time></trkpt><trkpt lat="40.7685058" lon="9.540467"><ele>132.0</ele><time>2026-04-12T14:37:40.558Z</time></trkpt><trkpt lat="40.7685429" lon="9.5405807"><ele>132.0</ele><time>2026-04-12T14:37:41.559Z</time></trkpt><trkpt lat="40.7685856" lon="9.540699"><ele>131.6</ele><time>2026-04-12T14:37:42.561Z</time></trkpt><trkpt lat="40.7686177" lon="9.5408076"><ele>131.2</ele><time>2026-04-12T14:37:43.563Z</time></trkpt><trkpt lat="40.7686504" lon="9.540913"><ele>130.8</ele><time>2026-04-12T14:37:44.559Z</time></trkpt><trkpt lat="40.7686851" lon="9.5410302"><ele>130.4</ele><time>2026-04-12T14:37:45.553Z</time></trkpt><trkpt lat="40.768719" lon="9.5411582"><ele>130.0</ele><time>2026-04-12T14:37:46.554Z</time></trkpt><trkpt lat="40.7687559" lon="9.5412832"><ele>130.0</ele><time>2026-04-12T14:37:47.556Z</time></trkpt><trkpt lat="40.768786" lon="9.541412"><ele>130.0</ele><time>2026-04-12T14:37:48.552Z</time></trkpt><trkpt lat="40.7688094" lon="9.5415359"><ele>130.0</ele><time>2026-04-12T14:37:49.553Z</time></trkpt><trkpt lat="40.7688332" lon="9.5416462"><ele>130.0</ele><time>2026-04-12T14:37:50.554Z</time></trkpt><trkpt lat="40.7688683" lon="9.5417593"><ele>130.0</ele><time>2026-04-12T14:37:51.568Z</time></trkpt><trkpt lat="40.7689045" lon="9.5418753"><ele>130.0</ele><time>2026-04-12T14:37:52.558Z</time></trkpt><trkpt lat="40.7689317" lon="9.5419784"><ele>130.0</ele><time>2026-04-12T14:37:53.553Z</time></trkpt><trkpt lat="40.7689476" lon="9.5420767"><ele>130.0</ele><time>2026-04-12T14:37:54.569Z</time></trkpt><trkpt lat="40.768974" lon="9.5421798"><ele>130.0</ele><time>2026-04-12T14:37:55.555Z</time></trkpt><trkpt lat="40.7690016" lon="9.5422899"><ele>130.0</ele><time>2026-04-12T14:37:56.554Z</time></trkpt><trkpt lat="40.7690314" lon="9.5423994"><ele>130.0</ele><time>2026-04-12T14:37:57.552Z</time></trkpt><trkpt lat="40.7690583" lon="9.5425202"><ele>130.6</ele><time>2026-04-12T14:37:58.562Z</time></trkpt><trkpt lat="40.7690908" lon="9.5426478"><ele>131.2</ele><time>2026-04-12T14:37:59.552Z</time></trkpt><trkpt lat="40.7691274" lon="9.5427779"><ele>131.8</ele><time>2026-04-12T14:38:00.555Z</time></trkpt><trkpt lat="40.7691591" lon="9.5429105"><ele>132.4</ele><time>2026-04-12T14:38:01.555Z</time></trkpt><trkpt lat="40.7691884" lon="9.543039"><ele>133.0</ele><time>2026-04-12T14:38:02.56Z</time></trkpt><trkpt lat="40.7692143" lon="9.5431587"><ele>133.0</ele><time>2026-04-12T14:38:03.554Z</time></trkpt><trkpt lat="40.7692464" lon="9.5432769"><ele>133.0</ele><time>2026-04-12T14:38:04.553Z</time></trkpt><trkpt lat="40.7692799" lon="9.5434029"><ele>133.0</ele><time>2026-04-12T14:38:05.553Z</time></trkpt><trkpt lat="40.7693107" lon="9.5435252"><ele>133.0</ele><time>2026-04-12T14:38:06.562Z</time></trkpt><trkpt lat="40.7693474" lon="9.5436544"><ele>133.0</ele><time>2026-04-12T14:38:07.56Z</time></trkpt><trkpt lat="40.7693836" lon="9.5437846"><ele>133.0</ele><time>2026-04-12T14:38:08.554Z</time></trkpt><trkpt lat="40.7694275" lon="9.5439157"><ele>133.0</ele><time>2026-04-12T14:38:09.571Z</time></trkpt><trkpt lat="40.7694724" lon="9.5440551"><ele>133.0</ele><time>2026-04-12T14:38:10.556Z</time></trkpt><trkpt lat="40.7695134" lon="9.5441949"><ele>133.0</ele><time>2026-04-12T14:38:11.566Z</time></trkpt><trkpt lat="40.7695577" lon="9.544334"><ele>133.0</ele><time>2026-04-12T14:38:12.552Z</time></trkpt><trkpt lat="40.7695967" lon="9.5444708"><ele>133.0</ele><time>2026-04-12T14:38:13.563Z</time></trkpt><trkpt lat="40.7696332" lon="9.5446073"><ele>133.0</ele><time>2026-04-12T14:38:14.566Z</time></trkpt><trkpt lat="40.7696663" lon="9.5447411"><ele>133.0</ele><time>2026-04-12T14:38:15.553Z</time></trkpt><trkpt lat="40.7697019" lon="9.5448758"><ele>133.0</ele><time>2026-04-12T14:38:16.557Z</time></trkpt><trkpt lat="40.7697379" lon="9.5450122"><ele>133.6</ele><time>2026-04-12T14:38:17.555Z</time></trkpt><trkpt lat="40.7697775" lon="9.5451472"><ele>134.20000000000002</ele><time>2026-04-12T14:38:18.567Z</time></trkpt><trkpt lat="40.7698156" lon="9.5452841"><ele>134.8</ele><time>2026-04-12T14:38:19.564Z</time></trkpt><trkpt lat="40.7698506" lon="9.5454173"><ele>135.4</ele><time>2026-04-12T14:38:20.554Z</time></trkpt><trkpt lat="40.7698849" lon="9.5455414"><ele>136.0</ele><time>2026-04-12T14:38:21.56Z</time></trkpt><trkpt lat="40.7699131" lon="9.5456542"><ele>136.0</ele><time>2026-04-12T14:38:22.554Z</time></trkpt><trkpt lat="40.7699397" lon="9.5457607"><ele>136.0</ele><time>2026-04-12T14:38:23.556Z</time></trkpt><trkpt lat="40.7699607" lon="9.5458884"><ele>136.0</ele><time>2026-04-12T14:38:24.558Z</time></trkpt><trkpt lat="40.7699776" lon="9.5460359"><ele>136.0</ele><time>2026-04-12T14:38:25.553Z</time></trkpt><trkpt lat="40.7699944" lon="9.5461998"><ele>136.0</ele><time>2026-04-12T14:38:26.56Z</time></trkpt><trkpt lat="40.7700115" lon="9.5463558"><ele>136.0</ele><time>2026-04-12T14:38:27.552Z</time></trkpt><trkpt lat="40.7700271" lon="9.5464985"><ele>136.0</ele><time>2026-04-12T14:38:28.551Z</time></trkpt><trkpt lat="40.7700422" lon="9.5466394"><ele>136.0</ele><time>2026-04-12T14:38:29.552Z</time></trkpt><trkpt lat="40.7700617" lon="9.5467904"><ele>136.0</ele><time>2026-04-12T14:38:30.556Z</time></trkpt><trkpt lat="40.7700984" lon="9.5469465"><ele>136.0</ele><time>2026-04-12T14:38:31.56Z</time></trkpt><trkpt lat="40.7701459" lon="9.5471199"><ele>136.0</ele><time>2026-04-12T14:38:32.56Z</time></trkpt><trkpt lat="40.770201" lon="9.5472947"><ele>136.0</ele><time>2026-04-12T14:38:33.55Z</time></trkpt><trkpt lat="40.7702484" lon="9.5474599"><ele>136.0</ele><time>2026-04-12T14:38:34.552Z</time></trkpt><trkpt lat="40.7702912" lon="9.5476044"><ele>135.5</ele><time>2026-04-12T14:38:35.564Z</time></trkpt><trkpt lat="40.7703325" lon="9.5477364"><ele>135.0</ele><time>2026-04-12T14:38:36.545Z</time></trkpt><trkpt lat="40.7703699" lon="9.5478697"><ele>134.5</ele><time>2026-04-12T14:38:37.55Z</time></trkpt><trkpt lat="40.7704104" lon="9.5480085"><ele>134.0</ele><time>2026-04-12T14:38:38.549Z</time></trkpt><trkpt lat="40.7704542" lon="9.5481577"><ele>134.0</ele><time>2026-04-12T14:38:39.547Z</time></trkpt><trkpt lat="40.7704971" lon="9.5483023"><ele>134.0</ele><time>2026-04-12T14:38:40.55Z</time></trkpt><trkpt lat="40.7705345" lon="9.5484255"><ele>134.0</ele><time>2026-04-12T14:38:41.563Z</time></trkpt><trkpt lat="40.7705708" lon="9.5485476"><ele>134.0</ele><time>2026-04-12T14:38:42.552Z</time></trkpt><trkpt lat="40.7706082" lon="9.5486721"><ele>134.0</ele><time>2026-04-12T14:38:43.546Z</time></trkpt><trkpt lat="40.7706445" lon="9.5488011"><ele>134.2</ele><time>2026-04-12T14:38:44.548Z</time></trkpt><trkpt lat="40.7706764" lon="9.5489223"><ele>134.4</ele><time>2026-04-12T14:38:45.551Z</time></trkpt><trkpt lat="40.7707077" lon="9.5490469"><ele>134.6</ele><time>2026-04-12T14:38:46.555Z</time></trkpt><trkpt lat="40.7707462" lon="9.5491751"><ele>134.8</ele><time>2026-04-12T14:38:47.544Z</time></trkpt><trkpt lat="40.7707937" lon="9.5492855"><ele>135.0</ele><time>2026-04-12T14:38:48.549Z</time></trkpt><trkpt lat="40.7708375" lon="9.5493812"><ele>135.0</ele><time>2026-04-12T14:38:49.566Z</time></trkpt><trkpt lat="40.7708828" lon="9.5494753"><ele>135.0</ele><time>2026-04-12T14:38:50.55Z</time></trkpt><trkpt lat="40.7709321" lon="9.5495778"><ele>135.0</ele><time>2026-04-12T14:38:51.549Z</time></trkpt><trkpt lat="40.770982" lon="9.5496738"><ele>135.0</ele><time>2026-04-12T14:38:52.545Z</time></trkpt><trkpt lat="40.7710232" lon="9.5497522"><ele>135.0</ele><time>2026-04-12T14:38:53.551Z</time></trkpt><trkpt lat="40.7711311" lon="9.5498311"><ele>136.0</ele><time>2026-04-12T14:38:55.552Z</time></trkpt><trkpt lat="40.7712045" lon="9.5498584"><ele>137.0</ele><time>2026-04-12T14:38:56.556Z</time></trkpt><trkpt lat="40.7712922" lon="9.5498765"><ele>138.0</ele><time>2026-04-12T14:38:57.559Z</time></trkpt><trkpt lat="40.7713853" lon="9.5499054"><ele>139.0</ele><time>2026-04-12T14:38:58.546Z</time></trkpt><trkpt lat="40.7714856" lon="9.5499438"><ele>140.0</ele><time>2026-04-12T14:38:59.543Z</time></trkpt><trkpt lat="40.7715911" lon="9.5499888"><ele>140.0</ele><time>2026-04-12T14:39:00.549Z</time></trkpt><trkpt lat="40.7716997" lon="9.5500378"><ele>140.0</ele><time>2026-04-12T14:39:01.549Z</time></trkpt><trkpt lat="40.7718051" lon="9.5500834"><ele>140.0</ele><time>2026-04-12T14:39:02.549Z</time></trkpt><trkpt lat="40.7718916" lon="9.550125"><ele>140.0</ele><time>2026-04-12T14:39:03.541Z</time></trkpt><trkpt lat="40.7719685" lon="9.5501862"><ele>140.0</ele><time>2026-04-12T14:39:04.543Z</time></trkpt><trkpt lat="40.7720368" lon="9.550267"><ele>140.33333333333331</ele><time>2026-04-12T14:39:05.55Z</time></trkpt><trkpt lat="40.7720935" lon="9.5503491"><ele>140.66666666666666</ele><time>2026-04-12T14:39:06.546Z</time></trkpt><trkpt lat="40.7721416" lon="9.5504546"><ele>141.0</ele><time>2026-04-12T14:39:07.546Z</time></trkpt><trkpt lat="40.7721829" lon="9.550557"><ele>141.33333333333334</ele><time>2026-04-12T14:39:08.55Z</time></trkpt><trkpt lat="40.7722245" lon="9.5506564"><ele>141.66666666666669</ele><time>2026-04-12T14:39:09.545Z</time></trkpt><trkpt lat="40.7722627" lon="9.5507565"><ele>142.0</ele><time>2026-04-12T14:39:10.563Z</time></trkpt><trkpt lat="40.7723021" lon="9.5508606"><ele>142.0</ele><time>2026-04-12T14:39:11.547Z</time></trkpt><trkpt lat="40.7723391" lon="9.5509638"><ele>142.0</ele><time>2026-04-12T14:39:12.542Z</time></trkpt><trkpt lat="40.7723747" lon="9.5510658"><ele>142.0</ele><time>2026-04-12T14:39:13.568Z</time></trkpt><trkpt lat="40.7724177" lon="9.5511653"><ele>142.0</ele><time>2026-04-12T14:39:14.542Z</time></trkpt><trkpt lat="40.7724634" lon="9.5512848"><ele>142.0</ele><time>2026-04-12T14:39:15.543Z</time></trkpt><trkpt lat="40.7725172" lon="9.5514307"><ele>142.0</ele><time>2026-04-12T14:39:16.543Z</time></trkpt><trkpt lat="40.7725646" lon="9.5515846"><ele>142.0</ele><time>2026-04-12T14:39:17.556Z</time></trkpt><trkpt lat="40.7726116" lon="9.5517276"><ele>142.0</ele><time>2026-04-12T14:39:18.543Z</time></trkpt><trkpt lat="40.7726579" lon="9.551852"><ele>142.0</ele><time>2026-04-12T14:39:19.54Z</time></trkpt><trkpt lat="40.7726938" lon="9.5519732"><ele>142.0</ele><time>2026-04-12T14:39:20.543Z</time></trkpt><trkpt lat="40.7727329" lon="9.5520781"><ele>141.66666666666669</ele><time>2026-04-12T14:39:21.539Z</time></trkpt><trkpt lat="40.7727645" lon="9.5521793"><ele>141.33333333333334</ele><time>2026-04-12T14:39:22.54Z</time></trkpt><trkpt lat="40.7727932" lon="9.5522619"><ele>141.0</ele><time>2026-04-12T14:39:23.555Z</time></trkpt><trkpt lat="40.7728389" lon="9.5523753"><ele>140.66666666666666</ele><time>2026-04-12T14:39:25.546Z</time></trkpt><trkpt lat="40.7728663" lon="9.5524566"><ele>140.33333333333331</ele><time>2026-04-12T14:39:27.549Z</time></trkpt><trkpt lat="40.7729001" lon="9.5525846"><ele>140.0</ele><time>2026-04-12T14:39:29.551Z</time></trkpt><trkpt lat="40.7729278" lon="9.5526809"><ele>140.0</ele><time>2026-04-12T14:39:30.541Z</time></trkpt><trkpt lat="40.7729603" lon="9.5527859"><ele>140.0</ele><time>2026-04-12T14:39:31.548Z</time></trkpt><trkpt lat="40.7730038" lon="9.5529005"><ele>140.0</ele><time>2026-04-12T14:39:32.549Z</time></trkpt><trkpt lat="40.7730657" lon="9.5530173"><ele>140.0</ele><time>2026-04-12T14:39:33.537Z</time></trkpt><trkpt lat="40.7731457" lon="9.5531262"><ele>140.0</ele><time>2026-04-12T14:39:34.535Z</time></trkpt><trkpt lat="40.7732431" lon="9.5532147"><ele>140.25</ele><time>2026-04-12T14:39:35.548Z</time></trkpt><trkpt lat="40.7733528" lon="9.5532795"><ele>140.5</ele><time>2026-04-12T14:39:36.536Z</time></trkpt><trkpt lat="40.7734734" lon="9.5533321"><ele>140.75</ele><time>2026-04-12T14:39:37.552Z</time></trkpt><trkpt lat="40.7735964" lon="9.5533794"><ele>141.0</ele><time>2026-04-12T14:39:38.534Z</time></trkpt><trkpt lat="40.7737173" lon="9.5534259"><ele>140.5</ele><time>2026-04-12T14:39:39.554Z</time></trkpt><trkpt lat="40.7738463" lon="9.553479"><ele>140.0</ele><time>2026-04-12T14:39:40.567Z</time></trkpt><trkpt lat="40.7739777" lon="9.5535296"><ele>139.5</ele><time>2026-04-12T14:39:41.556Z</time></trkpt><trkpt lat="40.7741064" lon="9.5535939"><ele>139.0</ele><time>2026-04-12T14:39:42.542Z</time></trkpt><trkpt lat="40.7742372" lon="9.5536466"><ele>140.25</ele><time>2026-04-12T14:39:43.537Z</time></trkpt><trkpt lat="40.7743693" lon="9.5536987"><ele>141.5</ele><time>2026-04-12T14:39:44.544Z</time></trkpt><trkpt lat="40.7744935" lon="9.5537524"><ele>142.75</ele><time>2026-04-12T14:39:45.541Z</time></trkpt><trkpt lat="40.7746154" lon="9.5538146"><ele>144.0</ele><time>2026-04-12T14:39:46.548Z</time></trkpt><trkpt lat="40.774718" lon="9.5538909"><ele>144.5</ele><time>2026-04-12T14:39:47.542Z</time></trkpt><trkpt lat="40.7748021" lon="9.5539822"><ele>145.0</ele><time>2026-04-12T14:39:48.536Z</time></trkpt><trkpt lat="40.774868" lon="9.5540879"><ele>145.5</ele><time>2026-04-12T14:39:49.555Z</time></trkpt><trkpt lat="40.7749211" lon="9.554223"><ele>146.0</ele><time>2026-04-12T14:39:50.542Z</time></trkpt><trkpt lat="40.7749649" lon="9.5543785"><ele>146.75</ele><time>2026-04-12T14:39:51.534Z</time></trkpt><trkpt lat="40.7750064" lon="9.5545414"><ele>147.5</ele><time>2026-04-12T14:39:52.542Z</time></trkpt><trkpt lat="40.7750458" lon="9.5547115"><ele>148.25</ele><time>2026-04-12T14:39:53.555Z</time></trkpt><trkpt lat="40.7750942" lon="9.5548744"><ele>149.0</ele><time>2026-04-12T14:39:54.551Z</time></trkpt><trkpt lat="40.7751569" lon="9.5550261"><ele>149.0</ele><time>2026-04-12T14:39:55.548Z</time></trkpt><trkpt lat="40.7752413" lon="9.5551536"><ele>149.0</ele><time>2026-04-12T14:39:56.536Z</time></trkpt><trkpt lat="40.7753435" lon="9.5552615"><ele>149.0</ele><time>2026-04-12T14:39:57.538Z</time></trkpt><trkpt lat="40.7754623" lon="9.5553565"><ele>149.0</ele><time>2026-04-12T14:39:58.537Z</time></trkpt><trkpt lat="40.7755835" lon="9.5554351"><ele>149.0</ele><time>2026-04-12T14:39:59.553Z</time></trkpt><trkpt lat="40.7756996" lon="9.5554865"><ele>149.0</ele><time>2026-04-12T14:40:00.541Z</time></trkpt><trkpt lat="40.7758158" lon="9.5555034"><ele>149.0</ele><time>2026-04-12T14:40:01.547Z</time></trkpt><trkpt lat="40.7759408" lon="9.555497"><ele>149.0</ele><time>2026-04-12T14:40:02.534Z</time></trkpt><trkpt lat="40.7760571" lon="9.5554593"><ele>149.75</ele><time>2026-04-12T14:40:03.548Z</time></trkpt><trkpt lat="40.7761763" lon="9.55539"><ele>150.5</ele><time>2026-04-12T14:40:04.579Z</time></trkpt><trkpt lat="40.7762994" lon="9.555311"><ele>151.25</ele><time>2026-04-12T14:40:05.551Z</time></trkpt><trkpt lat="40.7764311" lon="9.5552325"><ele>152.0</ele><time>2026-04-12T14:40:06.545Z</time></trkpt><trkpt lat="40.7765655" lon="9.5551493"><ele>153.0</ele><time>2026-04-12T14:40:07.556Z</time></trkpt><trkpt lat="40.7767025" lon="9.5550638"><ele>154.0</ele><time>2026-04-12T14:40:08.556Z</time></trkpt><trkpt lat="40.7768437" lon="9.5549727"><ele>155.0</ele><time>2026-04-12T14:40:09.539Z</time></trkpt><trkpt lat="40.7769854" lon="9.5548858"><ele>156.0</ele><time>2026-04-12T14:40:10.539Z</time></trkpt><trkpt lat="40.7771274" lon="9.554796"><ele>157.0</ele><time>2026-04-12T14:40:11.535Z</time></trkpt><trkpt lat="40.7772723" lon="9.5547061"><ele>158.0</ele><time>2026-04-12T14:40:12.544Z</time></trkpt><trkpt lat="40.7774202" lon="9.5546096"><ele>159.0</ele><time>2026-04-12T14:40:13.551Z</time></trkpt><trkpt lat="40.7775712" lon="9.5545129"><ele>160.0</ele><time>2026-04-12T14:40:14.55Z</time></trkpt><trkpt lat="40.7777192" lon="9.5544126"><ele>161.0</ele><time>2026-04-12T14:40:15.535Z</time></trkpt><trkpt lat="40.7778617" lon="9.5543233"><ele>162.25</ele><time>2026-04-12T14:40:16.54Z</time></trkpt><trkpt lat="40.7779933" lon="9.5542532"><ele>163.5</ele><time>2026-04-12T14:40:17.545Z</time></trkpt><trkpt lat="40.7781177" lon="9.5542098"><ele>164.75</ele><time>2026-04-12T14:40:18.548Z</time></trkpt><trkpt lat="40.7782499" lon="9.5541988"><ele>166.0</ele><time>2026-04-12T14:40:19.539Z</time></trkpt><trkpt lat="40.7783887" lon="9.5542219"><ele>166.66666666666669</ele><time>2026-04-12T14:40:20.536Z</time></trkpt><trkpt lat="40.7785363" lon="9.5542518"><ele>167.33333333333334</ele><time>2026-04-12T14:40:21.534Z</time></trkpt><trkpt lat="40.7786845" lon="9.5542785"><ele>168.0</ele><time>2026-04-12T14:40:22.544Z</time></trkpt><trkpt lat="40.7788413" lon="9.5542993"><ele>168.0</ele><time>2026-04-12T14:40:23.539Z</time></trkpt><trkpt lat="40.7790052" lon="9.5543273"><ele>168.0</ele><time>2026-04-12T14:40:24.546Z</time></trkpt><trkpt lat="40.7791721" lon="9.5543582"><ele>168.0</ele><time>2026-04-12T14:40:25.536Z</time></trkpt><trkpt lat="40.7793442" lon="9.5543982"><ele>167.33333333333334</ele><time>2026-04-12T14:40:26.542Z</time></trkpt><trkpt lat="40.7795227" lon="9.5544586"><ele>166.66666666666669</ele><time>2026-04-12T14:40:27.538Z</time></trkpt><trkpt lat="40.7797001" lon="9.5545274"><ele>166.0</ele><time>2026-04-12T14:40:28.539Z</time></trkpt><trkpt lat="40.7798744" lon="9.5545914"><ele>166.0</ele><time>2026-04-12T14:40:29.545Z</time></trkpt><trkpt lat="40.7800353" lon="9.554652"><ele>166.0</ele><time>2026-04-12T14:40:30.543Z</time></trkpt><trkpt lat="40.7801874" lon="9.5547237"><ele>166.0</ele><time>2026-04-12T14:40:31.542Z</time></trkpt><trkpt lat="40.7803259" lon="9.554822"><ele>163.0</ele><time>2026-04-12T14:40:32.534Z</time></trkpt><trkpt lat="40.7804605" lon="9.5549448"><ele>160.0</ele><time>2026-04-12T14:40:33.535Z</time></trkpt><trkpt lat="40.7805929" lon="9.5550868"><ele>157.0</ele><time>2026-04-12T14:40:34.535Z</time></trkpt><trkpt lat="40.7807386" lon="9.5552324"><ele>156.66666666666669</ele><time>2026-04-12T14:40:35.532Z</time></trkpt><trkpt lat="40.7808908" lon="9.5553907"><ele>156.33333333333334</ele><time>2026-04-12T14:40:36.538Z</time></trkpt><trkpt lat="40.7810353" lon="9.5555645"><ele>156.0</ele><time>2026-04-12T14:40:37.537Z</time></trkpt><trkpt lat="40.7811643" lon="9.5557565"><ele>154.66666666666666</ele><time>2026-04-12T14:40:38.534Z</time></trkpt><trkpt lat="40.781287" lon="9.55596"><ele>153.33333333333331</ele><time>2026-04-12T14:40:39.542Z</time></trkpt><trkpt lat="40.7814147" lon="9.5561588"><ele>152.0</ele><time>2026-04-12T14:40:40.545Z</time></trkpt><trkpt lat="40.781537" lon="9.5563629"><ele>151.66666666666666</ele><time>2026-04-12T14:40:41.548Z</time></trkpt><trkpt lat="40.7816559" lon="9.5565635"><ele>151.33333333333334</ele><time>2026-04-12T14:40:42.539Z</time></trkpt><trkpt lat="40.7817758" lon="9.556757"><ele>151.0</ele><time>2026-04-12T14:40:43.537Z</time></trkpt><trkpt lat="40.7818944" lon="9.5569468"><ele>148.33333333333334</ele><time>2026-04-12T14:40:44.544Z</time></trkpt><trkpt lat="40.7820141" lon="9.5571394"><ele>145.66666666666666</ele><time>2026-04-12T14:40:45.543Z</time></trkpt><trkpt lat="40.7821317" lon="9.5573302"><ele>143.0</ele><time>2026-04-12T14:40:46.542Z</time></trkpt><trkpt lat="40.7822522" lon="9.5575243"><ele>143.0</ele><time>2026-04-12T14:40:47.54Z</time></trkpt><trkpt lat="40.7823694" lon="9.5577237"><ele>143.0</ele><time>2026-04-12T14:40:48.531Z</time></trkpt><trkpt lat="40.7824867" lon="9.5579242"><ele>143.0</ele><time>2026-04-12T14:40:49.548Z</time></trkpt><trkpt lat="40.7826008" lon="9.5581193"><ele>142.33333333333331</ele><time>2026-04-12T14:40:50.54Z</time></trkpt><trkpt lat="40.7827174" lon="9.5583118"><ele>141.66666666666666</ele><time>2026-04-12T14:40:51.547Z</time></trkpt><trkpt lat="40.7828311" lon="9.5585029"><ele>141.0</ele><time>2026-04-12T14:40:52.535Z</time></trkpt><trkpt lat="40.7829422" lon="9.5586908"><ele>142.0</ele><time>2026-04-12T14:40:53.546Z</time></trkpt><trkpt lat="40.7830503" lon="9.5588839"><ele>143.0</ele><time>2026-04-12T14:40:54.543Z</time></trkpt><trkpt lat="40.783156" lon="9.5590754"><ele>144.0</ele><time>2026-04-12T14:40:55.538Z</time></trkpt><trkpt lat="40.7832653" lon="9.5592695"><ele>144.0</ele><time>2026-04-12T14:40:56.537Z</time></trkpt><trkpt lat="40.783377" lon="9.5594623"><ele>144.0</ele><time>2026-04-12T14:40:57.534Z</time></trkpt><trkpt lat="40.7834857" lon="9.5596592"><ele>144.0</ele><time>2026-04-12T14:40:58.539Z</time></trkpt><trkpt lat="40.783595" lon="9.5598576"><ele>143.0</ele><time>2026-04-12T14:40:59.534Z</time></trkpt><trkpt lat="40.7837063" lon="9.5600463"><ele>142.0</ele><time>2026-04-12T14:41:00.534Z</time></trkpt><trkpt lat="40.7838208" lon="9.5602259"><ele>141.0</ele><time>2026-04-12T14:41:01.533Z</time></trkpt><trkpt lat="40.7839457" lon="9.5603897"><ele>141.66666666666666</ele><time>2026-04-12T14:41:02.537Z</time></trkpt><trkpt lat="40.7840822" lon="9.5605388"><ele>142.33333333333331</ele><time>2026-04-12T14:41:03.534Z</time></trkpt><trkpt lat="40.7842233" lon="9.5606756"><ele>143.0</ele><time>2026-04-12T14:41:04.531Z</time></trkpt><trkpt lat="40.7843621" lon="9.5608104"><ele>143.0</ele><time>2026-04-12T14:41:05.535Z</time></trkpt><trkpt lat="40.7845003" lon="9.5609423"><ele>143.0</ele><time>2026-04-12T14:41:06.535Z</time></trkpt><trkpt lat="40.7846375" lon="9.5610739"><ele>143.0</ele><time>2026-04-12T14:41:07.529Z</time></trkpt><trkpt lat="40.7847742" lon="9.5612041"><ele>143.66666666666666</ele><time>2026-04-12T14:41:08.538Z</time></trkpt><trkpt lat="40.7849094" lon="9.5613423"><ele>144.33333333333334</ele><time>2026-04-12T14:41:09.536Z</time></trkpt><trkpt lat="40.7850474" lon="9.5614835"><ele>145.0</ele><time>2026-04-12T14:41:10.545Z</time></trkpt><trkpt lat="40.7851877" lon="9.5616404"><ele>142.0</ele><time>2026-04-12T14:41:11.53Z</time></trkpt><trkpt lat="40.7853268" lon="9.5618029"><ele>139.0</ele><time>2026-04-12T14:41:12.531Z</time></trkpt><trkpt lat="40.7854645" lon="9.5619674"><ele>136.0</ele><time>2026-04-12T14:41:13.532Z</time></trkpt><trkpt lat="40.7856088" lon="9.5621338"><ele>136.0</ele><time>2026-04-12T14:41:14.534Z</time></trkpt><trkpt lat="40.7857505" lon="9.5623014"><ele>136.0</ele><time>2026-04-12T14:41:15.525Z</time></trkpt><trkpt lat="40.7858969" lon="9.5624703"><ele>136.0</ele><time>2026-04-12T14:41:16.53Z</time></trkpt><trkpt lat="40.7860439" lon="9.5626406"><ele>134.66666666666669</ele><time>2026-04-12T14:41:17.531Z</time></trkpt><trkpt lat="40.7861905" lon="9.5628136"><ele>133.33333333333334</ele><time>2026-04-12T14:41:18.528Z</time></trkpt><trkpt lat="40.7863382" lon="9.5629907"><ele>132.0</ele><time>2026-04-12T14:41:19.529Z</time></trkpt><trkpt lat="40.7864847" lon="9.563164"><ele>132.0</ele><time>2026-04-12T14:41:20.525Z</time></trkpt><trkpt lat="40.7866307" lon="9.5633376"><ele>132.0</ele><time>2026-04-12T14:41:21.53Z</time></trkpt><trkpt lat="40.7867782" lon="9.5635088"><ele>132.0</ele><time>2026-04-12T14:41:22.525Z</time></trkpt><trkpt lat="40.7869262" lon="9.5636851"><ele>131.66666666666666</ele><time>2026-04-12T14:41:23.531Z</time></trkpt><trkpt lat="40.7870693" lon="9.5638644"><ele>131.33333333333331</ele><time>2026-04-12T14:41:24.523Z</time></trkpt><trkpt lat="40.7872089" lon="9.5640487"><ele>131.0</ele><time>2026-04-12T14:41:25.52Z</time></trkpt><trkpt lat="40.7873436" lon="9.5642323"><ele>131.0</ele><time>2026-04-12T14:41:26.531Z</time></trkpt><trkpt lat="40.7874763" lon="9.5644218"><ele>131.0</ele><time>2026-04-12T14:41:27.528Z</time></trkpt><trkpt lat="40.7876073" lon="9.5646116"><ele>131.0</ele><time>2026-04-12T14:41:28.52Z</time></trkpt><trkpt lat="40.7877353" lon="9.5648029"><ele>131.0</ele><time>2026-04-12T14:41:29.524Z</time></trkpt><trkpt lat="40.7878529" lon="9.5649828"><ele>131.0</ele><time>2026-04-12T14:41:30.53Z</time></trkpt><trkpt lat="40.7879658" lon="9.5651474"><ele>131.0</ele><time>2026-04-12T14:41:31.521Z</time></trkpt><trkpt lat="40.7880735" lon="9.5653019"><ele>131.5</ele><time>2026-04-12T14:41:32.523Z</time></trkpt><trkpt lat="40.7881872" lon="9.5654307"><ele>132.0</ele><time>2026-04-12T14:41:33.534Z</time></trkpt><trkpt lat="40.7883104" lon="9.5655281"><ele>132.5</ele><time>2026-04-12T14:41:34.531Z</time></trkpt><trkpt lat="40.7884524" lon="9.5655977"><ele>133.0</ele><time>2026-04-12T14:41:35.531Z</time></trkpt><trkpt lat="40.7886033" lon="9.5656574"><ele>133.33333333333334</ele><time>2026-04-12T14:41:36.523Z</time></trkpt><trkpt lat="40.7887616" lon="9.5657044"><ele>133.66666666666666</ele><time>2026-04-12T14:41:37.53Z</time></trkpt><trkpt lat="40.7889206" lon="9.565751"><ele>134.0</ele><time>2026-04-12T14:41:38.52Z</time></trkpt><trkpt lat="40.7890693" lon="9.565818"><ele>134.0</ele><time>2026-04-12T14:41:39.521Z</time></trkpt><trkpt lat="40.7892014" lon="9.5659254"><ele>134.0</ele><time>2026-04-12T14:41:40.518Z</time></trkpt><trkpt lat="40.7893165" lon="9.5660674"><ele>134.0</ele><time>2026-04-12T14:41:41.52Z</time></trkpt><trkpt lat="40.7894221" lon="9.5662383"><ele>135.66666666666666</ele><time>2026-04-12T14:41:42.519Z</time></trkpt><trkpt lat="40.7895223" lon="9.5664213"><ele>137.33333333333334</ele><time>2026-04-12T14:41:43.521Z</time></trkpt><trkpt lat="40.7896255" lon="9.566604"><ele>139.0</ele><time>2026-04-12T14:41:44.526Z</time></trkpt><trkpt lat="40.7897284" lon="9.5667827"><ele>139.0</ele><time>2026-04-12T14:41:45.526Z</time></trkpt><trkpt lat="40.7898312" lon="9.5669576"><ele>139.0</ele><time>2026-04-12T14:41:46.519Z</time></trkpt><trkpt lat="40.7899331" lon="9.5671257"><ele>139.0</ele><time>2026-04-12T14:41:47.512Z</time></trkpt><trkpt lat="40.790034" lon="9.5672918"><ele>139.0</ele><time>2026-04-12T14:41:48.52Z</time></trkpt><trkpt lat="40.7901301" lon="9.5674522"><ele>139.0</ele><time>2026-04-12T14:41:49.523Z</time></trkpt><trkpt lat="40.7902237" lon="9.5676138"><ele>139.0</ele><time>2026-04-12T14:41:50.514Z</time></trkpt><trkpt lat="40.7903123" lon="9.5677849"><ele>140.66666666666669</ele><time>2026-04-12T14:41:51.628Z</time></trkpt><trkpt lat="40.7903825" lon="9.567968"><ele>142.33333333333334</ele><time>2026-04-12T14:41:52.627Z</time></trkpt><trkpt lat="40.7904435" lon="9.5681617"><ele>144.0</ele><time>2026-04-12T14:41:53.619Z</time></trkpt><trkpt lat="40.7904977" lon="9.5683564"><ele>144.0</ele><time>2026-04-12T14:41:54.618Z</time></trkpt><trkpt lat="40.790553" lon="9.5685529"><ele>144.0</ele><time>2026-04-12T14:41:55.613Z</time></trkpt><trkpt lat="40.7906122" lon="9.5687491"><ele>144.0</ele><time>2026-04-12T14:41:56.622Z</time></trkpt><trkpt lat="40.7906715" lon="9.5689462"><ele>143.33333333333334</ele><time>2026-04-12T14:41:57.626Z</time></trkpt><trkpt lat="40.7907338" lon="9.5691423"><ele>142.66666666666669</ele><time>2026-04-12T14:41:58.613Z</time></trkpt><trkpt lat="40.7907937" lon="9.5693358"><ele>142.0</ele><time>2026-04-12T14:41:59.617Z</time></trkpt><trkpt lat="40.7908557" lon="9.569539"><ele>142.0</ele><time>2026-04-12T14:42:00.626Z</time></trkpt><trkpt lat="40.7909182" lon="9.5697416"><ele>142.0</ele><time>2026-04-12T14:42:01.624Z</time></trkpt><trkpt lat="40.7909786" lon="9.569948"><ele>142.0</ele><time>2026-04-12T14:42:02.619Z</time></trkpt><trkpt lat="40.791038" lon="9.5701581"><ele>145.33333333333334</ele><time>2026-04-12T14:42:03.613Z</time></trkpt><trkpt lat="40.7910914" lon="9.5703744"><ele>148.66666666666666</ele><time>2026-04-12T14:42:04.611Z</time></trkpt><trkpt lat="40.7911438" lon="9.5705912"><ele>152.0</ele><time>2026-04-12T14:42:05.621Z</time></trkpt><trkpt lat="40.7911885" lon="9.5707947"><ele>152.0</ele><time>2026-04-12T14:42:06.616Z</time></trkpt><trkpt lat="40.7912322" lon="9.5709838"><ele>152.0</ele><time>2026-04-12T14:42:07.616Z</time></trkpt><trkpt lat="40.7912603" lon="9.5711523"><ele>152.0</ele><time>2026-04-12T14:42:08.624Z</time></trkpt><trkpt lat="40.791264" lon="9.5713102"><ele>152.0</ele><time>2026-04-12T14:42:09.615Z</time></trkpt><trkpt lat="40.7912366" lon="9.5714597"><ele>152.25</ele><time>2026-04-12T14:42:10.609Z</time></trkpt><trkpt lat="40.7911765" lon="9.5715961"><ele>152.5</ele><time>2026-04-12T14:42:11.613Z</time></trkpt><trkpt lat="40.7910803" lon="9.5717043"><ele>152.75</ele><time>2026-04-12T14:42:12.61Z</time></trkpt><trkpt lat="40.7909873" lon="9.5718063"><ele>153.0</ele><time>2026-04-12T14:42:13.61Z</time></trkpt><trkpt lat="40.7909022" lon="9.5719296"><ele>155.5</ele><time>2026-04-12T14:42:14.614Z</time></trkpt><trkpt lat="40.7908469" lon="9.5720757"><ele>158.0</ele><time>2026-04-12T14:42:15.632Z</time></trkpt><trkpt lat="40.790815" lon="9.5722286"><ele>160.5</ele><time>2026-04-12T14:42:16.621Z</time></trkpt><trkpt lat="40.7908031" lon="9.5723957"><ele>163.0</ele><time>2026-04-12T14:42:17.608Z</time></trkpt><trkpt lat="40.790795" lon="9.5725694"><ele>163.0</ele><time>2026-04-12T14:42:18.615Z</time></trkpt><trkpt lat="40.7907908" lon="9.5727444"><ele>163.0</ele><time>2026-04-12T14:42:19.612Z</time></trkpt><trkpt lat="40.7907829" lon="9.5729251"><ele>163.0</ele><time>2026-04-12T14:42:20.617Z</time></trkpt><trkpt lat="40.7907778" lon="9.5731115"><ele>163.0</ele><time>2026-04-12T14:42:21.61Z</time></trkpt><trkpt lat="40.7907658" lon="9.573303"><ele>164.25</ele><time>2026-04-12T14:42:22.623Z</time></trkpt><trkpt lat="40.7907498" lon="9.5734921"><ele>165.5</ele><time>2026-04-12T14:42:23.61Z</time></trkpt><trkpt lat="40.7907367" lon="9.5736844"><ele>166.75</ele><time>2026-04-12T14:42:24.609Z</time></trkpt><trkpt lat="40.7907362" lon="9.5738879"><ele>168.0</ele><time>2026-04-12T14:42:25.609Z</time></trkpt><trkpt lat="40.790756" lon="9.5740876"><ele>168.33333333333334</ele><time>2026-04-12T14:42:26.609Z</time></trkpt><trkpt lat="40.7907935" lon="9.574287"><ele>168.66666666666669</ele><time>2026-04-12T14:42:27.626Z</time></trkpt><trkpt lat="40.7908461" lon="9.5744841"><ele>169.0</ele><time>2026-04-12T14:42:28.624Z</time></trkpt><trkpt lat="40.7909072" lon="9.5746753"><ele>170.0</ele><time>2026-04-12T14:42:29.608Z</time></trkpt><trkpt lat="40.7909687" lon="9.5748694"><ele>171.0</ele><time>2026-04-12T14:42:30.609Z</time></trkpt><trkpt lat="40.7910249" lon="9.5750695"><ele>172.0</ele><time>2026-04-12T14:42:31.614Z</time></trkpt><trkpt lat="40.7910684" lon="9.5752766"><ele>177.5</ele><time>2026-04-12T14:42:32.606Z</time></trkpt><trkpt lat="40.791093" lon="9.5754856"><ele>183.0</ele><time>2026-04-12T14:42:33.609Z</time></trkpt><trkpt lat="40.7911118" lon="9.5756788"><ele>188.5</ele><time>2026-04-12T14:42:34.609Z</time></trkpt><trkpt lat="40.791118" lon="9.5758466"><ele>194.0</ele><time>2026-04-12T14:42:35.607Z</time></trkpt><trkpt lat="40.7911084" lon="9.5760091"><ele>194.0</ele><time>2026-04-12T14:42:36.605Z</time></trkpt><trkpt lat="40.791065" lon="9.5761701"><ele>194.0</ele><time>2026-04-12T14:42:37.625Z</time></trkpt><trkpt lat="40.7910048" lon="9.5763313"><ele>194.0</ele><time>2026-04-12T14:42:38.606Z</time></trkpt><trkpt lat="40.7909594" lon="9.5765053"><ele>194.0</ele><time>2026-04-12T14:42:39.608Z</time></trkpt><trkpt lat="40.7909433" lon="9.5766899"><ele>195.0</ele><time>2026-04-12T14:42:40.611Z</time></trkpt><trkpt lat="40.790952" lon="9.5768688"><ele>196.0</ele><time>2026-04-12T14:42:41.613Z</time></trkpt><trkpt lat="40.7909839" lon="9.5770497"><ele>197.0</ele><time>2026-04-12T14:42:42.615Z</time></trkpt><trkpt lat="40.7910401" lon="9.5772247"><ele>198.0</ele><time>2026-04-12T14:42:43.612Z</time></trkpt><trkpt lat="40.7911058" lon="9.5773941"><ele>198.0</ele><time>2026-04-12T14:42:44.617Z</time></trkpt><trkpt lat="40.7911822" lon="9.577564"><ele>198.0</ele><time>2026-04-12T14:42:45.62Z</time></trkpt><trkpt lat="40.7912621" lon="9.5777317"><ele>198.0</ele><time>2026-04-12T14:42:46.611Z</time></trkpt><trkpt lat="40.791328" lon="9.5779046"><ele>198.0</ele><time>2026-04-12T14:42:47.61Z</time></trkpt><trkpt lat="40.7913556" lon="9.5780831"><ele>199.0</ele><time>2026-04-12T14:42:48.611Z</time></trkpt><trkpt lat="40.7913481" lon="9.5782704"><ele>200.0</ele><time>2026-04-12T14:42:49.609Z</time></trkpt><trkpt lat="40.7913248" lon="9.5784593"><ele>201.0</ele><time>2026-04-12T14:42:50.618Z</time></trkpt><trkpt lat="40.7912945" lon="9.5786531"><ele>202.0</ele><time>2026-04-12T14:42:51.612Z</time></trkpt><trkpt lat="40.7912726" lon="9.5788482"><ele>204.0</ele><time>2026-04-12T14:42:52.611Z</time></trkpt><trkpt lat="40.7912542" lon="9.5790521"><ele>206.0</ele><time>2026-04-12T14:42:53.603Z</time></trkpt><trkpt lat="40.791239" lon="9.5792569"><ele>208.0</ele><time>2026-04-12T14:42:54.615Z</time></trkpt><trkpt lat="40.7912261" lon="9.579465"><ele>209.33333333333331</ele><time>2026-04-12T14:42:55.61Z</time></trkpt><trkpt lat="40.7912145" lon="9.579675"><ele>210.66666666666669</ele><time>2026-04-12T14:42:56.606Z</time></trkpt><trkpt lat="40.7912017" lon="9.5798875"><ele>212.0</ele><time>2026-04-12T14:42:57.612Z</time></trkpt><trkpt lat="40.7911926" lon="9.5801044"><ele>212.0</ele><time>2026-04-12T14:42:58.607Z</time></trkpt><trkpt lat="40.7911875" lon="9.5803215"><ele>212.0</ele><time>2026-04-12T14:42:59.603Z</time></trkpt><trkpt lat="40.7911886" lon="9.5805432"><ele>212.0</ele><time>2026-04-12T14:43:00.612Z</time></trkpt><trkpt lat="40.7911972" lon="9.5807648"><ele>212.33333333333334</ele><time>2026-04-12T14:43:01.629Z</time></trkpt><trkpt lat="40.7912157" lon="9.5809888"><ele>212.66666666666669</ele><time>2026-04-12T14:43:02.611Z</time></trkpt><trkpt lat="40.7912258" lon="9.581215"><ele>213.0</ele><time>2026-04-12T14:43:03.608Z</time></trkpt><trkpt lat="40.7912098" lon="9.5814427"><ele>215.66666666666669</ele><time>2026-04-12T14:43:04.607Z</time></trkpt><trkpt lat="40.7911813" lon="9.5816646"><ele>218.33333333333334</ele><time>2026-04-12T14:43:05.609Z</time></trkpt><trkpt lat="40.7911551" lon="9.5818642"><ele>221.0</ele><time>2026-04-12T14:43:06.617Z</time></trkpt><trkpt lat="40.7911212" lon="9.5820324"><ele>220.25</ele><time>2026-04-12T14:43:07.61Z</time></trkpt><trkpt lat="40.7910566" lon="9.582177"><ele>219.5</ele><time>2026-04-12T14:43:08.608Z</time></trkpt><trkpt lat="40.7909718" lon="9.5822935"><ele>218.75</ele><time>2026-04-12T14:43:09.617Z</time></trkpt><trkpt lat="40.7908656" lon="9.5823759"><ele>218.0</ele><time>2026-04-12T14:43:10.613Z</time></trkpt><trkpt lat="40.7907445" lon="9.5824491"><ele>218.0</ele><time>2026-04-12T14:43:11.608Z</time></trkpt><trkpt lat="40.7906245" lon="9.5825235"><ele>218.0</ele><time>2026-04-12T14:43:12.611Z</time></trkpt><trkpt lat="40.7904989" lon="9.5826065"><ele>218.0</ele><time>2026-04-12T14:43:13.609Z</time></trkpt><trkpt lat="40.7903706" lon="9.582694"><ele>218.0</ele><time>2026-04-12T14:43:14.616Z</time></trkpt><trkpt lat="40.790233" lon="9.5827762"><ele>220.33333333333334</ele><time>2026-04-12T14:43:15.607Z</time></trkpt><trkpt lat="40.79009" lon="9.5828483"><ele>222.66666666666669</ele><time>2026-04-12T14:43:16.612Z</time></trkpt><trkpt lat="40.789939" lon="9.582912"><ele>225.0</ele><time>2026-04-12T14:43:17.611Z</time></trkpt><trkpt lat="40.789783" lon="9.5829732"><ele>225.0</ele><time>2026-04-12T14:43:18.607Z</time></trkpt><trkpt lat="40.7896238" lon="9.5830388"><ele>225.0</ele><time>2026-04-12T14:43:19.603Z</time></trkpt><trkpt lat="40.7894609" lon="9.5831094"><ele>225.0</ele><time>2026-04-12T14:43:20.625Z</time></trkpt><trkpt lat="40.789297" lon="9.5831823"><ele>226.33333333333331</ele><time>2026-04-12T14:43:21.61Z</time></trkpt><trkpt lat="40.7891333" lon="9.583256"><ele>227.66666666666666</ele><time>2026-04-12T14:43:22.619Z</time></trkpt><trkpt lat="40.7889795" lon="9.5833245"><ele>229.0</ele><time>2026-04-12T14:43:23.613Z</time></trkpt><trkpt lat="40.7888403" lon="9.5833817"><ele>229.0</ele><time>2026-04-12T14:43:24.61Z</time></trkpt><trkpt lat="40.7887212" lon="9.5834496"><ele>229.0</ele><time>2026-04-12T14:43:25.609Z</time></trkpt><trkpt lat="40.7886121" lon="9.583527"><ele>229.0</ele><time>2026-04-12T14:43:26.603Z</time></trkpt><trkpt lat="40.7885189" lon="9.5836365"><ele>229.0</ele><time>2026-04-12T14:43:27.629Z</time></trkpt><trkpt lat="40.7884519" lon="9.5837682"><ele>228.5</ele><time>2026-04-12T14:43:28.61Z</time></trkpt><trkpt lat="40.7884161" lon="9.5839149"><ele>228.0</ele><time>2026-04-12T14:43:29.615Z</time></trkpt><trkpt lat="40.7884084" lon="9.5840745"><ele>227.5</ele><time>2026-04-12T14:43:30.615Z</time></trkpt><trkpt lat="40.7884291" lon="9.5842578"><ele>227.0</ele><time>2026-04-12T14:43:31.607Z</time></trkpt><trkpt lat="40.7884726" lon="9.5844497"><ele>231.33333333333334</ele><time>2026-04-12T14:43:32.607Z</time></trkpt><trkpt lat="40.7885196" lon="9.5846557"><ele>235.66666666666669</ele><time>2026-04-12T14:43:33.613Z</time></trkpt><trkpt lat="40.7885723" lon="9.5848718"><ele>240.0</ele><time>2026-04-12T14:43:34.608Z</time></trkpt><trkpt lat="40.7886115" lon="9.5851009"><ele>240.0</ele><time>2026-04-12T14:43:35.599Z</time></trkpt><trkpt lat="40.7886325" lon="9.5853102"><ele>240.0</ele><time>2026-04-12T14:43:36.61Z</time></trkpt><trkpt lat="40.7886422" lon="9.5855186"><ele>240.0</ele><time>2026-04-12T14:43:37.626Z</time></trkpt><trkpt lat="40.7886742" lon="9.5857206"><ele>237.33333333333331</ele><time>2026-04-12T14:43:38.61Z</time></trkpt><trkpt lat="40.7887523" lon="9.5859246"><ele>234.66666666666666</ele><time>2026-04-12T14:43:39.606Z</time></trkpt><trkpt lat="40.7888434" lon="9.5861414"><ele>232.0</ele><time>2026-04-12T14:43:40.62Z</time></trkpt><trkpt lat="40.7889398" lon="9.5863684"><ele>227.33333333333331</ele><time>2026-04-12T14:43:41.606Z</time></trkpt><trkpt lat="40.789035" lon="9.5865912"><ele>222.66666666666669</ele><time>2026-04-12T14:43:42.608Z</time></trkpt><trkpt lat="40.7891363" lon="9.5867888"><ele>218.0</ele><time>2026-04-12T14:43:43.611Z</time></trkpt><trkpt lat="40.7892313" lon="9.586978"><ele>218.25</ele><time>2026-04-12T14:43:44.606Z</time></trkpt><trkpt lat="40.7892908" lon="9.5871745"><ele>218.5</ele><time>2026-04-12T14:43:45.608Z</time></trkpt><trkpt lat="40.7893258" lon="9.5873451"><ele>218.75</ele><time>2026-04-12T14:43:46.605Z</time></trkpt><trkpt lat="40.7893715" lon="9.5874819"><ele>219.0</ele><time>2026-04-12T14:43:47.611Z</time></trkpt><trkpt lat="40.7894362" lon="9.5875958"><ele>219.0</ele><time>2026-04-12T14:43:48.604Z</time></trkpt><trkpt lat="40.7895294" lon="9.5876762"><ele>219.0</ele><time>2026-04-12T14:43:49.615Z</time></trkpt><trkpt lat="40.7896524" lon="9.5877187"><ele>219.0</ele><time>2026-04-12T14:43:50.608Z</time></trkpt><trkpt lat="40.7897846" lon="9.5877317"><ele>219.0</ele><time>2026-04-12T14:43:51.612Z</time></trkpt><trkpt lat="40.7899194" lon="9.5877349"><ele>219.0</ele><time>2026-04-12T14:43:52.614Z</time></trkpt><trkpt lat="40.7900482" lon="9.5877572"><ele>219.0</ele><time>2026-04-12T14:43:53.601Z</time></trkpt><trkpt lat="40.7901766" lon="9.5878121"><ele>219.0</ele><time>2026-04-12T14:43:54.602Z</time></trkpt><trkpt lat="40.7902981" lon="9.5879046"><ele>219.0</ele><time>2026-04-12T14:43:55.612Z</time></trkpt><trkpt lat="40.790424" lon="9.588041"><ele>213.66666666666669</ele><time>2026-04-12T14:43:56.599Z</time></trkpt><trkpt lat="40.7905621" lon="9.5881801"><ele>208.33333333333334</ele><time>2026-04-12T14:43:57.61Z</time></trkpt><trkpt lat="40.7907177" lon="9.5883063"><ele>203.0</ele><time>2026-04-12T14:43:58.605Z</time></trkpt><trkpt lat="40.7908803" lon="9.5884257"><ele>206.66666666666669</ele><time>2026-04-12T14:43:59.61Z</time></trkpt><trkpt lat="40.7910356" lon="9.5885501"><ele>210.33333333333331</ele><time>2026-04-12T14:44:00.611Z</time></trkpt><trkpt lat="40.7911815" lon="9.5886772"><ele>214.0</ele><time>2026-04-12T14:44:01.606Z</time></trkpt><trkpt lat="40.7913172" lon="9.5888025"><ele>206.33333333333331</ele><time>2026-04-12T14:44:02.601Z</time></trkpt><trkpt lat="40.7914665" lon="9.5888993"><ele>198.66666666666666</ele><time>2026-04-12T14:44:03.604Z</time></trkpt><trkpt lat="40.7916292" lon="9.5889634"><ele>191.0</ele><time>2026-04-12T14:44:04.608Z</time></trkpt><trkpt lat="40.7917948" lon="9.5890153"><ele>193.33333333333331</ele><time>2026-04-12T14:44:05.609Z</time></trkpt><trkpt lat="40.7919481" lon="9.589071"><ele>195.66666666666666</ele><time>2026-04-12T14:44:06.605Z</time></trkpt><trkpt lat="40.7920805" lon="9.5891597"><ele>198.0</ele><time>2026-04-12T14:44:07.605Z</time></trkpt><trkpt lat="40.7921968" lon="9.5892787"><ele>198.0</ele><time>2026-04-12T14:44:08.611Z</time></trkpt><trkpt lat="40.7922906" lon="9.5894174"><ele>198.0</ele><time>2026-04-12T14:44:09.599Z</time></trkpt><trkpt lat="40.7923621" lon="9.5895587"><ele>198.0</ele><time>2026-04-12T14:44:10.603Z</time></trkpt><trkpt lat="40.7924169" lon="9.589699"><ele>198.0</ele><time>2026-04-12T14:44:11.609Z</time></trkpt><trkpt lat="40.792466" lon="9.5898365"><ele>198.60000000000002</ele><time>2026-04-12T14:44:12.604Z</time></trkpt><trkpt lat="40.7925038" lon="9.589968"><ele>199.20000000000002</ele><time>2026-04-12T14:44:13.606Z</time></trkpt><trkpt lat="40.7925461" lon="9.5900683"><ele>199.8</ele><time>2026-04-12T14:44:14.6Z</time></trkpt><trkpt lat="40.7925986" lon="9.5901543"><ele>200.4</ele><time>2026-04-12T14:44:15.602Z</time></trkpt><trkpt lat="40.7926693" lon="9.5902244"><ele>201.0</ele><time>2026-04-12T14:44:16.607Z</time></trkpt><trkpt lat="40.7927478" lon="9.5902911"><ele>200.4</ele><time>2026-04-12T14:44:17.613Z</time></trkpt><trkpt lat="40.7928249" lon="9.5903665"><ele>199.8</ele><time>2026-04-12T14:44:18.606Z</time></trkpt><trkpt lat="40.7928943" lon="9.5904563"><ele>199.20000000000002</ele><time>2026-04-12T14:44:19.601Z</time></trkpt><trkpt lat="40.7929584" lon="9.5905586"><ele>198.60000000000002</ele><time>2026-04-12T14:44:20.603Z</time></trkpt><trkpt lat="40.7930183" lon="9.5906715"><ele>198.0</ele><time>2026-04-12T14:44:21.608Z</time></trkpt><trkpt lat="40.7930783" lon="9.5907843"><ele>198.0</ele><time>2026-04-12T14:44:22.604Z</time></trkpt><trkpt lat="40.7931344" lon="9.5908966"><ele>198.0</ele><time>2026-04-12T14:44:23.604Z</time></trkpt><trkpt lat="40.7931875" lon="9.5910087"><ele>198.0</ele><time>2026-04-12T14:44:24.601Z</time></trkpt><trkpt lat="40.7932429" lon="9.5911219"><ele>198.0</ele><time>2026-04-12T14:44:25.607Z</time></trkpt><trkpt lat="40.793298" lon="9.5912407"><ele>198.0</ele><time>2026-04-12T14:44:26.603Z</time></trkpt><trkpt lat="40.7933537" lon="9.5913674"><ele>198.75</ele><time>2026-04-12T14:44:27.598Z</time></trkpt><trkpt lat="40.7934157" lon="9.5914918"><ele>199.5</ele><time>2026-04-12T14:44:28.605Z</time></trkpt><trkpt lat="40.7934925" lon="9.5915966"><ele>200.25</ele><time>2026-04-12T14:44:29.603Z</time></trkpt><trkpt lat="40.7935872" lon="9.5916833"><ele>201.0</ele><time>2026-04-12T14:44:30.603Z</time></trkpt><trkpt lat="40.7936926" lon="9.591753"><ele>201.0</ele><time>2026-04-12T14:44:31.602Z</time></trkpt><trkpt lat="40.7938056" lon="9.591825"><ele>201.0</ele><time>2026-04-12T14:44:32.607Z</time></trkpt><trkpt lat="40.7939223" lon="9.5918917"><ele>201.0</ele><time>2026-04-12T14:44:33.6Z</time></trkpt><trkpt lat="40.7940362" lon="9.5919496"><ele>201.0</ele><time>2026-04-12T14:44:34.596Z</time></trkpt><trkpt lat="40.7941544" lon="9.5919897"><ele>202.0</ele><time>2026-04-12T14:44:35.609Z</time></trkpt><trkpt lat="40.7942829" lon="9.5920119"><ele>203.0</ele><time>2026-04-12T14:44:36.601Z</time></trkpt><trkpt lat="40.7944144" lon="9.5920071"><ele>204.0</ele><time>2026-04-12T14:44:37.601Z</time></trkpt><trkpt lat="40.7945482" lon="9.5919852"><ele>205.0</ele><time>2026-04-12T14:44:38.597Z</time></trkpt><trkpt lat="40.7946871" lon="9.5919489"><ele>205.0</ele><time>2026-04-12T14:44:39.609Z</time></trkpt><trkpt lat="40.7948298" lon="9.5919078"><ele>205.0</ele><time>2026-04-12T14:44:40.601Z</time></trkpt><trkpt lat="40.7949737" lon="9.5918674"><ele>205.0</ele><time>2026-04-12T14:44:41.603Z</time></trkpt><trkpt lat="40.7951221" lon="9.5918324"><ele>205.0</ele><time>2026-04-12T14:44:42.606Z</time></trkpt><trkpt lat="40.7952648" lon="9.5918037"><ele>204.0</ele><time>2026-04-12T14:44:43.603Z</time></trkpt><trkpt lat="40.7953963" lon="9.5917909"><ele>203.0</ele><time>2026-04-12T14:44:44.602Z</time></trkpt><trkpt lat="40.7955167" lon="9.5917898"><ele>202.0</ele><time>2026-04-12T14:44:45.615Z</time></trkpt><trkpt lat="40.7956369" lon="9.5918012"><ele>201.0</ele><time>2026-04-12T14:44:46.601Z</time></trkpt><trkpt lat="40.7957664" lon="9.5918312"><ele>201.0</ele><time>2026-04-12T14:44:47.599Z</time></trkpt><trkpt lat="40.7959077" lon="9.5918745"><ele>201.0</ele><time>2026-04-12T14:44:48.604Z</time></trkpt><trkpt lat="40.7960579" lon="9.5918995"><ele>201.0</ele><time>2026-04-12T14:44:49.597Z</time></trkpt><trkpt lat="40.7962128" lon="9.5919012"><ele>200.75</ele><time>2026-04-12T14:44:50.595Z</time></trkpt><trkpt lat="40.7963679" lon="9.5918964"><ele>200.5</ele><time>2026-04-12T14:44:51.603Z</time></trkpt><trkpt lat="40.796516" lon="9.5918783"><ele>200.25</ele><time>2026-04-12T14:44:52.607Z</time></trkpt><trkpt lat="40.7966595" lon="9.5918458"><ele>200.0</ele><time>2026-04-12T14:44:53.608Z</time></trkpt><trkpt lat="40.7968046" lon="9.5917815"><ele>199.0</ele><time>2026-04-12T14:44:54.597Z</time></trkpt><trkpt lat="40.7969426" lon="9.591705"><ele>198.0</ele><time>2026-04-12T14:44:55.6Z</time></trkpt><trkpt lat="40.7970788" lon="9.591638"><ele>197.0</ele><time>2026-04-12T14:44:56.608Z</time></trkpt><trkpt lat="40.7972242" lon="9.5915759"><ele>196.0</ele><time>2026-04-12T14:44:57.598Z</time></trkpt><trkpt lat="40.7973671" lon="9.5915146"><ele>196.0</ele><time>2026-04-12T14:44:58.6Z</time></trkpt><trkpt lat="40.7975076" lon="9.5914629"><ele>196.0</ele><time>2026-04-12T14:44:59.62Z</time></trkpt><trkpt lat="40.797648" lon="9.591424"><ele>196.0</ele><time>2026-04-12T14:45:00.604Z</time></trkpt><trkpt lat="40.7977953" lon="9.5914174"><ele>196.0</ele><time>2026-04-12T14:45:01.601Z</time></trkpt><trkpt lat="40.797945" lon="9.5914452"><ele>191.33333333333331</ele><time>2026-04-12T14:45:02.603Z</time></trkpt><trkpt lat="40.798101" lon="9.5914944"><ele>186.66666666666666</ele><time>2026-04-12T14:45:03.618Z</time></trkpt><trkpt lat="40.798251" lon="9.5915641"><ele>182.0</ele><time>2026-04-12T14:45:04.607Z</time></trkpt><trkpt lat="40.7984009" lon="9.5916429"><ele>180.0</ele><time>2026-04-12T14:45:05.599Z</time></trkpt><trkpt lat="40.7985467" lon="9.5917286"><ele>178.0</ele><time>2026-04-12T14:45:06.608Z</time></trkpt><trkpt lat="40.7987" lon="9.591809"><ele>176.0</ele><time>2026-04-12T14:45:07.604Z</time></trkpt><trkpt lat="40.7988573" lon="9.5918909"><ele>176.0</ele><time>2026-04-12T14:45:08.599Z</time></trkpt><trkpt lat="40.7990198" lon="9.5919821"><ele>176.0</ele><time>2026-04-12T14:45:09.601Z</time></trkpt><trkpt lat="40.7991796" lon="9.592079"><ele>176.0</ele><time>2026-04-12T14:45:10.602Z</time></trkpt><trkpt lat="40.7993366" lon="9.5921835"><ele>174.66666666666666</ele><time>2026-04-12T14:45:11.611Z</time></trkpt><trkpt lat="40.7994903" lon="9.5922868"><ele>173.33333333333334</ele><time>2026-04-12T14:45:12.598Z</time></trkpt><trkpt lat="40.7996394" lon="9.5923899"><ele>172.0</ele><time>2026-04-12T14:45:13.604Z</time></trkpt><trkpt lat="40.7997781" lon="9.5924788"><ele>172.0</ele><time>2026-04-12T14:45:14.598Z</time></trkpt><trkpt lat="40.7999019" lon="9.5925569"><ele>172.0</ele><time>2026-04-12T14:45:15.601Z</time></trkpt><trkpt lat="40.8000108" lon="9.5926256"><ele>172.0</ele><time>2026-04-12T14:45:16.62Z</time></trkpt><trkpt lat="40.8001073" lon="9.5926907"><ele>172.0</ele><time>2026-04-12T14:45:17.618Z</time></trkpt><trkpt lat="40.80019" lon="9.5927475"><ele>172.0</ele><time>2026-04-12T14:45:18.597Z</time></trkpt><trkpt lat="40.8002567" lon="9.5927961"><ele>172.0</ele><time>2026-04-12T14:45:19.609Z</time></trkpt><trkpt lat="40.8003325" lon="9.5928779"><ele>172.0</ele><time>2026-04-12T14:45:21.613Z</time></trkpt><trkpt lat="40.8002742" lon="9.5929241"><ele>172.0</ele><time>2026-04-12T14:45:24.601Z</time></trkpt><trkpt lat="40.8001784" lon="9.5928692"><ele>172.0</ele><time>2026-04-12T14:45:26.6Z</time></trkpt><trkpt lat="40.8001198" lon="9.5928346"><ele>172.0</ele><time>2026-04-12T14:45:27.601Z</time></trkpt><trkpt lat="40.8000501" lon="9.5928005"><ele>172.0</ele><time>2026-04-12T14:45:28.596Z</time></trkpt><trkpt lat="40.7999816" lon="9.5927765"><ele>172.0</ele><time>2026-04-12T14:45:29.607Z</time></trkpt><trkpt lat="40.7999183" lon="9.5927625"><ele>172.0</ele><time>2026-04-12T14:45:30.593Z</time></trkpt><trkpt lat="40.7998253" lon="9.5927439"><ele>172.0</ele><time>2026-04-12T14:45:32.605Z</time></trkpt><trkpt lat="40.7997391" lon="9.5927273"><ele>172.0</ele><time>2026-04-12T14:45:34.589Z</time></trkpt><trkpt lat="40.7996607" lon="9.5927456"><ele>172.0</ele><time>2026-04-12T14:45:36.599Z</time></trkpt><trkpt lat="40.7995913" lon="9.5928174"><ele>172.66666666666669</ele><time>2026-04-12T14:45:38.609Z</time></trkpt><trkpt lat="40.7995109" lon="9.5929391"><ele>173.33333333333334</ele><time>2026-04-12T14:45:40.59Z</time></trkpt><trkpt lat="40.7994664" lon="9.5930059"><ele>174.0</ele><time>2026-04-12T14:45:41.604Z</time></trkpt><trkpt lat="40.7994114" lon="9.5930825"><ele>174.66666666666666</ele><time>2026-04-12T14:45:42.605Z</time></trkpt><trkpt lat="40.799348" lon="9.5931724"><ele>175.33333333333331</ele><time>2026-04-12T14:45:43.6Z</time></trkpt><trkpt lat="40.7992922" lon="9.5932585"><ele>176.0</ele><time>2026-04-12T14:45:44.59Z</time></trkpt><trkpt lat="40.7992377" lon="9.5933377"><ele>176.0</ele><time>2026-04-12T14:45:45.605Z</time></trkpt><trkpt lat="40.7991796" lon="9.5934176"><ele>176.0</ele><time>2026-04-12T14:45:46.593Z</time></trkpt><trkpt lat="40.7991164" lon="9.5935053"><ele>176.0</ele><time>2026-04-12T14:45:47.589Z</time></trkpt><trkpt lat="40.7990524" lon="9.5935953"><ele>176.0</ele><time>2026-04-12T14:45:48.602Z</time></trkpt><trkpt lat="40.7989901" lon="9.5936837"><ele>176.0</ele><time>2026-04-12T14:45:49.592Z</time></trkpt><trkpt lat="40.7989284" lon="9.5937595"><ele>176.0</ele><time>2026-04-12T14:45:50.587Z</time></trkpt><trkpt lat="40.7988635" lon="9.5938333"><ele>177.33333333333331</ele><time>2026-04-12T14:45:51.606Z</time></trkpt><trkpt lat="40.7987956" lon="9.5939093"><ele>178.66666666666666</ele><time>2026-04-12T14:45:52.587Z</time></trkpt><trkpt lat="40.798728" lon="9.5939823"><ele>180.0</ele><time>2026-04-12T14:45:53.603Z</time></trkpt><trkpt lat="40.7986745" lon="9.5940458"><ele>181.33333333333334</ele><time>2026-04-12T14:45:54.598Z</time></trkpt><trkpt lat="40.7986373" lon="9.5941152"><ele>182.66666666666669</ele><time>2026-04-12T14:45:55.597Z</time></trkpt><trkpt lat="40.7986072" lon="9.5942015"><ele>184.0</ele><time>2026-04-12T14:45:56.612Z</time></trkpt><trkpt lat="40.7985741" lon="9.5942928"><ele>184.0</ele><time>2026-04-12T14:45:57.592Z</time></trkpt><trkpt lat="40.7985334" lon="9.5943853"><ele>184.0</ele><time>2026-04-12T14:45:58.594Z</time></trkpt><trkpt lat="40.79848" lon="9.5944881"><ele>184.0</ele><time>2026-04-12T14:45:59.583Z</time></trkpt><trkpt lat="40.7984253" lon="9.5946009"><ele>184.0</ele><time>2026-04-12T14:46:00.582Z</time></trkpt><trkpt lat="40.7983692" lon="9.5947056"><ele>184.0</ele><time>2026-04-12T14:46:01.588Z</time></trkpt><trkpt lat="40.798314" lon="9.5948035"><ele>184.79999999999998</ele><time>2026-04-12T14:46:02.59Z</time></trkpt><trkpt lat="40.7982573" lon="9.5948983"><ele>185.6</ele><time>2026-04-12T14:46:03.591Z</time></trkpt><trkpt lat="40.7981985" lon="9.595"><ele>186.4</ele><time>2026-04-12T14:46:04.584Z</time></trkpt><trkpt lat="40.7981451" lon="9.5951103"><ele>187.2</ele><time>2026-04-12T14:46:05.59Z</time></trkpt><trkpt lat="40.7980914" lon="9.5952199"><ele>188.0</ele><time>2026-04-12T14:46:06.583Z</time></trkpt><trkpt lat="40.7980419" lon="9.5953122"><ele>187.83333333333331</ele><time>2026-04-12T14:46:07.58Z</time></trkpt><trkpt lat="40.7980021" lon="9.5953892"><ele>187.66666666666666</ele><time>2026-04-12T14:46:08.59Z</time></trkpt><trkpt lat="40.7979496" lon="9.5955186"><ele>187.5</ele><time>2026-04-12T14:46:10.576Z</time></trkpt><trkpt lat="40.7979527" lon="9.5956145"><ele>187.33333333333334</ele><time>2026-04-12T14:46:12.581Z</time></trkpt><trkpt lat="40.7979889" lon="9.5957116"><ele>187.16666666666669</ele><time>2026-04-12T14:46:14.582Z</time></trkpt><trkpt lat="40.7979806" lon="9.5958409"><ele>187.0</ele><time>2026-04-12T14:46:16.581Z</time></trkpt><trkpt lat="40.7979873" lon="9.5959283"><ele>187.0</ele><time>2026-04-12T14:46:17.577Z</time></trkpt><trkpt lat="40.7980084" lon="9.5960069"><ele>187.0</ele><time>2026-04-12T14:46:18.586Z</time></trkpt><trkpt lat="40.7980876" lon="9.5961309"><ele>187.0</ele><time>2026-04-12T14:46:20.586Z</time></trkpt><trkpt lat="40.7981348" lon="9.5961952"><ele>187.0</ele><time>2026-04-12T14:46:21.584Z</time></trkpt><trkpt lat="40.7981808" lon="9.5962574"><ele>187.0</ele><time>2026-04-12T14:46:22.586Z</time></trkpt><trkpt lat="40.7982716" lon="9.5963227"><ele>187.0</ele><time>2026-04-12T14:46:24.57Z</time></trkpt><trkpt lat="40.7983511" lon="9.5963764"><ele>184.39999999999998</ele><time>2026-04-12T14:46:26.583Z</time></trkpt><trkpt lat="40.798385" lon="9.596507"><ele>181.79999999999998</ele><time>2026-04-12T14:46:28.577Z</time></trkpt><trkpt lat="40.7983579" lon="9.5966347"><ele>179.2</ele><time>2026-04-12T14:46:30.569Z</time></trkpt><trkpt lat="40.7982955" lon="9.5966893"><ele>176.6</ele><time>2026-04-12T14:46:32.575Z</time></trkpt><trkpt lat="40.7982152" lon="9.5966722"><ele>174.0</ele><time>2026-04-12T14:46:34.571Z</time></trkpt><trkpt lat="40.7981162" lon="9.5966589"><ele>174.0</ele><time>2026-04-12T14:46:36.577Z</time></trkpt><trkpt lat="40.7980531" lon="9.5966516"><ele>174.0</ele><time>2026-04-12T14:46:37.578Z</time></trkpt><trkpt lat="40.7979367" lon="9.5966392"><ele>174.0</ele><time>2026-04-12T14:46:39.57Z</time></trkpt><trkpt lat="40.7978283" lon="9.5965897"><ele>174.0</ele><time>2026-04-12T14:46:41.577Z</time></trkpt><trkpt lat="40.7977396" lon="9.5964894"><ele>174.0</ele><time>2026-04-12T14:46:43.57Z</time></trkpt><trkpt lat="40.7976687" lon="9.5963691"><ele>171.79999999999998</ele><time>2026-04-12T14:46:45.596Z</time></trkpt><trkpt lat="40.7975803" lon="9.5962729"><ele>169.6</ele><time>2026-04-12T14:46:47.573Z</time></trkpt><trkpt lat="40.7974956" lon="9.5962239"><ele>167.4</ele><time>2026-04-12T14:46:49.575Z</time></trkpt><trkpt lat="40.7974206" lon="9.5962274"><ele>165.2</ele><time>2026-04-12T14:46:51.566Z</time></trkpt><trkpt lat="40.7973571" lon="9.5963001"><ele>163.0</ele><time>2026-04-12T14:46:53.563Z</time></trkpt><trkpt lat="40.7973093" lon="9.5964111"><ele>163.0</ele><time>2026-04-12T14:46:55.564Z</time></trkpt><trkpt lat="40.7972695" lon="9.5965245"><ele>163.0</ele><time>2026-04-12T14:46:57.566Z</time></trkpt><trkpt lat="40.7972352" lon="9.5966519"><ele>163.0</ele><time>2026-04-12T14:46:59.559Z</time></trkpt><trkpt lat="40.7972067" lon="9.5967624"><ele>163.0</ele><time>2026-04-12T14:47:01.562Z</time></trkpt><trkpt lat="40.7971879" lon="9.5968683"><ele>163.0</ele><time>2026-04-12T14:47:03.569Z</time></trkpt><trkpt lat="40.7971683" lon="9.596987"><ele>161.4</ele><time>2026-04-12T14:47:05.566Z</time></trkpt><trkpt lat="40.7971109" lon="9.5971479"><ele>159.8</ele><time>2026-04-12T14:47:07.555Z</time></trkpt><trkpt lat="40.7970697" lon="9.5972314"><ele>158.2</ele><time>2026-04-12T14:47:08.574Z</time></trkpt><trkpt lat="40.7970421" lon="9.5973175"><ele>156.6</ele><time>2026-04-12T14:47:10.565Z</time></trkpt><trkpt lat="40.7970438" lon="9.597437"><ele>155.0</ele><time>2026-04-12T14:47:26.58Z</time></trkpt><trkpt lat="40.797064" lon="9.5975438"><ele>155.0</ele><time>2026-04-12T14:47:29.56Z</time></trkpt><trkpt lat="40.7970864" lon="9.5976384"><ele>155.0</ele><time>2026-04-12T14:47:32.553Z</time></trkpt><trkpt lat="40.7970832" lon="9.5977215"><ele>155.0</ele><time>2026-04-12T14:47:36.55Z</time></trkpt><trkpt lat="40.797103" lon="9.5978339"><ele>155.0</ele><time>2026-04-12T14:48:22.542Z</time></trkpt><trkpt lat="40.7971606" lon="9.5979225"><ele>155.0</ele><time>2026-04-12T14:48:24.545Z</time></trkpt><trkpt lat="40.797222" lon="9.5980412"><ele>155.0</ele><time>2026-04-12T14:48:26.553Z</time></trkpt><trkpt lat="40.7973042" lon="9.5981451"><ele>152.6</ele><time>2026-04-12T14:48:28.552Z</time></trkpt><trkpt lat="40.7973707" lon="9.5982415"><ele>150.2</ele><time>2026-04-12T14:48:30.543Z</time></trkpt><trkpt lat="40.7974232" lon="9.5983465"><ele>147.8</ele><time>2026-04-12T14:48:32.545Z</time></trkpt><trkpt lat="40.7974948" lon="9.5984683"><ele>145.4</ele><time>2026-04-12T14:48:34.542Z</time></trkpt><trkpt lat="40.7975703" lon="9.598586"><ele>143.0</ele><time>2026-04-12T14:48:36.538Z</time></trkpt><trkpt lat="40.797648" lon="9.598715"><ele>143.66666666666666</ele><time>2026-04-12T14:48:38.545Z</time></trkpt><trkpt lat="40.7977091" lon="9.5988291"><ele>144.33333333333331</ele><time>2026-04-12T14:48:40.539Z</time></trkpt><trkpt lat="40.7977482" lon="9.5989109"><ele>145.0</ele><time>2026-04-12T14:48:42.546Z</time></trkpt><trkpt lat="40.7977495" lon="9.5989992"><ele>145.66666666666666</ele><time>2026-04-12T14:48:45.532Z</time></trkpt><trkpt lat="40.7977421" lon="9.5990906"><ele>146.33333333333334</ele><time>2026-04-12T14:48:47.534Z</time></trkpt><trkpt lat="40.797722" lon="9.5991713"><ele>147.0</ele><time>2026-04-12T14:48:49.546Z</time></trkpt><trkpt lat="40.7977028" lon="9.5992633"><ele>147.0</ele><time>2026-04-12T14:48:52.534Z</time></trkpt><trkpt lat="40.7977531" lon="9.5993136"><ele>147.0</ele><time>2026-04-12T14:50:39.528Z</time></trkpt><trkpt lat="40.7978179" lon="9.5992738"><ele>147.0</ele><time>2026-04-12T14:50:42.536Z</time></trkpt><trkpt lat="40.7978895" lon="9.5992922"><ele>147.0</ele><time>2026-04-12T14:50:46.547Z</time></trkpt><trkpt lat="40.7979293" lon="9.599362"><ele>147.0</ele><time>2026-04-12T14:50:48.529Z</time></trkpt><trkpt lat="40.7979954" lon="9.5994336"><ele>147.0</ele><time>2026-04-12T14:50:50.536Z</time></trkpt><trkpt lat="40.798063" lon="9.5994907"><ele>147.0</ele><time>2026-04-12T14:50:52.524Z</time></trkpt><trkpt lat="40.7980954" lon="9.5995987"><ele>146.16666666666666</ele><time>2026-04-12T14:50:54.531Z</time></trkpt><trkpt lat="40.7981169" lon="9.5997551"><ele>145.33333333333334</ele><time>2026-04-12T14:50:56.529Z</time></trkpt><trkpt lat="40.7981278" lon="9.5998401"><ele>144.5</ele><time>2026-04-12T14:50:57.533Z</time></trkpt><trkpt lat="40.79814" lon="9.5999301"><ele>143.66666666666669</ele><time>2026-04-12T14:50:58.532Z</time></trkpt><trkpt lat="40.798155" lon="9.6000151"><ele>142.83333333333334</ele><time>2026-04-12T14:50:59.527Z</time></trkpt><trkpt lat="40.7981718" lon="9.6000958"><ele>142.0</ele><time>2026-04-12T14:51:00.527Z</time></trkpt><trkpt lat="40.7982106" lon="9.6002478"><ele>141.33333333333334</ele><time>2026-04-12T14:51:02.53Z</time></trkpt><trkpt lat="40.7982118" lon="9.6003702"><ele>140.66666666666669</ele><time>2026-04-12T14:51:04.529Z</time></trkpt><trkpt lat="40.7981726" lon="9.6004586"><ele>140.0</ele><time>2026-04-12T14:51:28.523Z</time></trkpt><trkpt lat="40.7981479" lon="9.6005482"><ele>139.33333333333334</ele><time>2026-04-12T14:51:32.522Z</time></trkpt><trkpt lat="40.798134" lon="9.6006297"><ele>138.66666666666666</ele><time>2026-04-12T14:51:39.521Z</time></trkpt><trkpt lat="40.7981042" lon="9.6007182"><ele>138.0</ele><time>2026-04-12T14:51:43.521Z</time></trkpt><trkpt lat="40.7980777" lon="9.6008431"><ele>138.0</ele><time>2026-04-12T14:52:10.615Z</time></trkpt><trkpt lat="40.7980659" lon="9.6009978"><ele>138.0</ele><time>2026-04-12T14:52:12.612Z</time></trkpt><trkpt lat="40.7980626" lon="9.6011658"><ele>138.0</ele><time>2026-04-12T14:52:14.609Z</time></trkpt><trkpt lat="40.798056" lon="9.6012541"><ele>138.0</ele><time>2026-04-12T14:52:15.607Z</time></trkpt><trkpt lat="40.7980441" lon="9.6013391"><ele>138.0</ele><time>2026-04-12T14:52:16.613Z</time></trkpt><trkpt lat="40.7980315" lon="9.6014275"><ele>138.0</ele><time>2026-04-12T14:52:17.606Z</time></trkpt><trkpt lat="40.7980202" lon="9.6015159"><ele>137.33333333333334</ele><time>2026-04-12T14:52:18.607Z</time></trkpt><trkpt lat="40.7980116" lon="9.6016059"><ele>136.66666666666666</ele><time>2026-04-12T14:52:19.609Z</time></trkpt><trkpt lat="40.7980023" lon="9.6017015"><ele>136.0</ele><time>2026-04-12T14:52:20.61Z</time></trkpt><trkpt lat="40.7979846" lon="9.6017926"><ele>135.33333333333331</ele><time>2026-04-12T14:52:21.618Z</time></trkpt><trkpt lat="40.7979634" lon="9.6018751"><ele>134.66666666666666</ele><time>2026-04-12T14:52:22.611Z</time></trkpt><trkpt lat="40.7979317" lon="9.6019525"><ele>134.0</ele><time>2026-04-12T14:52:23.615Z</time></trkpt><trkpt lat="40.7978803" lon="9.6021027"><ele>132.6</ele><time>2026-04-12T14:52:25.608Z</time></trkpt><trkpt lat="40.7978479" lon="9.6022478"><ele>131.2</ele><time>2026-04-12T14:52:27.615Z</time></trkpt><trkpt lat="40.7978864" lon="9.6023841"><ele>129.79999999999998</ele><time>2026-04-12T14:52:29.599Z</time></trkpt><trkpt lat="40.79799" lon="9.6024817"><ele>128.4</ele><time>2026-04-12T14:52:31.605Z</time></trkpt><trkpt lat="40.7980655" lon="9.602514"><ele>127.0</ele><time>2026-04-12T14:52:32.6Z</time></trkpt><trkpt lat="40.7981327" lon="9.6025425"><ele>127.0</ele><time>2026-04-12T14:52:33.61Z</time></trkpt><trkpt lat="40.7982153" lon="9.6026358"><ele>126.99999999999999</ele><time>2026-04-12T14:52:35.614Z</time></trkpt><trkpt lat="40.7982038" lon="9.6027824"><ele>126.99999999999999</ele><time>2026-04-12T14:52:37.601Z</time></trkpt><trkpt lat="40.7981843" lon="9.6028864"><ele>127.0</ele><time>2026-04-12T14:52:38.6Z</time></trkpt><trkpt lat="40.7981701" lon="9.6029994"><ele>127.0</ele><time>2026-04-12T14:52:39.605Z</time></trkpt><trkpt lat="40.7981553" lon="9.6031168"><ele>126.50000000000001</ele><time>2026-04-12T14:52:40.601Z</time></trkpt><trkpt lat="40.7981421" lon="9.6032355"><ele>126.0</ele><time>2026-04-12T14:52:41.602Z</time></trkpt><trkpt lat="40.7981295" lon="9.6033456"><ele>125.5</ele><time>2026-04-12T14:52:42.606Z</time></trkpt><trkpt lat="40.7981045" lon="9.6034537"><ele>125.0</ele><time>2026-04-12T14:52:43.599Z</time></trkpt><trkpt lat="40.7980811" lon="9.6035653"><ele>124.50000000000001</ele><time>2026-04-12T14:52:44.61Z</time></trkpt><trkpt lat="40.7980652" lon="9.6036719"><ele>124.0</ele><time>2026-04-12T14:52:45.602Z</time></trkpt><trkpt lat="40.79805" lon="9.603765"><ele>123.16666666666667</ele><time>2026-04-12T14:52:46.606Z</time></trkpt><trkpt lat="40.7980467" lon="9.6038535"><ele>122.33333333333334</ele><time>2026-04-12T14:52:47.602Z</time></trkpt><trkpt lat="40.7980892" lon="9.604001"><ele>121.5</ele><time>2026-04-12T14:52:49.604Z</time></trkpt><trkpt lat="40.7981318" lon="9.6040745"><ele>120.66666666666666</ele><time>2026-04-12T14:52:50.609Z</time></trkpt><trkpt lat="40.7981842" lon="9.604158"><ele>119.83333333333333</ele><time>2026-04-12T14:52:51.599Z</time></trkpt><trkpt lat="40.7982183" lon="9.6042471"><ele>119.0</ele><time>2026-04-12T14:52:52.599Z</time></trkpt><trkpt lat="40.7982446" lon="9.604339"><ele>119.0</ele><time>2026-04-12T14:52:53.609Z</time></trkpt><trkpt lat="40.7982647" lon="9.6044327"><ele>119.0</ele><time>2026-04-12T14:52:54.601Z</time></trkpt><trkpt lat="40.7982853" lon="9.6045421"><ele>119.0</ele><time>2026-04-12T14:52:55.602Z</time></trkpt><trkpt lat="40.7983007" lon="9.6046661"><ele>119.0</ele><time>2026-04-12T14:52:56.605Z</time></trkpt><trkpt lat="40.7983111" lon="9.6048082"><ele>119.0</ele><time>2026-04-12T14:52:57.595Z</time></trkpt><trkpt lat="40.7983213" lon="9.6049598"><ele>117.4</ele><time>2026-04-12T14:52:58.602Z</time></trkpt><trkpt lat="40.7983391" lon="9.6051036"><ele>115.80000000000001</ele><time>2026-04-12T14:52:59.597Z</time></trkpt><trkpt lat="40.7983621" lon="9.6052365"><ele>114.19999999999999</ele><time>2026-04-12T14:53:00.595Z</time></trkpt><trkpt lat="40.7983882" lon="9.6053667"><ele>112.6</ele><time>2026-04-12T14:53:01.595Z</time></trkpt><trkpt lat="40.7984192" lon="9.6055008"><ele>111.0</ele><time>2026-04-12T14:53:02.598Z</time></trkpt><trkpt lat="40.7984515" lon="9.6056449"><ele>110.0</ele><time>2026-04-12T14:53:03.599Z</time></trkpt><trkpt lat="40.7984865" lon="9.6057928"><ele>109.0</ele><time>2026-04-12T14:53:04.597Z</time></trkpt><trkpt lat="40.7985198" lon="9.605929"><ele>108.0</ele><time>2026-04-12T14:53:05.594Z</time></trkpt><trkpt lat="40.7985531" lon="9.6060544"><ele>107.0</ele><time>2026-04-12T14:53:06.596Z</time></trkpt><trkpt lat="40.7985834" lon="9.6061783"><ele>106.0</ele><time>2026-04-12T14:53:07.593Z</time></trkpt><trkpt lat="40.7986114" lon="9.606295"><ele>105.0</ele><time>2026-04-12T14:53:08.595Z</time></trkpt><trkpt lat="40.7986271" lon="9.6064109"><ele>104.0</ele><time>2026-04-12T14:53:09.6Z</time></trkpt><trkpt lat="40.7986314" lon="9.6065317"><ele>103.0</ele><time>2026-04-12T14:53:10.595Z</time></trkpt><trkpt lat="40.7986312" lon="9.606652"><ele>102.0</ele><time>2026-04-12T14:53:11.6Z</time></trkpt><trkpt lat="40.7986388" lon="9.6067726"><ele>101.0</ele><time>2026-04-12T14:53:12.593Z</time></trkpt><trkpt lat="40.7986575" lon="9.6068937"><ele>100.49999999999999</ele><time>2026-04-12T14:53:13.601Z</time></trkpt><trkpt lat="40.7986695" lon="9.607013"><ele>100.0</ele><time>2026-04-12T14:53:14.597Z</time></trkpt><trkpt lat="40.7986823" lon="9.6071328"><ele>99.5</ele><time>2026-04-12T14:53:15.588Z</time></trkpt><trkpt lat="40.7986956" lon="9.6072444"><ele>99.0</ele><time>2026-04-12T14:53:16.597Z</time></trkpt><trkpt lat="40.7987047" lon="9.6073574"><ele>98.49999999999999</ele><time>2026-04-12T14:53:17.597Z</time></trkpt><trkpt lat="40.7987143" lon="9.6074592"><ele>98.0</ele><time>2026-04-12T14:53:18.594Z</time></trkpt><trkpt lat="40.7987391" lon="9.6075546"><ele>98.0</ele><time>2026-04-12T14:53:19.598Z</time></trkpt><trkpt lat="40.7987801" lon="9.6076314"><ele>98.0</ele><time>2026-04-12T14:53:20.593Z</time></trkpt><trkpt lat="40.7988351" lon="9.6076987"><ele>98.0</ele><time>2026-04-12T14:53:21.588Z</time></trkpt><trkpt lat="40.7988948" lon="9.6077663"><ele>98.0</ele><time>2026-04-12T14:53:22.597Z</time></trkpt><trkpt lat="40.7989544" lon="9.6078304"><ele>98.0</ele><time>2026-04-12T14:53:23.59Z</time></trkpt><trkpt lat="40.7990097" lon="9.6078905"><ele>98.0</ele><time>2026-04-12T14:53:24.593Z</time></trkpt><trkpt lat="40.7990563" lon="9.6079526"><ele>98.0</ele><time>2026-04-12T14:53:25.591Z</time></trkpt><trkpt lat="40.7990991" lon="9.6080203"><ele>97.60000000000001</ele><time>2026-04-12T14:53:26.592Z</time></trkpt><trkpt lat="40.7991321" lon="9.608094"><ele>97.2</ele><time>2026-04-12T14:53:27.602Z</time></trkpt><trkpt lat="40.7991703" lon="9.6082426"><ele>96.8</ele><time>2026-04-12T14:53:29.594Z</time></trkpt><trkpt lat="40.7991715" lon="9.608418"><ele>96.4</ele><time>2026-04-12T14:53:31.594Z</time></trkpt><trkpt lat="40.7991607" lon="9.6085231"><ele>96.0</ele><time>2026-04-12T14:53:32.592Z</time></trkpt><trkpt lat="40.7991579" lon="9.608644"><ele>96.19999999999999</ele><time>2026-04-12T14:53:33.593Z</time></trkpt><trkpt lat="40.7991626" lon="9.6087749"><ele>96.39999999999999</ele><time>2026-04-12T14:53:34.593Z</time></trkpt><trkpt lat="40.7991785" lon="9.6089176"><ele>96.6</ele><time>2026-04-12T14:53:35.588Z</time></trkpt><trkpt lat="40.7992107" lon="9.6090656"><ele>96.8</ele><time>2026-04-12T14:53:36.584Z</time></trkpt><trkpt lat="40.7992472" lon="9.6092172"><ele>97.0</ele><time>2026-04-12T14:53:37.595Z</time></trkpt><trkpt lat="40.7992768" lon="9.6093797"><ele>96.8</ele><time>2026-04-12T14:53:38.592Z</time></trkpt><trkpt lat="40.7992996" lon="9.6095433"><ele>96.6</ele><time>2026-04-12T14:53:39.593Z</time></trkpt><trkpt lat="40.7993251" lon="9.6096838"><ele>96.39999999999999</ele><time>2026-04-12T14:53:40.584Z</time></trkpt><trkpt lat="40.7993522" lon="9.6097981"><ele>96.19999999999999</ele><time>2026-04-12T14:53:41.586Z</time></trkpt><trkpt lat="40.7993944" lon="9.6099105"><ele>96.0</ele><time>2026-04-12T14:53:42.592Z</time></trkpt><trkpt lat="40.7994511" lon="9.6100143"><ele>96.0</ele><time>2026-04-12T14:53:43.593Z</time></trkpt><trkpt lat="40.7995181" lon="9.6101235"><ele>96.0</ele><time>2026-04-12T14:53:44.593Z</time></trkpt><trkpt lat="40.7995751" lon="9.6102491"><ele>96.0</ele><time>2026-04-12T14:53:45.586Z</time></trkpt><trkpt lat="40.7996292" lon="9.6103803"><ele>96.0</ele><time>2026-04-12T14:53:46.584Z</time></trkpt><trkpt lat="40.7996863" lon="9.6105075"><ele>96.0</ele><time>2026-04-12T14:53:47.588Z</time></trkpt><trkpt lat="40.7997636" lon="9.6106344"><ele>95.5</ele><time>2026-04-12T14:53:48.586Z</time></trkpt><trkpt lat="40.7998519" lon="9.6107505"><ele>95.0</ele><time>2026-04-12T14:53:49.594Z</time></trkpt><trkpt lat="40.7999264" lon="9.6108496"><ele>94.5</ele><time>2026-04-12T14:53:50.586Z</time></trkpt><trkpt lat="40.7999991" lon="9.610959"><ele>94.0</ele><time>2026-04-12T14:53:51.583Z</time></trkpt><trkpt lat="40.8000777" lon="9.6110653"><ele>94.80000000000001</ele><time>2026-04-12T14:53:52.581Z</time></trkpt><trkpt lat="40.8001607" lon="9.6111579"><ele>95.60000000000001</ele><time>2026-04-12T14:53:53.583Z</time></trkpt><trkpt lat="40.8002398" lon="9.6112374"><ele>96.4</ele><time>2026-04-12T14:53:54.591Z</time></trkpt><trkpt lat="40.8003063" lon="9.6113185"><ele>97.2</ele><time>2026-04-12T14:53:55.589Z</time></trkpt><trkpt lat="40.8003541" lon="9.6114192"><ele>98.0</ele><time>2026-04-12T14:53:56.58Z</time></trkpt><trkpt lat="40.8003926" lon="9.6115287"><ele>97.49999999999999</ele><time>2026-04-12T14:53:57.583Z</time></trkpt><trkpt lat="40.8004306" lon="9.6116326"><ele>97.0</ele><time>2026-04-12T14:53:58.578Z</time></trkpt><trkpt lat="40.8004632" lon="9.6117279"><ele>96.5</ele><time>2026-04-12T14:53:59.581Z</time></trkpt><trkpt lat="40.8005051" lon="9.6118112"><ele>96.0</ele><time>2026-04-12T14:54:00.578Z</time></trkpt><trkpt lat="40.8005628" lon="9.6118828"><ele>95.5</ele><time>2026-04-12T14:54:01.579Z</time></trkpt><trkpt lat="40.8006444" lon="9.6119482"><ele>95.0</ele><time>2026-04-12T14:54:02.584Z</time></trkpt><trkpt lat="40.8007403" lon="9.6120116"><ele>95.0</ele><time>2026-04-12T14:54:03.578Z</time></trkpt><trkpt lat="40.8008423" lon="9.612092"><ele>95.0</ele><time>2026-04-12T14:54:04.577Z</time></trkpt><trkpt lat="40.8009457" lon="9.612176"><ele>95.0</ele><time>2026-04-12T14:54:05.589Z</time></trkpt><trkpt lat="40.8010491" lon="9.6122511"><ele>95.0</ele><time>2026-04-12T14:54:06.583Z</time></trkpt><trkpt lat="40.8011552" lon="9.6123169"><ele>94.0</ele><time>2026-04-12T14:54:07.578Z</time></trkpt><trkpt lat="40.8012644" lon="9.6123888"><ele>93.0</ele><time>2026-04-12T14:54:08.585Z</time></trkpt><trkpt lat="40.8013838" lon="9.6124458"><ele>92.0</ele><time>2026-04-12T14:54:09.583Z</time></trkpt><trkpt lat="40.8014976" lon="9.6125006"><ele>91.0</ele><time>2026-04-12T14:54:10.579Z</time></trkpt><trkpt lat="40.8015962" lon="9.6125561"><ele>91.0</ele><time>2026-04-12T14:54:11.582Z</time></trkpt><trkpt lat="40.8016889" lon="9.6126112"><ele>91.0</ele><time>2026-04-12T14:54:12.588Z</time></trkpt><trkpt lat="40.8017832" lon="9.6126581"><ele>91.0</ele><time>2026-04-12T14:54:13.578Z</time></trkpt><trkpt lat="40.801886" lon="9.6126849"><ele>91.0</ele><time>2026-04-12T14:54:14.573Z</time></trkpt><trkpt lat="40.8019885" lon="9.6127053"><ele>91.0</ele><time>2026-04-12T14:54:15.574Z</time></trkpt><trkpt lat="40.8020896" lon="9.6127369"><ele>91.6</ele><time>2026-04-12T14:54:16.577Z</time></trkpt><trkpt lat="40.8021936" lon="9.6127914"><ele>92.19999999999999</ele><time>2026-04-12T14:54:17.581Z</time></trkpt><trkpt lat="40.8023041" lon="9.6128431"><ele>92.80000000000001</ele><time>2026-04-12T14:54:18.58Z</time></trkpt><trkpt lat="40.8024061" lon="9.6128853"><ele>93.4</ele><time>2026-04-12T14:54:19.585Z</time></trkpt><trkpt lat="40.8024993" lon="9.612923"><ele>94.0</ele><time>2026-04-12T14:54:20.57Z</time></trkpt><trkpt lat="40.8025798" lon="9.6129747"><ele>94.83333333333333</ele><time>2026-04-12T14:54:21.573Z</time></trkpt><trkpt lat="40.8026487" lon="9.6130414"><ele>95.66666666666666</ele><time>2026-04-12T14:54:22.572Z</time></trkpt><trkpt lat="40.8027047" lon="9.6131134"><ele>96.5</ele><time>2026-04-12T14:54:23.573Z</time></trkpt><trkpt lat="40.8027432" lon="9.6131949"><ele>97.33333333333333</ele><time>2026-04-12T14:54:24.569Z</time></trkpt><trkpt lat="40.8027684" lon="9.6132949"><ele>98.16666666666667</ele><time>2026-04-12T14:54:25.572Z</time></trkpt><trkpt lat="40.8027785" lon="9.6134109"><ele>99.0</ele><time>2026-04-12T14:54:26.565Z</time></trkpt><trkpt lat="40.802773" lon="9.6135341"><ele>99.0</ele><time>2026-04-12T14:54:27.579Z</time></trkpt><trkpt lat="40.8027572" lon="9.6136595"><ele>99.0</ele><time>2026-04-12T14:54:28.574Z</time></trkpt><trkpt lat="40.8027334" lon="9.613785"><ele>99.0</ele><time>2026-04-12T14:54:29.574Z</time></trkpt><trkpt lat="40.8026974" lon="9.6139305"><ele>99.0</ele><time>2026-04-12T14:54:30.572Z</time></trkpt><trkpt lat="40.8026604" lon="9.6140755"><ele>99.0</ele><time>2026-04-12T14:54:31.571Z</time></trkpt><trkpt lat="40.8026244" lon="9.6142294"><ele>94.75</ele><time>2026-04-12T14:54:32.572Z</time></trkpt><trkpt lat="40.8025929" lon="9.6143821"><ele>90.5</ele><time>2026-04-12T14:54:33.573Z</time></trkpt><trkpt lat="40.80256" lon="9.6145418"><ele>86.25</ele><time>2026-04-12T14:54:34.566Z</time></trkpt><trkpt lat="40.8025355" lon="9.6146971"><ele>82.0</ele><time>2026-04-12T14:54:35.57Z</time></trkpt><trkpt lat="40.8025165" lon="9.61484"><ele>80.66666666666666</ele><time>2026-04-12T14:54:36.566Z</time></trkpt><trkpt lat="40.8025039" lon="9.6149623"><ele>79.33333333333333</ele><time>2026-04-12T14:54:37.565Z</time></trkpt><trkpt lat="40.8024996" lon="9.6150704"><ele>78.0</ele><time>2026-04-12T14:54:38.566Z</time></trkpt><trkpt lat="40.8025122" lon="9.6151611"><ele>76.66666666666667</ele><time>2026-04-12T14:54:39.566Z</time></trkpt><trkpt lat="40.8025467" lon="9.6152453"><ele>75.33333333333334</ele><time>2026-04-12T14:54:40.564Z</time></trkpt><trkpt lat="40.8025938" lon="9.6153307"><ele>74.0</ele><time>2026-04-12T14:54:41.566Z</time></trkpt><trkpt lat="40.8026402" lon="9.6154109"><ele>73.0</ele><time>2026-04-12T14:54:42.565Z</time></trkpt><trkpt lat="40.8026811" lon="9.6154909"><ele>72.0</ele><time>2026-04-12T14:54:43.556Z</time></trkpt><trkpt lat="40.8027182" lon="9.6155766"><ele>71.0</ele><time>2026-04-12T14:54:44.558Z</time></trkpt><trkpt lat="40.8027552" lon="9.6156679"><ele>70.0</ele><time>2026-04-12T14:54:45.564Z</time></trkpt><trkpt lat="40.8027867" lon="9.6157761"><ele>69.0</ele><time>2026-04-12T14:54:46.557Z</time></trkpt><trkpt lat="40.8028297" lon="9.6158851"><ele>68.0</ele><time>2026-04-12T14:54:47.57Z</time></trkpt><trkpt lat="40.8028837" lon="9.6159896"><ele>68.0</ele><time>2026-04-12T14:54:48.561Z</time></trkpt><trkpt lat="40.8029462" lon="9.6160929"><ele>68.0</ele><time>2026-04-12T14:54:49.558Z</time></trkpt><trkpt lat="40.8030145" lon="9.6161828"><ele>68.0</ele><time>2026-04-12T14:54:50.558Z</time></trkpt><trkpt lat="40.803079" lon="9.6162584"><ele>68.0</ele><time>2026-04-12T14:54:51.557Z</time></trkpt><trkpt lat="40.8031371" lon="9.6163337"><ele>68.0</ele><time>2026-04-12T14:54:52.555Z</time></trkpt><trkpt lat="40.8031911" lon="9.6164164"><ele>68.0</ele><time>2026-04-12T14:54:53.555Z</time></trkpt><trkpt lat="40.8032376" lon="9.6165251"><ele>66.2</ele><time>2026-04-12T14:54:54.556Z</time></trkpt><trkpt lat="40.8032908" lon="9.6166417"><ele>64.4</ele><time>2026-04-12T14:54:55.55Z</time></trkpt><trkpt lat="40.8033397" lon="9.6167522"><ele>62.60000000000001</ele><time>2026-04-12T14:54:56.549Z</time></trkpt><trkpt lat="40.8033901" lon="9.6168757"><ele>60.800000000000004</ele><time>2026-04-12T14:54:57.554Z</time></trkpt><trkpt lat="40.8034347" lon="9.6170019"><ele>59.0</ele><time>2026-04-12T14:54:58.553Z</time></trkpt><trkpt lat="40.8034808" lon="9.6171216"><ele>60.2</ele><time>2026-04-12T14:54:59.551Z</time></trkpt><trkpt lat="40.8035237" lon="9.6172452"><ele>61.400000000000006</ele><time>2026-04-12T14:55:00.551Z</time></trkpt><trkpt lat="40.8035556" lon="9.6173715"><ele>62.6</ele><time>2026-04-12T14:55:01.553Z</time></trkpt><trkpt lat="40.8035732" lon="9.6174988"><ele>63.8</ele><time>2026-04-12T14:55:02.548Z</time></trkpt><trkpt lat="40.8035712" lon="9.6176468"><ele>65.0</ele><time>2026-04-12T14:55:03.55Z</time></trkpt><trkpt lat="40.8035698" lon="9.6177894"><ele>63.25</ele><time>2026-04-12T14:55:04.549Z</time></trkpt><trkpt lat="40.8035798" lon="9.6179404"><ele>61.5</ele><time>2026-04-12T14:55:05.554Z</time></trkpt><trkpt lat="40.8036022" lon="9.6180875"><ele>59.75</ele><time>2026-04-12T14:55:06.554Z</time></trkpt><trkpt lat="40.8036249" lon="9.6182299"><ele>58.0</ele><time>2026-04-12T14:55:07.547Z</time></trkpt><trkpt lat="40.8036619" lon="9.6183735"><ele>58.0</ele><time>2026-04-12T14:55:08.547Z</time></trkpt><trkpt lat="40.8037037" lon="9.6185252"><ele>58.0</ele><time>2026-04-12T14:55:09.549Z</time></trkpt><trkpt lat="40.8037358" lon="9.6186585"><ele>58.0</ele><time>2026-04-12T14:55:10.546Z</time></trkpt><trkpt lat="40.8037624" lon="9.6187736"><ele>58.0</ele><time>2026-04-12T14:55:11.545Z</time></trkpt><trkpt lat="40.8037846" lon="9.6188909"><ele>58.0</ele><time>2026-04-12T14:55:12.541Z</time></trkpt><trkpt lat="40.8037983" lon="9.6190172"><ele>57.0</ele><time>2026-04-12T14:55:13.549Z</time></trkpt><trkpt lat="40.8038061" lon="9.619163"><ele>56.0</ele><time>2026-04-12T14:55:14.545Z</time></trkpt><trkpt lat="40.8038096" lon="9.6193209"><ele>55.0</ele><time>2026-04-12T14:55:15.537Z</time></trkpt><trkpt lat="40.8038133" lon="9.6194802"><ele>54.0</ele><time>2026-04-12T14:55:16.547Z</time></trkpt><trkpt lat="40.803818" lon="9.6196271"><ele>53.5</ele><time>2026-04-12T14:55:17.542Z</time></trkpt><trkpt lat="40.8038231" lon="9.6197811"><ele>53.0</ele><time>2026-04-12T14:55:18.54Z</time></trkpt><trkpt lat="40.8038258" lon="9.6199469"><ele>52.5</ele><time>2026-04-12T14:55:19.544Z</time></trkpt><trkpt lat="40.8038289" lon="9.6201281"><ele>52.0</ele><time>2026-04-12T14:55:20.544Z</time></trkpt><trkpt lat="40.803831" lon="9.6203118"><ele>52.0</ele><time>2026-04-12T14:55:21.537Z</time></trkpt><trkpt lat="40.8038344" lon="9.6204755"><ele>52.0</ele><time>2026-04-12T14:55:22.54Z</time></trkpt><trkpt lat="40.8038391" lon="9.6206285"><ele>52.0</ele><time>2026-04-12T14:55:23.545Z</time></trkpt><trkpt lat="40.803846" lon="9.6207729"><ele>52.0</ele><time>2026-04-12T14:55:24.549Z</time></trkpt><trkpt lat="40.8038574" lon="9.620923"><ele>52.0</ele><time>2026-04-12T14:55:25.542Z</time></trkpt><trkpt lat="40.8038613" lon="9.6210826"><ele>52.0</ele><time>2026-04-12T14:55:26.536Z</time></trkpt><trkpt lat="40.8038611" lon="9.6212473"><ele>52.0</ele><time>2026-04-12T14:55:27.553Z</time></trkpt><trkpt lat="40.8038624" lon="9.6214147"><ele>52.0</ele><time>2026-04-12T14:55:28.533Z</time></trkpt><trkpt lat="40.8038632" lon="9.621584"><ele>50.25</ele><time>2026-04-12T14:55:29.539Z</time></trkpt><trkpt lat="40.8038624" lon="9.6217498"><ele>48.5</ele><time>2026-04-12T14:55:30.542Z</time></trkpt><trkpt lat="40.8038603" lon="9.6219083"><ele>46.75</ele><time>2026-04-12T14:55:31.539Z</time></trkpt><trkpt lat="40.8038626" lon="9.6220584"><ele>45.0</ele><time>2026-04-12T14:55:32.533Z</time></trkpt><trkpt lat="40.8038639" lon="9.6222184"><ele>44.4</ele><time>2026-04-12T14:55:33.53Z</time></trkpt><trkpt lat="40.8038624" lon="9.6223683"><ele>43.8</ele><time>2026-04-12T14:55:34.538Z</time></trkpt><trkpt lat="40.8038602" lon="9.6225144"><ele>43.2</ele><time>2026-04-12T14:55:35.534Z</time></trkpt><trkpt lat="40.803856" lon="9.6226502"><ele>42.6</ele><time>2026-04-12T14:55:36.529Z</time></trkpt><trkpt lat="40.8038566" lon="9.6227833"><ele>42.0</ele><time>2026-04-12T14:55:37.535Z</time></trkpt><trkpt lat="40.8038529" lon="9.6229151"><ele>41.25</ele><time>2026-04-12T14:55:38.541Z</time></trkpt><trkpt lat="40.803849" lon="9.623052"><ele>40.5</ele><time>2026-04-12T14:55:39.54Z</time></trkpt><trkpt lat="40.8038383" lon="9.6231939"><ele>39.75</ele><time>2026-04-12T14:55:40.53Z</time></trkpt><trkpt lat="40.8038309" lon="9.6233453"><ele>39.0</ele><time>2026-04-12T14:55:41.533Z</time></trkpt><trkpt lat="40.8038248" lon="9.6235143"><ele>39.0</ele><time>2026-04-12T14:55:42.528Z</time></trkpt><trkpt lat="40.803822" lon="9.6236987"><ele>39.0</ele><time>2026-04-12T14:55:43.522Z</time></trkpt><trkpt lat="40.8038215" lon="9.6238692"><ele>39.0</ele><time>2026-04-12T14:55:44.528Z</time></trkpt><trkpt lat="40.8038167" lon="9.624028"><ele>39.0</ele><time>2026-04-12T14:55:45.533Z</time></trkpt><trkpt lat="40.8038119" lon="9.6241798"><ele>39.0</ele><time>2026-04-12T14:55:46.536Z</time></trkpt><trkpt lat="40.803805" lon="9.6243358"><ele>39.0</ele><time>2026-04-12T14:55:47.538Z</time></trkpt><trkpt lat="40.8038018" lon="9.6244937"><ele>39.0</ele><time>2026-04-12T14:55:48.525Z</time></trkpt><trkpt lat="40.8037956" lon="9.624652"><ele>39.0</ele><time>2026-04-12T14:55:49.539Z</time></trkpt><trkpt lat="40.8037847" lon="9.6248045"><ele>39.0</ele><time>2026-04-12T14:55:50.53Z</time></trkpt><trkpt lat="40.8037756" lon="9.6249418"><ele>39.0</ele><time>2026-04-12T14:55:51.522Z</time></trkpt><trkpt lat="40.8037679" lon="9.6250783"><ele>39.0</ele><time>2026-04-12T14:55:52.527Z</time></trkpt><trkpt lat="40.8037616" lon="9.6252053"><ele>39.0</ele><time>2026-04-12T14:55:53.528Z</time></trkpt><trkpt lat="40.803758" lon="9.6253313"><ele>39.0</ele><time>2026-04-12T14:55:54.533Z</time></trkpt><trkpt lat="40.8037468" lon="9.6254609"><ele>39.0</ele><time>2026-04-12T14:55:55.528Z</time></trkpt><trkpt lat="40.8037332" lon="9.6256043"><ele>39.0</ele><time>2026-04-12T14:55:56.524Z</time></trkpt><trkpt lat="40.8037208" lon="9.6257537"><ele>39.0</ele><time>2026-04-12T14:55:57.519Z</time></trkpt><trkpt lat="40.8037048" lon="9.625901"><ele>39.0</ele><time>2026-04-12T14:55:58.529Z</time></trkpt><trkpt lat="40.803682" lon="9.6260547"><ele>38.75</ele><time>2026-04-12T14:55:59.531Z</time></trkpt><trkpt lat="40.8036581" lon="9.6262046"><ele>38.5</ele><time>2026-04-12T14:56:00.524Z</time></trkpt><trkpt lat="40.8036313" lon="9.6263526"><ele>38.25</ele><time>2026-04-12T14:56:01.52Z</time></trkpt><trkpt lat="40.8036089" lon="9.6265041"><ele>38.0</ele><time>2026-04-12T14:56:02.533Z</time></trkpt><trkpt lat="40.8035975" lon="9.6266494"><ele>38.0</ele><time>2026-04-12T14:56:03.53Z</time></trkpt><trkpt lat="40.8035928" lon="9.6267881"><ele>38.0</ele><time>2026-04-12T14:56:04.521Z</time></trkpt><trkpt lat="40.8035977" lon="9.6269316"><ele>38.0</ele><time>2026-04-12T14:56:05.525Z</time></trkpt><trkpt lat="40.8036055" lon="9.6270883"><ele>38.0</ele><time>2026-04-12T14:56:06.521Z</time></trkpt><trkpt lat="40.8036058" lon="9.627251"><ele>37.5</ele><time>2026-04-12T14:56:07.519Z</time></trkpt><trkpt lat="40.8036015" lon="9.6274178"><ele>37.0</ele><time>2026-04-12T14:56:08.527Z</time></trkpt><trkpt lat="40.8036011" lon="9.6275822"><ele>36.5</ele><time>2026-04-12T14:56:09.52Z</time></trkpt><trkpt lat="40.8036047" lon="9.6277394"><ele>36.0</ele><time>2026-04-12T14:56:10.525Z</time></trkpt><trkpt lat="40.8036179" lon="9.6278793"><ele>35.75</ele><time>2026-04-12T14:56:11.529Z</time></trkpt><trkpt lat="40.8036461" lon="9.6280182"><ele>35.5</ele><time>2026-04-12T14:56:12.519Z</time></trkpt><trkpt lat="40.8036948" lon="9.6281539"><ele>35.25</ele><time>2026-04-12T14:56:13.523Z</time></trkpt><trkpt lat="40.8037579" lon="9.6282984"><ele>35.0</ele><time>2026-04-12T14:56:14.528Z</time></trkpt><trkpt lat="40.8038187" lon="9.6284563"><ele>35.0</ele><time>2026-04-12T14:56:15.525Z</time></trkpt><trkpt lat="40.8038733" lon="9.6286072"><ele>35.0</ele><time>2026-04-12T14:56:16.516Z</time></trkpt><trkpt lat="40.8039205" lon="9.6287547"><ele>35.0</ele><time>2026-04-12T14:56:17.523Z</time></trkpt><trkpt lat="40.8039664" lon="9.6289188"><ele>35.0</ele><time>2026-04-12T14:56:18.527Z</time></trkpt><trkpt lat="40.8040189" lon="9.6290931"><ele>34.25</ele><time>2026-04-12T14:56:19.518Z</time></trkpt><trkpt lat="40.8040663" lon="9.6292705"><ele>33.5</ele><time>2026-04-12T14:56:20.516Z</time></trkpt><trkpt lat="40.8041035" lon="9.6294335"><ele>32.75</ele><time>2026-04-12T14:56:21.524Z</time></trkpt><trkpt lat="40.8041399" lon="9.6295837"><ele>32.0</ele><time>2026-04-12T14:56:22.515Z</time></trkpt><trkpt lat="40.804176" lon="9.6297355"><ele>31.75</ele><time>2026-04-12T14:56:23.519Z</time></trkpt><trkpt lat="40.804211" lon="9.6299028"><ele>31.5</ele><time>2026-04-12T14:56:24.519Z</time></trkpt><trkpt lat="40.8042467" lon="9.6300658"><ele>31.25</ele><time>2026-04-12T14:56:25.513Z</time></trkpt><trkpt lat="40.804273" lon="9.6302204"><ele>31.0</ele><time>2026-04-12T14:56:26.511Z</time></trkpt><trkpt lat="40.8042928" lon="9.6303558"><ele>31.0</ele><time>2026-04-12T14:56:27.524Z</time></trkpt><trkpt lat="40.8042921" lon="9.6304956"><ele>31.0</ele><time>2026-04-12T14:56:28.521Z</time></trkpt><trkpt lat="40.8042738" lon="9.6306465"><ele>31.0</ele><time>2026-04-12T14:56:29.51Z</time></trkpt><trkpt lat="40.8042485" lon="9.6308171"><ele>31.0</ele><time>2026-04-12T14:56:30.516Z</time></trkpt><trkpt lat="40.8042229" lon="9.6309976"><ele>30.75</ele><time>2026-04-12T14:56:31.515Z</time></trkpt><trkpt lat="40.80421" lon="9.6311719"><ele>30.5</ele><time>2026-04-12T14:56:32.506Z</time></trkpt><trkpt lat="40.8042103" lon="9.6313313"><ele>30.25</ele><time>2026-04-12T14:56:33.621Z</time></trkpt><trkpt lat="40.8042237" lon="9.6314844"><ele>30.0</ele><time>2026-04-12T14:56:34.619Z</time></trkpt><trkpt lat="40.8042532" lon="9.6316417"><ele>30.0</ele><time>2026-04-12T14:56:35.61Z</time></trkpt><trkpt lat="40.8042885" lon="9.6318136"><ele>30.0</ele><time>2026-04-12T14:56:36.618Z</time></trkpt><trkpt lat="40.8043547" lon="9.6321979"><ele>30.0</ele><time>2026-04-12T14:56:38.51Z</time></trkpt><trkpt lat="40.8043894" lon="9.6324058"><ele>32.5</ele><time>2026-04-12T14:56:39.62Z</time></trkpt><trkpt lat="40.8044242" lon="9.6326216"><ele>35.0</ele><time>2026-04-12T14:56:40.609Z</time></trkpt><trkpt lat="40.8044584" lon="9.6328174"><ele>37.5</ele><time>2026-04-12T14:56:41.607Z</time></trkpt><trkpt lat="40.8044853" lon="9.6329824"><ele>40.0</ele><time>2026-04-12T14:56:42.61Z</time></trkpt><trkpt lat="40.8045" lon="9.6331363"><ele>40.4</ele><time>2026-04-12T14:56:43.621Z</time></trkpt><trkpt lat="40.8044925" lon="9.6332839"><ele>40.8</ele><time>2026-04-12T14:56:44.612Z</time></trkpt><trkpt lat="40.8044735" lon="9.6334193"><ele>41.2</ele><time>2026-04-12T14:56:45.609Z</time></trkpt><trkpt lat="40.8044517" lon="9.6335418"><ele>41.6</ele><time>2026-04-12T14:56:46.606Z</time></trkpt><trkpt lat="40.8044345" lon="9.6336505"><ele>42.0</ele><time>2026-04-12T14:56:47.621Z</time></trkpt><trkpt lat="40.8044275" lon="9.6337442"><ele>42.2</ele><time>2026-04-12T14:56:48.607Z</time></trkpt><trkpt lat="40.8044532" lon="9.6339081"><ele>42.400000000000006</ele><time>2026-04-12T14:56:50.61Z</time></trkpt><trkpt lat="40.8044768" lon="9.634003"><ele>42.599999999999994</ele><time>2026-04-12T14:56:51.606Z</time></trkpt><trkpt lat="40.8044896" lon="9.6341268"><ele>42.8</ele><time>2026-04-12T14:56:52.606Z</time></trkpt><trkpt lat="40.8044936" lon="9.6342743"><ele>43.0</ele><time>2026-04-12T14:56:53.604Z</time></trkpt><trkpt lat="40.8045173" lon="9.6344469"><ele>42.25</ele><time>2026-04-12T14:56:54.601Z</time></trkpt><trkpt lat="40.8045528" lon="9.6346288"><ele>41.5</ele><time>2026-04-12T14:56:55.605Z</time></trkpt><trkpt lat="40.8045709" lon="9.6348046"><ele>40.75</ele><time>2026-04-12T14:56:56.611Z</time></trkpt><trkpt lat="40.8045497" lon="9.63498"><ele>40.0</ele><time>2026-04-12T14:56:57.61Z</time></trkpt><trkpt lat="40.8045182" lon="9.6351759"><ele>41.0</ele><time>2026-04-12T14:56:58.615Z</time></trkpt><trkpt lat="40.8044751" lon="9.6353836"><ele>42.0</ele><time>2026-04-12T14:56:59.596Z</time></trkpt><trkpt lat="40.8044423" lon="9.6355698"><ele>43.0</ele><time>2026-04-12T14:57:00.607Z</time></trkpt><trkpt lat="40.8044171" lon="9.63572"><ele>44.0</ele><time>2026-04-12T14:57:01.599Z</time></trkpt><trkpt lat="40.8043922" lon="9.635844"><ele>44.0</ele><time>2026-04-12T14:57:02.598Z</time></trkpt><trkpt lat="40.8043674" lon="9.6359651"><ele>44.0</ele><time>2026-04-12T14:57:03.6Z</time></trkpt><trkpt lat="40.8043421" lon="9.6360938"><ele>44.0</ele><time>2026-04-12T14:57:04.615Z</time></trkpt><trkpt lat="40.8043187" lon="9.6362357"><ele>44.0</ele><time>2026-04-12T14:57:05.6Z</time></trkpt><trkpt lat="40.8042979" lon="9.636396"><ele>44.0</ele><time>2026-04-12T14:57:06.596Z</time></trkpt><trkpt lat="40.8042737" lon="9.6365763"><ele>42.33333333333333</ele><time>2026-04-12T14:57:07.593Z</time></trkpt><trkpt lat="40.8042517" lon="9.6367694"><ele>40.666666666666664</ele><time>2026-04-12T14:57:08.606Z</time></trkpt><trkpt lat="40.804235" lon="9.6369744"><ele>39.0</ele><time>2026-04-12T14:57:09.603Z</time></trkpt><trkpt lat="40.8042206" lon="9.6371939"><ele>39.0</ele><time>2026-04-12T14:57:10.594Z</time></trkpt><trkpt lat="40.8042095" lon="9.6374183"><ele>39.0</ele><time>2026-04-12T14:57:11.608Z</time></trkpt><trkpt lat="40.8042041" lon="9.6376253"><ele>39.0</ele><time>2026-04-12T14:57:12.606Z</time></trkpt><trkpt lat="40.8041997" lon="9.6378128"><ele>39.5</ele><time>2026-04-12T14:57:13.608Z</time></trkpt><trkpt lat="40.8041936" lon="9.6379794"><ele>40.0</ele><time>2026-04-12T14:57:14.592Z</time></trkpt><trkpt lat="40.8041753" lon="9.6381329"><ele>40.5</ele><time>2026-04-12T14:57:15.606Z</time></trkpt><trkpt lat="40.8041551" lon="9.6382818"><ele>41.0</ele><time>2026-04-12T14:57:16.61Z</time></trkpt><trkpt lat="40.804124" lon="9.6384201"><ele>41.0</ele><time>2026-04-12T14:57:17.595Z</time></trkpt><trkpt lat="40.8040908" lon="9.6385485"><ele>41.0</ele><time>2026-04-12T14:57:18.594Z</time></trkpt><trkpt lat="40.8040763" lon="9.6386852"><ele>41.0</ele><time>2026-04-12T14:57:19.598Z</time></trkpt><trkpt lat="40.8040904" lon="9.6388313"><ele>41.0</ele><time>2026-04-12T14:57:20.596Z</time></trkpt><trkpt lat="40.8041163" lon="9.6390006"><ele>41.0</ele><time>2026-04-12T14:57:21.598Z</time></trkpt><trkpt lat="40.8041381" lon="9.6391858"><ele>41.5</ele><time>2026-04-12T14:57:22.606Z</time></trkpt><trkpt lat="40.8041601" lon="9.6393772"><ele>42.0</ele><time>2026-04-12T14:57:23.596Z</time></trkpt><trkpt lat="40.8041884" lon="9.639559"><ele>42.5</ele><time>2026-04-12T14:57:24.594Z</time></trkpt><trkpt lat="40.8042249" lon="9.639715"><ele>43.0</ele><time>2026-04-12T14:57:25.601Z</time></trkpt><trkpt lat="40.8042543" lon="9.6398605"><ele>43.0</ele><time>2026-04-12T14:57:26.603Z</time></trkpt><trkpt lat="40.8042811" lon="9.6400106"><ele>43.0</ele><time>2026-04-12T14:57:27.596Z</time></trkpt><trkpt lat="40.8043021" lon="9.6401577"><ele>43.0</ele><time>2026-04-12T14:57:28.594Z</time></trkpt><trkpt lat="40.804321" lon="9.6403123"><ele>43.0</ele><time>2026-04-12T14:57:29.595Z</time></trkpt><trkpt lat="40.8043444" lon="9.6404707"><ele>42.0</ele><time>2026-04-12T14:57:30.595Z</time></trkpt><trkpt lat="40.8043583" lon="9.6406214"><ele>41.0</ele><time>2026-04-12T14:57:31.604Z</time></trkpt><trkpt lat="40.8043631" lon="9.64077"><ele>40.0</ele><time>2026-04-12T14:57:32.596Z</time></trkpt><trkpt lat="40.8043425" lon="9.6409226"><ele>39.0</ele><time>2026-04-12T14:57:33.606Z</time></trkpt><trkpt lat="40.8043036" lon="9.6410785"><ele>40.0</ele><time>2026-04-12T14:57:34.594Z</time></trkpt><trkpt lat="40.804255" lon="9.6412434"><ele>41.0</ele><time>2026-04-12T14:57:35.591Z</time></trkpt><trkpt lat="40.8042089" lon="9.6414199"><ele>42.0</ele><time>2026-04-12T14:57:36.592Z</time></trkpt><trkpt lat="40.8041683" lon="9.641592"><ele>43.0</ele><time>2026-04-12T14:57:37.596Z</time></trkpt><trkpt lat="40.8041302" lon="9.641762"><ele>43.0</ele><time>2026-04-12T14:57:38.594Z</time></trkpt><trkpt lat="40.8040959" lon="9.6419191"><ele>43.0</ele><time>2026-04-12T14:57:39.588Z</time></trkpt><trkpt lat="40.8040655" lon="9.6420683"><ele>43.0</ele><time>2026-04-12T14:57:40.597Z</time></trkpt><trkpt lat="40.8040394" lon="9.6422073"><ele>43.0</ele><time>2026-04-12T14:57:41.599Z</time></trkpt><trkpt lat="40.8040218" lon="9.6423418"><ele>44.0</ele><time>2026-04-12T14:57:42.587Z</time></trkpt><trkpt lat="40.8040041" lon="9.6424775"><ele>45.0</ele><time>2026-04-12T14:57:43.593Z</time></trkpt><trkpt lat="40.8039826" lon="9.6426065"><ele>46.0</ele><time>2026-04-12T14:57:44.592Z</time></trkpt><trkpt lat="40.8039405" lon="9.6427199"><ele>47.0</ele><time>2026-04-12T14:57:45.589Z</time></trkpt><trkpt lat="40.8038649" lon="9.6428115"><ele>48.0</ele><time>2026-04-12T14:57:46.599Z</time></trkpt><trkpt lat="40.803764" lon="9.6428926"><ele>49.5</ele><time>2026-04-12T14:57:47.605Z</time></trkpt><trkpt lat="40.803663" lon="9.6429712"><ele>51.0</ele><time>2026-04-12T14:57:48.594Z</time></trkpt><trkpt lat="40.8035834" lon="9.6430638"><ele>52.5</ele><time>2026-04-12T14:57:49.594Z</time></trkpt><trkpt lat="40.8035183" lon="9.6431822"><ele>54.0</ele><time>2026-04-12T14:57:50.604Z</time></trkpt><trkpt lat="40.8034506" lon="9.6433241"><ele>49.5</ele><time>2026-04-12T14:57:51.59Z</time></trkpt><trkpt lat="40.8033932" lon="9.6434724"><ele>45.0</ele><time>2026-04-12T14:57:52.589Z</time></trkpt><trkpt lat="40.8033489" lon="9.6436117"><ele>40.5</ele><time>2026-04-12T14:57:53.591Z</time></trkpt><trkpt lat="40.8033025" lon="9.6437501"><ele>36.0</ele><time>2026-04-12T14:57:54.592Z</time></trkpt><trkpt lat="40.8032665" lon="9.6438877"><ele>36.0</ele><time>2026-04-12T14:57:55.594Z</time></trkpt><trkpt lat="40.8032545" lon="9.6440243"><ele>36.0</ele><time>2026-04-12T14:57:56.582Z</time></trkpt><trkpt lat="40.8032394" lon="9.6441444"><ele>36.0</ele><time>2026-04-12T14:57:57.596Z</time></trkpt><trkpt lat="40.8032123" lon="9.6442546"><ele>36.0</ele><time>2026-04-12T14:57:58.584Z</time></trkpt><trkpt lat="40.8031581" lon="9.6443473"><ele>36.0</ele><time>2026-04-12T14:57:59.583Z</time></trkpt><trkpt lat="40.8030655" lon="9.6444111"><ele>36.2</ele><time>2026-04-12T14:58:00.591Z</time></trkpt><trkpt lat="40.8029707" lon="9.6444729"><ele>36.400000000000006</ele><time>2026-04-12T14:58:01.601Z</time></trkpt><trkpt lat="40.8028876" lon="9.6445402"><ele>36.6</ele><time>2026-04-12T14:58:02.59Z</time></trkpt><trkpt lat="40.8028197" lon="9.6446075"><ele>36.800000000000004</ele><time>2026-04-12T14:58:03.585Z</time></trkpt><trkpt lat="40.8027633" lon="9.6446812"><ele>37.0</ele><time>2026-04-12T14:58:04.585Z</time></trkpt><trkpt lat="40.8027309" lon="9.6447852"><ele>37.0</ele><time>2026-04-12T14:58:05.589Z</time></trkpt><trkpt lat="40.8027256" lon="9.644908"><ele>37.0</ele><time>2026-04-12T14:58:06.587Z</time></trkpt><trkpt lat="40.8027249" lon="9.6450272"><ele>37.0</ele><time>2026-04-12T14:58:07.582Z</time></trkpt><trkpt lat="40.802721" lon="9.6451227"><ele>37.0</ele><time>2026-04-12T14:58:08.58Z</time></trkpt><trkpt lat="40.8027026" lon="9.6452029"><ele>37.0</ele><time>2026-04-12T14:58:09.586Z</time></trkpt><trkpt lat="40.8026294" lon="9.6453138"><ele>37.0</ele><time>2026-04-12T14:58:11.583Z</time></trkpt><trkpt lat="40.8025586" lon="9.6453812"><ele>34.66666666666667</ele><time>2026-04-12T14:58:13.587Z</time></trkpt><trkpt lat="40.8024708" lon="9.6453852"><ele>32.333333333333336</ele><time>2026-04-12T14:58:15.579Z</time></trkpt><trkpt lat="40.8024005" lon="9.6453774"><ele>30.0</ele><time>2026-04-12T14:58:17.594Z</time></trkpt><trkpt lat="40.8023307" lon="9.6453736"><ele>27.666666666666668</ele><time>2026-04-12T14:58:19.581Z</time></trkpt><trkpt lat="40.802248" lon="9.6453778"><ele>25.333333333333336</ele><time>2026-04-12T14:58:21.579Z</time></trkpt><trkpt lat="40.8021464" lon="9.6453843"><ele>23.0</ele><time>2026-04-12T14:58:23.587Z</time></trkpt><trkpt lat="40.8020463" lon="9.6453941"><ele>23.0</ele><time>2026-04-12T14:58:25.581Z</time></trkpt><trkpt lat="40.8019623" lon="9.6453892"><ele>23.0</ele><time>2026-04-12T14:58:27.581Z</time></trkpt><trkpt lat="40.8018392" lon="9.6453697"><ele>23.0</ele><time>2026-04-12T14:58:29.585Z</time></trkpt><trkpt lat="40.8017682" lon="9.6453379"><ele>23.0</ele><time>2026-04-12T14:58:30.578Z</time></trkpt><trkpt lat="40.8016887" lon="9.6452727"><ele>23.0</ele><time>2026-04-12T14:58:31.573Z</time></trkpt><trkpt lat="40.8015988" lon="9.6452064"><ele>23.4</ele><time>2026-04-12T14:58:32.572Z</time></trkpt><trkpt lat="40.8015044" lon="9.6451429"><ele>23.799999999999997</ele><time>2026-04-12T14:58:33.579Z</time></trkpt><trkpt lat="40.8014062" lon="9.6450839"><ele>24.2</ele><time>2026-04-12T14:58:34.575Z</time></trkpt><trkpt lat="40.8013179" lon="9.6450251"><ele>24.6</ele><time>2026-04-12T14:58:35.586Z</time></trkpt><trkpt lat="40.8012348" lon="9.644966"><ele>25.0</ele><time>2026-04-12T14:58:36.576Z</time></trkpt><trkpt lat="40.8011544" lon="9.6449113"><ele>25.000000000000004</ele><time>2026-04-12T14:58:37.569Z</time></trkpt><trkpt lat="40.801082" lon="9.6448519"><ele>25.0</ele><time>2026-04-12T14:58:38.582Z</time></trkpt><trkpt lat="40.8010174" lon="9.6447931"><ele>25.0</ele><time>2026-04-12T14:58:39.576Z</time></trkpt><trkpt lat="40.8009519" lon="9.6447366"><ele>25.0</ele><time>2026-04-12T14:58:40.574Z</time></trkpt><trkpt lat="40.8008875" lon="9.6446759"><ele>25.000000000000004</ele><time>2026-04-12T14:58:41.58Z</time></trkpt><trkpt lat="40.8008205" lon="9.6446088"><ele>25.0</ele><time>2026-04-12T14:58:42.592Z</time></trkpt><trkpt lat="40.8007484" lon="9.6445571"><ele>23.666666666666668</ele><time>2026-04-12T14:58:43.577Z</time></trkpt><trkpt lat="40.800675" lon="9.6445422"><ele>22.333333333333336</ele><time>2026-04-12T14:58:44.572Z</time></trkpt><trkpt lat="40.8005962" lon="9.6445469"><ele>21.0</ele><time>2026-04-12T14:58:45.597Z</time></trkpt><trkpt lat="40.8005127" lon="9.6445646"><ele>19.666666666666668</ele><time>2026-04-12T14:58:46.576Z</time></trkpt><trkpt lat="40.8004241" lon="9.6445917"><ele>18.333333333333336</ele><time>2026-04-12T14:58:47.576Z</time></trkpt><trkpt lat="40.8003319" lon="9.6446225"><ele>17.0</ele><time>2026-04-12T14:58:48.573Z</time></trkpt><trkpt lat="40.8002382" lon="9.6446525"><ele>16.0</ele><time>2026-04-12T14:58:49.588Z</time></trkpt><trkpt lat="40.8001472" lon="9.6446828"><ele>15.0</ele><time>2026-04-12T14:58:50.58Z</time></trkpt><trkpt lat="40.8000553" lon="9.6447169"><ele>14.0</ele><time>2026-04-12T14:58:51.574Z</time></trkpt><trkpt lat="40.7999612" lon="9.6447411"><ele>13.0</ele><time>2026-04-12T14:58:52.576Z</time></trkpt><trkpt lat="40.7998664" lon="9.6447557"><ele>12.0</ele><time>2026-04-12T14:58:53.578Z</time></trkpt><trkpt lat="40.7997668" lon="9.6447587"><ele>12.0</ele><time>2026-04-12T14:58:54.575Z</time></trkpt><trkpt lat="40.7996677" lon="9.6447384"><ele>12.0</ele><time>2026-04-12T14:58:55.568Z</time></trkpt><trkpt lat="40.7995669" lon="9.6447021"><ele>12.0</ele><time>2026-04-12T14:58:56.573Z</time></trkpt><trkpt lat="40.7994669" lon="9.6446532"><ele>12.0</ele><time>2026-04-12T14:58:57.573Z</time></trkpt><trkpt lat="40.799368" lon="9.6445982"><ele>12.0</ele><time>2026-04-12T14:58:58.582Z</time></trkpt><trkpt lat="40.7992662" lon="9.6445392"><ele>12.0</ele><time>2026-04-12T14:58:59.57Z</time></trkpt><trkpt lat="40.7991643" lon="9.6444892"><ele>12.0</ele><time>2026-04-12T14:59:00.57Z</time></trkpt><trkpt lat="40.7990673" lon="9.6444565"><ele>12.0</ele><time>2026-04-12T14:59:01.572Z</time></trkpt><trkpt lat="40.7989661" lon="9.6444571"><ele>12.0</ele><time>2026-04-12T14:59:02.571Z</time></trkpt><trkpt lat="40.7988657" lon="9.6444858"><ele>12.0</ele><time>2026-04-12T14:59:03.582Z</time></trkpt><trkpt lat="40.7987719" lon="9.6445428"><ele>12.25</ele><time>2026-04-12T14:59:04.59Z</time></trkpt><trkpt lat="40.7986789" lon="9.644622"><ele>12.5</ele><time>2026-04-12T14:59:05.634Z</time></trkpt><trkpt lat="40.7985895" lon="9.6447205"><ele>12.75</ele><time>2026-04-12T14:59:06.564Z</time></trkpt><trkpt lat="40.7985034" lon="9.6448402"><ele>13.0</ele><time>2026-04-12T14:59:07.57Z</time></trkpt><trkpt lat="40.7984202" lon="9.6449831"><ele>12.333333333333332</ele><time>2026-04-12T14:59:08.568Z</time></trkpt><trkpt lat="40.7983388" lon="9.6451515"><ele>11.666666666666666</ele><time>2026-04-12T14:59:09.569Z</time></trkpt><trkpt lat="40.7982506" lon="9.6453338"><ele>11.0</ele><time>2026-04-12T14:59:10.573Z</time></trkpt><trkpt lat="40.7981629" lon="9.6455164"><ele>10.666666666666666</ele><time>2026-04-12T14:59:11.589Z</time></trkpt><trkpt lat="40.7980777" lon="9.6456954"><ele>10.333333333333334</ele><time>2026-04-12T14:59:12.571Z</time></trkpt><trkpt lat="40.7979944" lon="9.6458781"><ele>10.0</ele><time>2026-04-12T14:59:13.563Z</time></trkpt><trkpt lat="40.7979064" lon="9.6460554"><ele>9.333333333333334</ele><time>2026-04-12T14:59:14.564Z</time></trkpt><trkpt lat="40.7978201" lon="9.6462288"><ele>8.666666666666666</ele><time>2026-04-12T14:59:15.579Z</time></trkpt><trkpt lat="40.7977374" lon="9.6464043"><ele>8.0</ele><time>2026-04-12T14:59:16.575Z</time></trkpt><trkpt lat="40.7976556" lon="9.6465687"><ele>8.0</ele><time>2026-04-12T14:59:17.578Z</time></trkpt><trkpt lat="40.797576" lon="9.6467367"><ele>8.0</ele><time>2026-04-12T14:59:18.563Z</time></trkpt><trkpt lat="40.7974992" lon="9.6469034"><ele>8.0</ele><time>2026-04-12T14:59:19.566Z</time></trkpt><trkpt lat="40.7974229" lon="9.6470664"><ele>8.0</ele><time>2026-04-12T14:59:20.569Z</time></trkpt><trkpt lat="40.7973481" lon="9.6472178"><ele>8.0</ele><time>2026-04-12T14:59:21.564Z</time></trkpt><trkpt lat="40.7972772" lon="9.6473578"><ele>8.0</ele><time>2026-04-12T14:59:22.571Z</time></trkpt><trkpt lat="40.7972077" lon="9.6474874"><ele>8.0</ele><time>2026-04-12T14:59:23.572Z</time></trkpt><trkpt lat="40.797124" lon="9.6475923"><ele>8.0</ele><time>2026-04-12T14:59:24.564Z</time></trkpt><trkpt lat="40.7970184" lon="9.6476964"><ele>8.0</ele><time>2026-04-12T14:59:25.575Z</time></trkpt><trkpt lat="40.7969037" lon="9.6478025"><ele>8.0</ele><time>2026-04-12T14:59:26.564Z</time></trkpt><trkpt lat="40.7967821" lon="9.6479093"><ele>8.0</ele><time>2026-04-12T14:59:27.563Z</time></trkpt><trkpt lat="40.7966514" lon="9.6480239"><ele>8.0</ele><time>2026-04-12T14:59:28.571Z</time></trkpt><trkpt lat="40.7965133" lon="9.648147"><ele>8.0</ele><time>2026-04-12T14:59:29.565Z</time></trkpt><trkpt lat="40.7963696" lon="9.6482679"><ele>8.0</ele><time>2026-04-12T14:59:30.559Z</time></trkpt><trkpt lat="40.7962261" lon="9.648388"><ele>8.0</ele><time>2026-04-12T14:59:31.567Z</time></trkpt><trkpt lat="40.7960787" lon="9.6485103"><ele>8.0</ele><time>2026-04-12T14:59:32.565Z</time></trkpt><trkpt lat="40.7959395" lon="9.6486288"><ele>8.0</ele><time>2026-04-12T14:59:33.56Z</time></trkpt><trkpt lat="40.7958141" lon="9.648743"><ele>8.0</ele><time>2026-04-12T14:59:34.568Z</time></trkpt><trkpt lat="40.7956983" lon="9.648848"><ele>8.0</ele><time>2026-04-12T14:59:35.56Z</time></trkpt><trkpt lat="40.7955863" lon="9.6489453"><ele>8.0</ele><time>2026-04-12T14:59:36.558Z</time></trkpt><trkpt lat="40.7954729" lon="9.6490443"><ele>8.0</ele><time>2026-04-12T14:59:37.564Z</time></trkpt><trkpt lat="40.7953563" lon="9.6491447"><ele>8.0</ele><time>2026-04-12T14:59:38.569Z</time></trkpt><trkpt lat="40.7952383" lon="9.6492426"><ele>8.0</ele><time>2026-04-12T14:59:39.554Z</time></trkpt><trkpt lat="40.7951228" lon="9.64934"><ele>8.0</ele><time>2026-04-12T14:59:40.555Z</time></trkpt><trkpt lat="40.795008" lon="9.6494374"><ele>8.0</ele><time>2026-04-12T14:59:41.563Z</time></trkpt><trkpt lat="40.7948984" lon="9.6495242"><ele>8.0</ele><time>2026-04-12T14:59:42.559Z</time></trkpt><trkpt lat="40.7947967" lon="9.6496078"><ele>8.200000000000001</ele><time>2026-04-12T14:59:43.558Z</time></trkpt><trkpt lat="40.7947025" lon="9.6496908"><ele>8.4</ele><time>2026-04-12T14:59:44.553Z</time></trkpt><trkpt lat="40.7946139" lon="9.6497648"><ele>8.600000000000001</ele><time>2026-04-12T14:59:45.573Z</time></trkpt><trkpt lat="40.7945346" lon="9.6498358"><ele>8.8</ele><time>2026-04-12T14:59:46.554Z</time></trkpt><trkpt lat="40.7944672" lon="9.6498959"><ele>9.0</ele><time>2026-04-12T14:59:47.553Z</time></trkpt><trkpt lat="40.7944061" lon="9.6499442"><ele>9.0</ele><time>2026-04-12T14:59:48.574Z</time></trkpt><trkpt lat="40.7943477" lon="9.6499776"><ele>9.0</ele><time>2026-04-12T14:59:49.561Z</time></trkpt><trkpt lat="40.794265" lon="9.6500609"><ele>9.0</ele><time>2026-04-12T14:59:51.563Z</time></trkpt><trkpt lat="40.7942526" lon="9.6501627"><ele>9.0</ele><time>2026-04-12T14:59:52.559Z</time></trkpt><trkpt lat="40.7942465" lon="9.6502839"><ele>9.0</ele><time>2026-04-12T14:59:53.552Z</time></trkpt><trkpt lat="40.7942282" lon="9.6504238"><ele>9.0</ele><time>2026-04-12T14:59:54.557Z</time></trkpt><trkpt lat="40.7942039" lon="9.6505607"><ele>8.8</ele><time>2026-04-12T14:59:55.554Z</time></trkpt><trkpt lat="40.7941705" lon="9.6506979"><ele>8.600000000000001</ele><time>2026-04-12T14:59:56.551Z</time></trkpt><trkpt lat="40.7941416" lon="9.6508394"><ele>8.4</ele><time>2026-04-12T14:59:57.554Z</time></trkpt><trkpt lat="40.7941087" lon="9.6509829"><ele>8.200000000000001</ele><time>2026-04-12T14:59:58.552Z</time></trkpt><trkpt lat="40.7940747" lon="9.6511251"><ele>8.0</ele><time>2026-04-12T14:59:59.55Z</time></trkpt><trkpt lat="40.7940414" lon="9.6512736"><ele>7.5</ele><time>2026-04-12T15:00:00.554Z</time></trkpt><trkpt lat="40.7940069" lon="9.6514284"><ele>7.0</ele><time>2026-04-12T15:00:01.558Z</time></trkpt><trkpt lat="40.7939728" lon="9.6515868"><ele>6.5</ele><time>2026-04-12T15:00:02.549Z</time></trkpt><trkpt lat="40.7939345" lon="9.651745"><ele>6.0</ele><time>2026-04-12T15:00:03.564Z</time></trkpt><trkpt lat="40.7938958" lon="9.6519073"><ele>6.0</ele><time>2026-04-12T15:00:04.549Z</time></trkpt><trkpt lat="40.7938599" lon="9.652069"><ele>6.0</ele><time>2026-04-12T15:00:05.555Z</time></trkpt><trkpt lat="40.7938268" lon="9.6522337"><ele>6.0</ele><time>2026-04-12T15:00:06.555Z</time></trkpt><trkpt lat="40.7937942" lon="9.6523991"><ele>6.0</ele><time>2026-04-12T15:00:07.553Z</time></trkpt><trkpt lat="40.7937628" lon="9.652564"><ele>6.0</ele><time>2026-04-12T15:00:08.553Z</time></trkpt><trkpt lat="40.7937247" lon="9.652732"><ele>6.0</ele><time>2026-04-12T15:00:09.56Z</time></trkpt><trkpt lat="40.7936825" lon="9.652905"><ele>6.0</ele><time>2026-04-12T15:00:10.551Z</time></trkpt><trkpt lat="40.7936395" lon="9.6530859"><ele>6.0</ele><time>2026-04-12T15:00:11.551Z</time></trkpt><trkpt lat="40.7935963" lon="9.6532676"><ele>5.333333333333333</ele><time>2026-04-12T15:00:12.551Z</time></trkpt><trkpt lat="40.793554" lon="9.6534572"><ele>4.666666666666666</ele><time>2026-04-12T15:00:13.559Z</time></trkpt><trkpt lat="40.7935087" lon="9.6536495"><ele>4.0</ele><time>2026-04-12T15:00:14.549Z</time></trkpt><trkpt lat="40.7934642" lon="9.6538431"><ele>4.0</ele><time>2026-04-12T15:00:15.545Z</time></trkpt><trkpt lat="40.7934166" lon="9.6540393"><ele>4.0</ele><time>2026-04-12T15:00:16.548Z</time></trkpt><trkpt lat="40.793371" lon="9.6542359"><ele>4.0</ele><time>2026-04-12T15:00:17.549Z</time></trkpt><trkpt lat="40.7933269" lon="9.6544383"><ele>3.333333333333333</ele><time>2026-04-12T15:00:18.551Z</time></trkpt><trkpt lat="40.793284" lon="9.6546374"><ele>2.6666666666666665</ele><time>2026-04-12T15:00:19.545Z</time></trkpt><trkpt lat="40.7932419" lon="9.6548392"><ele>2.0</ele><time>2026-04-12T15:00:20.549Z</time></trkpt><trkpt lat="40.7932035" lon="9.6550334"><ele>2.0</ele><time>2026-04-12T15:00:21.549Z</time></trkpt><trkpt lat="40.7931657" lon="9.6552073"><ele>2.0</ele><time>2026-04-12T15:00:22.546Z</time></trkpt><trkpt lat="40.7931304" lon="9.6553645"><ele>2.0</ele><time>2026-04-12T15:00:23.539Z</time></trkpt><trkpt lat="40.7930994" lon="9.6555089"><ele>2.0</ele><time>2026-04-12T15:00:24.542Z</time></trkpt><trkpt lat="40.7930701" lon="9.6556314"><ele>2.2</ele><time>2026-04-12T15:00:25.553Z</time></trkpt><trkpt lat="40.7930407" lon="9.6557415"><ele>2.4000000000000004</ele><time>2026-04-12T15:00:26.543Z</time></trkpt><trkpt lat="40.7930099" lon="9.6558327"><ele>2.5999999999999996</ele><time>2026-04-12T15:00:27.537Z</time></trkpt><trkpt lat="40.7929394" lon="9.65593"><ele>2.8</ele><time>2026-04-12T15:00:29.566Z</time></trkpt><trkpt lat="40.792827" lon="9.6559879"><ele>3.0</ele><time>2026-04-12T15:00:31.538Z</time></trkpt><trkpt lat="40.7927461" lon="9.6560084"><ele>2.75</ele><time>2026-04-12T15:00:32.541Z</time></trkpt><trkpt lat="40.7926539" lon="9.6560205"><ele>2.5</ele><time>2026-04-12T15:00:33.548Z</time></trkpt><trkpt lat="40.7925401" lon="9.6560357"><ele>2.25</ele><time>2026-04-12T15:00:34.541Z</time></trkpt><trkpt lat="40.7924184" lon="9.6560534"><ele>2.0</ele><time>2026-04-12T15:00:35.534Z</time></trkpt><trkpt lat="40.7922892" lon="9.6560684"><ele>2.0</ele><time>2026-04-12T15:00:36.537Z</time></trkpt><trkpt lat="40.7921519" lon="9.6560802"><ele>2.0</ele><time>2026-04-12T15:00:37.537Z</time></trkpt><trkpt lat="40.7920187" lon="9.6560944"><ele>2.0</ele><time>2026-04-12T15:00:38.536Z</time></trkpt><trkpt lat="40.7918917" lon="9.6561061"><ele>2.0</ele><time>2026-04-12T15:00:39.536Z</time></trkpt><trkpt lat="40.7917736" lon="9.6561198"><ele>2.0</ele><time>2026-04-12T15:00:40.538Z</time></trkpt><trkpt lat="40.7916568" lon="9.6561323"><ele>2.0</ele><time>2026-04-12T15:00:41.532Z</time></trkpt><trkpt lat="40.7915392" lon="9.6561438"><ele>2.0</ele><time>2026-04-12T15:00:42.536Z</time></trkpt><trkpt lat="40.7914231" lon="9.6561535"><ele>2.0</ele><time>2026-04-12T15:00:43.531Z</time></trkpt><trkpt lat="40.7913051" lon="9.6561685"><ele>2.0</ele><time>2026-04-12T15:00:44.529Z</time></trkpt><trkpt lat="40.7911918" lon="9.6561918"><ele>2.0</ele><time>2026-04-12T15:00:45.54Z</time></trkpt><trkpt lat="40.7910771" lon="9.6562178"><ele>2.0</ele><time>2026-04-12T15:00:46.531Z</time></trkpt><trkpt lat="40.7909616" lon="9.6562393"><ele>2.0</ele><time>2026-04-12T15:00:47.528Z</time></trkpt><trkpt lat="40.7908386" lon="9.6562634"><ele>2.5</ele><time>2026-04-12T15:00:48.535Z</time></trkpt><trkpt lat="40.7907119" lon="9.6562935"><ele>3.0</ele><time>2026-04-12T15:00:49.532Z</time></trkpt><trkpt lat="40.7905862" lon="9.6563224"><ele>3.5</ele><time>2026-04-12T15:00:50.527Z</time></trkpt><trkpt lat="40.7904556" lon="9.6563553"><ele>4.0</ele><time>2026-04-12T15:00:51.524Z</time></trkpt><trkpt lat="40.7903222" lon="9.6563892"><ele>4.0</ele><time>2026-04-12T15:00:52.529Z</time></trkpt><trkpt lat="40.7901852" lon="9.656428"><ele>4.0</ele><time>2026-04-12T15:00:53.526Z</time></trkpt><trkpt lat="40.7900399" lon="9.6564726"><ele>4.0</ele><time>2026-04-12T15:00:54.523Z</time></trkpt><trkpt lat="40.7898895" lon="9.6565186"><ele>4.0</ele><time>2026-04-12T15:00:55.527Z</time></trkpt><trkpt lat="40.7897331" lon="9.6565681"><ele>4.333333333333333</ele><time>2026-04-12T15:00:56.525Z</time></trkpt><trkpt lat="40.7895703" lon="9.6566216"><ele>4.666666666666667</ele><time>2026-04-12T15:00:57.542Z</time></trkpt><trkpt lat="40.789406" lon="9.6566767"><ele>5.0</ele><time>2026-04-12T15:00:58.522Z</time></trkpt><trkpt lat="40.7892392" lon="9.6567423"><ele>3.666666666666667</ele><time>2026-04-12T15:00:59.521Z</time></trkpt><trkpt lat="40.7890718" lon="9.6568067"><ele>2.3333333333333335</ele><time>2026-04-12T15:01:00.526Z</time></trkpt><trkpt lat="40.7889021" lon="9.6568651"><ele>1.0</ele><time>2026-04-12T15:01:01.526Z</time></trkpt><trkpt lat="40.7887311" lon="9.6569197"><ele>1.0</ele><time>2026-04-12T15:01:02.516Z</time></trkpt><trkpt lat="40.7885598" lon="9.6569711"><ele>1.0</ele><time>2026-04-12T15:01:03.521Z</time></trkpt><trkpt lat="40.7883893" lon="9.6570223"><ele>1.0</ele><time>2026-04-12T15:01:04.523Z</time></trkpt><trkpt lat="40.7882216" lon="9.6570771"><ele>1.0</ele><time>2026-04-12T15:01:05.518Z</time></trkpt><trkpt lat="40.7880547" lon="9.6571258"><ele>1.0</ele><time>2026-04-12T15:01:06.521Z</time></trkpt><trkpt lat="40.7878853" lon="9.6571742"><ele>1.0</ele><time>2026-04-12T15:01:07.52Z</time></trkpt><trkpt lat="40.7877183" lon="9.6572206"><ele>0.6666666666666666</ele><time>2026-04-12T15:01:08.526Z</time></trkpt><trkpt lat="40.7875522" lon="9.6572614"><ele>0.3333333333333333</ele><time>2026-04-12T15:01:09.516Z</time></trkpt><trkpt lat="40.7873795" lon="9.6572895"><ele>0.0</ele><time>2026-04-12T15:01:10.513Z</time></trkpt><trkpt lat="40.7872105" lon="9.6573093"><ele>0.0</ele><time>2026-04-12T15:01:11.558Z</time></trkpt><trkpt lat="40.7870401" lon="9.6573288"><ele>0.0</ele><time>2026-04-12T15:01:12.518Z</time></trkpt><trkpt lat="40.7868696" lon="9.6573511"><ele>0.0</ele><time>2026-04-12T15:01:13.513Z</time></trkpt><trkpt lat="40.7867016" lon="9.6573734"><ele>0.0</ele><time>2026-04-12T15:01:14.522Z</time></trkpt><trkpt lat="40.7865339" lon="9.6573965"><ele>0.0</ele><time>2026-04-12T15:01:15.519Z</time></trkpt><trkpt lat="40.786368" lon="9.6574156"><ele>0.0</ele><time>2026-04-12T15:01:16.614Z</time></trkpt><trkpt lat="40.7862006" lon="9.6574334"><ele>0.0</ele><time>2026-04-12T15:01:17.611Z</time></trkpt><trkpt lat="40.7860376" lon="9.6574508"><ele>0.0</ele><time>2026-04-12T15:01:18.512Z</time></trkpt><trkpt lat="40.7858732" lon="9.6574672"><ele>0.0</ele><time>2026-04-12T15:01:19.613Z</time></trkpt><trkpt lat="40.7857093" lon="9.6574806"><ele>0.6666666666666666</ele><time>2026-04-12T15:01:20.616Z</time></trkpt><trkpt lat="40.7855452" lon="9.6574976"><ele>1.3333333333333333</ele><time>2026-04-12T15:01:21.618Z</time></trkpt><trkpt lat="40.7853884" lon="9.6575097"><ele>2.0</ele><time>2026-04-12T15:01:22.612Z</time></trkpt><trkpt lat="40.7852388" lon="9.6575154"><ele>2.0</ele><time>2026-04-12T15:01:23.607Z</time></trkpt><trkpt lat="40.7850949" lon="9.6575174"><ele>2.0</ele><time>2026-04-12T15:01:24.62Z</time></trkpt><trkpt lat="40.7849569" lon="9.6575157"><ele>2.0</ele><time>2026-04-12T15:01:25.612Z</time></trkpt><trkpt lat="40.7848278" lon="9.6575028"><ele>2.0</ele><time>2026-04-12T15:01:26.605Z</time></trkpt><trkpt lat="40.7846976" lon="9.6574946"><ele>2.0</ele><time>2026-04-12T15:01:27.617Z</time></trkpt><trkpt lat="40.7845609" lon="9.6575011"><ele>2.0</ele><time>2026-04-12T15:01:28.607Z</time></trkpt><trkpt lat="40.7844136" lon="9.657524"><ele>2.0</ele><time>2026-04-12T15:01:29.602Z</time></trkpt><trkpt lat="40.7842702" lon="9.6575489"><ele>2.0</ele><time>2026-04-12T15:01:30.609Z</time></trkpt><trkpt lat="40.7841312" lon="9.6575701"><ele>2.0</ele><time>2026-04-12T15:01:31.606Z</time></trkpt><trkpt lat="40.7840025" lon="9.6575857"><ele>2.0</ele><time>2026-04-12T15:01:32.601Z</time></trkpt><trkpt lat="40.7838798" lon="9.6575949"><ele>2.0</ele><time>2026-04-12T15:01:33.623Z</time></trkpt><trkpt lat="40.7837585" lon="9.6576011"><ele>2.0</ele><time>2026-04-12T15:01:34.603Z</time></trkpt><trkpt lat="40.7836348" lon="9.6576127"><ele>2.5</ele><time>2026-04-12T15:01:35.603Z</time></trkpt><trkpt lat="40.7835101" lon="9.6576217"><ele>3.0</ele><time>2026-04-12T15:01:36.604Z</time></trkpt><trkpt lat="40.7833803" lon="9.6576337"><ele>3.5</ele><time>2026-04-12T15:01:37.616Z</time></trkpt><trkpt lat="40.7832564" lon="9.6576462"><ele>4.0</ele><time>2026-04-12T15:01:38.605Z</time></trkpt><trkpt lat="40.7831397" lon="9.6576545"><ele>4.0</ele><time>2026-04-12T15:01:39.599Z</time></trkpt><trkpt lat="40.783025" lon="9.6576633"><ele>4.0</ele><time>2026-04-12T15:01:40.602Z</time></trkpt><trkpt lat="40.7829151" lon="9.6576709"><ele>4.0</ele><time>2026-04-12T15:01:41.617Z</time></trkpt><trkpt lat="40.7828126" lon="9.65768"><ele>4.0</ele><time>2026-04-12T15:01:42.606Z</time></trkpt><trkpt lat="40.782714" lon="9.6576889"><ele>4.0</ele><time>2026-04-12T15:01:43.6Z</time></trkpt><trkpt lat="40.7826152" lon="9.657693"><ele>3.9999999999999996</ele><time>2026-04-12T15:01:44.601Z</time></trkpt><trkpt lat="40.7825152" lon="9.6576968"><ele>4.0</ele><time>2026-04-12T15:01:45.605Z</time></trkpt><trkpt lat="40.7824158" lon="9.6577035"><ele>4.0</ele><time>2026-04-12T15:01:46.604Z</time></trkpt><trkpt lat="40.7823224" lon="9.6577107"><ele>4.0</ele><time>2026-04-12T15:01:47.602Z</time></trkpt><trkpt lat="40.7822447" lon="9.6577147"><ele>3.9999999999999996</ele><time>2026-04-12T15:01:48.62Z</time></trkpt><trkpt lat="40.7821726" lon="9.6577225"><ele>4.0</ele><time>2026-04-12T15:01:49.616Z</time></trkpt><trkpt lat="40.7821049" lon="9.6577267"><ele>3.9999999999999996</ele><time>2026-04-12T15:01:50.59Z</time></trkpt><trkpt lat="40.7820414" lon="9.6577412"><ele>4.0</ele><time>2026-04-12T15:01:51.606Z</time></trkpt><trkpt lat="40.7819316" lon="9.6577892"><ele>4.0</ele><time>2026-04-12T15:01:53.601Z</time></trkpt><trkpt lat="40.7818522" lon="9.6578209"><ele>4.0</ele><time>2026-04-12T15:01:55.605Z</time></trkpt><trkpt lat="40.7817893" lon="9.6578167"><ele>3.9999999999999996</ele><time>2026-04-12T15:01:58.597Z</time></trkpt><trkpt lat="40.7817178" lon="9.6578348"><ele>4.0</ele><time>2026-04-12T15:03:33.628Z</time></trkpt><trkpt lat="40.7816257" lon="9.6578602"><ele>3.9999999999999996</ele><time>2026-04-12T15:03:35.577Z</time></trkpt><trkpt lat="40.7815411" lon="9.6578509"><ele>4.0</ele><time>2026-04-12T15:03:37.578Z</time></trkpt><trkpt lat="40.781474" lon="9.6578284"><ele>4.0</ele><time>2026-04-12T15:03:40.577Z</time></trkpt><trkpt lat="40.7814048" lon="9.657815"><ele>4.0</ele><time>2026-04-12T15:03:55.606Z</time></trkpt><trkpt lat="40.7812804" lon="9.6577859"><ele>3.9999999999999996</ele><time>2026-04-12T15:03:57.566Z</time></trkpt><trkpt lat="40.7811922" lon="9.6577701"><ele>4.0</ele><time>2026-04-12T15:03:58.587Z</time></trkpt><trkpt lat="40.781099" lon="9.6577665"><ele>4.5</ele><time>2026-04-12T15:03:59.583Z</time></trkpt><trkpt lat="40.7809913" lon="9.6577598"><ele>5.0</ele><time>2026-04-12T15:04:00.565Z</time></trkpt><trkpt lat="40.780875" lon="9.6577547"><ele>5.5</ele><time>2026-04-12T15:04:01.566Z</time></trkpt><trkpt lat="40.7807603" lon="9.6577396"><ele>6.0</ele><time>2026-04-12T15:04:02.569Z</time></trkpt><trkpt lat="40.7806378" lon="9.65772"><ele>6.0</ele><time>2026-04-12T15:04:03.563Z</time></trkpt><trkpt lat="40.7805182" lon="9.6576999"><ele>6.0</ele><time>2026-04-12T15:04:04.56Z</time></trkpt><trkpt lat="40.7804069" lon="9.6576777"><ele>6.0</ele><time>2026-04-12T15:04:05.565Z</time></trkpt><trkpt lat="40.7802997" lon="9.6576559"><ele>6.0</ele><time>2026-04-12T15:04:06.567Z</time></trkpt><trkpt lat="40.780194" lon="9.6576356"><ele>6.0</ele><time>2026-04-12T15:04:07.561Z</time></trkpt><trkpt lat="40.780089" lon="9.6576159"><ele>6.199999999999999</ele><time>2026-04-12T15:04:08.567Z</time></trkpt><trkpt lat="40.779981" lon="9.6575959"><ele>6.3999999999999995</ele><time>2026-04-12T15:04:09.561Z</time></trkpt><trkpt lat="40.7798755" lon="9.6575723"><ele>6.6</ele><time>2026-04-12T15:04:10.578Z</time></trkpt><trkpt lat="40.7797665" lon="9.6575397"><ele>6.8</ele><time>2026-04-12T15:04:11.562Z</time></trkpt><trkpt lat="40.7796623" lon="9.6575161"><ele>7.0</ele><time>2026-04-12T15:04:12.563Z</time></trkpt><trkpt lat="40.7795661" lon="9.6574994"><ele>7.0</ele><time>2026-04-12T15:04:13.57Z</time></trkpt><trkpt lat="40.7794724" lon="9.6574799"><ele>6.999999999999999</ele><time>2026-04-12T15:04:14.56Z</time></trkpt><trkpt lat="40.7793795" lon="9.6574592"><ele>6.999999999999999</ele><time>2026-04-12T15:04:15.559Z</time></trkpt><trkpt lat="40.7792846" lon="9.657439"><ele>7.0</ele><time>2026-04-12T15:04:16.557Z</time></trkpt><trkpt lat="40.7791872" lon="9.6574203"><ele>7.0</ele><time>2026-04-12T15:04:17.58Z</time></trkpt><trkpt lat="40.779093" lon="9.6574039"><ele>7.0</ele><time>2026-04-12T15:04:18.564Z</time></trkpt><trkpt lat="40.7790049" lon="9.6573867"><ele>6.999999999999999</ele><time>2026-04-12T15:04:19.552Z</time></trkpt><trkpt lat="40.7789196" lon="9.6573734"><ele>6.999999999999999</ele><time>2026-04-12T15:04:20.565Z</time></trkpt><trkpt lat="40.7788312" lon="9.6573605"><ele>7.0</ele><time>2026-04-12T15:04:21.564Z</time></trkpt><trkpt lat="40.7787366" lon="9.6573454"><ele>7.0</ele><time>2026-04-12T15:04:22.568Z</time></trkpt><trkpt lat="40.77864" lon="9.6573257"><ele>7.0</ele><time>2026-04-12T15:04:23.562Z</time></trkpt><trkpt lat="40.7785404" lon="9.6573066"><ele>6.999999999999999</ele><time>2026-04-12T15:04:24.553Z</time></trkpt><trkpt lat="40.7784402" lon="9.6572858"><ele>6.999999999999999</ele><time>2026-04-12T15:04:25.559Z</time></trkpt><trkpt lat="40.7783398" lon="9.657267"><ele>7.0</ele><time>2026-04-12T15:04:26.558Z</time></trkpt><trkpt lat="40.7782421" lon="9.6572485"><ele>7.0</ele><time>2026-04-12T15:04:27.558Z</time></trkpt><trkpt lat="40.7781425" lon="9.6572299"><ele>7.0</ele><time>2026-04-12T15:04:28.555Z</time></trkpt><trkpt lat="40.7780468" lon="9.6572112"><ele>6.999999999999999</ele><time>2026-04-12T15:04:29.561Z</time></trkpt><trkpt lat="40.7779513" lon="9.6571914"><ele>6.999999999999999</ele><time>2026-04-12T15:04:30.562Z</time></trkpt><trkpt lat="40.7778523" lon="9.65717"><ele>7.0</ele><time>2026-04-12T15:04:31.549Z</time></trkpt><trkpt lat="40.7777577" lon="9.6571508"><ele>7.0</ele><time>2026-04-12T15:04:32.564Z</time></trkpt><trkpt lat="40.7776641" lon="9.6571309"><ele>7.0</ele><time>2026-04-12T15:04:33.563Z</time></trkpt><trkpt lat="40.7775675" lon="9.6571112"><ele>6.999999999999999</ele><time>2026-04-12T15:04:34.558Z</time></trkpt><trkpt lat="40.7774715" lon="9.6570897"><ele>6.999999999999999</ele><time>2026-04-12T15:04:35.549Z</time></trkpt><trkpt lat="40.777378" lon="9.6570693"><ele>7.0</ele><time>2026-04-12T15:04:36.553Z</time></trkpt><trkpt lat="40.7772846" lon="9.6570499"><ele>7.0</ele><time>2026-04-12T15:04:37.549Z</time></trkpt><trkpt lat="40.7771946" lon="9.6570312"><ele>7.000000000000001</ele><time>2026-04-12T15:04:38.549Z</time></trkpt><trkpt lat="40.7771033" lon="9.6570126"><ele>7.0</ele><time>2026-04-12T15:04:39.555Z</time></trkpt><trkpt lat="40.7770173" lon="9.6569934"><ele>7.0</ele><time>2026-04-12T15:04:40.55Z</time></trkpt><trkpt lat="40.7769364" lon="9.6569783"><ele>7.0</ele><time>2026-04-12T15:04:41.549Z</time></trkpt><trkpt lat="40.7768631" lon="9.6569678"><ele>7.000000000000001</ele><time>2026-04-12T15:04:42.554Z</time></trkpt><trkpt lat="40.7767943" lon="9.6569562"><ele>7.0</ele><time>2026-04-12T15:04:43.556Z</time></trkpt><trkpt lat="40.7766881" lon="9.6569377"><ele>7.75</ele><time>2026-04-12T15:04:45.55Z</time></trkpt><trkpt lat="40.7766014" lon="9.6569144"><ele>8.5</ele><time>2026-04-12T15:04:47.56Z</time></trkpt><trkpt lat="40.7764724" lon="9.6568732"><ele>9.25</ele><time>2026-04-12T15:04:49.543Z</time></trkpt><trkpt lat="40.7763661" lon="9.6568379"><ele>10.0</ele><time>2026-04-12T15:04:50.548Z</time></trkpt><trkpt lat="40.7762478" lon="9.6567977"><ele>10.0</ele><time>2026-04-12T15:04:51.552Z</time></trkpt><trkpt lat="40.7761201" lon="9.6567559"><ele>10.0</ele><time>2026-04-12T15:04:52.541Z</time></trkpt><trkpt lat="40.7759862" lon="9.6567081"><ele>10.0</ele><time>2026-04-12T15:04:53.544Z</time></trkpt><trkpt lat="40.7758503" lon="9.6566658"><ele>10.0</ele><time>2026-04-12T15:04:54.55Z</time></trkpt><trkpt lat="40.7757124" lon="9.6566225"><ele>10.0</ele><time>2026-04-12T15:04:55.565Z</time></trkpt><trkpt lat="40.7755729" lon="9.6565822"><ele>10.0</ele><time>2026-04-12T15:04:56.545Z</time></trkpt><trkpt lat="40.7754365" lon="9.6565363"><ele>10.0</ele><time>2026-04-12T15:04:57.543Z</time></trkpt><trkpt lat="40.7753044" lon="9.6564912"><ele>10.0</ele><time>2026-04-12T15:04:58.545Z</time></trkpt><trkpt lat="40.7751704" lon="9.6564485"><ele>10.0</ele><time>2026-04-12T15:04:59.55Z</time></trkpt><trkpt lat="40.7750383" lon="9.6564047"><ele>10.0</ele><time>2026-04-12T15:05:00.54Z</time></trkpt><trkpt lat="40.7749032" lon="9.6563631"><ele>10.0</ele><time>2026-04-12T15:05:01.545Z</time></trkpt><trkpt lat="40.7747667" lon="9.6563208"><ele>10.0</ele><time>2026-04-12T15:05:02.548Z</time></trkpt><trkpt lat="40.774628" lon="9.65627"><ele>10.0</ele><time>2026-04-12T15:05:03.548Z</time></trkpt><trkpt lat="40.7744824" lon="9.6562199"><ele>10.0</ele><time>2026-04-12T15:05:04.54Z</time></trkpt><trkpt lat="40.7743279" lon="9.6561692"><ele>10.0</ele><time>2026-04-12T15:05:05.554Z</time></trkpt><trkpt lat="40.7741727" lon="9.6561158"><ele>11.333333333333334</ele><time>2026-04-12T15:05:06.545Z</time></trkpt><trkpt lat="40.7740161" lon="9.6560628"><ele>12.666666666666668</ele><time>2026-04-12T15:05:07.55Z</time></trkpt><trkpt lat="40.7738578" lon="9.6560048"><ele>14.0</ele><time>2026-04-12T15:05:08.553Z</time></trkpt><trkpt lat="40.7737005" lon="9.6559417"><ele>14.0</ele><time>2026-04-12T15:05:09.545Z</time></trkpt><trkpt lat="40.7735457" lon="9.6558739"><ele>14.0</ele><time>2026-04-12T15:05:10.549Z</time></trkpt><trkpt lat="40.7733861" lon="9.6557945"><ele>14.0</ele><time>2026-04-12T15:05:11.536Z</time></trkpt><trkpt lat="40.7732183" lon="9.6557125"><ele>13.666666666666668</ele><time>2026-04-12T15:05:12.539Z</time></trkpt><trkpt lat="40.7730478" lon="9.6556296"><ele>13.333333333333332</ele><time>2026-04-12T15:05:13.535Z</time></trkpt><trkpt lat="40.7728738" lon="9.655544"><ele>13.0</ele><time>2026-04-12T15:05:14.541Z</time></trkpt><trkpt lat="40.7727014" lon="9.6554556"><ele>13.666666666666666</ele><time>2026-04-12T15:05:15.541Z</time></trkpt><trkpt lat="40.7725258" lon="9.6553632"><ele>14.333333333333332</ele><time>2026-04-12T15:05:16.535Z</time></trkpt><trkpt lat="40.7723464" lon="9.6552677"><ele>15.0</ele><time>2026-04-12T15:05:17.531Z</time></trkpt><trkpt lat="40.7721632" lon="9.6551722"><ele>15.0</ele><time>2026-04-12T15:05:18.536Z</time></trkpt><trkpt lat="40.7719813" lon="9.6550774"><ele>15.0</ele><time>2026-04-12T15:05:19.538Z</time></trkpt><trkpt lat="40.7717993" lon="9.6549832"><ele>15.0</ele><time>2026-04-12T15:05:20.543Z</time></trkpt><trkpt lat="40.7716182" lon="9.6548907"><ele>15.666666666666668</ele><time>2026-04-12T15:05:21.532Z</time></trkpt><trkpt lat="40.7714394" lon="9.6547979"><ele>16.333333333333336</ele><time>2026-04-12T15:05:22.535Z</time></trkpt><trkpt lat="40.7712657" lon="9.6547054"><ele>17.0</ele><time>2026-04-12T15:05:23.532Z</time></trkpt><trkpt lat="40.7710942" lon="9.6546149"><ele>16.666666666666668</ele><time>2026-04-12T15:05:24.53Z</time></trkpt><trkpt lat="40.770923" lon="9.654526"><ele>16.333333333333332</ele><time>2026-04-12T15:05:25.539Z</time></trkpt><trkpt lat="40.7707564" lon="9.6544418"><ele>16.0</ele><time>2026-04-12T15:05:26.535Z</time></trkpt><trkpt lat="40.7705946" lon="9.6543594"><ele>17.333333333333332</ele><time>2026-04-12T15:05:27.532Z</time></trkpt><trkpt lat="40.7704411" lon="9.6542869"><ele>18.666666666666668</ele><time>2026-04-12T15:05:28.529Z</time></trkpt><trkpt lat="40.7702912" lon="9.6542356"><ele>20.0</ele><time>2026-04-12T15:05:29.539Z</time></trkpt><trkpt lat="40.7701331" lon="9.654213"><ele>20.666666666666668</ele><time>2026-04-12T15:05:30.547Z</time></trkpt><trkpt lat="40.7699707" lon="9.6542167"><ele>21.333333333333332</ele><time>2026-04-12T15:05:31.534Z</time></trkpt><trkpt lat="40.7698023" lon="9.654238"><ele>22.0</ele><time>2026-04-12T15:05:32.534Z</time></trkpt><trkpt lat="40.7696321" lon="9.6542609"><ele>22.0</ele><time>2026-04-12T15:05:33.535Z</time></trkpt><trkpt lat="40.7694607" lon="9.6542799"><ele>22.0</ele><time>2026-04-12T15:05:34.541Z</time></trkpt><trkpt lat="40.7692887" lon="9.6542952"><ele>22.0</ele><time>2026-04-12T15:05:35.539Z</time></trkpt><trkpt lat="40.7691121" lon="9.6543107"><ele>23.333333333333332</ele><time>2026-04-12T15:05:36.531Z</time></trkpt><trkpt lat="40.7689324" lon="9.6543306"><ele>24.666666666666664</ele><time>2026-04-12T15:05:37.534Z</time></trkpt><trkpt lat="40.7687531" lon="9.6543491"><ele>26.0</ele><time>2026-04-12T15:05:38.535Z</time></trkpt><trkpt lat="40.7685764" lon="9.6543722"><ele>27.0</ele><time>2026-04-12T15:05:39.529Z</time></trkpt><trkpt lat="40.7684016" lon="9.6543933"><ele>28.0</ele><time>2026-04-12T15:05:40.528Z</time></trkpt><trkpt lat="40.7682267" lon="9.6544113"><ele>29.0</ele><time>2026-04-12T15:05:41.53Z</time></trkpt><trkpt lat="40.768052" lon="9.6544316"><ele>29.0</ele><time>2026-04-12T15:05:42.537Z</time></trkpt><trkpt lat="40.76788" lon="9.65445"><ele>29.0</ele><time>2026-04-12T15:05:43.528Z</time></trkpt><trkpt lat="40.767708" lon="9.654467"><ele>29.0</ele><time>2026-04-12T15:05:44.523Z</time></trkpt><trkpt lat="40.767539" lon="9.6544819"><ele>29.666666666666664</ele><time>2026-04-12T15:05:45.524Z</time></trkpt><trkpt lat="40.7673686" lon="9.6544903"><ele>30.333333333333336</ele><time>2026-04-12T15:05:46.54Z</time></trkpt><trkpt lat="40.7671982" lon="9.6544928"><ele>31.0</ele><time>2026-04-12T15:05:47.532Z</time></trkpt><trkpt lat="40.7670245" lon="9.654487"><ele>31.0</ele><time>2026-04-12T15:05:48.521Z</time></trkpt><trkpt lat="40.7668513" lon="9.6544736"><ele>31.0</ele><time>2026-04-12T15:05:49.524Z</time></trkpt><trkpt lat="40.7666898" lon="9.6544574"><ele>31.0</ele><time>2026-04-12T15:05:50.532Z</time></trkpt><trkpt lat="40.7665425" lon="9.6544401"><ele>31.25</ele><time>2026-04-12T15:05:51.537Z</time></trkpt><trkpt lat="40.7663994" lon="9.6544246"><ele>31.5</ele><time>2026-04-12T15:05:52.524Z</time></trkpt><trkpt lat="40.7662567" lon="9.6544073"><ele>31.75</ele><time>2026-04-12T15:05:53.521Z</time></trkpt><trkpt lat="40.7661168" lon="9.6543914"><ele>32.0</ele><time>2026-04-12T15:05:54.522Z</time></trkpt><trkpt lat="40.7659861" lon="9.6543754"><ele>31.999999999999996</ele><time>2026-04-12T15:05:55.522Z</time></trkpt><trkpt lat="40.7658747" lon="9.6543578"><ele>32.0</ele><time>2026-04-12T15:05:56.521Z</time></trkpt><trkpt lat="40.7657943" lon="9.6543432"><ele>32.0</ele><time>2026-04-12T15:05:57.529Z</time></trkpt><trkpt lat="40.7657073" lon="9.6543248"><ele>32.0</ele><time>2026-04-12T15:05:59.517Z</time></trkpt><trkpt lat="40.7656402" lon="9.6542908"><ele>31.999999999999996</ele><time>2026-04-12T15:12:29.564Z</time></trkpt><trkpt lat="40.7656305" lon="9.6544019"><ele>32.0</ele><time>2026-04-12T15:12:39.569Z</time></trkpt><trkpt lat="40.7656829" lon="9.6544599"><ele>31.857142857142854</ele><time>2026-04-12T15:12:41.567Z</time></trkpt><trkpt lat="40.7657459" lon="9.6544968"><ele>31.71428571428571</ele><time>2026-04-12T15:12:43.559Z</time></trkpt><trkpt lat="40.7658078" lon="9.6545409"><ele>31.57142857142857</ele><time>2026-04-12T15:12:45.549Z</time></trkpt><trkpt lat="40.7658651" lon="9.6546072"><ele>31.42857142857143</ele><time>2026-04-12T15:12:48.56Z</time></trkpt><trkpt lat="40.7659289" lon="9.6546086"><ele>31.28571428571429</ele><time>2026-04-12T15:12:51.551Z</time></trkpt><trkpt lat="40.7660032" lon="9.6546084"><ele>31.142857142857146</ele><time>2026-04-12T15:14:11.534Z</time></trkpt><trkpt lat="40.7660749" lon="9.6545849"><ele>31.0</ele><time>2026-04-12T15:14:13.519Z</time></trkpt><trkpt lat="40.7661465" lon="9.6545597"><ele>31.000000000000004</ele><time>2026-04-12T15:14:16.514Z</time></trkpt><trkpt lat="40.766205" lon="9.6545284"><ele>31.0</ele><time>2026-04-12T15:14:21.53Z</time></trkpt><trkpt lat="40.7661976" lon="9.654429"><ele>31.0</ele><time>2026-04-12T15:14:26.527Z</time></trkpt><trkpt lat="40.7661056" lon="9.6543833"><ele>31.0</ele><time>2026-04-12T15:14:28.508Z</time></trkpt><trkpt lat="40.7660373" lon="9.6543824"><ele>31.000000000000004</ele><time>2026-04-12T15:14:29.506Z</time></trkpt><trkpt lat="40.7659561" lon="9.6543718"><ele>31.0</ele><time>2026-04-12T15:14:30.507Z</time></trkpt><trkpt lat="40.7658706" lon="9.6543632"><ele>31.200000000000003</ele><time>2026-04-12T15:14:31.516Z</time></trkpt><trkpt lat="40.7657857" lon="9.6543532"><ele>31.400000000000002</ele><time>2026-04-12T15:14:32.616Z</time></trkpt><trkpt lat="40.7656928" lon="9.6543446"><ele>31.6</ele><time>2026-04-12T15:14:33.618Z</time></trkpt><trkpt lat="40.7655984" lon="9.654333"><ele>31.8</ele><time>2026-04-12T15:14:34.618Z</time></trkpt><trkpt lat="40.7655117" lon="9.6543264"><ele>32.0</ele><time>2026-04-12T15:14:35.624Z</time></trkpt><trkpt lat="40.7653486" lon="9.6543159"><ele>31.999999999999996</ele><time>2026-04-12T15:14:37.508Z</time></trkpt><trkpt lat="40.7652777" lon="9.654311"><ele>32.0</ele><time>2026-04-12T15:14:38.624Z</time></trkpt><trkpt lat="40.7651609" lon="9.6542971"><ele>32.0</ele><time>2026-04-12T15:14:40.613Z</time></trkpt><trkpt lat="40.7650623" lon="9.6542834"><ele>32.0</ele><time>2026-04-12T15:14:42.605Z</time></trkpt><trkpt lat="40.7649925" lon="9.6542738"><ele>31.999999999999996</ele><time>2026-04-12T15:14:44.62Z</time></trkpt><trkpt lat="40.7649243" lon="9.6542582"><ele>32.0</ele><time>2026-04-12T15:14:48.611Z</time></trkpt><trkpt lat="40.7648242" lon="9.6542632"><ele>32.0</ele><time>2026-04-12T15:15:06.601Z</time></trkpt><trkpt lat="40.7647075" lon="9.6542592"><ele>32.0</ele><time>2026-04-12T15:15:08.6Z</time></trkpt><trkpt lat="40.7646351" lon="9.654257"><ele>32.0</ele><time>2026-04-12T15:15:09.595Z</time></trkpt><trkpt lat="40.7645553" lon="9.6542516"><ele>32.0</ele><time>2026-04-12T15:15:10.595Z</time></trkpt><trkpt lat="40.7644641" lon="9.6542471"><ele>32.0</ele><time>2026-04-12T15:15:11.596Z</time></trkpt><trkpt lat="40.7643657" lon="9.6542397"><ele>31.200000000000003</ele><time>2026-04-12T15:15:12.601Z</time></trkpt><trkpt lat="40.764267" lon="9.6542303"><ele>30.400000000000002</ele><time>2026-04-12T15:15:13.599Z</time></trkpt><trkpt lat="40.7641619" lon="9.6542171"><ele>29.599999999999998</ele><time>2026-04-12T15:15:14.591Z</time></trkpt><trkpt lat="40.7640564" lon="9.6542052"><ele>28.799999999999997</ele><time>2026-04-12T15:15:15.594Z</time></trkpt><trkpt lat="40.7639482" lon="9.6541941"><ele>28.0</ele><time>2026-04-12T15:15:16.592Z</time></trkpt><trkpt lat="40.7638374" lon="9.654185"><ele>28.0</ele><time>2026-04-12T15:15:17.587Z</time></trkpt><trkpt lat="40.763726" lon="9.6541802"><ele>27.999999999999996</ele><time>2026-04-12T15:15:18.595Z</time></trkpt><trkpt lat="40.7636169" lon="9.654169"><ele>27.999999999999996</ele><time>2026-04-12T15:15:19.59Z</time></trkpt><trkpt lat="40.7635069" lon="9.654156"><ele>28.0</ele><time>2026-04-12T15:15:20.589Z</time></trkpt><trkpt lat="40.7633969" lon="9.6541443"><ele>28.0</ele><time>2026-04-12T15:15:21.596Z</time></trkpt><trkpt lat="40.7632861" lon="9.6541319"><ele>27.4</ele><time>2026-04-12T15:15:22.599Z</time></trkpt><trkpt lat="40.7631759" lon="9.6541198"><ele>26.799999999999997</ele><time>2026-04-12T15:15:23.587Z</time></trkpt><trkpt lat="40.7630668" lon="9.654108"><ele>26.2</ele><time>2026-04-12T15:15:24.59Z</time></trkpt><trkpt lat="40.7629547" lon="9.6540968"><ele>25.6</ele><time>2026-04-12T15:15:25.589Z</time></trkpt><trkpt lat="40.7628395" lon="9.6540865"><ele>25.0</ele><time>2026-04-12T15:15:26.587Z</time></trkpt><trkpt lat="40.7627191" lon="9.6540703"><ele>26.0</ele><time>2026-04-12T15:15:27.586Z</time></trkpt><trkpt lat="40.7625899" lon="9.6540441"><ele>27.0</ele><time>2026-04-12T15:15:28.59Z</time></trkpt><trkpt lat="40.762454" lon="9.6540154"><ele>28.0</ele><time>2026-04-12T15:15:29.589Z</time></trkpt><trkpt lat="40.7623103" lon="9.6539961"><ele>29.0</ele><time>2026-04-12T15:15:30.586Z</time></trkpt><trkpt lat="40.7621638" lon="9.6539813"><ele>29.0</ele><time>2026-04-12T15:15:31.584Z</time></trkpt><trkpt lat="40.7620179" lon="9.6539611"><ele>29.0</ele><time>2026-04-12T15:15:32.585Z</time></trkpt><trkpt lat="40.761871" lon="9.6539397"><ele>29.0</ele><time>2026-04-12T15:15:33.583Z</time></trkpt><trkpt lat="40.7617257" lon="9.6539146"><ele>29.0</ele><time>2026-04-12T15:15:34.585Z</time></trkpt><trkpt lat="40.7615803" lon="9.653883"><ele>29.25</ele><time>2026-04-12T15:15:35.581Z</time></trkpt><trkpt lat="40.761439" lon="9.6538395"><ele>29.5</ele><time>2026-04-12T15:15:36.582Z</time></trkpt><trkpt lat="40.7613032" lon="9.6537903"><ele>29.75</ele><time>2026-04-12T15:15:37.58Z</time></trkpt><trkpt lat="40.7611792" lon="9.6537403"><ele>30.0</ele><time>2026-04-12T15:15:38.588Z</time></trkpt><trkpt lat="40.7610672" lon="9.6536867"><ele>29.8</ele><time>2026-04-12T15:15:39.579Z</time></trkpt><trkpt lat="40.7609699" lon="9.6536237"><ele>29.6</ele><time>2026-04-12T15:15:40.583Z</time></trkpt><trkpt lat="40.7609011" lon="9.6535611"><ele>29.4</ele><time>2026-04-12T15:15:41.578Z</time></trkpt><trkpt lat="40.7608191" lon="9.6534655"><ele>29.2</ele><time>2026-04-12T15:15:43.573Z</time></trkpt><trkpt lat="40.7607579" lon="9.6533686"><ele>29.0</ele><time>2026-04-12T15:15:45.582Z</time></trkpt><trkpt lat="40.7606758" lon="9.6532755"><ele>29.0</ele><time>2026-04-12T15:15:47.566Z</time></trkpt><trkpt lat="40.7605607" lon="9.653266"><ele>29.0</ele><time>2026-04-12T15:15:49.596Z</time></trkpt><trkpt lat="40.7604692" lon="9.6533591"><ele>29.0</ele><time>2026-04-12T15:15:51.573Z</time></trkpt><trkpt lat="40.7604496" lon="9.6534437"><ele>29.0</ele><time>2026-04-12T15:15:52.574Z</time></trkpt><trkpt lat="40.7604425" lon="9.653548"><ele>29.0</ele><time>2026-04-12T15:15:53.568Z</time></trkpt><trkpt lat="40.7604407" lon="9.6536737"><ele>29.0</ele><time>2026-04-12T15:15:54.573Z</time></trkpt><trkpt lat="40.7604426" lon="9.6538219"><ele>29.0</ele><time>2026-04-12T15:15:55.57Z</time></trkpt><trkpt lat="40.7604421" lon="9.6539901"><ele>29.0</ele><time>2026-04-12T15:15:56.571Z</time></trkpt><trkpt lat="40.7604484" lon="9.6541607"><ele>29.0</ele><time>2026-04-12T15:15:57.576Z</time></trkpt><trkpt lat="40.7604716" lon="9.6543398"><ele>28.25</ele><time>2026-04-12T15:15:58.568Z</time></trkpt><trkpt lat="40.760504" lon="9.6545251"><ele>27.5</ele><time>2026-04-12T15:15:59.572Z</time></trkpt><trkpt lat="40.7605488" lon="9.654712"><ele>26.75</ele><time>2026-04-12T15:16:00.567Z</time></trkpt><trkpt lat="40.7606014" lon="9.654898"><ele>26.0</ele><time>2026-04-12T15:16:01.563Z</time></trkpt><trkpt lat="40.7606454" lon="9.6550793"><ele>26.0</ele><time>2026-04-12T15:16:02.581Z</time></trkpt><trkpt lat="40.7606924" lon="9.6552637"><ele>26.0</ele><time>2026-04-12T15:16:03.568Z</time></trkpt><trkpt lat="40.7607419" lon="9.6554449"><ele>26.0</ele><time>2026-04-12T15:16:04.562Z</time></trkpt><trkpt lat="40.7607941" lon="9.6556298"><ele>26.0</ele><time>2026-04-12T15:16:05.566Z</time></trkpt><trkpt lat="40.7608424" lon="9.6558086"><ele>26.5</ele><time>2026-04-12T15:16:06.562Z</time></trkpt><trkpt lat="40.7608857" lon="9.6559705"><ele>27.0</ele><time>2026-04-12T15:16:07.569Z</time></trkpt><trkpt lat="40.7609212" lon="9.6561315"><ele>27.5</ele><time>2026-04-12T15:16:08.562Z</time></trkpt><trkpt lat="40.7609386" lon="9.6562938"><ele>28.0</ele><time>2026-04-12T15:16:09.567Z</time></trkpt><trkpt lat="40.7609336" lon="9.6564663"><ele>28.5</ele><time>2026-04-12T15:16:10.572Z</time></trkpt><trkpt lat="40.7609153" lon="9.6566425"><ele>29.0</ele><time>2026-04-12T15:16:11.561Z</time></trkpt><trkpt lat="40.7608964" lon="9.656822"><ele>29.5</ele><time>2026-04-12T15:16:12.546Z</time></trkpt><trkpt lat="40.7608792" lon="9.6570035"><ele>30.0</ele><time>2026-04-12T15:16:13.582Z</time></trkpt><trkpt lat="40.76086" lon="9.6571857"><ele>30.25</ele><time>2026-04-12T15:16:14.568Z</time></trkpt><trkpt lat="40.7608415" lon="9.6573643"><ele>30.5</ele><time>2026-04-12T15:16:15.557Z</time></trkpt><trkpt lat="40.7608269" lon="9.6575391"><ele>30.75</ele><time>2026-04-12T15:16:16.553Z</time></trkpt><trkpt lat="40.7608136" lon="9.6577118"><ele>31.0</ele><time>2026-04-12T15:16:17.558Z</time></trkpt><trkpt lat="40.7608073" lon="9.6578877"><ele>31.0</ele><time>2026-04-12T15:16:18.564Z</time></trkpt><trkpt lat="40.7608132" lon="9.6580736"><ele>31.0</ele><time>2026-04-12T15:16:19.564Z</time></trkpt><trkpt lat="40.7608256" lon="9.658261"><ele>31.0</ele><time>2026-04-12T15:16:20.545Z</time></trkpt><trkpt lat="40.7608508" lon="9.6584408"><ele>31.0</ele><time>2026-04-12T15:16:21.554Z</time></trkpt><trkpt lat="40.760879" lon="9.6586207"><ele>30.75</ele><time>2026-04-12T15:16:22.559Z</time></trkpt><trkpt lat="40.7609129" lon="9.6587852"><ele>30.5</ele><time>2026-04-12T15:16:23.557Z</time></trkpt><trkpt lat="40.7609411" lon="9.658939"><ele>30.25</ele><time>2026-04-12T15:16:24.554Z</time></trkpt><trkpt lat="40.7609676" lon="9.6590888"><ele>30.0</ele><time>2026-04-12T15:16:25.55Z</time></trkpt><trkpt lat="40.7610005" lon="9.6592361"><ele>29.25</ele><time>2026-04-12T15:16:26.562Z</time></trkpt><trkpt lat="40.7610422" lon="9.6593863"><ele>28.5</ele><time>2026-04-12T15:16:27.56Z</time></trkpt><trkpt lat="40.7611033" lon="9.6595391"><ele>27.75</ele><time>2026-04-12T15:16:28.546Z</time></trkpt><trkpt lat="40.7611964" lon="9.6596898"><ele>27.0</ele><time>2026-04-12T15:16:29.554Z</time></trkpt><trkpt lat="40.7613147" lon="9.6598444"><ele>27.0</ele><time>2026-04-12T15:16:30.551Z</time></trkpt><trkpt lat="40.7614416" lon="9.6600184"><ele>27.0</ele><time>2026-04-12T15:16:31.551Z</time></trkpt><trkpt lat="40.7615809" lon="9.6602072"><ele>27.0</ele><time>2026-04-12T15:16:32.553Z</time></trkpt><trkpt lat="40.7617291" lon="9.6604153"><ele>25.5</ele><time>2026-04-12T15:16:33.553Z</time></trkpt><trkpt lat="40.7618836" lon="9.6606354"><ele>24.0</ele><time>2026-04-12T15:16:34.554Z</time></trkpt><trkpt lat="40.7620407" lon="9.6608653"><ele>24.0</ele><time>2026-04-12T15:16:35.553Z</time></trkpt><trkpt lat="40.762201" lon="9.6611036"><ele>24.0</ele><time>2026-04-12T15:16:36.547Z</time></trkpt><trkpt lat="40.7623613" lon="9.6613474"><ele>23.5</ele><time>2026-04-12T15:16:37.541Z</time></trkpt><trkpt lat="40.7625273" lon="9.6615972"><ele>23.0</ele><time>2026-04-12T15:16:38.548Z</time></trkpt><trkpt lat="40.7626979" lon="9.6618447"><ele>22.5</ele><time>2026-04-12T15:16:39.548Z</time></trkpt><trkpt lat="40.7628692" lon="9.6620806"><ele>22.0</ele><time>2026-04-12T15:16:40.54Z</time></trkpt><trkpt lat="40.7630276" lon="9.6622963"><ele>22.0</ele><time>2026-04-12T15:16:41.55Z</time></trkpt><trkpt lat="40.7631778" lon="9.6625112"><ele>22.0</ele><time>2026-04-12T15:16:42.541Z</time></trkpt><trkpt lat="40.7633195" lon="9.6627176"><ele>22.0</ele><time>2026-04-12T15:16:43.536Z</time></trkpt><trkpt lat="40.7634543" lon="9.6629116"><ele>21.666666666666664</ele><time>2026-04-12T15:16:44.529Z</time></trkpt><trkpt lat="40.7635872" lon="9.6630849"><ele>21.333333333333332</ele><time>2026-04-12T15:16:45.541Z</time></trkpt><trkpt lat="40.7637148" lon="9.6632647"><ele>21.0</ele><time>2026-04-12T15:16:46.537Z</time></trkpt><trkpt lat="40.7638404" lon="9.663447"><ele>21.0</ele><time>2026-04-12T15:16:47.536Z</time></trkpt><trkpt lat="40.7639702" lon="9.6636319"><ele>21.0</ele><time>2026-04-12T15:16:48.535Z</time></trkpt><trkpt lat="40.7641032" lon="9.6638199"><ele>21.0</ele><time>2026-04-12T15:16:49.536Z</time></trkpt><trkpt lat="40.7642376" lon="9.6640099"><ele>20.666666666666668</ele><time>2026-04-12T15:16:50.535Z</time></trkpt><trkpt lat="40.7643715" lon="9.6642019"><ele>20.333333333333336</ele><time>2026-04-12T15:16:51.544Z</time></trkpt><trkpt lat="40.7645077" lon="9.664396"><ele>20.0</ele><time>2026-04-12T15:16:52.531Z</time></trkpt><trkpt lat="40.7646467" lon="9.6645934"><ele>19.333333333333336</ele><time>2026-04-12T15:16:53.543Z</time></trkpt><trkpt lat="40.7647848" lon="9.664786"><ele>18.666666666666668</ele><time>2026-04-12T15:16:54.533Z</time></trkpt><trkpt lat="40.7649136" lon="9.6649705"><ele>18.0</ele><time>2026-04-12T15:16:55.549Z</time></trkpt><trkpt lat="40.7650327" lon="9.6651466"><ele>17.75</ele><time>2026-04-12T15:16:56.529Z</time></trkpt><trkpt lat="40.7651433" lon="9.6652963"><ele>17.5</ele><time>2026-04-12T15:16:57.535Z</time></trkpt><trkpt lat="40.7652357" lon="9.6654336"><ele>17.25</ele><time>2026-04-12T15:16:58.538Z</time></trkpt><trkpt lat="40.7653178" lon="9.6655647"><ele>17.0</ele><time>2026-04-12T15:16:59.55Z</time></trkpt><trkpt lat="40.7653812" lon="9.6656976"><ele>17.0</ele><time>2026-04-12T15:17:00.528Z</time></trkpt><trkpt lat="40.7654107" lon="9.6658415"><ele>17.0</ele><time>2026-04-12T15:17:01.543Z</time></trkpt><trkpt lat="40.7654058" lon="9.6659942"><ele>17.0</ele><time>2026-04-12T15:17:02.53Z</time></trkpt><trkpt lat="40.7653772" lon="9.666146"><ele>17.0</ele><time>2026-04-12T15:17:03.533Z</time></trkpt><trkpt lat="40.7653202" lon="9.6662871"><ele>16.5</ele><time>2026-04-12T15:17:04.518Z</time></trkpt><trkpt lat="40.7652515" lon="9.6664335"><ele>16.0</ele><time>2026-04-12T15:17:05.522Z</time></trkpt><trkpt lat="40.7651774" lon="9.6665861"><ele>15.5</ele><time>2026-04-12T15:17:06.536Z</time></trkpt><trkpt lat="40.7650994" lon="9.666751"><ele>15.0</ele><time>2026-04-12T15:17:07.537Z</time></trkpt><trkpt lat="40.7650203" lon="9.6669272"><ele>15.666666666666668</ele><time>2026-04-12T15:17:08.522Z</time></trkpt><trkpt lat="40.7649403" lon="9.6671042"><ele>16.333333333333336</ele><time>2026-04-12T15:17:09.514Z</time></trkpt><trkpt lat="40.7648567" lon="9.6672802"><ele>17.0</ele><time>2026-04-12T15:17:10.54Z</time></trkpt><trkpt lat="40.7647708" lon="9.6674609"><ele>17.0</ele><time>2026-04-12T15:17:11.527Z</time></trkpt><trkpt lat="40.7646871" lon="9.6676403"><ele>17.0</ele><time>2026-04-12T15:17:12.52Z</time></trkpt><trkpt lat="40.7646056" lon="9.6678131"><ele>17.0</ele><time>2026-04-12T15:17:13.523Z</time></trkpt><trkpt lat="40.764522" lon="9.6679893"><ele>17.0</ele><time>2026-04-12T15:17:14.531Z</time></trkpt><trkpt lat="40.7644394" lon="9.6681648"><ele>17.0</ele><time>2026-04-12T15:17:15.525Z</time></trkpt><trkpt lat="40.7643492" lon="9.668342"><ele>17.0</ele><time>2026-04-12T15:17:16.51Z</time></trkpt><trkpt lat="40.7642557" lon="9.6685189"><ele>16.25</ele><time>2026-04-12T15:17:17.526Z</time></trkpt><trkpt lat="40.7641655" lon="9.6686823"><ele>15.5</ele><time>2026-04-12T15:17:18.51Z</time></trkpt><trkpt lat="40.7640925" lon="9.6688268"><ele>14.75</ele><time>2026-04-12T15:17:19.516Z</time></trkpt><trkpt lat="40.764039" lon="9.6689495"><ele>14.0</ele><time>2026-04-12T15:17:20.523Z</time></trkpt><trkpt lat="40.7639992" lon="9.6690338"><ele>14.000000000000002</ele><time>2026-04-12T15:17:21.617Z</time></trkpt><trkpt lat="40.76395" lon="9.6691644"><ele>14.0</ele><time>2026-04-12T15:17:23.619Z</time></trkpt><trkpt lat="40.7639106" lon="9.6692735"><ele>14.0</ele><time>2026-04-12T15:17:25.501Z</time></trkpt><trkpt lat="40.7638844" lon="9.6693646"><ele>14.0</ele><time>2026-04-12T15:17:27.604Z</time></trkpt><trkpt lat="40.7638609" lon="9.6694565"><ele>14.000000000000002</ele><time>2026-04-12T15:17:30.618Z</time></trkpt><trkpt lat="40.7638494" lon="9.669566"><ele>14.0</ele><time>2026-04-12T15:18:03.608Z</time></trkpt><trkpt lat="40.7638465" lon="9.6696826"><ele>14.0</ele><time>2026-04-12T15:18:05.596Z</time></trkpt><trkpt lat="40.7638377" lon="9.6697709"><ele>13.999999999999998</ele><time>2026-04-12T15:18:06.579Z</time></trkpt><trkpt lat="40.7638294" lon="9.6698807"><ele>13.999999999999998</ele><time>2026-04-12T15:18:07.588Z</time></trkpt><trkpt lat="40.7638203" lon="9.6700054"><ele>14.0</ele><time>2026-04-12T15:18:08.591Z</time></trkpt><trkpt lat="40.7638151" lon="9.6701539"><ele>14.0</ele><time>2026-04-12T15:18:09.588Z</time></trkpt><trkpt lat="40.7638092" lon="9.6703199"><ele>13.75</ele><time>2026-04-12T15:18:10.576Z</time></trkpt><trkpt lat="40.7638058" lon="9.6704978"><ele>13.5</ele><time>2026-04-12T15:18:11.6Z</time></trkpt><trkpt lat="40.7638042" lon="9.6706883"><ele>13.25</ele><time>2026-04-12T15:18:12.582Z</time></trkpt><trkpt lat="40.7638008" lon="9.6708825"><ele>13.0</ele><time>2026-04-12T15:18:13.584Z</time></trkpt><trkpt lat="40.7637904" lon="9.6710911"><ele>13.0</ele><time>2026-04-12T15:18:14.602Z</time></trkpt><trkpt lat="40.7637766" lon="9.6712961"><ele>13.0</ele><time>2026-04-12T15:18:15.595Z</time></trkpt><trkpt lat="40.7637581" lon="9.6715015"><ele>13.0</ele><time>2026-04-12T15:18:16.576Z</time></trkpt><trkpt lat="40.7637292" lon="9.6717207"><ele>13.0</ele><time>2026-04-12T15:18:17.585Z</time></trkpt><trkpt lat="40.7636962" lon="9.6719463"><ele>13.0</ele><time>2026-04-12T15:18:18.575Z</time></trkpt><trkpt lat="40.7636623" lon="9.6721726"><ele>13.0</ele><time>2026-04-12T15:18:19.571Z</time></trkpt><trkpt lat="40.7636285" lon="9.6723928"><ele>13.0</ele><time>2026-04-12T15:18:20.582Z</time></trkpt><trkpt lat="40.7635965" lon="9.6726087"><ele>13.0</ele><time>2026-04-12T15:18:21.585Z</time></trkpt><trkpt lat="40.7635672" lon="9.6728194"><ele>13.0</ele><time>2026-04-12T15:18:22.579Z</time></trkpt><trkpt lat="40.7635382" lon="9.6730222"><ele>12.333333333333332</ele><time>2026-04-12T15:18:23.57Z</time></trkpt><trkpt lat="40.7635103" lon="9.6732229"><ele>11.666666666666666</ele><time>2026-04-12T15:18:24.576Z</time></trkpt><trkpt lat="40.7634828" lon="9.6734234"><ele>11.0</ele><time>2026-04-12T15:18:25.594Z</time></trkpt><trkpt lat="40.7634555" lon="9.6736209"><ele>11.0</ele><time>2026-04-12T15:18:26.577Z</time></trkpt><trkpt lat="40.7634302" lon="9.6738077"><ele>11.0</ele><time>2026-04-12T15:18:27.571Z</time></trkpt><trkpt lat="40.7634028" lon="9.6739779"><ele>11.0</ele><time>2026-04-12T15:18:28.574Z</time></trkpt><trkpt lat="40.7633771" lon="9.6741413"><ele>11.0</ele><time>2026-04-12T15:18:29.583Z</time></trkpt><trkpt lat="40.7633462" lon="9.6743035"><ele>11.0</ele><time>2026-04-12T15:18:30.588Z</time></trkpt><trkpt lat="40.7633038" lon="9.6744589"><ele>11.0</ele><time>2026-04-12T15:18:31.586Z</time></trkpt><trkpt lat="40.7632425" lon="9.6745995"><ele>11.0</ele><time>2026-04-12T15:18:32.567Z</time></trkpt><trkpt lat="40.7631624" lon="9.674722"><ele>11.0</ele><time>2026-04-12T15:18:33.582Z</time></trkpt><trkpt lat="40.7630735" lon="9.6748398"><ele>11.0</ele><time>2026-04-12T15:18:34.584Z</time></trkpt><trkpt lat="40.7629908" lon="9.6749509"><ele>11.0</ele><time>2026-04-12T15:18:35.574Z</time></trkpt><trkpt lat="40.7629267" lon="9.675055"><ele>11.0</ele><time>2026-04-12T15:18:36.584Z</time></trkpt><trkpt lat="40.7628807" lon="9.6751563"><ele>11.0</ele><time>2026-04-12T15:18:37.581Z</time></trkpt><trkpt lat="40.7628588" lon="9.6752579"><ele>11.0</ele><time>2026-04-12T15:18:38.584Z</time></trkpt><trkpt lat="40.7628609" lon="9.6753604"><ele>10.666666666666666</ele><time>2026-04-12T15:18:39.567Z</time></trkpt><trkpt lat="40.7628918" lon="9.6754624"><ele>10.333333333333332</ele><time>2026-04-12T15:18:40.571Z</time></trkpt><trkpt lat="40.7629441" lon="9.6755528"><ele>10.0</ele><time>2026-04-12T15:18:41.577Z</time></trkpt><trkpt lat="40.7630028" lon="9.6756272"><ele>9.666666666666666</ele><time>2026-04-12T15:18:42.585Z</time></trkpt><trkpt lat="40.7630779" lon="9.6756776"><ele>9.333333333333334</ele><time>2026-04-12T15:18:44.562Z</time></trkpt><trkpt lat="40.7631406" lon="9.6757087"><ele>9.0</ele><time>2026-04-12T15:18:46.581Z</time></trkpt><trkpt lat="40.7632512" lon="9.6756897"><ele>9.0</ele><time>2026-04-12T15:18:48.565Z</time></trkpt><trkpt lat="40.7633257" lon="9.6756324"><ele>9.0</ele><time>2026-04-12T15:18:49.569Z</time></trkpt><trkpt lat="40.7634103" lon="9.67555"><ele>9.0</ele><time>2026-04-12T15:18:50.568Z</time></trkpt><trkpt lat="40.7635024" lon="9.6754691"><ele>9.0</ele><time>2026-04-12T15:18:51.563Z</time></trkpt><trkpt lat="40.7635906" lon="9.6753835"><ele>9.0</ele><time>2026-04-12T15:18:52.556Z</time></trkpt><trkpt lat="40.7636744" lon="9.6753068"><ele>9.2</ele><time>2026-04-12T15:18:53.576Z</time></trkpt><trkpt lat="40.7637549" lon="9.6752571"><ele>9.4</ele><time>2026-04-12T15:18:54.567Z</time></trkpt><trkpt lat="40.7638376" lon="9.6752481"><ele>9.6</ele><time>2026-04-12T15:18:55.558Z</time></trkpt><trkpt lat="40.763927" lon="9.6752767"><ele>9.8</ele><time>2026-04-12T15:18:56.561Z</time></trkpt><trkpt lat="40.7640211" lon="9.6753297"><ele>10.0</ele><time>2026-04-12T15:18:57.567Z</time></trkpt><trkpt lat="40.7641135" lon="9.6754106"><ele>9.5</ele><time>2026-04-12T15:18:58.56Z</time></trkpt><trkpt lat="40.7642138" lon="9.6755113"><ele>9.0</ele><time>2026-04-12T15:18:59.557Z</time></trkpt><trkpt lat="40.7643194" lon="9.675626"><ele>8.5</ele><time>2026-04-12T15:19:00.559Z</time></trkpt><trkpt lat="40.7644288" lon="9.6757471"><ele>8.0</ele><time>2026-04-12T15:19:01.572Z</time></trkpt><trkpt lat="40.7645422" lon="9.6758787"><ele>8.0</ele><time>2026-04-12T15:19:02.57Z</time></trkpt><trkpt lat="40.7646553" lon="9.6760224"><ele>8.0</ele><time>2026-04-12T15:19:03.551Z</time></trkpt><trkpt lat="40.7647713" lon="9.6761817"><ele>8.0</ele><time>2026-04-12T15:19:04.555Z</time></trkpt><trkpt lat="40.7648793" lon="9.6763494"><ele>7.666666666666666</ele><time>2026-04-12T15:19:05.559Z</time></trkpt><trkpt lat="40.764984" lon="9.6765273"><ele>7.333333333333334</ele><time>2026-04-12T15:19:06.554Z</time></trkpt><trkpt lat="40.7650915" lon="9.6767065"><ele>7.0</ele><time>2026-04-12T15:19:07.555Z</time></trkpt><trkpt lat="40.7651986" lon="9.6768922"><ele>7.0</ele><time>2026-04-12T15:19:08.554Z</time></trkpt><trkpt lat="40.765304" lon="9.6770852"><ele>7.0</ele><time>2026-04-12T15:19:09.576Z</time></trkpt><trkpt lat="40.7653942" lon="9.6772914"><ele>7.0</ele><time>2026-04-12T15:19:10.568Z</time></trkpt><trkpt lat="40.7654733" lon="9.6775207"><ele>7.0</ele><time>2026-04-12T15:19:11.555Z</time></trkpt><trkpt lat="40.765552" lon="9.6777578"><ele>7.0</ele><time>2026-04-12T15:19:12.55Z</time></trkpt><trkpt lat="40.7656473" lon="9.6779857"><ele>7.0</ele><time>2026-04-12T15:19:13.561Z</time></trkpt><trkpt lat="40.7657538" lon="9.6782128"><ele>6.666666666666667</ele><time>2026-04-12T15:19:14.561Z</time></trkpt><trkpt lat="40.7658693" lon="9.6784217"><ele>6.333333333333334</ele><time>2026-04-12T15:19:15.557Z</time></trkpt><trkpt lat="40.7659788" lon="9.6786144"><ele>6.0</ele><time>2026-04-12T15:19:16.547Z</time></trkpt><trkpt lat="40.7660824" lon="9.6787884"><ele>7.0</ele><time>2026-04-12T15:19:17.562Z</time></trkpt><trkpt lat="40.7661788" lon="9.6789356"><ele>8.0</ele><time>2026-04-12T15:19:18.562Z</time></trkpt><trkpt lat="40.7662479" lon="9.6790513"><ele>9.0</ele><time>2026-04-12T15:19:19.548Z</time></trkpt><trkpt lat="40.7662899" lon="9.6791427"><ele>10.0</ele><time>2026-04-12T15:19:20.552Z</time></trkpt><trkpt lat="40.7663243" lon="9.6792649"><ele>11.0</ele><time>2026-04-12T15:19:22.561Z</time></trkpt><trkpt lat="40.7663606" lon="9.6793401"><ele>11.0</ele><time>2026-04-12T15:19:26.557Z</time></trkpt><trkpt lat="40.7664237" lon="9.6793465"><ele>11.0</ele><time>2026-04-12T15:19:30.548Z</time></trkpt><trkpt lat="40.7665048" lon="9.6792243"><ele>11.0</ele><time>2026-04-12T15:19:32.539Z</time></trkpt><trkpt lat="40.766561" lon="9.6791424"><ele>11.0</ele><time>2026-04-12T15:19:33.544Z</time></trkpt><trkpt lat="40.7666272" lon="9.6790439"><ele>11.0</ele><time>2026-04-12T15:19:34.558Z</time></trkpt><trkpt lat="40.7667011" lon="9.6789383"><ele>11.0</ele><time>2026-04-12T15:19:35.55Z</time></trkpt><trkpt lat="40.7667846" lon="9.678824"><ele>11.0</ele><time>2026-04-12T15:19:36.54Z</time></trkpt><trkpt lat="40.7668775" lon="9.6787052"><ele>11.0</ele><time>2026-04-12T15:19:37.544Z</time></trkpt><trkpt lat="40.7669802" lon="9.678584"><ele>11.0</ele><time>2026-04-12T15:19:38.557Z</time></trkpt><trkpt lat="40.7670841" lon="9.6784647"><ele>13.5</ele><time>2026-04-12T15:19:39.56Z</time></trkpt><trkpt lat="40.7671955" lon="9.6783428"><ele>16.0</ele><time>2026-04-12T15:19:40.556Z</time></trkpt><trkpt lat="40.7673093" lon="9.6782202"><ele>18.5</ele><time>2026-04-12T15:19:41.534Z</time></trkpt><trkpt lat="40.7674219" lon="9.6781026"><ele>21.0</ele><time>2026-04-12T15:19:42.552Z</time></trkpt><trkpt lat="40.7675266" lon="9.6779846"><ele>21.0</ele><time>2026-04-12T15:19:43.551Z</time></trkpt><trkpt lat="40.7676295" lon="9.6778762"><ele>21.0</ele><time>2026-04-12T15:19:44.544Z</time></trkpt><trkpt lat="40.7677321" lon="9.6777678"><ele>21.0</ele><time>2026-04-12T15:19:45.535Z</time></trkpt><trkpt lat="40.7678351" lon="9.6776663"><ele>21.0</ele><time>2026-04-12T15:19:46.537Z</time></trkpt><trkpt lat="40.7679433" lon="9.6775737"><ele>22.25</ele><time>2026-04-12T15:19:47.55Z</time></trkpt><trkpt lat="40.7680573" lon="9.6774868"><ele>23.5</ele><time>2026-04-12T15:19:48.54Z</time></trkpt><trkpt lat="40.7681753" lon="9.6773976"><ele>24.75</ele><time>2026-04-12T15:19:49.53Z</time></trkpt><trkpt lat="40.7682911" lon="9.6772955"><ele>26.0</ele><time>2026-04-12T15:19:50.55Z</time></trkpt><trkpt lat="40.7684023" lon="9.6771716"><ele>26.0</ele><time>2026-04-12T15:19:51.546Z</time></trkpt><trkpt lat="40.7685129" lon="9.6770314"><ele>26.0</ele><time>2026-04-12T15:19:52.539Z</time></trkpt><trkpt lat="40.7686292" lon="9.6768866"><ele>26.0</ele><time>2026-04-12T15:19:53.528Z</time></trkpt><trkpt lat="40.7687476" lon="9.6767427"><ele>27.0</ele><time>2026-04-12T15:19:54.544Z</time></trkpt><trkpt lat="40.7688658" lon="9.6765984"><ele>28.0</ele><time>2026-04-12T15:19:55.546Z</time></trkpt><trkpt lat="40.7689797" lon="9.6764599"><ele>29.0</ele><time>2026-04-12T15:19:56.526Z</time></trkpt><trkpt lat="40.7690783" lon="9.6763382"><ele>29.0</ele><time>2026-04-12T15:19:57.533Z</time></trkpt><trkpt lat="40.7691727" lon="9.6762277"><ele>29.0</ele><time>2026-04-12T15:19:58.545Z</time></trkpt><trkpt lat="40.769261" lon="9.6761269"><ele>29.0</ele><time>2026-04-12T15:19:59.53Z</time></trkpt><trkpt lat="40.769356" lon="9.6760279"><ele>29.0</ele><time>2026-04-12T15:20:00.531Z</time></trkpt><trkpt lat="40.7694656" lon="9.6759413"><ele>30.0</ele><time>2026-04-12T15:20:01.536Z</time></trkpt><trkpt lat="40.7695782" lon="9.6758695"><ele>31.0</ele><time>2026-04-12T15:20:02.542Z</time></trkpt><trkpt lat="40.7696807" lon="9.6758132"><ele>32.0</ele><time>2026-04-12T15:20:03.545Z</time></trkpt><trkpt lat="40.7697704" lon="9.6757654"><ele>33.0</ele><time>2026-04-12T15:20:04.539Z</time></trkpt><trkpt lat="40.7698402" lon="9.6757267"><ele>34.0</ele><time>2026-04-12T15:20:05.528Z</time></trkpt><trkpt lat="40.7698972" lon="9.6756891"><ele>34.0</ele><time>2026-04-12T15:20:06.535Z</time></trkpt><trkpt lat="40.7699705" lon="9.6756491"><ele>34.0</ele><time>2026-04-12T15:20:08.523Z</time></trkpt><trkpt lat="40.7700456" lon="9.6757145"><ele>34.0</ele><time>2026-04-12T15:20:11.528Z</time></trkpt><trkpt lat="40.7700387" lon="9.6759048"><ele>34.0</ele><time>2026-04-12T15:20:13.522Z</time></trkpt><trkpt lat="40.7700287" lon="9.6760326"><ele>34.0</ele><time>2026-04-12T15:20:14.547Z</time></trkpt><trkpt lat="40.7700189" lon="9.676176"><ele>32.75</ele><time>2026-04-12T15:20:15.536Z</time></trkpt><trkpt lat="40.7700124" lon="9.6763324"><ele>31.5</ele><time>2026-04-12T15:20:16.526Z</time></trkpt><trkpt lat="40.7700059" lon="9.6765038"><ele>30.25</ele><time>2026-04-12T15:20:17.526Z</time></trkpt><trkpt lat="40.7699973" lon="9.6766866"><ele>29.0</ele><time>2026-04-12T15:20:18.532Z</time></trkpt><trkpt lat="40.7699848" lon="9.6768759"><ele>26.333333333333332</ele><time>2026-04-12T15:20:19.536Z</time></trkpt><trkpt lat="40.7699779" lon="9.6770748"><ele>23.666666666666664</ele><time>2026-04-12T15:20:20.528Z</time></trkpt><trkpt lat="40.7699682" lon="9.6772791"><ele>21.0</ele><time>2026-04-12T15:20:21.529Z</time></trkpt><trkpt lat="40.76996" lon="9.6774873"><ele>21.0</ele><time>2026-04-12T15:20:22.536Z</time></trkpt><trkpt lat="40.769951" lon="9.6776954"><ele>21.0</ele><time>2026-04-12T15:20:23.531Z</time></trkpt><trkpt lat="40.7699426" lon="9.6779101"><ele>21.0</ele><time>2026-04-12T15:20:24.526Z</time></trkpt><trkpt lat="40.7699344" lon="9.678123"><ele>20.333333333333332</ele><time>2026-04-12T15:20:25.516Z</time></trkpt><trkpt lat="40.7699279" lon="9.6783364"><ele>19.666666666666664</ele><time>2026-04-12T15:20:26.523Z</time></trkpt><trkpt lat="40.7699225" lon="9.6785467"><ele>19.0</ele><time>2026-04-12T15:20:27.521Z</time></trkpt><trkpt lat="40.7699195" lon="9.6787605"><ele>17.666666666666664</ele><time>2026-04-12T15:20:28.522Z</time></trkpt><trkpt lat="40.7699148" lon="9.6789747"><ele>16.333333333333332</ele><time>2026-04-12T15:20:29.518Z</time></trkpt><trkpt lat="40.7699102" lon="9.6791823"><ele>15.0</ele><time>2026-04-12T15:20:30.532Z</time></trkpt><trkpt lat="40.7699035" lon="9.6793758"><ele>13.5</ele><time>2026-04-12T15:20:31.534Z</time></trkpt><trkpt lat="40.7698961" lon="9.6795651"><ele>12.0</ele><time>2026-04-12T15:20:32.527Z</time></trkpt><trkpt lat="40.7698877" lon="9.6797445"><ele>10.5</ele><time>2026-04-12T15:20:33.538Z</time></trkpt><trkpt lat="40.7698795" lon="9.6799211"><ele>9.0</ele><time>2026-04-12T15:20:34.525Z</time></trkpt><trkpt lat="40.7698749" lon="9.6801029"><ele>8.0</ele><time>2026-04-12T15:20:35.519Z</time></trkpt><trkpt lat="40.7698694" lon="9.680287"><ele>7.0</ele><time>2026-04-12T15:20:36.519Z</time></trkpt><trkpt lat="40.7698631" lon="9.6804694"><ele>6.0</ele><time>2026-04-12T15:20:37.527Z</time></trkpt><trkpt lat="40.7698557" lon="9.6806467"><ele>5.0</ele><time>2026-04-12T15:20:38.52Z</time></trkpt><trkpt lat="40.7698475" lon="9.6808211"><ele>5.0</ele><time>2026-04-12T15:20:39.519Z</time></trkpt><trkpt lat="40.7698404" lon="9.6809891"><ele>5.0</ele><time>2026-04-12T15:20:40.519Z</time></trkpt><trkpt lat="40.7698377" lon="9.6811531"><ele>5.0</ele><time>2026-04-12T15:20:41.514Z</time></trkpt><trkpt lat="40.7698353" lon="9.6813126"><ele>5.0</ele><time>2026-04-12T15:20:42.522Z</time></trkpt><trkpt lat="40.769831" lon="9.6814722"><ele>4.5</ele><time>2026-04-12T15:20:43.531Z</time></trkpt><trkpt lat="40.7698268" lon="9.6816367"><ele>4.0</ele><time>2026-04-12T15:20:44.522Z</time></trkpt><trkpt lat="40.7698195" lon="9.6818001"><ele>3.5</ele><time>2026-04-12T15:20:45.511Z</time></trkpt><trkpt lat="40.7698057" lon="9.6819579"><ele>3.0</ele><time>2026-04-12T15:20:46.522Z</time></trkpt><trkpt lat="40.7697768" lon="9.6820938"><ele>2.6666666666666665</ele><time>2026-04-12T15:20:47.517Z</time></trkpt><trkpt lat="40.7697416" lon="9.6822087"><ele>2.3333333333333335</ele><time>2026-04-12T15:20:48.511Z</time></trkpt><trkpt lat="40.7697167" lon="9.6823082"><ele>2.0</ele><time>2026-04-12T15:20:49.517Z</time></trkpt><trkpt lat="40.7697346" lon="9.6824502"><ele>1.6666666666666665</ele><time>2026-04-12T15:20:51.517Z</time></trkpt><trkpt lat="40.7697559" lon="9.6825424"><ele>1.3333333333333333</ele><time>2026-04-12T15:20:53.515Z</time></trkpt><trkpt lat="40.7697862" lon="9.6826248"><ele>1.0</ele><time>2026-04-12T15:20:56.522Z</time></trkpt><trkpt lat="40.769878" lon="9.6826315"><ele>0.9999999999999999</ele><time>2026-04-12T15:20:59.526Z</time></trkpt><trkpt lat="40.7699071" lon="9.6827199"><ele>1.0</ele><time>2026-04-12T15:21:02.523Z</time></trkpt><trkpt lat="40.7698686" lon="9.6827858"><ele>1.0</ele><time>2026-04-12T15:21:05.625Z</time></trkpt><trkpt lat="40.7697926" lon="9.6828345"><ele>1.0</ele><time>2026-04-12T15:34:16.576Z</time></trkpt><trkpt lat="40.7697333" lon="9.6827652"><ele>0.9999999999999999</ele><time>2026-04-12T15:34:20.54Z</time></trkpt><trkpt lat="40.7697234" lon="9.6826526"><ele>1.0</ele><time>2026-04-12T15:34:24.536Z</time></trkpt><trkpt lat="40.7697247" lon="9.68256"><ele>0.9999999999999999</ele><time>2026-04-12T15:34:26.532Z</time></trkpt><trkpt lat="40.7697265" lon="9.6824347"><ele>1.0</ele><time>2026-04-12T15:34:28.533Z</time></trkpt><trkpt lat="40.7697416" lon="9.682301"><ele>1.0</ele><time>2026-04-12T15:34:30.532Z</time></trkpt><trkpt lat="40.7697753" lon="9.6821501"><ele>1.0</ele><time>2026-04-12T15:34:32.543Z</time></trkpt><trkpt lat="40.7697972" lon="9.682068"><ele>0.9999999999999999</ele><time>2026-04-12T15:34:33.534Z</time></trkpt><trkpt lat="40.7698136" lon="9.6819839"><ele>1.0</ele><time>2026-04-12T15:34:34.541Z</time></trkpt><trkpt lat="40.7698249" lon="9.6818953"><ele>1.2857142857142856</ele><time>2026-04-12T15:34:35.532Z</time></trkpt><trkpt lat="40.7698337" lon="9.6818035"><ele>1.5714285714285712</ele><time>2026-04-12T15:34:36.537Z</time></trkpt><trkpt lat="40.7698383" lon="9.6817089"><ele>1.857142857142857</ele><time>2026-04-12T15:34:37.538Z</time></trkpt><trkpt lat="40.769846" lon="9.6816155"><ele>2.142857142857143</ele><time>2026-04-12T15:34:38.528Z</time></trkpt><trkpt lat="40.7698484" lon="9.6815177"><ele>2.4285714285714284</ele><time>2026-04-12T15:34:39.526Z</time></trkpt><trkpt lat="40.769854" lon="9.6814152"><ele>2.714285714285714</ele><time>2026-04-12T15:34:40.532Z</time></trkpt><trkpt lat="40.7698581" lon="9.6813081"><ele>3.0</ele><time>2026-04-12T15:34:41.523Z</time></trkpt><trkpt lat="40.7698648" lon="9.6811992"><ele>3.3333333333333335</ele><time>2026-04-12T15:34:42.525Z</time></trkpt><trkpt lat="40.7698657" lon="9.6810928"><ele>3.666666666666667</ele><time>2026-04-12T15:34:43.547Z</time></trkpt><trkpt lat="40.7698687" lon="9.6809817"><ele>4.0</ele><time>2026-04-12T15:34:44.533Z</time></trkpt><trkpt lat="40.7698715" lon="9.6808739"><ele>4.333333333333334</ele><time>2026-04-12T15:34:45.527Z</time></trkpt><trkpt lat="40.7698771" lon="9.6807662"><ele>4.666666666666667</ele><time>2026-04-12T15:34:46.53Z</time></trkpt><trkpt lat="40.7698764" lon="9.6806583"><ele>5.0</ele><time>2026-04-12T15:34:47.526Z</time></trkpt><trkpt lat="40.7698746" lon="9.6805516"><ele>5.0</ele><time>2026-04-12T15:34:48.534Z</time></trkpt><trkpt lat="40.7698763" lon="9.6804495"><ele>5.0</ele><time>2026-04-12T15:34:49.524Z</time></trkpt><trkpt lat="40.7698796" lon="9.6803458"><ele>5.0</ele><time>2026-04-12T15:34:50.525Z</time></trkpt><trkpt lat="40.7698796" lon="9.6802485"><ele>5.0</ele><time>2026-04-12T15:34:51.533Z</time></trkpt><trkpt lat="40.7698812" lon="9.680151"><ele>5.0</ele><time>2026-04-12T15:34:52.536Z</time></trkpt><trkpt lat="40.7698887" lon="9.6800554"><ele>5.0</ele><time>2026-04-12T15:34:53.532Z</time></trkpt><trkpt lat="40.7698938" lon="9.6799591"><ele>5.0</ele><time>2026-04-12T15:34:54.524Z</time></trkpt><trkpt lat="40.769899" lon="9.6798643"><ele>5.571428571428571</ele><time>2026-04-12T15:34:55.522Z</time></trkpt><trkpt lat="40.7699056" lon="9.679767"><ele>6.142857142857143</ele><time>2026-04-12T15:34:56.524Z</time></trkpt><trkpt lat="40.7699102" lon="9.6796675"><ele>6.714285714285715</ele><time>2026-04-12T15:34:57.524Z</time></trkpt><trkpt lat="40.7699146" lon="9.6795665"><ele>7.2857142857142865</ele><time>2026-04-12T15:34:58.53Z</time></trkpt><trkpt lat="40.7699194" lon="9.6794687"><ele>7.857142857142858</ele><time>2026-04-12T15:34:59.529Z</time></trkpt><trkpt lat="40.7699238" lon="9.6793726"><ele>8.428571428571429</ele><time>2026-04-12T15:35:00.525Z</time></trkpt><trkpt lat="40.7699284" lon="9.6792772"><ele>9.0</ele><time>2026-04-12T15:35:01.523Z</time></trkpt><trkpt lat="40.7699343" lon="9.6791807"><ele>10.0</ele><time>2026-04-12T15:35:02.524Z</time></trkpt><trkpt lat="40.7699384" lon="9.6790838"><ele>11.0</ele><time>2026-04-12T15:35:03.525Z</time></trkpt><trkpt lat="40.7699426" lon="9.6789856"><ele>12.0</ele><time>2026-04-12T15:35:04.528Z</time></trkpt><trkpt lat="40.7699442" lon="9.67889"><ele>13.0</ele><time>2026-04-12T15:35:05.515Z</time></trkpt><trkpt lat="40.7699447" lon="9.6787897"><ele>14.0</ele><time>2026-04-12T15:35:06.518Z</time></trkpt><trkpt lat="40.7699471" lon="9.6786823"><ele>15.0</ele><time>2026-04-12T15:35:07.522Z</time></trkpt><trkpt lat="40.7699506" lon="9.6785712"><ele>15.8</ele><time>2026-04-12T15:35:08.53Z</time></trkpt><trkpt lat="40.7699552" lon="9.6784569"><ele>16.6</ele><time>2026-04-12T15:35:09.523Z</time></trkpt><trkpt lat="40.7699588" lon="9.6783392"><ele>17.4</ele><time>2026-04-12T15:35:10.521Z</time></trkpt><trkpt lat="40.7699636" lon="9.6782109"><ele>18.2</ele><time>2026-04-12T15:35:11.517Z</time></trkpt><trkpt lat="40.7699663" lon="9.6780791"><ele>19.0</ele><time>2026-04-12T15:35:12.525Z</time></trkpt><trkpt lat="40.7699675" lon="9.6779444"><ele>19.0</ele><time>2026-04-12T15:35:13.518Z</time></trkpt><trkpt lat="40.7699722" lon="9.6778018"><ele>19.0</ele><time>2026-04-12T15:35:14.514Z</time></trkpt><trkpt lat="40.7699788" lon="9.6776521"><ele>19.0</ele><time>2026-04-12T15:35:15.512Z</time></trkpt><trkpt lat="40.769983" lon="9.6774977"><ele>19.0</ele><time>2026-04-12T15:35:16.524Z</time></trkpt><trkpt lat="40.7699866" lon="9.6773412"><ele>19.5</ele><time>2026-04-12T15:35:17.52Z</time></trkpt><trkpt lat="40.7699919" lon="9.6771827"><ele>20.0</ele><time>2026-04-12T15:35:18.54Z</time></trkpt><trkpt lat="40.7699993" lon="9.6770163"><ele>20.5</ele><time>2026-04-12T15:35:19.518Z</time></trkpt><trkpt lat="40.7700048" lon="9.6768392"><ele>21.0</ele><time>2026-04-12T15:35:20.526Z</time></trkpt><trkpt lat="40.7700158" lon="9.6766537"><ele>23.0</ele><time>2026-04-12T15:35:21.511Z</time></trkpt><trkpt lat="40.7700256" lon="9.6764571"><ele>25.0</ele><time>2026-04-12T15:35:22.518Z</time></trkpt><trkpt lat="40.7700359" lon="9.6762667"><ele>27.0</ele><time>2026-04-12T15:35:23.508Z</time></trkpt><trkpt lat="40.7700436" lon="9.676101"><ele>29.0</ele><time>2026-04-12T15:35:24.512Z</time></trkpt><trkpt lat="40.7700489" lon="9.6759621"><ele>29.833333333333332</ele><time>2026-04-12T15:35:25.51Z</time></trkpt><trkpt lat="40.7700514" lon="9.6758417"><ele>30.666666666666664</ele><time>2026-04-12T15:35:26.525Z</time></trkpt><trkpt lat="40.7700598" lon="9.6757478"><ele>31.5</ele><time>2026-04-12T15:35:27.519Z</time></trkpt><trkpt lat="40.7700359" lon="9.6756329"><ele>32.333333333333336</ele><time>2026-04-12T15:35:29.515Z</time></trkpt><trkpt lat="40.7699439" lon="9.6756214"><ele>33.16666666666667</ele><time>2026-04-12T15:35:31.517Z</time></trkpt><trkpt lat="40.7698778" lon="9.6756532"><ele>34.0</ele><time>2026-04-12T15:35:32.512Z</time></trkpt><trkpt lat="40.769794" lon="9.6757092"><ele>34.0</ele><time>2026-04-12T15:35:33.509Z</time></trkpt><trkpt lat="40.7696997" lon="9.6757714"><ele>34.0</ele><time>2026-04-12T15:35:34.52Z</time></trkpt><trkpt lat="40.7695966" lon="9.6758283"><ele>34.0</ele><time>2026-04-12T15:35:35.515Z</time></trkpt><trkpt lat="40.7694913" lon="9.6758941"><ele>34.0</ele><time>2026-04-12T15:35:36.506Z</time></trkpt><trkpt lat="40.7693853" lon="9.675975"><ele>33.5</ele><time>2026-04-12T15:35:37.507Z</time></trkpt><trkpt lat="40.7692855" lon="9.6760787"><ele>33.0</ele><time>2026-04-12T15:35:38.52Z</time></trkpt><trkpt lat="40.7691846" lon="9.6762003"><ele>32.5</ele><time>2026-04-12T15:35:39.517Z</time></trkpt><trkpt lat="40.7690856" lon="9.6763211"><ele>32.0</ele><time>2026-04-12T15:35:40.504Z</time></trkpt><trkpt lat="40.7689786" lon="9.6764489"><ele>31.0</ele><time>2026-04-12T15:35:41.527Z</time></trkpt><trkpt lat="40.7688624" lon="9.6765866"><ele>30.0</ele><time>2026-04-12T15:35:42.504Z</time></trkpt><trkpt lat="40.7687417" lon="9.6767269"><ele>29.0</ele><time>2026-04-12T15:35:43.504Z</time></trkpt><trkpt lat="40.7686213" lon="9.6768735"><ele>28.0</ele><time>2026-04-12T15:35:44.514Z</time></trkpt><trkpt lat="40.7685005" lon="9.6770194"><ele>27.0</ele><time>2026-04-12T15:35:45.504Z</time></trkpt><trkpt lat="40.768379" lon="9.6771625"><ele>26.0</ele><time>2026-04-12T15:35:46.51Z</time></trkpt><trkpt lat="40.7682535" lon="9.6772949"><ele>26.0</ele><time>2026-04-12T15:35:47.502Z</time></trkpt><trkpt lat="40.7681232" lon="9.6774043"><ele>26.0</ele><time>2026-04-12T15:35:48.507Z</time></trkpt><trkpt lat="40.7679914" lon="9.6775024"><ele>26.0</ele><time>2026-04-12T15:35:49.505Z</time></trkpt><trkpt lat="40.7678644" lon="9.6776094"><ele>26.0</ele><time>2026-04-12T15:35:50.513Z</time></trkpt><trkpt lat="40.7677492" lon="9.677725"><ele>26.0</ele><time>2026-04-12T15:35:51.511Z</time></trkpt><trkpt lat="40.7676425" lon="9.6778367"><ele>26.0</ele><time>2026-04-12T15:35:52.505Z</time></trkpt><trkpt lat="40.7675389" lon="9.6779449"><ele>26.0</ele><time>2026-04-12T15:35:53.51Z</time></trkpt><trkpt lat="40.76744" lon="9.6780561"><ele>24.75</ele><time>2026-04-12T15:35:54.51Z</time></trkpt><trkpt lat="40.7673368" lon="9.6781735"><ele>23.5</ele><time>2026-04-12T15:35:55.5Z</time></trkpt><trkpt lat="40.7672238" lon="9.6782937"><ele>22.25</ele><time>2026-04-12T15:35:56.522Z</time></trkpt><trkpt lat="40.7671077" lon="9.6784195"><ele>21.0</ele><time>2026-04-12T15:35:57.507Z</time></trkpt><trkpt lat="40.7669987" lon="9.6785429"><ele>19.75</ele><time>2026-04-12T15:35:58.5Z</time></trkpt><trkpt lat="40.7668929" lon="9.6786687"><ele>18.5</ele><time>2026-04-12T15:35:59.505Z</time></trkpt><trkpt lat="40.7667916" lon="9.6787921"><ele>17.25</ele><time>2026-04-12T15:36:00.596Z</time></trkpt><trkpt lat="40.7667013" lon="9.6789083"><ele>16.0</ele><time>2026-04-12T15:36:01.612Z</time></trkpt><trkpt lat="40.7666179" lon="9.6790138"><ele>14.75</ele><time>2026-04-12T15:36:02.6Z</time></trkpt><trkpt lat="40.7665439" lon="9.6790967"><ele>13.5</ele><time>2026-04-12T15:36:03.612Z</time></trkpt><trkpt lat="40.766403" lon="9.679163"><ele>12.25</ele><time>2026-04-12T15:36:05.616Z</time></trkpt><trkpt lat="40.7662905" lon="9.6790801"><ele>11.0</ele><time>2026-04-12T15:36:07.591Z</time></trkpt><trkpt lat="40.7662295" lon="9.6789875"><ele>11.0</ele><time>2026-04-12T15:36:08.604Z</time></trkpt><trkpt lat="40.7661624" lon="9.6788672"><ele>11.0</ele><time>2026-04-12T15:36:09.607Z</time></trkpt><trkpt lat="40.7660795" lon="9.6787336"><ele>11.0</ele><time>2026-04-12T15:36:10.603Z</time></trkpt><trkpt lat="40.7659908" lon="9.6785814"><ele>11.0</ele><time>2026-04-12T15:36:11.591Z</time></trkpt><trkpt lat="40.7658955" lon="9.6784119"><ele>9.333333333333332</ele><time>2026-04-12T15:36:12.603Z</time></trkpt><trkpt lat="40.7658034" lon="9.6782381"><ele>7.666666666666666</ele><time>2026-04-12T15:36:13.607Z</time></trkpt><trkpt lat="40.7657158" lon="9.6780577"><ele>6.0</ele><time>2026-04-12T15:36:14.59Z</time></trkpt><trkpt lat="40.7656325" lon="9.6778633"><ele>6.333333333333334</ele><time>2026-04-12T15:36:15.603Z</time></trkpt><trkpt lat="40.7655529" lon="9.6776428"><ele>6.666666666666667</ele><time>2026-04-12T15:36:16.593Z</time></trkpt><trkpt lat="40.7654795" lon="9.6774123"><ele>7.0</ele><time>2026-04-12T15:36:17.585Z</time></trkpt><trkpt lat="40.765387" lon="9.6771841"><ele>7.0</ele><time>2026-04-12T15:36:18.596Z</time></trkpt><trkpt lat="40.7652756" lon="9.6769549"><ele>7.0</ele><time>2026-04-12T15:36:19.6Z</time></trkpt><trkpt lat="40.7651505" lon="9.6767281"><ele>7.0</ele><time>2026-04-12T15:36:20.583Z</time></trkpt><trkpt lat="40.7650214" lon="9.6765071"><ele>7.0</ele><time>2026-04-12T15:36:21.584Z</time></trkpt><trkpt lat="40.7648924" lon="9.6762958"><ele>7.0</ele><time>2026-04-12T15:36:22.583Z</time></trkpt><trkpt lat="40.7647688" lon="9.676107"><ele>7.0</ele><time>2026-04-12T15:36:23.595Z</time></trkpt><trkpt lat="40.7646456" lon="9.6759393"><ele>7.333333333333334</ele><time>2026-04-12T15:36:24.584Z</time></trkpt><trkpt lat="40.764524" lon="9.6757939"><ele>7.666666666666666</ele><time>2026-04-12T15:36:25.594Z</time></trkpt><trkpt lat="40.7644055" lon="9.6756615"><ele>8.0</ele><time>2026-04-12T15:36:26.585Z</time></trkpt><trkpt lat="40.764289" lon="9.6755369"><ele>8.0</ele><time>2026-04-12T15:36:27.597Z</time></trkpt><trkpt lat="40.7641896" lon="9.6754286"><ele>8.0</ele><time>2026-04-12T15:36:28.58Z</time></trkpt><trkpt lat="40.7641052" lon="9.6753333"><ele>8.0</ele><time>2026-04-12T15:36:29.595Z</time></trkpt><trkpt lat="40.7640407" lon="9.6752608"><ele>8.0</ele><time>2026-04-12T15:36:30.587Z</time></trkpt><trkpt lat="40.7639926" lon="9.6752013"><ele>8.0</ele><time>2026-04-12T15:36:31.591Z</time></trkpt><trkpt lat="40.7639407" lon="9.6751328"><ele>8.333333333333332</ele><time>2026-04-12T15:36:33.603Z</time></trkpt><trkpt lat="40.7638774" lon="9.6750803"><ele>8.666666666666666</ele><time>2026-04-12T15:36:36.582Z</time></trkpt><trkpt lat="40.7637777" lon="9.675106"><ele>9.0</ele><time>2026-04-12T15:36:38.584Z</time></trkpt><trkpt lat="40.7637109" lon="9.6751481"><ele>9.333333333333334</ele><time>2026-04-12T15:36:39.577Z</time></trkpt><trkpt lat="40.7636309" lon="9.6751743"><ele>9.666666666666668</ele><time>2026-04-12T15:36:40.59Z</time></trkpt><trkpt lat="40.7635412" lon="9.675169"><ele>10.0</ele><time>2026-04-12T15:36:41.594Z</time></trkpt><trkpt lat="40.7634608" lon="9.6751187"><ele>10.2</ele><time>2026-04-12T15:36:42.586Z</time></trkpt><trkpt lat="40.7633966" lon="9.67504"><ele>10.4</ele><time>2026-04-12T15:36:43.582Z</time></trkpt><trkpt lat="40.7633484" lon="9.6749231"><ele>10.600000000000001</ele><time>2026-04-12T15:36:44.595Z</time></trkpt><trkpt lat="40.763331" lon="9.674789"><ele>10.8</ele><time>2026-04-12T15:36:45.59Z</time></trkpt><trkpt lat="40.763337" lon="9.6746423"><ele>11.0</ele><time>2026-04-12T15:36:46.574Z</time></trkpt><trkpt lat="40.7633588" lon="9.6744791"><ele>11.0</ele><time>2026-04-12T15:36:47.597Z</time></trkpt><trkpt lat="40.7633854" lon="9.6742983"><ele>11.0</ele><time>2026-04-12T15:36:48.582Z</time></trkpt><trkpt lat="40.7634123" lon="9.6740994"><ele>11.0</ele><time>2026-04-12T15:36:49.586Z</time></trkpt><trkpt lat="40.7634413" lon="9.6738776"><ele>11.0</ele><time>2026-04-12T15:36:50.574Z</time></trkpt><trkpt lat="40.7634749" lon="9.6736354"><ele>11.0</ele><time>2026-04-12T15:36:51.583Z</time></trkpt><trkpt lat="40.7635096" lon="9.6733825"><ele>11.0</ele><time>2026-04-12T15:36:52.575Z</time></trkpt><trkpt lat="40.7635455" lon="9.6731228"><ele>11.333333333333332</ele><time>2026-04-12T15:36:53.59Z</time></trkpt><trkpt lat="40.7635808" lon="9.6728502"><ele>11.666666666666666</ele><time>2026-04-12T15:36:54.574Z</time></trkpt><trkpt lat="40.763619" lon="9.6725696"><ele>12.0</ele><time>2026-04-12T15:36:55.583Z</time></trkpt><trkpt lat="40.763658" lon="9.6722859"><ele>12.333333333333332</ele><time>2026-04-12T15:36:56.59Z</time></trkpt><trkpt lat="40.7637032" lon="9.6719975"><ele>12.666666666666666</ele><time>2026-04-12T15:36:57.585Z</time></trkpt><trkpt lat="40.7637475" lon="9.6717129"><ele>13.0</ele><time>2026-04-12T15:36:58.573Z</time></trkpt><trkpt lat="40.763785" lon="9.6714345"><ele>13.0</ele><time>2026-04-12T15:36:59.582Z</time></trkpt><trkpt lat="40.7638109" lon="9.6711646"><ele>13.0</ele><time>2026-04-12T15:37:00.579Z</time></trkpt><trkpt lat="40.7638264" lon="9.6709006"><ele>13.0</ele><time>2026-04-12T15:37:01.579Z</time></trkpt><trkpt lat="40.7638368" lon="9.6706417"><ele>13.0</ele><time>2026-04-12T15:37:02.577Z</time></trkpt><trkpt lat="40.7638526" lon="9.6703882"><ele>13.0</ele><time>2026-04-12T15:37:03.584Z</time></trkpt><trkpt lat="40.763869" lon="9.6701421"><ele>13.0</ele><time>2026-04-12T15:37:04.572Z</time></trkpt><trkpt lat="40.7638856" lon="9.6699154"><ele>13.25</ele><time>2026-04-12T15:37:05.577Z</time></trkpt><trkpt lat="40.7639024" lon="9.6697085"><ele>13.5</ele><time>2026-04-12T15:37:06.584Z</time></trkpt><trkpt lat="40.7639239" lon="9.6695218"><ele>13.75</ele><time>2026-04-12T15:37:07.569Z</time></trkpt><trkpt lat="40.7639601" lon="9.6693503"><ele>14.0</ele><time>2026-04-12T15:37:08.576Z</time></trkpt><trkpt lat="40.7640198" lon="9.6691836"><ele>14.0</ele><time>2026-04-12T15:37:09.592Z</time></trkpt><trkpt lat="40.76409" lon="9.6690121"><ele>14.0</ele><time>2026-04-12T15:37:10.569Z</time></trkpt><trkpt lat="40.7641659" lon="9.668839"><ele>14.0</ele><time>2026-04-12T15:37:11.587Z</time></trkpt><trkpt lat="40.7642508" lon="9.6686616"><ele>14.666666666666668</ele><time>2026-04-12T15:37:12.578Z</time></trkpt><trkpt lat="40.7643404" lon="9.6684769"><ele>15.333333333333332</ele><time>2026-04-12T15:37:13.581Z</time></trkpt><trkpt lat="40.7644355" lon="9.668274"><ele>16.0</ele><time>2026-04-12T15:37:14.576Z</time></trkpt><trkpt lat="40.7645323" lon="9.668069"><ele>16.0</ele><time>2026-04-12T15:37:15.583Z</time></trkpt><trkpt lat="40.7646342" lon="9.6678598"><ele>16.0</ele><time>2026-04-12T15:37:16.564Z</time></trkpt><trkpt lat="40.7647401" lon="9.6676517"><ele>16.0</ele><time>2026-04-12T15:37:17.59Z</time></trkpt><trkpt lat="40.7648438" lon="9.6674331"><ele>16.333333333333332</ele><time>2026-04-12T15:37:18.566Z</time></trkpt><trkpt lat="40.7649428" lon="9.6672026"><ele>16.666666666666668</ele><time>2026-04-12T15:37:19.578Z</time></trkpt><trkpt lat="40.7650422" lon="9.6669675"><ele>17.0</ele><time>2026-04-12T15:37:20.559Z</time></trkpt><trkpt lat="40.7651408" lon="9.6667432"><ele>16.333333333333336</ele><time>2026-04-12T15:37:21.575Z</time></trkpt><trkpt lat="40.7652392" lon="9.6665315"><ele>15.666666666666668</ele><time>2026-04-12T15:37:22.573Z</time></trkpt><trkpt lat="40.7653233" lon="9.6663438"><ele>15.0</ele><time>2026-04-12T15:37:23.578Z</time></trkpt><trkpt lat="40.765383" lon="9.6661796"><ele>15.5</ele><time>2026-04-12T15:37:24.575Z</time></trkpt><trkpt lat="40.7654157" lon="9.6660197"><ele>16.0</ele><time>2026-04-12T15:37:25.58Z</time></trkpt><trkpt lat="40.76542" lon="9.6658545"><ele>16.5</ele><time>2026-04-12T15:37:26.563Z</time></trkpt><trkpt lat="40.76539" lon="9.6656947"><ele>17.0</ele><time>2026-04-12T15:37:27.571Z</time></trkpt><trkpt lat="40.7653312" lon="9.6655525"><ele>17.0</ele><time>2026-04-12T15:37:28.572Z</time></trkpt><trkpt lat="40.765248" lon="9.6654177"><ele>17.0</ele><time>2026-04-12T15:37:29.569Z</time></trkpt><trkpt lat="40.7651502" lon="9.6652776"><ele>17.0</ele><time>2026-04-12T15:37:30.579Z</time></trkpt><trkpt lat="40.7650472" lon="9.6651257"><ele>17.0</ele><time>2026-04-12T15:37:31.563Z</time></trkpt><trkpt lat="40.7649443" lon="9.6649664"><ele>17.333333333333336</ele><time>2026-04-12T15:37:32.568Z</time></trkpt><trkpt lat="40.7648309" lon="9.6648046"><ele>17.666666666666668</ele><time>2026-04-12T15:37:33.575Z</time></trkpt><trkpt lat="40.764712" lon="9.6646297"><ele>18.0</ele><time>2026-04-12T15:37:34.557Z</time></trkpt><trkpt lat="40.7645867" lon="9.6644515"><ele>18.666666666666668</ele><time>2026-04-12T15:37:35.557Z</time></trkpt><trkpt lat="40.7644571" lon="9.6642639"><ele>19.333333333333336</ele><time>2026-04-12T15:37:36.564Z</time></trkpt><trkpt lat="40.764326" lon="9.6640707"><ele>20.0</ele><time>2026-04-12T15:37:37.577Z</time></trkpt><trkpt lat="40.7641851" lon="9.6638731"><ele>20.333333333333336</ele><time>2026-04-12T15:37:38.563Z</time></trkpt><trkpt lat="40.7640383" lon="9.6636713"><ele>20.666666666666668</ele><time>2026-04-12T15:37:39.555Z</time></trkpt><trkpt lat="40.7638911" lon="9.6634623"><ele>21.0</ele><time>2026-04-12T15:37:40.559Z</time></trkpt><trkpt lat="40.7637442" lon="9.6632504"><ele>21.0</ele><time>2026-04-12T15:37:41.567Z</time></trkpt><trkpt lat="40.7635945" lon="9.6630411"><ele>21.0</ele><time>2026-04-12T15:37:42.574Z</time></trkpt><trkpt lat="40.7634484" lon="9.6628322"><ele>21.0</ele><time>2026-04-12T15:37:43.551Z</time></trkpt><trkpt lat="40.7633002" lon="9.6626235"><ele>21.333333333333332</ele><time>2026-04-12T15:37:44.551Z</time></trkpt><trkpt lat="40.7631546" lon="9.6624222"><ele>21.666666666666664</ele><time>2026-04-12T15:37:45.57Z</time></trkpt><trkpt lat="40.7630154" lon="9.6622221"><ele>22.0</ele><time>2026-04-12T15:37:46.56Z</time></trkpt><trkpt lat="40.7628746" lon="9.6620212"><ele>22.333333333333332</ele><time>2026-04-12T15:37:47.547Z</time></trkpt><trkpt lat="40.7627331" lon="9.6618184"><ele>22.666666666666668</ele><time>2026-04-12T15:37:48.547Z</time></trkpt><trkpt lat="40.7625946" lon="9.6616192"><ele>23.0</ele><time>2026-04-12T15:37:49.549Z</time></trkpt><trkpt lat="40.7624543" lon="9.6614205"><ele>23.0</ele><time>2026-04-12T15:37:50.546Z</time></trkpt><trkpt lat="40.7623131" lon="9.6612201"><ele>23.0</ele><time>2026-04-12T15:37:51.548Z</time></trkpt><trkpt lat="40.7621731" lon="9.6610151"><ele>23.0</ele><time>2026-04-12T15:37:52.551Z</time></trkpt><trkpt lat="40.7620347" lon="9.660817"><ele>23.333333333333336</ele><time>2026-04-12T15:37:53.557Z</time></trkpt><trkpt lat="40.7619021" lon="9.6606255"><ele>23.666666666666668</ele><time>2026-04-12T15:37:54.552Z</time></trkpt><trkpt lat="40.761777" lon="9.6604519"><ele>24.0</ele><time>2026-04-12T15:37:55.539Z</time></trkpt><trkpt lat="40.7616627" lon="9.6602913"><ele>25.0</ele><time>2026-04-12T15:37:56.54Z</time></trkpt><trkpt lat="40.7615564" lon="9.660139"><ele>26.0</ele><time>2026-04-12T15:37:57.537Z</time></trkpt><trkpt lat="40.7614507" lon="9.6599945"><ele>27.0</ele><time>2026-04-12T15:37:58.538Z</time></trkpt><trkpt lat="40.7613472" lon="9.6598587"><ele>27.0</ele><time>2026-04-12T15:37:59.545Z</time></trkpt><trkpt lat="40.7612554" lon="9.6597232"><ele>27.0</ele><time>2026-04-12T15:38:00.545Z</time></trkpt><trkpt lat="40.7611668" lon="9.6595754"><ele>27.0</ele><time>2026-04-12T15:38:01.537Z</time></trkpt><trkpt lat="40.7610893" lon="9.659421"><ele>27.0</ele><time>2026-04-12T15:38:02.538Z</time></trkpt><trkpt lat="40.7610303" lon="9.6592488"><ele>27.75</ele><time>2026-04-12T15:38:03.557Z</time></trkpt><trkpt lat="40.7609892" lon="9.6590683"><ele>28.5</ele><time>2026-04-12T15:38:04.544Z</time></trkpt><trkpt lat="40.7609558" lon="9.6588879"><ele>29.25</ele><time>2026-04-12T15:38:05.54Z</time></trkpt><trkpt lat="40.7609279" lon="9.6587208"><ele>30.0</ele><time>2026-04-12T15:38:06.563Z</time></trkpt><trkpt lat="40.7608979" lon="9.6585542"><ele>30.25</ele><time>2026-04-12T15:38:07.536Z</time></trkpt><trkpt lat="40.7608668" lon="9.6583831"><ele>30.5</ele><time>2026-04-12T15:38:08.539Z</time></trkpt><trkpt lat="40.7608427" lon="9.6582069"><ele>30.75</ele><time>2026-04-12T15:38:09.537Z</time></trkpt><trkpt lat="40.7608281" lon="9.6580167"><ele>31.0</ele><time>2026-04-12T15:38:10.538Z</time></trkpt><trkpt lat="40.7608266" lon="9.6578175"><ele>31.0</ele><time>2026-04-12T15:38:11.534Z</time></trkpt><trkpt lat="40.760836" lon="9.6576097"><ele>31.0</ele><time>2026-04-12T15:38:12.543Z</time></trkpt><trkpt lat="40.7608603" lon="9.6574009"><ele>31.0</ele><time>2026-04-12T15:38:13.543Z</time></trkpt><trkpt lat="40.760881" lon="9.6571896"><ele>31.0</ele><time>2026-04-12T15:38:14.536Z</time></trkpt><trkpt lat="40.7609008" lon="9.6569815"><ele>31.0</ele><time>2026-04-12T15:38:15.533Z</time></trkpt><trkpt lat="40.7609165" lon="9.656786"><ele>31.0</ele><time>2026-04-12T15:38:16.535Z</time></trkpt><trkpt lat="40.7609355" lon="9.6566047"><ele>31.0</ele><time>2026-04-12T15:38:17.538Z</time></trkpt><trkpt lat="40.7609436" lon="9.6564337"><ele>30.75</ele><time>2026-04-12T15:38:18.543Z</time></trkpt><trkpt lat="40.7609396" lon="9.6562696"><ele>30.5</ele><time>2026-04-12T15:38:19.536Z</time></trkpt><trkpt lat="40.760916" lon="9.6560955"><ele>30.25</ele><time>2026-04-12T15:38:20.538Z</time></trkpt><trkpt lat="40.7608822" lon="9.655919"><ele>30.0</ele><time>2026-04-12T15:38:21.532Z</time></trkpt><trkpt lat="40.7608396" lon="9.6557396"><ele>29.5</ele><time>2026-04-12T15:38:22.539Z</time></trkpt><trkpt lat="40.7607972" lon="9.6555643"><ele>29.0</ele><time>2026-04-12T15:38:23.536Z</time></trkpt><trkpt lat="40.7607536" lon="9.6553863"><ele>28.5</ele><time>2026-04-12T15:38:24.54Z</time></trkpt><trkpt lat="40.7607104" lon="9.6552099"><ele>28.0</ele><time>2026-04-12T15:38:25.531Z</time></trkpt><trkpt lat="40.7606643" lon="9.6550312"><ele>28.25</ele><time>2026-04-12T15:38:26.534Z</time></trkpt><trkpt lat="40.7606159" lon="9.6548517"><ele>28.5</ele><time>2026-04-12T15:38:27.551Z</time></trkpt><trkpt lat="40.7605707" lon="9.6546741"><ele>28.75</ele><time>2026-04-12T15:38:28.526Z</time></trkpt><trkpt lat="40.7605277" lon="9.6545001"><ele>29.0</ele><time>2026-04-12T15:38:29.523Z</time></trkpt><trkpt lat="40.7604962" lon="9.6543381"><ele>29.0</ele><time>2026-04-12T15:38:30.555Z</time></trkpt><trkpt lat="40.7604799" lon="9.6541885"><ele>29.0</ele><time>2026-04-12T15:38:31.534Z</time></trkpt><trkpt lat="40.7604842" lon="9.6540627"><ele>29.0</ele><time>2026-04-12T15:38:32.523Z</time></trkpt><trkpt lat="40.7604988" lon="9.6539441"><ele>29.0</ele><time>2026-04-12T15:38:33.545Z</time></trkpt><trkpt lat="40.7605304" lon="9.6538499"><ele>29.0</ele><time>2026-04-12T15:38:34.534Z</time></trkpt><trkpt lat="40.7605685" lon="9.6537668"><ele>28.999999999999996</ele><time>2026-04-12T15:38:35.522Z</time></trkpt><trkpt lat="40.7606095" lon="9.6537024"><ele>29.0</ele><time>2026-04-12T15:38:36.532Z</time></trkpt><trkpt lat="40.7606602" lon="9.6536416"><ele>29.0</ele><time>2026-04-12T15:38:37.534Z</time></trkpt><trkpt lat="40.760722" lon="9.6535161"><ele>29.0</ele><time>2026-04-12T15:38:39.536Z</time></trkpt><trkpt lat="40.7607068" lon="9.6533703"><ele>28.999999999999996</ele><time>2026-04-12T15:38:41.542Z</time></trkpt><trkpt lat="40.7606557" lon="9.6533067"><ele>29.0</ele><time>2026-04-12T15:38:42.527Z</time></trkpt><trkpt lat="40.7605858" lon="9.6532743"><ele>29.799999999999997</ele><time>2026-04-12T15:38:43.535Z</time></trkpt><trkpt lat="40.7605004" lon="9.6532736"><ele>30.599999999999998</ele><time>2026-04-12T15:38:44.529Z</time></trkpt><trkpt lat="40.7603985" lon="9.6532728"><ele>31.4</ele><time>2026-04-12T15:38:45.536Z</time></trkpt><trkpt lat="40.7602908" lon="9.653244"><ele>32.199999999999996</ele><time>2026-04-12T15:38:46.525Z</time></trkpt><trkpt lat="40.760172" lon="9.6531859"><ele>33.0</ele><time>2026-04-12T15:38:47.517Z</time></trkpt><trkpt lat="40.7600417" lon="9.6531099"><ele>33.0</ele><time>2026-04-12T15:38:48.524Z</time></trkpt><trkpt lat="40.7599017" lon="9.6530278"><ele>33.0</ele><time>2026-04-12T15:38:49.522Z</time></trkpt><trkpt lat="40.7597557" lon="9.652941"><ele>33.0</ele><time>2026-04-12T15:38:50.519Z</time></trkpt><trkpt lat="40.7596004" lon="9.6528535"><ele>33.666666666666664</ele><time>2026-04-12T15:38:51.522Z</time></trkpt><trkpt lat="40.7594423" lon="9.6527646"><ele>34.33333333333333</ele><time>2026-04-12T15:38:52.519Z</time></trkpt><trkpt lat="40.7592836" lon="9.6526735"><ele>35.0</ele><time>2026-04-12T15:38:53.518Z</time></trkpt><trkpt lat="40.7591194" lon="9.6525813"><ele>35.0</ele><time>2026-04-12T15:38:54.523Z</time></trkpt><trkpt lat="40.7589523" lon="9.6524856"><ele>35.0</ele><time>2026-04-12T15:38:55.53Z</time></trkpt><trkpt lat="40.758783" lon="9.6523886"><ele>35.0</ele><time>2026-04-12T15:38:56.52Z</time></trkpt><trkpt lat="40.7586104" lon="9.6522921"><ele>35.0</ele><time>2026-04-12T15:38:57.512Z</time></trkpt><trkpt lat="40.7584348" lon="9.652192"><ele>35.0</ele><time>2026-04-12T15:38:58.526Z</time></trkpt><trkpt lat="40.758257" lon="9.6520868"><ele>35.0</ele><time>2026-04-12T15:38:59.516Z</time></trkpt><trkpt lat="40.7580771" lon="9.6519839"><ele>36.666666666666664</ele><time>2026-04-12T15:39:00.519Z</time></trkpt><trkpt lat="40.7578944" lon="9.6518798"><ele>38.333333333333336</ele><time>2026-04-12T15:39:01.52Z</time></trkpt><trkpt lat="40.7577116" lon="9.6517767"><ele>40.0</ele><time>2026-04-12T15:39:02.522Z</time></trkpt><trkpt lat="40.7575303" lon="9.6516761"><ele>40.0</ele><time>2026-04-12T15:39:03.514Z</time></trkpt><trkpt lat="40.7573511" lon="9.6515781"><ele>40.0</ele><time>2026-04-12T15:39:04.518Z</time></trkpt><trkpt lat="40.7571842" lon="9.6514795"><ele>40.0</ele><time>2026-04-12T15:39:05.519Z</time></trkpt><trkpt lat="40.7570239" lon="9.6513629"><ele>40.66666666666667</ele><time>2026-04-12T15:39:06.518Z</time></trkpt><trkpt lat="40.7568688" lon="9.6512289"><ele>41.333333333333336</ele><time>2026-04-12T15:39:07.523Z</time></trkpt><trkpt lat="40.7567147" lon="9.6510819"><ele>42.0</ele><time>2026-04-12T15:39:08.515Z</time></trkpt><trkpt lat="40.7565632" lon="9.6509292"><ele>42.0</ele><time>2026-04-12T15:39:09.511Z</time></trkpt><trkpt lat="40.7564117" lon="9.6507733"><ele>42.0</ele><time>2026-04-12T15:39:10.521Z</time></trkpt><trkpt lat="40.7562578" lon="9.6506242"><ele>42.0</ele><time>2026-04-12T15:39:11.517Z</time></trkpt><trkpt lat="40.7561089" lon="9.6504905"><ele>41.0</ele><time>2026-04-12T15:39:12.508Z</time></trkpt><trkpt lat="40.7559578" lon="9.6503692"><ele>40.0</ele><time>2026-04-12T15:39:13.521Z</time></trkpt><trkpt lat="40.7558022" lon="9.6502601"><ele>39.0</ele><time>2026-04-12T15:39:14.511Z</time></trkpt><trkpt lat="40.7556364" lon="9.6501736"><ele>42.33333333333333</ele><time>2026-04-12T15:39:15.509Z</time></trkpt><trkpt lat="40.7554616" lon="9.6501077"><ele>45.666666666666664</ele><time>2026-04-12T15:39:16.513Z</time></trkpt><trkpt lat="40.755281" lon="9.6500503"><ele>49.0</ele><time>2026-04-12T15:39:17.506Z</time></trkpt><trkpt lat="40.7551031" lon="9.6499923"><ele>49.0</ele><time>2026-04-12T15:39:18.51Z</time></trkpt><trkpt lat="40.7549263" lon="9.6499345"><ele>49.0</ele><time>2026-04-12T15:39:19.509Z</time></trkpt><trkpt lat="40.7547662" lon="9.6498586"><ele>49.0</ele><time>2026-04-12T15:39:20.51Z</time></trkpt><trkpt lat="40.7546141" lon="9.6497593"><ele>49.0</ele><time>2026-04-12T15:39:21.521Z</time></trkpt><trkpt lat="40.7544645" lon="9.6496397"><ele>49.0</ele><time>2026-04-12T15:39:22.52Z</time></trkpt><trkpt lat="40.7543152" lon="9.6495091"><ele>49.0</ele><time>2026-04-12T15:39:23.528Z</time></trkpt><trkpt lat="40.7541583" lon="9.6493738"><ele>50.0</ele><time>2026-04-12T15:39:24.507Z</time></trkpt><trkpt lat="40.753997" lon="9.6492377"><ele>51.0</ele><time>2026-04-12T15:39:25.504Z</time></trkpt><trkpt lat="40.7538286" lon="9.6490937"><ele>52.0</ele><time>2026-04-12T15:39:26.504Z</time></trkpt><trkpt lat="40.7536563" lon="9.6489432"><ele>51.33333333333333</ele><time>2026-04-12T15:39:27.525Z</time></trkpt><trkpt lat="40.7534847" lon="9.6487932"><ele>50.66666666666667</ele><time>2026-04-12T15:39:28.516Z</time></trkpt><trkpt lat="40.7533171" lon="9.6486443"><ele>50.0</ele><time>2026-04-12T15:39:29.501Z</time></trkpt><trkpt lat="40.7531528" lon="9.6484984"><ele>50.0</ele><time>2026-04-12T15:39:30.534Z</time></trkpt><trkpt lat="40.7529874" lon="9.6483592"><ele>50.0</ele><time>2026-04-12T15:39:31.511Z</time></trkpt><trkpt lat="40.7528253" lon="9.6482254"><ele>50.0</ele><time>2026-04-12T15:39:32.508Z</time></trkpt><trkpt lat="40.7526678" lon="9.6481002"><ele>50.66666666666667</ele><time>2026-04-12T15:39:33.506Z</time></trkpt><trkpt lat="40.7525082" lon="9.6479814"><ele>51.33333333333333</ele><time>2026-04-12T15:39:34.505Z</time></trkpt><trkpt lat="40.7523502" lon="9.6478666"><ele>52.0</ele><time>2026-04-12T15:39:35.517Z</time></trkpt><trkpt lat="40.7521947" lon="9.6477594"><ele>53.0</ele><time>2026-04-12T15:39:36.504Z</time></trkpt><trkpt lat="40.7520383" lon="9.6476571"><ele>54.0</ele><time>2026-04-12T15:39:37.506Z</time></trkpt><trkpt lat="40.7518838" lon="9.6475589"><ele>55.0</ele><time>2026-04-12T15:39:38.507Z</time></trkpt><trkpt lat="40.7517331" lon="9.6474664"><ele>55.33333333333333</ele><time>2026-04-12T15:39:39.502Z</time></trkpt><trkpt lat="40.7515872" lon="9.6473754"><ele>55.66666666666667</ele><time>2026-04-12T15:39:40.501Z</time></trkpt><trkpt lat="40.7514501" lon="9.6472896"><ele>56.0</ele><time>2026-04-12T15:39:41.504Z</time></trkpt><trkpt lat="40.7513193" lon="9.6472105"><ele>56.0</ele><time>2026-04-12T15:39:42.505Z</time></trkpt><trkpt lat="40.7511966" lon="9.6471297"><ele>56.0</ele><time>2026-04-12T15:39:43.512Z</time></trkpt><trkpt lat="40.7510851" lon="9.6470613"><ele>56.0</ele><time>2026-04-12T15:39:44.5Z</time></trkpt><trkpt lat="40.7509773" lon="9.646999"><ele>56.0</ele><time>2026-04-12T15:39:45.498Z</time></trkpt><trkpt lat="40.7508707" lon="9.6469636"><ele>56.0</ele><time>2026-04-12T15:39:46.504Z</time></trkpt><trkpt lat="40.7507579" lon="9.6469606"><ele>56.0</ele><time>2026-04-12T15:39:47.514Z</time></trkpt><trkpt lat="40.7506435" lon="9.6469961"><ele>56.0</ele><time>2026-04-12T15:39:48.503Z</time></trkpt><trkpt lat="40.7505225" lon="9.6470742"><ele>56.0</ele><time>2026-04-12T15:39:49.498Z</time></trkpt><trkpt lat="40.7503914" lon="9.647152"><ele>56.0</ele><time>2026-04-12T15:39:50.512Z</time></trkpt><trkpt lat="40.750253" lon="9.6472235"><ele>56.0</ele><time>2026-04-12T15:39:51.499Z</time></trkpt><trkpt lat="40.7501068" lon="9.6472542"><ele>56.0</ele><time>2026-04-12T15:39:52.605Z</time></trkpt><trkpt lat="40.7499497" lon="9.6472633"><ele>56.0</ele><time>2026-04-12T15:39:53.603Z</time></trkpt><trkpt lat="40.7497915" lon="9.6472419"><ele>56.0</ele><time>2026-04-12T15:39:54.598Z</time></trkpt><trkpt lat="40.7494682" lon="9.6471351"><ele>57.0</ele><time>2026-04-12T15:39:56.504Z</time></trkpt><trkpt lat="40.7492951" lon="9.6470941"><ele>58.0</ele><time>2026-04-12T15:39:57.62Z</time></trkpt><trkpt lat="40.7491217" lon="9.6470693"><ele>59.0</ele><time>2026-04-12T15:39:58.601Z</time></trkpt><trkpt lat="40.7489399" lon="9.647057"><ele>59.0</ele><time>2026-04-12T15:39:59.608Z</time></trkpt><trkpt lat="40.7487567" lon="9.6470554"><ele>59.0</ele><time>2026-04-12T15:40:00.599Z</time></trkpt><trkpt lat="40.7485743" lon="9.6470557"><ele>59.0</ele><time>2026-04-12T15:40:01.622Z</time></trkpt><trkpt lat="40.7483985" lon="9.647047"><ele>60.0</ele><time>2026-04-12T15:40:02.593Z</time></trkpt><trkpt lat="40.7482293" lon="9.6470448"><ele>61.0</ele><time>2026-04-12T15:40:03.616Z</time></trkpt><trkpt lat="40.7480583" lon="9.6470421"><ele>62.0</ele><time>2026-04-12T15:40:04.611Z</time></trkpt><trkpt lat="40.7478856" lon="9.6470311"><ele>62.66666666666667</ele><time>2026-04-12T15:40:05.612Z</time></trkpt><trkpt lat="40.7477095" lon="9.6470248"><ele>63.33333333333333</ele><time>2026-04-12T15:40:06.621Z</time></trkpt><trkpt lat="40.747535" lon="9.64702"><ele>64.0</ele><time>2026-04-12T15:40:07.599Z</time></trkpt><trkpt lat="40.7473569" lon="9.6470156"><ele>64.0</ele><time>2026-04-12T15:40:08.604Z</time></trkpt><trkpt lat="40.747181" lon="9.6470086"><ele>64.0</ele><time>2026-04-12T15:40:09.605Z</time></trkpt><trkpt lat="40.7470034" lon="9.6470049"><ele>64.0</ele><time>2026-04-12T15:40:10.597Z</time></trkpt><trkpt lat="40.7468246" lon="9.6470037"><ele>64.66666666666666</ele><time>2026-04-12T15:40:11.589Z</time></trkpt><trkpt lat="40.7466447" lon="9.6470043"><ele>65.33333333333333</ele><time>2026-04-12T15:40:12.602Z</time></trkpt><trkpt lat="40.7464625" lon="9.6470016"><ele>66.0</ele><time>2026-04-12T15:40:13.602Z</time></trkpt><trkpt lat="40.7462783" lon="9.6470006"><ele>66.0</ele><time>2026-04-12T15:40:14.61Z</time></trkpt><trkpt lat="40.7460933" lon="9.6469965"><ele>66.0</ele><time>2026-04-12T15:40:15.597Z</time></trkpt><trkpt lat="40.7459098" lon="9.6469906"><ele>66.0</ele><time>2026-04-12T15:40:16.602Z</time></trkpt><trkpt lat="40.7457246" lon="9.6469813"><ele>66.33333333333333</ele><time>2026-04-12T15:40:17.601Z</time></trkpt><trkpt lat="40.7455413" lon="9.6469555"><ele>66.66666666666666</ele><time>2026-04-12T15:40:18.59Z</time></trkpt><trkpt lat="40.7453604" lon="9.646912"><ele>67.0</ele><time>2026-04-12T15:40:19.59Z</time></trkpt><trkpt lat="40.7451756" lon="9.6468608"><ele>69.0</ele><time>2026-04-12T15:40:20.606Z</time></trkpt><trkpt lat="40.7449831" lon="9.646804"><ele>71.0</ele><time>2026-04-12T15:40:21.592Z</time></trkpt><trkpt lat="40.7447862" lon="9.6467456"><ele>73.0</ele><time>2026-04-12T15:40:22.586Z</time></trkpt><trkpt lat="40.7445893" lon="9.6466885"><ele>73.0</ele><time>2026-04-12T15:40:23.6Z</time></trkpt><trkpt lat="40.744399" lon="9.6466433"><ele>73.0</ele><time>2026-04-12T15:40:24.589Z</time></trkpt><trkpt lat="40.7442103" lon="9.6466038"><ele>73.0</ele><time>2026-04-12T15:40:25.587Z</time></trkpt><trkpt lat="40.74403" lon="9.646574"><ele>73.66666666666666</ele><time>2026-04-12T15:40:26.593Z</time></trkpt><trkpt lat="40.7438554" lon="9.6465459"><ele>74.33333333333333</ele><time>2026-04-12T15:40:27.604Z</time></trkpt><trkpt lat="40.743678" lon="9.6465242"><ele>75.0</ele><time>2026-04-12T15:40:28.586Z</time></trkpt><trkpt lat="40.7435028" lon="9.6464998"><ele>75.0</ele><time>2026-04-12T15:40:29.585Z</time></trkpt><trkpt lat="40.7433316" lon="9.6464765"><ele>75.0</ele><time>2026-04-12T15:40:30.587Z</time></trkpt><trkpt lat="40.7431652" lon="9.6464534"><ele>75.0</ele><time>2026-04-12T15:40:31.596Z</time></trkpt><trkpt lat="40.7430023" lon="9.6464301"><ele>75.0</ele><time>2026-04-12T15:40:32.592Z</time></trkpt><trkpt lat="40.7428436" lon="9.6464082"><ele>75.0</ele><time>2026-04-12T15:40:33.596Z</time></trkpt><trkpt lat="40.7426863" lon="9.6463869"><ele>75.0</ele><time>2026-04-12T15:40:34.586Z</time></trkpt><trkpt lat="40.7425292" lon="9.6463634"><ele>76.66666666666667</ele><time>2026-04-12T15:40:35.584Z</time></trkpt><trkpt lat="40.7423724" lon="9.6463409"><ele>78.33333333333334</ele><time>2026-04-12T15:40:36.582Z</time></trkpt><trkpt lat="40.7422177" lon="9.6463171"><ele>80.0</ele><time>2026-04-12T15:40:37.593Z</time></trkpt><trkpt lat="40.7420646" lon="9.6462951"><ele>80.0</ele><time>2026-04-12T15:40:38.579Z</time></trkpt><trkpt lat="40.7419123" lon="9.6462711"><ele>80.0</ele><time>2026-04-12T15:40:39.579Z</time></trkpt><trkpt lat="40.741761" lon="9.6462485"><ele>80.0</ele><time>2026-04-12T15:40:40.584Z</time></trkpt><trkpt lat="40.7416068" lon="9.6462266"><ele>81.0</ele><time>2026-04-12T15:40:41.583Z</time></trkpt><trkpt lat="40.7414509" lon="9.6462049"><ele>82.0</ele><time>2026-04-12T15:40:42.59Z</time></trkpt><trkpt lat="40.7412963" lon="9.6461773"><ele>83.0</ele><time>2026-04-12T15:40:43.58Z</time></trkpt><trkpt lat="40.741139" lon="9.6461533"><ele>87.66666666666667</ele><time>2026-04-12T15:40:44.585Z</time></trkpt><trkpt lat="40.7409809" lon="9.6461265"><ele>92.33333333333334</ele><time>2026-04-12T15:40:45.592Z</time></trkpt><trkpt lat="40.7408193" lon="9.6461021"><ele>97.0</ele><time>2026-04-12T15:40:46.582Z</time></trkpt><trkpt lat="40.7406596" lon="9.6460788"><ele>97.0</ele><time>2026-04-12T15:40:47.577Z</time></trkpt><trkpt lat="40.7404984" lon="9.6460576"><ele>97.0</ele><time>2026-04-12T15:40:48.585Z</time></trkpt><trkpt lat="40.7403363" lon="9.6460401"><ele>97.0</ele><time>2026-04-12T15:40:49.578Z</time></trkpt><trkpt lat="40.7401717" lon="9.646038"><ele>95.66666666666667</ele><time>2026-04-12T15:40:50.575Z</time></trkpt><trkpt lat="40.7400102" lon="9.6460631"><ele>94.33333333333334</ele><time>2026-04-12T15:40:51.579Z</time></trkpt><trkpt lat="40.7398487" lon="9.6461118"><ele>93.0</ele><time>2026-04-12T15:40:52.583Z</time></trkpt><trkpt lat="40.7396924" lon="9.6461729"><ele>92.0</ele><time>2026-04-12T15:40:53.597Z</time></trkpt><trkpt lat="40.7395261" lon="9.6462402"><ele>91.0</ele><time>2026-04-12T15:40:54.576Z</time></trkpt><trkpt lat="40.739354" lon="9.6463126"><ele>90.0</ele><time>2026-04-12T15:40:55.581Z</time></trkpt><trkpt lat="40.7391751" lon="9.6463845"><ele>90.0</ele><time>2026-04-12T15:40:56.587Z</time></trkpt><trkpt lat="40.7389946" lon="9.6464582"><ele>90.0</ele><time>2026-04-12T15:40:57.586Z</time></trkpt><trkpt lat="40.7388136" lon="9.6465325"><ele>90.0</ele><time>2026-04-12T15:40:58.571Z</time></trkpt><trkpt lat="40.7386326" lon="9.6466091"><ele>91.0</ele><time>2026-04-12T15:40:59.574Z</time></trkpt><trkpt lat="40.738452" lon="9.6466885"><ele>92.0</ele><time>2026-04-12T15:41:00.572Z</time></trkpt><trkpt lat="40.7382758" lon="9.6467666"><ele>93.0</ele><time>2026-04-12T15:41:01.575Z</time></trkpt><trkpt lat="40.7381055" lon="9.6468414"><ele>93.0</ele><time>2026-04-12T15:41:02.592Z</time></trkpt><trkpt lat="40.7379394" lon="9.6469149"><ele>93.0</ele><time>2026-04-12T15:41:03.57Z</time></trkpt><trkpt lat="40.7377737" lon="9.6469882"><ele>93.0</ele><time>2026-04-12T15:41:04.574Z</time></trkpt><trkpt lat="40.7376154" lon="9.6470579"><ele>96.33333333333334</ele><time>2026-04-12T15:41:05.582Z</time></trkpt><trkpt lat="40.7374616" lon="9.6471391"><ele>99.66666666666667</ele><time>2026-04-12T15:41:06.576Z</time></trkpt><trkpt lat="40.7373113" lon="9.6472279"><ele>103.0</ele><time>2026-04-12T15:41:07.585Z</time></trkpt><trkpt lat="40.7371642" lon="9.6473162"><ele>103.0</ele><time>2026-04-12T15:41:08.569Z</time></trkpt><trkpt lat="40.7370186" lon="9.6474013"><ele>103.0</ele><time>2026-04-12T15:41:09.575Z</time></trkpt><trkpt lat="40.7368826" lon="9.6474838"><ele>103.0</ele><time>2026-04-12T15:41:10.573Z</time></trkpt><trkpt lat="40.7367549" lon="9.647564"><ele>103.25</ele><time>2026-04-12T15:41:11.568Z</time></trkpt><trkpt lat="40.7366268" lon="9.6476302"><ele>103.5</ele><time>2026-04-12T15:41:12.583Z</time></trkpt><trkpt lat="40.7364988" lon="9.647669"><ele>103.75</ele><time>2026-04-12T15:41:13.582Z</time></trkpt><trkpt lat="40.7363567" lon="9.6476809"><ele>104.0</ele><time>2026-04-12T15:41:14.565Z</time></trkpt><trkpt lat="40.7361989" lon="9.6476728"><ele>101.33333333333333</ele><time>2026-04-12T15:41:15.573Z</time></trkpt><trkpt lat="40.7360268" lon="9.6476561"><ele>98.66666666666666</ele><time>2026-04-12T15:41:16.568Z</time></trkpt><trkpt lat="40.7358501" lon="9.6476332"><ele>96.0</ele><time>2026-04-12T15:41:17.573Z</time></trkpt><trkpt lat="40.7356706" lon="9.6476227"><ele>96.0</ele><time>2026-04-12T15:41:18.566Z</time></trkpt><trkpt lat="40.7354988" lon="9.6476318"><ele>96.0</ele><time>2026-04-12T15:41:19.579Z</time></trkpt><trkpt lat="40.7353287" lon="9.6476351"><ele>96.0</ele><time>2026-04-12T15:41:20.568Z</time></trkpt><trkpt lat="40.7351627" lon="9.6476481"><ele>93.33333333333333</ele><time>2026-04-12T15:41:21.581Z</time></trkpt><trkpt lat="40.7350052" lon="9.6476719"><ele>90.66666666666666</ele><time>2026-04-12T15:41:22.57Z</time></trkpt><trkpt lat="40.7348558" lon="9.6477019"><ele>88.0</ele><time>2026-04-12T15:41:23.57Z</time></trkpt><trkpt lat="40.7347032" lon="9.6477301"><ele>88.0</ele><time>2026-04-12T15:41:24.572Z</time></trkpt><trkpt lat="40.7345517" lon="9.6477643"><ele>88.0</ele><time>2026-04-12T15:41:25.575Z</time></trkpt><trkpt lat="40.7344043" lon="9.6478087"><ele>88.0</ele><time>2026-04-12T15:41:26.567Z</time></trkpt><trkpt lat="40.7342569" lon="9.6478759"><ele>87.66666666666666</ele><time>2026-04-12T15:41:27.579Z</time></trkpt><trkpt lat="40.7341105" lon="9.6479742"><ele>87.33333333333333</ele><time>2026-04-12T15:41:28.573Z</time></trkpt><trkpt lat="40.7339611" lon="9.6480972"><ele>87.0</ele><time>2026-04-12T15:41:29.566Z</time></trkpt><trkpt lat="40.7338047" lon="9.6482341"><ele>87.0</ele><time>2026-04-12T15:41:30.579Z</time></trkpt><trkpt lat="40.7336465" lon="9.6483769"><ele>87.0</ele><time>2026-04-12T15:41:31.579Z</time></trkpt><trkpt lat="40.7334847" lon="9.6485209"><ele>87.0</ele><time>2026-04-12T15:41:32.578Z</time></trkpt><trkpt lat="40.7333224" lon="9.6486645"><ele>86.33333333333333</ele><time>2026-04-12T15:41:33.593Z</time></trkpt><trkpt lat="40.7331664" lon="9.6488033"><ele>85.66666666666666</ele><time>2026-04-12T15:41:34.571Z</time></trkpt><trkpt lat="40.7330186" lon="9.6489369"><ele>85.0</ele><time>2026-04-12T15:41:35.566Z</time></trkpt><trkpt lat="40.7328767" lon="9.6490572"><ele>85.0</ele><time>2026-04-12T15:41:36.571Z</time></trkpt><trkpt lat="40.7327397" lon="9.6491697"><ele>85.0</ele><time>2026-04-12T15:41:37.579Z</time></trkpt><trkpt lat="40.7326034" lon="9.6492665"><ele>85.0</ele><time>2026-04-12T15:41:38.571Z</time></trkpt><trkpt lat="40.73247" lon="9.6493406"><ele>83.75</ele><time>2026-04-12T15:41:39.56Z</time></trkpt><trkpt lat="40.7323297" lon="9.6493836"><ele>82.5</ele><time>2026-04-12T15:41:40.573Z</time></trkpt><trkpt lat="40.7321859" lon="9.6494013"><ele>81.25</ele><time>2026-04-12T15:41:41.579Z</time></trkpt><trkpt lat="40.7320304" lon="9.6493919"><ele>80.0</ele><time>2026-04-12T15:41:42.563Z</time></trkpt><trkpt lat="40.7318783" lon="9.6493567"><ele>78.75</ele><time>2026-04-12T15:41:43.565Z</time></trkpt><trkpt lat="40.7317341" lon="9.6493199"><ele>77.5</ele><time>2026-04-12T15:41:44.581Z</time></trkpt><trkpt lat="40.7316027" lon="9.6493064"><ele>76.25</ele><time>2026-04-12T15:41:45.568Z</time></trkpt><trkpt lat="40.7314705" lon="9.6493262"><ele>75.0</ele><time>2026-04-12T15:41:46.571Z</time></trkpt><trkpt lat="40.7313409" lon="9.6493812"><ele>74.0</ele><time>2026-04-12T15:41:47.574Z</time></trkpt><trkpt lat="40.7312068" lon="9.6494631"><ele>73.0</ele><time>2026-04-12T15:41:48.581Z</time></trkpt><trkpt lat="40.7310742" lon="9.6495803"><ele>72.0</ele><time>2026-04-12T15:41:49.572Z</time></trkpt><trkpt lat="40.7309422" lon="9.6497118"><ele>72.0</ele><time>2026-04-12T15:41:50.567Z</time></trkpt><trkpt lat="40.730816" lon="9.6498306"><ele>72.0</ele><time>2026-04-12T15:41:51.568Z</time></trkpt><trkpt lat="40.7307012" lon="9.6499434"><ele>72.0</ele><time>2026-04-12T15:41:52.569Z</time></trkpt><trkpt lat="40.7306122" lon="9.6500712"><ele>72.0</ele><time>2026-04-12T15:41:53.564Z</time></trkpt><trkpt lat="40.730553" lon="9.6502083"><ele>72.25</ele><time>2026-04-12T15:41:54.565Z</time></trkpt><trkpt lat="40.7305254" lon="9.6503635"><ele>72.5</ele><time>2026-04-12T15:41:55.573Z</time></trkpt><trkpt lat="40.7305147" lon="9.6505139"><ele>72.75</ele><time>2026-04-12T15:41:56.559Z</time></trkpt><trkpt lat="40.7305249" lon="9.6506692"><ele>73.0</ele><time>2026-04-12T15:41:57.565Z</time></trkpt><trkpt lat="40.7305432" lon="9.6508106"><ele>73.0</ele><time>2026-04-12T15:41:58.564Z</time></trkpt><trkpt lat="40.7305635" lon="9.6509257"><ele>73.0</ele><time>2026-04-12T15:41:59.58Z</time></trkpt><trkpt lat="40.73058" lon="9.6510158"><ele>73.0</ele><time>2026-04-12T15:42:00.572Z</time></trkpt><trkpt lat="40.7305685" lon="9.6511592"><ele>73.0</ele><time>2026-04-12T15:42:02.567Z</time></trkpt><trkpt lat="40.7304687" lon="9.6512474"><ele>73.0</ele><time>2026-04-12T15:42:04.562Z</time></trkpt><trkpt lat="40.7303998" lon="9.6512475"><ele>72.0</ele><time>2026-04-12T15:42:05.567Z</time></trkpt><trkpt lat="40.7303208" lon="9.651208"><ele>71.0</ele><time>2026-04-12T15:42:06.557Z</time></trkpt><trkpt lat="40.7302333" lon="9.6511416"><ele>70.0</ele><time>2026-04-12T15:42:07.574Z</time></trkpt><trkpt lat="40.7301348" lon="9.6510645"><ele>69.0</ele><time>2026-04-12T15:42:08.571Z</time></trkpt><trkpt lat="40.7300282" lon="9.6509744"><ele>68.0</ele><time>2026-04-12T15:42:09.57Z</time></trkpt><trkpt lat="40.7299205" lon="9.6508842"><ele>68.0</ele><time>2026-04-12T15:42:10.56Z</time></trkpt><trkpt lat="40.7298076" lon="9.6507879"><ele>68.0</ele><time>2026-04-12T15:42:11.569Z</time></trkpt><trkpt lat="40.7296914" lon="9.6506828"><ele>68.0</ele><time>2026-04-12T15:42:12.568Z</time></trkpt><trkpt lat="40.7295848" lon="9.650556"><ele>68.0</ele><time>2026-04-12T15:42:13.564Z</time></trkpt><trkpt lat="40.7294941" lon="9.6503981"><ele>67.66666666666667</ele><time>2026-04-12T15:42:14.565Z</time></trkpt><trkpt lat="40.7294357" lon="9.6502217"><ele>67.33333333333333</ele><time>2026-04-12T15:42:15.564Z</time></trkpt><trkpt lat="40.7294065" lon="9.6500322"><ele>67.0</ele><time>2026-04-12T15:42:16.572Z</time></trkpt><trkpt lat="40.7293995" lon="9.6498214"><ele>66.33333333333333</ele><time>2026-04-12T15:42:17.565Z</time></trkpt><trkpt lat="40.7293872" lon="9.6496054"><ele>65.66666666666667</ele><time>2026-04-12T15:42:18.56Z</time></trkpt><trkpt lat="40.7293668" lon="9.6493934"><ele>65.0</ele><time>2026-04-12T15:42:19.56Z</time></trkpt><trkpt lat="40.7293293" lon="9.6491829"><ele>65.0</ele><time>2026-04-12T15:42:20.568Z</time></trkpt><trkpt lat="40.7292667" lon="9.6489806"><ele>65.0</ele><time>2026-04-12T15:42:21.574Z</time></trkpt><trkpt lat="40.7291864" lon="9.6487786"><ele>65.0</ele><time>2026-04-12T15:42:22.558Z</time></trkpt><trkpt lat="40.7291001" lon="9.6485708"><ele>66.66666666666667</ele><time>2026-04-12T15:42:23.553Z</time></trkpt><trkpt lat="40.7290048" lon="9.6483488"><ele>68.33333333333333</ele><time>2026-04-12T15:42:24.56Z</time></trkpt><trkpt lat="40.7289028" lon="9.648124"><ele>70.0</ele><time>2026-04-12T15:42:25.564Z</time></trkpt><trkpt lat="40.7288012" lon="9.6478967"><ele>69.66666666666666</ele><time>2026-04-12T15:42:26.567Z</time></trkpt><trkpt lat="40.7287032" lon="9.6476731"><ele>69.33333333333333</ele><time>2026-04-12T15:42:27.562Z</time></trkpt><trkpt lat="40.7286063" lon="9.6474524"><ele>69.0</ele><time>2026-04-12T15:42:28.56Z</time></trkpt><trkpt lat="40.7285027" lon="9.6472335"><ele>69.0</ele><time>2026-04-12T15:42:29.559Z</time></trkpt><trkpt lat="40.7283942" lon="9.6470213"><ele>69.0</ele><time>2026-04-12T15:42:30.566Z</time></trkpt><trkpt lat="40.7282737" lon="9.6468161"><ele>69.0</ele><time>2026-04-12T15:42:31.567Z</time></trkpt><trkpt lat="40.728143" lon="9.646615"><ele>69.33333333333333</ele><time>2026-04-12T15:42:32.569Z</time></trkpt><trkpt lat="40.7280169" lon="9.6464157"><ele>69.66666666666666</ele><time>2026-04-12T15:42:33.571Z</time></trkpt><trkpt lat="40.7278954" lon="9.6462237"><ele>70.0</ele><time>2026-04-12T15:42:34.572Z</time></trkpt><trkpt lat="40.7277757" lon="9.6460461"><ele>70.0</ele><time>2026-04-12T15:42:35.561Z</time></trkpt><trkpt lat="40.727657" lon="9.6458684"><ele>70.0</ele><time>2026-04-12T15:42:36.576Z</time></trkpt><trkpt lat="40.7275401" lon="9.6457009"><ele>70.0</ele><time>2026-04-12T15:42:37.565Z</time></trkpt><trkpt lat="40.7274227" lon="9.6455368"><ele>70.0</ele><time>2026-04-12T15:42:38.556Z</time></trkpt><trkpt lat="40.7273032" lon="9.6453773"><ele>70.0</ele><time>2026-04-12T15:42:39.573Z</time></trkpt><trkpt lat="40.727186" lon="9.6452245"><ele>70.0</ele><time>2026-04-12T15:42:40.565Z</time></trkpt><trkpt lat="40.7270748" lon="9.6450727"><ele>70.33333333333333</ele><time>2026-04-12T15:42:41.557Z</time></trkpt><trkpt lat="40.7269714" lon="9.6449121"><ele>70.66666666666667</ele><time>2026-04-12T15:42:42.56Z</time></trkpt><trkpt lat="40.7268768" lon="9.644739"><ele>71.0</ele><time>2026-04-12T15:42:43.557Z</time></trkpt><trkpt lat="40.7267925" lon="9.6445537"><ele>72.33333333333334</ele><time>2026-04-12T15:42:44.555Z</time></trkpt><trkpt lat="40.7267026" lon="9.6443749"><ele>73.66666666666667</ele><time>2026-04-12T15:42:45.563Z</time></trkpt><trkpt lat="40.7266046" lon="9.6442053"><ele>75.0</ele><time>2026-04-12T15:42:46.569Z</time></trkpt><trkpt lat="40.7264859" lon="9.6440419"><ele>75.0</ele><time>2026-04-12T15:42:47.564Z</time></trkpt><trkpt lat="40.7263528" lon="9.643888"><ele>75.0</ele><time>2026-04-12T15:42:48.555Z</time></trkpt><trkpt lat="40.7262184" lon="9.6437462"><ele>75.0</ele><time>2026-04-12T15:42:49.564Z</time></trkpt><trkpt lat="40.7260879" lon="9.6436142"><ele>75.0</ele><time>2026-04-12T15:42:50.558Z</time></trkpt><trkpt lat="40.7259702" lon="9.6434922"><ele>75.0</ele><time>2026-04-12T15:42:51.552Z</time></trkpt><trkpt lat="40.7258558" lon="9.6433802"><ele>75.0</ele><time>2026-04-12T15:42:52.558Z</time></trkpt><trkpt lat="40.7257397" lon="9.6432668"><ele>75.0</ele><time>2026-04-12T15:42:53.563Z</time></trkpt><trkpt lat="40.7256195" lon="9.6431576"><ele>75.0</ele><time>2026-04-12T15:42:54.57Z</time></trkpt><trkpt lat="40.7254917" lon="9.6430549"><ele>75.0</ele><time>2026-04-12T15:42:55.601Z</time></trkpt><trkpt lat="40.7253604" lon="9.6429553"><ele>75.0</ele><time>2026-04-12T15:42:56.557Z</time></trkpt><trkpt lat="40.7252387" lon="9.6428663"><ele>75.0</ele><time>2026-04-12T15:42:57.554Z</time></trkpt><trkpt lat="40.7251196" lon="9.6427827"><ele>75.5</ele><time>2026-04-12T15:42:58.559Z</time></trkpt><trkpt lat="40.7250046" lon="9.6426982"><ele>76.0</ele><time>2026-04-12T15:42:59.562Z</time></trkpt><trkpt lat="40.7248923" lon="9.6426182"><ele>76.5</ele><time>2026-04-12T15:43:00.555Z</time></trkpt><trkpt lat="40.7247939" lon="9.6425433"><ele>77.0</ele><time>2026-04-12T15:43:01.555Z</time></trkpt><trkpt lat="40.7247109" lon="9.6424693"><ele>77.0</ele><time>2026-04-12T15:43:02.558Z</time></trkpt><trkpt lat="40.7246476" lon="9.6423913"><ele>77.0</ele><time>2026-04-12T15:43:03.555Z</time></trkpt><trkpt lat="40.7245955" lon="9.6423141"><ele>77.0</ele><time>2026-04-12T15:43:04.563Z</time></trkpt><trkpt lat="40.7245533" lon="9.6422372"><ele>77.0</ele><time>2026-04-12T15:43:05.565Z</time></trkpt><trkpt lat="40.7245019" lon="9.6421092"><ele>77.0</ele><time>2026-04-12T15:43:07.552Z</time></trkpt><trkpt lat="40.7244851" lon="9.6419879"><ele>77.0</ele><time>2026-04-12T15:43:09.571Z</time></trkpt><trkpt lat="40.7244995" lon="9.6418462"><ele>77.4</ele><time>2026-04-12T15:43:11.555Z</time></trkpt><trkpt lat="40.7245207" lon="9.6416984"><ele>77.80000000000001</ele><time>2026-04-12T15:43:13.577Z</time></trkpt><trkpt lat="40.7245346" lon="9.6415702"><ele>78.2</ele><time>2026-04-12T15:43:15.558Z</time></trkpt><trkpt lat="40.7245103" lon="9.6414496"><ele>78.60000000000001</ele><time>2026-04-12T15:43:17.568Z</time></trkpt><trkpt lat="40.724475" lon="9.6413671"><ele>79.0</ele><time>2026-04-12T15:43:19.561Z</time></trkpt><trkpt lat="40.7244247" lon="9.6412875"><ele>79.0</ele><time>2026-04-12T15:43:22.55Z</time></trkpt></trkseg></trk></gpx>